<?xml version="1.0" encoding="UTF-8" standalone="no" ?>
<gpx xmlns="http://www.topografix.com/GPX/1/1" xmlns:xsi="http://www.w3.org/2001/XMLSchema-instance" xsi:schemaLocation="http://www.topografix.com/GPX/1/1 http://www.topografix.com/GPX/1/1/gpx.xsd" version="1.1" creator="VisuGPX - https://www.visugpx.com">
  <metadata>
    <name>stambrugges 49km</name>
    <desc><![CDATA[super tracé de 49 km 95% offroad]]></desc>
  </metadata>
  <trk>
    <name><![CDATA[stambrugges 49km_1]]></name>
    <trkseg>
      <trkpt lat="50.49709" lon="3.71823">
        <ele>117.57</ele>
        <time>2020-11-08T07:55:36.000Z</time>
      </trkpt>
      <trkpt lat="50.49709" lon="3.71823">
        <ele>117.57</ele>
        <time>2020-11-08T07:55:36.001Z</time>
      </trkpt>
      <trkpt lat="50.49715" lon="3.71825">
        <ele>118.72</ele>
        <time>2020-11-08T08:08:43.000Z</time>
      </trkpt>
      <trkpt lat="50.49719" lon="3.71827">
        <ele>119.36</ele>
        <time>2020-11-08T08:09:22.000Z</time>
      </trkpt>
      <trkpt lat="50.49721" lon="3.71833">
        <ele>118.16</ele>
        <time>2020-11-08T08:14:55.000Z</time>
      </trkpt>
      <trkpt lat="50.49724" lon="3.71839">
        <ele>116.8</ele>
        <time>2020-11-08T08:14:58.000Z</time>
      </trkpt>
      <trkpt lat="50.49727" lon="3.71845">
        <ele>115.8</ele>
        <time>2020-11-08T08:15:01.000Z</time>
      </trkpt>
      <trkpt lat="50.49731" lon="3.71848">
        <ele>116.8</ele>
        <time>2020-11-08T08:15:18.000Z</time>
      </trkpt>
      <trkpt lat="50.49735" lon="3.71855">
        <ele>116.98</ele>
        <time>2020-11-08T08:15:21.000Z</time>
      </trkpt>
      <trkpt lat="50.49738" lon="3.71861">
        <ele>117.19</ele>
        <time>2020-11-08T08:15:23.000Z</time>
      </trkpt>
      <trkpt lat="50.49742" lon="3.71868">
        <ele>117.82</ele>
        <time>2020-11-08T08:15:25.000Z</time>
      </trkpt>
      <trkpt lat="50.49746" lon="3.71873">
        <ele>117.62</ele>
        <time>2020-11-08T08:15:27.000Z</time>
      </trkpt>
      <trkpt lat="50.4975" lon="3.71878">
        <ele>116.94</ele>
        <time>2020-11-08T08:15:29.000Z</time>
      </trkpt>
      <trkpt lat="50.49754" lon="3.71884">
        <ele>116.57</ele>
        <time>2020-11-08T08:15:31.000Z</time>
      </trkpt>
      <trkpt lat="50.49758" lon="3.7189">
        <ele>117.57</ele>
        <time>2020-11-08T08:15:33.000Z</time>
      </trkpt>
      <trkpt lat="50.49763" lon="3.71896">
        <ele>118.11</ele>
        <time>2020-11-08T08:15:35.000Z</time>
      </trkpt>
      <trkpt lat="50.49769" lon="3.71903">
        <ele>118.73</ele>
        <time>2020-11-08T08:15:37.000Z</time>
      </trkpt>
      <trkpt lat="50.49792" lon="3.71897">
        <ele>117.04</ele>
        <time>2020-11-08T08:15:43.000Z</time>
      </trkpt>
      <trkpt lat="50.49794" lon="3.71887">
        <ele>117.23</ele>
        <time>2020-11-08T08:15:45.000Z</time>
      </trkpt>
      <trkpt lat="50.49771" lon="3.71824">
        <ele>112.57</ele>
        <time>2020-11-08T08:15:57.000Z</time>
      </trkpt>
      <trkpt lat="50.49752" lon="3.71784">
        <ele>110.08</ele>
        <time>2020-11-08T08:16:05.000Z</time>
      </trkpt>
      <trkpt lat="50.49749" lon="3.71778">
        <ele>113.4</ele>
        <time>2020-11-08T08:16:07.000Z</time>
      </trkpt>
      <trkpt lat="50.49746" lon="3.71772">
        <ele>115.27</ele>
        <time>2020-11-08T08:16:15.000Z</time>
      </trkpt>
      <trkpt lat="50.49741" lon="3.71764">
        <ele>115.12</ele>
        <time>2020-11-08T08:16:23.000Z</time>
      </trkpt>
      <trkpt lat="50.49737" lon="3.71758">
        <ele>113.7</ele>
        <time>2020-11-08T08:16:25.000Z</time>
      </trkpt>
      <trkpt lat="50.49732" lon="3.7175">
        <ele>114.04</ele>
        <time>2020-11-08T08:16:27.000Z</time>
      </trkpt>
      <trkpt lat="50.49729" lon="3.71743">
        <ele>113.02</ele>
        <time>2020-11-08T08:16:29.000Z</time>
      </trkpt>
      <trkpt lat="50.49727" lon="3.71736">
        <ele>113.59</ele>
        <time>2020-11-08T08:16:31.000Z</time>
      </trkpt>
      <trkpt lat="50.49723" lon="3.71729">
        <ele>114.4</ele>
        <time>2020-11-08T08:16:33.000Z</time>
      </trkpt>
      <trkpt lat="50.49723" lon="3.71729">
        <ele>114.4</ele>
        <time>2020-11-08T08:16:33.001Z</time>
      </trkpt>
      <trkpt lat="50.49727" lon="3.7172">
        <ele>112.94</ele>
        <time>2020-11-08T08:17:20.000Z</time>
      </trkpt>
      <trkpt lat="50.49732" lon="3.7171">
        <ele>114.07</ele>
        <time>2020-11-08T08:17:22.000Z</time>
      </trkpt>
      <trkpt lat="50.49736" lon="3.71701">
        <ele>114.69</ele>
        <time>2020-11-08T08:17:24.000Z</time>
      </trkpt>
      <trkpt lat="50.4974" lon="3.71699">
        <ele>111.86</ele>
        <time>2020-11-08T08:17:27.000Z</time>
      </trkpt>
      <trkpt lat="50.49747" lon="3.71698">
        <ele>111.46</ele>
        <time>2020-11-08T08:17:30.000Z</time>
      </trkpt>
      <trkpt lat="50.49765" lon="3.71708">
        <ele>110.9</ele>
        <time>2020-11-08T08:17:36.000Z</time>
      </trkpt>
      <trkpt lat="50.49773" lon="3.71708">
        <ele>110.53</ele>
        <time>2020-11-08T08:17:38.000Z</time>
      </trkpt>
      <trkpt lat="50.49777" lon="3.71711">
        <ele>113.31</ele>
        <time>2020-11-08T08:17:41.000Z</time>
      </trkpt>
      <trkpt lat="50.49777" lon="3.7172">
        <ele>112.3</ele>
        <time>2020-11-08T08:17:46.000Z</time>
      </trkpt>
      <trkpt lat="50.49777" lon="3.71728">
        <ele>112.27</ele>
        <time>2020-11-08T08:17:49.000Z</time>
      </trkpt>
      <trkpt lat="50.49781" lon="3.71733">
        <ele>113.07</ele>
        <time>2020-11-08T08:17:51.000Z</time>
      </trkpt>
      <trkpt lat="50.49785" lon="3.7174">
        <ele>114.3</ele>
        <time>2020-11-08T08:17:53.000Z</time>
      </trkpt>
      <trkpt lat="50.49792" lon="3.71744">
        <ele>115.02</ele>
        <time>2020-11-08T08:17:56.000Z</time>
      </trkpt>
      <trkpt lat="50.49797" lon="3.71744">
        <ele>115.85</ele>
        <time>2020-11-08T08:17:58.000Z</time>
      </trkpt>
      <trkpt lat="50.49803" lon="3.71743">
        <ele>115.74</ele>
        <time>2020-11-08T08:18:00.000Z</time>
      </trkpt>
      <trkpt lat="50.4981" lon="3.71746">
        <ele>115.63</ele>
        <time>2020-11-08T08:18:02.000Z</time>
      </trkpt>
      <trkpt lat="50.49818" lon="3.71753">
        <ele>115.46</ele>
        <time>2020-11-08T08:18:04.000Z</time>
      </trkpt>
      <trkpt lat="50.49825" lon="3.71761">
        <ele>114.78</ele>
        <time>2020-11-08T08:18:06.000Z</time>
      </trkpt>
      <trkpt lat="50.4983" lon="3.71769">
        <ele>116.34</ele>
        <time>2020-11-08T08:18:08.000Z</time>
      </trkpt>
      <trkpt lat="50.49834" lon="3.71778">
        <ele>113.89</ele>
        <time>2020-11-08T08:18:10.000Z</time>
      </trkpt>
      <trkpt lat="50.49835" lon="3.71786">
        <ele>112.83</ele>
        <time>2020-11-08T08:18:12.000Z</time>
      </trkpt>
      <trkpt lat="50.4984" lon="3.71785">
        <ele>111.42</ele>
        <time>2020-11-08T08:18:15.000Z</time>
      </trkpt>
      <trkpt lat="50.49844" lon="3.71777">
        <ele>112.44</ele>
        <time>2020-11-08T08:18:17.000Z</time>
      </trkpt>
      <trkpt lat="50.49848" lon="3.71768">
        <ele>109.75</ele>
        <time>2020-11-08T08:18:19.000Z</time>
      </trkpt>
      <trkpt lat="50.49854" lon="3.71761">
        <ele>110.26</ele>
        <time>2020-11-08T08:18:21.000Z</time>
      </trkpt>
      <trkpt lat="50.49858" lon="3.71753">
        <ele>110.23</ele>
        <time>2020-11-08T08:18:23.000Z</time>
      </trkpt>
      <trkpt lat="50.49861" lon="3.71746">
        <ele>112.23</ele>
        <time>2020-11-08T08:18:25.000Z</time>
      </trkpt>
      <trkpt lat="50.49861" lon="3.71738">
        <ele>114.63</ele>
        <time>2020-11-08T08:18:27.000Z</time>
      </trkpt>
      <trkpt lat="50.49883" lon="3.71731">
        <ele>113.84</ele>
        <time>2020-11-08T08:18:32.000Z</time>
      </trkpt>
      <trkpt lat="50.49889" lon="3.71729">
        <ele>114.17</ele>
        <time>2020-11-08T08:18:33.000Z</time>
      </trkpt>
      <trkpt lat="50.49891" lon="3.71737">
        <ele>115.39</ele>
        <time>2020-11-08T08:18:37.000Z</time>
      </trkpt>
      <trkpt lat="50.49887" lon="3.71743">
        <ele>116.35</ele>
        <time>2020-11-08T08:18:40.000Z</time>
      </trkpt>
      <trkpt lat="50.49883" lon="3.71749">
        <ele>115.74</ele>
        <time>2020-11-08T08:18:43.000Z</time>
      </trkpt>
      <trkpt lat="50.49883" lon="3.71757">
        <ele>117.12</ele>
        <time>2020-11-08T08:18:46.000Z</time>
      </trkpt>
      <trkpt lat="50.49883" lon="3.71757">
        <ele>117.12</ele>
        <time>2020-11-08T08:18:46.001Z</time>
      </trkpt>
      <trkpt lat="50.49884" lon="3.71765">
        <ele>118.01</ele>
        <time>2020-11-08T08:18:59.000Z</time>
      </trkpt>
      <trkpt lat="50.49896" lon="3.71806">
        <ele>116.19</ele>
        <time>2020-11-08T08:19:04.000Z</time>
      </trkpt>
      <trkpt lat="50.49898" lon="3.71813">
        <ele>117.24</ele>
        <time>2020-11-08T08:19:05.000Z</time>
      </trkpt>
      <trkpt lat="50.49902" lon="3.71821">
        <ele>117.17</ele>
        <time>2020-11-08T08:19:07.000Z</time>
      </trkpt>
      <trkpt lat="50.49909" lon="3.71827">
        <ele>115.43</ele>
        <time>2020-11-08T08:19:09.000Z</time>
      </trkpt>
      <trkpt lat="50.4992" lon="3.71837">
        <ele>115.9</ele>
        <time>2020-11-08T08:19:11.000Z</time>
      </trkpt>
      <trkpt lat="50.49924" lon="3.71843">
        <ele>115.57</ele>
        <time>2020-11-08T08:19:12.000Z</time>
      </trkpt>
      <trkpt lat="50.49928" lon="3.71848">
        <ele>114.9</ele>
        <time>2020-11-08T08:19:13.000Z</time>
      </trkpt>
      <trkpt lat="50.49934" lon="3.71853">
        <ele>114.8</ele>
        <time>2020-11-08T08:19:14.000Z</time>
      </trkpt>
      <trkpt lat="50.49938" lon="3.71858">
        <ele>114.95</ele>
        <time>2020-11-08T08:19:15.000Z</time>
      </trkpt>
      <trkpt lat="50.49942" lon="3.71861">
        <ele>115.77</ele>
        <time>2020-11-08T08:19:16.000Z</time>
      </trkpt>
      <trkpt lat="50.49951" lon="3.71864">
        <ele>115.98</ele>
        <time>2020-11-08T08:19:18.000Z</time>
      </trkpt>
      <trkpt lat="50.49958" lon="3.71867">
        <ele>116.18</ele>
        <time>2020-11-08T08:19:20.000Z</time>
      </trkpt>
      <trkpt lat="50.49965" lon="3.71871">
        <ele>116.64</ele>
        <time>2020-11-08T08:19:22.000Z</time>
      </trkpt>
      <trkpt lat="50.49971" lon="3.71873">
        <ele>116.63</ele>
        <time>2020-11-08T08:19:23.000Z</time>
      </trkpt>
      <trkpt lat="50.49979" lon="3.71874">
        <ele>117.49</ele>
        <time>2020-11-08T08:19:25.000Z</time>
      </trkpt>
      <trkpt lat="50.49987" lon="3.71875">
        <ele>117.11</ele>
        <time>2020-11-08T08:19:27.000Z</time>
      </trkpt>
      <trkpt lat="50.49995" lon="3.71875">
        <ele>117.3</ele>
        <time>2020-11-08T08:19:29.000Z</time>
      </trkpt>
      <trkpt lat="50.50005" lon="3.7188">
        <ele>118.42</ele>
        <time>2020-11-08T08:19:31.000Z</time>
      </trkpt>
      <trkpt lat="50.5001" lon="3.71882">
        <ele>117.73</ele>
        <time>2020-11-08T08:19:32.000Z</time>
      </trkpt>
      <trkpt lat="50.50017" lon="3.71884">
        <ele>117.58</ele>
        <time>2020-11-08T08:19:33.000Z</time>
      </trkpt>
      <trkpt lat="50.50021" lon="3.71885">
        <ele>116.57</ele>
        <time>2020-11-08T08:19:34.000Z</time>
      </trkpt>
      <trkpt lat="50.50027" lon="3.71886">
        <ele>117.13</ele>
        <time>2020-11-08T08:19:35.000Z</time>
      </trkpt>
      <trkpt lat="50.50032" lon="3.71885">
        <ele>117.31</ele>
        <time>2020-11-08T08:19:36.000Z</time>
      </trkpt>
      <trkpt lat="50.5004" lon="3.71886">
        <ele>116.54</ele>
        <time>2020-11-08T08:19:38.000Z</time>
      </trkpt>
      <trkpt lat="50.50045" lon="3.71888">
        <ele>116.31</ele>
        <time>2020-11-08T08:19:39.000Z</time>
      </trkpt>
      <trkpt lat="50.50054" lon="3.71887">
        <ele>116.39</ele>
        <time>2020-11-08T08:19:41.000Z</time>
      </trkpt>
      <trkpt lat="50.50056" lon="3.7188">
        <ele>114.42</ele>
        <time>2020-11-08T08:19:42.000Z</time>
      </trkpt>
      <trkpt lat="50.50061" lon="3.71878">
        <ele>115.44</ele>
        <time>2020-11-08T08:19:43.000Z</time>
      </trkpt>
      <trkpt lat="50.50075" lon="3.71879">
        <ele>115.34</ele>
        <time>2020-11-08T08:19:45.000Z</time>
      </trkpt>
      <trkpt lat="50.50082" lon="3.71879">
        <ele>115.86</ele>
        <time>2020-11-08T08:19:46.000Z</time>
      </trkpt>
      <trkpt lat="50.50089" lon="3.7188">
        <ele>115.58</ele>
        <time>2020-11-08T08:19:47.000Z</time>
      </trkpt>
      <trkpt lat="50.50095" lon="3.71883">
        <ele>116.2</ele>
        <time>2020-11-08T08:19:48.000Z</time>
      </trkpt>
      <trkpt lat="50.50103" lon="3.71885">
        <ele>116.37</ele>
        <time>2020-11-08T08:19:49.000Z</time>
      </trkpt>
      <trkpt lat="50.50109" lon="3.71885">
        <ele>115.89</ele>
        <time>2020-11-08T08:19:50.000Z</time>
      </trkpt>
      <trkpt lat="50.50116" lon="3.71886">
        <ele>115.12</ele>
        <time>2020-11-08T08:19:51.000Z</time>
      </trkpt>
      <trkpt lat="50.50122" lon="3.71884">
        <ele>114.33</ele>
        <time>2020-11-08T08:19:52.000Z</time>
      </trkpt>
      <trkpt lat="50.50129" lon="3.71882">
        <ele>114.97</ele>
        <time>2020-11-08T08:19:53.000Z</time>
      </trkpt>
      <trkpt lat="50.50135" lon="3.71881">
        <ele>113.8</ele>
        <time>2020-11-08T08:19:54.000Z</time>
      </trkpt>
      <trkpt lat="50.50141" lon="3.71878">
        <ele>112.67</ele>
        <time>2020-11-08T08:19:55.000Z</time>
      </trkpt>
      <trkpt lat="50.50147" lon="3.71871">
        <ele>112.11</ele>
        <time>2020-11-08T08:19:56.000Z</time>
      </trkpt>
      <trkpt lat="50.50152" lon="3.71867">
        <ele>112.64</ele>
        <time>2020-11-08T08:19:57.000Z</time>
      </trkpt>
      <trkpt lat="50.50159" lon="3.71863">
        <ele>112.6</ele>
        <time>2020-11-08T08:19:58.000Z</time>
      </trkpt>
      <trkpt lat="50.50165" lon="3.71859">
        <ele>112.13</ele>
        <time>2020-11-08T08:19:59.000Z</time>
      </trkpt>
      <trkpt lat="50.50173" lon="3.71858">
        <ele>112.66</ele>
        <time>2020-11-08T08:20:00.000Z</time>
      </trkpt>
      <trkpt lat="50.50179" lon="3.71858">
        <ele>112.24</ele>
        <time>2020-11-08T08:20:01.000Z</time>
      </trkpt>
      <trkpt lat="50.50187" lon="3.71858">
        <ele>112.15</ele>
        <time>2020-11-08T08:20:02.000Z</time>
      </trkpt>
      <trkpt lat="50.50193" lon="3.71862">
        <ele>111.48</ele>
        <time>2020-11-08T08:20:03.000Z</time>
      </trkpt>
      <trkpt lat="50.50199" lon="3.71867">
        <ele>111.36</ele>
        <time>2020-11-08T08:20:04.000Z</time>
      </trkpt>
      <trkpt lat="50.50204" lon="3.71876">
        <ele>111.45</ele>
        <time>2020-11-08T08:20:05.000Z</time>
      </trkpt>
      <trkpt lat="50.50209" lon="3.71885">
        <ele>111.19</ele>
        <time>2020-11-08T08:20:06.000Z</time>
      </trkpt>
      <trkpt lat="50.50213" lon="3.71894">
        <ele>110.95</ele>
        <time>2020-11-08T08:20:07.000Z</time>
      </trkpt>
      <trkpt lat="50.50217" lon="3.71902">
        <ele>111.7</ele>
        <time>2020-11-08T08:20:08.000Z</time>
      </trkpt>
      <trkpt lat="50.50222" lon="3.71912">
        <ele>111.73</ele>
        <time>2020-11-08T08:20:09.000Z</time>
      </trkpt>
      <trkpt lat="50.50226" lon="3.7192">
        <ele>111.6</ele>
        <time>2020-11-08T08:20:10.000Z</time>
      </trkpt>
      <trkpt lat="50.5023" lon="3.7193">
        <ele>112.06</ele>
        <time>2020-11-08T08:20:11.000Z</time>
      </trkpt>
      <trkpt lat="50.50233" lon="3.71939">
        <ele>112.07</ele>
        <time>2020-11-08T08:20:12.000Z</time>
      </trkpt>
      <trkpt lat="50.50237" lon="3.71946">
        <ele>113.15</ele>
        <time>2020-11-08T08:20:13.000Z</time>
      </trkpt>
      <trkpt lat="50.5024" lon="3.71953">
        <ele>113.62</ele>
        <time>2020-11-08T08:20:14.000Z</time>
      </trkpt>
      <trkpt lat="50.50243" lon="3.7196">
        <ele>113.74</ele>
        <time>2020-11-08T08:20:15.000Z</time>
      </trkpt>
      <trkpt lat="50.50245" lon="3.71965">
        <ele>114.6</ele>
        <time>2020-11-08T08:20:16.000Z</time>
      </trkpt>
      <trkpt lat="50.50248" lon="3.71972">
        <ele>115.29</ele>
        <time>2020-11-08T08:20:17.000Z</time>
      </trkpt>
      <trkpt lat="50.50254" lon="3.71983">
        <ele>114.72</ele>
        <time>2020-11-08T08:20:19.000Z</time>
      </trkpt>
      <trkpt lat="50.50257" lon="3.71989">
        <ele>115.45</ele>
        <time>2020-11-08T08:20:20.000Z</time>
      </trkpt>
      <trkpt lat="50.5026" lon="3.71995">
        <ele>114.83</ele>
        <time>2020-11-08T08:20:21.000Z</time>
      </trkpt>
      <trkpt lat="50.50264" lon="3.72003">
        <ele>115.4</ele>
        <time>2020-11-08T08:20:22.000Z</time>
      </trkpt>
      <trkpt lat="50.50267" lon="3.72009">
        <ele>115.68</ele>
        <time>2020-11-08T08:20:23.000Z</time>
      </trkpt>
      <trkpt lat="50.5027" lon="3.72016">
        <ele>114.74</ele>
        <time>2020-11-08T08:20:24.000Z</time>
      </trkpt>
      <trkpt lat="50.50273" lon="3.72022">
        <ele>113.65</ele>
        <time>2020-11-08T08:20:25.000Z</time>
      </trkpt>
      <trkpt lat="50.50276" lon="3.72027">
        <ele>113.04</ele>
        <time>2020-11-08T08:20:26.000Z</time>
      </trkpt>
      <trkpt lat="50.50283" lon="3.72037">
        <ele>112.29</ele>
        <time>2020-11-08T08:20:28.000Z</time>
      </trkpt>
      <trkpt lat="50.50287" lon="3.72044">
        <ele>111.94</ele>
        <time>2020-11-08T08:20:29.000Z</time>
      </trkpt>
      <trkpt lat="50.50291" lon="3.72049">
        <ele>111.5</ele>
        <time>2020-11-08T08:20:30.000Z</time>
      </trkpt>
      <trkpt lat="50.50293" lon="3.72056">
        <ele>111.02</ele>
        <time>2020-11-08T08:20:31.000Z</time>
      </trkpt>
      <trkpt lat="50.50297" lon="3.72064">
        <ele>112.07</ele>
        <time>2020-11-08T08:20:32.000Z</time>
      </trkpt>
      <trkpt lat="50.50301" lon="3.7207">
        <ele>112.46</ele>
        <time>2020-11-08T08:20:33.000Z</time>
      </trkpt>
      <trkpt lat="50.50304" lon="3.72077">
        <ele>112.39</ele>
        <time>2020-11-08T08:20:34.000Z</time>
      </trkpt>
      <trkpt lat="50.50308" lon="3.72083">
        <ele>113.3</ele>
        <time>2020-11-08T08:20:35.000Z</time>
      </trkpt>
      <trkpt lat="50.50311" lon="3.72089">
        <ele>113.16</ele>
        <time>2020-11-08T08:20:36.000Z</time>
      </trkpt>
      <trkpt lat="50.50314" lon="3.72095">
        <ele>112.78</ele>
        <time>2020-11-08T08:20:37.000Z</time>
      </trkpt>
      <trkpt lat="50.50316" lon="3.72101">
        <ele>113.3</ele>
        <time>2020-11-08T08:20:38.000Z</time>
      </trkpt>
      <trkpt lat="50.50318" lon="3.72114">
        <ele>113.57</ele>
        <time>2020-11-08T08:20:40.000Z</time>
      </trkpt>
      <trkpt lat="50.50315" lon="3.72124">
        <ele>111.96</ele>
        <time>2020-11-08T08:20:42.000Z</time>
      </trkpt>
      <trkpt lat="50.50306" lon="3.72132">
        <ele>110.32</ele>
        <time>2020-11-08T08:20:44.000Z</time>
      </trkpt>
      <trkpt lat="50.50302" lon="3.72133">
        <ele>110.42</ele>
        <time>2020-11-08T08:20:45.000Z</time>
      </trkpt>
      <trkpt lat="50.50297" lon="3.72135">
        <ele>110.08</ele>
        <time>2020-11-08T08:20:46.000Z</time>
      </trkpt>
      <trkpt lat="50.50292" lon="3.72136">
        <ele>110.01</ele>
        <time>2020-11-08T08:20:47.000Z</time>
      </trkpt>
      <trkpt lat="50.50285" lon="3.72137">
        <ele>110.39</ele>
        <time>2020-11-08T08:20:48.000Z</time>
      </trkpt>
      <trkpt lat="50.5028" lon="3.72139">
        <ele>111.07</ele>
        <time>2020-11-08T08:20:49.000Z</time>
      </trkpt>
      <trkpt lat="50.50275" lon="3.7214">
        <ele>111.28</ele>
        <time>2020-11-08T08:20:50.000Z</time>
      </trkpt>
      <trkpt lat="50.50269" lon="3.72142">
        <ele>111.19</ele>
        <time>2020-11-08T08:20:51.000Z</time>
      </trkpt>
      <trkpt lat="50.50263" lon="3.72145">
        <ele>110.64</ele>
        <time>2020-11-08T08:20:52.000Z</time>
      </trkpt>
      <trkpt lat="50.50257" lon="3.72148">
        <ele>111.01</ele>
        <time>2020-11-08T08:20:53.000Z</time>
      </trkpt>
      <trkpt lat="50.50251" lon="3.72148">
        <ele>110.76</ele>
        <time>2020-11-08T08:20:54.000Z</time>
      </trkpt>
      <trkpt lat="50.50246" lon="3.72149">
        <ele>111.06</ele>
        <time>2020-11-08T08:20:55.000Z</time>
      </trkpt>
      <trkpt lat="50.50241" lon="3.72151">
        <ele>111.51</ele>
        <time>2020-11-08T08:20:56.000Z</time>
      </trkpt>
      <trkpt lat="50.50234" lon="3.72154">
        <ele>113.08</ele>
        <time>2020-11-08T08:20:57.000Z</time>
      </trkpt>
      <trkpt lat="50.50228" lon="3.72157">
        <ele>114.01</ele>
        <time>2020-11-08T08:20:58.000Z</time>
      </trkpt>
      <trkpt lat="50.50223" lon="3.7216">
        <ele>114.19</ele>
        <time>2020-11-08T08:20:59.000Z</time>
      </trkpt>
      <trkpt lat="50.50214" lon="3.72165">
        <ele>116.21</ele>
        <time>2020-11-08T08:21:01.000Z</time>
      </trkpt>
      <trkpt lat="50.50209" lon="3.72175">
        <ele>117.13</ele>
        <time>2020-11-08T08:21:03.000Z</time>
      </trkpt>
      <trkpt lat="50.50209" lon="3.72188">
        <ele>116.56</ele>
        <time>2020-11-08T08:21:05.000Z</time>
      </trkpt>
      <trkpt lat="50.5021" lon="3.72203">
        <ele>116.23</ele>
        <time>2020-11-08T08:21:07.000Z</time>
      </trkpt>
      <trkpt lat="50.50211" lon="3.7221">
        <ele>116.11</ele>
        <time>2020-11-08T08:21:08.000Z</time>
      </trkpt>
      <trkpt lat="50.50214" lon="3.72222">
        <ele>116.73</ele>
        <time>2020-11-08T08:21:09.000Z</time>
      </trkpt>
      <trkpt lat="50.50215" lon="3.7223">
        <ele>117.39</ele>
        <time>2020-11-08T08:21:10.000Z</time>
      </trkpt>
      <trkpt lat="50.50216" lon="3.72239">
        <ele>118.29</ele>
        <time>2020-11-08T08:21:11.000Z</time>
      </trkpt>
      <trkpt lat="50.50218" lon="3.72247">
        <ele>118.37</ele>
        <time>2020-11-08T08:21:12.000Z</time>
      </trkpt>
      <trkpt lat="50.5022" lon="3.72256">
        <ele>116.92</ele>
        <time>2020-11-08T08:21:13.000Z</time>
      </trkpt>
      <trkpt lat="50.50223" lon="3.72264">
        <ele>117.78</ele>
        <time>2020-11-08T08:21:14.000Z</time>
      </trkpt>
      <trkpt lat="50.50225" lon="3.72272">
        <ele>117.4</ele>
        <time>2020-11-08T08:21:15.000Z</time>
      </trkpt>
      <trkpt lat="50.50229" lon="3.72279">
        <ele>116.22</ele>
        <time>2020-11-08T08:21:16.000Z</time>
      </trkpt>
      <trkpt lat="50.50232" lon="3.72285">
        <ele>116.46</ele>
        <time>2020-11-08T08:21:17.000Z</time>
      </trkpt>
      <trkpt lat="50.50235" lon="3.72293">
        <ele>116.61</ele>
        <time>2020-11-08T08:21:18.000Z</time>
      </trkpt>
      <trkpt lat="50.50239" lon="3.72301">
        <ele>116.34</ele>
        <time>2020-11-08T08:21:19.000Z</time>
      </trkpt>
      <trkpt lat="50.50241" lon="3.72307">
        <ele>115.79</ele>
        <time>2020-11-08T08:21:20.000Z</time>
      </trkpt>
      <trkpt lat="50.50245" lon="3.72314">
        <ele>115.5</ele>
        <time>2020-11-08T08:21:21.000Z</time>
      </trkpt>
      <trkpt lat="50.50249" lon="3.7232">
        <ele>115.01</ele>
        <time>2020-11-08T08:21:22.000Z</time>
      </trkpt>
      <trkpt lat="50.50253" lon="3.72327">
        <ele>115.43</ele>
        <time>2020-11-08T08:21:23.000Z</time>
      </trkpt>
      <trkpt lat="50.50258" lon="3.72332">
        <ele>115.32</ele>
        <time>2020-11-08T08:21:24.000Z</time>
      </trkpt>
      <trkpt lat="50.50263" lon="3.72337">
        <ele>115.85</ele>
        <time>2020-11-08T08:21:25.000Z</time>
      </trkpt>
      <trkpt lat="50.50269" lon="3.72343">
        <ele>116.16</ele>
        <time>2020-11-08T08:21:26.000Z</time>
      </trkpt>
      <trkpt lat="50.50275" lon="3.72347">
        <ele>116.43</ele>
        <time>2020-11-08T08:21:27.000Z</time>
      </trkpt>
      <trkpt lat="50.50278" lon="3.72355">
        <ele>116.83</ele>
        <time>2020-11-08T08:21:28.000Z</time>
      </trkpt>
      <trkpt lat="50.50285" lon="3.72359">
        <ele>116.93</ele>
        <time>2020-11-08T08:21:29.000Z</time>
      </trkpt>
      <trkpt lat="50.50292" lon="3.72363">
        <ele>116.65</ele>
        <time>2020-11-08T08:21:30.000Z</time>
      </trkpt>
      <trkpt lat="50.50298" lon="3.72369">
        <ele>117.51</ele>
        <time>2020-11-08T08:21:31.000Z</time>
      </trkpt>
      <trkpt lat="50.50304" lon="3.72375">
        <ele>116.56</ele>
        <time>2020-11-08T08:21:32.000Z</time>
      </trkpt>
      <trkpt lat="50.50311" lon="3.72382">
        <ele>116.83</ele>
        <time>2020-11-08T08:21:33.000Z</time>
      </trkpt>
      <trkpt lat="50.50317" lon="3.72387">
        <ele>116.99</ele>
        <time>2020-11-08T08:21:34.000Z</time>
      </trkpt>
      <trkpt lat="50.50324" lon="3.72393">
        <ele>117.81</ele>
        <time>2020-11-08T08:21:35.000Z</time>
      </trkpt>
      <trkpt lat="50.50329" lon="3.72398">
        <ele>117.44</ele>
        <time>2020-11-08T08:21:36.000Z</time>
      </trkpt>
      <trkpt lat="50.50334" lon="3.72406">
        <ele>116.3</ele>
        <time>2020-11-08T08:21:37.000Z</time>
      </trkpt>
      <trkpt lat="50.50339" lon="3.72412">
        <ele>115.89</ele>
        <time>2020-11-08T08:21:38.000Z</time>
      </trkpt>
      <trkpt lat="50.50344" lon="3.72419">
        <ele>115.73</ele>
        <time>2020-11-08T08:21:39.000Z</time>
      </trkpt>
      <trkpt lat="50.5035" lon="3.72425">
        <ele>116.31</ele>
        <time>2020-11-08T08:21:40.000Z</time>
      </trkpt>
      <trkpt lat="50.50354" lon="3.72432">
        <ele>116.18</ele>
        <time>2020-11-08T08:21:41.000Z</time>
      </trkpt>
      <trkpt lat="50.50358" lon="3.7244">
        <ele>115.08</ele>
        <time>2020-11-08T08:21:42.000Z</time>
      </trkpt>
      <trkpt lat="50.50362" lon="3.72449">
        <ele>113.93</ele>
        <time>2020-11-08T08:21:43.000Z</time>
      </trkpt>
      <trkpt lat="50.50366" lon="3.72455">
        <ele>114.08</ele>
        <time>2020-11-08T08:21:44.000Z</time>
      </trkpt>
      <trkpt lat="50.50371" lon="3.72456">
        <ele>113.51</ele>
        <time>2020-11-08T08:21:45.000Z</time>
      </trkpt>
      <trkpt lat="50.50378" lon="3.7246">
        <ele>113.93</ele>
        <time>2020-11-08T08:21:46.000Z</time>
      </trkpt>
      <trkpt lat="50.50384" lon="3.72463">
        <ele>113.33</ele>
        <time>2020-11-08T08:21:47.000Z</time>
      </trkpt>
      <trkpt lat="50.5039" lon="3.72465">
        <ele>112.76</ele>
        <time>2020-11-08T08:21:48.000Z</time>
      </trkpt>
      <trkpt lat="50.50398" lon="3.72463">
        <ele>112.05</ele>
        <time>2020-11-08T08:21:49.000Z</time>
      </trkpt>
      <trkpt lat="50.50407" lon="3.72464">
        <ele>112.37</ele>
        <time>2020-11-08T08:21:50.000Z</time>
      </trkpt>
      <trkpt lat="50.50416" lon="3.72464">
        <ele>112.62</ele>
        <time>2020-11-08T08:21:51.000Z</time>
      </trkpt>
      <trkpt lat="50.50424" lon="3.72466">
        <ele>113.03</ele>
        <time>2020-11-08T08:21:52.000Z</time>
      </trkpt>
      <trkpt lat="50.50434" lon="3.72471">
        <ele>112.76</ele>
        <time>2020-11-08T08:21:53.000Z</time>
      </trkpt>
      <trkpt lat="50.50444" lon="3.72474">
        <ele>113.73</ele>
        <time>2020-11-08T08:21:54.000Z</time>
      </trkpt>
      <trkpt lat="50.50453" lon="3.72477">
        <ele>114.51</ele>
        <time>2020-11-08T08:21:55.000Z</time>
      </trkpt>
      <trkpt lat="50.50477" lon="3.72474">
        <ele>112.52</ele>
        <time>2020-11-08T08:21:57.000Z</time>
      </trkpt>
      <trkpt lat="50.50485" lon="3.72474">
        <ele>112.2</ele>
        <time>2020-11-08T08:21:58.000Z</time>
      </trkpt>
      <trkpt lat="50.50496" lon="3.72477">
        <ele>113.02</ele>
        <time>2020-11-08T08:21:59.000Z</time>
      </trkpt>
      <trkpt lat="50.50506" lon="3.72476">
        <ele>111.96</ele>
        <time>2020-11-08T08:22:00.000Z</time>
      </trkpt>
      <trkpt lat="50.50515" lon="3.72475">
        <ele>111.77</ele>
        <time>2020-11-08T08:22:01.000Z</time>
      </trkpt>
      <trkpt lat="50.50525" lon="3.72473">
        <ele>111.77</ele>
        <time>2020-11-08T08:22:02.000Z</time>
      </trkpt>
      <trkpt lat="50.50533" lon="3.72469">
        <ele>110.84</ele>
        <time>2020-11-08T08:22:03.000Z</time>
      </trkpt>
      <trkpt lat="50.50541" lon="3.72466">
        <ele>110</ele>
        <time>2020-11-08T08:22:04.000Z</time>
      </trkpt>
      <trkpt lat="50.50546" lon="3.72459">
        <ele>109.72</ele>
        <time>2020-11-08T08:22:05.000Z</time>
      </trkpt>
      <trkpt lat="50.50553" lon="3.72456">
        <ele>110.51</ele>
        <time>2020-11-08T08:22:06.000Z</time>
      </trkpt>
      <trkpt lat="50.50559" lon="3.72455">
        <ele>110.51</ele>
        <time>2020-11-08T08:22:07.000Z</time>
      </trkpt>
      <trkpt lat="50.50564" lon="3.72457">
        <ele>110.27</ele>
        <time>2020-11-08T08:22:08.000Z</time>
      </trkpt>
      <trkpt lat="50.5057" lon="3.72461">
        <ele>110.86</ele>
        <time>2020-11-08T08:22:09.000Z</time>
      </trkpt>
      <trkpt lat="50.50577" lon="3.72464">
        <ele>109.87</ele>
        <time>2020-11-08T08:22:10.000Z</time>
      </trkpt>
      <trkpt lat="50.50582" lon="3.72465">
        <ele>108.92</ele>
        <time>2020-11-08T08:22:11.000Z</time>
      </trkpt>
      <trkpt lat="50.50588" lon="3.72468">
        <ele>108.65</ele>
        <time>2020-11-08T08:22:12.000Z</time>
      </trkpt>
      <trkpt lat="50.50594" lon="3.72468">
        <ele>108.5</ele>
        <time>2020-11-08T08:22:13.000Z</time>
      </trkpt>
      <trkpt lat="50.506" lon="3.72469">
        <ele>108.8</ele>
        <time>2020-11-08T08:22:14.000Z</time>
      </trkpt>
      <trkpt lat="50.50607" lon="3.72472">
        <ele>108.48</ele>
        <time>2020-11-08T08:22:15.000Z</time>
      </trkpt>
      <trkpt lat="50.50612" lon="3.72477">
        <ele>109.02</ele>
        <time>2020-11-08T08:22:16.000Z</time>
      </trkpt>
      <trkpt lat="50.50616" lon="3.72483">
        <ele>109.01</ele>
        <time>2020-11-08T08:22:17.000Z</time>
      </trkpt>
      <trkpt lat="50.50621" lon="3.72489">
        <ele>109.68</ele>
        <time>2020-11-08T08:22:18.000Z</time>
      </trkpt>
      <trkpt lat="50.50624" lon="3.72496">
        <ele>109.53</ele>
        <time>2020-11-08T08:22:19.000Z</time>
      </trkpt>
      <trkpt lat="50.50628" lon="3.72503">
        <ele>109.9</ele>
        <time>2020-11-08T08:22:20.000Z</time>
      </trkpt>
      <trkpt lat="50.50632" lon="3.7251">
        <ele>110.34</ele>
        <time>2020-11-08T08:22:21.000Z</time>
      </trkpt>
      <trkpt lat="50.50636" lon="3.72516">
        <ele>110.78</ele>
        <time>2020-11-08T08:22:22.000Z</time>
      </trkpt>
      <trkpt lat="50.50641" lon="3.72521">
        <ele>110.61</ele>
        <time>2020-11-08T08:22:23.000Z</time>
      </trkpt>
      <trkpt lat="50.50646" lon="3.72526">
        <ele>110.66</ele>
        <time>2020-11-08T08:22:24.000Z</time>
      </trkpt>
      <trkpt lat="50.50651" lon="3.72529">
        <ele>110.18</ele>
        <time>2020-11-08T08:22:25.000Z</time>
      </trkpt>
      <trkpt lat="50.50657" lon="3.72532">
        <ele>110.06</ele>
        <time>2020-11-08T08:22:26.000Z</time>
      </trkpt>
      <trkpt lat="50.50662" lon="3.72536">
        <ele>110.2</ele>
        <time>2020-11-08T08:22:27.000Z</time>
      </trkpt>
      <trkpt lat="50.50668" lon="3.72541">
        <ele>109.8</ele>
        <time>2020-11-08T08:22:29.000Z</time>
      </trkpt>
      <trkpt lat="50.50672" lon="3.72544">
        <ele>109.83</ele>
        <time>2020-11-08T08:22:31.000Z</time>
      </trkpt>
      <trkpt lat="50.50672" lon="3.72544">
        <ele>109.83</ele>
        <time>2020-11-08T08:22:31.001Z</time>
      </trkpt>
      <trkpt lat="50.50677" lon="3.72549">
        <ele>109.93</ele>
        <time>2020-11-08T08:22:45.000Z</time>
      </trkpt>
      <trkpt lat="50.50677" lon="3.72556">
        <ele>109.42</ele>
        <time>2020-11-08T08:22:47.000Z</time>
      </trkpt>
      <trkpt lat="50.50677" lon="3.72566">
        <ele>109.3</ele>
        <time>2020-11-08T08:22:49.000Z</time>
      </trkpt>
      <trkpt lat="50.50674" lon="3.72579">
        <ele>109.31</ele>
        <time>2020-11-08T08:22:51.000Z</time>
      </trkpt>
      <trkpt lat="50.50669" lon="3.72586">
        <ele>109.64</ele>
        <time>2020-11-08T08:22:52.000Z</time>
      </trkpt>
      <trkpt lat="50.50667" lon="3.72594">
        <ele>109.48</ele>
        <time>2020-11-08T08:22:53.000Z</time>
      </trkpt>
      <trkpt lat="50.50666" lon="3.72602">
        <ele>109.76</ele>
        <time>2020-11-08T08:22:54.000Z</time>
      </trkpt>
      <trkpt lat="50.50665" lon="3.72611">
        <ele>109.91</ele>
        <time>2020-11-08T08:22:55.000Z</time>
      </trkpt>
      <trkpt lat="50.50665" lon="3.7262">
        <ele>109.83</ele>
        <time>2020-11-08T08:22:56.000Z</time>
      </trkpt>
      <trkpt lat="50.50665" lon="3.72629">
        <ele>109.73</ele>
        <time>2020-11-08T08:22:57.000Z</time>
      </trkpt>
      <trkpt lat="50.50665" lon="3.72638">
        <ele>109.64</ele>
        <time>2020-11-08T08:22:58.000Z</time>
      </trkpt>
      <trkpt lat="50.50666" lon="3.72647">
        <ele>109.53</ele>
        <time>2020-11-08T08:22:59.000Z</time>
      </trkpt>
      <trkpt lat="50.50665" lon="3.72655">
        <ele>109.67</ele>
        <time>2020-11-08T08:23:00.000Z</time>
      </trkpt>
      <trkpt lat="50.50666" lon="3.72664">
        <ele>109.97</ele>
        <time>2020-11-08T08:23:01.000Z</time>
      </trkpt>
      <trkpt lat="50.50669" lon="3.72671">
        <ele>109.8</ele>
        <time>2020-11-08T08:23:02.000Z</time>
      </trkpt>
      <trkpt lat="50.50673" lon="3.72677">
        <ele>109.84</ele>
        <time>2020-11-08T08:23:03.000Z</time>
      </trkpt>
      <trkpt lat="50.50678" lon="3.7268">
        <ele>109.77</ele>
        <time>2020-11-08T08:23:04.000Z</time>
      </trkpt>
      <trkpt lat="50.50682" lon="3.72682">
        <ele>110.37</ele>
        <time>2020-11-08T08:23:05.000Z</time>
      </trkpt>
      <trkpt lat="50.5069" lon="3.72687">
        <ele>110.47</ele>
        <time>2020-11-08T08:23:07.000Z</time>
      </trkpt>
      <trkpt lat="50.50696" lon="3.7269">
        <ele>110.44</ele>
        <time>2020-11-08T08:23:09.000Z</time>
      </trkpt>
      <trkpt lat="50.50702" lon="3.72687">
        <ele>110.36</ele>
        <time>2020-11-08T08:23:11.000Z</time>
      </trkpt>
      <trkpt lat="50.50705" lon="3.72682">
        <ele>109.79</ele>
        <time>2020-11-08T08:23:13.000Z</time>
      </trkpt>
      <trkpt lat="50.50713" lon="3.72682">
        <ele>108.9</ele>
        <time>2020-11-08T08:23:16.000Z</time>
      </trkpt>
      <trkpt lat="50.50721" lon="3.7268">
        <ele>106.97</ele>
        <time>2020-11-08T08:23:18.000Z</time>
      </trkpt>
      <trkpt lat="50.50725" lon="3.72671">
        <ele>107.45</ele>
        <time>2020-11-08T08:23:19.000Z</time>
      </trkpt>
      <trkpt lat="50.5073" lon="3.72664">
        <ele>106.92</ele>
        <time>2020-11-08T08:23:20.000Z</time>
      </trkpt>
      <trkpt lat="50.50735" lon="3.72658">
        <ele>107.32</ele>
        <time>2020-11-08T08:23:21.000Z</time>
      </trkpt>
      <trkpt lat="50.50739" lon="3.72654">
        <ele>108.12</ele>
        <time>2020-11-08T08:23:22.000Z</time>
      </trkpt>
      <trkpt lat="50.50744" lon="3.72652">
        <ele>107.99</ele>
        <time>2020-11-08T08:23:23.000Z</time>
      </trkpt>
      <trkpt lat="50.50749" lon="3.72648">
        <ele>110.26</ele>
        <time>2020-11-08T08:23:24.000Z</time>
      </trkpt>
      <trkpt lat="50.50759" lon="3.72646">
        <ele>110.41</ele>
        <time>2020-11-08T08:23:26.000Z</time>
      </trkpt>
      <trkpt lat="50.50766" lon="3.7265">
        <ele>109.38</ele>
        <time>2020-11-08T08:23:28.000Z</time>
      </trkpt>
      <trkpt lat="50.50769" lon="3.72655">
        <ele>110.51</ele>
        <time>2020-11-08T08:23:29.000Z</time>
      </trkpt>
      <trkpt lat="50.50775" lon="3.72662">
        <ele>111.94</ele>
        <time>2020-11-08T08:23:31.000Z</time>
      </trkpt>
      <trkpt lat="50.5078" lon="3.72665">
        <ele>109.86</ele>
        <time>2020-11-08T08:23:33.000Z</time>
      </trkpt>
      <trkpt lat="50.50785" lon="3.72673">
        <ele>110.19</ele>
        <time>2020-11-08T08:23:35.000Z</time>
      </trkpt>
      <trkpt lat="50.50793" lon="3.72683">
        <ele>109.22</ele>
        <time>2020-11-08T08:23:37.000Z</time>
      </trkpt>
      <trkpt lat="50.50796" lon="3.7269">
        <ele>109.64</ele>
        <time>2020-11-08T08:23:38.000Z</time>
      </trkpt>
      <trkpt lat="50.50799" lon="3.72697">
        <ele>110.14</ele>
        <time>2020-11-08T08:23:39.000Z</time>
      </trkpt>
      <trkpt lat="50.50804" lon="3.72703">
        <ele>110.76</ele>
        <time>2020-11-08T08:23:40.000Z</time>
      </trkpt>
      <trkpt lat="50.50809" lon="3.72709">
        <ele>111.32</ele>
        <time>2020-11-08T08:23:41.000Z</time>
      </trkpt>
      <trkpt lat="50.50813" lon="3.72714">
        <ele>111.74</ele>
        <time>2020-11-08T08:23:42.000Z</time>
      </trkpt>
      <trkpt lat="50.50824" lon="3.72725">
        <ele>112.28</ele>
        <time>2020-11-08T08:23:44.000Z</time>
      </trkpt>
      <trkpt lat="50.5083" lon="3.7273">
        <ele>111.5</ele>
        <time>2020-11-08T08:23:45.000Z</time>
      </trkpt>
      <trkpt lat="50.50837" lon="3.72733">
        <ele>113.45</ele>
        <time>2020-11-08T08:23:46.000Z</time>
      </trkpt>
      <trkpt lat="50.50842" lon="3.72739">
        <ele>114.42</ele>
        <time>2020-11-08T08:23:47.000Z</time>
      </trkpt>
      <trkpt lat="50.50847" lon="3.72747">
        <ele>112.9</ele>
        <time>2020-11-08T08:23:48.000Z</time>
      </trkpt>
      <trkpt lat="50.50851" lon="3.72754">
        <ele>113.22</ele>
        <time>2020-11-08T08:23:49.000Z</time>
      </trkpt>
      <trkpt lat="50.50855" lon="3.72763">
        <ele>113.15</ele>
        <time>2020-11-08T08:23:50.000Z</time>
      </trkpt>
      <trkpt lat="50.50858" lon="3.72771">
        <ele>112.61</ele>
        <time>2020-11-08T08:23:51.000Z</time>
      </trkpt>
      <trkpt lat="50.50861" lon="3.72778">
        <ele>112.67</ele>
        <time>2020-11-08T08:23:52.000Z</time>
      </trkpt>
      <trkpt lat="50.50864" lon="3.72785">
        <ele>112.52</ele>
        <time>2020-11-08T08:23:53.000Z</time>
      </trkpt>
      <trkpt lat="50.5087" lon="3.72787">
        <ele>111.32</ele>
        <time>2020-11-08T08:23:54.000Z</time>
      </trkpt>
      <trkpt lat="50.50876" lon="3.72784">
        <ele>112.67</ele>
        <time>2020-11-08T08:23:55.000Z</time>
      </trkpt>
      <trkpt lat="50.50881" lon="3.72781">
        <ele>112.65</ele>
        <time>2020-11-08T08:23:56.000Z</time>
      </trkpt>
      <trkpt lat="50.50887" lon="3.72782">
        <ele>112.62</ele>
        <time>2020-11-08T08:23:57.000Z</time>
      </trkpt>
      <trkpt lat="50.50893" lon="3.7278">
        <ele>111.99</ele>
        <time>2020-11-08T08:23:58.000Z</time>
      </trkpt>
      <trkpt lat="50.50898" lon="3.72779">
        <ele>111.3</ele>
        <time>2020-11-08T08:23:59.000Z</time>
      </trkpt>
      <trkpt lat="50.50902" lon="3.72774">
        <ele>110.92</ele>
        <time>2020-11-08T08:24:00.000Z</time>
      </trkpt>
      <trkpt lat="50.50906" lon="3.72768">
        <ele>110.63</ele>
        <time>2020-11-08T08:24:02.000Z</time>
      </trkpt>
      <trkpt lat="50.5091" lon="3.72769">
        <ele>110.86</ele>
        <time>2020-11-08T08:24:04.000Z</time>
      </trkpt>
      <trkpt lat="50.50915" lon="3.7277">
        <ele>110.76</ele>
        <time>2020-11-08T08:24:06.000Z</time>
      </trkpt>
      <trkpt lat="50.5092" lon="3.72768">
        <ele>110.77</ele>
        <time>2020-11-08T08:24:08.000Z</time>
      </trkpt>
      <trkpt lat="50.50925" lon="3.72761">
        <ele>109.93</ele>
        <time>2020-11-08T08:24:09.000Z</time>
      </trkpt>
      <trkpt lat="50.50928" lon="3.72755">
        <ele>109.79</ele>
        <time>2020-11-08T08:24:10.000Z</time>
      </trkpt>
      <trkpt lat="50.50932" lon="3.72748">
        <ele>109.35</ele>
        <time>2020-11-08T08:24:11.000Z</time>
      </trkpt>
      <trkpt lat="50.50935" lon="3.72738">
        <ele>108.81</ele>
        <time>2020-11-08T08:24:12.000Z</time>
      </trkpt>
      <trkpt lat="50.50939" lon="3.7273">
        <ele>108.18</ele>
        <time>2020-11-08T08:24:13.000Z</time>
      </trkpt>
      <trkpt lat="50.50942" lon="3.72721">
        <ele>108.34</ele>
        <time>2020-11-08T08:24:14.000Z</time>
      </trkpt>
      <trkpt lat="50.50944" lon="3.72714">
        <ele>107.74</ele>
        <time>2020-11-08T08:24:15.000Z</time>
      </trkpt>
      <trkpt lat="50.50947" lon="3.72705">
        <ele>108.09</ele>
        <time>2020-11-08T08:24:16.000Z</time>
      </trkpt>
      <trkpt lat="50.5095" lon="3.727">
        <ele>107.9</ele>
        <time>2020-11-08T08:24:17.000Z</time>
      </trkpt>
      <trkpt lat="50.50952" lon="3.72692">
        <ele>109.09</ele>
        <time>2020-11-08T08:24:18.000Z</time>
      </trkpt>
      <trkpt lat="50.50955" lon="3.72684">
        <ele>108.63</ele>
        <time>2020-11-08T08:24:19.000Z</time>
      </trkpt>
      <trkpt lat="50.50958" lon="3.72675">
        <ele>108.62</ele>
        <time>2020-11-08T08:24:20.000Z</time>
      </trkpt>
      <trkpt lat="50.50962" lon="3.72666">
        <ele>108.09</ele>
        <time>2020-11-08T08:24:21.000Z</time>
      </trkpt>
      <trkpt lat="50.50965" lon="3.72657">
        <ele>108.86</ele>
        <time>2020-11-08T08:24:22.000Z</time>
      </trkpt>
      <trkpt lat="50.50968" lon="3.7265">
        <ele>108.17</ele>
        <time>2020-11-08T08:24:23.000Z</time>
      </trkpt>
      <trkpt lat="50.50968" lon="3.72639">
        <ele>107.17</ele>
        <time>2020-11-08T08:24:24.000Z</time>
      </trkpt>
      <trkpt lat="50.50969" lon="3.7263">
        <ele>106.02</ele>
        <time>2020-11-08T08:24:25.000Z</time>
      </trkpt>
      <trkpt lat="50.5097" lon="3.7262">
        <ele>106.8</ele>
        <time>2020-11-08T08:24:26.000Z</time>
      </trkpt>
      <trkpt lat="50.50971" lon="3.72613">
        <ele>107.45</ele>
        <time>2020-11-08T08:24:27.000Z</time>
      </trkpt>
      <trkpt lat="50.50976" lon="3.7261">
        <ele>108.16</ele>
        <time>2020-11-08T08:24:29.000Z</time>
      </trkpt>
      <trkpt lat="50.50983" lon="3.7261">
        <ele>106.51</ele>
        <time>2020-11-08T08:24:31.000Z</time>
      </trkpt>
      <trkpt lat="50.50992" lon="3.72609">
        <ele>105.65</ele>
        <time>2020-11-08T08:24:33.000Z</time>
      </trkpt>
      <trkpt lat="50.50998" lon="3.72608">
        <ele>107.14</ele>
        <time>2020-11-08T08:24:34.000Z</time>
      </trkpt>
      <trkpt lat="50.51004" lon="3.72607">
        <ele>106.79</ele>
        <time>2020-11-08T08:24:35.000Z</time>
      </trkpt>
      <trkpt lat="50.51009" lon="3.72606">
        <ele>107.45</ele>
        <time>2020-11-08T08:24:36.000Z</time>
      </trkpt>
      <trkpt lat="50.51014" lon="3.72605">
        <ele>106.95</ele>
        <time>2020-11-08T08:24:37.000Z</time>
      </trkpt>
      <trkpt lat="50.51019" lon="3.72603">
        <ele>107</ele>
        <time>2020-11-08T08:24:38.000Z</time>
      </trkpt>
      <trkpt lat="50.51025" lon="3.72603">
        <ele>107.54</ele>
        <time>2020-11-08T08:24:39.000Z</time>
      </trkpt>
      <trkpt lat="50.5103" lon="3.72607">
        <ele>107.48</ele>
        <time>2020-11-08T08:24:41.000Z</time>
      </trkpt>
      <trkpt lat="50.51037" lon="3.72612">
        <ele>106.06</ele>
        <time>2020-11-08T08:24:43.000Z</time>
      </trkpt>
      <trkpt lat="50.51041" lon="3.72616">
        <ele>106.48</ele>
        <time>2020-11-08T08:24:45.000Z</time>
      </trkpt>
      <trkpt lat="50.51047" lon="3.72617">
        <ele>105.87</ele>
        <time>2020-11-08T08:24:48.000Z</time>
      </trkpt>
      <trkpt lat="50.51062" lon="3.72617">
        <ele>106.32</ele>
        <time>2020-11-08T08:24:51.000Z</time>
      </trkpt>
      <trkpt lat="50.51066" lon="3.72616">
        <ele>105.9</ele>
        <time>2020-11-08T08:24:52.000Z</time>
      </trkpt>
      <trkpt lat="50.51074" lon="3.72615">
        <ele>105.98</ele>
        <time>2020-11-08T08:24:54.000Z</time>
      </trkpt>
      <trkpt lat="50.51081" lon="3.72615">
        <ele>103.73</ele>
        <time>2020-11-08T08:24:56.000Z</time>
      </trkpt>
      <trkpt lat="50.51089" lon="3.72618">
        <ele>102.05</ele>
        <time>2020-11-08T08:24:59.000Z</time>
      </trkpt>
      <trkpt lat="50.5111" lon="3.72614">
        <ele>102.51</ele>
        <time>2020-11-08T08:25:03.000Z</time>
      </trkpt>
      <trkpt lat="50.51114" lon="3.72615">
        <ele>104.01</ele>
        <time>2020-11-08T08:25:04.000Z</time>
      </trkpt>
      <trkpt lat="50.5112" lon="3.72613">
        <ele>103.68</ele>
        <time>2020-11-08T08:25:07.000Z</time>
      </trkpt>
      <trkpt lat="50.51125" lon="3.72615">
        <ele>103.17</ele>
        <time>2020-11-08T08:25:09.000Z</time>
      </trkpt>
      <trkpt lat="50.51131" lon="3.72618">
        <ele>103.6</ele>
        <time>2020-11-08T08:25:11.000Z</time>
      </trkpt>
      <trkpt lat="50.51136" lon="3.72621">
        <ele>101.38</ele>
        <time>2020-11-08T08:25:14.000Z</time>
      </trkpt>
      <trkpt lat="50.5114" lon="3.72621">
        <ele>101.21</ele>
        <time>2020-11-08T08:25:16.000Z</time>
      </trkpt>
      <trkpt lat="50.51148" lon="3.72622">
        <ele>100.86</ele>
        <time>2020-11-08T08:25:18.000Z</time>
      </trkpt>
      <trkpt lat="50.51154" lon="3.72626">
        <ele>100.78</ele>
        <time>2020-11-08T08:25:20.000Z</time>
      </trkpt>
      <trkpt lat="50.5116" lon="3.72631">
        <ele>101.01</ele>
        <time>2020-11-08T08:25:22.000Z</time>
      </trkpt>
      <trkpt lat="50.51167" lon="3.72637">
        <ele>100</ele>
        <time>2020-11-08T08:25:24.000Z</time>
      </trkpt>
      <trkpt lat="50.51192" lon="3.72664">
        <ele>101.69</ele>
        <time>2020-11-08T08:25:30.000Z</time>
      </trkpt>
      <trkpt lat="50.51197" lon="3.72673">
        <ele>101.21</ele>
        <time>2020-11-08T08:25:32.000Z</time>
      </trkpt>
      <trkpt lat="50.512" lon="3.72679">
        <ele>100.39</ele>
        <time>2020-11-08T08:25:33.000Z</time>
      </trkpt>
      <trkpt lat="50.51206" lon="3.72685">
        <ele>100.47</ele>
        <time>2020-11-08T08:25:35.000Z</time>
      </trkpt>
      <trkpt lat="50.51212" lon="3.72692">
        <ele>99.97</ele>
        <time>2020-11-08T08:25:37.000Z</time>
      </trkpt>
      <trkpt lat="50.51216" lon="3.72697">
        <ele>98.54</ele>
        <time>2020-11-08T08:25:39.000Z</time>
      </trkpt>
      <trkpt lat="50.5122" lon="3.72707">
        <ele>100.24</ele>
        <time>2020-11-08T08:25:42.000Z</time>
      </trkpt>
      <trkpt lat="50.51226" lon="3.72713">
        <ele>99.12</ele>
        <time>2020-11-08T08:25:44.000Z</time>
      </trkpt>
      <trkpt lat="50.51233" lon="3.72706">
        <ele>99.14</ele>
        <time>2020-11-08T08:25:46.000Z</time>
      </trkpt>
      <trkpt lat="50.51238" lon="3.72701">
        <ele>100.93</ele>
        <time>2020-11-08T08:25:48.000Z</time>
      </trkpt>
      <trkpt lat="50.51242" lon="3.72699">
        <ele>103.34</ele>
        <time>2020-11-08T08:25:54.000Z</time>
      </trkpt>
      <trkpt lat="50.51242" lon="3.72699">
        <ele>103.34</ele>
        <time>2020-11-08T08:25:54.001Z</time>
      </trkpt>
      <trkpt lat="50.51247" lon="3.72694">
        <ele>105.4</ele>
        <time>2020-11-08T08:26:28.000Z</time>
      </trkpt>
      <trkpt lat="50.51251" lon="3.72687">
        <ele>104.23</ele>
        <time>2020-11-08T08:26:30.000Z</time>
      </trkpt>
      <trkpt lat="50.51256" lon="3.72678">
        <ele>104.17</ele>
        <time>2020-11-08T08:26:32.000Z</time>
      </trkpt>
      <trkpt lat="50.51259" lon="3.72666">
        <ele>104.36</ele>
        <time>2020-11-08T08:26:34.000Z</time>
      </trkpt>
      <trkpt lat="50.51262" lon="3.72654">
        <ele>103.92</ele>
        <time>2020-11-08T08:26:36.000Z</time>
      </trkpt>
      <trkpt lat="50.51266" lon="3.72642">
        <ele>103.58</ele>
        <time>2020-11-08T08:26:38.000Z</time>
      </trkpt>
      <trkpt lat="50.5127" lon="3.72633">
        <ele>104.78</ele>
        <time>2020-11-08T08:26:40.000Z</time>
      </trkpt>
      <trkpt lat="50.51274" lon="3.72628">
        <ele>105.83</ele>
        <time>2020-11-08T08:26:42.000Z</time>
      </trkpt>
      <trkpt lat="50.51278" lon="3.72615">
        <ele>105.86</ele>
        <time>2020-11-08T08:26:44.000Z</time>
      </trkpt>
      <trkpt lat="50.51282" lon="3.7261">
        <ele>106.06</ele>
        <time>2020-11-08T08:26:45.000Z</time>
      </trkpt>
      <trkpt lat="50.51286" lon="3.72606">
        <ele>106.05</ele>
        <time>2020-11-08T08:26:46.000Z</time>
      </trkpt>
      <trkpt lat="50.51293" lon="3.72602">
        <ele>105.77</ele>
        <time>2020-11-08T08:26:47.000Z</time>
      </trkpt>
      <trkpt lat="50.51298" lon="3.72597">
        <ele>104.51</ele>
        <time>2020-11-08T08:26:48.000Z</time>
      </trkpt>
      <trkpt lat="50.51305" lon="3.72593">
        <ele>104.07</ele>
        <time>2020-11-08T08:26:49.000Z</time>
      </trkpt>
      <trkpt lat="50.51319" lon="3.72593">
        <ele>104.31</ele>
        <time>2020-11-08T08:26:51.000Z</time>
      </trkpt>
      <trkpt lat="50.51333" lon="3.72589">
        <ele>104.19</ele>
        <time>2020-11-08T08:26:53.000Z</time>
      </trkpt>
      <trkpt lat="50.51339" lon="3.72588">
        <ele>104.95</ele>
        <time>2020-11-08T08:26:54.000Z</time>
      </trkpt>
      <trkpt lat="50.51345" lon="3.72585">
        <ele>103.38</ele>
        <time>2020-11-08T08:26:55.000Z</time>
      </trkpt>
      <trkpt lat="50.51351" lon="3.72586">
        <ele>103.61</ele>
        <time>2020-11-08T08:26:56.000Z</time>
      </trkpt>
      <trkpt lat="50.51391" lon="3.7259">
        <ele>102.25</ele>
        <time>2020-11-08T08:27:02.000Z</time>
      </trkpt>
      <trkpt lat="50.51396" lon="3.72588">
        <ele>101.83</ele>
        <time>2020-11-08T08:27:04.000Z</time>
      </trkpt>
      <trkpt lat="50.51401" lon="3.7258">
        <ele>102.57</ele>
        <time>2020-11-08T08:27:06.000Z</time>
      </trkpt>
      <trkpt lat="50.51405" lon="3.72576">
        <ele>103.16</ele>
        <time>2020-11-08T08:27:08.000Z</time>
      </trkpt>
      <trkpt lat="50.5141" lon="3.72573">
        <ele>103.84</ele>
        <time>2020-11-08T08:27:10.000Z</time>
      </trkpt>
      <trkpt lat="50.5143" lon="3.7257">
        <ele>103.5</ele>
        <time>2020-11-08T08:27:15.000Z</time>
      </trkpt>
      <trkpt lat="50.51436" lon="3.7257">
        <ele>104.19</ele>
        <time>2020-11-08T08:27:17.000Z</time>
      </trkpt>
      <trkpt lat="50.51442" lon="3.72572">
        <ele>105.71</ele>
        <time>2020-11-08T08:27:20.000Z</time>
      </trkpt>
      <trkpt lat="50.51456" lon="3.72567">
        <ele>106.7</ele>
        <time>2020-11-08T08:27:24.000Z</time>
      </trkpt>
      <trkpt lat="50.51461" lon="3.72564">
        <ele>105.32</ele>
        <time>2020-11-08T08:27:26.000Z</time>
      </trkpt>
      <trkpt lat="50.51465" lon="3.7256">
        <ele>105.41</ele>
        <time>2020-11-08T08:27:28.000Z</time>
      </trkpt>
      <trkpt lat="50.5147" lon="3.72561">
        <ele>104.74</ele>
        <time>2020-11-08T08:27:30.000Z</time>
      </trkpt>
      <trkpt lat="50.51474" lon="3.72558">
        <ele>106.7</ele>
        <time>2020-11-08T08:27:36.000Z</time>
      </trkpt>
      <trkpt lat="50.51474" lon="3.72558">
        <ele>106.7</ele>
        <time>2020-11-08T08:27:36.001Z</time>
      </trkpt>
      <trkpt lat="50.51479" lon="3.7256">
        <ele>107.67</ele>
        <time>2020-11-08T08:27:44.000Z</time>
      </trkpt>
      <trkpt lat="50.51481" lon="3.72567">
        <ele>108.69</ele>
        <time>2020-11-08T08:27:51.000Z</time>
      </trkpt>
      <trkpt lat="50.51485" lon="3.72565">
        <ele>107.47</ele>
        <time>2020-11-08T08:27:57.000Z</time>
      </trkpt>
      <trkpt lat="50.51491" lon="3.72562">
        <ele>108.79</ele>
        <time>2020-11-08T08:28:00.000Z</time>
      </trkpt>
      <trkpt lat="50.51498" lon="3.72561">
        <ele>107.56</ele>
        <time>2020-11-08T08:28:02.000Z</time>
      </trkpt>
      <trkpt lat="50.51505" lon="3.72559">
        <ele>107.31</ele>
        <time>2020-11-08T08:28:04.000Z</time>
      </trkpt>
      <trkpt lat="50.51513" lon="3.72556">
        <ele>107.51</ele>
        <time>2020-11-08T08:28:06.000Z</time>
      </trkpt>
      <trkpt lat="50.51518" lon="3.72557">
        <ele>106.9</ele>
        <time>2020-11-08T08:28:08.000Z</time>
      </trkpt>
      <trkpt lat="50.51526" lon="3.72552">
        <ele>107.39</ele>
        <time>2020-11-08T08:28:10.000Z</time>
      </trkpt>
      <trkpt lat="50.51541" lon="3.72552">
        <ele>108.93</ele>
        <time>2020-11-08T08:28:14.000Z</time>
      </trkpt>
      <trkpt lat="50.5155" lon="3.72551">
        <ele>109.34</ele>
        <time>2020-11-08T08:28:16.000Z</time>
      </trkpt>
      <trkpt lat="50.51557" lon="3.72545">
        <ele>108.14</ele>
        <time>2020-11-08T08:28:18.000Z</time>
      </trkpt>
      <trkpt lat="50.51562" lon="3.72546">
        <ele>107.32</ele>
        <time>2020-11-08T08:28:20.000Z</time>
      </trkpt>
      <trkpt lat="50.51567" lon="3.72549">
        <ele>110.21</ele>
        <time>2020-11-08T08:28:22.000Z</time>
      </trkpt>
      <trkpt lat="50.51573" lon="3.72548">
        <ele>109.94</ele>
        <time>2020-11-08T08:28:24.000Z</time>
      </trkpt>
      <trkpt lat="50.5158" lon="3.72545">
        <ele>109.88</ele>
        <time>2020-11-08T08:28:26.000Z</time>
      </trkpt>
      <trkpt lat="50.51588" lon="3.72542">
        <ele>111.14</ele>
        <time>2020-11-08T08:28:28.000Z</time>
      </trkpt>
      <trkpt lat="50.51594" lon="3.7254">
        <ele>110.37</ele>
        <time>2020-11-08T08:28:31.000Z</time>
      </trkpt>
      <trkpt lat="50.516" lon="3.72537">
        <ele>106.17</ele>
        <time>2020-11-08T08:28:34.000Z</time>
      </trkpt>
      <trkpt lat="50.51605" lon="3.72534">
        <ele>105.45</ele>
        <time>2020-11-08T08:28:36.000Z</time>
      </trkpt>
      <trkpt lat="50.51609" lon="3.72533">
        <ele>106.15</ele>
        <time>2020-11-08T08:28:38.000Z</time>
      </trkpt>
      <trkpt lat="50.51617" lon="3.72528">
        <ele>106.01</ele>
        <time>2020-11-08T08:28:40.000Z</time>
      </trkpt>
      <trkpt lat="50.51624" lon="3.72526">
        <ele>105.52</ele>
        <time>2020-11-08T08:28:42.000Z</time>
      </trkpt>
      <trkpt lat="50.51631" lon="3.72531">
        <ele>106.27</ele>
        <time>2020-11-08T08:28:45.000Z</time>
      </trkpt>
      <trkpt lat="50.51662" lon="3.72532">
        <ele>104.52</ele>
        <time>2020-11-08T08:28:52.000Z</time>
      </trkpt>
      <trkpt lat="50.51668" lon="3.72533">
        <ele>105.69</ele>
        <time>2020-11-08T08:28:53.000Z</time>
      </trkpt>
      <trkpt lat="50.51673" lon="3.72535">
        <ele>104.91</ele>
        <time>2020-11-08T08:28:54.000Z</time>
      </trkpt>
      <trkpt lat="50.51678" lon="3.72533">
        <ele>104.92</ele>
        <time>2020-11-08T08:28:55.000Z</time>
      </trkpt>
      <trkpt lat="50.51684" lon="3.72533">
        <ele>105.32</ele>
        <time>2020-11-08T08:28:56.000Z</time>
      </trkpt>
      <trkpt lat="50.5169" lon="3.72533">
        <ele>105.66</ele>
        <time>2020-11-08T08:28:57.000Z</time>
      </trkpt>
      <trkpt lat="50.51695" lon="3.72534">
        <ele>106.29</ele>
        <time>2020-11-08T08:28:58.000Z</time>
      </trkpt>
      <trkpt lat="50.517" lon="3.72537">
        <ele>106.01</ele>
        <time>2020-11-08T08:28:59.000Z</time>
      </trkpt>
      <trkpt lat="50.51705" lon="3.72538">
        <ele>106.16</ele>
        <time>2020-11-08T08:29:00.000Z</time>
      </trkpt>
      <trkpt lat="50.51711" lon="3.72542">
        <ele>105.49</ele>
        <time>2020-11-08T08:29:02.000Z</time>
      </trkpt>
      <trkpt lat="50.51716" lon="3.72544">
        <ele>105.96</ele>
        <time>2020-11-08T08:29:03.000Z</time>
      </trkpt>
      <trkpt lat="50.51721" lon="3.72546">
        <ele>107.16</ele>
        <time>2020-11-08T08:29:06.000Z</time>
      </trkpt>
      <trkpt lat="50.51727" lon="3.72547">
        <ele>107.29</ele>
        <time>2020-11-08T08:29:09.000Z</time>
      </trkpt>
      <trkpt lat="50.51733" lon="3.72549">
        <ele>108.91</ele>
        <time>2020-11-08T08:29:12.000Z</time>
      </trkpt>
      <trkpt lat="50.51738" lon="3.72548">
        <ele>108.73</ele>
        <time>2020-11-08T08:29:14.000Z</time>
      </trkpt>
      <trkpt lat="50.51744" lon="3.7255">
        <ele>106.43</ele>
        <time>2020-11-08T08:29:17.000Z</time>
      </trkpt>
      <trkpt lat="50.51751" lon="3.72553">
        <ele>104.1</ele>
        <time>2020-11-08T08:29:21.000Z</time>
      </trkpt>
      <trkpt lat="50.51757" lon="3.72556">
        <ele>104.75</ele>
        <time>2020-11-08T08:29:23.000Z</time>
      </trkpt>
      <trkpt lat="50.51762" lon="3.72558">
        <ele>104.68</ele>
        <time>2020-11-08T08:29:24.000Z</time>
      </trkpt>
      <trkpt lat="50.51767" lon="3.72559">
        <ele>105.61</ele>
        <time>2020-11-08T08:29:25.000Z</time>
      </trkpt>
      <trkpt lat="50.51777" lon="3.72562">
        <ele>107.31</ele>
        <time>2020-11-08T08:29:27.000Z</time>
      </trkpt>
      <trkpt lat="50.51782" lon="3.72564">
        <ele>105.73</ele>
        <time>2020-11-08T08:29:29.000Z</time>
      </trkpt>
      <trkpt lat="50.5179" lon="3.72568">
        <ele>106.24</ele>
        <time>2020-11-08T08:29:31.000Z</time>
      </trkpt>
      <trkpt lat="50.51799" lon="3.7257">
        <ele>105.15</ele>
        <time>2020-11-08T08:29:33.000Z</time>
      </trkpt>
      <trkpt lat="50.51806" lon="3.72573">
        <ele>107.35</ele>
        <time>2020-11-08T08:29:35.000Z</time>
      </trkpt>
      <trkpt lat="50.51812" lon="3.72577">
        <ele>106.25</ele>
        <time>2020-11-08T08:29:37.000Z</time>
      </trkpt>
      <trkpt lat="50.51816" lon="3.72583">
        <ele>105.54</ele>
        <time>2020-11-08T08:29:39.000Z</time>
      </trkpt>
      <trkpt lat="50.51819" lon="3.72589">
        <ele>106.89</ele>
        <time>2020-11-08T08:29:42.000Z</time>
      </trkpt>
      <trkpt lat="50.51819" lon="3.72589">
        <ele>106.89</ele>
        <time>2020-11-08T08:29:42.001Z</time>
      </trkpt>
      <trkpt lat="50.51824" lon="3.7259">
        <ele>109.22</ele>
        <time>2020-11-08T08:29:55.000Z</time>
      </trkpt>
      <trkpt lat="50.51829" lon="3.72591">
        <ele>111.06</ele>
        <time>2020-11-08T08:30:55.000Z</time>
      </trkpt>
      <trkpt lat="50.51834" lon="3.72589">
        <ele>110.28</ele>
        <time>2020-11-08T08:30:58.000Z</time>
      </trkpt>
      <trkpt lat="50.5184" lon="3.72594">
        <ele>108.98</ele>
        <time>2020-11-08T08:31:01.000Z</time>
      </trkpt>
      <trkpt lat="50.51845" lon="3.72592">
        <ele>109.39</ele>
        <time>2020-11-08T08:31:03.000Z</time>
      </trkpt>
      <trkpt lat="50.51854" lon="3.72592">
        <ele>109.89</ele>
        <time>2020-11-08T08:31:05.000Z</time>
      </trkpt>
      <trkpt lat="50.51858" lon="3.72593">
        <ele>109.51</ele>
        <time>2020-11-08T08:31:06.000Z</time>
      </trkpt>
      <trkpt lat="50.51869" lon="3.72598">
        <ele>109.41</ele>
        <time>2020-11-08T08:31:08.000Z</time>
      </trkpt>
      <trkpt lat="50.51888" lon="3.72603">
        <ele>108.48</ele>
        <time>2020-11-08T08:31:11.000Z</time>
      </trkpt>
      <trkpt lat="50.51894" lon="3.72605">
        <ele>109.62</ele>
        <time>2020-11-08T08:31:12.000Z</time>
      </trkpt>
      <trkpt lat="50.51902" lon="3.72605">
        <ele>111.11</ele>
        <time>2020-11-08T08:31:14.000Z</time>
      </trkpt>
      <trkpt lat="50.51906" lon="3.72609">
        <ele>110.47</ele>
        <time>2020-11-08T08:31:15.000Z</time>
      </trkpt>
      <trkpt lat="50.51913" lon="3.72612">
        <ele>111.82</ele>
        <time>2020-11-08T08:31:17.000Z</time>
      </trkpt>
      <trkpt lat="50.51925" lon="3.72616">
        <ele>110.79</ele>
        <time>2020-11-08T08:31:19.000Z</time>
      </trkpt>
      <trkpt lat="50.51931" lon="3.72619">
        <ele>112.25</ele>
        <time>2020-11-08T08:31:21.000Z</time>
      </trkpt>
      <trkpt lat="50.51939" lon="3.72617">
        <ele>111.38</ele>
        <time>2020-11-08T08:31:23.000Z</time>
      </trkpt>
      <trkpt lat="50.51944" lon="3.7262">
        <ele>110.07</ele>
        <time>2020-11-08T08:31:24.000Z</time>
      </trkpt>
      <trkpt lat="50.51953" lon="3.72623">
        <ele>110.78</ele>
        <time>2020-11-08T08:31:26.000Z</time>
      </trkpt>
      <trkpt lat="50.51959" lon="3.72625">
        <ele>112.07</ele>
        <time>2020-11-08T08:31:28.000Z</time>
      </trkpt>
      <trkpt lat="50.51966" lon="3.72628">
        <ele>111.24</ele>
        <time>2020-11-08T08:31:30.000Z</time>
      </trkpt>
      <trkpt lat="50.51969" lon="3.72635">
        <ele>110.88</ele>
        <time>2020-11-08T08:31:32.000Z</time>
      </trkpt>
      <trkpt lat="50.51976" lon="3.7264">
        <ele>111.88</ele>
        <time>2020-11-08T08:31:34.000Z</time>
      </trkpt>
      <trkpt lat="50.51978" lon="3.72647">
        <ele>113.19</ele>
        <time>2020-11-08T08:31:36.000Z</time>
      </trkpt>
      <trkpt lat="50.51983" lon="3.72655">
        <ele>111.95</ele>
        <time>2020-11-08T08:31:39.000Z</time>
      </trkpt>
      <trkpt lat="50.5199" lon="3.72657">
        <ele>110.07</ele>
        <time>2020-11-08T08:31:42.000Z</time>
      </trkpt>
      <trkpt lat="50.51995" lon="3.72663">
        <ele>109.61</ele>
        <time>2020-11-08T08:31:44.000Z</time>
      </trkpt>
      <trkpt lat="50.52" lon="3.72669">
        <ele>105.76</ele>
        <time>2020-11-08T08:31:46.000Z</time>
      </trkpt>
      <trkpt lat="50.52007" lon="3.72671">
        <ele>105.52</ele>
        <time>2020-11-08T08:31:47.000Z</time>
      </trkpt>
      <trkpt lat="50.52012" lon="3.72674">
        <ele>105.91</ele>
        <time>2020-11-08T08:31:48.000Z</time>
      </trkpt>
      <trkpt lat="50.52018" lon="3.72677">
        <ele>106.63</ele>
        <time>2020-11-08T08:31:49.000Z</time>
      </trkpt>
      <trkpt lat="50.52025" lon="3.7268">
        <ele>106.72</ele>
        <time>2020-11-08T08:31:50.000Z</time>
      </trkpt>
      <trkpt lat="50.52032" lon="3.72683">
        <ele>106.92</ele>
        <time>2020-11-08T08:31:51.000Z</time>
      </trkpt>
      <trkpt lat="50.52039" lon="3.72685">
        <ele>107.54</ele>
        <time>2020-11-08T08:31:52.000Z</time>
      </trkpt>
      <trkpt lat="50.52045" lon="3.72684">
        <ele>107.37</ele>
        <time>2020-11-08T08:31:53.000Z</time>
      </trkpt>
      <trkpt lat="50.52059" lon="3.72688">
        <ele>108.39</ele>
        <time>2020-11-08T08:31:55.000Z</time>
      </trkpt>
      <trkpt lat="50.52065" lon="3.72689">
        <ele>108.49</ele>
        <time>2020-11-08T08:31:56.000Z</time>
      </trkpt>
      <trkpt lat="50.5207" lon="3.7269">
        <ele>109.1</ele>
        <time>2020-11-08T08:31:57.000Z</time>
      </trkpt>
      <trkpt lat="50.52076" lon="3.72693">
        <ele>110.22</ele>
        <time>2020-11-08T08:31:58.000Z</time>
      </trkpt>
      <trkpt lat="50.52081" lon="3.72693">
        <ele>111.19</ele>
        <time>2020-11-08T08:31:59.000Z</time>
      </trkpt>
      <trkpt lat="50.52088" lon="3.72692">
        <ele>112.33</ele>
        <time>2020-11-08T08:32:00.000Z</time>
      </trkpt>
      <trkpt lat="50.52094" lon="3.72691">
        <ele>112.45</ele>
        <time>2020-11-08T08:32:01.000Z</time>
      </trkpt>
      <trkpt lat="50.52105" lon="3.72694">
        <ele>110.79</ele>
        <time>2020-11-08T08:32:03.000Z</time>
      </trkpt>
      <trkpt lat="50.52111" lon="3.72697">
        <ele>111.36</ele>
        <time>2020-11-08T08:32:04.000Z</time>
      </trkpt>
      <trkpt lat="50.52117" lon="3.727">
        <ele>112.16</ele>
        <time>2020-11-08T08:32:05.000Z</time>
      </trkpt>
      <trkpt lat="50.52123" lon="3.72703">
        <ele>112.62</ele>
        <time>2020-11-08T08:32:06.000Z</time>
      </trkpt>
      <trkpt lat="50.52128" lon="3.72705">
        <ele>111.41</ele>
        <time>2020-11-08T08:32:07.000Z</time>
      </trkpt>
      <trkpt lat="50.52138" lon="3.7271">
        <ele>109.93</ele>
        <time>2020-11-08T08:32:09.000Z</time>
      </trkpt>
      <trkpt lat="50.52144" lon="3.72712">
        <ele>110.48</ele>
        <time>2020-11-08T08:32:10.000Z</time>
      </trkpt>
      <trkpt lat="50.52151" lon="3.72715">
        <ele>110.86</ele>
        <time>2020-11-08T08:32:11.000Z</time>
      </trkpt>
      <trkpt lat="50.52157" lon="3.72718">
        <ele>111.86</ele>
        <time>2020-11-08T08:32:12.000Z</time>
      </trkpt>
      <trkpt lat="50.52164" lon="3.72718">
        <ele>112.42</ele>
        <time>2020-11-08T08:32:13.000Z</time>
      </trkpt>
      <trkpt lat="50.52169" lon="3.72721">
        <ele>111.04</ele>
        <time>2020-11-08T08:32:14.000Z</time>
      </trkpt>
      <trkpt lat="50.52175" lon="3.72724">
        <ele>111.56</ele>
        <time>2020-11-08T08:32:15.000Z</time>
      </trkpt>
      <trkpt lat="50.5218" lon="3.72728">
        <ele>110.86</ele>
        <time>2020-11-08T08:32:16.000Z</time>
      </trkpt>
      <trkpt lat="50.52187" lon="3.72728">
        <ele>111.14</ele>
        <time>2020-11-08T08:32:17.000Z</time>
      </trkpt>
      <trkpt lat="50.52194" lon="3.72731">
        <ele>111.17</ele>
        <time>2020-11-08T08:32:18.000Z</time>
      </trkpt>
      <trkpt lat="50.522" lon="3.72734">
        <ele>112.1</ele>
        <time>2020-11-08T08:32:19.000Z</time>
      </trkpt>
      <trkpt lat="50.52206" lon="3.72732">
        <ele>111.5</ele>
        <time>2020-11-08T08:32:20.000Z</time>
      </trkpt>
      <trkpt lat="50.52212" lon="3.72731">
        <ele>111.43</ele>
        <time>2020-11-08T08:32:21.000Z</time>
      </trkpt>
      <trkpt lat="50.52218" lon="3.72733">
        <ele>110.74</ele>
        <time>2020-11-08T08:32:22.000Z</time>
      </trkpt>
      <trkpt lat="50.52224" lon="3.72735">
        <ele>110.99</ele>
        <time>2020-11-08T08:32:23.000Z</time>
      </trkpt>
      <trkpt lat="50.5223" lon="3.72734">
        <ele>111.79</ele>
        <time>2020-11-08T08:32:25.000Z</time>
      </trkpt>
      <trkpt lat="50.52236" lon="3.72734">
        <ele>112.11</ele>
        <time>2020-11-08T08:32:26.000Z</time>
      </trkpt>
      <trkpt lat="50.52241" lon="3.72731">
        <ele>112.83</ele>
        <time>2020-11-08T08:32:27.000Z</time>
      </trkpt>
      <trkpt lat="50.52247" lon="3.72731">
        <ele>111.61</ele>
        <time>2020-11-08T08:32:28.000Z</time>
      </trkpt>
      <trkpt lat="50.52252" lon="3.72732">
        <ele>111.32</ele>
        <time>2020-11-08T08:32:29.000Z</time>
      </trkpt>
      <trkpt lat="50.52259" lon="3.72733">
        <ele>110.39</ele>
        <time>2020-11-08T08:32:30.000Z</time>
      </trkpt>
      <trkpt lat="50.52264" lon="3.72736">
        <ele>110.58</ele>
        <time>2020-11-08T08:32:31.000Z</time>
      </trkpt>
      <trkpt lat="50.5227" lon="3.72739">
        <ele>110.18</ele>
        <time>2020-11-08T08:32:32.000Z</time>
      </trkpt>
      <trkpt lat="50.52275" lon="3.72741">
        <ele>110.37</ele>
        <time>2020-11-08T08:32:33.000Z</time>
      </trkpt>
      <trkpt lat="50.52279" lon="3.72744">
        <ele>111.22</ele>
        <time>2020-11-08T08:32:34.000Z</time>
      </trkpt>
      <trkpt lat="50.52286" lon="3.72747">
        <ele>109.84</ele>
        <time>2020-11-08T08:32:35.000Z</time>
      </trkpt>
      <trkpt lat="50.52293" lon="3.72752">
        <ele>109.73</ele>
        <time>2020-11-08T08:32:37.000Z</time>
      </trkpt>
      <trkpt lat="50.52304" lon="3.72752">
        <ele>109.62</ele>
        <time>2020-11-08T08:32:39.000Z</time>
      </trkpt>
      <trkpt lat="50.52313" lon="3.72753">
        <ele>109.15</ele>
        <time>2020-11-08T08:32:41.000Z</time>
      </trkpt>
      <trkpt lat="50.52321" lon="3.72758">
        <ele>109.6</ele>
        <time>2020-11-08T08:32:43.000Z</time>
      </trkpt>
      <trkpt lat="50.52325" lon="3.72761">
        <ele>109.84</ele>
        <time>2020-11-08T08:32:44.000Z</time>
      </trkpt>
      <trkpt lat="50.5233" lon="3.72766">
        <ele>109.96</ele>
        <time>2020-11-08T08:32:45.000Z</time>
      </trkpt>
      <trkpt lat="50.52334" lon="3.7277">
        <ele>110.29</ele>
        <time>2020-11-08T08:32:46.000Z</time>
      </trkpt>
      <trkpt lat="50.52343" lon="3.72776">
        <ele>110.23</ele>
        <time>2020-11-08T08:32:48.000Z</time>
      </trkpt>
      <trkpt lat="50.52347" lon="3.72776">
        <ele>108.95</ele>
        <time>2020-11-08T08:32:49.000Z</time>
      </trkpt>
      <trkpt lat="50.52359" lon="3.72777">
        <ele>108.55</ele>
        <time>2020-11-08T08:32:51.000Z</time>
      </trkpt>
      <trkpt lat="50.52365" lon="3.72777">
        <ele>107.8</ele>
        <time>2020-11-08T08:32:52.000Z</time>
      </trkpt>
      <trkpt lat="50.5237" lon="3.72774">
        <ele>107.35</ele>
        <time>2020-11-08T08:32:53.000Z</time>
      </trkpt>
      <trkpt lat="50.52375" lon="3.72776">
        <ele>107.38</ele>
        <time>2020-11-08T08:32:54.000Z</time>
      </trkpt>
      <trkpt lat="50.52382" lon="3.72777">
        <ele>107.23</ele>
        <time>2020-11-08T08:32:55.000Z</time>
      </trkpt>
      <trkpt lat="50.52388" lon="3.7278">
        <ele>107.03</ele>
        <time>2020-11-08T08:32:56.000Z</time>
      </trkpt>
      <trkpt lat="50.52392" lon="3.72784">
        <ele>106.27</ele>
        <time>2020-11-08T08:32:57.000Z</time>
      </trkpt>
      <trkpt lat="50.52397" lon="3.72785">
        <ele>107.89</ele>
        <time>2020-11-08T08:32:59.000Z</time>
      </trkpt>
      <trkpt lat="50.52403" lon="3.72785">
        <ele>112.03</ele>
        <time>2020-11-08T08:33:06.000Z</time>
      </trkpt>
      <trkpt lat="50.5241" lon="3.72788">
        <ele>110.97</ele>
        <time>2020-11-08T08:33:08.000Z</time>
      </trkpt>
      <trkpt lat="50.52419" lon="3.72791">
        <ele>109.09</ele>
        <time>2020-11-08T08:33:10.000Z</time>
      </trkpt>
      <trkpt lat="50.52424" lon="3.72799">
        <ele>109.25</ele>
        <time>2020-11-08T08:33:12.000Z</time>
      </trkpt>
      <trkpt lat="50.52426" lon="3.72808">
        <ele>109.3</ele>
        <time>2020-11-08T08:33:14.000Z</time>
      </trkpt>
      <trkpt lat="50.52431" lon="3.72815">
        <ele>110.82</ele>
        <time>2020-11-08T08:33:16.000Z</time>
      </trkpt>
      <trkpt lat="50.52431" lon="3.72815">
        <ele>110.82</ele>
        <time>2020-11-08T08:33:16.001Z</time>
      </trkpt>
      <trkpt lat="50.52436" lon="3.72815">
        <ele>108.61</ele>
        <time>2020-11-08T08:33:37.000Z</time>
      </trkpt>
      <trkpt lat="50.5244" lon="3.72819">
        <ele>109.85</ele>
        <time>2020-11-08T08:33:41.000Z</time>
      </trkpt>
      <trkpt lat="50.52445" lon="3.72823">
        <ele>109.26</ele>
        <time>2020-11-08T08:33:43.000Z</time>
      </trkpt>
      <trkpt lat="50.5245" lon="3.72829">
        <ele>110.26</ele>
        <time>2020-11-08T08:33:45.000Z</time>
      </trkpt>
      <trkpt lat="50.52454" lon="3.72837">
        <ele>109.79</ele>
        <time>2020-11-08T08:33:47.000Z</time>
      </trkpt>
      <trkpt lat="50.52462" lon="3.72838">
        <ele>111.52</ele>
        <time>2020-11-08T08:33:49.000Z</time>
      </trkpt>
      <trkpt lat="50.52469" lon="3.72837">
        <ele>110.81</ele>
        <time>2020-11-08T08:33:51.000Z</time>
      </trkpt>
      <trkpt lat="50.52483" lon="3.72843">
        <ele>111.39</ele>
        <time>2020-11-08T08:33:54.000Z</time>
      </trkpt>
      <trkpt lat="50.52488" lon="3.72844">
        <ele>110.44</ele>
        <time>2020-11-08T08:33:55.000Z</time>
      </trkpt>
      <trkpt lat="50.52493" lon="3.72847">
        <ele>110.13</ele>
        <time>2020-11-08T08:33:56.000Z</time>
      </trkpt>
      <trkpt lat="50.52499" lon="3.72848">
        <ele>110.41</ele>
        <time>2020-11-08T08:33:57.000Z</time>
      </trkpt>
      <trkpt lat="50.52504" lon="3.72851">
        <ele>110.87</ele>
        <time>2020-11-08T08:33:58.000Z</time>
      </trkpt>
      <trkpt lat="50.52513" lon="3.72856">
        <ele>111.4</ele>
        <time>2020-11-08T08:34:00.000Z</time>
      </trkpt>
      <trkpt lat="50.5252" lon="3.72862">
        <ele>107.64</ele>
        <time>2020-11-08T08:34:02.000Z</time>
      </trkpt>
      <trkpt lat="50.52525" lon="3.72864">
        <ele>107.26</ele>
        <time>2020-11-08T08:34:03.000Z</time>
      </trkpt>
      <trkpt lat="50.52543" lon="3.72872">
        <ele>107.56</ele>
        <time>2020-11-08T08:34:06.000Z</time>
      </trkpt>
      <trkpt lat="50.52561" lon="3.72882">
        <ele>107.33</ele>
        <time>2020-11-08T08:34:09.000Z</time>
      </trkpt>
      <trkpt lat="50.52568" lon="3.72883">
        <ele>108.57</ele>
        <time>2020-11-08T08:34:10.000Z</time>
      </trkpt>
      <trkpt lat="50.52574" lon="3.72885">
        <ele>108.98</ele>
        <time>2020-11-08T08:34:11.000Z</time>
      </trkpt>
      <trkpt lat="50.52579" lon="3.72888">
        <ele>109.1</ele>
        <time>2020-11-08T08:34:12.000Z</time>
      </trkpt>
      <trkpt lat="50.52585" lon="3.7289">
        <ele>108.71</ele>
        <time>2020-11-08T08:34:14.000Z</time>
      </trkpt>
      <trkpt lat="50.52592" lon="3.7289">
        <ele>108.94</ele>
        <time>2020-11-08T08:34:16.000Z</time>
      </trkpt>
      <trkpt lat="50.52596" lon="3.72893">
        <ele>108.81</ele>
        <time>2020-11-08T08:34:17.000Z</time>
      </trkpt>
      <trkpt lat="50.52602" lon="3.72896">
        <ele>108.3</ele>
        <time>2020-11-08T08:34:18.000Z</time>
      </trkpt>
      <trkpt lat="50.52607" lon="3.729">
        <ele>107.9</ele>
        <time>2020-11-08T08:34:19.000Z</time>
      </trkpt>
      <trkpt lat="50.52617" lon="3.72906">
        <ele>108.96</ele>
        <time>2020-11-08T08:34:21.000Z</time>
      </trkpt>
      <trkpt lat="50.52623" lon="3.7291">
        <ele>109.13</ele>
        <time>2020-11-08T08:34:22.000Z</time>
      </trkpt>
      <trkpt lat="50.5263" lon="3.72914">
        <ele>109.48</ele>
        <time>2020-11-08T08:34:23.000Z</time>
      </trkpt>
      <trkpt lat="50.52636" lon="3.72918">
        <ele>110.24</ele>
        <time>2020-11-08T08:34:24.000Z</time>
      </trkpt>
      <trkpt lat="50.52641" lon="3.7292">
        <ele>109.21</ele>
        <time>2020-11-08T08:34:25.000Z</time>
      </trkpt>
      <trkpt lat="50.52645" lon="3.72923">
        <ele>108.46</ele>
        <time>2020-11-08T08:34:26.000Z</time>
      </trkpt>
      <trkpt lat="50.52649" lon="3.72926">
        <ele>108.94</ele>
        <time>2020-11-08T08:34:27.000Z</time>
      </trkpt>
      <trkpt lat="50.52655" lon="3.72929">
        <ele>109.94</ele>
        <time>2020-11-08T08:34:28.000Z</time>
      </trkpt>
      <trkpt lat="50.52664" lon="3.72934">
        <ele>109.83</ele>
        <time>2020-11-08T08:34:30.000Z</time>
      </trkpt>
      <trkpt lat="50.52669" lon="3.72938">
        <ele>109.19</ele>
        <time>2020-11-08T08:34:31.000Z</time>
      </trkpt>
      <trkpt lat="50.52673" lon="3.72944">
        <ele>110.52</ele>
        <time>2020-11-08T08:34:32.000Z</time>
      </trkpt>
      <trkpt lat="50.52679" lon="3.72949">
        <ele>111.32</ele>
        <time>2020-11-08T08:34:33.000Z</time>
      </trkpt>
      <trkpt lat="50.52683" lon="3.72953">
        <ele>110.39</ele>
        <time>2020-11-08T08:34:34.000Z</time>
      </trkpt>
      <trkpt lat="50.52689" lon="3.72956">
        <ele>110.24</ele>
        <time>2020-11-08T08:34:35.000Z</time>
      </trkpt>
      <trkpt lat="50.52695" lon="3.72964">
        <ele>109.82</ele>
        <time>2020-11-08T08:34:37.000Z</time>
      </trkpt>
      <trkpt lat="50.527" lon="3.72968">
        <ele>110.55</ele>
        <time>2020-11-08T08:34:38.000Z</time>
      </trkpt>
      <trkpt lat="50.52704" lon="3.7297">
        <ele>110.4</ele>
        <time>2020-11-08T08:34:39.000Z</time>
      </trkpt>
      <trkpt lat="50.52709" lon="3.7297">
        <ele>110.28</ele>
        <time>2020-11-08T08:34:40.000Z</time>
      </trkpt>
      <trkpt lat="50.52718" lon="3.72976">
        <ele>109.82</ele>
        <time>2020-11-08T08:34:42.000Z</time>
      </trkpt>
      <trkpt lat="50.52724" lon="3.7298">
        <ele>110.99</ele>
        <time>2020-11-08T08:34:43.000Z</time>
      </trkpt>
      <trkpt lat="50.52729" lon="3.72982">
        <ele>110.11</ele>
        <time>2020-11-08T08:34:44.000Z</time>
      </trkpt>
      <trkpt lat="50.52734" lon="3.72985">
        <ele>110.29</ele>
        <time>2020-11-08T08:34:45.000Z</time>
      </trkpt>
      <trkpt lat="50.5274" lon="3.72989">
        <ele>110.35</ele>
        <time>2020-11-08T08:34:46.000Z</time>
      </trkpt>
      <trkpt lat="50.52743" lon="3.72994">
        <ele>109.74</ele>
        <time>2020-11-08T08:34:47.000Z</time>
      </trkpt>
      <trkpt lat="50.52747" lon="3.73">
        <ele>109.88</ele>
        <time>2020-11-08T08:34:48.000Z</time>
      </trkpt>
      <trkpt lat="50.52753" lon="3.7301">
        <ele>109.49</ele>
        <time>2020-11-08T08:34:50.000Z</time>
      </trkpt>
      <trkpt lat="50.52759" lon="3.73015">
        <ele>106.2</ele>
        <time>2020-11-08T08:34:52.000Z</time>
      </trkpt>
      <trkpt lat="50.5277" lon="3.73021">
        <ele>105.36</ele>
        <time>2020-11-08T08:34:54.000Z</time>
      </trkpt>
      <trkpt lat="50.52778" lon="3.73029">
        <ele>104.08</ele>
        <time>2020-11-08T08:34:56.000Z</time>
      </trkpt>
      <trkpt lat="50.5279" lon="3.73042">
        <ele>104.55</ele>
        <time>2020-11-08T08:34:58.000Z</time>
      </trkpt>
      <trkpt lat="50.52795" lon="3.73049">
        <ele>105.62</ele>
        <time>2020-11-08T08:34:59.000Z</time>
      </trkpt>
      <trkpt lat="50.52799" lon="3.73055">
        <ele>106.78</ele>
        <time>2020-11-08T08:35:00.000Z</time>
      </trkpt>
      <trkpt lat="50.52804" lon="3.7306">
        <ele>106.96</ele>
        <time>2020-11-08T08:35:01.000Z</time>
      </trkpt>
      <trkpt lat="50.52809" lon="3.73065">
        <ele>108.29</ele>
        <time>2020-11-08T08:35:02.000Z</time>
      </trkpt>
      <trkpt lat="50.52814" lon="3.73069">
        <ele>108.4</ele>
        <time>2020-11-08T08:35:03.000Z</time>
      </trkpt>
      <trkpt lat="50.52822" lon="3.73081">
        <ele>108.33</ele>
        <time>2020-11-08T08:35:05.000Z</time>
      </trkpt>
      <trkpt lat="50.52826" lon="3.73084">
        <ele>107.28</ele>
        <time>2020-11-08T08:35:06.000Z</time>
      </trkpt>
      <trkpt lat="50.52832" lon="3.7309">
        <ele>107.03</ele>
        <time>2020-11-08T08:35:08.000Z</time>
      </trkpt>
      <trkpt lat="50.52836" lon="3.73093">
        <ele>107.03</ele>
        <time>2020-11-08T08:35:09.000Z</time>
      </trkpt>
      <trkpt lat="50.5284" lon="3.73101">
        <ele>106.4</ele>
        <time>2020-11-08T08:35:10.000Z</time>
      </trkpt>
      <trkpt lat="50.52844" lon="3.73106">
        <ele>106.81</ele>
        <time>2020-11-08T08:35:11.000Z</time>
      </trkpt>
      <trkpt lat="50.52846" lon="3.73115">
        <ele>107.26</ele>
        <time>2020-11-08T08:35:13.000Z</time>
      </trkpt>
      <trkpt lat="50.52846" lon="3.73126">
        <ele>107.74</ele>
        <time>2020-11-08T08:35:15.000Z</time>
      </trkpt>
      <trkpt lat="50.52852" lon="3.7313">
        <ele>106.54</ele>
        <time>2020-11-08T08:35:17.000Z</time>
      </trkpt>
      <trkpt lat="50.52856" lon="3.73136">
        <ele>106.12</ele>
        <time>2020-11-08T08:35:19.000Z</time>
      </trkpt>
      <trkpt lat="50.52856" lon="3.73136">
        <ele>106.12</ele>
        <time>2020-11-08T08:35:19.001Z</time>
      </trkpt>
      <trkpt lat="50.5286" lon="3.73143">
        <ele>106.16</ele>
        <time>2020-11-08T08:35:43.000Z</time>
      </trkpt>
      <trkpt lat="50.52865" lon="3.73148">
        <ele>106.39</ele>
        <time>2020-11-08T08:35:45.000Z</time>
      </trkpt>
      <trkpt lat="50.52872" lon="3.7315">
        <ele>105.08</ele>
        <time>2020-11-08T08:35:47.000Z</time>
      </trkpt>
      <trkpt lat="50.52876" lon="3.73147">
        <ele>102.75</ele>
        <time>2020-11-08T08:35:48.000Z</time>
      </trkpt>
      <trkpt lat="50.52883" lon="3.73139">
        <ele>102.31</ele>
        <time>2020-11-08T08:35:50.000Z</time>
      </trkpt>
      <trkpt lat="50.52892" lon="3.73139">
        <ele>103.1</ele>
        <time>2020-11-08T08:35:52.000Z</time>
      </trkpt>
      <trkpt lat="50.52896" lon="3.73143">
        <ele>103.7</ele>
        <time>2020-11-08T08:35:53.000Z</time>
      </trkpt>
      <trkpt lat="50.529" lon="3.73149">
        <ele>104.17</ele>
        <time>2020-11-08T08:35:54.000Z</time>
      </trkpt>
      <trkpt lat="50.52904" lon="3.73155">
        <ele>104.61</ele>
        <time>2020-11-08T08:35:55.000Z</time>
      </trkpt>
      <trkpt lat="50.52908" lon="3.7316">
        <ele>104.82</ele>
        <time>2020-11-08T08:35:56.000Z</time>
      </trkpt>
      <trkpt lat="50.52913" lon="3.73166">
        <ele>104.86</ele>
        <time>2020-11-08T08:35:57.000Z</time>
      </trkpt>
      <trkpt lat="50.52917" lon="3.73172">
        <ele>104.92</ele>
        <time>2020-11-08T08:35:58.000Z</time>
      </trkpt>
      <trkpt lat="50.52921" lon="3.73178">
        <ele>104.79</ele>
        <time>2020-11-08T08:35:59.000Z</time>
      </trkpt>
      <trkpt lat="50.52926" lon="3.73183">
        <ele>105.02</ele>
        <time>2020-11-08T08:36:00.000Z</time>
      </trkpt>
      <trkpt lat="50.52929" lon="3.73188">
        <ele>105.02</ele>
        <time>2020-11-08T08:36:01.000Z</time>
      </trkpt>
      <trkpt lat="50.52933" lon="3.73194">
        <ele>105.1</ele>
        <time>2020-11-08T08:36:02.000Z</time>
      </trkpt>
      <trkpt lat="50.52937" lon="3.73199">
        <ele>104.96</ele>
        <time>2020-11-08T08:36:03.000Z</time>
      </trkpt>
      <trkpt lat="50.52941" lon="3.73204">
        <ele>105.16</ele>
        <time>2020-11-08T08:36:04.000Z</time>
      </trkpt>
      <trkpt lat="50.52946" lon="3.7321">
        <ele>105.29</ele>
        <time>2020-11-08T08:36:05.000Z</time>
      </trkpt>
      <trkpt lat="50.5295" lon="3.73216">
        <ele>105.31</ele>
        <time>2020-11-08T08:36:06.000Z</time>
      </trkpt>
      <trkpt lat="50.52954" lon="3.73222">
        <ele>105.6</ele>
        <time>2020-11-08T08:36:07.000Z</time>
      </trkpt>
      <trkpt lat="50.52958" lon="3.73227">
        <ele>105.42</ele>
        <time>2020-11-08T08:36:08.000Z</time>
      </trkpt>
      <trkpt lat="50.52963" lon="3.73233">
        <ele>105.7</ele>
        <time>2020-11-08T08:36:09.000Z</time>
      </trkpt>
      <trkpt lat="50.52967" lon="3.73238">
        <ele>105.66</ele>
        <time>2020-11-08T08:36:10.000Z</time>
      </trkpt>
      <trkpt lat="50.52972" lon="3.73243">
        <ele>105.72</ele>
        <time>2020-11-08T08:36:11.000Z</time>
      </trkpt>
      <trkpt lat="50.52976" lon="3.73248">
        <ele>105.65</ele>
        <time>2020-11-08T08:36:12.000Z</time>
      </trkpt>
      <trkpt lat="50.5298" lon="3.73253">
        <ele>105.67</ele>
        <time>2020-11-08T08:36:13.000Z</time>
      </trkpt>
      <trkpt lat="50.52984" lon="3.73259">
        <ele>105.8</ele>
        <time>2020-11-08T08:36:14.000Z</time>
      </trkpt>
      <trkpt lat="50.52988" lon="3.73265">
        <ele>105.83</ele>
        <time>2020-11-08T08:36:15.000Z</time>
      </trkpt>
      <trkpt lat="50.52993" lon="3.73271">
        <ele>105.98</ele>
        <time>2020-11-08T08:36:16.000Z</time>
      </trkpt>
      <trkpt lat="50.52999" lon="3.73277">
        <ele>106.3</ele>
        <time>2020-11-08T08:36:17.000Z</time>
      </trkpt>
      <trkpt lat="50.53003" lon="3.73282">
        <ele>106.46</ele>
        <time>2020-11-08T08:36:18.000Z</time>
      </trkpt>
      <trkpt lat="50.53009" lon="3.73288">
        <ele>106.62</ele>
        <time>2020-11-08T08:36:19.000Z</time>
      </trkpt>
      <trkpt lat="50.53014" lon="3.73294">
        <ele>106.39</ele>
        <time>2020-11-08T08:36:20.000Z</time>
      </trkpt>
      <trkpt lat="50.53019" lon="3.73301">
        <ele>106.17</ele>
        <time>2020-11-08T08:36:21.000Z</time>
      </trkpt>
      <trkpt lat="50.53025" lon="3.73307">
        <ele>106.32</ele>
        <time>2020-11-08T08:36:22.000Z</time>
      </trkpt>
      <trkpt lat="50.5303" lon="3.73314">
        <ele>106.15</ele>
        <time>2020-11-08T08:36:23.000Z</time>
      </trkpt>
      <trkpt lat="50.53035" lon="3.73321">
        <ele>106.05</ele>
        <time>2020-11-08T08:36:24.000Z</time>
      </trkpt>
      <trkpt lat="50.5304" lon="3.73328">
        <ele>105.98</ele>
        <time>2020-11-08T08:36:25.000Z</time>
      </trkpt>
      <trkpt lat="50.53046" lon="3.73335">
        <ele>105.8</ele>
        <time>2020-11-08T08:36:26.000Z</time>
      </trkpt>
      <trkpt lat="50.53051" lon="3.73342">
        <ele>105.83</ele>
        <time>2020-11-08T08:36:27.000Z</time>
      </trkpt>
      <trkpt lat="50.53056" lon="3.73348">
        <ele>105.86</ele>
        <time>2020-11-08T08:36:28.000Z</time>
      </trkpt>
      <trkpt lat="50.53061" lon="3.73355">
        <ele>105.93</ele>
        <time>2020-11-08T08:36:29.000Z</time>
      </trkpt>
      <trkpt lat="50.53065" lon="3.73361">
        <ele>105.76</ele>
        <time>2020-11-08T08:36:30.000Z</time>
      </trkpt>
      <trkpt lat="50.5307" lon="3.73367">
        <ele>105.82</ele>
        <time>2020-11-08T08:36:31.000Z</time>
      </trkpt>
      <trkpt lat="50.53075" lon="3.73374">
        <ele>106.02</ele>
        <time>2020-11-08T08:36:32.000Z</time>
      </trkpt>
      <trkpt lat="50.5308" lon="3.7338">
        <ele>105.91</ele>
        <time>2020-11-08T08:36:33.000Z</time>
      </trkpt>
      <trkpt lat="50.53085" lon="3.73386">
        <ele>105.87</ele>
        <time>2020-11-08T08:36:34.000Z</time>
      </trkpt>
      <trkpt lat="50.5309" lon="3.73392">
        <ele>105.9</ele>
        <time>2020-11-08T08:36:35.000Z</time>
      </trkpt>
      <trkpt lat="50.53095" lon="3.73397">
        <ele>105.95</ele>
        <time>2020-11-08T08:36:36.000Z</time>
      </trkpt>
      <trkpt lat="50.53099" lon="3.73404">
        <ele>105.71</ele>
        <time>2020-11-08T08:36:37.000Z</time>
      </trkpt>
      <trkpt lat="50.53104" lon="3.7341">
        <ele>105.63</ele>
        <time>2020-11-08T08:36:38.000Z</time>
      </trkpt>
      <trkpt lat="50.53107" lon="3.73415">
        <ele>105.91</ele>
        <time>2020-11-08T08:36:39.000Z</time>
      </trkpt>
      <trkpt lat="50.53112" lon="3.73422">
        <ele>106.02</ele>
        <time>2020-11-08T08:36:41.000Z</time>
      </trkpt>
      <trkpt lat="50.53111" lon="3.73431">
        <ele>105.77</ele>
        <time>2020-11-08T08:36:43.000Z</time>
      </trkpt>
      <trkpt lat="50.53106" lon="3.73441">
        <ele>105.73</ele>
        <time>2020-11-08T08:36:45.000Z</time>
      </trkpt>
      <trkpt lat="50.53102" lon="3.73447">
        <ele>105.67</ele>
        <time>2020-11-08T08:36:46.000Z</time>
      </trkpt>
      <trkpt lat="50.53099" lon="3.73454">
        <ele>105.63</ele>
        <time>2020-11-08T08:36:47.000Z</time>
      </trkpt>
      <trkpt lat="50.53094" lon="3.73462">
        <ele>105.44</ele>
        <time>2020-11-08T08:36:48.000Z</time>
      </trkpt>
      <trkpt lat="50.5309" lon="3.73471">
        <ele>105.65</ele>
        <time>2020-11-08T08:36:49.000Z</time>
      </trkpt>
      <trkpt lat="50.53085" lon="3.7348">
        <ele>105.45</ele>
        <time>2020-11-08T08:36:50.000Z</time>
      </trkpt>
      <trkpt lat="50.53081" lon="3.73488">
        <ele>105.55</ele>
        <time>2020-11-08T08:36:51.000Z</time>
      </trkpt>
      <trkpt lat="50.53076" lon="3.73496">
        <ele>105.73</ele>
        <time>2020-11-08T08:36:52.000Z</time>
      </trkpt>
      <trkpt lat="50.53072" lon="3.73505">
        <ele>105.95</ele>
        <time>2020-11-08T08:36:53.000Z</time>
      </trkpt>
      <trkpt lat="50.53067" lon="3.73513">
        <ele>105.85</ele>
        <time>2020-11-08T08:36:54.000Z</time>
      </trkpt>
      <trkpt lat="50.53062" lon="3.73522">
        <ele>105.59</ele>
        <time>2020-11-08T08:36:55.000Z</time>
      </trkpt>
      <trkpt lat="50.53058" lon="3.7353">
        <ele>105.71</ele>
        <time>2020-11-08T08:36:56.000Z</time>
      </trkpt>
      <trkpt lat="50.53053" lon="3.7354">
        <ele>105.84</ele>
        <time>2020-11-08T08:36:57.000Z</time>
      </trkpt>
      <trkpt lat="50.53048" lon="3.73549">
        <ele>105.86</ele>
        <time>2020-11-08T08:36:58.000Z</time>
      </trkpt>
      <trkpt lat="50.53043" lon="3.73558">
        <ele>105.85</ele>
        <time>2020-11-08T08:36:59.000Z</time>
      </trkpt>
      <trkpt lat="50.53038" lon="3.73567">
        <ele>106.05</ele>
        <time>2020-11-08T08:37:00.000Z</time>
      </trkpt>
      <trkpt lat="50.53033" lon="3.73577">
        <ele>106.37</ele>
        <time>2020-11-08T08:37:01.000Z</time>
      </trkpt>
      <trkpt lat="50.53028" lon="3.73586">
        <ele>106.6</ele>
        <time>2020-11-08T08:37:02.000Z</time>
      </trkpt>
      <trkpt lat="50.53024" lon="3.73594">
        <ele>106.59</ele>
        <time>2020-11-08T08:37:03.000Z</time>
      </trkpt>
      <trkpt lat="50.5302" lon="3.73601">
        <ele>106.38</ele>
        <time>2020-11-08T08:37:04.000Z</time>
      </trkpt>
      <trkpt lat="50.53016" lon="3.73608">
        <ele>106.19</ele>
        <time>2020-11-08T08:37:05.000Z</time>
      </trkpt>
      <trkpt lat="50.53012" lon="3.73616">
        <ele>106.11</ele>
        <time>2020-11-08T08:37:06.000Z</time>
      </trkpt>
      <trkpt lat="50.53009" lon="3.73623">
        <ele>106.22</ele>
        <time>2020-11-08T08:37:07.000Z</time>
      </trkpt>
      <trkpt lat="50.53005" lon="3.73631">
        <ele>106.36</ele>
        <time>2020-11-08T08:37:08.000Z</time>
      </trkpt>
      <trkpt lat="50.53001" lon="3.73638">
        <ele>106.5</ele>
        <time>2020-11-08T08:37:09.000Z</time>
      </trkpt>
      <trkpt lat="50.52998" lon="3.73644">
        <ele>106.18</ele>
        <time>2020-11-08T08:37:10.000Z</time>
      </trkpt>
      <trkpt lat="50.52994" lon="3.7365">
        <ele>106.46</ele>
        <time>2020-11-08T08:37:11.000Z</time>
      </trkpt>
      <trkpt lat="50.5299" lon="3.73657">
        <ele>106.66</ele>
        <time>2020-11-08T08:37:12.000Z</time>
      </trkpt>
      <trkpt lat="50.52987" lon="3.73663">
        <ele>106.31</ele>
        <time>2020-11-08T08:37:13.000Z</time>
      </trkpt>
      <trkpt lat="50.52984" lon="3.7367">
        <ele>106.03</ele>
        <time>2020-11-08T08:37:14.000Z</time>
      </trkpt>
      <trkpt lat="50.5298" lon="3.73677">
        <ele>105.67</ele>
        <time>2020-11-08T08:37:15.000Z</time>
      </trkpt>
      <trkpt lat="50.52977" lon="3.73683">
        <ele>105.81</ele>
        <time>2020-11-08T08:37:16.000Z</time>
      </trkpt>
      <trkpt lat="50.52973" lon="3.7369">
        <ele>105.97</ele>
        <time>2020-11-08T08:37:17.000Z</time>
      </trkpt>
      <trkpt lat="50.5297" lon="3.73697">
        <ele>105.84</ele>
        <time>2020-11-08T08:37:18.000Z</time>
      </trkpt>
      <trkpt lat="50.52966" lon="3.73703">
        <ele>105.78</ele>
        <time>2020-11-08T08:37:19.000Z</time>
      </trkpt>
      <trkpt lat="50.52962" lon="3.7371">
        <ele>105.83</ele>
        <time>2020-11-08T08:37:20.000Z</time>
      </trkpt>
      <trkpt lat="50.52959" lon="3.73716">
        <ele>105.87</ele>
        <time>2020-11-08T08:37:21.000Z</time>
      </trkpt>
      <trkpt lat="50.52956" lon="3.73722">
        <ele>105.62</ele>
        <time>2020-11-08T08:37:22.000Z</time>
      </trkpt>
      <trkpt lat="50.52953" lon="3.73729">
        <ele>105.58</ele>
        <time>2020-11-08T08:37:23.000Z</time>
      </trkpt>
      <trkpt lat="50.52951" lon="3.73735">
        <ele>105.52</ele>
        <time>2020-11-08T08:37:24.000Z</time>
      </trkpt>
      <trkpt lat="50.5295" lon="3.73745">
        <ele>105.32</ele>
        <time>2020-11-08T08:37:26.000Z</time>
      </trkpt>
      <trkpt lat="50.52945" lon="3.73754">
        <ele>105.79</ele>
        <time>2020-11-08T08:37:28.000Z</time>
      </trkpt>
      <trkpt lat="50.52939" lon="3.73766">
        <ele>106.14</ele>
        <time>2020-11-08T08:37:30.000Z</time>
      </trkpt>
      <trkpt lat="50.52935" lon="3.73772">
        <ele>106.52</ele>
        <time>2020-11-08T08:37:31.000Z</time>
      </trkpt>
      <trkpt lat="50.52932" lon="3.73778">
        <ele>106.55</ele>
        <time>2020-11-08T08:37:32.000Z</time>
      </trkpt>
      <trkpt lat="50.52929" lon="3.73784">
        <ele>106.44</ele>
        <time>2020-11-08T08:37:33.000Z</time>
      </trkpt>
      <trkpt lat="50.52926" lon="3.7379">
        <ele>106.72</ele>
        <time>2020-11-08T08:37:34.000Z</time>
      </trkpt>
      <trkpt lat="50.52923" lon="3.73796">
        <ele>106.64</ele>
        <time>2020-11-08T08:37:35.000Z</time>
      </trkpt>
      <trkpt lat="50.5292" lon="3.73802">
        <ele>106.8</ele>
        <time>2020-11-08T08:37:36.000Z</time>
      </trkpt>
      <trkpt lat="50.52917" lon="3.73808">
        <ele>107.05</ele>
        <time>2020-11-08T08:37:37.000Z</time>
      </trkpt>
      <trkpt lat="50.52913" lon="3.73814">
        <ele>107.16</ele>
        <time>2020-11-08T08:37:38.000Z</time>
      </trkpt>
      <trkpt lat="50.52911" lon="3.7382">
        <ele>106.93</ele>
        <time>2020-11-08T08:37:39.000Z</time>
      </trkpt>
      <trkpt lat="50.52907" lon="3.73826">
        <ele>106.65</ele>
        <time>2020-11-08T08:37:40.000Z</time>
      </trkpt>
      <trkpt lat="50.529" lon="3.73837">
        <ele>107.09</ele>
        <time>2020-11-08T08:37:42.000Z</time>
      </trkpt>
      <trkpt lat="50.52896" lon="3.73846">
        <ele>106.82</ele>
        <time>2020-11-08T08:37:43.000Z</time>
      </trkpt>
      <trkpt lat="50.52892" lon="3.73853">
        <ele>106.6</ele>
        <time>2020-11-08T08:37:44.000Z</time>
      </trkpt>
      <trkpt lat="50.52887" lon="3.7386">
        <ele>106.43</ele>
        <time>2020-11-08T08:37:45.000Z</time>
      </trkpt>
      <trkpt lat="50.52882" lon="3.73868">
        <ele>106.45</ele>
        <time>2020-11-08T08:37:46.000Z</time>
      </trkpt>
      <trkpt lat="50.52878" lon="3.73877">
        <ele>107.04</ele>
        <time>2020-11-08T08:37:47.000Z</time>
      </trkpt>
      <trkpt lat="50.52874" lon="3.73886">
        <ele>107.38</ele>
        <time>2020-11-08T08:37:48.000Z</time>
      </trkpt>
      <trkpt lat="50.52869" lon="3.73895">
        <ele>107.51</ele>
        <time>2020-11-08T08:37:49.000Z</time>
      </trkpt>
      <trkpt lat="50.52865" lon="3.73904">
        <ele>107.87</ele>
        <time>2020-11-08T08:37:50.000Z</time>
      </trkpt>
      <trkpt lat="50.5286" lon="3.73913">
        <ele>108.33</ele>
        <time>2020-11-08T08:37:51.000Z</time>
      </trkpt>
      <trkpt lat="50.52855" lon="3.73921">
        <ele>108.28</ele>
        <time>2020-11-08T08:37:52.000Z</time>
      </trkpt>
      <trkpt lat="50.52851" lon="3.73929">
        <ele>108.98</ele>
        <time>2020-11-08T08:37:53.000Z</time>
      </trkpt>
      <trkpt lat="50.52846" lon="3.73935">
        <ele>108.29</ele>
        <time>2020-11-08T08:37:54.000Z</time>
      </trkpt>
      <trkpt lat="50.5284" lon="3.73943">
        <ele>107.14</ele>
        <time>2020-11-08T08:37:55.000Z</time>
      </trkpt>
      <trkpt lat="50.52835" lon="3.73952">
        <ele>107.52</ele>
        <time>2020-11-08T08:37:56.000Z</time>
      </trkpt>
      <trkpt lat="50.52831" lon="3.73962">
        <ele>107.55</ele>
        <time>2020-11-08T08:37:57.000Z</time>
      </trkpt>
      <trkpt lat="50.52827" lon="3.7397">
        <ele>107.83</ele>
        <time>2020-11-08T08:37:58.000Z</time>
      </trkpt>
      <trkpt lat="50.52822" lon="3.73979">
        <ele>108.19</ele>
        <time>2020-11-08T08:37:59.000Z</time>
      </trkpt>
      <trkpt lat="50.52818" lon="3.73987">
        <ele>108.16</ele>
        <time>2020-11-08T08:38:00.000Z</time>
      </trkpt>
      <trkpt lat="50.52813" lon="3.73996">
        <ele>108.56</ele>
        <time>2020-11-08T08:38:01.000Z</time>
      </trkpt>
      <trkpt lat="50.52808" lon="3.74005">
        <ele>107.81</ele>
        <time>2020-11-08T08:38:02.000Z</time>
      </trkpt>
      <trkpt lat="50.52803" lon="3.74013">
        <ele>108.1</ele>
        <time>2020-11-08T08:38:03.000Z</time>
      </trkpt>
      <trkpt lat="50.52798" lon="3.74022">
        <ele>108.55</ele>
        <time>2020-11-08T08:38:04.000Z</time>
      </trkpt>
      <trkpt lat="50.52794" lon="3.74031">
        <ele>108.79</ele>
        <time>2020-11-08T08:38:05.000Z</time>
      </trkpt>
      <trkpt lat="50.52789" lon="3.7404">
        <ele>109.02</ele>
        <time>2020-11-08T08:38:06.000Z</time>
      </trkpt>
      <trkpt lat="50.52784" lon="3.74048">
        <ele>108.92</ele>
        <time>2020-11-08T08:38:07.000Z</time>
      </trkpt>
      <trkpt lat="50.5278" lon="3.74056">
        <ele>109.04</ele>
        <time>2020-11-08T08:38:08.000Z</time>
      </trkpt>
      <trkpt lat="50.52776" lon="3.74063">
        <ele>108.95</ele>
        <time>2020-11-08T08:38:09.000Z</time>
      </trkpt>
      <trkpt lat="50.52772" lon="3.74072">
        <ele>109.24</ele>
        <time>2020-11-08T08:38:10.000Z</time>
      </trkpt>
      <trkpt lat="50.52768" lon="3.7408">
        <ele>109.39</ele>
        <time>2020-11-08T08:38:11.000Z</time>
      </trkpt>
      <trkpt lat="50.52763" lon="3.74088">
        <ele>109.16</ele>
        <time>2020-11-08T08:38:12.000Z</time>
      </trkpt>
      <trkpt lat="50.52759" lon="3.74096">
        <ele>109.39</ele>
        <time>2020-11-08T08:38:13.000Z</time>
      </trkpt>
      <trkpt lat="50.52755" lon="3.74104">
        <ele>109.11</ele>
        <time>2020-11-08T08:38:14.000Z</time>
      </trkpt>
      <trkpt lat="50.5275" lon="3.74112">
        <ele>108.8</ele>
        <time>2020-11-08T08:38:15.000Z</time>
      </trkpt>
      <trkpt lat="50.52746" lon="3.7412">
        <ele>108.67</ele>
        <time>2020-11-08T08:38:16.000Z</time>
      </trkpt>
      <trkpt lat="50.52741" lon="3.74129">
        <ele>108.44</ele>
        <time>2020-11-08T08:38:17.000Z</time>
      </trkpt>
      <trkpt lat="50.52737" lon="3.74138">
        <ele>108.94</ele>
        <time>2020-11-08T08:38:18.000Z</time>
      </trkpt>
      <trkpt lat="50.52732" lon="3.74147">
        <ele>108.81</ele>
        <time>2020-11-08T08:38:19.000Z</time>
      </trkpt>
      <trkpt lat="50.52728" lon="3.74156">
        <ele>108.57</ele>
        <time>2020-11-08T08:38:20.000Z</time>
      </trkpt>
      <trkpt lat="50.52723" lon="3.74164">
        <ele>108.6</ele>
        <time>2020-11-08T08:38:21.000Z</time>
      </trkpt>
      <trkpt lat="50.52718" lon="3.74173">
        <ele>108.65</ele>
        <time>2020-11-08T08:38:22.000Z</time>
      </trkpt>
      <trkpt lat="50.52713" lon="3.74182">
        <ele>108.42</ele>
        <time>2020-11-08T08:38:23.000Z</time>
      </trkpt>
      <trkpt lat="50.52709" lon="3.7419">
        <ele>108.69</ele>
        <time>2020-11-08T08:38:24.000Z</time>
      </trkpt>
      <trkpt lat="50.52705" lon="3.74199">
        <ele>108.55</ele>
        <time>2020-11-08T08:38:25.000Z</time>
      </trkpt>
      <trkpt lat="50.527" lon="3.74207">
        <ele>108.99</ele>
        <time>2020-11-08T08:38:26.000Z</time>
      </trkpt>
      <trkpt lat="50.52696" lon="3.74215">
        <ele>109.29</ele>
        <time>2020-11-08T08:38:27.000Z</time>
      </trkpt>
      <trkpt lat="50.52692" lon="3.74223">
        <ele>109</ele>
        <time>2020-11-08T08:38:28.000Z</time>
      </trkpt>
      <trkpt lat="50.52688" lon="3.74232">
        <ele>109.45</ele>
        <time>2020-11-08T08:38:29.000Z</time>
      </trkpt>
      <trkpt lat="50.52683" lon="3.7424">
        <ele>109.23</ele>
        <time>2020-11-08T08:38:30.000Z</time>
      </trkpt>
      <trkpt lat="50.52679" lon="3.74249">
        <ele>109.24</ele>
        <time>2020-11-08T08:38:31.000Z</time>
      </trkpt>
      <trkpt lat="50.52675" lon="3.74257">
        <ele>110.14</ele>
        <time>2020-11-08T08:38:32.000Z</time>
      </trkpt>
      <trkpt lat="50.5267" lon="3.74267">
        <ele>110.66</ele>
        <time>2020-11-08T08:38:33.000Z</time>
      </trkpt>
      <trkpt lat="50.52666" lon="3.74275">
        <ele>110.68</ele>
        <time>2020-11-08T08:38:34.000Z</time>
      </trkpt>
      <trkpt lat="50.52661" lon="3.74284">
        <ele>110.77</ele>
        <time>2020-11-08T08:38:35.000Z</time>
      </trkpt>
      <trkpt lat="50.52657" lon="3.74292">
        <ele>110.48</ele>
        <time>2020-11-08T08:38:36.000Z</time>
      </trkpt>
      <trkpt lat="50.52653" lon="3.74299">
        <ele>110.2</ele>
        <time>2020-11-08T08:38:37.000Z</time>
      </trkpt>
      <trkpt lat="50.52649" lon="3.74307">
        <ele>110.26</ele>
        <time>2020-11-08T08:38:38.000Z</time>
      </trkpt>
      <trkpt lat="50.52644" lon="3.74315">
        <ele>110.23</ele>
        <time>2020-11-08T08:38:39.000Z</time>
      </trkpt>
      <trkpt lat="50.5264" lon="3.74323">
        <ele>110.51</ele>
        <time>2020-11-08T08:38:40.000Z</time>
      </trkpt>
      <trkpt lat="50.52636" lon="3.74331">
        <ele>110.32</ele>
        <time>2020-11-08T08:38:41.000Z</time>
      </trkpt>
      <trkpt lat="50.52632" lon="3.74339">
        <ele>109.9</ele>
        <time>2020-11-08T08:38:42.000Z</time>
      </trkpt>
      <trkpt lat="50.52627" lon="3.74348">
        <ele>110.18</ele>
        <time>2020-11-08T08:38:43.000Z</time>
      </trkpt>
      <trkpt lat="50.52623" lon="3.74356">
        <ele>109.89</ele>
        <time>2020-11-08T08:38:44.000Z</time>
      </trkpt>
      <trkpt lat="50.52618" lon="3.74365">
        <ele>110.37</ele>
        <time>2020-11-08T08:38:45.000Z</time>
      </trkpt>
      <trkpt lat="50.52613" lon="3.74373">
        <ele>110.35</ele>
        <time>2020-11-08T08:38:46.000Z</time>
      </trkpt>
      <trkpt lat="50.52608" lon="3.74381">
        <ele>110.3</ele>
        <time>2020-11-08T08:38:47.000Z</time>
      </trkpt>
      <trkpt lat="50.52604" lon="3.7439">
        <ele>110.13</ele>
        <time>2020-11-08T08:38:48.000Z</time>
      </trkpt>
      <trkpt lat="50.526" lon="3.74398">
        <ele>110.31</ele>
        <time>2020-11-08T08:38:49.000Z</time>
      </trkpt>
      <trkpt lat="50.52596" lon="3.74405">
        <ele>110.01</ele>
        <time>2020-11-08T08:38:50.000Z</time>
      </trkpt>
      <trkpt lat="50.52592" lon="3.74412">
        <ele>110.62</ele>
        <time>2020-11-08T08:38:51.000Z</time>
      </trkpt>
      <trkpt lat="50.52589" lon="3.74419">
        <ele>110.83</ele>
        <time>2020-11-08T08:38:52.000Z</time>
      </trkpt>
      <trkpt lat="50.52586" lon="3.74426">
        <ele>111.42</ele>
        <time>2020-11-08T08:38:53.000Z</time>
      </trkpt>
      <trkpt lat="50.52583" lon="3.74431">
        <ele>111.27</ele>
        <time>2020-11-08T08:38:54.000Z</time>
      </trkpt>
      <trkpt lat="50.52576" lon="3.74435">
        <ele>111.4</ele>
        <time>2020-11-08T08:38:56.000Z</time>
      </trkpt>
      <trkpt lat="50.52574" lon="3.74442">
        <ele>111.26</ele>
        <time>2020-11-08T08:38:58.000Z</time>
      </trkpt>
      <trkpt lat="50.52571" lon="3.74453">
        <ele>112.03</ele>
        <time>2020-11-08T08:39:00.000Z</time>
      </trkpt>
      <trkpt lat="50.52565" lon="3.74464">
        <ele>110.79</ele>
        <time>2020-11-08T08:39:02.000Z</time>
      </trkpt>
      <trkpt lat="50.52562" lon="3.74471">
        <ele>111.01</ele>
        <time>2020-11-08T08:39:03.000Z</time>
      </trkpt>
      <trkpt lat="50.52559" lon="3.74477">
        <ele>110.81</ele>
        <time>2020-11-08T08:39:04.000Z</time>
      </trkpt>
      <trkpt lat="50.52555" lon="3.74484">
        <ele>111.05</ele>
        <time>2020-11-08T08:39:05.000Z</time>
      </trkpt>
      <trkpt lat="50.52552" lon="3.7449">
        <ele>110.98</ele>
        <time>2020-11-08T08:39:06.000Z</time>
      </trkpt>
      <trkpt lat="50.52548" lon="3.74496">
        <ele>110.5</ele>
        <time>2020-11-08T08:39:07.000Z</time>
      </trkpt>
      <trkpt lat="50.52544" lon="3.74502">
        <ele>110.31</ele>
        <time>2020-11-08T08:39:08.000Z</time>
      </trkpt>
      <trkpt lat="50.52541" lon="3.74509">
        <ele>110.57</ele>
        <time>2020-11-08T08:39:09.000Z</time>
      </trkpt>
      <trkpt lat="50.52536" lon="3.74513">
        <ele>111.06</ele>
        <time>2020-11-08T08:39:10.000Z</time>
      </trkpt>
      <trkpt lat="50.52528" lon="3.74518">
        <ele>111.56</ele>
        <time>2020-11-08T08:39:12.000Z</time>
      </trkpt>
      <trkpt lat="50.5252" lon="3.74516">
        <ele>112.06</ele>
        <time>2020-11-08T08:39:14.000Z</time>
      </trkpt>
      <trkpt lat="50.52515" lon="3.74517">
        <ele>112.72</ele>
        <time>2020-11-08T08:39:15.000Z</time>
      </trkpt>
      <trkpt lat="50.5251" lon="3.74518">
        <ele>112.58</ele>
        <time>2020-11-08T08:39:16.000Z</time>
      </trkpt>
      <trkpt lat="50.52503" lon="3.74518">
        <ele>112.82</ele>
        <time>2020-11-08T08:39:17.000Z</time>
      </trkpt>
      <trkpt lat="50.52497" lon="3.74518">
        <ele>113.04</ele>
        <time>2020-11-08T08:39:18.000Z</time>
      </trkpt>
      <trkpt lat="50.5249" lon="3.7452">
        <ele>113.26</ele>
        <time>2020-11-08T08:39:19.000Z</time>
      </trkpt>
      <trkpt lat="50.52483" lon="3.7452">
        <ele>113.04</ele>
        <time>2020-11-08T08:39:20.000Z</time>
      </trkpt>
      <trkpt lat="50.52476" lon="3.74519">
        <ele>112.82</ele>
        <time>2020-11-08T08:39:21.000Z</time>
      </trkpt>
      <trkpt lat="50.52469" lon="3.7452">
        <ele>113.79</ele>
        <time>2020-11-08T08:39:22.000Z</time>
      </trkpt>
      <trkpt lat="50.52461" lon="3.74519">
        <ele>114.04</ele>
        <time>2020-11-08T08:39:23.000Z</time>
      </trkpt>
      <trkpt lat="50.52453" lon="3.74519">
        <ele>113.83</ele>
        <time>2020-11-08T08:39:24.000Z</time>
      </trkpt>
      <trkpt lat="50.52447" lon="3.7452">
        <ele>113.18</ele>
        <time>2020-11-08T08:39:25.000Z</time>
      </trkpt>
      <trkpt lat="50.5244" lon="3.74521">
        <ele>113.71</ele>
        <time>2020-11-08T08:39:26.000Z</time>
      </trkpt>
      <trkpt lat="50.52434" lon="3.74522">
        <ele>113.17</ele>
        <time>2020-11-08T08:39:27.000Z</time>
      </trkpt>
      <trkpt lat="50.52428" lon="3.74522">
        <ele>114.04</ele>
        <time>2020-11-08T08:39:28.000Z</time>
      </trkpt>
      <trkpt lat="50.52423" lon="3.74523">
        <ele>113.28</ele>
        <time>2020-11-08T08:39:29.000Z</time>
      </trkpt>
      <trkpt lat="50.52418" lon="3.74523">
        <ele>113.69</ele>
        <time>2020-11-08T08:39:30.000Z</time>
      </trkpt>
      <trkpt lat="50.52412" lon="3.74523">
        <ele>114.36</ele>
        <time>2020-11-08T08:39:31.000Z</time>
      </trkpt>
      <trkpt lat="50.52406" lon="3.74524">
        <ele>114.57</ele>
        <time>2020-11-08T08:39:32.000Z</time>
      </trkpt>
      <trkpt lat="50.52401" lon="3.74524">
        <ele>113.87</ele>
        <time>2020-11-08T08:39:33.000Z</time>
      </trkpt>
      <trkpt lat="50.52395" lon="3.74525">
        <ele>114.15</ele>
        <time>2020-11-08T08:39:34.000Z</time>
      </trkpt>
      <trkpt lat="50.5239" lon="3.74525">
        <ele>113.5</ele>
        <time>2020-11-08T08:39:35.000Z</time>
      </trkpt>
      <trkpt lat="50.52385" lon="3.74525">
        <ele>113.4</ele>
        <time>2020-11-08T08:39:36.000Z</time>
      </trkpt>
      <trkpt lat="50.5238" lon="3.74526">
        <ele>114.21</ele>
        <time>2020-11-08T08:39:37.000Z</time>
      </trkpt>
      <trkpt lat="50.52374" lon="3.74526">
        <ele>114.2</ele>
        <time>2020-11-08T08:39:38.000Z</time>
      </trkpt>
      <trkpt lat="50.52369" lon="3.74526">
        <ele>114.73</ele>
        <time>2020-11-08T08:39:39.000Z</time>
      </trkpt>
      <trkpt lat="50.52364" lon="3.74525">
        <ele>115.38</ele>
        <time>2020-11-08T08:39:40.000Z</time>
      </trkpt>
      <trkpt lat="50.52358" lon="3.74526">
        <ele>115.89</ele>
        <time>2020-11-08T08:39:41.000Z</time>
      </trkpt>
      <trkpt lat="50.52353" lon="3.74526">
        <ele>115.47</ele>
        <time>2020-11-08T08:39:42.000Z</time>
      </trkpt>
      <trkpt lat="50.52347" lon="3.74526">
        <ele>115.21</ele>
        <time>2020-11-08T08:39:43.000Z</time>
      </trkpt>
      <trkpt lat="50.52342" lon="3.74526">
        <ele>115.11</ele>
        <time>2020-11-08T08:39:44.000Z</time>
      </trkpt>
      <trkpt lat="50.52336" lon="3.74525">
        <ele>114.52</ele>
        <time>2020-11-08T08:39:45.000Z</time>
      </trkpt>
      <trkpt lat="50.5233" lon="3.74526">
        <ele>114.95</ele>
        <time>2020-11-08T08:39:46.000Z</time>
      </trkpt>
      <trkpt lat="50.52324" lon="3.74527">
        <ele>115.53</ele>
        <time>2020-11-08T08:39:47.000Z</time>
      </trkpt>
      <trkpt lat="50.52318" lon="3.74528">
        <ele>115.61</ele>
        <time>2020-11-08T08:39:48.000Z</time>
      </trkpt>
      <trkpt lat="50.52312" lon="3.74529">
        <ele>116.22</ele>
        <time>2020-11-08T08:39:49.000Z</time>
      </trkpt>
      <trkpt lat="50.52306" lon="3.74529">
        <ele>116.75</ele>
        <time>2020-11-08T08:39:50.000Z</time>
      </trkpt>
      <trkpt lat="50.523" lon="3.74529">
        <ele>117.32</ele>
        <time>2020-11-08T08:39:51.000Z</time>
      </trkpt>
      <trkpt lat="50.52294" lon="3.74528">
        <ele>116.05</ele>
        <time>2020-11-08T08:39:52.000Z</time>
      </trkpt>
      <trkpt lat="50.52288" lon="3.74529">
        <ele>116.93</ele>
        <time>2020-11-08T08:39:53.000Z</time>
      </trkpt>
      <trkpt lat="50.52282" lon="3.7453">
        <ele>117.58</ele>
        <time>2020-11-08T08:39:54.000Z</time>
      </trkpt>
      <trkpt lat="50.52276" lon="3.74531">
        <ele>117.08</ele>
        <time>2020-11-08T08:39:55.000Z</time>
      </trkpt>
      <trkpt lat="50.5227" lon="3.74531">
        <ele>117.32</ele>
        <time>2020-11-08T08:39:56.000Z</time>
      </trkpt>
      <trkpt lat="50.52263" lon="3.74532">
        <ele>117.65</ele>
        <time>2020-11-08T08:39:57.000Z</time>
      </trkpt>
      <trkpt lat="50.52256" lon="3.74532">
        <ele>117.69</ele>
        <time>2020-11-08T08:39:58.000Z</time>
      </trkpt>
      <trkpt lat="50.5225" lon="3.74532">
        <ele>116.36</ele>
        <time>2020-11-08T08:39:59.000Z</time>
      </trkpt>
      <trkpt lat="50.52244" lon="3.74532">
        <ele>115.78</ele>
        <time>2020-11-08T08:40:00.000Z</time>
      </trkpt>
      <trkpt lat="50.52238" lon="3.74532">
        <ele>115.95</ele>
        <time>2020-11-08T08:40:01.000Z</time>
      </trkpt>
      <trkpt lat="50.52231" lon="3.74532">
        <ele>115.48</ele>
        <time>2020-11-08T08:40:02.000Z</time>
      </trkpt>
      <trkpt lat="50.52225" lon="3.74532">
        <ele>115.7</ele>
        <time>2020-11-08T08:40:03.000Z</time>
      </trkpt>
      <trkpt lat="50.52218" lon="3.74531">
        <ele>116.04</ele>
        <time>2020-11-08T08:40:04.000Z</time>
      </trkpt>
      <trkpt lat="50.52211" lon="3.74533">
        <ele>115.72</ele>
        <time>2020-11-08T08:40:05.000Z</time>
      </trkpt>
      <trkpt lat="50.52204" lon="3.74533">
        <ele>115.95</ele>
        <time>2020-11-08T08:40:06.000Z</time>
      </trkpt>
      <trkpt lat="50.52197" lon="3.74533">
        <ele>115.95</ele>
        <time>2020-11-08T08:40:07.000Z</time>
      </trkpt>
      <trkpt lat="50.52191" lon="3.74533">
        <ele>114.34</ele>
        <time>2020-11-08T08:40:08.000Z</time>
      </trkpt>
      <trkpt lat="50.52184" lon="3.74535">
        <ele>114.55</ele>
        <time>2020-11-08T08:40:09.000Z</time>
      </trkpt>
      <trkpt lat="50.52177" lon="3.74535">
        <ele>114.43</ele>
        <time>2020-11-08T08:40:10.000Z</time>
      </trkpt>
      <trkpt lat="50.5217" lon="3.74536">
        <ele>113.58</ele>
        <time>2020-11-08T08:40:11.000Z</time>
      </trkpt>
      <trkpt lat="50.52164" lon="3.74537">
        <ele>114.07</ele>
        <time>2020-11-08T08:40:12.000Z</time>
      </trkpt>
      <trkpt lat="50.52157" lon="3.74537">
        <ele>114.34</ele>
        <time>2020-11-08T08:40:13.000Z</time>
      </trkpt>
      <trkpt lat="50.5215" lon="3.74538">
        <ele>114.17</ele>
        <time>2020-11-08T08:40:14.000Z</time>
      </trkpt>
      <trkpt lat="50.52143" lon="3.74539">
        <ele>114.61</ele>
        <time>2020-11-08T08:40:15.000Z</time>
      </trkpt>
      <trkpt lat="50.52136" lon="3.74539">
        <ele>113.89</ele>
        <time>2020-11-08T08:40:16.000Z</time>
      </trkpt>
      <trkpt lat="50.52129" lon="3.7454">
        <ele>113.74</ele>
        <time>2020-11-08T08:40:17.000Z</time>
      </trkpt>
      <trkpt lat="50.52122" lon="3.7454">
        <ele>113.49</ele>
        <time>2020-11-08T08:40:18.000Z</time>
      </trkpt>
      <trkpt lat="50.52116" lon="3.74541">
        <ele>113.78</ele>
        <time>2020-11-08T08:40:19.000Z</time>
      </trkpt>
      <trkpt lat="50.52108" lon="3.74542">
        <ele>114.4</ele>
        <time>2020-11-08T08:40:20.000Z</time>
      </trkpt>
      <trkpt lat="50.52101" lon="3.74542">
        <ele>114.08</ele>
        <time>2020-11-08T08:40:21.000Z</time>
      </trkpt>
      <trkpt lat="50.52094" lon="3.74543">
        <ele>113.67</ele>
        <time>2020-11-08T08:40:22.000Z</time>
      </trkpt>
      <trkpt lat="50.52086" lon="3.74543">
        <ele>114.07</ele>
        <time>2020-11-08T08:40:23.000Z</time>
      </trkpt>
      <trkpt lat="50.52079" lon="3.74543">
        <ele>114.55</ele>
        <time>2020-11-08T08:40:24.000Z</time>
      </trkpt>
      <trkpt lat="50.52072" lon="3.74544">
        <ele>114.05</ele>
        <time>2020-11-08T08:40:25.000Z</time>
      </trkpt>
      <trkpt lat="50.52066" lon="3.74544">
        <ele>113.77</ele>
        <time>2020-11-08T08:40:26.000Z</time>
      </trkpt>
      <trkpt lat="50.5206" lon="3.74544">
        <ele>113.36</ele>
        <time>2020-11-08T08:40:27.000Z</time>
      </trkpt>
      <trkpt lat="50.52053" lon="3.74545">
        <ele>113.32</ele>
        <time>2020-11-08T08:40:28.000Z</time>
      </trkpt>
      <trkpt lat="50.52047" lon="3.74545">
        <ele>113.44</ele>
        <time>2020-11-08T08:40:29.000Z</time>
      </trkpt>
      <trkpt lat="50.5204" lon="3.74546">
        <ele>113.53</ele>
        <time>2020-11-08T08:40:30.000Z</time>
      </trkpt>
      <trkpt lat="50.52034" lon="3.74546">
        <ele>113.69</ele>
        <time>2020-11-08T08:40:31.000Z</time>
      </trkpt>
      <trkpt lat="50.52028" lon="3.74547">
        <ele>113.69</ele>
        <time>2020-11-08T08:40:32.000Z</time>
      </trkpt>
      <trkpt lat="50.52021" lon="3.74547">
        <ele>113.95</ele>
        <time>2020-11-08T08:40:33.000Z</time>
      </trkpt>
      <trkpt lat="50.52015" lon="3.74548">
        <ele>114.05</ele>
        <time>2020-11-08T08:40:34.000Z</time>
      </trkpt>
      <trkpt lat="50.52009" lon="3.74547">
        <ele>114.61</ele>
        <time>2020-11-08T08:40:35.000Z</time>
      </trkpt>
      <trkpt lat="50.52003" lon="3.74547">
        <ele>114.73</ele>
        <time>2020-11-08T08:40:36.000Z</time>
      </trkpt>
      <trkpt lat="50.51996" lon="3.74548">
        <ele>115.84</ele>
        <time>2020-11-08T08:40:37.000Z</time>
      </trkpt>
      <trkpt lat="50.51989" lon="3.74548">
        <ele>116.67</ele>
        <time>2020-11-08T08:40:38.000Z</time>
      </trkpt>
      <trkpt lat="50.51983" lon="3.74548">
        <ele>116.16</ele>
        <time>2020-11-08T08:40:39.000Z</time>
      </trkpt>
      <trkpt lat="50.51977" lon="3.74549">
        <ele>115.48</ele>
        <time>2020-11-08T08:40:40.000Z</time>
      </trkpt>
      <trkpt lat="50.51971" lon="3.74549">
        <ele>115.36</ele>
        <time>2020-11-08T08:40:41.000Z</time>
      </trkpt>
      <trkpt lat="50.51964" lon="3.74548">
        <ele>115.65</ele>
        <time>2020-11-08T08:40:42.000Z</time>
      </trkpt>
      <trkpt lat="50.51957" lon="3.74547">
        <ele>115.99</ele>
        <time>2020-11-08T08:40:43.000Z</time>
      </trkpt>
      <trkpt lat="50.5195" lon="3.74544">
        <ele>115.12</ele>
        <time>2020-11-08T08:40:44.000Z</time>
      </trkpt>
      <trkpt lat="50.51944" lon="3.74541">
        <ele>114.9</ele>
        <time>2020-11-08T08:40:45.000Z</time>
      </trkpt>
      <trkpt lat="50.51938" lon="3.74537">
        <ele>114.92</ele>
        <time>2020-11-08T08:40:46.000Z</time>
      </trkpt>
      <trkpt lat="50.51932" lon="3.74533">
        <ele>114.59</ele>
        <time>2020-11-08T08:40:47.000Z</time>
      </trkpt>
      <trkpt lat="50.51926" lon="3.7453">
        <ele>114.5</ele>
        <time>2020-11-08T08:40:48.000Z</time>
      </trkpt>
      <trkpt lat="50.5192" lon="3.74527">
        <ele>113.24</ele>
        <time>2020-11-08T08:40:49.000Z</time>
      </trkpt>
      <trkpt lat="50.51914" lon="3.74523">
        <ele>113.44</ele>
        <time>2020-11-08T08:40:50.000Z</time>
      </trkpt>
      <trkpt lat="50.51908" lon="3.74519">
        <ele>113.5</ele>
        <time>2020-11-08T08:40:51.000Z</time>
      </trkpt>
      <trkpt lat="50.51901" lon="3.74514">
        <ele>113.5</ele>
        <time>2020-11-08T08:40:52.000Z</time>
      </trkpt>
      <trkpt lat="50.51896" lon="3.7451">
        <ele>113.18</ele>
        <time>2020-11-08T08:40:53.000Z</time>
      </trkpt>
      <trkpt lat="50.5189" lon="3.74506">
        <ele>113.31</ele>
        <time>2020-11-08T08:40:54.000Z</time>
      </trkpt>
      <trkpt lat="50.51884" lon="3.74501">
        <ele>113.35</ele>
        <time>2020-11-08T08:40:55.000Z</time>
      </trkpt>
      <trkpt lat="50.51878" lon="3.74498">
        <ele>112.97</ele>
        <time>2020-11-08T08:40:56.000Z</time>
      </trkpt>
      <trkpt lat="50.51872" lon="3.74493">
        <ele>112.66</ele>
        <time>2020-11-08T08:40:57.000Z</time>
      </trkpt>
      <trkpt lat="50.51865" lon="3.74489">
        <ele>113.16</ele>
        <time>2020-11-08T08:40:58.000Z</time>
      </trkpt>
      <trkpt lat="50.51857" lon="3.74485">
        <ele>113.52</ele>
        <time>2020-11-08T08:40:59.000Z</time>
      </trkpt>
      <trkpt lat="50.5185" lon="3.74479">
        <ele>113.2</ele>
        <time>2020-11-08T08:41:00.000Z</time>
      </trkpt>
      <trkpt lat="50.51843" lon="3.74475">
        <ele>114.11</ele>
        <time>2020-11-08T08:41:01.000Z</time>
      </trkpt>
      <trkpt lat="50.51835" lon="3.74471">
        <ele>113.87</ele>
        <time>2020-11-08T08:41:02.000Z</time>
      </trkpt>
      <trkpt lat="50.51828" lon="3.74466">
        <ele>115.21</ele>
        <time>2020-11-08T08:41:03.000Z</time>
      </trkpt>
      <trkpt lat="50.51822" lon="3.74463">
        <ele>114.24</ele>
        <time>2020-11-08T08:41:04.000Z</time>
      </trkpt>
      <trkpt lat="50.51815" lon="3.74458">
        <ele>114.54</ele>
        <time>2020-11-08T08:41:05.000Z</time>
      </trkpt>
      <trkpt lat="50.51808" lon="3.74454">
        <ele>114.45</ele>
        <time>2020-11-08T08:41:06.000Z</time>
      </trkpt>
      <trkpt lat="50.51801" lon="3.7445">
        <ele>114.79</ele>
        <time>2020-11-08T08:41:07.000Z</time>
      </trkpt>
      <trkpt lat="50.51794" lon="3.74446">
        <ele>115.44</ele>
        <time>2020-11-08T08:41:08.000Z</time>
      </trkpt>
      <trkpt lat="50.51788" lon="3.74442">
        <ele>115.12</ele>
        <time>2020-11-08T08:41:09.000Z</time>
      </trkpt>
      <trkpt lat="50.51782" lon="3.74437">
        <ele>114.65</ele>
        <time>2020-11-08T08:41:10.000Z</time>
      </trkpt>
      <trkpt lat="50.51776" lon="3.74433">
        <ele>114.81</ele>
        <time>2020-11-08T08:41:11.000Z</time>
      </trkpt>
      <trkpt lat="50.51769" lon="3.7443">
        <ele>114.59</ele>
        <time>2020-11-08T08:41:12.000Z</time>
      </trkpt>
      <trkpt lat="50.51763" lon="3.74425">
        <ele>114.89</ele>
        <time>2020-11-08T08:41:13.000Z</time>
      </trkpt>
      <trkpt lat="50.51756" lon="3.74421">
        <ele>114.85</ele>
        <time>2020-11-08T08:41:14.000Z</time>
      </trkpt>
      <trkpt lat="50.5175" lon="3.74417">
        <ele>114.83</ele>
        <time>2020-11-08T08:41:15.000Z</time>
      </trkpt>
      <trkpt lat="50.51744" lon="3.74413">
        <ele>115.02</ele>
        <time>2020-11-08T08:41:16.000Z</time>
      </trkpt>
      <trkpt lat="50.51738" lon="3.74409">
        <ele>115.54</ele>
        <time>2020-11-08T08:41:17.000Z</time>
      </trkpt>
      <trkpt lat="50.51732" lon="3.74403">
        <ele>114.38</ele>
        <time>2020-11-08T08:41:18.000Z</time>
      </trkpt>
      <trkpt lat="50.51726" lon="3.744">
        <ele>114.73</ele>
        <time>2020-11-08T08:41:19.000Z</time>
      </trkpt>
      <trkpt lat="50.5172" lon="3.74396">
        <ele>115.12</ele>
        <time>2020-11-08T08:41:20.000Z</time>
      </trkpt>
      <trkpt lat="50.51713" lon="3.74392">
        <ele>114.92</ele>
        <time>2020-11-08T08:41:21.000Z</time>
      </trkpt>
      <trkpt lat="50.51707" lon="3.74387">
        <ele>115.14</ele>
        <time>2020-11-08T08:41:22.000Z</time>
      </trkpt>
      <trkpt lat="50.51701" lon="3.74383">
        <ele>115.83</ele>
        <time>2020-11-08T08:41:23.000Z</time>
      </trkpt>
      <trkpt lat="50.51695" lon="3.74379">
        <ele>116.75</ele>
        <time>2020-11-08T08:41:24.000Z</time>
      </trkpt>
      <trkpt lat="50.51688" lon="3.74375">
        <ele>116.19</ele>
        <time>2020-11-08T08:41:25.000Z</time>
      </trkpt>
      <trkpt lat="50.51683" lon="3.7437">
        <ele>115.43</ele>
        <time>2020-11-08T08:41:26.000Z</time>
      </trkpt>
      <trkpt lat="50.51677" lon="3.74365">
        <ele>115.86</ele>
        <time>2020-11-08T08:41:27.000Z</time>
      </trkpt>
      <trkpt lat="50.51671" lon="3.74361">
        <ele>116.11</ele>
        <time>2020-11-08T08:41:28.000Z</time>
      </trkpt>
      <trkpt lat="50.51665" lon="3.74356">
        <ele>116.74</ele>
        <time>2020-11-08T08:41:29.000Z</time>
      </trkpt>
      <trkpt lat="50.51658" lon="3.74352">
        <ele>116.76</ele>
        <time>2020-11-08T08:41:30.000Z</time>
      </trkpt>
      <trkpt lat="50.51653" lon="3.74347">
        <ele>116.4</ele>
        <time>2020-11-08T08:41:31.000Z</time>
      </trkpt>
      <trkpt lat="50.51646" lon="3.74343">
        <ele>116.93</ele>
        <time>2020-11-08T08:41:32.000Z</time>
      </trkpt>
      <trkpt lat="50.5164" lon="3.74339">
        <ele>118.03</ele>
        <time>2020-11-08T08:41:33.000Z</time>
      </trkpt>
      <trkpt lat="50.51633" lon="3.74335">
        <ele>118.47</ele>
        <time>2020-11-08T08:41:34.000Z</time>
      </trkpt>
      <trkpt lat="50.51628" lon="3.74332">
        <ele>117.56</ele>
        <time>2020-11-08T08:41:35.000Z</time>
      </trkpt>
      <trkpt lat="50.51621" lon="3.74328">
        <ele>118.16</ele>
        <time>2020-11-08T08:41:36.000Z</time>
      </trkpt>
      <trkpt lat="50.51614" lon="3.74324">
        <ele>118.37</ele>
        <time>2020-11-08T08:41:37.000Z</time>
      </trkpt>
      <trkpt lat="50.51608" lon="3.74319">
        <ele>118.22</ele>
        <time>2020-11-08T08:41:38.000Z</time>
      </trkpt>
      <trkpt lat="50.51602" lon="3.74315">
        <ele>118.04</ele>
        <time>2020-11-08T08:41:39.000Z</time>
      </trkpt>
      <trkpt lat="50.51595" lon="3.74311">
        <ele>118.21</ele>
        <time>2020-11-08T08:41:40.000Z</time>
      </trkpt>
      <trkpt lat="50.5159" lon="3.74308">
        <ele>117.68</ele>
        <time>2020-11-08T08:41:41.000Z</time>
      </trkpt>
      <trkpt lat="50.51584" lon="3.74304">
        <ele>116.82</ele>
        <time>2020-11-08T08:41:42.000Z</time>
      </trkpt>
      <trkpt lat="50.51577" lon="3.743">
        <ele>116.5</ele>
        <time>2020-11-08T08:41:43.000Z</time>
      </trkpt>
      <trkpt lat="50.51571" lon="3.74296">
        <ele>116.04</ele>
        <time>2020-11-08T08:41:44.000Z</time>
      </trkpt>
      <trkpt lat="50.51565" lon="3.74292">
        <ele>116.35</ele>
        <time>2020-11-08T08:41:45.000Z</time>
      </trkpt>
      <trkpt lat="50.51558" lon="3.74287">
        <ele>116.99</ele>
        <time>2020-11-08T08:41:46.000Z</time>
      </trkpt>
      <trkpt lat="50.51552" lon="3.74283">
        <ele>117.62</ele>
        <time>2020-11-08T08:41:47.000Z</time>
      </trkpt>
      <trkpt lat="50.51547" lon="3.7428">
        <ele>116.78</ele>
        <time>2020-11-08T08:41:48.000Z</time>
      </trkpt>
      <trkpt lat="50.51543" lon="3.74276">
        <ele>115.69</ele>
        <time>2020-11-08T08:41:49.000Z</time>
      </trkpt>
      <trkpt lat="50.51537" lon="3.74273">
        <ele>115.67</ele>
        <time>2020-11-08T08:41:50.000Z</time>
      </trkpt>
      <trkpt lat="50.51533" lon="3.74269">
        <ele>115.67</ele>
        <time>2020-11-08T08:41:51.000Z</time>
      </trkpt>
      <trkpt lat="50.51527" lon="3.74267">
        <ele>115.84</ele>
        <time>2020-11-08T08:41:52.000Z</time>
      </trkpt>
      <trkpt lat="50.51522" lon="3.74266">
        <ele>116.03</ele>
        <time>2020-11-08T08:41:53.000Z</time>
      </trkpt>
      <trkpt lat="50.51517" lon="3.74266">
        <ele>115.63</ele>
        <time>2020-11-08T08:41:54.000Z</time>
      </trkpt>
      <trkpt lat="50.51513" lon="3.74269">
        <ele>115.72</ele>
        <time>2020-11-08T08:41:55.000Z</time>
      </trkpt>
      <trkpt lat="50.51508" lon="3.74271">
        <ele>115.72</ele>
        <time>2020-11-08T08:41:56.000Z</time>
      </trkpt>
      <trkpt lat="50.51501" lon="3.74281">
        <ele>116.48</ele>
        <time>2020-11-08T08:41:58.000Z</time>
      </trkpt>
      <trkpt lat="50.51497" lon="3.74285">
        <ele>116.15</ele>
        <time>2020-11-08T08:41:59.000Z</time>
      </trkpt>
      <trkpt lat="50.51494" lon="3.74291">
        <ele>116.47</ele>
        <time>2020-11-08T08:42:00.000Z</time>
      </trkpt>
      <trkpt lat="50.5149" lon="3.74297">
        <ele>115.73</ele>
        <time>2020-11-08T08:42:01.000Z</time>
      </trkpt>
      <trkpt lat="50.51486" lon="3.74303">
        <ele>116.1</ele>
        <time>2020-11-08T08:42:02.000Z</time>
      </trkpt>
      <trkpt lat="50.51482" lon="3.74309">
        <ele>116.01</ele>
        <time>2020-11-08T08:42:03.000Z</time>
      </trkpt>
      <trkpt lat="50.51478" lon="3.74315">
        <ele>115.34</ele>
        <time>2020-11-08T08:42:04.000Z</time>
      </trkpt>
      <trkpt lat="50.51474" lon="3.74321">
        <ele>116.05</ele>
        <time>2020-11-08T08:42:05.000Z</time>
      </trkpt>
      <trkpt lat="50.5147" lon="3.74327">
        <ele>115.83</ele>
        <time>2020-11-08T08:42:06.000Z</time>
      </trkpt>
      <trkpt lat="50.51466" lon="3.74333">
        <ele>115.54</ele>
        <time>2020-11-08T08:42:07.000Z</time>
      </trkpt>
      <trkpt lat="50.51462" lon="3.74339">
        <ele>115.75</ele>
        <time>2020-11-08T08:42:08.000Z</time>
      </trkpt>
      <trkpt lat="50.51458" lon="3.74345">
        <ele>115.34</ele>
        <time>2020-11-08T08:42:09.000Z</time>
      </trkpt>
      <trkpt lat="50.51454" lon="3.7435">
        <ele>114.95</ele>
        <time>2020-11-08T08:42:10.000Z</time>
      </trkpt>
      <trkpt lat="50.51451" lon="3.74356">
        <ele>115.2</ele>
        <time>2020-11-08T08:42:11.000Z</time>
      </trkpt>
      <trkpt lat="50.51448" lon="3.74364">
        <ele>114.96</ele>
        <time>2020-11-08T08:42:12.000Z</time>
      </trkpt>
      <trkpt lat="50.51444" lon="3.7437">
        <ele>114.35</ele>
        <time>2020-11-08T08:42:13.000Z</time>
      </trkpt>
      <trkpt lat="50.5144" lon="3.74374">
        <ele>113.65</ele>
        <time>2020-11-08T08:42:14.000Z</time>
      </trkpt>
      <trkpt lat="50.51435" lon="3.7438">
        <ele>114.1</ele>
        <time>2020-11-08T08:42:15.000Z</time>
      </trkpt>
      <trkpt lat="50.51431" lon="3.74386">
        <ele>113.87</ele>
        <time>2020-11-08T08:42:16.000Z</time>
      </trkpt>
      <trkpt lat="50.51427" lon="3.74393">
        <ele>114.29</ele>
        <time>2020-11-08T08:42:17.000Z</time>
      </trkpt>
      <trkpt lat="50.51423" lon="3.74398">
        <ele>113.48</ele>
        <time>2020-11-08T08:42:18.000Z</time>
      </trkpt>
      <trkpt lat="50.51419" lon="3.74405">
        <ele>114.67</ele>
        <time>2020-11-08T08:42:19.000Z</time>
      </trkpt>
      <trkpt lat="50.51415" lon="3.74413">
        <ele>115.93</ele>
        <time>2020-11-08T08:42:20.000Z</time>
      </trkpt>
      <trkpt lat="50.51411" lon="3.7442">
        <ele>117.6</ele>
        <time>2020-11-08T08:42:21.000Z</time>
      </trkpt>
      <trkpt lat="50.51408" lon="3.74425">
        <ele>117.36</ele>
        <time>2020-11-08T08:42:22.000Z</time>
      </trkpt>
      <trkpt lat="50.51404" lon="3.74431">
        <ele>116.85</ele>
        <time>2020-11-08T08:42:23.000Z</time>
      </trkpt>
      <trkpt lat="50.51401" lon="3.74437">
        <ele>117.04</ele>
        <time>2020-11-08T08:42:24.000Z</time>
      </trkpt>
      <trkpt lat="50.51396" lon="3.74447">
        <ele>119.47</ele>
        <time>2020-11-08T08:42:25.000Z</time>
      </trkpt>
      <trkpt lat="50.51393" lon="3.74453">
        <ele>119.13</ele>
        <time>2020-11-08T08:42:26.000Z</time>
      </trkpt>
      <trkpt lat="50.51389" lon="3.74459">
        <ele>119.42</ele>
        <time>2020-11-08T08:42:27.000Z</time>
      </trkpt>
      <trkpt lat="50.51386" lon="3.74464">
        <ele>120.33</ele>
        <time>2020-11-08T08:42:28.000Z</time>
      </trkpt>
      <trkpt lat="50.51378" lon="3.74475">
        <ele>120.43</ele>
        <time>2020-11-08T08:42:30.000Z</time>
      </trkpt>
      <trkpt lat="50.51375" lon="3.7448">
        <ele>120.57</ele>
        <time>2020-11-08T08:42:31.000Z</time>
      </trkpt>
      <trkpt lat="50.51372" lon="3.74488">
        <ele>121.82</ele>
        <time>2020-11-08T08:42:32.000Z</time>
      </trkpt>
      <trkpt lat="50.51368" lon="3.74495">
        <ele>121.13</ele>
        <time>2020-11-08T08:42:33.000Z</time>
      </trkpt>
      <trkpt lat="50.51364" lon="3.74499">
        <ele>120.49</ele>
        <time>2020-11-08T08:42:34.000Z</time>
      </trkpt>
      <trkpt lat="50.5136" lon="3.74506">
        <ele>120.69</ele>
        <time>2020-11-08T08:42:35.000Z</time>
      </trkpt>
      <trkpt lat="50.51356" lon="3.74512">
        <ele>121.11</ele>
        <time>2020-11-08T08:42:36.000Z</time>
      </trkpt>
      <trkpt lat="50.5135" lon="3.74522">
        <ele>122.09</ele>
        <time>2020-11-08T08:42:38.000Z</time>
      </trkpt>
      <trkpt lat="50.51344" lon="3.74531">
        <ele>122.31</ele>
        <time>2020-11-08T08:42:40.000Z</time>
      </trkpt>
      <trkpt lat="50.5134" lon="3.74537">
        <ele>121.88</ele>
        <time>2020-11-08T08:42:41.000Z</time>
      </trkpt>
      <trkpt lat="50.51337" lon="3.74543">
        <ele>121.48</ele>
        <time>2020-11-08T08:42:42.000Z</time>
      </trkpt>
      <trkpt lat="50.51332" lon="3.74548">
        <ele>122.23</ele>
        <time>2020-11-08T08:42:43.000Z</time>
      </trkpt>
      <trkpt lat="50.51328" lon="3.74554">
        <ele>121.42</ele>
        <time>2020-11-08T08:42:44.000Z</time>
      </trkpt>
      <trkpt lat="50.51324" lon="3.74563">
        <ele>121.9</ele>
        <time>2020-11-08T08:42:45.000Z</time>
      </trkpt>
      <trkpt lat="50.51321" lon="3.7457">
        <ele>121.96</ele>
        <time>2020-11-08T08:42:46.000Z</time>
      </trkpt>
      <trkpt lat="50.51317" lon="3.74578">
        <ele>122.11</ele>
        <time>2020-11-08T08:42:47.000Z</time>
      </trkpt>
      <trkpt lat="50.51312" lon="3.74584">
        <ele>122.74</ele>
        <time>2020-11-08T08:42:48.000Z</time>
      </trkpt>
      <trkpt lat="50.51309" lon="3.74589">
        <ele>123.09</ele>
        <time>2020-11-08T08:42:49.000Z</time>
      </trkpt>
      <trkpt lat="50.51305" lon="3.74597">
        <ele>122.88</ele>
        <time>2020-11-08T08:42:50.000Z</time>
      </trkpt>
      <trkpt lat="50.513" lon="3.74603">
        <ele>123.34</ele>
        <time>2020-11-08T08:42:51.000Z</time>
      </trkpt>
      <trkpt lat="50.51295" lon="3.74608">
        <ele>123.04</ele>
        <time>2020-11-08T08:42:52.000Z</time>
      </trkpt>
      <trkpt lat="50.5129" lon="3.74617">
        <ele>123.04</ele>
        <time>2020-11-08T08:42:53.000Z</time>
      </trkpt>
      <trkpt lat="50.51285" lon="3.74623">
        <ele>122.84</ele>
        <time>2020-11-08T08:42:54.000Z</time>
      </trkpt>
      <trkpt lat="50.5128" lon="3.74629">
        <ele>122.28</ele>
        <time>2020-11-08T08:42:55.000Z</time>
      </trkpt>
      <trkpt lat="50.51275" lon="3.74636">
        <ele>122.59</ele>
        <time>2020-11-08T08:42:56.000Z</time>
      </trkpt>
      <trkpt lat="50.51272" lon="3.74643">
        <ele>119.76</ele>
        <time>2020-11-08T08:42:57.000Z</time>
      </trkpt>
      <trkpt lat="50.51267" lon="3.7465">
        <ele>120.35</ele>
        <time>2020-11-08T08:42:58.000Z</time>
      </trkpt>
      <trkpt lat="50.51263" lon="3.74658">
        <ele>120.07</ele>
        <time>2020-11-08T08:42:59.000Z</time>
      </trkpt>
      <trkpt lat="50.51259" lon="3.74666">
        <ele>120.46</ele>
        <time>2020-11-08T08:43:00.000Z</time>
      </trkpt>
      <trkpt lat="50.51255" lon="3.74674">
        <ele>119.51</ele>
        <time>2020-11-08T08:43:01.000Z</time>
      </trkpt>
      <trkpt lat="50.51251" lon="3.74682">
        <ele>120.35</ele>
        <time>2020-11-08T08:43:02.000Z</time>
      </trkpt>
      <trkpt lat="50.51248" lon="3.74689">
        <ele>121.16</ele>
        <time>2020-11-08T08:43:03.000Z</time>
      </trkpt>
      <trkpt lat="50.51245" lon="3.74695">
        <ele>121.87</ele>
        <time>2020-11-08T08:43:04.000Z</time>
      </trkpt>
      <trkpt lat="50.5124" lon="3.74704">
        <ele>121.79</ele>
        <time>2020-11-08T08:43:06.000Z</time>
      </trkpt>
      <trkpt lat="50.51236" lon="3.7471">
        <ele>121.91</ele>
        <time>2020-11-08T08:43:08.000Z</time>
      </trkpt>
      <trkpt lat="50.5123" lon="3.74711">
        <ele>121.74</ele>
        <time>2020-11-08T08:43:10.000Z</time>
      </trkpt>
      <trkpt lat="50.51224" lon="3.74708">
        <ele>121.29</ele>
        <time>2020-11-08T08:43:12.000Z</time>
      </trkpt>
      <trkpt lat="50.51221" lon="3.74697">
        <ele>121.18</ele>
        <time>2020-11-08T08:43:14.000Z</time>
      </trkpt>
      <trkpt lat="50.5122" lon="3.74683">
        <ele>121.19</ele>
        <time>2020-11-08T08:43:16.000Z</time>
      </trkpt>
      <trkpt lat="50.51219" lon="3.74676">
        <ele>121.13</ele>
        <time>2020-11-08T08:43:17.000Z</time>
      </trkpt>
      <trkpt lat="50.51218" lon="3.74669">
        <ele>120.99</ele>
        <time>2020-11-08T08:43:18.000Z</time>
      </trkpt>
      <trkpt lat="50.51217" lon="3.74661">
        <ele>120.91</ele>
        <time>2020-11-08T08:43:19.000Z</time>
      </trkpt>
      <trkpt lat="50.51217" lon="3.74653">
        <ele>120.78</ele>
        <time>2020-11-08T08:43:20.000Z</time>
      </trkpt>
      <trkpt lat="50.51216" lon="3.74645">
        <ele>120.68</ele>
        <time>2020-11-08T08:43:21.000Z</time>
      </trkpt>
      <trkpt lat="50.51215" lon="3.74637">
        <ele>120.54</ele>
        <time>2020-11-08T08:43:22.000Z</time>
      </trkpt>
      <trkpt lat="50.51214" lon="3.74624">
        <ele>120.57</ele>
        <time>2020-11-08T08:43:24.000Z</time>
      </trkpt>
      <trkpt lat="50.51213" lon="3.74611">
        <ele>120.37</ele>
        <time>2020-11-08T08:43:26.000Z</time>
      </trkpt>
      <trkpt lat="50.51212" lon="3.74599">
        <ele>119.9</ele>
        <time>2020-11-08T08:43:28.000Z</time>
      </trkpt>
      <trkpt lat="50.5121" lon="3.74588">
        <ele>119.65</ele>
        <time>2020-11-08T08:43:30.000Z</time>
      </trkpt>
      <trkpt lat="50.51209" lon="3.74576">
        <ele>119.26</ele>
        <time>2020-11-08T08:43:32.000Z</time>
      </trkpt>
      <trkpt lat="50.51208" lon="3.74564">
        <ele>118.61</ele>
        <time>2020-11-08T08:43:34.000Z</time>
      </trkpt>
      <trkpt lat="50.51207" lon="3.74552">
        <ele>118.23</ele>
        <time>2020-11-08T08:43:36.000Z</time>
      </trkpt>
      <trkpt lat="50.51206" lon="3.74541">
        <ele>118.11</ele>
        <time>2020-11-08T08:43:38.000Z</time>
      </trkpt>
      <trkpt lat="50.51205" lon="3.74529">
        <ele>118.59</ele>
        <time>2020-11-08T08:43:40.000Z</time>
      </trkpt>
      <trkpt lat="50.51203" lon="3.74518">
        <ele>118.56</ele>
        <time>2020-11-08T08:43:42.000Z</time>
      </trkpt>
      <trkpt lat="50.51201" lon="3.74507">
        <ele>118.67</ele>
        <time>2020-11-08T08:43:44.000Z</time>
      </trkpt>
      <trkpt lat="50.512" lon="3.74495">
        <ele>118.63</ele>
        <time>2020-11-08T08:43:46.000Z</time>
      </trkpt>
      <trkpt lat="50.51198" lon="3.74483">
        <ele>118.8</ele>
        <time>2020-11-08T08:43:48.000Z</time>
      </trkpt>
      <trkpt lat="50.51196" lon="3.74471">
        <ele>118.82</ele>
        <time>2020-11-08T08:43:50.000Z</time>
      </trkpt>
      <trkpt lat="50.51195" lon="3.74461">
        <ele>118.94</ele>
        <time>2020-11-08T08:43:52.000Z</time>
      </trkpt>
      <trkpt lat="50.51194" lon="3.74451">
        <ele>119.09</ele>
        <time>2020-11-08T08:43:54.000Z</time>
      </trkpt>
      <trkpt lat="50.51194" lon="3.74439">
        <ele>116.21</ele>
        <time>2020-11-08T08:43:56.000Z</time>
      </trkpt>
      <trkpt lat="50.51193" lon="3.74427">
        <ele>115.71</ele>
        <time>2020-11-08T08:43:58.000Z</time>
      </trkpt>
      <trkpt lat="50.51192" lon="3.74416">
        <ele>116.37</ele>
        <time>2020-11-08T08:44:00.000Z</time>
      </trkpt>
      <trkpt lat="50.5119" lon="3.74402">
        <ele>115.08</ele>
        <time>2020-11-08T08:44:02.000Z</time>
      </trkpt>
      <trkpt lat="50.51189" lon="3.74394">
        <ele>115.16</ele>
        <time>2020-11-08T08:44:03.000Z</time>
      </trkpt>
      <trkpt lat="50.51187" lon="3.74379">
        <ele>114.71</ele>
        <time>2020-11-08T08:44:05.000Z</time>
      </trkpt>
      <trkpt lat="50.51186" lon="3.74372">
        <ele>115.62</ele>
        <time>2020-11-08T08:44:06.000Z</time>
      </trkpt>
      <trkpt lat="50.51185" lon="3.74365">
        <ele>115.81</ele>
        <time>2020-11-08T08:44:07.000Z</time>
      </trkpt>
      <trkpt lat="50.51184" lon="3.74357">
        <ele>115.72</ele>
        <time>2020-11-08T08:44:08.000Z</time>
      </trkpt>
      <trkpt lat="50.51183" lon="3.7435">
        <ele>115.99</ele>
        <time>2020-11-08T08:44:09.000Z</time>
      </trkpt>
      <trkpt lat="50.51183" lon="3.74342">
        <ele>115.79</ele>
        <time>2020-11-08T08:44:10.000Z</time>
      </trkpt>
      <trkpt lat="50.51182" lon="3.74335">
        <ele>116</ele>
        <time>2020-11-08T08:44:11.000Z</time>
      </trkpt>
      <trkpt lat="50.51181" lon="3.74328">
        <ele>115.96</ele>
        <time>2020-11-08T08:44:12.000Z</time>
      </trkpt>
      <trkpt lat="50.5118" lon="3.74316">
        <ele>116.61</ele>
        <time>2020-11-08T08:44:14.000Z</time>
      </trkpt>
      <trkpt lat="50.51179" lon="3.74309">
        <ele>116.74</ele>
        <time>2020-11-08T08:44:15.000Z</time>
      </trkpt>
      <trkpt lat="50.51179" lon="3.74302">
        <ele>116.93</ele>
        <time>2020-11-08T08:44:16.000Z</time>
      </trkpt>
      <trkpt lat="50.51177" lon="3.74288">
        <ele>117.36</ele>
        <time>2020-11-08T08:44:18.000Z</time>
      </trkpt>
      <trkpt lat="50.51176" lon="3.74281">
        <ele>116.72</ele>
        <time>2020-11-08T08:44:19.000Z</time>
      </trkpt>
      <trkpt lat="50.51175" lon="3.74273">
        <ele>116.41</ele>
        <time>2020-11-08T08:44:20.000Z</time>
      </trkpt>
      <trkpt lat="50.51174" lon="3.74258">
        <ele>114.76</ele>
        <time>2020-11-08T08:44:22.000Z</time>
      </trkpt>
      <trkpt lat="50.51173" lon="3.74251">
        <ele>114.83</ele>
        <time>2020-11-08T08:44:23.000Z</time>
      </trkpt>
      <trkpt lat="50.51173" lon="3.74243">
        <ele>114.22</ele>
        <time>2020-11-08T08:44:24.000Z</time>
      </trkpt>
      <trkpt lat="50.51172" lon="3.74229">
        <ele>114.37</ele>
        <time>2020-11-08T08:44:26.000Z</time>
      </trkpt>
      <trkpt lat="50.51171" lon="3.74217">
        <ele>115.26</ele>
        <time>2020-11-08T08:44:28.000Z</time>
      </trkpt>
      <trkpt lat="50.51169" lon="3.74205">
        <ele>115.81</ele>
        <time>2020-11-08T08:44:30.000Z</time>
      </trkpt>
      <trkpt lat="50.51168" lon="3.74194">
        <ele>116.41</ele>
        <time>2020-11-08T08:44:32.000Z</time>
      </trkpt>
      <trkpt lat="50.51167" lon="3.74181">
        <ele>115.27</ele>
        <time>2020-11-08T08:44:34.000Z</time>
      </trkpt>
      <trkpt lat="50.51165" lon="3.74166">
        <ele>114.9</ele>
        <time>2020-11-08T08:44:36.000Z</time>
      </trkpt>
      <trkpt lat="50.51165" lon="3.74159">
        <ele>114.42</ele>
        <time>2020-11-08T08:44:37.000Z</time>
      </trkpt>
      <trkpt lat="50.51162" lon="3.74146">
        <ele>115.23</ele>
        <time>2020-11-08T08:44:39.000Z</time>
      </trkpt>
      <trkpt lat="50.51161" lon="3.74138">
        <ele>114.87</ele>
        <time>2020-11-08T08:44:40.000Z</time>
      </trkpt>
      <trkpt lat="50.5116" lon="3.7413">
        <ele>113.7</ele>
        <time>2020-11-08T08:44:41.000Z</time>
      </trkpt>
      <trkpt lat="50.5116" lon="3.74116">
        <ele>112.6</ele>
        <time>2020-11-08T08:44:43.000Z</time>
      </trkpt>
      <trkpt lat="50.51159" lon="3.74108">
        <ele>113.6</ele>
        <time>2020-11-08T08:44:44.000Z</time>
      </trkpt>
      <trkpt lat="50.51158" lon="3.741">
        <ele>113.23</ele>
        <time>2020-11-08T08:44:45.000Z</time>
      </trkpt>
      <trkpt lat="50.51156" lon="3.74087">
        <ele>113.01</ele>
        <time>2020-11-08T08:44:47.000Z</time>
      </trkpt>
      <trkpt lat="50.51155" lon="3.74079">
        <ele>112.57</ele>
        <time>2020-11-08T08:44:48.000Z</time>
      </trkpt>
      <trkpt lat="50.51154" lon="3.74072">
        <ele>112.49</ele>
        <time>2020-11-08T08:44:49.000Z</time>
      </trkpt>
      <trkpt lat="50.51153" lon="3.74063">
        <ele>112.44</ele>
        <time>2020-11-08T08:44:50.000Z</time>
      </trkpt>
      <trkpt lat="50.51152" lon="3.74055">
        <ele>111.69</ele>
        <time>2020-11-08T08:44:51.000Z</time>
      </trkpt>
      <trkpt lat="50.5115" lon="3.74046">
        <ele>111.91</ele>
        <time>2020-11-08T08:44:52.000Z</time>
      </trkpt>
      <trkpt lat="50.51149" lon="3.74038">
        <ele>112.46</ele>
        <time>2020-11-08T08:44:53.000Z</time>
      </trkpt>
      <trkpt lat="50.51147" lon="3.74029">
        <ele>112.44</ele>
        <time>2020-11-08T08:44:54.000Z</time>
      </trkpt>
      <trkpt lat="50.51146" lon="3.74022">
        <ele>112.47</ele>
        <time>2020-11-08T08:44:55.000Z</time>
      </trkpt>
      <trkpt lat="50.51144" lon="3.74014">
        <ele>113.2</ele>
        <time>2020-11-08T08:44:56.000Z</time>
      </trkpt>
      <trkpt lat="50.51143" lon="3.74004">
        <ele>113.43</ele>
        <time>2020-11-08T08:44:57.000Z</time>
      </trkpt>
      <trkpt lat="50.51142" lon="3.73994">
        <ele>112.43</ele>
        <time>2020-11-08T08:44:58.000Z</time>
      </trkpt>
      <trkpt lat="50.51139" lon="3.73984">
        <ele>112.03</ele>
        <time>2020-11-08T08:44:59.000Z</time>
      </trkpt>
      <trkpt lat="50.51137" lon="3.73975">
        <ele>111.96</ele>
        <time>2020-11-08T08:45:00.000Z</time>
      </trkpt>
      <trkpt lat="50.51134" lon="3.73966">
        <ele>112.11</ele>
        <time>2020-11-08T08:45:01.000Z</time>
      </trkpt>
      <trkpt lat="50.51131" lon="3.73957">
        <ele>111.79</ele>
        <time>2020-11-08T08:45:02.000Z</time>
      </trkpt>
      <trkpt lat="50.51129" lon="3.73948">
        <ele>111.74</ele>
        <time>2020-11-08T08:45:03.000Z</time>
      </trkpt>
      <trkpt lat="50.51126" lon="3.73939">
        <ele>111.73</ele>
        <time>2020-11-08T08:45:04.000Z</time>
      </trkpt>
      <trkpt lat="50.51123" lon="3.73929">
        <ele>112.39</ele>
        <time>2020-11-08T08:45:05.000Z</time>
      </trkpt>
      <trkpt lat="50.51119" lon="3.73919">
        <ele>112.04</ele>
        <time>2020-11-08T08:45:06.000Z</time>
      </trkpt>
      <trkpt lat="50.51116" lon="3.7391">
        <ele>112.27</ele>
        <time>2020-11-08T08:45:07.000Z</time>
      </trkpt>
      <trkpt lat="50.51114" lon="3.73901">
        <ele>112.01</ele>
        <time>2020-11-08T08:45:08.000Z</time>
      </trkpt>
      <trkpt lat="50.51111" lon="3.73892">
        <ele>112.44</ele>
        <time>2020-11-08T08:45:09.000Z</time>
      </trkpt>
      <trkpt lat="50.51109" lon="3.73882">
        <ele>112.01</ele>
        <time>2020-11-08T08:45:10.000Z</time>
      </trkpt>
      <trkpt lat="50.51106" lon="3.73873">
        <ele>111.8</ele>
        <time>2020-11-08T08:45:11.000Z</time>
      </trkpt>
      <trkpt lat="50.51104" lon="3.73864">
        <ele>111.25</ele>
        <time>2020-11-08T08:45:12.000Z</time>
      </trkpt>
      <trkpt lat="50.51101" lon="3.73854">
        <ele>110.42</ele>
        <time>2020-11-08T08:45:13.000Z</time>
      </trkpt>
      <trkpt lat="50.51099" lon="3.73845">
        <ele>109.79</ele>
        <time>2020-11-08T08:45:14.000Z</time>
      </trkpt>
      <trkpt lat="50.51096" lon="3.73836">
        <ele>111.01</ele>
        <time>2020-11-08T08:45:15.000Z</time>
      </trkpt>
      <trkpt lat="50.51093" lon="3.73829">
        <ele>111</ele>
        <time>2020-11-08T08:45:16.000Z</time>
      </trkpt>
      <trkpt lat="50.5109" lon="3.73819">
        <ele>111.18</ele>
        <time>2020-11-08T08:45:17.000Z</time>
      </trkpt>
      <trkpt lat="50.51087" lon="3.73809">
        <ele>111.01</ele>
        <time>2020-11-08T08:45:18.000Z</time>
      </trkpt>
      <trkpt lat="50.51085" lon="3.73799">
        <ele>109.98</ele>
        <time>2020-11-08T08:45:19.000Z</time>
      </trkpt>
      <trkpt lat="50.51083" lon="3.7379">
        <ele>109.21</ele>
        <time>2020-11-08T08:45:20.000Z</time>
      </trkpt>
      <trkpt lat="50.5108" lon="3.73781">
        <ele>108.48</ele>
        <time>2020-11-08T08:45:21.000Z</time>
      </trkpt>
      <trkpt lat="50.51077" lon="3.73772">
        <ele>108.69</ele>
        <time>2020-11-08T08:45:22.000Z</time>
      </trkpt>
      <trkpt lat="50.51075" lon="3.73762">
        <ele>108.35</ele>
        <time>2020-11-08T08:45:23.000Z</time>
      </trkpt>
      <trkpt lat="50.51072" lon="3.73753">
        <ele>108.49</ele>
        <time>2020-11-08T08:45:24.000Z</time>
      </trkpt>
      <trkpt lat="50.5107" lon="3.73745">
        <ele>108.58</ele>
        <time>2020-11-08T08:45:25.000Z</time>
      </trkpt>
      <trkpt lat="50.51067" lon="3.73735">
        <ele>108.08</ele>
        <time>2020-11-08T08:45:26.000Z</time>
      </trkpt>
      <trkpt lat="50.51064" lon="3.73727">
        <ele>108.21</ele>
        <time>2020-11-08T08:45:27.000Z</time>
      </trkpt>
      <trkpt lat="50.51062" lon="3.73718">
        <ele>108.3</ele>
        <time>2020-11-08T08:45:28.000Z</time>
      </trkpt>
      <trkpt lat="50.51059" lon="3.73708">
        <ele>107.91</ele>
        <time>2020-11-08T08:45:29.000Z</time>
      </trkpt>
      <trkpt lat="50.51056" lon="3.73699">
        <ele>107.75</ele>
        <time>2020-11-08T08:45:30.000Z</time>
      </trkpt>
      <trkpt lat="50.51053" lon="3.73689">
        <ele>108.11</ele>
        <time>2020-11-08T08:45:31.000Z</time>
      </trkpt>
      <trkpt lat="50.51051" lon="3.73679">
        <ele>105.83</ele>
        <time>2020-11-08T08:45:33.000Z</time>
      </trkpt>
      <trkpt lat="50.51048" lon="3.7367">
        <ele>106.49</ele>
        <time>2020-11-08T08:45:35.000Z</time>
      </trkpt>
      <trkpt lat="50.51046" lon="3.73662">
        <ele>108.36</ele>
        <time>2020-11-08T08:45:37.000Z</time>
      </trkpt>
      <trkpt lat="50.5104" lon="3.73659">
        <ele>107.69</ele>
        <time>2020-11-08T08:45:40.000Z</time>
      </trkpt>
      <trkpt lat="50.51036" lon="3.73665">
        <ele>107.16</ele>
        <time>2020-11-08T08:45:42.000Z</time>
      </trkpt>
      <trkpt lat="50.51037" lon="3.73675">
        <ele>107.65</ele>
        <time>2020-11-08T08:45:44.000Z</time>
      </trkpt>
      <trkpt lat="50.51037" lon="3.73685">
        <ele>105.72</ele>
        <time>2020-11-08T08:45:46.000Z</time>
      </trkpt>
      <trkpt lat="50.51032" lon="3.73691">
        <ele>106.31</ele>
        <time>2020-11-08T08:45:47.000Z</time>
      </trkpt>
      <trkpt lat="50.51028" lon="3.73697">
        <ele>106.53</ele>
        <time>2020-11-08T08:45:48.000Z</time>
      </trkpt>
      <trkpt lat="50.51024" lon="3.73703">
        <ele>107.12</ele>
        <time>2020-11-08T08:45:49.000Z</time>
      </trkpt>
      <trkpt lat="50.51019" lon="3.73708">
        <ele>107.58</ele>
        <time>2020-11-08T08:45:50.000Z</time>
      </trkpt>
      <trkpt lat="50.51015" lon="3.73713">
        <ele>107.13</ele>
        <time>2020-11-08T08:45:51.000Z</time>
      </trkpt>
      <trkpt lat="50.51011" lon="3.73721">
        <ele>107.86</ele>
        <time>2020-11-08T08:45:52.000Z</time>
      </trkpt>
      <trkpt lat="50.51005" lon="3.73728">
        <ele>107.71</ele>
        <time>2020-11-08T08:45:53.000Z</time>
      </trkpt>
      <trkpt lat="50.51" lon="3.73735">
        <ele>107.72</ele>
        <time>2020-11-08T08:45:54.000Z</time>
      </trkpt>
      <trkpt lat="50.50995" lon="3.73741">
        <ele>108.05</ele>
        <time>2020-11-08T08:45:55.000Z</time>
      </trkpt>
      <trkpt lat="50.5099" lon="3.73748">
        <ele>108.79</ele>
        <time>2020-11-08T08:45:56.000Z</time>
      </trkpt>
      <trkpt lat="50.50985" lon="3.73755">
        <ele>109.35</ele>
        <time>2020-11-08T08:45:57.000Z</time>
      </trkpt>
      <trkpt lat="50.50982" lon="3.73761">
        <ele>109.01</ele>
        <time>2020-11-08T08:45:58.000Z</time>
      </trkpt>
      <trkpt lat="50.50976" lon="3.73768">
        <ele>108.83</ele>
        <time>2020-11-08T08:45:59.000Z</time>
      </trkpt>
      <trkpt lat="50.50971" lon="3.73775">
        <ele>109.15</ele>
        <time>2020-11-08T08:46:00.000Z</time>
      </trkpt>
      <trkpt lat="50.50967" lon="3.7378">
        <ele>108.91</ele>
        <time>2020-11-08T08:46:01.000Z</time>
      </trkpt>
      <trkpt lat="50.50962" lon="3.73788">
        <ele>108.87</ele>
        <time>2020-11-08T08:46:02.000Z</time>
      </trkpt>
      <trkpt lat="50.50958" lon="3.73793">
        <ele>109.25</ele>
        <time>2020-11-08T08:46:03.000Z</time>
      </trkpt>
      <trkpt lat="50.50953" lon="3.73802">
        <ele>109.86</ele>
        <time>2020-11-08T08:46:04.000Z</time>
      </trkpt>
      <trkpt lat="50.50948" lon="3.73809">
        <ele>110.73</ele>
        <time>2020-11-08T08:46:05.000Z</time>
      </trkpt>
      <trkpt lat="50.50943" lon="3.73816">
        <ele>110.96</ele>
        <time>2020-11-08T08:46:06.000Z</time>
      </trkpt>
      <trkpt lat="50.50938" lon="3.73823">
        <ele>111.34</ele>
        <time>2020-11-08T08:46:07.000Z</time>
      </trkpt>
      <trkpt lat="50.50933" lon="3.73829">
        <ele>111.27</ele>
        <time>2020-11-08T08:46:08.000Z</time>
      </trkpt>
      <trkpt lat="50.50928" lon="3.73837">
        <ele>112.17</ele>
        <time>2020-11-08T08:46:09.000Z</time>
      </trkpt>
      <trkpt lat="50.50924" lon="3.73845">
        <ele>112.01</ele>
        <time>2020-11-08T08:46:10.000Z</time>
      </trkpt>
      <trkpt lat="50.50919" lon="3.73852">
        <ele>112.53</ele>
        <time>2020-11-08T08:46:11.000Z</time>
      </trkpt>
      <trkpt lat="50.50913" lon="3.73859">
        <ele>112.42</ele>
        <time>2020-11-08T08:46:12.000Z</time>
      </trkpt>
      <trkpt lat="50.50908" lon="3.73865">
        <ele>112.02</ele>
        <time>2020-11-08T08:46:13.000Z</time>
      </trkpt>
      <trkpt lat="50.50903" lon="3.73872">
        <ele>112.39</ele>
        <time>2020-11-08T08:46:14.000Z</time>
      </trkpt>
      <trkpt lat="50.50898" lon="3.73879">
        <ele>112.71</ele>
        <time>2020-11-08T08:46:15.000Z</time>
      </trkpt>
      <trkpt lat="50.50893" lon="3.73886">
        <ele>112.72</ele>
        <time>2020-11-08T08:46:16.000Z</time>
      </trkpt>
      <trkpt lat="50.50888" lon="3.73893">
        <ele>112.71</ele>
        <time>2020-11-08T08:46:17.000Z</time>
      </trkpt>
      <trkpt lat="50.50884" lon="3.739">
        <ele>112.64</ele>
        <time>2020-11-08T08:46:18.000Z</time>
      </trkpt>
      <trkpt lat="50.5088" lon="3.73906">
        <ele>112.97</ele>
        <time>2020-11-08T08:46:19.000Z</time>
      </trkpt>
      <trkpt lat="50.50874" lon="3.73913">
        <ele>113.29</ele>
        <time>2020-11-08T08:46:20.000Z</time>
      </trkpt>
      <trkpt lat="50.50869" lon="3.73919">
        <ele>113.1</ele>
        <time>2020-11-08T08:46:21.000Z</time>
      </trkpt>
      <trkpt lat="50.50864" lon="3.73927">
        <ele>113.62</ele>
        <time>2020-11-08T08:46:22.000Z</time>
      </trkpt>
      <trkpt lat="50.50858" lon="3.73934">
        <ele>113.18</ele>
        <time>2020-11-08T08:46:23.000Z</time>
      </trkpt>
      <trkpt lat="50.50854" lon="3.73941">
        <ele>113.18</ele>
        <time>2020-11-08T08:46:24.000Z</time>
      </trkpt>
      <trkpt lat="50.50849" lon="3.73947">
        <ele>114.07</ele>
        <time>2020-11-08T08:46:25.000Z</time>
      </trkpt>
      <trkpt lat="50.50844" lon="3.73955">
        <ele>115.04</ele>
        <time>2020-11-08T08:46:26.000Z</time>
      </trkpt>
      <trkpt lat="50.50839" lon="3.73962">
        <ele>115.69</ele>
        <time>2020-11-08T08:46:27.000Z</time>
      </trkpt>
      <trkpt lat="50.50834" lon="3.7397">
        <ele>116.98</ele>
        <time>2020-11-08T08:46:28.000Z</time>
      </trkpt>
      <trkpt lat="50.5083" lon="3.73976">
        <ele>117.29</ele>
        <time>2020-11-08T08:46:29.000Z</time>
      </trkpt>
      <trkpt lat="50.50824" lon="3.73982">
        <ele>117.63</ele>
        <time>2020-11-08T08:46:30.000Z</time>
      </trkpt>
      <trkpt lat="50.5082" lon="3.73989">
        <ele>118.08</ele>
        <time>2020-11-08T08:46:31.000Z</time>
      </trkpt>
      <trkpt lat="50.50815" lon="3.73996">
        <ele>118.98</ele>
        <time>2020-11-08T08:46:32.000Z</time>
      </trkpt>
      <trkpt lat="50.5081" lon="3.74002">
        <ele>119.21</ele>
        <time>2020-11-08T08:46:33.000Z</time>
      </trkpt>
      <trkpt lat="50.50807" lon="3.74007">
        <ele>118.57</ele>
        <time>2020-11-08T08:46:34.000Z</time>
      </trkpt>
      <trkpt lat="50.50802" lon="3.74015">
        <ele>118.94</ele>
        <time>2020-11-08T08:46:35.000Z</time>
      </trkpt>
      <trkpt lat="50.50797" lon="3.7402">
        <ele>118.86</ele>
        <time>2020-11-08T08:46:36.000Z</time>
      </trkpt>
      <trkpt lat="50.50793" lon="3.74024">
        <ele>118.95</ele>
        <time>2020-11-08T08:46:37.000Z</time>
      </trkpt>
      <trkpt lat="50.50789" lon="3.74031">
        <ele>119.95</ele>
        <time>2020-11-08T08:46:38.000Z</time>
      </trkpt>
      <trkpt lat="50.50785" lon="3.74036">
        <ele>119.56</ele>
        <time>2020-11-08T08:46:39.000Z</time>
      </trkpt>
      <trkpt lat="50.50784" lon="3.74047">
        <ele>119.68</ele>
        <time>2020-11-08T08:46:41.000Z</time>
      </trkpt>
      <trkpt lat="50.50787" lon="3.74054">
        <ele>119.55</ele>
        <time>2020-11-08T08:46:42.000Z</time>
      </trkpt>
      <trkpt lat="50.50789" lon="3.74062">
        <ele>119.58</ele>
        <time>2020-11-08T08:46:43.000Z</time>
      </trkpt>
      <trkpt lat="50.50791" lon="3.74069">
        <ele>119.9</ele>
        <time>2020-11-08T08:46:44.000Z</time>
      </trkpt>
      <trkpt lat="50.50794" lon="3.74079">
        <ele>120.34</ele>
        <time>2020-11-08T08:46:45.000Z</time>
      </trkpt>
      <trkpt lat="50.50797" lon="3.74089">
        <ele>120.65</ele>
        <time>2020-11-08T08:46:46.000Z</time>
      </trkpt>
      <trkpt lat="50.50799" lon="3.741">
        <ele>120.7</ele>
        <time>2020-11-08T08:46:47.000Z</time>
      </trkpt>
      <trkpt lat="50.50802" lon="3.7411">
        <ele>120.53</ele>
        <time>2020-11-08T08:46:48.000Z</time>
      </trkpt>
      <trkpt lat="50.50804" lon="3.74119">
        <ele>120.9</ele>
        <time>2020-11-08T08:46:49.000Z</time>
      </trkpt>
      <trkpt lat="50.50808" lon="3.74131">
        <ele>120.29</ele>
        <time>2020-11-08T08:46:50.000Z</time>
      </trkpt>
      <trkpt lat="50.5081" lon="3.74143">
        <ele>120.08</ele>
        <time>2020-11-08T08:46:51.000Z</time>
      </trkpt>
      <trkpt lat="50.50813" lon="3.74155">
        <ele>120.4</ele>
        <time>2020-11-08T08:46:52.000Z</time>
      </trkpt>
      <trkpt lat="50.50816" lon="3.74166">
        <ele>120.86</ele>
        <time>2020-11-08T08:46:53.000Z</time>
      </trkpt>
      <trkpt lat="50.50819" lon="3.74179">
        <ele>120.81</ele>
        <time>2020-11-08T08:46:54.000Z</time>
      </trkpt>
      <trkpt lat="50.50822" lon="3.7419">
        <ele>121.99</ele>
        <time>2020-11-08T08:46:55.000Z</time>
      </trkpt>
      <trkpt lat="50.50825" lon="3.74201">
        <ele>122.55</ele>
        <time>2020-11-08T08:46:56.000Z</time>
      </trkpt>
      <trkpt lat="50.50827" lon="3.74211">
        <ele>122.91</ele>
        <time>2020-11-08T08:46:57.000Z</time>
      </trkpt>
      <trkpt lat="50.50828" lon="3.74222">
        <ele>122.89</ele>
        <time>2020-11-08T08:46:58.000Z</time>
      </trkpt>
      <trkpt lat="50.50828" lon="3.74232">
        <ele>123.11</ele>
        <time>2020-11-08T08:46:59.000Z</time>
      </trkpt>
      <trkpt lat="50.50826" lon="3.7424">
        <ele>122.66</ele>
        <time>2020-11-08T08:47:00.000Z</time>
      </trkpt>
      <trkpt lat="50.50823" lon="3.74247">
        <ele>122.27</ele>
        <time>2020-11-08T08:47:01.000Z</time>
      </trkpt>
      <trkpt lat="50.50816" lon="3.74251">
        <ele>121.97</ele>
        <time>2020-11-08T08:47:03.000Z</time>
      </trkpt>
      <trkpt lat="50.50809" lon="3.74255">
        <ele>121.65</ele>
        <time>2020-11-08T08:47:05.000Z</time>
      </trkpt>
      <trkpt lat="50.50803" lon="3.74259">
        <ele>122.03</ele>
        <time>2020-11-08T08:47:07.000Z</time>
      </trkpt>
      <trkpt lat="50.50797" lon="3.74264">
        <ele>121.87</ele>
        <time>2020-11-08T08:47:09.000Z</time>
      </trkpt>
      <trkpt lat="50.50791" lon="3.74268">
        <ele>121.57</ele>
        <time>2020-11-08T08:47:11.000Z</time>
      </trkpt>
      <trkpt lat="50.50786" lon="3.74272">
        <ele>121.93</ele>
        <time>2020-11-08T08:47:13.000Z</time>
      </trkpt>
      <trkpt lat="50.50779" lon="3.74277">
        <ele>122.46</ele>
        <time>2020-11-08T08:47:15.000Z</time>
      </trkpt>
      <trkpt lat="50.50773" lon="3.74282">
        <ele>122.95</ele>
        <time>2020-11-08T08:47:17.000Z</time>
      </trkpt>
      <trkpt lat="50.50767" lon="3.74286">
        <ele>122.89</ele>
        <time>2020-11-08T08:47:19.000Z</time>
      </trkpt>
      <trkpt lat="50.5076" lon="3.74291">
        <ele>123.48</ele>
        <time>2020-11-08T08:47:21.000Z</time>
      </trkpt>
      <trkpt lat="50.50752" lon="3.74296">
        <ele>123.72</ele>
        <time>2020-11-08T08:47:23.000Z</time>
      </trkpt>
      <trkpt lat="50.50743" lon="3.74301">
        <ele>123.69</ele>
        <time>2020-11-08T08:47:25.000Z</time>
      </trkpt>
      <trkpt lat="50.50736" lon="3.74306">
        <ele>122.88</ele>
        <time>2020-11-08T08:47:27.000Z</time>
      </trkpt>
      <trkpt lat="50.50732" lon="3.74309">
        <ele>122.44</ele>
        <time>2020-11-08T08:47:28.000Z</time>
      </trkpt>
      <trkpt lat="50.50724" lon="3.74314">
        <ele>122.51</ele>
        <time>2020-11-08T08:47:30.000Z</time>
      </trkpt>
      <trkpt lat="50.50716" lon="3.74319">
        <ele>122.75</ele>
        <time>2020-11-08T08:47:32.000Z</time>
      </trkpt>
      <trkpt lat="50.50711" lon="3.74322">
        <ele>123.07</ele>
        <time>2020-11-08T08:47:33.000Z</time>
      </trkpt>
      <trkpt lat="50.50707" lon="3.74325">
        <ele>123.72</ele>
        <time>2020-11-08T08:47:34.000Z</time>
      </trkpt>
      <trkpt lat="50.50702" lon="3.74329">
        <ele>123.62</ele>
        <time>2020-11-08T08:47:35.000Z</time>
      </trkpt>
      <trkpt lat="50.50698" lon="3.74332">
        <ele>124.21</ele>
        <time>2020-11-08T08:47:36.000Z</time>
      </trkpt>
      <trkpt lat="50.50693" lon="3.74337">
        <ele>124.98</ele>
        <time>2020-11-08T08:47:37.000Z</time>
      </trkpt>
      <trkpt lat="50.50689" lon="3.74339">
        <ele>125.36</ele>
        <time>2020-11-08T08:47:38.000Z</time>
      </trkpt>
      <trkpt lat="50.5068" lon="3.74346">
        <ele>125.36</ele>
        <time>2020-11-08T08:47:40.000Z</time>
      </trkpt>
      <trkpt lat="50.50676" lon="3.74349">
        <ele>125.44</ele>
        <time>2020-11-08T08:47:41.000Z</time>
      </trkpt>
      <trkpt lat="50.50671" lon="3.74353">
        <ele>126.18</ele>
        <time>2020-11-08T08:47:42.000Z</time>
      </trkpt>
      <trkpt lat="50.50667" lon="3.74357">
        <ele>126.61</ele>
        <time>2020-11-08T08:47:43.000Z</time>
      </trkpt>
      <trkpt lat="50.50662" lon="3.7436">
        <ele>126.31</ele>
        <time>2020-11-08T08:47:44.000Z</time>
      </trkpt>
      <trkpt lat="50.50658" lon="3.74364">
        <ele>126.3</ele>
        <time>2020-11-08T08:47:45.000Z</time>
      </trkpt>
      <trkpt lat="50.50653" lon="3.74367">
        <ele>126.6</ele>
        <time>2020-11-08T08:47:46.000Z</time>
      </trkpt>
      <trkpt lat="50.50648" lon="3.7437">
        <ele>126.58</ele>
        <time>2020-11-08T08:47:47.000Z</time>
      </trkpt>
      <trkpt lat="50.50643" lon="3.74373">
        <ele>126.77</ele>
        <time>2020-11-08T08:47:48.000Z</time>
      </trkpt>
      <trkpt lat="50.50638" lon="3.74377">
        <ele>126.58</ele>
        <time>2020-11-08T08:47:49.000Z</time>
      </trkpt>
      <trkpt lat="50.50634" lon="3.7438">
        <ele>126.92</ele>
        <time>2020-11-08T08:47:50.000Z</time>
      </trkpt>
      <trkpt lat="50.50629" lon="3.74383">
        <ele>126.56</ele>
        <time>2020-11-08T08:47:51.000Z</time>
      </trkpt>
      <trkpt lat="50.50624" lon="3.74385">
        <ele>126.34</ele>
        <time>2020-11-08T08:47:52.000Z</time>
      </trkpt>
      <trkpt lat="50.50619" lon="3.74388">
        <ele>125.78</ele>
        <time>2020-11-08T08:47:53.000Z</time>
      </trkpt>
      <trkpt lat="50.50614" lon="3.74391">
        <ele>125.93</ele>
        <time>2020-11-08T08:47:54.000Z</time>
      </trkpt>
      <trkpt lat="50.50609" lon="3.74394">
        <ele>126.3</ele>
        <time>2020-11-08T08:47:55.000Z</time>
      </trkpt>
      <trkpt lat="50.50604" lon="3.74398">
        <ele>126.54</ele>
        <time>2020-11-08T08:47:56.000Z</time>
      </trkpt>
      <trkpt lat="50.50599" lon="3.74402">
        <ele>127.51</ele>
        <time>2020-11-08T08:47:57.000Z</time>
      </trkpt>
      <trkpt lat="50.50596" lon="3.74407">
        <ele>128.18</ele>
        <time>2020-11-08T08:47:58.000Z</time>
      </trkpt>
      <trkpt lat="50.50591" lon="3.74411">
        <ele>128.5</ele>
        <time>2020-11-08T08:47:59.000Z</time>
      </trkpt>
      <trkpt lat="50.50586" lon="3.74415">
        <ele>128.52</ele>
        <time>2020-11-08T08:48:00.000Z</time>
      </trkpt>
      <trkpt lat="50.50581" lon="3.74418">
        <ele>128.82</ele>
        <time>2020-11-08T08:48:01.000Z</time>
      </trkpt>
      <trkpt lat="50.50576" lon="3.74421">
        <ele>129.21</ele>
        <time>2020-11-08T08:48:02.000Z</time>
      </trkpt>
      <trkpt lat="50.50571" lon="3.74425">
        <ele>129.57</ele>
        <time>2020-11-08T08:48:03.000Z</time>
      </trkpt>
      <trkpt lat="50.50566" lon="3.74427">
        <ele>129.73</ele>
        <time>2020-11-08T08:48:04.000Z</time>
      </trkpt>
      <trkpt lat="50.50561" lon="3.74429">
        <ele>129.95</ele>
        <time>2020-11-08T08:48:05.000Z</time>
      </trkpt>
      <trkpt lat="50.50556" lon="3.74432">
        <ele>130.76</ele>
        <time>2020-11-08T08:48:06.000Z</time>
      </trkpt>
      <trkpt lat="50.50552" lon="3.74436">
        <ele>130.6</ele>
        <time>2020-11-08T08:48:07.000Z</time>
      </trkpt>
      <trkpt lat="50.50547" lon="3.74439">
        <ele>130.7</ele>
        <time>2020-11-08T08:48:08.000Z</time>
      </trkpt>
      <trkpt lat="50.5054" lon="3.74442">
        <ele>130.78</ele>
        <time>2020-11-08T08:48:10.000Z</time>
      </trkpt>
      <trkpt lat="50.50534" lon="3.74436">
        <ele>131.29</ele>
        <time>2020-11-08T08:48:12.000Z</time>
      </trkpt>
      <trkpt lat="50.50527" lon="3.74426">
        <ele>130.71</ele>
        <time>2020-11-08T08:48:14.000Z</time>
      </trkpt>
      <trkpt lat="50.50525" lon="3.74416">
        <ele>130.84</ele>
        <time>2020-11-08T08:48:16.000Z</time>
      </trkpt>
      <trkpt lat="50.50527" lon="3.74406">
        <ele>130.59</ele>
        <time>2020-11-08T08:48:18.000Z</time>
      </trkpt>
      <trkpt lat="50.50525" lon="3.74398">
        <ele>128.99</ele>
        <time>2020-11-08T08:48:21.000Z</time>
      </trkpt>
      <trkpt lat="50.50522" lon="3.74391">
        <ele>129.03</ele>
        <time>2020-11-08T08:48:23.000Z</time>
      </trkpt>
      <trkpt lat="50.50521" lon="3.74382">
        <ele>130.16</ele>
        <time>2020-11-08T08:48:25.000Z</time>
      </trkpt>
      <trkpt lat="50.50522" lon="3.74374">
        <ele>128.13</ele>
        <time>2020-11-08T08:48:27.000Z</time>
      </trkpt>
      <trkpt lat="50.50524" lon="3.74368">
        <ele>130.07</ele>
        <time>2020-11-08T08:48:30.000Z</time>
      </trkpt>
      <trkpt lat="50.50527" lon="3.7436">
        <ele>131.19</ele>
        <time>2020-11-08T08:48:33.000Z</time>
      </trkpt>
      <trkpt lat="50.50531" lon="3.74356">
        <ele>130.34</ele>
        <time>2020-11-08T08:48:35.000Z</time>
      </trkpt>
      <trkpt lat="50.50537" lon="3.74353">
        <ele>130.74</ele>
        <time>2020-11-08T08:48:38.000Z</time>
      </trkpt>
      <trkpt lat="50.50542" lon="3.74353">
        <ele>130.97</ele>
        <time>2020-11-08T08:48:41.000Z</time>
      </trkpt>
      <trkpt lat="50.50546" lon="3.74351">
        <ele>131.18</ele>
        <time>2020-11-08T08:48:43.000Z</time>
      </trkpt>
      <trkpt lat="50.5055" lon="3.74345">
        <ele>131.23</ele>
        <time>2020-11-08T08:48:45.000Z</time>
      </trkpt>
      <trkpt lat="50.50552" lon="3.74339">
        <ele>127.92</ele>
        <time>2020-11-08T08:48:47.000Z</time>
      </trkpt>
      <trkpt lat="50.5055" lon="3.74329">
        <ele>129.08</ele>
        <time>2020-11-08T08:48:49.000Z</time>
      </trkpt>
      <trkpt lat="50.50546" lon="3.7432">
        <ele>129.23</ele>
        <time>2020-11-08T08:48:51.000Z</time>
      </trkpt>
      <trkpt lat="50.50544" lon="3.7431">
        <ele>130.8</ele>
        <time>2020-11-08T08:48:53.000Z</time>
      </trkpt>
      <trkpt lat="50.50543" lon="3.74301">
        <ele>129.16</ele>
        <time>2020-11-08T08:48:55.000Z</time>
      </trkpt>
      <trkpt lat="50.50541" lon="3.74294">
        <ele>129.35</ele>
        <time>2020-11-08T08:48:57.000Z</time>
      </trkpt>
      <trkpt lat="50.50525" lon="3.74288">
        <ele>131.32</ele>
        <time>2020-11-08T08:49:01.000Z</time>
      </trkpt>
      <trkpt lat="50.50518" lon="3.74288">
        <ele>132.41</ele>
        <time>2020-11-08T08:49:03.000Z</time>
      </trkpt>
      <trkpt lat="50.50513" lon="3.74291">
        <ele>133.43</ele>
        <time>2020-11-08T08:49:05.000Z</time>
      </trkpt>
      <trkpt lat="50.50508" lon="3.7429">
        <ele>134.29</ele>
        <time>2020-11-08T08:49:07.000Z</time>
      </trkpt>
      <trkpt lat="50.50502" lon="3.74287">
        <ele>133.82</ele>
        <time>2020-11-08T08:49:09.000Z</time>
      </trkpt>
      <trkpt lat="50.50497" lon="3.74285">
        <ele>133.3</ele>
        <time>2020-11-08T08:49:11.000Z</time>
      </trkpt>
      <trkpt lat="50.50491" lon="3.74281">
        <ele>133.67</ele>
        <time>2020-11-08T08:49:13.000Z</time>
      </trkpt>
      <trkpt lat="50.50486" lon="3.74278">
        <ele>132.7</ele>
        <time>2020-11-08T08:49:15.000Z</time>
      </trkpt>
      <trkpt lat="50.50481" lon="3.74277">
        <ele>132.7</ele>
        <time>2020-11-08T08:49:17.000Z</time>
      </trkpt>
      <trkpt lat="50.50476" lon="3.74279">
        <ele>133.42</ele>
        <time>2020-11-08T08:49:19.000Z</time>
      </trkpt>
      <trkpt lat="50.50473" lon="3.74287">
        <ele>133.52</ele>
        <time>2020-11-08T08:49:21.000Z</time>
      </trkpt>
      <trkpt lat="50.50466" lon="3.74332">
        <ele>134.99</ele>
        <time>2020-11-08T08:49:28.000Z</time>
      </trkpt>
      <trkpt lat="50.50465" lon="3.7434">
        <ele>135.86</ele>
        <time>2020-11-08T08:49:29.000Z</time>
      </trkpt>
      <trkpt lat="50.50463" lon="3.74354">
        <ele>133.19</ele>
        <time>2020-11-08T08:49:31.000Z</time>
      </trkpt>
      <trkpt lat="50.50462" lon="3.74361">
        <ele>134.48</ele>
        <time>2020-11-08T08:49:32.000Z</time>
      </trkpt>
      <trkpt lat="50.50461" lon="3.74373">
        <ele>135.99</ele>
        <time>2020-11-08T08:49:34.000Z</time>
      </trkpt>
      <trkpt lat="50.5046" lon="3.74382">
        <ele>137.14</ele>
        <time>2020-11-08T08:49:36.000Z</time>
      </trkpt>
      <trkpt lat="50.50459" lon="3.7439">
        <ele>137.82</ele>
        <time>2020-11-08T08:49:38.000Z</time>
      </trkpt>
      <trkpt lat="50.50457" lon="3.74399">
        <ele>133.81</ele>
        <time>2020-11-08T08:49:40.000Z</time>
      </trkpt>
      <trkpt lat="50.50455" lon="3.74409">
        <ele>136.8</ele>
        <time>2020-11-08T08:49:42.000Z</time>
      </trkpt>
      <trkpt lat="50.50453" lon="3.74418">
        <ele>137.91</ele>
        <time>2020-11-08T08:49:44.000Z</time>
      </trkpt>
      <trkpt lat="50.50449" lon="3.74427">
        <ele>138.77</ele>
        <time>2020-11-08T08:49:46.000Z</time>
      </trkpt>
      <trkpt lat="50.50445" lon="3.74436">
        <ele>139.45</ele>
        <time>2020-11-08T08:49:48.000Z</time>
      </trkpt>
      <trkpt lat="50.50441" lon="3.74445">
        <ele>139.88</ele>
        <time>2020-11-08T08:49:50.000Z</time>
      </trkpt>
      <trkpt lat="50.50437" lon="3.74453">
        <ele>140.09</ele>
        <time>2020-11-08T08:49:52.000Z</time>
      </trkpt>
      <trkpt lat="50.50433" lon="3.74462">
        <ele>140.26</ele>
        <time>2020-11-08T08:49:54.000Z</time>
      </trkpt>
      <trkpt lat="50.5043" lon="3.74471">
        <ele>140.04</ele>
        <time>2020-11-08T08:49:56.000Z</time>
      </trkpt>
      <trkpt lat="50.50425" lon="3.74477">
        <ele>140.13</ele>
        <time>2020-11-08T08:49:58.000Z</time>
      </trkpt>
      <trkpt lat="50.50419" lon="3.74481">
        <ele>140.75</ele>
        <time>2020-11-08T08:50:00.000Z</time>
      </trkpt>
      <trkpt lat="50.50412" lon="3.74481">
        <ele>140.19</ele>
        <time>2020-11-08T08:50:02.000Z</time>
      </trkpt>
      <trkpt lat="50.50406" lon="3.74477">
        <ele>140.25</ele>
        <time>2020-11-08T08:50:04.000Z</time>
      </trkpt>
      <trkpt lat="50.504" lon="3.74468">
        <ele>140.22</ele>
        <time>2020-11-08T08:50:06.000Z</time>
      </trkpt>
      <trkpt lat="50.50393" lon="3.7446">
        <ele>140.12</ele>
        <time>2020-11-08T08:50:08.000Z</time>
      </trkpt>
      <trkpt lat="50.50387" lon="3.74452">
        <ele>139.38</ele>
        <time>2020-11-08T08:50:10.000Z</time>
      </trkpt>
      <trkpt lat="50.50383" lon="3.74446">
        <ele>139.37</ele>
        <time>2020-11-08T08:50:11.000Z</time>
      </trkpt>
      <trkpt lat="50.50379" lon="3.74442">
        <ele>139.12</ele>
        <time>2020-11-08T08:50:12.000Z</time>
      </trkpt>
      <trkpt lat="50.50375" lon="3.74437">
        <ele>133.34</ele>
        <time>2020-11-08T08:50:13.000Z</time>
      </trkpt>
      <trkpt lat="50.5037" lon="3.74433">
        <ele>135.05</ele>
        <time>2020-11-08T08:50:14.000Z</time>
      </trkpt>
      <trkpt lat="50.50365" lon="3.74427">
        <ele>136.38</ele>
        <time>2020-11-08T08:50:15.000Z</time>
      </trkpt>
      <trkpt lat="50.50361" lon="3.74421">
        <ele>137.27</ele>
        <time>2020-11-08T08:50:16.000Z</time>
      </trkpt>
      <trkpt lat="50.50356" lon="3.74417">
        <ele>138.03</ele>
        <time>2020-11-08T08:50:17.000Z</time>
      </trkpt>
      <trkpt lat="50.50349" lon="3.74411">
        <ele>137.04</ele>
        <time>2020-11-08T08:50:18.000Z</time>
      </trkpt>
      <trkpt lat="50.50343" lon="3.74407">
        <ele>136.7</ele>
        <time>2020-11-08T08:50:19.000Z</time>
      </trkpt>
      <trkpt lat="50.50337" lon="3.74401">
        <ele>136.54</ele>
        <time>2020-11-08T08:50:20.000Z</time>
      </trkpt>
      <trkpt lat="50.5033" lon="3.74397">
        <ele>136.23</ele>
        <time>2020-11-08T08:50:21.000Z</time>
      </trkpt>
      <trkpt lat="50.50324" lon="3.74391">
        <ele>136.25</ele>
        <time>2020-11-08T08:50:22.000Z</time>
      </trkpt>
      <trkpt lat="50.50318" lon="3.74386">
        <ele>136.33</ele>
        <time>2020-11-08T08:50:23.000Z</time>
      </trkpt>
      <trkpt lat="50.50313" lon="3.74379">
        <ele>136.23</ele>
        <time>2020-11-08T08:50:24.000Z</time>
      </trkpt>
      <trkpt lat="50.50306" lon="3.74374">
        <ele>136.21</ele>
        <time>2020-11-08T08:50:25.000Z</time>
      </trkpt>
      <trkpt lat="50.50301" lon="3.74369">
        <ele>137.04</ele>
        <time>2020-11-08T08:50:26.000Z</time>
      </trkpt>
      <trkpt lat="50.50296" lon="3.74366">
        <ele>137.66</ele>
        <time>2020-11-08T08:50:27.000Z</time>
      </trkpt>
      <trkpt lat="50.5029" lon="3.74364">
        <ele>133.87</ele>
        <time>2020-11-08T08:50:29.000Z</time>
      </trkpt>
      <trkpt lat="50.50288" lon="3.74375">
        <ele>137.15</ele>
        <time>2020-11-08T08:50:32.000Z</time>
      </trkpt>
      <trkpt lat="50.50284" lon="3.74383">
        <ele>138.56</ele>
        <time>2020-11-08T08:50:34.000Z</time>
      </trkpt>
      <trkpt lat="50.5028" lon="3.74394">
        <ele>138.14</ele>
        <time>2020-11-08T08:50:36.000Z</time>
      </trkpt>
      <trkpt lat="50.50277" lon="3.74402">
        <ele>138.19</ele>
        <time>2020-11-08T08:50:37.000Z</time>
      </trkpt>
      <trkpt lat="50.50274" lon="3.74409">
        <ele>137.88</ele>
        <time>2020-11-08T08:50:38.000Z</time>
      </trkpt>
      <trkpt lat="50.50272" lon="3.74417">
        <ele>138.15</ele>
        <time>2020-11-08T08:50:39.000Z</time>
      </trkpt>
      <trkpt lat="50.50265" lon="3.7443">
        <ele>135.41</ele>
        <time>2020-11-08T08:50:41.000Z</time>
      </trkpt>
      <trkpt lat="50.50263" lon="3.74438">
        <ele>136.57</ele>
        <time>2020-11-08T08:50:42.000Z</time>
      </trkpt>
      <trkpt lat="50.5026" lon="3.74447">
        <ele>137.32</ele>
        <time>2020-11-08T08:50:43.000Z</time>
      </trkpt>
      <trkpt lat="50.50258" lon="3.74454">
        <ele>137.51</ele>
        <time>2020-11-08T08:50:44.000Z</time>
      </trkpt>
      <trkpt lat="50.50254" lon="3.74463">
        <ele>138.76</ele>
        <time>2020-11-08T08:50:45.000Z</time>
      </trkpt>
      <trkpt lat="50.50252" lon="3.74472">
        <ele>138.84</ele>
        <time>2020-11-08T08:50:46.000Z</time>
      </trkpt>
      <trkpt lat="50.50249" lon="3.74479">
        <ele>138.66</ele>
        <time>2020-11-08T08:50:47.000Z</time>
      </trkpt>
      <trkpt lat="50.50246" lon="3.74489">
        <ele>138.25</ele>
        <time>2020-11-08T08:50:48.000Z</time>
      </trkpt>
      <trkpt lat="50.50244" lon="3.74495">
        <ele>136.91</ele>
        <time>2020-11-08T08:50:49.000Z</time>
      </trkpt>
      <trkpt lat="50.5024" lon="3.74501">
        <ele>136.16</ele>
        <time>2020-11-08T08:50:50.000Z</time>
      </trkpt>
      <trkpt lat="50.50237" lon="3.74512">
        <ele>135.77</ele>
        <time>2020-11-08T08:50:51.000Z</time>
      </trkpt>
      <trkpt lat="50.50233" lon="3.74519">
        <ele>134.92</ele>
        <time>2020-11-08T08:50:52.000Z</time>
      </trkpt>
      <trkpt lat="50.50229" lon="3.74527">
        <ele>133.57</ele>
        <time>2020-11-08T08:50:53.000Z</time>
      </trkpt>
      <trkpt lat="50.50225" lon="3.74535">
        <ele>132.55</ele>
        <time>2020-11-08T08:50:54.000Z</time>
      </trkpt>
      <trkpt lat="50.50222" lon="3.74545">
        <ele>131.04</ele>
        <time>2020-11-08T08:50:56.000Z</time>
      </trkpt>
      <trkpt lat="50.50222" lon="3.74545">
        <ele>131.04</ele>
        <time>2020-11-08T08:50:56.001Z</time>
      </trkpt>
      <trkpt lat="50.5022" lon="3.74551">
        <ele>132.35</ele>
        <time>2020-11-08T08:53:47.000Z</time>
      </trkpt>
      <trkpt lat="50.50219" lon="3.74558">
        <ele>133.8</ele>
        <time>2020-11-08T08:54:50.000Z</time>
      </trkpt>
      <trkpt lat="50.50216" lon="3.74569">
        <ele>132.96</ele>
        <time>2020-11-08T08:54:53.000Z</time>
      </trkpt>
      <trkpt lat="50.50213" lon="3.7458">
        <ele>131.65</ele>
        <time>2020-11-08T08:54:55.000Z</time>
      </trkpt>
      <trkpt lat="50.50209" lon="3.74591">
        <ele>132.05</ele>
        <time>2020-11-08T08:54:57.000Z</time>
      </trkpt>
      <trkpt lat="50.50206" lon="3.74597">
        <ele>131.51</ele>
        <time>2020-11-08T08:54:58.000Z</time>
      </trkpt>
      <trkpt lat="50.50199" lon="3.74606">
        <ele>129.89</ele>
        <time>2020-11-08T08:55:00.000Z</time>
      </trkpt>
      <trkpt lat="50.50195" lon="3.74612">
        <ele>130.41</ele>
        <time>2020-11-08T08:55:01.000Z</time>
      </trkpt>
      <trkpt lat="50.50191" lon="3.74616">
        <ele>130.53</ele>
        <time>2020-11-08T08:55:02.000Z</time>
      </trkpt>
      <trkpt lat="50.50185" lon="3.74622">
        <ele>131.68</ele>
        <time>2020-11-08T08:55:03.000Z</time>
      </trkpt>
      <trkpt lat="50.5018" lon="3.74628">
        <ele>132.32</ele>
        <time>2020-11-08T08:55:04.000Z</time>
      </trkpt>
      <trkpt lat="50.50174" lon="3.74634">
        <ele>132.89</ele>
        <time>2020-11-08T08:55:05.000Z</time>
      </trkpt>
      <trkpt lat="50.5017" lon="3.74641">
        <ele>133.06</ele>
        <time>2020-11-08T08:55:06.000Z</time>
      </trkpt>
      <trkpt lat="50.50164" lon="3.74647">
        <ele>131.89</ele>
        <time>2020-11-08T08:55:07.000Z</time>
      </trkpt>
      <trkpt lat="50.5016" lon="3.74652">
        <ele>131.54</ele>
        <time>2020-11-08T08:55:08.000Z</time>
      </trkpt>
      <trkpt lat="50.50157" lon="3.74658">
        <ele>133.11</ele>
        <time>2020-11-08T08:55:09.000Z</time>
      </trkpt>
      <trkpt lat="50.50154" lon="3.74665">
        <ele>133.88</ele>
        <time>2020-11-08T08:55:11.000Z</time>
      </trkpt>
      <trkpt lat="50.50147" lon="3.7467">
        <ele>132.32</ele>
        <time>2020-11-08T08:55:13.000Z</time>
      </trkpt>
      <trkpt lat="50.50141" lon="3.74675">
        <ele>131.52</ele>
        <time>2020-11-08T08:55:15.000Z</time>
      </trkpt>
      <trkpt lat="50.50135" lon="3.74682">
        <ele>131.19</ele>
        <time>2020-11-08T08:55:17.000Z</time>
      </trkpt>
      <trkpt lat="50.50131" lon="3.74688">
        <ele>127.57</ele>
        <time>2020-11-08T08:55:18.000Z</time>
      </trkpt>
      <trkpt lat="50.50127" lon="3.74693">
        <ele>128.72</ele>
        <time>2020-11-08T08:55:19.000Z</time>
      </trkpt>
      <trkpt lat="50.50123" lon="3.74697">
        <ele>129.86</ele>
        <time>2020-11-08T08:55:20.000Z</time>
      </trkpt>
      <trkpt lat="50.5012" lon="3.74702">
        <ele>129.31</ele>
        <time>2020-11-08T08:55:21.000Z</time>
      </trkpt>
      <trkpt lat="50.50111" lon="3.74712">
        <ele>128.38</ele>
        <time>2020-11-08T08:55:23.000Z</time>
      </trkpt>
      <trkpt lat="50.50106" lon="3.74714">
        <ele>129.29</ele>
        <time>2020-11-08T08:55:24.000Z</time>
      </trkpt>
      <trkpt lat="50.50102" lon="3.74719">
        <ele>129.7</ele>
        <time>2020-11-08T08:55:25.000Z</time>
      </trkpt>
      <trkpt lat="50.50097" lon="3.74724">
        <ele>129.25</ele>
        <time>2020-11-08T08:55:26.000Z</time>
      </trkpt>
      <trkpt lat="50.50092" lon="3.7473">
        <ele>128.8</ele>
        <time>2020-11-08T08:55:27.000Z</time>
      </trkpt>
      <trkpt lat="50.50088" lon="3.74738">
        <ele>123.96</ele>
        <time>2020-11-08T08:55:28.000Z</time>
      </trkpt>
      <trkpt lat="50.50069" lon="3.74766">
        <ele>123.84</ele>
        <time>2020-11-08T08:55:31.000Z</time>
      </trkpt>
      <trkpt lat="50.50062" lon="3.74775">
        <ele>123.58</ele>
        <time>2020-11-08T08:55:32.000Z</time>
      </trkpt>
      <trkpt lat="50.50056" lon="3.74782">
        <ele>122.63</ele>
        <time>2020-11-08T08:55:33.000Z</time>
      </trkpt>
      <trkpt lat="50.50049" lon="3.7479">
        <ele>121.79</ele>
        <time>2020-11-08T08:55:34.000Z</time>
      </trkpt>
      <trkpt lat="50.50045" lon="3.74798">
        <ele>121.94</ele>
        <time>2020-11-08T08:55:35.000Z</time>
      </trkpt>
      <trkpt lat="50.50042" lon="3.74809">
        <ele>121.72</ele>
        <time>2020-11-08T08:55:36.000Z</time>
      </trkpt>
      <trkpt lat="50.50036" lon="3.74815">
        <ele>122.69</ele>
        <time>2020-11-08T08:55:37.000Z</time>
      </trkpt>
      <trkpt lat="50.5003" lon="3.74822">
        <ele>123.81</ele>
        <time>2020-11-08T08:55:38.000Z</time>
      </trkpt>
      <trkpt lat="50.50025" lon="3.74829">
        <ele>123.37</ele>
        <time>2020-11-08T08:55:39.000Z</time>
      </trkpt>
      <trkpt lat="50.50018" lon="3.74839">
        <ele>122.7</ele>
        <time>2020-11-08T08:55:40.000Z</time>
      </trkpt>
      <trkpt lat="50.50012" lon="3.74849">
        <ele>122.49</ele>
        <time>2020-11-08T08:55:41.000Z</time>
      </trkpt>
      <trkpt lat="50.50005" lon="3.74856">
        <ele>123.36</ele>
        <time>2020-11-08T08:55:42.000Z</time>
      </trkpt>
      <trkpt lat="50.49999" lon="3.74864">
        <ele>121.65</ele>
        <time>2020-11-08T08:55:43.000Z</time>
      </trkpt>
      <trkpt lat="50.49993" lon="3.74872">
        <ele>120.79</ele>
        <time>2020-11-08T08:55:44.000Z</time>
      </trkpt>
      <trkpt lat="50.49987" lon="3.74882">
        <ele>121.55</ele>
        <time>2020-11-08T08:55:45.000Z</time>
      </trkpt>
      <trkpt lat="50.49982" lon="3.7489">
        <ele>120.21</ele>
        <time>2020-11-08T08:55:46.000Z</time>
      </trkpt>
      <trkpt lat="50.49977" lon="3.74899">
        <ele>119.67</ele>
        <time>2020-11-08T08:55:47.000Z</time>
      </trkpt>
      <trkpt lat="50.49972" lon="3.74907">
        <ele>119.34</ele>
        <time>2020-11-08T08:55:48.000Z</time>
      </trkpt>
      <trkpt lat="50.49965" lon="3.74911">
        <ele>119.9</ele>
        <time>2020-11-08T08:55:49.000Z</time>
      </trkpt>
      <trkpt lat="50.49959" lon="3.74916">
        <ele>119.73</ele>
        <time>2020-11-08T08:55:50.000Z</time>
      </trkpt>
      <trkpt lat="50.49953" lon="3.74924">
        <ele>119.72</ele>
        <time>2020-11-08T08:55:51.000Z</time>
      </trkpt>
      <trkpt lat="50.49949" lon="3.74935">
        <ele>119.47</ele>
        <time>2020-11-08T08:55:52.000Z</time>
      </trkpt>
      <trkpt lat="50.49943" lon="3.74943">
        <ele>119.05</ele>
        <time>2020-11-08T08:55:53.000Z</time>
      </trkpt>
      <trkpt lat="50.49938" lon="3.74952">
        <ele>117.37</ele>
        <time>2020-11-08T08:55:54.000Z</time>
      </trkpt>
      <trkpt lat="50.4993" lon="3.74961">
        <ele>117.61</ele>
        <time>2020-11-08T08:55:55.000Z</time>
      </trkpt>
      <trkpt lat="50.49925" lon="3.74968">
        <ele>117.15</ele>
        <time>2020-11-08T08:55:56.000Z</time>
      </trkpt>
      <trkpt lat="50.49919" lon="3.74976">
        <ele>116.89</ele>
        <time>2020-11-08T08:55:57.000Z</time>
      </trkpt>
      <trkpt lat="50.49913" lon="3.74982">
        <ele>116.65</ele>
        <time>2020-11-08T08:55:58.000Z</time>
      </trkpt>
      <trkpt lat="50.49908" lon="3.74987">
        <ele>117.62</ele>
        <time>2020-11-08T08:55:59.000Z</time>
      </trkpt>
      <trkpt lat="50.49904" lon="3.74995">
        <ele>118.47</ele>
        <time>2020-11-08T08:56:00.000Z</time>
      </trkpt>
      <trkpt lat="50.49902" lon="3.75003">
        <ele>118.75</ele>
        <time>2020-11-08T08:56:01.000Z</time>
      </trkpt>
      <trkpt lat="50.499" lon="3.7501">
        <ele>119.64</ele>
        <time>2020-11-08T08:56:02.000Z</time>
      </trkpt>
      <trkpt lat="50.49897" lon="3.75017">
        <ele>119.62</ele>
        <time>2020-11-08T08:56:03.000Z</time>
      </trkpt>
      <trkpt lat="50.49892" lon="3.75026">
        <ele>117.71</ele>
        <time>2020-11-08T08:56:05.000Z</time>
      </trkpt>
      <trkpt lat="50.49884" lon="3.75037">
        <ele>117.12</ele>
        <time>2020-11-08T08:56:07.000Z</time>
      </trkpt>
      <trkpt lat="50.4988" lon="3.75045">
        <ele>117.24</ele>
        <time>2020-11-08T08:56:08.000Z</time>
      </trkpt>
      <trkpt lat="50.49874" lon="3.75051">
        <ele>117.9</ele>
        <time>2020-11-08T08:56:09.000Z</time>
      </trkpt>
      <trkpt lat="50.49868" lon="3.75058">
        <ele>117.99</ele>
        <time>2020-11-08T08:56:10.000Z</time>
      </trkpt>
      <trkpt lat="50.49863" lon="3.75067">
        <ele>119.13</ele>
        <time>2020-11-08T08:56:11.000Z</time>
      </trkpt>
      <trkpt lat="50.49857" lon="3.75076">
        <ele>118.66</ele>
        <time>2020-11-08T08:56:12.000Z</time>
      </trkpt>
      <trkpt lat="50.4985" lon="3.75084">
        <ele>118.5</ele>
        <time>2020-11-08T08:56:13.000Z</time>
      </trkpt>
      <trkpt lat="50.49845" lon="3.75093">
        <ele>117.56</ele>
        <time>2020-11-08T08:56:14.000Z</time>
      </trkpt>
      <trkpt lat="50.49839" lon="3.751">
        <ele>117.47</ele>
        <time>2020-11-08T08:56:15.000Z</time>
      </trkpt>
      <trkpt lat="50.49832" lon="3.75109">
        <ele>117.11</ele>
        <time>2020-11-08T08:56:16.000Z</time>
      </trkpt>
      <trkpt lat="50.49825" lon="3.75117">
        <ele>116.95</ele>
        <time>2020-11-08T08:56:17.000Z</time>
      </trkpt>
      <trkpt lat="50.49819" lon="3.75125">
        <ele>116.59</ele>
        <time>2020-11-08T08:56:18.000Z</time>
      </trkpt>
      <trkpt lat="50.49813" lon="3.75135">
        <ele>117.34</ele>
        <time>2020-11-08T08:56:19.000Z</time>
      </trkpt>
      <trkpt lat="50.49806" lon="3.75142">
        <ele>115.62</ele>
        <time>2020-11-08T08:56:20.000Z</time>
      </trkpt>
      <trkpt lat="50.498" lon="3.75151">
        <ele>114.88</ele>
        <time>2020-11-08T08:56:21.000Z</time>
      </trkpt>
      <trkpt lat="50.49793" lon="3.7516">
        <ele>115.35</ele>
        <time>2020-11-08T08:56:22.000Z</time>
      </trkpt>
      <trkpt lat="50.49786" lon="3.75168">
        <ele>115.6</ele>
        <time>2020-11-08T08:56:23.000Z</time>
      </trkpt>
      <trkpt lat="50.49772" lon="3.75186">
        <ele>114.68</ele>
        <time>2020-11-08T08:56:25.000Z</time>
      </trkpt>
      <trkpt lat="50.49766" lon="3.75196">
        <ele>115.26</ele>
        <time>2020-11-08T08:56:26.000Z</time>
      </trkpt>
      <trkpt lat="50.4976" lon="3.75207">
        <ele>115.36</ele>
        <time>2020-11-08T08:56:27.000Z</time>
      </trkpt>
      <trkpt lat="50.49755" lon="3.75216">
        <ele>114.69</ele>
        <time>2020-11-08T08:56:28.000Z</time>
      </trkpt>
      <trkpt lat="50.49749" lon="3.75224">
        <ele>113.93</ele>
        <time>2020-11-08T08:56:29.000Z</time>
      </trkpt>
      <trkpt lat="50.49743" lon="3.75231">
        <ele>114.83</ele>
        <time>2020-11-08T08:56:30.000Z</time>
      </trkpt>
      <trkpt lat="50.49736" lon="3.75239">
        <ele>114.38</ele>
        <time>2020-11-08T08:56:31.000Z</time>
      </trkpt>
      <trkpt lat="50.4973" lon="3.75245">
        <ele>114</ele>
        <time>2020-11-08T08:56:32.000Z</time>
      </trkpt>
      <trkpt lat="50.49724" lon="3.75254">
        <ele>114.61</ele>
        <time>2020-11-08T08:56:33.000Z</time>
      </trkpt>
      <trkpt lat="50.49718" lon="3.75261">
        <ele>114.63</ele>
        <time>2020-11-08T08:56:34.000Z</time>
      </trkpt>
      <trkpt lat="50.49713" lon="3.75268">
        <ele>113.65</ele>
        <time>2020-11-08T08:56:35.000Z</time>
      </trkpt>
      <trkpt lat="50.49708" lon="3.75274">
        <ele>112.6</ele>
        <time>2020-11-08T08:56:36.000Z</time>
      </trkpt>
      <trkpt lat="50.49702" lon="3.75281">
        <ele>112.62</ele>
        <time>2020-11-08T08:56:37.000Z</time>
      </trkpt>
      <trkpt lat="50.49698" lon="3.75287">
        <ele>112.13</ele>
        <time>2020-11-08T08:56:38.000Z</time>
      </trkpt>
      <trkpt lat="50.49694" lon="3.75291">
        <ele>111.65</ele>
        <time>2020-11-08T08:56:39.000Z</time>
      </trkpt>
      <trkpt lat="50.49692" lon="3.75302">
        <ele>112.02</ele>
        <time>2020-11-08T08:56:41.000Z</time>
      </trkpt>
      <trkpt lat="50.49686" lon="3.75305">
        <ele>112.47</ele>
        <time>2020-11-08T08:56:43.000Z</time>
      </trkpt>
      <trkpt lat="50.49679" lon="3.75299">
        <ele>112.99</ele>
        <time>2020-11-08T08:56:45.000Z</time>
      </trkpt>
      <trkpt lat="50.49674" lon="3.75295">
        <ele>113.44</ele>
        <time>2020-11-08T08:56:46.000Z</time>
      </trkpt>
      <trkpt lat="50.4967" lon="3.75291">
        <ele>113.8</ele>
        <time>2020-11-08T08:56:47.000Z</time>
      </trkpt>
      <trkpt lat="50.49665" lon="3.75289">
        <ele>113.9</ele>
        <time>2020-11-08T08:56:48.000Z</time>
      </trkpt>
      <trkpt lat="50.49659" lon="3.75287">
        <ele>113.93</ele>
        <time>2020-11-08T08:56:49.000Z</time>
      </trkpt>
      <trkpt lat="50.49653" lon="3.75287">
        <ele>114.77</ele>
        <time>2020-11-08T08:56:50.000Z</time>
      </trkpt>
      <trkpt lat="50.49648" lon="3.75287">
        <ele>114.36</ele>
        <time>2020-11-08T08:56:51.000Z</time>
      </trkpt>
      <trkpt lat="50.49643" lon="3.75287">
        <ele>113.82</ele>
        <time>2020-11-08T08:56:52.000Z</time>
      </trkpt>
      <trkpt lat="50.49637" lon="3.75287">
        <ele>113.61</ele>
        <time>2020-11-08T08:56:53.000Z</time>
      </trkpt>
      <trkpt lat="50.49629" lon="3.75287">
        <ele>113.42</ele>
        <time>2020-11-08T08:56:55.000Z</time>
      </trkpt>
      <trkpt lat="50.49625" lon="3.75287">
        <ele>113.41</ele>
        <time>2020-11-08T08:56:57.000Z</time>
      </trkpt>
      <trkpt lat="50.49625" lon="3.75287">
        <ele>113.41</ele>
        <time>2020-11-08T08:56:57.001Z</time>
      </trkpt>
      <trkpt lat="50.49619" lon="3.7529">
        <ele>112.83</ele>
        <time>2020-11-08T08:57:17.000Z</time>
      </trkpt>
      <trkpt lat="50.49614" lon="3.75288">
        <ele>112.93</ele>
        <time>2020-11-08T08:57:19.000Z</time>
      </trkpt>
      <trkpt lat="50.49607" lon="3.75288">
        <ele>113.03</ele>
        <time>2020-11-08T08:57:21.000Z</time>
      </trkpt>
      <trkpt lat="50.496" lon="3.75287">
        <ele>113.17</ele>
        <time>2020-11-08T08:57:23.000Z</time>
      </trkpt>
      <trkpt lat="50.49594" lon="3.75286">
        <ele>113.39</ele>
        <time>2020-11-08T08:57:25.000Z</time>
      </trkpt>
      <trkpt lat="50.49587" lon="3.75286">
        <ele>113.41</ele>
        <time>2020-11-08T08:57:27.000Z</time>
      </trkpt>
      <trkpt lat="50.4958" lon="3.75287">
        <ele>113.33</ele>
        <time>2020-11-08T08:57:29.000Z</time>
      </trkpt>
      <trkpt lat="50.49572" lon="3.75287">
        <ele>113.22</ele>
        <time>2020-11-08T08:57:31.000Z</time>
      </trkpt>
      <trkpt lat="50.49564" lon="3.75287">
        <ele>113.47</ele>
        <time>2020-11-08T08:57:33.000Z</time>
      </trkpt>
      <trkpt lat="50.49556" lon="3.75287">
        <ele>113.57</ele>
        <time>2020-11-08T08:57:35.000Z</time>
      </trkpt>
      <trkpt lat="50.49548" lon="3.75287">
        <ele>113.76</ele>
        <time>2020-11-08T08:57:37.000Z</time>
      </trkpt>
      <trkpt lat="50.49539" lon="3.75285">
        <ele>114.15</ele>
        <time>2020-11-08T08:57:39.000Z</time>
      </trkpt>
      <trkpt lat="50.49534" lon="3.75283">
        <ele>113.99</ele>
        <time>2020-11-08T08:57:40.000Z</time>
      </trkpt>
      <trkpt lat="50.49525" lon="3.7528">
        <ele>113.78</ele>
        <time>2020-11-08T08:57:42.000Z</time>
      </trkpt>
      <trkpt lat="50.4952" lon="3.7528">
        <ele>113.8</ele>
        <time>2020-11-08T08:57:43.000Z</time>
      </trkpt>
      <trkpt lat="50.49515" lon="3.7528">
        <ele>113.98</ele>
        <time>2020-11-08T08:57:44.000Z</time>
      </trkpt>
      <trkpt lat="50.49511" lon="3.75279">
        <ele>114.14</ele>
        <time>2020-11-08T08:57:45.000Z</time>
      </trkpt>
      <trkpt lat="50.49506" lon="3.75279">
        <ele>114.33</ele>
        <time>2020-11-08T08:57:46.000Z</time>
      </trkpt>
      <trkpt lat="50.49501" lon="3.75278">
        <ele>114.31</ele>
        <time>2020-11-08T08:57:47.000Z</time>
      </trkpt>
      <trkpt lat="50.49495" lon="3.75278">
        <ele>114.62</ele>
        <time>2020-11-08T08:57:48.000Z</time>
      </trkpt>
      <trkpt lat="50.4949" lon="3.75277">
        <ele>114.47</ele>
        <time>2020-11-08T08:57:49.000Z</time>
      </trkpt>
      <trkpt lat="50.49486" lon="3.75275">
        <ele>114.52</ele>
        <time>2020-11-08T08:57:50.000Z</time>
      </trkpt>
      <trkpt lat="50.49481" lon="3.75273">
        <ele>114.78</ele>
        <time>2020-11-08T08:57:51.000Z</time>
      </trkpt>
      <trkpt lat="50.49475" lon="3.75271">
        <ele>115.05</ele>
        <time>2020-11-08T08:57:52.000Z</time>
      </trkpt>
      <trkpt lat="50.4947" lon="3.75269">
        <ele>115.04</ele>
        <time>2020-11-08T08:57:53.000Z</time>
      </trkpt>
      <trkpt lat="50.49465" lon="3.75268">
        <ele>115</ele>
        <time>2020-11-08T08:57:54.000Z</time>
      </trkpt>
      <trkpt lat="50.4946" lon="3.75266">
        <ele>114.8</ele>
        <time>2020-11-08T08:57:55.000Z</time>
      </trkpt>
      <trkpt lat="50.49456" lon="3.75264">
        <ele>114.87</ele>
        <time>2020-11-08T08:57:56.000Z</time>
      </trkpt>
      <trkpt lat="50.49451" lon="3.75262">
        <ele>115.01</ele>
        <time>2020-11-08T08:57:57.000Z</time>
      </trkpt>
      <trkpt lat="50.49446" lon="3.7526">
        <ele>115.29</ele>
        <time>2020-11-08T08:57:58.000Z</time>
      </trkpt>
      <trkpt lat="50.49441" lon="3.75257">
        <ele>115.76</ele>
        <time>2020-11-08T08:57:59.000Z</time>
      </trkpt>
      <trkpt lat="50.49435" lon="3.75256">
        <ele>116.11</ele>
        <time>2020-11-08T08:58:00.000Z</time>
      </trkpt>
      <trkpt lat="50.4943" lon="3.75254">
        <ele>116.13</ele>
        <time>2020-11-08T08:58:01.000Z</time>
      </trkpt>
      <trkpt lat="50.49425" lon="3.75253">
        <ele>116.03</ele>
        <time>2020-11-08T08:58:02.000Z</time>
      </trkpt>
      <trkpt lat="50.4942" lon="3.75251">
        <ele>115.9</ele>
        <time>2020-11-08T08:58:03.000Z</time>
      </trkpt>
      <trkpt lat="50.49415" lon="3.75248">
        <ele>115.13</ele>
        <time>2020-11-08T08:58:04.000Z</time>
      </trkpt>
      <trkpt lat="50.4941" lon="3.75245">
        <ele>114.67</ele>
        <time>2020-11-08T08:58:05.000Z</time>
      </trkpt>
      <trkpt lat="50.49404" lon="3.75243">
        <ele>114.9</ele>
        <time>2020-11-08T08:58:06.000Z</time>
      </trkpt>
      <trkpt lat="50.49398" lon="3.75242">
        <ele>114.74</ele>
        <time>2020-11-08T08:58:07.000Z</time>
      </trkpt>
      <trkpt lat="50.49392" lon="3.75239">
        <ele>114.66</ele>
        <time>2020-11-08T08:58:08.000Z</time>
      </trkpt>
      <trkpt lat="50.49386" lon="3.75237">
        <ele>113.78</ele>
        <time>2020-11-08T08:58:09.000Z</time>
      </trkpt>
      <trkpt lat="50.49379" lon="3.75233">
        <ele>113.71</ele>
        <time>2020-11-08T08:58:10.000Z</time>
      </trkpt>
      <trkpt lat="50.49374" lon="3.75231">
        <ele>112.84</ele>
        <time>2020-11-08T08:58:11.000Z</time>
      </trkpt>
      <trkpt lat="50.49369" lon="3.75227">
        <ele>112.84</ele>
        <time>2020-11-08T08:58:12.000Z</time>
      </trkpt>
      <trkpt lat="50.49364" lon="3.75226">
        <ele>111.83</ele>
        <time>2020-11-08T08:58:13.000Z</time>
      </trkpt>
      <trkpt lat="50.49358" lon="3.75223">
        <ele>111.74</ele>
        <time>2020-11-08T08:58:14.000Z</time>
      </trkpt>
      <trkpt lat="50.49352" lon="3.75221">
        <ele>111.95</ele>
        <time>2020-11-08T08:58:15.000Z</time>
      </trkpt>
      <trkpt lat="50.49347" lon="3.7522">
        <ele>111.45</ele>
        <time>2020-11-08T08:58:16.000Z</time>
      </trkpt>
      <trkpt lat="50.49341" lon="3.75218">
        <ele>112.51</ele>
        <time>2020-11-08T08:58:17.000Z</time>
      </trkpt>
      <trkpt lat="50.49336" lon="3.75216">
        <ele>111.78</ele>
        <time>2020-11-08T08:58:18.000Z</time>
      </trkpt>
      <trkpt lat="50.49331" lon="3.75214">
        <ele>112.57</ele>
        <time>2020-11-08T08:58:19.000Z</time>
      </trkpt>
      <trkpt lat="50.49325" lon="3.75213">
        <ele>111.97</ele>
        <time>2020-11-08T08:58:20.000Z</time>
      </trkpt>
      <trkpt lat="50.4932" lon="3.75211">
        <ele>111.81</ele>
        <time>2020-11-08T08:58:21.000Z</time>
      </trkpt>
      <trkpt lat="50.49314" lon="3.7521">
        <ele>111.81</ele>
        <time>2020-11-08T08:58:22.000Z</time>
      </trkpt>
      <trkpt lat="50.49308" lon="3.75208">
        <ele>111.8</ele>
        <time>2020-11-08T08:58:23.000Z</time>
      </trkpt>
      <trkpt lat="50.49303" lon="3.75207">
        <ele>111.41</ele>
        <time>2020-11-08T08:58:24.000Z</time>
      </trkpt>
      <trkpt lat="50.49298" lon="3.75205">
        <ele>111.38</ele>
        <time>2020-11-08T08:58:25.000Z</time>
      </trkpt>
      <trkpt lat="50.49291" lon="3.75209">
        <ele>111.16</ele>
        <time>2020-11-08T08:58:27.000Z</time>
      </trkpt>
      <trkpt lat="50.49288" lon="3.7522">
        <ele>111.67</ele>
        <time>2020-11-08T08:58:29.000Z</time>
      </trkpt>
      <trkpt lat="50.49288" lon="3.75228">
        <ele>111.7</ele>
        <time>2020-11-08T08:58:31.000Z</time>
      </trkpt>
      <trkpt lat="50.49288" lon="3.75239">
        <ele>112.58</ele>
        <time>2020-11-08T08:58:33.000Z</time>
      </trkpt>
      <trkpt lat="50.49286" lon="3.75247">
        <ele>112.64</ele>
        <time>2020-11-08T08:58:34.000Z</time>
      </trkpt>
      <trkpt lat="50.49284" lon="3.75256">
        <ele>113.02</ele>
        <time>2020-11-08T08:58:35.000Z</time>
      </trkpt>
      <trkpt lat="50.49284" lon="3.75264">
        <ele>112.79</ele>
        <time>2020-11-08T08:58:36.000Z</time>
      </trkpt>
      <trkpt lat="50.49281" lon="3.75273">
        <ele>112.35</ele>
        <time>2020-11-08T08:58:37.000Z</time>
      </trkpt>
      <trkpt lat="50.4928" lon="3.75282">
        <ele>111.99</ele>
        <time>2020-11-08T08:58:38.000Z</time>
      </trkpt>
      <trkpt lat="50.49277" lon="3.75298">
        <ele>111.6</ele>
        <time>2020-11-08T08:58:40.000Z</time>
      </trkpt>
      <trkpt lat="50.49275" lon="3.75308">
        <ele>111.32</ele>
        <time>2020-11-08T08:58:41.000Z</time>
      </trkpt>
      <trkpt lat="50.49275" lon="3.75338">
        <ele>112.18</ele>
        <time>2020-11-08T08:58:44.000Z</time>
      </trkpt>
      <trkpt lat="50.49277" lon="3.75349">
        <ele>111.64</ele>
        <time>2020-11-08T08:58:45.000Z</time>
      </trkpt>
      <trkpt lat="50.49279" lon="3.7536">
        <ele>111.84</ele>
        <time>2020-11-08T08:58:46.000Z</time>
      </trkpt>
      <trkpt lat="50.49281" lon="3.75373">
        <ele>113.52</ele>
        <time>2020-11-08T08:58:47.000Z</time>
      </trkpt>
      <trkpt lat="50.49283" lon="3.75384">
        <ele>113.55</ele>
        <time>2020-11-08T08:58:48.000Z</time>
      </trkpt>
      <trkpt lat="50.49283" lon="3.75395">
        <ele>113.53</ele>
        <time>2020-11-08T08:58:49.000Z</time>
      </trkpt>
      <trkpt lat="50.49283" lon="3.75408">
        <ele>114.33</ele>
        <time>2020-11-08T08:58:50.000Z</time>
      </trkpt>
      <trkpt lat="50.49285" lon="3.75417">
        <ele>113.01</ele>
        <time>2020-11-08T08:58:51.000Z</time>
      </trkpt>
      <trkpt lat="50.49287" lon="3.75426">
        <ele>112.66</ele>
        <time>2020-11-08T08:58:52.000Z</time>
      </trkpt>
      <trkpt lat="50.49293" lon="3.75432">
        <ele>112.36</ele>
        <time>2020-11-08T08:58:53.000Z</time>
      </trkpt>
      <trkpt lat="50.49298" lon="3.75436">
        <ele>112.05</ele>
        <time>2020-11-08T08:58:54.000Z</time>
      </trkpt>
      <trkpt lat="50.49302" lon="3.75442">
        <ele>112.97</ele>
        <time>2020-11-08T08:58:55.000Z</time>
      </trkpt>
      <trkpt lat="50.49304" lon="3.7545">
        <ele>113.78</ele>
        <time>2020-11-08T08:58:56.000Z</time>
      </trkpt>
      <trkpt lat="50.49307" lon="3.75459">
        <ele>114.02</ele>
        <time>2020-11-08T08:58:57.000Z</time>
      </trkpt>
      <trkpt lat="50.49311" lon="3.7547">
        <ele>113.66</ele>
        <time>2020-11-08T08:58:58.000Z</time>
      </trkpt>
      <trkpt lat="50.49316" lon="3.75482">
        <ele>113.75</ele>
        <time>2020-11-08T08:58:59.000Z</time>
      </trkpt>
      <trkpt lat="50.49319" lon="3.75493">
        <ele>113.86</ele>
        <time>2020-11-08T08:59:00.000Z</time>
      </trkpt>
      <trkpt lat="50.49322" lon="3.75503">
        <ele>114.98</ele>
        <time>2020-11-08T08:59:01.000Z</time>
      </trkpt>
      <trkpt lat="50.4932" lon="3.75512">
        <ele>113.77</ele>
        <time>2020-11-08T08:59:02.000Z</time>
      </trkpt>
      <trkpt lat="50.49319" lon="3.75521">
        <ele>115.69</ele>
        <time>2020-11-08T08:59:04.000Z</time>
      </trkpt>
      <trkpt lat="50.49317" lon="3.75532">
        <ele>116.67</ele>
        <time>2020-11-08T08:59:05.000Z</time>
      </trkpt>
      <trkpt lat="50.49317" lon="3.7554">
        <ele>116.48</ele>
        <time>2020-11-08T08:59:06.000Z</time>
      </trkpt>
      <trkpt lat="50.49315" lon="3.75552">
        <ele>116.58</ele>
        <time>2020-11-08T08:59:07.000Z</time>
      </trkpt>
      <trkpt lat="50.49313" lon="3.75562">
        <ele>116.45</ele>
        <time>2020-11-08T08:59:08.000Z</time>
      </trkpt>
      <trkpt lat="50.49313" lon="3.75574">
        <ele>115.73</ele>
        <time>2020-11-08T08:59:09.000Z</time>
      </trkpt>
      <trkpt lat="50.49312" lon="3.75586">
        <ele>115.8</ele>
        <time>2020-11-08T08:59:10.000Z</time>
      </trkpt>
      <trkpt lat="50.49314" lon="3.75598">
        <ele>114.75</ele>
        <time>2020-11-08T08:59:11.000Z</time>
      </trkpt>
      <trkpt lat="50.49319" lon="3.75606">
        <ele>112.73</ele>
        <time>2020-11-08T08:59:12.000Z</time>
      </trkpt>
      <trkpt lat="50.49325" lon="3.75614">
        <ele>114.44</ele>
        <time>2020-11-08T08:59:13.000Z</time>
      </trkpt>
      <trkpt lat="50.49328" lon="3.75624">
        <ele>114.07</ele>
        <time>2020-11-08T08:59:14.000Z</time>
      </trkpt>
      <trkpt lat="50.49331" lon="3.75635">
        <ele>113.52</ele>
        <time>2020-11-08T08:59:15.000Z</time>
      </trkpt>
      <trkpt lat="50.49334" lon="3.75645">
        <ele>113.05</ele>
        <time>2020-11-08T08:59:16.000Z</time>
      </trkpt>
      <trkpt lat="50.49337" lon="3.75652">
        <ele>111.51</ele>
        <time>2020-11-08T08:59:17.000Z</time>
      </trkpt>
      <trkpt lat="50.49345" lon="3.75661">
        <ele>113.51</ele>
        <time>2020-11-08T08:59:18.000Z</time>
      </trkpt>
      <trkpt lat="50.49351" lon="3.75668">
        <ele>113.09</ele>
        <time>2020-11-08T08:59:19.000Z</time>
      </trkpt>
      <trkpt lat="50.49358" lon="3.75674">
        <ele>112.4</ele>
        <time>2020-11-08T08:59:20.000Z</time>
      </trkpt>
      <trkpt lat="50.49364" lon="3.75679">
        <ele>111.03</ele>
        <time>2020-11-08T08:59:21.000Z</time>
      </trkpt>
      <trkpt lat="50.4937" lon="3.75684">
        <ele>110.74</ele>
        <time>2020-11-08T08:59:22.000Z</time>
      </trkpt>
      <trkpt lat="50.49376" lon="3.75689">
        <ele>112.28</ele>
        <time>2020-11-08T08:59:23.000Z</time>
      </trkpt>
      <trkpt lat="50.49378" lon="3.75698">
        <ele>112.48</ele>
        <time>2020-11-08T08:59:24.000Z</time>
      </trkpt>
      <trkpt lat="50.49381" lon="3.75707">
        <ele>112.91</ele>
        <time>2020-11-08T08:59:25.000Z</time>
      </trkpt>
      <trkpt lat="50.49384" lon="3.75716">
        <ele>113.32</ele>
        <time>2020-11-08T08:59:26.000Z</time>
      </trkpt>
      <trkpt lat="50.49385" lon="3.75727">
        <ele>113.17</ele>
        <time>2020-11-08T08:59:27.000Z</time>
      </trkpt>
      <trkpt lat="50.49385" lon="3.7574">
        <ele>113.13</ele>
        <time>2020-11-08T08:59:28.000Z</time>
      </trkpt>
      <trkpt lat="50.49386" lon="3.7575">
        <ele>111.18</ele>
        <time>2020-11-08T08:59:29.000Z</time>
      </trkpt>
      <trkpt lat="50.49386" lon="3.75761">
        <ele>110.71</ele>
        <time>2020-11-08T08:59:30.000Z</time>
      </trkpt>
      <trkpt lat="50.49387" lon="3.75773">
        <ele>110.55</ele>
        <time>2020-11-08T08:59:31.000Z</time>
      </trkpt>
      <trkpt lat="50.49389" lon="3.75782">
        <ele>110.47</ele>
        <time>2020-11-08T08:59:32.000Z</time>
      </trkpt>
      <trkpt lat="50.49388" lon="3.7579">
        <ele>110.27</ele>
        <time>2020-11-08T08:59:33.000Z</time>
      </trkpt>
      <trkpt lat="50.49384" lon="3.75797">
        <ele>109.95</ele>
        <time>2020-11-08T08:59:34.000Z</time>
      </trkpt>
      <trkpt lat="50.49379" lon="3.75803">
        <ele>109.83</ele>
        <time>2020-11-08T08:59:35.000Z</time>
      </trkpt>
      <trkpt lat="50.49373" lon="3.75812">
        <ele>111.83</ele>
        <time>2020-11-08T08:59:36.000Z</time>
      </trkpt>
      <trkpt lat="50.49368" lon="3.75822">
        <ele>111.61</ele>
        <time>2020-11-08T08:59:37.000Z</time>
      </trkpt>
      <trkpt lat="50.49364" lon="3.75833">
        <ele>111.84</ele>
        <time>2020-11-08T08:59:38.000Z</time>
      </trkpt>
      <trkpt lat="50.49358" lon="3.75843">
        <ele>111.99</ele>
        <time>2020-11-08T08:59:39.000Z</time>
      </trkpt>
      <trkpt lat="50.49352" lon="3.75853">
        <ele>112.88</ele>
        <time>2020-11-08T08:59:40.000Z</time>
      </trkpt>
      <trkpt lat="50.49347" lon="3.75863">
        <ele>112.68</ele>
        <time>2020-11-08T08:59:41.000Z</time>
      </trkpt>
      <trkpt lat="50.49342" lon="3.75872">
        <ele>112.46</ele>
        <time>2020-11-08T08:59:42.000Z</time>
      </trkpt>
      <trkpt lat="50.49336" lon="3.75879">
        <ele>111.67</ele>
        <time>2020-11-08T08:59:43.000Z</time>
      </trkpt>
      <trkpt lat="50.49332" lon="3.75888">
        <ele>110.98</ele>
        <time>2020-11-08T08:59:44.000Z</time>
      </trkpt>
      <trkpt lat="50.49327" lon="3.75897">
        <ele>111.19</ele>
        <time>2020-11-08T08:59:45.000Z</time>
      </trkpt>
      <trkpt lat="50.49321" lon="3.75907">
        <ele>111.89</ele>
        <time>2020-11-08T08:59:46.000Z</time>
      </trkpt>
      <trkpt lat="50.49315" lon="3.75915">
        <ele>112</ele>
        <time>2020-11-08T08:59:47.000Z</time>
      </trkpt>
      <trkpt lat="50.49309" lon="3.75922">
        <ele>112.36</ele>
        <time>2020-11-08T08:59:48.000Z</time>
      </trkpt>
      <trkpt lat="50.49303" lon="3.75929">
        <ele>111.23</ele>
        <time>2020-11-08T08:59:49.000Z</time>
      </trkpt>
      <trkpt lat="50.49298" lon="3.75939">
        <ele>111.17</ele>
        <time>2020-11-08T08:59:50.000Z</time>
      </trkpt>
      <trkpt lat="50.49293" lon="3.75947">
        <ele>110.91</ele>
        <time>2020-11-08T08:59:51.000Z</time>
      </trkpt>
      <trkpt lat="50.4929" lon="3.75957">
        <ele>111.52</ele>
        <time>2020-11-08T08:59:52.000Z</time>
      </trkpt>
      <trkpt lat="50.49287" lon="3.75966">
        <ele>110.89</ele>
        <time>2020-11-08T08:59:53.000Z</time>
      </trkpt>
      <trkpt lat="50.49282" lon="3.75974">
        <ele>110.72</ele>
        <time>2020-11-08T08:59:54.000Z</time>
      </trkpt>
      <trkpt lat="50.49277" lon="3.75984">
        <ele>111.72</ele>
        <time>2020-11-08T08:59:55.000Z</time>
      </trkpt>
      <trkpt lat="50.4927" lon="3.7599">
        <ele>111.28</ele>
        <time>2020-11-08T08:59:56.000Z</time>
      </trkpt>
      <trkpt lat="50.49263" lon="3.75996">
        <ele>111.71</ele>
        <time>2020-11-08T08:59:57.000Z</time>
      </trkpt>
      <trkpt lat="50.49257" lon="3.76002">
        <ele>110.48</ele>
        <time>2020-11-08T08:59:58.000Z</time>
      </trkpt>
      <trkpt lat="50.49253" lon="3.76011">
        <ele>110.28</ele>
        <time>2020-11-08T08:59:59.000Z</time>
      </trkpt>
      <trkpt lat="50.49247" lon="3.7602">
        <ele>109.64</ele>
        <time>2020-11-08T09:00:00.000Z</time>
      </trkpt>
      <trkpt lat="50.49242" lon="3.76031">
        <ele>108.37</ele>
        <time>2020-11-08T09:00:01.000Z</time>
      </trkpt>
      <trkpt lat="50.49239" lon="3.7604">
        <ele>108.42</ele>
        <time>2020-11-08T09:00:02.000Z</time>
      </trkpt>
      <trkpt lat="50.49233" lon="3.76044">
        <ele>108.68</ele>
        <time>2020-11-08T09:00:04.000Z</time>
      </trkpt>
      <trkpt lat="50.49227" lon="3.76046">
        <ele>109.07</ele>
        <time>2020-11-08T09:00:05.000Z</time>
      </trkpt>
      <trkpt lat="50.49223" lon="3.76048">
        <ele>109.16</ele>
        <time>2020-11-08T09:00:06.000Z</time>
      </trkpt>
      <trkpt lat="50.49216" lon="3.76053">
        <ele>108.34</ele>
        <time>2020-11-08T09:00:07.000Z</time>
      </trkpt>
      <trkpt lat="50.49209" lon="3.76056">
        <ele>107.26</ele>
        <time>2020-11-08T09:00:08.000Z</time>
      </trkpt>
      <trkpt lat="50.49204" lon="3.76063">
        <ele>106.63</ele>
        <time>2020-11-08T09:00:09.000Z</time>
      </trkpt>
      <trkpt lat="50.492" lon="3.76071">
        <ele>105.96</ele>
        <time>2020-11-08T09:00:10.000Z</time>
      </trkpt>
      <trkpt lat="50.49198" lon="3.7608">
        <ele>104.77</ele>
        <time>2020-11-08T09:00:11.000Z</time>
      </trkpt>
      <trkpt lat="50.49195" lon="3.76089">
        <ele>104.16</ele>
        <time>2020-11-08T09:00:12.000Z</time>
      </trkpt>
      <trkpt lat="50.49191" lon="3.76097">
        <ele>104.02</ele>
        <time>2020-11-08T09:00:13.000Z</time>
      </trkpt>
      <trkpt lat="50.49185" lon="3.76102">
        <ele>103.91</ele>
        <time>2020-11-08T09:00:14.000Z</time>
      </trkpt>
      <trkpt lat="50.49178" lon="3.76104">
        <ele>105.08</ele>
        <time>2020-11-08T09:00:15.000Z</time>
      </trkpt>
      <trkpt lat="50.49171" lon="3.76105">
        <ele>104.47</ele>
        <time>2020-11-08T09:00:16.000Z</time>
      </trkpt>
      <trkpt lat="50.49161" lon="3.76105">
        <ele>102.87</ele>
        <time>2020-11-08T09:00:17.000Z</time>
      </trkpt>
      <trkpt lat="50.49154" lon="3.76104">
        <ele>102.92</ele>
        <time>2020-11-08T09:00:18.000Z</time>
      </trkpt>
      <trkpt lat="50.49147" lon="3.76105">
        <ele>104.37</ele>
        <time>2020-11-08T09:00:19.000Z</time>
      </trkpt>
      <trkpt lat="50.49143" lon="3.76109">
        <ele>106.14</ele>
        <time>2020-11-08T09:00:20.000Z</time>
      </trkpt>
      <trkpt lat="50.49139" lon="3.76113">
        <ele>105.74</ele>
        <time>2020-11-08T09:00:21.000Z</time>
      </trkpt>
      <trkpt lat="50.49136" lon="3.76123">
        <ele>105.01</ele>
        <time>2020-11-08T09:00:22.000Z</time>
      </trkpt>
      <trkpt lat="50.49131" lon="3.76128">
        <ele>103.78</ele>
        <time>2020-11-08T09:00:23.000Z</time>
      </trkpt>
      <trkpt lat="50.49125" lon="3.76135">
        <ele>103.32</ele>
        <time>2020-11-08T09:00:24.000Z</time>
      </trkpt>
      <trkpt lat="50.49119" lon="3.76141">
        <ele>103.42</ele>
        <time>2020-11-08T09:00:25.000Z</time>
      </trkpt>
      <trkpt lat="50.49113" lon="3.76147">
        <ele>102.87</ele>
        <time>2020-11-08T09:00:26.000Z</time>
      </trkpt>
      <trkpt lat="50.49108" lon="3.76153">
        <ele>101.66</ele>
        <time>2020-11-08T09:00:27.000Z</time>
      </trkpt>
      <trkpt lat="50.49101" lon="3.76157">
        <ele>101.89</ele>
        <time>2020-11-08T09:00:28.000Z</time>
      </trkpt>
      <trkpt lat="50.49096" lon="3.76157">
        <ele>101.33</ele>
        <time>2020-11-08T09:00:29.000Z</time>
      </trkpt>
      <trkpt lat="50.49089" lon="3.76158">
        <ele>101.08</ele>
        <time>2020-11-08T09:00:30.000Z</time>
      </trkpt>
      <trkpt lat="50.49082" lon="3.7616">
        <ele>99.94</ele>
        <time>2020-11-08T09:00:31.000Z</time>
      </trkpt>
      <trkpt lat="50.49074" lon="3.76167">
        <ele>99.01</ele>
        <time>2020-11-08T09:00:32.000Z</time>
      </trkpt>
      <trkpt lat="50.49066" lon="3.76171">
        <ele>98.69</ele>
        <time>2020-11-08T09:00:33.000Z</time>
      </trkpt>
      <trkpt lat="50.49056" lon="3.76173">
        <ele>99.2</ele>
        <time>2020-11-08T09:00:34.000Z</time>
      </trkpt>
      <trkpt lat="50.49047" lon="3.76174">
        <ele>98.83</ele>
        <time>2020-11-08T09:00:35.000Z</time>
      </trkpt>
      <trkpt lat="50.49037" lon="3.76169">
        <ele>98.25</ele>
        <time>2020-11-08T09:00:36.000Z</time>
      </trkpt>
      <trkpt lat="50.49027" lon="3.76164">
        <ele>99.92</ele>
        <time>2020-11-08T09:00:37.000Z</time>
      </trkpt>
      <trkpt lat="50.4902" lon="3.76159">
        <ele>100.41</ele>
        <time>2020-11-08T09:00:38.000Z</time>
      </trkpt>
      <trkpt lat="50.49014" lon="3.76161">
        <ele>100.41</ele>
        <time>2020-11-08T09:00:39.000Z</time>
      </trkpt>
      <trkpt lat="50.49007" lon="3.76162">
        <ele>100.72</ele>
        <time>2020-11-08T09:00:40.000Z</time>
      </trkpt>
      <trkpt lat="50.49" lon="3.76162">
        <ele>100.03</ele>
        <time>2020-11-08T09:00:41.000Z</time>
      </trkpt>
      <trkpt lat="50.48991" lon="3.76156">
        <ele>99.58</ele>
        <time>2020-11-08T09:00:42.000Z</time>
      </trkpt>
      <trkpt lat="50.48983" lon="3.76157">
        <ele>98</ele>
        <time>2020-11-08T09:00:43.000Z</time>
      </trkpt>
      <trkpt lat="50.48974" lon="3.76157">
        <ele>97.66</ele>
        <time>2020-11-08T09:00:44.000Z</time>
      </trkpt>
      <trkpt lat="50.48966" lon="3.76158">
        <ele>104.55</ele>
        <time>2020-11-08T09:00:45.000Z</time>
      </trkpt>
      <trkpt lat="50.48956" lon="3.7616">
        <ele>97.9</ele>
        <time>2020-11-08T09:00:46.000Z</time>
      </trkpt>
      <trkpt lat="50.48949" lon="3.7616">
        <ele>97.91</ele>
        <time>2020-11-08T09:00:47.000Z</time>
      </trkpt>
      <trkpt lat="50.4894" lon="3.76159">
        <ele>98.01</ele>
        <time>2020-11-08T09:00:48.000Z</time>
      </trkpt>
      <trkpt lat="50.48933" lon="3.76161">
        <ele>97.52</ele>
        <time>2020-11-08T09:00:49.000Z</time>
      </trkpt>
      <trkpt lat="50.48926" lon="3.76161">
        <ele>98.11</ele>
        <time>2020-11-08T09:00:50.000Z</time>
      </trkpt>
      <trkpt lat="50.48919" lon="3.76161">
        <ele>98.19</ele>
        <time>2020-11-08T09:00:51.000Z</time>
      </trkpt>
      <trkpt lat="50.48913" lon="3.76154">
        <ele>97.31</ele>
        <time>2020-11-08T09:00:52.000Z</time>
      </trkpt>
      <trkpt lat="50.48907" lon="3.76147">
        <ele>97.75</ele>
        <time>2020-11-08T09:00:53.000Z</time>
      </trkpt>
      <trkpt lat="50.48899" lon="3.76142">
        <ele>97.82</ele>
        <time>2020-11-08T09:00:54.000Z</time>
      </trkpt>
      <trkpt lat="50.48893" lon="3.76136">
        <ele>96.48</ele>
        <time>2020-11-08T09:00:55.000Z</time>
      </trkpt>
      <trkpt lat="50.48887" lon="3.7613">
        <ele>95.73</ele>
        <time>2020-11-08T09:00:56.000Z</time>
      </trkpt>
      <trkpt lat="50.4888" lon="3.76124">
        <ele>96.36</ele>
        <time>2020-11-08T09:00:57.000Z</time>
      </trkpt>
      <trkpt lat="50.48873" lon="3.7612">
        <ele>96.37</ele>
        <time>2020-11-08T09:00:58.000Z</time>
      </trkpt>
      <trkpt lat="50.48865" lon="3.76118">
        <ele>95.8</ele>
        <time>2020-11-08T09:00:59.000Z</time>
      </trkpt>
      <trkpt lat="50.48854" lon="3.76114">
        <ele>97.05</ele>
        <time>2020-11-08T09:01:00.000Z</time>
      </trkpt>
      <trkpt lat="50.48844" lon="3.7611">
        <ele>96.92</ele>
        <time>2020-11-08T09:01:01.000Z</time>
      </trkpt>
      <trkpt lat="50.48834" lon="3.76106">
        <ele>96.26</ele>
        <time>2020-11-08T09:01:02.000Z</time>
      </trkpt>
      <trkpt lat="50.48825" lon="3.76102">
        <ele>96.07</ele>
        <time>2020-11-08T09:01:03.000Z</time>
      </trkpt>
      <trkpt lat="50.48817" lon="3.761">
        <ele>96.44</ele>
        <time>2020-11-08T09:01:04.000Z</time>
      </trkpt>
      <trkpt lat="50.4881" lon="3.76102">
        <ele>94.29</ele>
        <time>2020-11-08T09:01:05.000Z</time>
      </trkpt>
      <trkpt lat="50.48801" lon="3.76104">
        <ele>92.36</ele>
        <time>2020-11-08T09:01:06.000Z</time>
      </trkpt>
      <trkpt lat="50.48792" lon="3.76107">
        <ele>91.71</ele>
        <time>2020-11-08T09:01:07.000Z</time>
      </trkpt>
      <trkpt lat="50.48783" lon="3.7611">
        <ele>91.86</ele>
        <time>2020-11-08T09:01:08.000Z</time>
      </trkpt>
      <trkpt lat="50.48773" lon="3.76113">
        <ele>91.4</ele>
        <time>2020-11-08T09:01:09.000Z</time>
      </trkpt>
      <trkpt lat="50.48765" lon="3.76113">
        <ele>91.54</ele>
        <time>2020-11-08T09:01:10.000Z</time>
      </trkpt>
      <trkpt lat="50.48758" lon="3.76112">
        <ele>91.32</ele>
        <time>2020-11-08T09:01:11.000Z</time>
      </trkpt>
      <trkpt lat="50.4875" lon="3.7611">
        <ele>91.17</ele>
        <time>2020-11-08T09:01:12.000Z</time>
      </trkpt>
      <trkpt lat="50.48741" lon="3.76112">
        <ele>91.39</ele>
        <time>2020-11-08T09:01:13.000Z</time>
      </trkpt>
      <trkpt lat="50.48732" lon="3.76114">
        <ele>91.19</ele>
        <time>2020-11-08T09:01:14.000Z</time>
      </trkpt>
      <trkpt lat="50.48723" lon="3.76115">
        <ele>91.07</ele>
        <time>2020-11-08T09:01:15.000Z</time>
      </trkpt>
      <trkpt lat="50.48714" lon="3.76116">
        <ele>91.52</ele>
        <time>2020-11-08T09:01:16.000Z</time>
      </trkpt>
      <trkpt lat="50.48706" lon="3.76116">
        <ele>91.43</ele>
        <time>2020-11-08T09:01:17.000Z</time>
      </trkpt>
      <trkpt lat="50.48699" lon="3.76117">
        <ele>91.06</ele>
        <time>2020-11-08T09:01:18.000Z</time>
      </trkpt>
      <trkpt lat="50.48692" lon="3.76118">
        <ele>91.09</ele>
        <time>2020-11-08T09:01:19.000Z</time>
      </trkpt>
      <trkpt lat="50.48686" lon="3.76119">
        <ele>90.82</ele>
        <time>2020-11-08T09:01:20.000Z</time>
      </trkpt>
      <trkpt lat="50.4868" lon="3.7612">
        <ele>90.47</ele>
        <time>2020-11-08T09:01:21.000Z</time>
      </trkpt>
      <trkpt lat="50.48675" lon="3.76121">
        <ele>90.4</ele>
        <time>2020-11-08T09:01:22.000Z</time>
      </trkpt>
      <trkpt lat="50.48669" lon="3.76122">
        <ele>90.68</ele>
        <time>2020-11-08T09:01:23.000Z</time>
      </trkpt>
      <trkpt lat="50.48663" lon="3.76122">
        <ele>90.6</ele>
        <time>2020-11-08T09:01:24.000Z</time>
      </trkpt>
      <trkpt lat="50.48657" lon="3.76121">
        <ele>90.67</ele>
        <time>2020-11-08T09:01:25.000Z</time>
      </trkpt>
      <trkpt lat="50.48651" lon="3.76121">
        <ele>90.98</ele>
        <time>2020-11-08T09:01:26.000Z</time>
      </trkpt>
      <trkpt lat="50.48646" lon="3.76122">
        <ele>91.26</ele>
        <time>2020-11-08T09:01:27.000Z</time>
      </trkpt>
      <trkpt lat="50.48641" lon="3.76121">
        <ele>90.93</ele>
        <time>2020-11-08T09:01:28.000Z</time>
      </trkpt>
      <trkpt lat="50.48636" lon="3.76121">
        <ele>91.35</ele>
        <time>2020-11-08T09:01:29.000Z</time>
      </trkpt>
      <trkpt lat="50.48632" lon="3.76117">
        <ele>90.53</ele>
        <time>2020-11-08T09:01:30.000Z</time>
      </trkpt>
      <trkpt lat="50.48626" lon="3.76114">
        <ele>89.98</ele>
        <time>2020-11-08T09:01:31.000Z</time>
      </trkpt>
      <trkpt lat="50.4862" lon="3.7611">
        <ele>90.5</ele>
        <time>2020-11-08T09:01:32.000Z</time>
      </trkpt>
      <trkpt lat="50.48615" lon="3.76106">
        <ele>91.14</ele>
        <time>2020-11-08T09:01:33.000Z</time>
      </trkpt>
      <trkpt lat="50.48611" lon="3.76102">
        <ele>91.55</ele>
        <time>2020-11-08T09:01:34.000Z</time>
      </trkpt>
      <trkpt lat="50.48605" lon="3.76094">
        <ele>91.73</ele>
        <time>2020-11-08T09:01:36.000Z</time>
      </trkpt>
      <trkpt lat="50.486" lon="3.76086">
        <ele>92.57</ele>
        <time>2020-11-08T09:01:38.000Z</time>
      </trkpt>
      <trkpt lat="50.48595" lon="3.76081">
        <ele>93.16</ele>
        <time>2020-11-08T09:01:40.000Z</time>
      </trkpt>
      <trkpt lat="50.48591" lon="3.76078">
        <ele>93.58</ele>
        <time>2020-11-08T09:01:45.000Z</time>
      </trkpt>
      <trkpt lat="50.48591" lon="3.76078">
        <ele>93.58</ele>
        <time>2020-11-08T09:01:45.001Z</time>
      </trkpt>
      <trkpt lat="50.48587" lon="3.76075">
        <ele>94.99</ele>
        <time>2020-11-08T09:03:46.000Z</time>
      </trkpt>
      <trkpt lat="50.48583" lon="3.76072">
        <ele>94.92</ele>
        <time>2020-11-08T09:03:48.000Z</time>
      </trkpt>
      <trkpt lat="50.48578" lon="3.76068">
        <ele>94.91</ele>
        <time>2020-11-08T09:03:50.000Z</time>
      </trkpt>
      <trkpt lat="50.48571" lon="3.76063">
        <ele>94.35</ele>
        <time>2020-11-08T09:03:52.000Z</time>
      </trkpt>
      <trkpt lat="50.48562" lon="3.76061">
        <ele>94.22</ele>
        <time>2020-11-08T09:03:54.000Z</time>
      </trkpt>
      <trkpt lat="50.48558" lon="3.7606">
        <ele>94.56</ele>
        <time>2020-11-08T09:03:55.000Z</time>
      </trkpt>
      <trkpt lat="50.48549" lon="3.76059">
        <ele>94.05</ele>
        <time>2020-11-08T09:03:57.000Z</time>
      </trkpt>
      <trkpt lat="50.48544" lon="3.76059">
        <ele>94.02</ele>
        <time>2020-11-08T09:03:58.000Z</time>
      </trkpt>
      <trkpt lat="50.48535" lon="3.76059">
        <ele>93.71</ele>
        <time>2020-11-08T09:04:00.000Z</time>
      </trkpt>
      <trkpt lat="50.48531" lon="3.76059">
        <ele>93.25</ele>
        <time>2020-11-08T09:04:01.000Z</time>
      </trkpt>
      <trkpt lat="50.48526" lon="3.76058">
        <ele>93</ele>
        <time>2020-11-08T09:04:02.000Z</time>
      </trkpt>
      <trkpt lat="50.48521" lon="3.76057">
        <ele>92.85</ele>
        <time>2020-11-08T09:04:03.000Z</time>
      </trkpt>
      <trkpt lat="50.48516" lon="3.76055">
        <ele>92.64</ele>
        <time>2020-11-08T09:04:04.000Z</time>
      </trkpt>
      <trkpt lat="50.48512" lon="3.76054">
        <ele>92.57</ele>
        <time>2020-11-08T09:04:05.000Z</time>
      </trkpt>
      <trkpt lat="50.48507" lon="3.76052">
        <ele>92.64</ele>
        <time>2020-11-08T09:04:06.000Z</time>
      </trkpt>
      <trkpt lat="50.48502" lon="3.7605">
        <ele>92.28</ele>
        <time>2020-11-08T09:04:07.000Z</time>
      </trkpt>
      <trkpt lat="50.48498" lon="3.76048">
        <ele>92.01</ele>
        <time>2020-11-08T09:04:08.000Z</time>
      </trkpt>
      <trkpt lat="50.48493" lon="3.76045">
        <ele>91.78</ele>
        <time>2020-11-08T09:04:09.000Z</time>
      </trkpt>
      <trkpt lat="50.48489" lon="3.76042">
        <ele>91.94</ele>
        <time>2020-11-08T09:04:10.000Z</time>
      </trkpt>
      <trkpt lat="50.48484" lon="3.76039">
        <ele>91.62</ele>
        <time>2020-11-08T09:04:11.000Z</time>
      </trkpt>
      <trkpt lat="50.4848" lon="3.76036">
        <ele>91.99</ele>
        <time>2020-11-08T09:04:12.000Z</time>
      </trkpt>
      <trkpt lat="50.48476" lon="3.76032">
        <ele>92.16</ele>
        <time>2020-11-08T09:04:13.000Z</time>
      </trkpt>
      <trkpt lat="50.48471" lon="3.76027">
        <ele>92.23</ele>
        <time>2020-11-08T09:04:14.000Z</time>
      </trkpt>
      <trkpt lat="50.48466" lon="3.76022">
        <ele>92.07</ele>
        <time>2020-11-08T09:04:15.000Z</time>
      </trkpt>
      <trkpt lat="50.48462" lon="3.76016">
        <ele>91.74</ele>
        <time>2020-11-08T09:04:16.000Z</time>
      </trkpt>
      <trkpt lat="50.48458" lon="3.7601">
        <ele>91.66</ele>
        <time>2020-11-08T09:04:17.000Z</time>
      </trkpt>
      <trkpt lat="50.48454" lon="3.76004">
        <ele>91.56</ele>
        <time>2020-11-08T09:04:18.000Z</time>
      </trkpt>
      <trkpt lat="50.4845" lon="3.75996">
        <ele>91.49</ele>
        <time>2020-11-08T09:04:19.000Z</time>
      </trkpt>
      <trkpt lat="50.48446" lon="3.75988">
        <ele>91.48</ele>
        <time>2020-11-08T09:04:20.000Z</time>
      </trkpt>
      <trkpt lat="50.48442" lon="3.75981">
        <ele>91.73</ele>
        <time>2020-11-08T09:04:21.000Z</time>
      </trkpt>
      <trkpt lat="50.48438" lon="3.75973">
        <ele>91.74</ele>
        <time>2020-11-08T09:04:22.000Z</time>
      </trkpt>
      <trkpt lat="50.48434" lon="3.75966">
        <ele>91.67</ele>
        <time>2020-11-08T09:04:23.000Z</time>
      </trkpt>
      <trkpt lat="50.4843" lon="3.75959">
        <ele>91.55</ele>
        <time>2020-11-08T09:04:24.000Z</time>
      </trkpt>
      <trkpt lat="50.48426" lon="3.75951">
        <ele>91.62</ele>
        <time>2020-11-08T09:04:25.000Z</time>
      </trkpt>
      <trkpt lat="50.48423" lon="3.75944">
        <ele>91.46</ele>
        <time>2020-11-08T09:04:26.000Z</time>
      </trkpt>
      <trkpt lat="50.4842" lon="3.75936">
        <ele>91.22</ele>
        <time>2020-11-08T09:04:27.000Z</time>
      </trkpt>
      <trkpt lat="50.48417" lon="3.75927">
        <ele>91.22</ele>
        <time>2020-11-08T09:04:28.000Z</time>
      </trkpt>
      <trkpt lat="50.48414" lon="3.75919">
        <ele>91.41</ele>
        <time>2020-11-08T09:04:29.000Z</time>
      </trkpt>
      <trkpt lat="50.48411" lon="3.75911">
        <ele>91.05</ele>
        <time>2020-11-08T09:04:30.000Z</time>
      </trkpt>
      <trkpt lat="50.48409" lon="3.75903">
        <ele>91.05</ele>
        <time>2020-11-08T09:04:31.000Z</time>
      </trkpt>
      <trkpt lat="50.48406" lon="3.75894">
        <ele>91.09</ele>
        <time>2020-11-08T09:04:32.000Z</time>
      </trkpt>
      <trkpt lat="50.48403" lon="3.75886">
        <ele>90.98</ele>
        <time>2020-11-08T09:04:33.000Z</time>
      </trkpt>
      <trkpt lat="50.484" lon="3.75878">
        <ele>90.91</ele>
        <time>2020-11-08T09:04:34.000Z</time>
      </trkpt>
      <trkpt lat="50.48398" lon="3.7587">
        <ele>91.39</ele>
        <time>2020-11-08T09:04:35.000Z</time>
      </trkpt>
      <trkpt lat="50.48396" lon="3.75862">
        <ele>91.71</ele>
        <time>2020-11-08T09:04:36.000Z</time>
      </trkpt>
      <trkpt lat="50.48393" lon="3.75851">
        <ele>91.44</ele>
        <time>2020-11-08T09:04:38.000Z</time>
      </trkpt>
      <trkpt lat="50.48387" lon="3.75852">
        <ele>90.3</ele>
        <time>2020-11-08T09:04:40.000Z</time>
      </trkpt>
      <trkpt lat="50.48383" lon="3.75865">
        <ele>90.22</ele>
        <time>2020-11-08T09:04:42.000Z</time>
      </trkpt>
      <trkpt lat="50.48382" lon="3.75873">
        <ele>89.77</ele>
        <time>2020-11-08T09:04:43.000Z</time>
      </trkpt>
      <trkpt lat="50.4838" lon="3.75883">
        <ele>89.5</ele>
        <time>2020-11-08T09:04:44.000Z</time>
      </trkpt>
      <trkpt lat="50.48377" lon="3.75893">
        <ele>89.23</ele>
        <time>2020-11-08T09:04:45.000Z</time>
      </trkpt>
      <trkpt lat="50.48374" lon="3.75903">
        <ele>88.79</ele>
        <time>2020-11-08T09:04:46.000Z</time>
      </trkpt>
      <trkpt lat="50.48371" lon="3.75912">
        <ele>88.57</ele>
        <time>2020-11-08T09:04:47.000Z</time>
      </trkpt>
      <trkpt lat="50.48366" lon="3.75921">
        <ele>88.3</ele>
        <time>2020-11-08T09:04:48.000Z</time>
      </trkpt>
      <trkpt lat="50.48362" lon="3.7593">
        <ele>87.38</ele>
        <time>2020-11-08T09:04:49.000Z</time>
      </trkpt>
      <trkpt lat="50.48358" lon="3.7594">
        <ele>86.25</ele>
        <time>2020-11-08T09:04:50.000Z</time>
      </trkpt>
      <trkpt lat="50.48354" lon="3.75951">
        <ele>85.82</ele>
        <time>2020-11-08T09:04:51.000Z</time>
      </trkpt>
      <trkpt lat="50.48351" lon="3.75962">
        <ele>85.19</ele>
        <time>2020-11-08T09:04:52.000Z</time>
      </trkpt>
      <trkpt lat="50.48347" lon="3.75973">
        <ele>85.04</ele>
        <time>2020-11-08T09:04:53.000Z</time>
      </trkpt>
      <trkpt lat="50.48344" lon="3.75984">
        <ele>84.57</ele>
        <time>2020-11-08T09:04:54.000Z</time>
      </trkpt>
      <trkpt lat="50.4834" lon="3.75995">
        <ele>84.29</ele>
        <time>2020-11-08T09:04:55.000Z</time>
      </trkpt>
      <trkpt lat="50.48336" lon="3.76005">
        <ele>84.42</ele>
        <time>2020-11-08T09:04:56.000Z</time>
      </trkpt>
      <trkpt lat="50.48331" lon="3.76015">
        <ele>84.58</ele>
        <time>2020-11-08T09:04:57.000Z</time>
      </trkpt>
      <trkpt lat="50.48327" lon="3.76025">
        <ele>84.41</ele>
        <time>2020-11-08T09:04:58.000Z</time>
      </trkpt>
      <trkpt lat="50.48323" lon="3.76035">
        <ele>84.35</ele>
        <time>2020-11-08T09:04:59.000Z</time>
      </trkpt>
      <trkpt lat="50.48319" lon="3.76045">
        <ele>84.23</ele>
        <time>2020-11-08T09:05:00.000Z</time>
      </trkpt>
      <trkpt lat="50.48315" lon="3.76054">
        <ele>83.69</ele>
        <time>2020-11-08T09:05:01.000Z</time>
      </trkpt>
      <trkpt lat="50.48311" lon="3.76063">
        <ele>83.42</ele>
        <time>2020-11-08T09:05:02.000Z</time>
      </trkpt>
      <trkpt lat="50.48307" lon="3.76072">
        <ele>83.43</ele>
        <time>2020-11-08T09:05:03.000Z</time>
      </trkpt>
      <trkpt lat="50.48303" lon="3.7608">
        <ele>83.31</ele>
        <time>2020-11-08T09:05:04.000Z</time>
      </trkpt>
      <trkpt lat="50.48299" lon="3.76089">
        <ele>83.22</ele>
        <time>2020-11-08T09:05:05.000Z</time>
      </trkpt>
      <trkpt lat="50.48296" lon="3.76098">
        <ele>83.19</ele>
        <time>2020-11-08T09:05:06.000Z</time>
      </trkpt>
      <trkpt lat="50.48291" lon="3.76107">
        <ele>83.23</ele>
        <time>2020-11-08T09:05:07.000Z</time>
      </trkpt>
      <trkpt lat="50.48288" lon="3.76115">
        <ele>83.25</ele>
        <time>2020-11-08T09:05:08.000Z</time>
      </trkpt>
      <trkpt lat="50.48283" lon="3.76124">
        <ele>83.06</ele>
        <time>2020-11-08T09:05:09.000Z</time>
      </trkpt>
      <trkpt lat="50.48279" lon="3.76132">
        <ele>83.09</ele>
        <time>2020-11-08T09:05:10.000Z</time>
      </trkpt>
      <trkpt lat="50.48274" lon="3.76141">
        <ele>82.69</ele>
        <time>2020-11-08T09:05:11.000Z</time>
      </trkpt>
      <trkpt lat="50.48269" lon="3.76149">
        <ele>82.72</ele>
        <time>2020-11-08T09:05:12.000Z</time>
      </trkpt>
      <trkpt lat="50.48264" lon="3.76158">
        <ele>82.15</ele>
        <time>2020-11-08T09:05:13.000Z</time>
      </trkpt>
      <trkpt lat="50.48259" lon="3.76165">
        <ele>82.48</ele>
        <time>2020-11-08T09:05:14.000Z</time>
      </trkpt>
      <trkpt lat="50.48255" lon="3.76172">
        <ele>82.3</ele>
        <time>2020-11-08T09:05:15.000Z</time>
      </trkpt>
      <trkpt lat="50.4825" lon="3.7618">
        <ele>81.53</ele>
        <time>2020-11-08T09:05:16.000Z</time>
      </trkpt>
      <trkpt lat="50.48245" lon="3.76187">
        <ele>81.58</ele>
        <time>2020-11-08T09:05:17.000Z</time>
      </trkpt>
      <trkpt lat="50.48239" lon="3.76194">
        <ele>81.71</ele>
        <time>2020-11-08T09:05:18.000Z</time>
      </trkpt>
      <trkpt lat="50.48233" lon="3.76201">
        <ele>81.23</ele>
        <time>2020-11-08T09:05:19.000Z</time>
      </trkpt>
      <trkpt lat="50.48228" lon="3.76208">
        <ele>80.69</ele>
        <time>2020-11-08T09:05:20.000Z</time>
      </trkpt>
      <trkpt lat="50.48223" lon="3.76215">
        <ele>79.81</ele>
        <time>2020-11-08T09:05:21.000Z</time>
      </trkpt>
      <trkpt lat="50.48219" lon="3.76222">
        <ele>79.12</ele>
        <time>2020-11-08T09:05:22.000Z</time>
      </trkpt>
      <trkpt lat="50.48215" lon="3.76227">
        <ele>78.72</ele>
        <time>2020-11-08T09:05:23.000Z</time>
      </trkpt>
      <trkpt lat="50.48209" lon="3.76232">
        <ele>77.9</ele>
        <time>2020-11-08T09:05:25.000Z</time>
      </trkpt>
      <trkpt lat="50.48205" lon="3.76238">
        <ele>78.22</ele>
        <time>2020-11-08T09:05:28.000Z</time>
      </trkpt>
      <trkpt lat="50.48201" lon="3.76243">
        <ele>78.73</ele>
        <time>2020-11-08T09:05:30.000Z</time>
      </trkpt>
      <trkpt lat="50.48198" lon="3.76254">
        <ele>78.96</ele>
        <time>2020-11-08T09:05:32.000Z</time>
      </trkpt>
      <trkpt lat="50.48196" lon="3.76266">
        <ele>78.21</ele>
        <time>2020-11-08T09:05:34.000Z</time>
      </trkpt>
      <trkpt lat="50.48197" lon="3.76276">
        <ele>78.52</ele>
        <time>2020-11-08T09:05:35.000Z</time>
      </trkpt>
      <trkpt lat="50.48195" lon="3.76283">
        <ele>78.42</ele>
        <time>2020-11-08T09:05:36.000Z</time>
      </trkpt>
      <trkpt lat="50.48194" lon="3.76291">
        <ele>79.12</ele>
        <time>2020-11-08T09:05:37.000Z</time>
      </trkpt>
      <trkpt lat="50.48192" lon="3.76299">
        <ele>78.85</ele>
        <time>2020-11-08T09:05:38.000Z</time>
      </trkpt>
      <trkpt lat="50.4819" lon="3.76308">
        <ele>79.14</ele>
        <time>2020-11-08T09:05:39.000Z</time>
      </trkpt>
      <trkpt lat="50.48189" lon="3.76317">
        <ele>79.69</ele>
        <time>2020-11-08T09:05:40.000Z</time>
      </trkpt>
      <trkpt lat="50.48189" lon="3.76326">
        <ele>79.66</ele>
        <time>2020-11-08T09:05:41.000Z</time>
      </trkpt>
      <trkpt lat="50.48187" lon="3.76335">
        <ele>79.76</ele>
        <time>2020-11-08T09:05:42.000Z</time>
      </trkpt>
      <trkpt lat="50.48186" lon="3.76345">
        <ele>79.39</ele>
        <time>2020-11-08T09:05:43.000Z</time>
      </trkpt>
      <trkpt lat="50.48185" lon="3.76354">
        <ele>79.6</ele>
        <time>2020-11-08T09:05:44.000Z</time>
      </trkpt>
      <trkpt lat="50.48184" lon="3.76364">
        <ele>79.24</ele>
        <time>2020-11-08T09:05:45.000Z</time>
      </trkpt>
      <trkpt lat="50.48183" lon="3.76374">
        <ele>79.08</ele>
        <time>2020-11-08T09:05:46.000Z</time>
      </trkpt>
      <trkpt lat="50.48181" lon="3.76384">
        <ele>78.77</ele>
        <time>2020-11-08T09:05:47.000Z</time>
      </trkpt>
      <trkpt lat="50.48179" lon="3.76394">
        <ele>78.64</ele>
        <time>2020-11-08T09:05:48.000Z</time>
      </trkpt>
      <trkpt lat="50.48178" lon="3.76403">
        <ele>78.96</ele>
        <time>2020-11-08T09:05:49.000Z</time>
      </trkpt>
      <trkpt lat="50.48177" lon="3.76413">
        <ele>78.85</ele>
        <time>2020-11-08T09:05:50.000Z</time>
      </trkpt>
      <trkpt lat="50.48179" lon="3.76422">
        <ele>78.31</ele>
        <time>2020-11-08T09:05:51.000Z</time>
      </trkpt>
      <trkpt lat="50.48182" lon="3.7643">
        <ele>78.43</ele>
        <time>2020-11-08T09:05:52.000Z</time>
      </trkpt>
      <trkpt lat="50.48188" lon="3.76434">
        <ele>78.6</ele>
        <time>2020-11-08T09:05:53.000Z</time>
      </trkpt>
      <trkpt lat="50.48194" lon="3.76435">
        <ele>77.87</ele>
        <time>2020-11-08T09:05:54.000Z</time>
      </trkpt>
      <trkpt lat="50.48199" lon="3.76433">
        <ele>78.16</ele>
        <time>2020-11-08T09:05:55.000Z</time>
      </trkpt>
      <trkpt lat="50.48205" lon="3.76433">
        <ele>78.67</ele>
        <time>2020-11-08T09:05:56.000Z</time>
      </trkpt>
      <trkpt lat="50.48211" lon="3.76432">
        <ele>78.81</ele>
        <time>2020-11-08T09:05:57.000Z</time>
      </trkpt>
      <trkpt lat="50.48216" lon="3.76432">
        <ele>79.22</ele>
        <time>2020-11-08T09:05:58.000Z</time>
      </trkpt>
      <trkpt lat="50.48223" lon="3.76433">
        <ele>79.1</ele>
        <time>2020-11-08T09:05:59.000Z</time>
      </trkpt>
      <trkpt lat="50.48228" lon="3.76434">
        <ele>78.35</ele>
        <time>2020-11-08T09:06:00.000Z</time>
      </trkpt>
      <trkpt lat="50.48235" lon="3.76435">
        <ele>79.09</ele>
        <time>2020-11-08T09:06:01.000Z</time>
      </trkpt>
      <trkpt lat="50.48241" lon="3.76437">
        <ele>79.5</ele>
        <time>2020-11-08T09:06:02.000Z</time>
      </trkpt>
      <trkpt lat="50.48247" lon="3.7644">
        <ele>80.35</ele>
        <time>2020-11-08T09:06:03.000Z</time>
      </trkpt>
      <trkpt lat="50.48252" lon="3.76444">
        <ele>81.26</ele>
        <time>2020-11-08T09:06:04.000Z</time>
      </trkpt>
      <trkpt lat="50.48257" lon="3.76448">
        <ele>81.32</ele>
        <time>2020-11-08T09:06:05.000Z</time>
      </trkpt>
      <trkpt lat="50.48262" lon="3.76453">
        <ele>81.66</ele>
        <time>2020-11-08T09:06:06.000Z</time>
      </trkpt>
      <trkpt lat="50.48268" lon="3.76457">
        <ele>83.07</ele>
        <time>2020-11-08T09:06:07.000Z</time>
      </trkpt>
      <trkpt lat="50.48273" lon="3.76461">
        <ele>83.83</ele>
        <time>2020-11-08T09:06:08.000Z</time>
      </trkpt>
      <trkpt lat="50.48278" lon="3.76466">
        <ele>83.84</ele>
        <time>2020-11-08T09:06:09.000Z</time>
      </trkpt>
      <trkpt lat="50.48284" lon="3.7647">
        <ele>84.6</ele>
        <time>2020-11-08T09:06:10.000Z</time>
      </trkpt>
      <trkpt lat="50.48289" lon="3.76475">
        <ele>85.16</ele>
        <time>2020-11-08T09:06:11.000Z</time>
      </trkpt>
      <trkpt lat="50.48294" lon="3.7648">
        <ele>86.04</ele>
        <time>2020-11-08T09:06:12.000Z</time>
      </trkpt>
      <trkpt lat="50.483" lon="3.76484">
        <ele>86.65</ele>
        <time>2020-11-08T09:06:13.000Z</time>
      </trkpt>
      <trkpt lat="50.48305" lon="3.76488">
        <ele>87.19</ele>
        <time>2020-11-08T09:06:14.000Z</time>
      </trkpt>
      <trkpt lat="50.4831" lon="3.76493">
        <ele>87.63</ele>
        <time>2020-11-08T09:06:15.000Z</time>
      </trkpt>
      <trkpt lat="50.48315" lon="3.76496">
        <ele>88.23</ele>
        <time>2020-11-08T09:06:16.000Z</time>
      </trkpt>
      <trkpt lat="50.4832" lon="3.76501">
        <ele>88.34</ele>
        <time>2020-11-08T09:06:17.000Z</time>
      </trkpt>
      <trkpt lat="50.48324" lon="3.76505">
        <ele>88.83</ele>
        <time>2020-11-08T09:06:18.000Z</time>
      </trkpt>
      <trkpt lat="50.48329" lon="3.7651">
        <ele>89</ele>
        <time>2020-11-08T09:06:19.000Z</time>
      </trkpt>
      <trkpt lat="50.48333" lon="3.76516">
        <ele>89.06</ele>
        <time>2020-11-08T09:06:20.000Z</time>
      </trkpt>
      <trkpt lat="50.48338" lon="3.76521">
        <ele>89.33</ele>
        <time>2020-11-08T09:06:21.000Z</time>
      </trkpt>
      <trkpt lat="50.48343" lon="3.76527">
        <ele>89.23</ele>
        <time>2020-11-08T09:06:22.000Z</time>
      </trkpt>
      <trkpt lat="50.48347" lon="3.76533">
        <ele>89.8</ele>
        <time>2020-11-08T09:06:23.000Z</time>
      </trkpt>
      <trkpt lat="50.48352" lon="3.7654">
        <ele>90.29</ele>
        <time>2020-11-08T09:06:24.000Z</time>
      </trkpt>
      <trkpt lat="50.48356" lon="3.76546">
        <ele>90.54</ele>
        <time>2020-11-08T09:06:25.000Z</time>
      </trkpt>
      <trkpt lat="50.4836" lon="3.76553">
        <ele>90.76</ele>
        <time>2020-11-08T09:06:26.000Z</time>
      </trkpt>
      <trkpt lat="50.48364" lon="3.7656">
        <ele>90.52</ele>
        <time>2020-11-08T09:06:27.000Z</time>
      </trkpt>
      <trkpt lat="50.48368" lon="3.76568">
        <ele>90.88</ele>
        <time>2020-11-08T09:06:28.000Z</time>
      </trkpt>
      <trkpt lat="50.48372" lon="3.76575">
        <ele>91</ele>
        <time>2020-11-08T09:06:29.000Z</time>
      </trkpt>
      <trkpt lat="50.48376" lon="3.76584">
        <ele>91.05</ele>
        <time>2020-11-08T09:06:30.000Z</time>
      </trkpt>
      <trkpt lat="50.4838" lon="3.76593">
        <ele>90.95</ele>
        <time>2020-11-08T09:06:31.000Z</time>
      </trkpt>
      <trkpt lat="50.48384" lon="3.76601">
        <ele>91.05</ele>
        <time>2020-11-08T09:06:32.000Z</time>
      </trkpt>
      <trkpt lat="50.48388" lon="3.7661">
        <ele>90.98</ele>
        <time>2020-11-08T09:06:33.000Z</time>
      </trkpt>
      <trkpt lat="50.48392" lon="3.76618">
        <ele>90.98</ele>
        <time>2020-11-08T09:06:34.000Z</time>
      </trkpt>
      <trkpt lat="50.48396" lon="3.76627">
        <ele>91.19</ele>
        <time>2020-11-08T09:06:35.000Z</time>
      </trkpt>
      <trkpt lat="50.484" lon="3.76635">
        <ele>91.45</ele>
        <time>2020-11-08T09:06:36.000Z</time>
      </trkpt>
      <trkpt lat="50.48404" lon="3.76643">
        <ele>91.46</ele>
        <time>2020-11-08T09:06:37.000Z</time>
      </trkpt>
      <trkpt lat="50.48407" lon="3.76651">
        <ele>91.67</ele>
        <time>2020-11-08T09:06:38.000Z</time>
      </trkpt>
      <trkpt lat="50.48411" lon="3.7666">
        <ele>91.35</ele>
        <time>2020-11-08T09:06:39.000Z</time>
      </trkpt>
      <trkpt lat="50.48415" lon="3.76668">
        <ele>91.5</ele>
        <time>2020-11-08T09:06:40.000Z</time>
      </trkpt>
      <trkpt lat="50.48419" lon="3.76676">
        <ele>92.08</ele>
        <time>2020-11-08T09:06:41.000Z</time>
      </trkpt>
      <trkpt lat="50.48423" lon="3.76684">
        <ele>92.01</ele>
        <time>2020-11-08T09:06:42.000Z</time>
      </trkpt>
      <trkpt lat="50.48426" lon="3.76692">
        <ele>92.42</ele>
        <time>2020-11-08T09:06:43.000Z</time>
      </trkpt>
      <trkpt lat="50.4843" lon="3.767">
        <ele>92.24</ele>
        <time>2020-11-08T09:06:44.000Z</time>
      </trkpt>
      <trkpt lat="50.48433" lon="3.76708">
        <ele>92.32</ele>
        <time>2020-11-08T09:06:45.000Z</time>
      </trkpt>
      <trkpt lat="50.48437" lon="3.76716">
        <ele>92.63</ele>
        <time>2020-11-08T09:06:46.000Z</time>
      </trkpt>
      <trkpt lat="50.4844" lon="3.76724">
        <ele>92.66</ele>
        <time>2020-11-08T09:06:47.000Z</time>
      </trkpt>
      <trkpt lat="50.48444" lon="3.76733">
        <ele>92.52</ele>
        <time>2020-11-08T09:06:48.000Z</time>
      </trkpt>
      <trkpt lat="50.48448" lon="3.76741">
        <ele>92.43</ele>
        <time>2020-11-08T09:06:49.000Z</time>
      </trkpt>
      <trkpt lat="50.48452" lon="3.7675">
        <ele>92.72</ele>
        <time>2020-11-08T09:06:50.000Z</time>
      </trkpt>
      <trkpt lat="50.48455" lon="3.76758">
        <ele>92.71</ele>
        <time>2020-11-08T09:06:51.000Z</time>
      </trkpt>
      <trkpt lat="50.48458" lon="3.76767">
        <ele>92.93</ele>
        <time>2020-11-08T09:06:52.000Z</time>
      </trkpt>
      <trkpt lat="50.48462" lon="3.76775">
        <ele>93.12</ele>
        <time>2020-11-08T09:06:53.000Z</time>
      </trkpt>
      <trkpt lat="50.48466" lon="3.76784">
        <ele>93.4</ele>
        <time>2020-11-08T09:06:54.000Z</time>
      </trkpt>
      <trkpt lat="50.48469" lon="3.76793">
        <ele>93.69</ele>
        <time>2020-11-08T09:06:55.000Z</time>
      </trkpt>
      <trkpt lat="50.48472" lon="3.76801">
        <ele>93.89</ele>
        <time>2020-11-08T09:06:56.000Z</time>
      </trkpt>
      <trkpt lat="50.48475" lon="3.7681">
        <ele>93.9</ele>
        <time>2020-11-08T09:06:57.000Z</time>
      </trkpt>
      <trkpt lat="50.48478" lon="3.76819">
        <ele>93.48</ele>
        <time>2020-11-08T09:06:58.000Z</time>
      </trkpt>
      <trkpt lat="50.48481" lon="3.76827">
        <ele>93.53</ele>
        <time>2020-11-08T09:06:59.000Z</time>
      </trkpt>
      <trkpt lat="50.48484" lon="3.76835">
        <ele>93.26</ele>
        <time>2020-11-08T09:07:00.000Z</time>
      </trkpt>
      <trkpt lat="50.48487" lon="3.76844">
        <ele>93.18</ele>
        <time>2020-11-08T09:07:01.000Z</time>
      </trkpt>
      <trkpt lat="50.4849" lon="3.76852">
        <ele>93.33</ele>
        <time>2020-11-08T09:07:02.000Z</time>
      </trkpt>
      <trkpt lat="50.48493" lon="3.7686">
        <ele>93.24</ele>
        <time>2020-11-08T09:07:03.000Z</time>
      </trkpt>
      <trkpt lat="50.48497" lon="3.76867">
        <ele>93.21</ele>
        <time>2020-11-08T09:07:04.000Z</time>
      </trkpt>
      <trkpt lat="50.48501" lon="3.76874">
        <ele>93.52</ele>
        <time>2020-11-08T09:07:05.000Z</time>
      </trkpt>
      <trkpt lat="50.48506" lon="3.7688">
        <ele>93.63</ele>
        <time>2020-11-08T09:07:06.000Z</time>
      </trkpt>
      <trkpt lat="50.4851" lon="3.76887">
        <ele>93.58</ele>
        <time>2020-11-08T09:07:07.000Z</time>
      </trkpt>
      <trkpt lat="50.48514" lon="3.76893">
        <ele>93.33</ele>
        <time>2020-11-08T09:07:08.000Z</time>
      </trkpt>
      <trkpt lat="50.48519" lon="3.76899">
        <ele>93.29</ele>
        <time>2020-11-08T09:07:09.000Z</time>
      </trkpt>
      <trkpt lat="50.48524" lon="3.76905">
        <ele>93.43</ele>
        <time>2020-11-08T09:07:10.000Z</time>
      </trkpt>
      <trkpt lat="50.48529" lon="3.7691">
        <ele>93.58</ele>
        <time>2020-11-08T09:07:11.000Z</time>
      </trkpt>
      <trkpt lat="50.48535" lon="3.76915">
        <ele>93.86</ele>
        <time>2020-11-08T09:07:12.000Z</time>
      </trkpt>
      <trkpt lat="50.4854" lon="3.7692">
        <ele>94.01</ele>
        <time>2020-11-08T09:07:13.000Z</time>
      </trkpt>
      <trkpt lat="50.48545" lon="3.76924">
        <ele>93.94</ele>
        <time>2020-11-08T09:07:14.000Z</time>
      </trkpt>
      <trkpt lat="50.48552" lon="3.76928">
        <ele>94.73</ele>
        <time>2020-11-08T09:07:15.000Z</time>
      </trkpt>
      <trkpt lat="50.48557" lon="3.76932">
        <ele>94.45</ele>
        <time>2020-11-08T09:07:16.000Z</time>
      </trkpt>
      <trkpt lat="50.48562" lon="3.76936">
        <ele>94.17</ele>
        <time>2020-11-08T09:07:17.000Z</time>
      </trkpt>
      <trkpt lat="50.48568" lon="3.76941">
        <ele>94.08</ele>
        <time>2020-11-08T09:07:18.000Z</time>
      </trkpt>
      <trkpt lat="50.48573" lon="3.76946">
        <ele>94.28</ele>
        <time>2020-11-08T09:07:19.000Z</time>
      </trkpt>
      <trkpt lat="50.48578" lon="3.76951">
        <ele>94.36</ele>
        <time>2020-11-08T09:07:20.000Z</time>
      </trkpt>
      <trkpt lat="50.48584" lon="3.76956">
        <ele>94.3</ele>
        <time>2020-11-08T09:07:21.000Z</time>
      </trkpt>
      <trkpt lat="50.48589" lon="3.76961">
        <ele>94.18</ele>
        <time>2020-11-08T09:07:22.000Z</time>
      </trkpt>
      <trkpt lat="50.48594" lon="3.76965">
        <ele>94.42</ele>
        <time>2020-11-08T09:07:23.000Z</time>
      </trkpt>
      <trkpt lat="50.486" lon="3.7697">
        <ele>94.14</ele>
        <time>2020-11-08T09:07:24.000Z</time>
      </trkpt>
      <trkpt lat="50.48606" lon="3.76975">
        <ele>94.13</ele>
        <time>2020-11-08T09:07:25.000Z</time>
      </trkpt>
      <trkpt lat="50.48611" lon="3.7698">
        <ele>94.19</ele>
        <time>2020-11-08T09:07:26.000Z</time>
      </trkpt>
      <trkpt lat="50.48617" lon="3.76985">
        <ele>94.03</ele>
        <time>2020-11-08T09:07:27.000Z</time>
      </trkpt>
      <trkpt lat="50.48623" lon="3.7699">
        <ele>94.03</ele>
        <time>2020-11-08T09:07:28.000Z</time>
      </trkpt>
      <trkpt lat="50.48628" lon="3.76995">
        <ele>94.08</ele>
        <time>2020-11-08T09:07:29.000Z</time>
      </trkpt>
      <trkpt lat="50.48634" lon="3.77001">
        <ele>94.2</ele>
        <time>2020-11-08T09:07:30.000Z</time>
      </trkpt>
      <trkpt lat="50.48639" lon="3.77007">
        <ele>93.94</ele>
        <time>2020-11-08T09:07:31.000Z</time>
      </trkpt>
      <trkpt lat="50.48644" lon="3.77013">
        <ele>94.11</ele>
        <time>2020-11-08T09:07:32.000Z</time>
      </trkpt>
      <trkpt lat="50.48649" lon="3.77019">
        <ele>94.28</ele>
        <time>2020-11-08T09:07:33.000Z</time>
      </trkpt>
      <trkpt lat="50.48653" lon="3.77026">
        <ele>94.26</ele>
        <time>2020-11-08T09:07:34.000Z</time>
      </trkpt>
      <trkpt lat="50.48658" lon="3.77033">
        <ele>94.75</ele>
        <time>2020-11-08T09:07:35.000Z</time>
      </trkpt>
      <trkpt lat="50.48662" lon="3.7704">
        <ele>94.66</ele>
        <time>2020-11-08T09:07:36.000Z</time>
      </trkpt>
      <trkpt lat="50.48666" lon="3.77046">
        <ele>94.55</ele>
        <time>2020-11-08T09:07:37.000Z</time>
      </trkpt>
      <trkpt lat="50.4867" lon="3.77053">
        <ele>94.73</ele>
        <time>2020-11-08T09:07:38.000Z</time>
      </trkpt>
      <trkpt lat="50.48675" lon="3.7706">
        <ele>94.72</ele>
        <time>2020-11-08T09:07:39.000Z</time>
      </trkpt>
      <trkpt lat="50.48679" lon="3.77066">
        <ele>94.68</ele>
        <time>2020-11-08T09:07:40.000Z</time>
      </trkpt>
      <trkpt lat="50.48685" lon="3.77073">
        <ele>94.87</ele>
        <time>2020-11-08T09:07:42.000Z</time>
      </trkpt>
      <trkpt lat="50.48692" lon="3.77079">
        <ele>95.09</ele>
        <time>2020-11-08T09:07:44.000Z</time>
      </trkpt>
      <trkpt lat="50.48697" lon="3.77087">
        <ele>94.7</ele>
        <time>2020-11-08T09:07:46.000Z</time>
      </trkpt>
      <trkpt lat="50.48696" lon="3.77097">
        <ele>94.25</ele>
        <time>2020-11-08T09:07:48.000Z</time>
      </trkpt>
      <trkpt lat="50.48693" lon="3.77109">
        <ele>95.07</ele>
        <time>2020-11-08T09:07:50.000Z</time>
      </trkpt>
      <trkpt lat="50.48687" lon="3.77116">
        <ele>95.67</ele>
        <time>2020-11-08T09:07:51.000Z</time>
      </trkpt>
      <trkpt lat="50.48684" lon="3.77123">
        <ele>95.88</ele>
        <time>2020-11-08T09:07:52.000Z</time>
      </trkpt>
      <trkpt lat="50.48682" lon="3.7713">
        <ele>96.55</ele>
        <time>2020-11-08T09:07:53.000Z</time>
      </trkpt>
      <trkpt lat="50.4868" lon="3.77139">
        <ele>97.04</ele>
        <time>2020-11-08T09:07:54.000Z</time>
      </trkpt>
      <trkpt lat="50.48677" lon="3.77146">
        <ele>97.26</ele>
        <time>2020-11-08T09:07:55.000Z</time>
      </trkpt>
      <trkpt lat="50.48674" lon="3.77153">
        <ele>96.99</ele>
        <time>2020-11-08T09:07:56.000Z</time>
      </trkpt>
      <trkpt lat="50.48671" lon="3.77161">
        <ele>97.35</ele>
        <time>2020-11-08T09:07:57.000Z</time>
      </trkpt>
      <trkpt lat="50.48668" lon="3.77168">
        <ele>97.77</ele>
        <time>2020-11-08T09:07:58.000Z</time>
      </trkpt>
      <trkpt lat="50.48665" lon="3.77176">
        <ele>98.28</ele>
        <time>2020-11-08T09:07:59.000Z</time>
      </trkpt>
      <trkpt lat="50.48661" lon="3.77183">
        <ele>98.85</ele>
        <time>2020-11-08T09:08:00.000Z</time>
      </trkpt>
      <trkpt lat="50.48658" lon="3.77189">
        <ele>98.42</ele>
        <time>2020-11-08T09:08:01.000Z</time>
      </trkpt>
      <trkpt lat="50.48655" lon="3.77196">
        <ele>98.53</ele>
        <time>2020-11-08T09:08:02.000Z</time>
      </trkpt>
      <trkpt lat="50.48651" lon="3.77202">
        <ele>98.28</ele>
        <time>2020-11-08T09:08:03.000Z</time>
      </trkpt>
      <trkpt lat="50.48648" lon="3.7721">
        <ele>98.22</ele>
        <time>2020-11-08T09:08:04.000Z</time>
      </trkpt>
      <trkpt lat="50.48645" lon="3.77217">
        <ele>98.37</ele>
        <time>2020-11-08T09:08:05.000Z</time>
      </trkpt>
      <trkpt lat="50.48641" lon="3.77225">
        <ele>98.76</ele>
        <time>2020-11-08T09:08:06.000Z</time>
      </trkpt>
      <trkpt lat="50.48638" lon="3.77233">
        <ele>98.42</ele>
        <time>2020-11-08T09:08:07.000Z</time>
      </trkpt>
      <trkpt lat="50.48635" lon="3.77241">
        <ele>98.03</ele>
        <time>2020-11-08T09:08:08.000Z</time>
      </trkpt>
      <trkpt lat="50.48632" lon="3.77249">
        <ele>97.94</ele>
        <time>2020-11-08T09:08:09.000Z</time>
      </trkpt>
      <trkpt lat="50.48629" lon="3.77258">
        <ele>98.35</ele>
        <time>2020-11-08T09:08:10.000Z</time>
      </trkpt>
      <trkpt lat="50.48627" lon="3.77266">
        <ele>98.41</ele>
        <time>2020-11-08T09:08:11.000Z</time>
      </trkpt>
      <trkpt lat="50.48624" lon="3.77273">
        <ele>98.21</ele>
        <time>2020-11-08T09:08:12.000Z</time>
      </trkpt>
      <trkpt lat="50.48617" lon="3.77278">
        <ele>98.49</ele>
        <time>2020-11-08T09:08:14.000Z</time>
      </trkpt>
      <trkpt lat="50.48609" lon="3.77273">
        <ele>98.41</ele>
        <time>2020-11-08T09:08:16.000Z</time>
      </trkpt>
      <trkpt lat="50.48605" lon="3.77267">
        <ele>98.1</ele>
        <time>2020-11-08T09:08:17.000Z</time>
      </trkpt>
      <trkpt lat="50.48601" lon="3.77262">
        <ele>98.3</ele>
        <time>2020-11-08T09:08:18.000Z</time>
      </trkpt>
      <trkpt lat="50.48598" lon="3.77256">
        <ele>98.26</ele>
        <time>2020-11-08T09:08:19.000Z</time>
      </trkpt>
      <trkpt lat="50.48594" lon="3.77251">
        <ele>98.13</ele>
        <time>2020-11-08T09:08:20.000Z</time>
      </trkpt>
      <trkpt lat="50.48589" lon="3.77245">
        <ele>98.4</ele>
        <time>2020-11-08T09:08:21.000Z</time>
      </trkpt>
      <trkpt lat="50.48584" lon="3.77241">
        <ele>98.52</ele>
        <time>2020-11-08T09:08:22.000Z</time>
      </trkpt>
      <trkpt lat="50.4858" lon="3.77236">
        <ele>98.37</ele>
        <time>2020-11-08T09:08:23.000Z</time>
      </trkpt>
      <trkpt lat="50.48576" lon="3.77232">
        <ele>98.27</ele>
        <time>2020-11-08T09:08:24.000Z</time>
      </trkpt>
      <trkpt lat="50.48572" lon="3.77228">
        <ele>97.98</ele>
        <time>2020-11-08T09:08:25.000Z</time>
      </trkpt>
      <trkpt lat="50.48567" lon="3.77223">
        <ele>97.72</ele>
        <time>2020-11-08T09:08:27.000Z</time>
      </trkpt>
      <trkpt lat="50.48561" lon="3.77216">
        <ele>98.1</ele>
        <time>2020-11-08T09:08:30.000Z</time>
      </trkpt>
      <trkpt lat="50.48555" lon="3.77211">
        <ele>98.34</ele>
        <time>2020-11-08T09:08:32.000Z</time>
      </trkpt>
      <trkpt lat="50.48549" lon="3.77209">
        <ele>97.68</ele>
        <time>2020-11-08T09:08:34.000Z</time>
      </trkpt>
      <trkpt lat="50.48542" lon="3.77205">
        <ele>97.6</ele>
        <time>2020-11-08T09:08:36.000Z</time>
      </trkpt>
      <trkpt lat="50.48536" lon="3.77202">
        <ele>97.71</ele>
        <time>2020-11-08T09:08:38.000Z</time>
      </trkpt>
      <trkpt lat="50.48529" lon="3.77197">
        <ele>97.57</ele>
        <time>2020-11-08T09:08:40.000Z</time>
      </trkpt>
      <trkpt lat="50.48521" lon="3.77191">
        <ele>97.66</ele>
        <time>2020-11-08T09:08:42.000Z</time>
      </trkpt>
      <trkpt lat="50.48516" lon="3.77188">
        <ele>97.87</ele>
        <time>2020-11-08T09:08:43.000Z</time>
      </trkpt>
      <trkpt lat="50.48512" lon="3.77185">
        <ele>97.57</ele>
        <time>2020-11-08T09:08:44.000Z</time>
      </trkpt>
      <trkpt lat="50.48507" lon="3.77182">
        <ele>97.38</ele>
        <time>2020-11-08T09:08:45.000Z</time>
      </trkpt>
      <trkpt lat="50.48503" lon="3.77179">
        <ele>97.3</ele>
        <time>2020-11-08T09:08:46.000Z</time>
      </trkpt>
      <trkpt lat="50.48497" lon="3.77177">
        <ele>97.54</ele>
        <time>2020-11-08T09:08:47.000Z</time>
      </trkpt>
      <trkpt lat="50.48493" lon="3.77174">
        <ele>97.07</ele>
        <time>2020-11-08T09:08:48.000Z</time>
      </trkpt>
      <trkpt lat="50.48488" lon="3.77171">
        <ele>96.83</ele>
        <time>2020-11-08T09:08:49.000Z</time>
      </trkpt>
      <trkpt lat="50.48483" lon="3.77169">
        <ele>96.6</ele>
        <time>2020-11-08T09:08:50.000Z</time>
      </trkpt>
      <trkpt lat="50.48479" lon="3.77165">
        <ele>96.7</ele>
        <time>2020-11-08T09:08:51.000Z</time>
      </trkpt>
      <trkpt lat="50.48474" lon="3.77163">
        <ele>96.69</ele>
        <time>2020-11-08T09:08:52.000Z</time>
      </trkpt>
      <trkpt lat="50.4847" lon="3.77161">
        <ele>96.51</ele>
        <time>2020-11-08T09:08:53.000Z</time>
      </trkpt>
      <trkpt lat="50.48465" lon="3.77158">
        <ele>96.5</ele>
        <time>2020-11-08T09:08:54.000Z</time>
      </trkpt>
      <trkpt lat="50.4846" lon="3.77155">
        <ele>96.11</ele>
        <time>2020-11-08T09:08:55.000Z</time>
      </trkpt>
      <trkpt lat="50.48453" lon="3.7715">
        <ele>95.99</ele>
        <time>2020-11-08T09:08:57.000Z</time>
      </trkpt>
      <trkpt lat="50.48447" lon="3.77148">
        <ele>95.52</ele>
        <time>2020-11-08T09:08:59.000Z</time>
      </trkpt>
      <trkpt lat="50.48441" lon="3.77144">
        <ele>95.58</ele>
        <time>2020-11-08T09:09:01.000Z</time>
      </trkpt>
      <trkpt lat="50.48436" lon="3.77143">
        <ele>95.74</ele>
        <time>2020-11-08T09:09:02.000Z</time>
      </trkpt>
      <trkpt lat="50.48432" lon="3.77141">
        <ele>95.55</ele>
        <time>2020-11-08T09:09:03.000Z</time>
      </trkpt>
      <trkpt lat="50.48427" lon="3.77139">
        <ele>95.66</ele>
        <time>2020-11-08T09:09:04.000Z</time>
      </trkpt>
      <trkpt lat="50.48423" lon="3.77136">
        <ele>95.85</ele>
        <time>2020-11-08T09:09:05.000Z</time>
      </trkpt>
      <trkpt lat="50.48418" lon="3.77133">
        <ele>95.63</ele>
        <time>2020-11-08T09:09:06.000Z</time>
      </trkpt>
      <trkpt lat="50.48413" lon="3.7713">
        <ele>95.73</ele>
        <time>2020-11-08T09:09:07.000Z</time>
      </trkpt>
      <trkpt lat="50.48408" lon="3.77127">
        <ele>95.54</ele>
        <time>2020-11-08T09:09:08.000Z</time>
      </trkpt>
      <trkpt lat="50.48403" lon="3.77125">
        <ele>95.54</ele>
        <time>2020-11-08T09:09:09.000Z</time>
      </trkpt>
      <trkpt lat="50.48398" lon="3.77122">
        <ele>95.4</ele>
        <time>2020-11-08T09:09:10.000Z</time>
      </trkpt>
      <trkpt lat="50.48393" lon="3.77119">
        <ele>94.99</ele>
        <time>2020-11-08T09:09:11.000Z</time>
      </trkpt>
      <trkpt lat="50.48388" lon="3.77116">
        <ele>95.08</ele>
        <time>2020-11-08T09:09:12.000Z</time>
      </trkpt>
      <trkpt lat="50.48383" lon="3.77114">
        <ele>95.03</ele>
        <time>2020-11-08T09:09:13.000Z</time>
      </trkpt>
      <trkpt lat="50.48378" lon="3.77112">
        <ele>94.95</ele>
        <time>2020-11-08T09:09:14.000Z</time>
      </trkpt>
      <trkpt lat="50.48373" lon="3.7711">
        <ele>94.68</ele>
        <time>2020-11-08T09:09:15.000Z</time>
      </trkpt>
      <trkpt lat="50.48367" lon="3.77107">
        <ele>94.71</ele>
        <time>2020-11-08T09:09:16.000Z</time>
      </trkpt>
      <trkpt lat="50.48362" lon="3.77105">
        <ele>94.65</ele>
        <time>2020-11-08T09:09:17.000Z</time>
      </trkpt>
      <trkpt lat="50.48357" lon="3.77103">
        <ele>94.65</ele>
        <time>2020-11-08T09:09:18.000Z</time>
      </trkpt>
      <trkpt lat="50.48351" lon="3.77101">
        <ele>94.55</ele>
        <time>2020-11-08T09:09:19.000Z</time>
      </trkpt>
      <trkpt lat="50.48346" lon="3.77099">
        <ele>94.07</ele>
        <time>2020-11-08T09:09:20.000Z</time>
      </trkpt>
      <trkpt lat="50.48342" lon="3.77097">
        <ele>93.58</ele>
        <time>2020-11-08T09:09:21.000Z</time>
      </trkpt>
      <trkpt lat="50.48336" lon="3.77096">
        <ele>93.51</ele>
        <time>2020-11-08T09:09:22.000Z</time>
      </trkpt>
      <trkpt lat="50.4833" lon="3.77094">
        <ele>93.54</ele>
        <time>2020-11-08T09:09:23.000Z</time>
      </trkpt>
      <trkpt lat="50.48325" lon="3.77092">
        <ele>93.21</ele>
        <time>2020-11-08T09:09:24.000Z</time>
      </trkpt>
      <trkpt lat="50.4832" lon="3.7709">
        <ele>93.02</ele>
        <time>2020-11-08T09:09:25.000Z</time>
      </trkpt>
      <trkpt lat="50.48314" lon="3.77089">
        <ele>92.86</ele>
        <time>2020-11-08T09:09:26.000Z</time>
      </trkpt>
      <trkpt lat="50.48308" lon="3.77087">
        <ele>92.21</ele>
        <time>2020-11-08T09:09:27.000Z</time>
      </trkpt>
      <trkpt lat="50.48302" lon="3.77086">
        <ele>92.1</ele>
        <time>2020-11-08T09:09:28.000Z</time>
      </trkpt>
      <trkpt lat="50.48297" lon="3.77086">
        <ele>91.93</ele>
        <time>2020-11-08T09:09:29.000Z</time>
      </trkpt>
      <trkpt lat="50.48291" lon="3.77086">
        <ele>91.9</ele>
        <time>2020-11-08T09:09:30.000Z</time>
      </trkpt>
      <trkpt lat="50.48285" lon="3.77088">
        <ele>91.89</ele>
        <time>2020-11-08T09:09:31.000Z</time>
      </trkpt>
      <trkpt lat="50.48279" lon="3.77091">
        <ele>91.54</ele>
        <time>2020-11-08T09:09:32.000Z</time>
      </trkpt>
      <trkpt lat="50.48274" lon="3.77096">
        <ele>91.31</ele>
        <time>2020-11-08T09:09:33.000Z</time>
      </trkpt>
      <trkpt lat="50.48269" lon="3.771">
        <ele>91.07</ele>
        <time>2020-11-08T09:09:34.000Z</time>
      </trkpt>
      <trkpt lat="50.48263" lon="3.77105">
        <ele>91.16</ele>
        <time>2020-11-08T09:09:35.000Z</time>
      </trkpt>
      <trkpt lat="50.48258" lon="3.77109">
        <ele>90.81</ele>
        <time>2020-11-08T09:09:36.000Z</time>
      </trkpt>
      <trkpt lat="50.48253" lon="3.77114">
        <ele>90.51</ele>
        <time>2020-11-08T09:09:37.000Z</time>
      </trkpt>
      <trkpt lat="50.48248" lon="3.77119">
        <ele>90.3</ele>
        <time>2020-11-08T09:09:38.000Z</time>
      </trkpt>
      <trkpt lat="50.48243" lon="3.77124">
        <ele>90.37</ele>
        <time>2020-11-08T09:09:39.000Z</time>
      </trkpt>
      <trkpt lat="50.48238" lon="3.77129">
        <ele>90.23</ele>
        <time>2020-11-08T09:09:40.000Z</time>
      </trkpt>
      <trkpt lat="50.48233" lon="3.77134">
        <ele>90.13</ele>
        <time>2020-11-08T09:09:41.000Z</time>
      </trkpt>
      <trkpt lat="50.48228" lon="3.7714">
        <ele>89.57</ele>
        <time>2020-11-08T09:09:42.000Z</time>
      </trkpt>
      <trkpt lat="50.48223" lon="3.77145">
        <ele>89.35</ele>
        <time>2020-11-08T09:09:43.000Z</time>
      </trkpt>
      <trkpt lat="50.48218" lon="3.7715">
        <ele>89.32</ele>
        <time>2020-11-08T09:09:44.000Z</time>
      </trkpt>
      <trkpt lat="50.48213" lon="3.77156">
        <ele>89.19</ele>
        <time>2020-11-08T09:09:45.000Z</time>
      </trkpt>
      <trkpt lat="50.48208" lon="3.77161">
        <ele>89.29</ele>
        <time>2020-11-08T09:09:46.000Z</time>
      </trkpt>
      <trkpt lat="50.48203" lon="3.77166">
        <ele>89.31</ele>
        <time>2020-11-08T09:09:47.000Z</time>
      </trkpt>
      <trkpt lat="50.48198" lon="3.77172">
        <ele>89.44</ele>
        <time>2020-11-08T09:09:48.000Z</time>
      </trkpt>
      <trkpt lat="50.48193" lon="3.77177">
        <ele>89.14</ele>
        <time>2020-11-08T09:09:49.000Z</time>
      </trkpt>
      <trkpt lat="50.48188" lon="3.77181">
        <ele>89.2</ele>
        <time>2020-11-08T09:09:50.000Z</time>
      </trkpt>
      <trkpt lat="50.48184" lon="3.77185">
        <ele>89.16</ele>
        <time>2020-11-08T09:09:51.000Z</time>
      </trkpt>
      <trkpt lat="50.48179" lon="3.77189">
        <ele>88.91</ele>
        <time>2020-11-08T09:09:52.000Z</time>
      </trkpt>
      <trkpt lat="50.48174" lon="3.77192">
        <ele>88.95</ele>
        <time>2020-11-08T09:09:53.000Z</time>
      </trkpt>
      <trkpt lat="50.48169" lon="3.77194">
        <ele>89.11</ele>
        <time>2020-11-08T09:09:54.000Z</time>
      </trkpt>
      <trkpt lat="50.48164" lon="3.77196">
        <ele>89.13</ele>
        <time>2020-11-08T09:09:55.000Z</time>
      </trkpt>
      <trkpt lat="50.48159" lon="3.77196">
        <ele>88.92</ele>
        <time>2020-11-08T09:09:56.000Z</time>
      </trkpt>
      <trkpt lat="50.48154" lon="3.77197">
        <ele>88.79</ele>
        <time>2020-11-08T09:09:57.000Z</time>
      </trkpt>
      <trkpt lat="50.4815" lon="3.77196">
        <ele>88.88</ele>
        <time>2020-11-08T09:09:58.000Z</time>
      </trkpt>
      <trkpt lat="50.48142" lon="3.77195">
        <ele>88.65</ele>
        <time>2020-11-08T09:10:00.000Z</time>
      </trkpt>
      <trkpt lat="50.48138" lon="3.772">
        <ele>88.77</ele>
        <time>2020-11-08T09:10:02.000Z</time>
      </trkpt>
      <trkpt lat="50.4814" lon="3.77207">
        <ele>88.79</ele>
        <time>2020-11-08T09:10:04.000Z</time>
      </trkpt>
      <trkpt lat="50.48145" lon="3.77214">
        <ele>88.94</ele>
        <time>2020-11-08T09:10:06.000Z</time>
      </trkpt>
      <trkpt lat="50.4815" lon="3.77224">
        <ele>89.28</ele>
        <time>2020-11-08T09:10:08.000Z</time>
      </trkpt>
      <trkpt lat="50.48154" lon="3.77238">
        <ele>89.62</ele>
        <time>2020-11-08T09:10:10.000Z</time>
      </trkpt>
      <trkpt lat="50.48157" lon="3.77245">
        <ele>89.87</ele>
        <time>2020-11-08T09:10:11.000Z</time>
      </trkpt>
      <trkpt lat="50.4816" lon="3.77252">
        <ele>90.04</ele>
        <time>2020-11-08T09:10:12.000Z</time>
      </trkpt>
      <trkpt lat="50.48163" lon="3.77259">
        <ele>90.07</ele>
        <time>2020-11-08T09:10:13.000Z</time>
      </trkpt>
      <trkpt lat="50.48165" lon="3.77267">
        <ele>90.06</ele>
        <time>2020-11-08T09:10:14.000Z</time>
      </trkpt>
      <trkpt lat="50.48168" lon="3.77275">
        <ele>90.35</ele>
        <time>2020-11-08T09:10:15.000Z</time>
      </trkpt>
      <trkpt lat="50.48172" lon="3.77282">
        <ele>90.23</ele>
        <time>2020-11-08T09:10:16.000Z</time>
      </trkpt>
      <trkpt lat="50.48175" lon="3.77289">
        <ele>90.22</ele>
        <time>2020-11-08T09:10:17.000Z</time>
      </trkpt>
      <trkpt lat="50.48178" lon="3.77297">
        <ele>90.46</ele>
        <time>2020-11-08T09:10:18.000Z</time>
      </trkpt>
      <trkpt lat="50.48181" lon="3.77304">
        <ele>90.44</ele>
        <time>2020-11-08T09:10:19.000Z</time>
      </trkpt>
      <trkpt lat="50.48184" lon="3.77311">
        <ele>90.18</ele>
        <time>2020-11-08T09:10:20.000Z</time>
      </trkpt>
      <trkpt lat="50.48186" lon="3.77319">
        <ele>90.17</ele>
        <time>2020-11-08T09:10:21.000Z</time>
      </trkpt>
      <trkpt lat="50.4819" lon="3.77327">
        <ele>90.14</ele>
        <time>2020-11-08T09:10:22.000Z</time>
      </trkpt>
      <trkpt lat="50.48192" lon="3.77334">
        <ele>89.81</ele>
        <time>2020-11-08T09:10:23.000Z</time>
      </trkpt>
      <trkpt lat="50.48195" lon="3.77341">
        <ele>89.99</ele>
        <time>2020-11-08T09:10:24.000Z</time>
      </trkpt>
      <trkpt lat="50.48199" lon="3.77349">
        <ele>90.06</ele>
        <time>2020-11-08T09:10:25.000Z</time>
      </trkpt>
      <trkpt lat="50.48201" lon="3.77356">
        <ele>90.24</ele>
        <time>2020-11-08T09:10:26.000Z</time>
      </trkpt>
      <trkpt lat="50.48204" lon="3.77363">
        <ele>90.21</ele>
        <time>2020-11-08T09:10:27.000Z</time>
      </trkpt>
      <trkpt lat="50.48207" lon="3.77371">
        <ele>90.26</ele>
        <time>2020-11-08T09:10:28.000Z</time>
      </trkpt>
      <trkpt lat="50.4821" lon="3.77378">
        <ele>90.15</ele>
        <time>2020-11-08T09:10:29.000Z</time>
      </trkpt>
      <trkpt lat="50.48213" lon="3.77385">
        <ele>90.2</ele>
        <time>2020-11-08T09:10:30.000Z</time>
      </trkpt>
      <trkpt lat="50.48216" lon="3.77393">
        <ele>90.44</ele>
        <time>2020-11-08T09:10:31.000Z</time>
      </trkpt>
      <trkpt lat="50.48218" lon="3.774">
        <ele>90.24</ele>
        <time>2020-11-08T09:10:32.000Z</time>
      </trkpt>
      <trkpt lat="50.48221" lon="3.77408">
        <ele>89.99</ele>
        <time>2020-11-08T09:10:33.000Z</time>
      </trkpt>
      <trkpt lat="50.48224" lon="3.77415">
        <ele>89.91</ele>
        <time>2020-11-08T09:10:34.000Z</time>
      </trkpt>
      <trkpt lat="50.48227" lon="3.77422">
        <ele>89.97</ele>
        <time>2020-11-08T09:10:35.000Z</time>
      </trkpt>
      <trkpt lat="50.4823" lon="3.77429">
        <ele>90.25</ele>
        <time>2020-11-08T09:10:36.000Z</time>
      </trkpt>
      <trkpt lat="50.48232" lon="3.77436">
        <ele>90.2</ele>
        <time>2020-11-08T09:10:37.000Z</time>
      </trkpt>
      <trkpt lat="50.48234" lon="3.77444">
        <ele>90.42</ele>
        <time>2020-11-08T09:10:38.000Z</time>
      </trkpt>
      <trkpt lat="50.48235" lon="3.77452">
        <ele>90.55</ele>
        <time>2020-11-08T09:10:39.000Z</time>
      </trkpt>
      <trkpt lat="50.48237" lon="3.7746">
        <ele>90.43</ele>
        <time>2020-11-08T09:10:40.000Z</time>
      </trkpt>
      <trkpt lat="50.48239" lon="3.77468">
        <ele>90.52</ele>
        <time>2020-11-08T09:10:41.000Z</time>
      </trkpt>
      <trkpt lat="50.48242" lon="3.77475">
        <ele>90.69</ele>
        <time>2020-11-08T09:10:42.000Z</time>
      </trkpt>
      <trkpt lat="50.48245" lon="3.77482">
        <ele>90.77</ele>
        <time>2020-11-08T09:10:43.000Z</time>
      </trkpt>
      <trkpt lat="50.48247" lon="3.77489">
        <ele>90.96</ele>
        <time>2020-11-08T09:10:44.000Z</time>
      </trkpt>
      <trkpt lat="50.4825" lon="3.77495">
        <ele>91.08</ele>
        <time>2020-11-08T09:10:45.000Z</time>
      </trkpt>
      <trkpt lat="50.48252" lon="3.77501">
        <ele>91.2</ele>
        <time>2020-11-08T09:10:46.000Z</time>
      </trkpt>
      <trkpt lat="50.48258" lon="3.77512">
        <ele>91.24</ele>
        <time>2020-11-08T09:10:48.000Z</time>
      </trkpt>
      <trkpt lat="50.4826" lon="3.77519">
        <ele>91.91</ele>
        <time>2020-11-08T09:10:49.000Z</time>
      </trkpt>
      <trkpt lat="50.48263" lon="3.77525">
        <ele>91.87</ele>
        <time>2020-11-08T09:10:50.000Z</time>
      </trkpt>
      <trkpt lat="50.48265" lon="3.77532">
        <ele>91.99</ele>
        <time>2020-11-08T09:10:51.000Z</time>
      </trkpt>
      <trkpt lat="50.48267" lon="3.77539">
        <ele>92.04</ele>
        <time>2020-11-08T09:10:52.000Z</time>
      </trkpt>
      <trkpt lat="50.4827" lon="3.77545">
        <ele>92.26</ele>
        <time>2020-11-08T09:10:53.000Z</time>
      </trkpt>
      <trkpt lat="50.48273" lon="3.77551">
        <ele>92.02</ele>
        <time>2020-11-08T09:10:54.000Z</time>
      </trkpt>
      <trkpt lat="50.48277" lon="3.77558">
        <ele>92</ele>
        <time>2020-11-08T09:10:55.000Z</time>
      </trkpt>
      <trkpt lat="50.48283" lon="3.77563">
        <ele>92.04</ele>
        <time>2020-11-08T09:10:56.000Z</time>
      </trkpt>
      <trkpt lat="50.48288" lon="3.77565">
        <ele>92.06</ele>
        <time>2020-11-08T09:10:57.000Z</time>
      </trkpt>
      <trkpt lat="50.48294" lon="3.77566">
        <ele>92.2</ele>
        <time>2020-11-08T09:10:58.000Z</time>
      </trkpt>
      <trkpt lat="50.483" lon="3.77567">
        <ele>92.23</ele>
        <time>2020-11-08T09:10:59.000Z</time>
      </trkpt>
      <trkpt lat="50.48305" lon="3.77569">
        <ele>92.58</ele>
        <time>2020-11-08T09:11:00.000Z</time>
      </trkpt>
      <trkpt lat="50.48313" lon="3.77572">
        <ele>92.6</ele>
        <time>2020-11-08T09:11:02.000Z</time>
      </trkpt>
      <trkpt lat="50.48317" lon="3.77573">
        <ele>92.6</ele>
        <time>2020-11-08T09:11:04.000Z</time>
      </trkpt>
      <trkpt lat="50.48323" lon="3.77575">
        <ele>92.84</ele>
        <time>2020-11-08T09:11:06.000Z</time>
      </trkpt>
      <trkpt lat="50.48328" lon="3.77576">
        <ele>93.19</ele>
        <time>2020-11-08T09:11:08.000Z</time>
      </trkpt>
      <trkpt lat="50.48335" lon="3.77577">
        <ele>93.17</ele>
        <time>2020-11-08T09:11:11.000Z</time>
      </trkpt>
      <trkpt lat="50.48339" lon="3.77581">
        <ele>93.03</ele>
        <time>2020-11-08T09:11:13.000Z</time>
      </trkpt>
      <trkpt lat="50.48341" lon="3.7759">
        <ele>93.08</ele>
        <time>2020-11-08T09:11:15.000Z</time>
      </trkpt>
      <trkpt lat="50.4834" lon="3.77601">
        <ele>93.34</ele>
        <time>2020-11-08T09:11:17.000Z</time>
      </trkpt>
      <trkpt lat="50.4834" lon="3.77614">
        <ele>93.08</ele>
        <time>2020-11-08T09:11:19.000Z</time>
      </trkpt>
      <trkpt lat="50.4834" lon="3.77628">
        <ele>92.63</ele>
        <time>2020-11-08T09:11:21.000Z</time>
      </trkpt>
      <trkpt lat="50.4834" lon="3.77641">
        <ele>91.87</ele>
        <time>2020-11-08T09:11:23.000Z</time>
      </trkpt>
      <trkpt lat="50.4834" lon="3.77651">
        <ele>91.7</ele>
        <time>2020-11-08T09:11:25.000Z</time>
      </trkpt>
      <trkpt lat="50.4834" lon="3.77662">
        <ele>91.69</ele>
        <time>2020-11-08T09:11:27.000Z</time>
      </trkpt>
      <trkpt lat="50.48341" lon="3.77676">
        <ele>91.75</ele>
        <time>2020-11-08T09:11:29.000Z</time>
      </trkpt>
      <trkpt lat="50.48343" lon="3.77683">
        <ele>91.79</ele>
        <time>2020-11-08T09:11:30.000Z</time>
      </trkpt>
      <trkpt lat="50.48347" lon="3.77689">
        <ele>91.65</ele>
        <time>2020-11-08T09:11:31.000Z</time>
      </trkpt>
      <trkpt lat="50.4835" lon="3.77694">
        <ele>91.6</ele>
        <time>2020-11-08T09:11:32.000Z</time>
      </trkpt>
      <trkpt lat="50.48354" lon="3.77699">
        <ele>91.52</ele>
        <time>2020-11-08T09:11:33.000Z</time>
      </trkpt>
      <trkpt lat="50.48358" lon="3.77704">
        <ele>91.81</ele>
        <time>2020-11-08T09:11:34.000Z</time>
      </trkpt>
      <trkpt lat="50.48362" lon="3.77709">
        <ele>92.01</ele>
        <time>2020-11-08T09:11:35.000Z</time>
      </trkpt>
      <trkpt lat="50.48366" lon="3.77716">
        <ele>92.21</ele>
        <time>2020-11-08T09:11:36.000Z</time>
      </trkpt>
      <trkpt lat="50.4837" lon="3.77722">
        <ele>92.4</ele>
        <time>2020-11-08T09:11:37.000Z</time>
      </trkpt>
      <trkpt lat="50.48373" lon="3.7773">
        <ele>92.39</ele>
        <time>2020-11-08T09:11:38.000Z</time>
      </trkpt>
      <trkpt lat="50.48375" lon="3.77737">
        <ele>92.49</ele>
        <time>2020-11-08T09:11:39.000Z</time>
      </trkpt>
      <trkpt lat="50.48378" lon="3.77745">
        <ele>92.57</ele>
        <time>2020-11-08T09:11:40.000Z</time>
      </trkpt>
      <trkpt lat="50.48379" lon="3.77754">
        <ele>92.93</ele>
        <time>2020-11-08T09:11:41.000Z</time>
      </trkpt>
      <trkpt lat="50.48381" lon="3.77763">
        <ele>93.25</ele>
        <time>2020-11-08T09:11:42.000Z</time>
      </trkpt>
      <trkpt lat="50.48382" lon="3.77772">
        <ele>93.38</ele>
        <time>2020-11-08T09:11:43.000Z</time>
      </trkpt>
      <trkpt lat="50.48382" lon="3.77781">
        <ele>93.44</ele>
        <time>2020-11-08T09:11:44.000Z</time>
      </trkpt>
      <trkpt lat="50.48383" lon="3.77791">
        <ele>93.76</ele>
        <time>2020-11-08T09:11:45.000Z</time>
      </trkpt>
      <trkpt lat="50.48383" lon="3.778">
        <ele>93.87</ele>
        <time>2020-11-08T09:11:46.000Z</time>
      </trkpt>
      <trkpt lat="50.48384" lon="3.77809">
        <ele>93.83</ele>
        <time>2020-11-08T09:11:47.000Z</time>
      </trkpt>
      <trkpt lat="50.48384" lon="3.77819">
        <ele>93.7</ele>
        <time>2020-11-08T09:11:48.000Z</time>
      </trkpt>
      <trkpt lat="50.48385" lon="3.77828">
        <ele>93.8</ele>
        <time>2020-11-08T09:11:49.000Z</time>
      </trkpt>
      <trkpt lat="50.48386" lon="3.77837">
        <ele>93.79</ele>
        <time>2020-11-08T09:11:50.000Z</time>
      </trkpt>
      <trkpt lat="50.48386" lon="3.77847">
        <ele>93.72</ele>
        <time>2020-11-08T09:11:51.000Z</time>
      </trkpt>
      <trkpt lat="50.48387" lon="3.77857">
        <ele>94.03</ele>
        <time>2020-11-08T09:11:52.000Z</time>
      </trkpt>
      <trkpt lat="50.48387" lon="3.77866">
        <ele>93.96</ele>
        <time>2020-11-08T09:11:53.000Z</time>
      </trkpt>
      <trkpt lat="50.48388" lon="3.77876">
        <ele>94.18</ele>
        <time>2020-11-08T09:11:54.000Z</time>
      </trkpt>
      <trkpt lat="50.48388" lon="3.77885">
        <ele>94.07</ele>
        <time>2020-11-08T09:11:55.000Z</time>
      </trkpt>
      <trkpt lat="50.48389" lon="3.77895">
        <ele>94.09</ele>
        <time>2020-11-08T09:11:56.000Z</time>
      </trkpt>
      <trkpt lat="50.48389" lon="3.77904">
        <ele>93.98</ele>
        <time>2020-11-08T09:11:57.000Z</time>
      </trkpt>
      <trkpt lat="50.4839" lon="3.77915">
        <ele>93.98</ele>
        <time>2020-11-08T09:11:58.000Z</time>
      </trkpt>
      <trkpt lat="50.4839" lon="3.77924">
        <ele>94.13</ele>
        <time>2020-11-08T09:11:59.000Z</time>
      </trkpt>
      <trkpt lat="50.48391" lon="3.77933">
        <ele>94.09</ele>
        <time>2020-11-08T09:12:00.000Z</time>
      </trkpt>
      <trkpt lat="50.48391" lon="3.77942">
        <ele>94.14</ele>
        <time>2020-11-08T09:12:01.000Z</time>
      </trkpt>
      <trkpt lat="50.48391" lon="3.77952">
        <ele>94.03</ele>
        <time>2020-11-08T09:12:02.000Z</time>
      </trkpt>
      <trkpt lat="50.48391" lon="3.77961">
        <ele>94.01</ele>
        <time>2020-11-08T09:12:03.000Z</time>
      </trkpt>
      <trkpt lat="50.48392" lon="3.77971">
        <ele>93.93</ele>
        <time>2020-11-08T09:12:04.000Z</time>
      </trkpt>
      <trkpt lat="50.48392" lon="3.7798">
        <ele>93.82</ele>
        <time>2020-11-08T09:12:05.000Z</time>
      </trkpt>
      <trkpt lat="50.48393" lon="3.77989">
        <ele>93.72</ele>
        <time>2020-11-08T09:12:06.000Z</time>
      </trkpt>
      <trkpt lat="50.48393" lon="3.77998">
        <ele>93.96</ele>
        <time>2020-11-08T09:12:07.000Z</time>
      </trkpt>
      <trkpt lat="50.48393" lon="3.78007">
        <ele>93.86</ele>
        <time>2020-11-08T09:12:08.000Z</time>
      </trkpt>
      <trkpt lat="50.48394" lon="3.78015">
        <ele>93.91</ele>
        <time>2020-11-08T09:12:09.000Z</time>
      </trkpt>
      <trkpt lat="50.48394" lon="3.78024">
        <ele>93.74</ele>
        <time>2020-11-08T09:12:10.000Z</time>
      </trkpt>
      <trkpt lat="50.48394" lon="3.78033">
        <ele>93.99</ele>
        <time>2020-11-08T09:12:11.000Z</time>
      </trkpt>
      <trkpt lat="50.48395" lon="3.78042">
        <ele>93.99</ele>
        <time>2020-11-08T09:12:12.000Z</time>
      </trkpt>
      <trkpt lat="50.48395" lon="3.7805">
        <ele>94.14</ele>
        <time>2020-11-08T09:12:13.000Z</time>
      </trkpt>
      <trkpt lat="50.48395" lon="3.78059">
        <ele>94.18</ele>
        <time>2020-11-08T09:12:14.000Z</time>
      </trkpt>
      <trkpt lat="50.48396" lon="3.78067">
        <ele>94.4</ele>
        <time>2020-11-08T09:12:15.000Z</time>
      </trkpt>
      <trkpt lat="50.48396" lon="3.78076">
        <ele>94.36</ele>
        <time>2020-11-08T09:12:16.000Z</time>
      </trkpt>
      <trkpt lat="50.48397" lon="3.78084">
        <ele>94.36</ele>
        <time>2020-11-08T09:12:17.000Z</time>
      </trkpt>
      <trkpt lat="50.48397" lon="3.78093">
        <ele>94.26</ele>
        <time>2020-11-08T09:12:18.000Z</time>
      </trkpt>
      <trkpt lat="50.48398" lon="3.78102">
        <ele>94.3</ele>
        <time>2020-11-08T09:12:19.000Z</time>
      </trkpt>
      <trkpt lat="50.48398" lon="3.7811">
        <ele>94.49</ele>
        <time>2020-11-08T09:12:20.000Z</time>
      </trkpt>
      <trkpt lat="50.48399" lon="3.78119">
        <ele>94.17</ele>
        <time>2020-11-08T09:12:21.000Z</time>
      </trkpt>
      <trkpt lat="50.484" lon="3.78128">
        <ele>93.99</ele>
        <time>2020-11-08T09:12:22.000Z</time>
      </trkpt>
      <trkpt lat="50.484" lon="3.78136">
        <ele>93.82</ele>
        <time>2020-11-08T09:12:23.000Z</time>
      </trkpt>
      <trkpt lat="50.48401" lon="3.78144">
        <ele>94.08</ele>
        <time>2020-11-08T09:12:24.000Z</time>
      </trkpt>
      <trkpt lat="50.48402" lon="3.78152">
        <ele>93.87</ele>
        <time>2020-11-08T09:12:25.000Z</time>
      </trkpt>
      <trkpt lat="50.48403" lon="3.78161">
        <ele>93.92</ele>
        <time>2020-11-08T09:12:26.000Z</time>
      </trkpt>
      <trkpt lat="50.48404" lon="3.78169">
        <ele>93.98</ele>
        <time>2020-11-08T09:12:27.000Z</time>
      </trkpt>
      <trkpt lat="50.48405" lon="3.78177">
        <ele>93.87</ele>
        <time>2020-11-08T09:12:28.000Z</time>
      </trkpt>
      <trkpt lat="50.48406" lon="3.78184">
        <ele>93.96</ele>
        <time>2020-11-08T09:12:29.000Z</time>
      </trkpt>
      <trkpt lat="50.48407" lon="3.78192">
        <ele>93.99</ele>
        <time>2020-11-08T09:12:30.000Z</time>
      </trkpt>
      <trkpt lat="50.48409" lon="3.78199">
        <ele>93.84</ele>
        <time>2020-11-08T09:12:31.000Z</time>
      </trkpt>
      <trkpt lat="50.4841" lon="3.78207">
        <ele>93.88</ele>
        <time>2020-11-08T09:12:32.000Z</time>
      </trkpt>
      <trkpt lat="50.48411" lon="3.78215">
        <ele>94.06</ele>
        <time>2020-11-08T09:12:33.000Z</time>
      </trkpt>
      <trkpt lat="50.48413" lon="3.78224">
        <ele>94.3</ele>
        <time>2020-11-08T09:12:34.000Z</time>
      </trkpt>
      <trkpt lat="50.48414" lon="3.78232">
        <ele>94.06</ele>
        <time>2020-11-08T09:12:35.000Z</time>
      </trkpt>
      <trkpt lat="50.48416" lon="3.78241">
        <ele>94.2</ele>
        <time>2020-11-08T09:12:36.000Z</time>
      </trkpt>
      <trkpt lat="50.48418" lon="3.7825">
        <ele>94.19</ele>
        <time>2020-11-08T09:12:37.000Z</time>
      </trkpt>
      <trkpt lat="50.48419" lon="3.78259">
        <ele>94.25</ele>
        <time>2020-11-08T09:12:38.000Z</time>
      </trkpt>
      <trkpt lat="50.48421" lon="3.78268">
        <ele>94.01</ele>
        <time>2020-11-08T09:12:39.000Z</time>
      </trkpt>
      <trkpt lat="50.48422" lon="3.78276">
        <ele>94.06</ele>
        <time>2020-11-08T09:12:40.000Z</time>
      </trkpt>
      <trkpt lat="50.48424" lon="3.78286">
        <ele>93.76</ele>
        <time>2020-11-08T09:12:41.000Z</time>
      </trkpt>
      <trkpt lat="50.48425" lon="3.78294">
        <ele>93.78</ele>
        <time>2020-11-08T09:12:42.000Z</time>
      </trkpt>
      <trkpt lat="50.48427" lon="3.78303">
        <ele>94</ele>
        <time>2020-11-08T09:12:43.000Z</time>
      </trkpt>
      <trkpt lat="50.48429" lon="3.78312">
        <ele>93.81</ele>
        <time>2020-11-08T09:12:44.000Z</time>
      </trkpt>
      <trkpt lat="50.4843" lon="3.78321">
        <ele>93.83</ele>
        <time>2020-11-08T09:12:45.000Z</time>
      </trkpt>
      <trkpt lat="50.48432" lon="3.7833">
        <ele>93.85</ele>
        <time>2020-11-08T09:12:46.000Z</time>
      </trkpt>
      <trkpt lat="50.48433" lon="3.78338">
        <ele>93.88</ele>
        <time>2020-11-08T09:12:47.000Z</time>
      </trkpt>
      <trkpt lat="50.48435" lon="3.78347">
        <ele>93.77</ele>
        <time>2020-11-08T09:12:48.000Z</time>
      </trkpt>
      <trkpt lat="50.48436" lon="3.78356">
        <ele>93.84</ele>
        <time>2020-11-08T09:12:49.000Z</time>
      </trkpt>
      <trkpt lat="50.48438" lon="3.78364">
        <ele>93.5</ele>
        <time>2020-11-08T09:12:50.000Z</time>
      </trkpt>
      <trkpt lat="50.4844" lon="3.78373">
        <ele>93.55</ele>
        <time>2020-11-08T09:12:51.000Z</time>
      </trkpt>
      <trkpt lat="50.48442" lon="3.78381">
        <ele>93.57</ele>
        <time>2020-11-08T09:12:52.000Z</time>
      </trkpt>
      <trkpt lat="50.48443" lon="3.7839">
        <ele>93.68</ele>
        <time>2020-11-08T09:12:53.000Z</time>
      </trkpt>
      <trkpt lat="50.48445" lon="3.78398">
        <ele>94.06</ele>
        <time>2020-11-08T09:12:54.000Z</time>
      </trkpt>
      <trkpt lat="50.48446" lon="3.78407">
        <ele>94.32</ele>
        <time>2020-11-08T09:12:55.000Z</time>
      </trkpt>
      <trkpt lat="50.48448" lon="3.78416">
        <ele>94.56</ele>
        <time>2020-11-08T09:12:56.000Z</time>
      </trkpt>
      <trkpt lat="50.4845" lon="3.78425">
        <ele>94.67</ele>
        <time>2020-11-08T09:12:57.000Z</time>
      </trkpt>
      <trkpt lat="50.48452" lon="3.78434">
        <ele>95.39</ele>
        <time>2020-11-08T09:12:58.000Z</time>
      </trkpt>
      <trkpt lat="50.48453" lon="3.78442">
        <ele>95.53</ele>
        <time>2020-11-08T09:12:59.000Z</time>
      </trkpt>
      <trkpt lat="50.48455" lon="3.78451">
        <ele>95.72</ele>
        <time>2020-11-08T09:13:00.000Z</time>
      </trkpt>
      <trkpt lat="50.48457" lon="3.7846">
        <ele>95.65</ele>
        <time>2020-11-08T09:13:01.000Z</time>
      </trkpt>
      <trkpt lat="50.4846" lon="3.78468">
        <ele>95.67</ele>
        <time>2020-11-08T09:13:02.000Z</time>
      </trkpt>
      <trkpt lat="50.48462" lon="3.78477">
        <ele>95.5</ele>
        <time>2020-11-08T09:13:03.000Z</time>
      </trkpt>
      <trkpt lat="50.48464" lon="3.78485">
        <ele>95.29</ele>
        <time>2020-11-08T09:13:04.000Z</time>
      </trkpt>
      <trkpt lat="50.48466" lon="3.78494">
        <ele>94.96</ele>
        <time>2020-11-08T09:13:05.000Z</time>
      </trkpt>
      <trkpt lat="50.48469" lon="3.78502">
        <ele>94.86</ele>
        <time>2020-11-08T09:13:06.000Z</time>
      </trkpt>
      <trkpt lat="50.48471" lon="3.78511">
        <ele>94.58</ele>
        <time>2020-11-08T09:13:07.000Z</time>
      </trkpt>
      <trkpt lat="50.48473" lon="3.78519">
        <ele>94.72</ele>
        <time>2020-11-08T09:13:08.000Z</time>
      </trkpt>
      <trkpt lat="50.48476" lon="3.78527">
        <ele>94.52</ele>
        <time>2020-11-08T09:13:09.000Z</time>
      </trkpt>
      <trkpt lat="50.48478" lon="3.78535">
        <ele>94.74</ele>
        <time>2020-11-08T09:13:10.000Z</time>
      </trkpt>
      <trkpt lat="50.4848" lon="3.78543">
        <ele>94.95</ele>
        <time>2020-11-08T09:13:11.000Z</time>
      </trkpt>
      <trkpt lat="50.48483" lon="3.78551">
        <ele>94.83</ele>
        <time>2020-11-08T09:13:12.000Z</time>
      </trkpt>
      <trkpt lat="50.48485" lon="3.78559">
        <ele>95.14</ele>
        <time>2020-11-08T09:13:13.000Z</time>
      </trkpt>
      <trkpt lat="50.48487" lon="3.78567">
        <ele>95.01</ele>
        <time>2020-11-08T09:13:14.000Z</time>
      </trkpt>
      <trkpt lat="50.4849" lon="3.78575">
        <ele>95.1</ele>
        <time>2020-11-08T09:13:15.000Z</time>
      </trkpt>
      <trkpt lat="50.48492" lon="3.78583">
        <ele>95.26</ele>
        <time>2020-11-08T09:13:16.000Z</time>
      </trkpt>
      <trkpt lat="50.48495" lon="3.7859">
        <ele>95.78</ele>
        <time>2020-11-08T09:13:17.000Z</time>
      </trkpt>
      <trkpt lat="50.48497" lon="3.78598">
        <ele>96.27</ele>
        <time>2020-11-08T09:13:18.000Z</time>
      </trkpt>
      <trkpt lat="50.48499" lon="3.78605">
        <ele>95.94</ele>
        <time>2020-11-08T09:13:19.000Z</time>
      </trkpt>
      <trkpt lat="50.48502" lon="3.78613">
        <ele>96.57</ele>
        <time>2020-11-08T09:13:20.000Z</time>
      </trkpt>
      <trkpt lat="50.48504" lon="3.78621">
        <ele>96.69</ele>
        <time>2020-11-08T09:13:21.000Z</time>
      </trkpt>
      <trkpt lat="50.48507" lon="3.78629">
        <ele>97.19</ele>
        <time>2020-11-08T09:13:22.000Z</time>
      </trkpt>
      <trkpt lat="50.48509" lon="3.78637">
        <ele>97.35</ele>
        <time>2020-11-08T09:13:23.000Z</time>
      </trkpt>
      <trkpt lat="50.48512" lon="3.78645">
        <ele>97.6</ele>
        <time>2020-11-08T09:13:24.000Z</time>
      </trkpt>
      <trkpt lat="50.48515" lon="3.78653">
        <ele>97.77</ele>
        <time>2020-11-08T09:13:25.000Z</time>
      </trkpt>
      <trkpt lat="50.48518" lon="3.78661">
        <ele>97.79</ele>
        <time>2020-11-08T09:13:26.000Z</time>
      </trkpt>
      <trkpt lat="50.48521" lon="3.78668">
        <ele>97.84</ele>
        <time>2020-11-08T09:13:27.000Z</time>
      </trkpt>
      <trkpt lat="50.48525" lon="3.78676">
        <ele>97.88</ele>
        <time>2020-11-08T09:13:28.000Z</time>
      </trkpt>
      <trkpt lat="50.48528" lon="3.78683">
        <ele>98.17</ele>
        <time>2020-11-08T09:13:29.000Z</time>
      </trkpt>
      <trkpt lat="50.48531" lon="3.78692">
        <ele>98.07</ele>
        <time>2020-11-08T09:13:30.000Z</time>
      </trkpt>
      <trkpt lat="50.48534" lon="3.787">
        <ele>97.88</ele>
        <time>2020-11-08T09:13:31.000Z</time>
      </trkpt>
      <trkpt lat="50.48537" lon="3.78708">
        <ele>97.83</ele>
        <time>2020-11-08T09:13:32.000Z</time>
      </trkpt>
      <trkpt lat="50.4854" lon="3.78716">
        <ele>97.97</ele>
        <time>2020-11-08T09:13:33.000Z</time>
      </trkpt>
      <trkpt lat="50.48544" lon="3.78722">
        <ele>98.15</ele>
        <time>2020-11-08T09:13:34.000Z</time>
      </trkpt>
      <trkpt lat="50.48548" lon="3.78729">
        <ele>98.41</ele>
        <time>2020-11-08T09:13:35.000Z</time>
      </trkpt>
      <trkpt lat="50.48553" lon="3.78733">
        <ele>98.52</ele>
        <time>2020-11-08T09:13:36.000Z</time>
      </trkpt>
      <trkpt lat="50.48557" lon="3.78739">
        <ele>98.86</ele>
        <time>2020-11-08T09:13:37.000Z</time>
      </trkpt>
      <trkpt lat="50.48562" lon="3.78744">
        <ele>98.93</ele>
        <time>2020-11-08T09:13:38.000Z</time>
      </trkpt>
      <trkpt lat="50.48565" lon="3.78751">
        <ele>98.86</ele>
        <time>2020-11-08T09:13:39.000Z</time>
      </trkpt>
      <trkpt lat="50.48567" lon="3.78759">
        <ele>98.87</ele>
        <time>2020-11-08T09:13:40.000Z</time>
      </trkpt>
      <trkpt lat="50.48567" lon="3.78768">
        <ele>98.86</ele>
        <time>2020-11-08T09:13:41.000Z</time>
      </trkpt>
      <trkpt lat="50.48566" lon="3.78777">
        <ele>98.89</ele>
        <time>2020-11-08T09:13:42.000Z</time>
      </trkpt>
      <trkpt lat="50.48564" lon="3.78786">
        <ele>98.84</ele>
        <time>2020-11-08T09:13:43.000Z</time>
      </trkpt>
      <trkpt lat="50.48562" lon="3.78795">
        <ele>99.11</ele>
        <time>2020-11-08T09:13:44.000Z</time>
      </trkpt>
      <trkpt lat="50.4856" lon="3.78803">
        <ele>98.81</ele>
        <time>2020-11-08T09:13:45.000Z</time>
      </trkpt>
      <trkpt lat="50.48557" lon="3.78812">
        <ele>99.01</ele>
        <time>2020-11-08T09:13:46.000Z</time>
      </trkpt>
      <trkpt lat="50.48555" lon="3.78821">
        <ele>99.06</ele>
        <time>2020-11-08T09:13:47.000Z</time>
      </trkpt>
      <trkpt lat="50.48553" lon="3.7883">
        <ele>99.39</ele>
        <time>2020-11-08T09:13:48.000Z</time>
      </trkpt>
      <trkpt lat="50.48551" lon="3.7884">
        <ele>99.26</ele>
        <time>2020-11-08T09:13:49.000Z</time>
      </trkpt>
      <trkpt lat="50.48549" lon="3.78849">
        <ele>99.2</ele>
        <time>2020-11-08T09:13:50.000Z</time>
      </trkpt>
      <trkpt lat="50.48547" lon="3.78858">
        <ele>99.61</ele>
        <time>2020-11-08T09:13:51.000Z</time>
      </trkpt>
      <trkpt lat="50.48545" lon="3.78866">
        <ele>99.01</ele>
        <time>2020-11-08T09:13:52.000Z</time>
      </trkpt>
      <trkpt lat="50.48543" lon="3.78874">
        <ele>99.58</ele>
        <time>2020-11-08T09:13:53.000Z</time>
      </trkpt>
      <trkpt lat="50.48542" lon="3.78881">
        <ele>100.02</ele>
        <time>2020-11-08T09:13:54.000Z</time>
      </trkpt>
      <trkpt lat="50.48538" lon="3.78891">
        <ele>100.67</ele>
        <time>2020-11-08T09:13:56.000Z</time>
      </trkpt>
      <trkpt lat="50.48533" lon="3.78902">
        <ele>100.02</ele>
        <time>2020-11-08T09:13:58.000Z</time>
      </trkpt>
      <trkpt lat="50.48531" lon="3.78909">
        <ele>100.62</ele>
        <time>2020-11-08T09:13:59.000Z</time>
      </trkpt>
      <trkpt lat="50.48529" lon="3.78917">
        <ele>100.61</ele>
        <time>2020-11-08T09:14:00.000Z</time>
      </trkpt>
      <trkpt lat="50.48527" lon="3.78926">
        <ele>99.11</ele>
        <time>2020-11-08T09:14:01.000Z</time>
      </trkpt>
      <trkpt lat="50.48525" lon="3.78934">
        <ele>99.77</ele>
        <time>2020-11-08T09:14:02.000Z</time>
      </trkpt>
      <trkpt lat="50.48523" lon="3.78943">
        <ele>100.28</ele>
        <time>2020-11-08T09:14:03.000Z</time>
      </trkpt>
      <trkpt lat="50.48521" lon="3.78952">
        <ele>100.8</ele>
        <time>2020-11-08T09:14:04.000Z</time>
      </trkpt>
      <trkpt lat="50.4852" lon="3.78959">
        <ele>101.02</ele>
        <time>2020-11-08T09:14:05.000Z</time>
      </trkpt>
      <trkpt lat="50.4852" lon="3.78968">
        <ele>101.9</ele>
        <time>2020-11-08T09:14:06.000Z</time>
      </trkpt>
      <trkpt lat="50.48521" lon="3.78976">
        <ele>101.64</ele>
        <time>2020-11-08T09:14:07.000Z</time>
      </trkpt>
      <trkpt lat="50.48523" lon="3.78985">
        <ele>101.53</ele>
        <time>2020-11-08T09:14:08.000Z</time>
      </trkpt>
      <trkpt lat="50.48527" lon="3.78992">
        <ele>101.26</ele>
        <time>2020-11-08T09:14:09.000Z</time>
      </trkpt>
      <trkpt lat="50.48532" lon="3.78998">
        <ele>101.29</ele>
        <time>2020-11-08T09:14:10.000Z</time>
      </trkpt>
      <trkpt lat="50.48536" lon="3.79005">
        <ele>100.99</ele>
        <time>2020-11-08T09:14:11.000Z</time>
      </trkpt>
      <trkpt lat="50.48541" lon="3.79012">
        <ele>101.08</ele>
        <time>2020-11-08T09:14:12.000Z</time>
      </trkpt>
      <trkpt lat="50.48546" lon="3.79019">
        <ele>101.37</ele>
        <time>2020-11-08T09:14:13.000Z</time>
      </trkpt>
      <trkpt lat="50.48551" lon="3.79026">
        <ele>101.08</ele>
        <time>2020-11-08T09:14:14.000Z</time>
      </trkpt>
      <trkpt lat="50.48556" lon="3.79033">
        <ele>101.16</ele>
        <time>2020-11-08T09:14:15.000Z</time>
      </trkpt>
      <trkpt lat="50.48561" lon="3.7904">
        <ele>101.24</ele>
        <time>2020-11-08T09:14:16.000Z</time>
      </trkpt>
      <trkpt lat="50.48566" lon="3.79047">
        <ele>101.25</ele>
        <time>2020-11-08T09:14:17.000Z</time>
      </trkpt>
      <trkpt lat="50.48571" lon="3.79053">
        <ele>101.6</ele>
        <time>2020-11-08T09:14:18.000Z</time>
      </trkpt>
      <trkpt lat="50.48577" lon="3.79058">
        <ele>101.88</ele>
        <time>2020-11-08T09:14:19.000Z</time>
      </trkpt>
      <trkpt lat="50.48582" lon="3.79063">
        <ele>101.81</ele>
        <time>2020-11-08T09:14:20.000Z</time>
      </trkpt>
      <trkpt lat="50.48588" lon="3.79066">
        <ele>101.85</ele>
        <time>2020-11-08T09:14:21.000Z</time>
      </trkpt>
      <trkpt lat="50.48595" lon="3.79069">
        <ele>101.57</ele>
        <time>2020-11-08T09:14:22.000Z</time>
      </trkpt>
      <trkpt lat="50.48601" lon="3.79072">
        <ele>101.61</ele>
        <time>2020-11-08T09:14:23.000Z</time>
      </trkpt>
      <trkpt lat="50.48606" lon="3.79075">
        <ele>101.43</ele>
        <time>2020-11-08T09:14:24.000Z</time>
      </trkpt>
      <trkpt lat="50.48612" lon="3.79078">
        <ele>101.46</ele>
        <time>2020-11-08T09:14:25.000Z</time>
      </trkpt>
      <trkpt lat="50.48617" lon="3.79081">
        <ele>101.54</ele>
        <time>2020-11-08T09:14:26.000Z</time>
      </trkpt>
      <trkpt lat="50.48622" lon="3.79085">
        <ele>101.35</ele>
        <time>2020-11-08T09:14:27.000Z</time>
      </trkpt>
      <trkpt lat="50.48627" lon="3.79088">
        <ele>101.53</ele>
        <time>2020-11-08T09:14:28.000Z</time>
      </trkpt>
      <trkpt lat="50.48633" lon="3.79091">
        <ele>101.42</ele>
        <time>2020-11-08T09:14:29.000Z</time>
      </trkpt>
      <trkpt lat="50.48638" lon="3.79096">
        <ele>101.44</ele>
        <time>2020-11-08T09:14:30.000Z</time>
      </trkpt>
      <trkpt lat="50.48643" lon="3.79102">
        <ele>101.04</ele>
        <time>2020-11-08T09:14:31.000Z</time>
      </trkpt>
      <trkpt lat="50.48647" lon="3.79108">
        <ele>101.11</ele>
        <time>2020-11-08T09:14:32.000Z</time>
      </trkpt>
      <trkpt lat="50.48649" lon="3.79115">
        <ele>101.15</ele>
        <time>2020-11-08T09:14:33.000Z</time>
      </trkpt>
      <trkpt lat="50.48651" lon="3.79124">
        <ele>101.09</ele>
        <time>2020-11-08T09:14:34.000Z</time>
      </trkpt>
      <trkpt lat="50.48651" lon="3.79132">
        <ele>101.29</ele>
        <time>2020-11-08T09:14:35.000Z</time>
      </trkpt>
      <trkpt lat="50.4865" lon="3.79139">
        <ele>101.04</ele>
        <time>2020-11-08T09:14:36.000Z</time>
      </trkpt>
      <trkpt lat="50.48647" lon="3.79148">
        <ele>100.89</ele>
        <time>2020-11-08T09:14:37.000Z</time>
      </trkpt>
      <trkpt lat="50.48645" lon="3.79154">
        <ele>100.22</ele>
        <time>2020-11-08T09:14:38.000Z</time>
      </trkpt>
      <trkpt lat="50.48642" lon="3.7916">
        <ele>100.14</ele>
        <time>2020-11-08T09:14:39.000Z</time>
      </trkpt>
      <trkpt lat="50.48638" lon="3.79165">
        <ele>100.88</ele>
        <time>2020-11-08T09:14:40.000Z</time>
      </trkpt>
      <trkpt lat="50.48635" lon="3.79172">
        <ele>99.98</ele>
        <time>2020-11-08T09:14:41.000Z</time>
      </trkpt>
      <trkpt lat="50.48633" lon="3.79179">
        <ele>100.78</ele>
        <time>2020-11-08T09:14:42.000Z</time>
      </trkpt>
      <trkpt lat="50.48633" lon="3.79186">
        <ele>100.35</ele>
        <time>2020-11-08T09:14:43.000Z</time>
      </trkpt>
      <trkpt lat="50.48631" lon="3.79194">
        <ele>100.34</ele>
        <time>2020-11-08T09:14:44.000Z</time>
      </trkpt>
      <trkpt lat="50.48631" lon="3.79202">
        <ele>100.37</ele>
        <time>2020-11-08T09:14:45.000Z</time>
      </trkpt>
      <trkpt lat="50.4863" lon="3.79212">
        <ele>100.34</ele>
        <time>2020-11-08T09:14:46.000Z</time>
      </trkpt>
      <trkpt lat="50.48627" lon="3.79224">
        <ele>100.2</ele>
        <time>2020-11-08T09:14:48.000Z</time>
      </trkpt>
      <trkpt lat="50.48625" lon="3.79236">
        <ele>100.72</ele>
        <time>2020-11-08T09:14:50.000Z</time>
      </trkpt>
      <trkpt lat="50.48624" lon="3.79246">
        <ele>101.71</ele>
        <time>2020-11-08T09:14:52.000Z</time>
      </trkpt>
      <trkpt lat="50.4863" lon="3.79252">
        <ele>101.87</ele>
        <time>2020-11-08T09:14:54.000Z</time>
      </trkpt>
      <trkpt lat="50.48635" lon="3.79253">
        <ele>102.49</ele>
        <time>2020-11-08T09:14:55.000Z</time>
      </trkpt>
      <trkpt lat="50.48641" lon="3.79254">
        <ele>102.54</ele>
        <time>2020-11-08T09:14:56.000Z</time>
      </trkpt>
      <trkpt lat="50.48646" lon="3.79256">
        <ele>102.34</ele>
        <time>2020-11-08T09:14:57.000Z</time>
      </trkpt>
      <trkpt lat="50.48651" lon="3.79257">
        <ele>102.2</ele>
        <time>2020-11-08T09:14:58.000Z</time>
      </trkpt>
      <trkpt lat="50.48657" lon="3.79259">
        <ele>101.98</ele>
        <time>2020-11-08T09:14:59.000Z</time>
      </trkpt>
      <trkpt lat="50.48664" lon="3.7926">
        <ele>101.28</ele>
        <time>2020-11-08T09:15:00.000Z</time>
      </trkpt>
      <trkpt lat="50.48671" lon="3.79266">
        <ele>100.46</ele>
        <time>2020-11-08T09:15:02.000Z</time>
      </trkpt>
      <trkpt lat="50.48674" lon="3.79278">
        <ele>100.94</ele>
        <time>2020-11-08T09:15:04.000Z</time>
      </trkpt>
      <trkpt lat="50.48675" lon="3.79286">
        <ele>101.35</ele>
        <time>2020-11-08T09:15:05.000Z</time>
      </trkpt>
      <trkpt lat="50.48674" lon="3.79294">
        <ele>101.37</ele>
        <time>2020-11-08T09:15:06.000Z</time>
      </trkpt>
      <trkpt lat="50.48673" lon="3.79301">
        <ele>101.63</ele>
        <time>2020-11-08T09:15:07.000Z</time>
      </trkpt>
      <trkpt lat="50.48672" lon="3.79309">
        <ele>101.91</ele>
        <time>2020-11-08T09:15:08.000Z</time>
      </trkpt>
      <trkpt lat="50.48671" lon="3.79317">
        <ele>102.68</ele>
        <time>2020-11-08T09:15:09.000Z</time>
      </trkpt>
      <trkpt lat="50.48671" lon="3.79325">
        <ele>102.89</ele>
        <time>2020-11-08T09:15:10.000Z</time>
      </trkpt>
      <trkpt lat="50.4867" lon="3.79332">
        <ele>102.51</ele>
        <time>2020-11-08T09:15:11.000Z</time>
      </trkpt>
      <trkpt lat="50.48669" lon="3.7934">
        <ele>103.2</ele>
        <time>2020-11-08T09:15:12.000Z</time>
      </trkpt>
      <trkpt lat="50.48668" lon="3.79348">
        <ele>104.24</ele>
        <time>2020-11-08T09:15:13.000Z</time>
      </trkpt>
      <trkpt lat="50.48666" lon="3.79355">
        <ele>103.94</ele>
        <time>2020-11-08T09:15:14.000Z</time>
      </trkpt>
      <trkpt lat="50.48664" lon="3.79363">
        <ele>104.49</ele>
        <time>2020-11-08T09:15:15.000Z</time>
      </trkpt>
      <trkpt lat="50.48662" lon="3.7937">
        <ele>104.56</ele>
        <time>2020-11-08T09:15:16.000Z</time>
      </trkpt>
      <trkpt lat="50.4866" lon="3.79377">
        <ele>104.59</ele>
        <time>2020-11-08T09:15:17.000Z</time>
      </trkpt>
      <trkpt lat="50.48657" lon="3.79384">
        <ele>104.7</ele>
        <time>2020-11-08T09:15:18.000Z</time>
      </trkpt>
      <trkpt lat="50.48655" lon="3.7939">
        <ele>103.73</ele>
        <time>2020-11-08T09:15:19.000Z</time>
      </trkpt>
      <trkpt lat="50.48652" lon="3.79397">
        <ele>104.37</ele>
        <time>2020-11-08T09:15:20.000Z</time>
      </trkpt>
      <trkpt lat="50.4865" lon="3.79403">
        <ele>104.75</ele>
        <time>2020-11-08T09:15:21.000Z</time>
      </trkpt>
      <trkpt lat="50.48648" lon="3.7941">
        <ele>104.66</ele>
        <time>2020-11-08T09:15:22.000Z</time>
      </trkpt>
      <trkpt lat="50.48645" lon="3.79417">
        <ele>104.61</ele>
        <time>2020-11-08T09:15:23.000Z</time>
      </trkpt>
      <trkpt lat="50.48643" lon="3.79424">
        <ele>104.7</ele>
        <time>2020-11-08T09:15:24.000Z</time>
      </trkpt>
      <trkpt lat="50.4864" lon="3.79431">
        <ele>104.73</ele>
        <time>2020-11-08T09:15:25.000Z</time>
      </trkpt>
      <trkpt lat="50.48638" lon="3.79439">
        <ele>104.58</ele>
        <time>2020-11-08T09:15:26.000Z</time>
      </trkpt>
      <trkpt lat="50.48635" lon="3.79446">
        <ele>106.86</ele>
        <time>2020-11-08T09:15:27.000Z</time>
      </trkpt>
      <trkpt lat="50.48632" lon="3.79454">
        <ele>106.32</ele>
        <time>2020-11-08T09:15:28.000Z</time>
      </trkpt>
      <trkpt lat="50.48629" lon="3.79462">
        <ele>106.07</ele>
        <time>2020-11-08T09:15:29.000Z</time>
      </trkpt>
      <trkpt lat="50.48627" lon="3.7947">
        <ele>105.66</ele>
        <time>2020-11-08T09:15:30.000Z</time>
      </trkpt>
      <trkpt lat="50.48624" lon="3.79478">
        <ele>105.66</ele>
        <time>2020-11-08T09:15:31.000Z</time>
      </trkpt>
      <trkpt lat="50.48622" lon="3.79486">
        <ele>105.48</ele>
        <time>2020-11-08T09:15:32.000Z</time>
      </trkpt>
      <trkpt lat="50.48619" lon="3.79495">
        <ele>104.85</ele>
        <time>2020-11-08T09:15:33.000Z</time>
      </trkpt>
      <trkpt lat="50.48616" lon="3.79503">
        <ele>104.89</ele>
        <time>2020-11-08T09:15:34.000Z</time>
      </trkpt>
      <trkpt lat="50.48614" lon="3.79511">
        <ele>104.84</ele>
        <time>2020-11-08T09:15:35.000Z</time>
      </trkpt>
      <trkpt lat="50.48612" lon="3.79519">
        <ele>104.71</ele>
        <time>2020-11-08T09:15:36.000Z</time>
      </trkpt>
      <trkpt lat="50.4861" lon="3.79527">
        <ele>104.6</ele>
        <time>2020-11-08T09:15:37.000Z</time>
      </trkpt>
      <trkpt lat="50.48608" lon="3.79535">
        <ele>104.92</ele>
        <time>2020-11-08T09:15:38.000Z</time>
      </trkpt>
      <trkpt lat="50.48606" lon="3.79543">
        <ele>104.65</ele>
        <time>2020-11-08T09:15:39.000Z</time>
      </trkpt>
      <trkpt lat="50.48604" lon="3.79551">
        <ele>104.43</ele>
        <time>2020-11-08T09:15:40.000Z</time>
      </trkpt>
      <trkpt lat="50.48602" lon="3.79559">
        <ele>104.08</ele>
        <time>2020-11-08T09:15:41.000Z</time>
      </trkpt>
      <trkpt lat="50.486" lon="3.79567">
        <ele>103.74</ele>
        <time>2020-11-08T09:15:42.000Z</time>
      </trkpt>
      <trkpt lat="50.48598" lon="3.79574">
        <ele>104.35</ele>
        <time>2020-11-08T09:15:43.000Z</time>
      </trkpt>
      <trkpt lat="50.48596" lon="3.79582">
        <ele>104.15</ele>
        <time>2020-11-08T09:15:44.000Z</time>
      </trkpt>
      <trkpt lat="50.48594" lon="3.79591">
        <ele>103.83</ele>
        <time>2020-11-08T09:15:45.000Z</time>
      </trkpt>
      <trkpt lat="50.48592" lon="3.79599">
        <ele>103.79</ele>
        <time>2020-11-08T09:15:46.000Z</time>
      </trkpt>
      <trkpt lat="50.4859" lon="3.79608">
        <ele>103.6</ele>
        <time>2020-11-08T09:15:47.000Z</time>
      </trkpt>
      <trkpt lat="50.48589" lon="3.79615">
        <ele>102.83</ele>
        <time>2020-11-08T09:15:48.000Z</time>
      </trkpt>
      <trkpt lat="50.48586" lon="3.79624">
        <ele>102.75</ele>
        <time>2020-11-08T09:15:49.000Z</time>
      </trkpt>
      <trkpt lat="50.48584" lon="3.79632">
        <ele>102.91</ele>
        <time>2020-11-08T09:15:50.000Z</time>
      </trkpt>
      <trkpt lat="50.48582" lon="3.79641">
        <ele>102.52</ele>
        <time>2020-11-08T09:15:51.000Z</time>
      </trkpt>
      <trkpt lat="50.48581" lon="3.79649">
        <ele>102.38</ele>
        <time>2020-11-08T09:15:52.000Z</time>
      </trkpt>
      <trkpt lat="50.48579" lon="3.79658">
        <ele>102.42</ele>
        <time>2020-11-08T09:15:53.000Z</time>
      </trkpt>
      <trkpt lat="50.48577" lon="3.79667">
        <ele>102.14</ele>
        <time>2020-11-08T09:15:54.000Z</time>
      </trkpt>
      <trkpt lat="50.48575" lon="3.79676">
        <ele>100.18</ele>
        <time>2020-11-08T09:15:55.000Z</time>
      </trkpt>
      <trkpt lat="50.48573" lon="3.79685">
        <ele>101.02</ele>
        <time>2020-11-08T09:15:56.000Z</time>
      </trkpt>
      <trkpt lat="50.48571" lon="3.79694">
        <ele>101.3</ele>
        <time>2020-11-08T09:15:57.000Z</time>
      </trkpt>
      <trkpt lat="50.48569" lon="3.79704">
        <ele>101.39</ele>
        <time>2020-11-08T09:15:58.000Z</time>
      </trkpt>
      <trkpt lat="50.48567" lon="3.79713">
        <ele>101.27</ele>
        <time>2020-11-08T09:15:59.000Z</time>
      </trkpt>
      <trkpt lat="50.48564" lon="3.79721">
        <ele>101.28</ele>
        <time>2020-11-08T09:16:00.000Z</time>
      </trkpt>
      <trkpt lat="50.48562" lon="3.7973">
        <ele>101.42</ele>
        <time>2020-11-08T09:16:01.000Z</time>
      </trkpt>
      <trkpt lat="50.48558" lon="3.79738">
        <ele>101.49</ele>
        <time>2020-11-08T09:16:02.000Z</time>
      </trkpt>
      <trkpt lat="50.48555" lon="3.79747">
        <ele>101.34</ele>
        <time>2020-11-08T09:16:03.000Z</time>
      </trkpt>
      <trkpt lat="50.48552" lon="3.79756">
        <ele>101.1</ele>
        <time>2020-11-08T09:16:04.000Z</time>
      </trkpt>
      <trkpt lat="50.48548" lon="3.79764">
        <ele>101.11</ele>
        <time>2020-11-08T09:16:05.000Z</time>
      </trkpt>
      <trkpt lat="50.48544" lon="3.79772">
        <ele>100.64</ele>
        <time>2020-11-08T09:16:06.000Z</time>
      </trkpt>
      <trkpt lat="50.4854" lon="3.79781">
        <ele>100.51</ele>
        <time>2020-11-08T09:16:07.000Z</time>
      </trkpt>
      <trkpt lat="50.48537" lon="3.79789">
        <ele>100.61</ele>
        <time>2020-11-08T09:16:08.000Z</time>
      </trkpt>
      <trkpt lat="50.48533" lon="3.79798">
        <ele>100.79</ele>
        <time>2020-11-08T09:16:09.000Z</time>
      </trkpt>
      <trkpt lat="50.48529" lon="3.79805">
        <ele>100.83</ele>
        <time>2020-11-08T09:16:10.000Z</time>
      </trkpt>
      <trkpt lat="50.48526" lon="3.79814">
        <ele>100.77</ele>
        <time>2020-11-08T09:16:11.000Z</time>
      </trkpt>
      <trkpt lat="50.48522" lon="3.79822">
        <ele>100.23</ele>
        <time>2020-11-08T09:16:12.000Z</time>
      </trkpt>
      <trkpt lat="50.48519" lon="3.7983">
        <ele>100.35</ele>
        <time>2020-11-08T09:16:13.000Z</time>
      </trkpt>
      <trkpt lat="50.48515" lon="3.7984">
        <ele>100.17</ele>
        <time>2020-11-08T09:16:14.000Z</time>
      </trkpt>
      <trkpt lat="50.48511" lon="3.7985">
        <ele>100.11</ele>
        <time>2020-11-08T09:16:15.000Z</time>
      </trkpt>
      <trkpt lat="50.48508" lon="3.7986">
        <ele>99.88</ele>
        <time>2020-11-08T09:16:16.000Z</time>
      </trkpt>
      <trkpt lat="50.48504" lon="3.79869">
        <ele>99.89</ele>
        <time>2020-11-08T09:16:17.000Z</time>
      </trkpt>
      <trkpt lat="50.48501" lon="3.79878">
        <ele>99.69</ele>
        <time>2020-11-08T09:16:18.000Z</time>
      </trkpt>
      <trkpt lat="50.48498" lon="3.79887">
        <ele>99.7</ele>
        <time>2020-11-08T09:16:19.000Z</time>
      </trkpt>
      <trkpt lat="50.48494" lon="3.79897">
        <ele>99.77</ele>
        <time>2020-11-08T09:16:20.000Z</time>
      </trkpt>
      <trkpt lat="50.4849" lon="3.79906">
        <ele>99.7</ele>
        <time>2020-11-08T09:16:21.000Z</time>
      </trkpt>
      <trkpt lat="50.48487" lon="3.79915">
        <ele>99.34</ele>
        <time>2020-11-08T09:16:22.000Z</time>
      </trkpt>
      <trkpt lat="50.48484" lon="3.79924">
        <ele>99.16</ele>
        <time>2020-11-08T09:16:23.000Z</time>
      </trkpt>
      <trkpt lat="50.48481" lon="3.79933">
        <ele>99.22</ele>
        <time>2020-11-08T09:16:24.000Z</time>
      </trkpt>
      <trkpt lat="50.48478" lon="3.79941">
        <ele>99.38</ele>
        <time>2020-11-08T09:16:25.000Z</time>
      </trkpt>
      <trkpt lat="50.48474" lon="3.79949">
        <ele>99.33</ele>
        <time>2020-11-08T09:16:26.000Z</time>
      </trkpt>
      <trkpt lat="50.48471" lon="3.79958">
        <ele>99.47</ele>
        <time>2020-11-08T09:16:27.000Z</time>
      </trkpt>
      <trkpt lat="50.48468" lon="3.79966">
        <ele>99.32</ele>
        <time>2020-11-08T09:16:28.000Z</time>
      </trkpt>
      <trkpt lat="50.48466" lon="3.79974">
        <ele>99.32</ele>
        <time>2020-11-08T09:16:29.000Z</time>
      </trkpt>
      <trkpt lat="50.48467" lon="3.79983">
        <ele>99</ele>
        <time>2020-11-08T09:16:30.000Z</time>
      </trkpt>
      <trkpt lat="50.48471" lon="3.7999">
        <ele>98.36</ele>
        <time>2020-11-08T09:16:31.000Z</time>
      </trkpt>
      <trkpt lat="50.48476" lon="3.79996">
        <ele>98.48</ele>
        <time>2020-11-08T09:16:32.000Z</time>
      </trkpt>
      <trkpt lat="50.48481" lon="3.8">
        <ele>99.32</ele>
        <time>2020-11-08T09:16:33.000Z</time>
      </trkpt>
      <trkpt lat="50.48487" lon="3.80003">
        <ele>99.39</ele>
        <time>2020-11-08T09:16:34.000Z</time>
      </trkpt>
      <trkpt lat="50.48494" lon="3.80005">
        <ele>99.61</ele>
        <time>2020-11-08T09:16:35.000Z</time>
      </trkpt>
      <trkpt lat="50.485" lon="3.80008">
        <ele>99.9</ele>
        <time>2020-11-08T09:16:36.000Z</time>
      </trkpt>
      <trkpt lat="50.48506" lon="3.80011">
        <ele>101.86</ele>
        <time>2020-11-08T09:16:37.000Z</time>
      </trkpt>
      <trkpt lat="50.48512" lon="3.80013">
        <ele>101.76</ele>
        <time>2020-11-08T09:16:38.000Z</time>
      </trkpt>
      <trkpt lat="50.48518" lon="3.80015">
        <ele>101.58</ele>
        <time>2020-11-08T09:16:39.000Z</time>
      </trkpt>
      <trkpt lat="50.48524" lon="3.80018">
        <ele>101.15</ele>
        <time>2020-11-08T09:16:40.000Z</time>
      </trkpt>
      <trkpt lat="50.48531" lon="3.80022">
        <ele>101.21</ele>
        <time>2020-11-08T09:16:41.000Z</time>
      </trkpt>
      <trkpt lat="50.48538" lon="3.80024">
        <ele>101.62</ele>
        <time>2020-11-08T09:16:42.000Z</time>
      </trkpt>
      <trkpt lat="50.48544" lon="3.80027">
        <ele>101.8</ele>
        <time>2020-11-08T09:16:43.000Z</time>
      </trkpt>
      <trkpt lat="50.4855" lon="3.80029">
        <ele>102.51</ele>
        <time>2020-11-08T09:16:44.000Z</time>
      </trkpt>
      <trkpt lat="50.48556" lon="3.80031">
        <ele>102.94</ele>
        <time>2020-11-08T09:16:45.000Z</time>
      </trkpt>
      <trkpt lat="50.48562" lon="3.80034">
        <ele>102.89</ele>
        <time>2020-11-08T09:16:46.000Z</time>
      </trkpt>
      <trkpt lat="50.48568" lon="3.80037">
        <ele>102.99</ele>
        <time>2020-11-08T09:16:47.000Z</time>
      </trkpt>
      <trkpt lat="50.48574" lon="3.80039">
        <ele>103.31</ele>
        <time>2020-11-08T09:16:48.000Z</time>
      </trkpt>
      <trkpt lat="50.4858" lon="3.80042">
        <ele>103.29</ele>
        <time>2020-11-08T09:16:49.000Z</time>
      </trkpt>
      <trkpt lat="50.48586" lon="3.80044">
        <ele>103.74</ele>
        <time>2020-11-08T09:16:50.000Z</time>
      </trkpt>
      <trkpt lat="50.48592" lon="3.80047">
        <ele>104.98</ele>
        <time>2020-11-08T09:16:51.000Z</time>
      </trkpt>
      <trkpt lat="50.48598" lon="3.80049">
        <ele>104.59</ele>
        <time>2020-11-08T09:16:52.000Z</time>
      </trkpt>
      <trkpt lat="50.48604" lon="3.80052">
        <ele>104.34</ele>
        <time>2020-11-08T09:16:53.000Z</time>
      </trkpt>
      <trkpt lat="50.4861" lon="3.80054">
        <ele>104.56</ele>
        <time>2020-11-08T09:16:54.000Z</time>
      </trkpt>
      <trkpt lat="50.48617" lon="3.80056">
        <ele>105.39</ele>
        <time>2020-11-08T09:16:55.000Z</time>
      </trkpt>
      <trkpt lat="50.48623" lon="3.8006">
        <ele>107.62</ele>
        <time>2020-11-08T09:16:56.000Z</time>
      </trkpt>
      <trkpt lat="50.48629" lon="3.80061">
        <ele>107.79</ele>
        <time>2020-11-08T09:16:57.000Z</time>
      </trkpt>
      <trkpt lat="50.48636" lon="3.80064">
        <ele>107.7</ele>
        <time>2020-11-08T09:16:58.000Z</time>
      </trkpt>
      <trkpt lat="50.48641" lon="3.80066">
        <ele>108.37</ele>
        <time>2020-11-08T09:16:59.000Z</time>
      </trkpt>
      <trkpt lat="50.48646" lon="3.80068">
        <ele>108.95</ele>
        <time>2020-11-08T09:17:00.000Z</time>
      </trkpt>
      <trkpt lat="50.48651" lon="3.80071">
        <ele>108.8</ele>
        <time>2020-11-08T09:17:01.000Z</time>
      </trkpt>
      <trkpt lat="50.48657" lon="3.80072">
        <ele>108.47</ele>
        <time>2020-11-08T09:17:02.000Z</time>
      </trkpt>
      <trkpt lat="50.48662" lon="3.80072">
        <ele>108.47</ele>
        <time>2020-11-08T09:17:03.000Z</time>
      </trkpt>
      <trkpt lat="50.48668" lon="3.80071">
        <ele>108.83</ele>
        <time>2020-11-08T09:17:04.000Z</time>
      </trkpt>
      <trkpt lat="50.48673" lon="3.80071">
        <ele>108.84</ele>
        <time>2020-11-08T09:17:05.000Z</time>
      </trkpt>
      <trkpt lat="50.48679" lon="3.80071">
        <ele>108.45</ele>
        <time>2020-11-08T09:17:06.000Z</time>
      </trkpt>
      <trkpt lat="50.48684" lon="3.80071">
        <ele>108.85</ele>
        <time>2020-11-08T09:17:07.000Z</time>
      </trkpt>
      <trkpt lat="50.48689" lon="3.80072">
        <ele>109.05</ele>
        <time>2020-11-08T09:17:08.000Z</time>
      </trkpt>
      <trkpt lat="50.48693" lon="3.80074">
        <ele>109.17</ele>
        <time>2020-11-08T09:17:09.000Z</time>
      </trkpt>
      <trkpt lat="50.48698" lon="3.80078">
        <ele>109.59</ele>
        <time>2020-11-08T09:17:10.000Z</time>
      </trkpt>
      <trkpt lat="50.48702" lon="3.80082">
        <ele>109.71</ele>
        <time>2020-11-08T09:17:11.000Z</time>
      </trkpt>
      <trkpt lat="50.48706" lon="3.80089">
        <ele>110.12</ele>
        <time>2020-11-08T09:17:12.000Z</time>
      </trkpt>
      <trkpt lat="50.48709" lon="3.80095">
        <ele>110.8</ele>
        <time>2020-11-08T09:17:13.000Z</time>
      </trkpt>
      <trkpt lat="50.48713" lon="3.80101">
        <ele>111.11</ele>
        <time>2020-11-08T09:17:14.000Z</time>
      </trkpt>
      <trkpt lat="50.48715" lon="3.80107">
        <ele>111.15</ele>
        <time>2020-11-08T09:17:15.000Z</time>
      </trkpt>
      <trkpt lat="50.48714" lon="3.80114">
        <ele>111.09</ele>
        <time>2020-11-08T09:17:16.000Z</time>
      </trkpt>
      <trkpt lat="50.48713" lon="3.80122">
        <ele>110.95</ele>
        <time>2020-11-08T09:17:17.000Z</time>
      </trkpt>
      <trkpt lat="50.48704" lon="3.80131">
        <ele>110.49</ele>
        <time>2020-11-08T09:17:19.000Z</time>
      </trkpt>
      <trkpt lat="50.48698" lon="3.80136">
        <ele>110.1</ele>
        <time>2020-11-08T09:17:20.000Z</time>
      </trkpt>
      <trkpt lat="50.48693" lon="3.80141">
        <ele>110.04</ele>
        <time>2020-11-08T09:17:21.000Z</time>
      </trkpt>
      <trkpt lat="50.48688" lon="3.80146">
        <ele>109.28</ele>
        <time>2020-11-08T09:17:22.000Z</time>
      </trkpt>
      <trkpt lat="50.48682" lon="3.80152">
        <ele>109.42</ele>
        <time>2020-11-08T09:17:23.000Z</time>
      </trkpt>
      <trkpt lat="50.48676" lon="3.80158">
        <ele>109.33</ele>
        <time>2020-11-08T09:17:24.000Z</time>
      </trkpt>
      <trkpt lat="50.48669" lon="3.80164">
        <ele>109.79</ele>
        <time>2020-11-08T09:17:25.000Z</time>
      </trkpt>
      <trkpt lat="50.48664" lon="3.80171">
        <ele>109.68</ele>
        <time>2020-11-08T09:17:26.000Z</time>
      </trkpt>
      <trkpt lat="50.48657" lon="3.80178">
        <ele>110.61</ele>
        <time>2020-11-08T09:17:27.000Z</time>
      </trkpt>
      <trkpt lat="50.48652" lon="3.80184">
        <ele>109.34</ele>
        <time>2020-11-08T09:17:28.000Z</time>
      </trkpt>
      <trkpt lat="50.48647" lon="3.80189">
        <ele>109.54</ele>
        <time>2020-11-08T09:17:29.000Z</time>
      </trkpt>
      <trkpt lat="50.48641" lon="3.80196">
        <ele>109.43</ele>
        <time>2020-11-08T09:17:30.000Z</time>
      </trkpt>
      <trkpt lat="50.48635" lon="3.80201">
        <ele>109.14</ele>
        <time>2020-11-08T09:17:31.000Z</time>
      </trkpt>
      <trkpt lat="50.4863" lon="3.80207">
        <ele>107.12</ele>
        <time>2020-11-08T09:17:32.000Z</time>
      </trkpt>
      <trkpt lat="50.48627" lon="3.80215">
        <ele>107.18</ele>
        <time>2020-11-08T09:17:33.000Z</time>
      </trkpt>
      <trkpt lat="50.48623" lon="3.80224">
        <ele>106.94</ele>
        <time>2020-11-08T09:17:34.000Z</time>
      </trkpt>
      <trkpt lat="50.48621" lon="3.80235">
        <ele>106.5</ele>
        <time>2020-11-08T09:17:35.000Z</time>
      </trkpt>
      <trkpt lat="50.48618" lon="3.80247">
        <ele>107.17</ele>
        <time>2020-11-08T09:17:36.000Z</time>
      </trkpt>
      <trkpt lat="50.48616" lon="3.80259">
        <ele>104.22</ele>
        <time>2020-11-08T09:17:37.000Z</time>
      </trkpt>
      <trkpt lat="50.48614" lon="3.80271">
        <ele>106.74</ele>
        <time>2020-11-08T09:17:38.000Z</time>
      </trkpt>
      <trkpt lat="50.48612" lon="3.80282">
        <ele>106.61</ele>
        <time>2020-11-08T09:17:39.000Z</time>
      </trkpt>
      <trkpt lat="50.48611" lon="3.80294">
        <ele>106.88</ele>
        <time>2020-11-08T09:17:40.000Z</time>
      </trkpt>
      <trkpt lat="50.48607" lon="3.80305">
        <ele>107.59</ele>
        <time>2020-11-08T09:17:41.000Z</time>
      </trkpt>
      <trkpt lat="50.48605" lon="3.80316">
        <ele>108.5</ele>
        <time>2020-11-08T09:17:42.000Z</time>
      </trkpt>
      <trkpt lat="50.48603" lon="3.80327">
        <ele>108.63</ele>
        <time>2020-11-08T09:17:43.000Z</time>
      </trkpt>
      <trkpt lat="50.486" lon="3.80338">
        <ele>109.77</ele>
        <time>2020-11-08T09:17:44.000Z</time>
      </trkpt>
      <trkpt lat="50.48597" lon="3.8035">
        <ele>109.88</ele>
        <time>2020-11-08T09:17:45.000Z</time>
      </trkpt>
      <trkpt lat="50.48595" lon="3.8036">
        <ele>109.78</ele>
        <time>2020-11-08T09:17:46.000Z</time>
      </trkpt>
      <trkpt lat="50.48592" lon="3.80374">
        <ele>105.42</ele>
        <time>2020-11-08T09:17:47.000Z</time>
      </trkpt>
      <trkpt lat="50.48591" lon="3.80382">
        <ele>107.84</ele>
        <time>2020-11-08T09:17:48.000Z</time>
      </trkpt>
      <trkpt lat="50.48588" lon="3.80393">
        <ele>108.86</ele>
        <time>2020-11-08T09:17:49.000Z</time>
      </trkpt>
      <trkpt lat="50.48585" lon="3.80404">
        <ele>109.55</ele>
        <time>2020-11-08T09:17:50.000Z</time>
      </trkpt>
      <trkpt lat="50.48584" lon="3.80416">
        <ele>109.63</ele>
        <time>2020-11-08T09:17:51.000Z</time>
      </trkpt>
      <trkpt lat="50.48582" lon="3.80429">
        <ele>109.69</ele>
        <time>2020-11-08T09:17:52.000Z</time>
      </trkpt>
      <trkpt lat="50.4858" lon="3.80441">
        <ele>109.59</ele>
        <time>2020-11-08T09:17:53.000Z</time>
      </trkpt>
      <trkpt lat="50.48578" lon="3.80453">
        <ele>109.81</ele>
        <time>2020-11-08T09:17:54.000Z</time>
      </trkpt>
      <trkpt lat="50.48575" lon="3.80465">
        <ele>110</ele>
        <time>2020-11-08T09:17:55.000Z</time>
      </trkpt>
      <trkpt lat="50.48573" lon="3.80477">
        <ele>107.15</ele>
        <time>2020-11-08T09:17:56.000Z</time>
      </trkpt>
      <trkpt lat="50.4857" lon="3.80488">
        <ele>108.28</ele>
        <time>2020-11-08T09:17:57.000Z</time>
      </trkpt>
      <trkpt lat="50.48567" lon="3.80498">
        <ele>108.55</ele>
        <time>2020-11-08T09:17:58.000Z</time>
      </trkpt>
      <trkpt lat="50.48564" lon="3.80508">
        <ele>109.53</ele>
        <time>2020-11-08T09:17:59.000Z</time>
      </trkpt>
      <trkpt lat="50.48562" lon="3.80518">
        <ele>109.91</ele>
        <time>2020-11-08T09:18:00.000Z</time>
      </trkpt>
      <trkpt lat="50.48559" lon="3.80529">
        <ele>110.3</ele>
        <time>2020-11-08T09:18:01.000Z</time>
      </trkpt>
      <trkpt lat="50.48556" lon="3.80539">
        <ele>110.43</ele>
        <time>2020-11-08T09:18:02.000Z</time>
      </trkpt>
      <trkpt lat="50.48554" lon="3.8055">
        <ele>110.03</ele>
        <time>2020-11-08T09:18:03.000Z</time>
      </trkpt>
      <trkpt lat="50.48552" lon="3.80563">
        <ele>110.05</ele>
        <time>2020-11-08T09:18:04.000Z</time>
      </trkpt>
      <trkpt lat="50.48549" lon="3.80573">
        <ele>107.77</ele>
        <time>2020-11-08T09:18:05.000Z</time>
      </trkpt>
      <trkpt lat="50.48547" lon="3.80585">
        <ele>108.37</ele>
        <time>2020-11-08T09:18:06.000Z</time>
      </trkpt>
      <trkpt lat="50.48544" lon="3.80595">
        <ele>108.28</ele>
        <time>2020-11-08T09:18:07.000Z</time>
      </trkpt>
      <trkpt lat="50.48543" lon="3.80606">
        <ele>108.24</ele>
        <time>2020-11-08T09:18:08.000Z</time>
      </trkpt>
      <trkpt lat="50.48541" lon="3.80617">
        <ele>108.06</ele>
        <time>2020-11-08T09:18:09.000Z</time>
      </trkpt>
      <trkpt lat="50.4854" lon="3.80628">
        <ele>107.69</ele>
        <time>2020-11-08T09:18:10.000Z</time>
      </trkpt>
      <trkpt lat="50.4854" lon="3.80638">
        <ele>108.12</ele>
        <time>2020-11-08T09:18:11.000Z</time>
      </trkpt>
      <trkpt lat="50.48539" lon="3.80646">
        <ele>107.72</ele>
        <time>2020-11-08T09:18:12.000Z</time>
      </trkpt>
      <trkpt lat="50.48538" lon="3.80656">
        <ele>107.52</ele>
        <time>2020-11-08T09:18:13.000Z</time>
      </trkpt>
      <trkpt lat="50.48537" lon="3.80664">
        <ele>108.11</ele>
        <time>2020-11-08T09:18:14.000Z</time>
      </trkpt>
      <trkpt lat="50.48537" lon="3.80673">
        <ele>108.94</ele>
        <time>2020-11-08T09:18:15.000Z</time>
      </trkpt>
      <trkpt lat="50.48534" lon="3.80683">
        <ele>109.24</ele>
        <time>2020-11-08T09:18:16.000Z</time>
      </trkpt>
      <trkpt lat="50.48534" lon="3.80694">
        <ele>109.39</ele>
        <time>2020-11-08T09:18:17.000Z</time>
      </trkpt>
      <trkpt lat="50.48533" lon="3.80705">
        <ele>109.18</ele>
        <time>2020-11-08T09:18:18.000Z</time>
      </trkpt>
      <trkpt lat="50.48532" lon="3.80716">
        <ele>109.21</ele>
        <time>2020-11-08T09:18:19.000Z</time>
      </trkpt>
      <trkpt lat="50.48531" lon="3.80726">
        <ele>109.94</ele>
        <time>2020-11-08T09:18:20.000Z</time>
      </trkpt>
      <trkpt lat="50.4853" lon="3.80736">
        <ele>109.14</ele>
        <time>2020-11-08T09:18:21.000Z</time>
      </trkpt>
      <trkpt lat="50.48528" lon="3.80745">
        <ele>109.81</ele>
        <time>2020-11-08T09:18:22.000Z</time>
      </trkpt>
      <trkpt lat="50.48527" lon="3.80756">
        <ele>107.36</ele>
        <time>2020-11-08T09:18:23.000Z</time>
      </trkpt>
      <trkpt lat="50.48524" lon="3.80768">
        <ele>106.46</ele>
        <time>2020-11-08T09:18:24.000Z</time>
      </trkpt>
      <trkpt lat="50.48518" lon="3.80778">
        <ele>106.36</ele>
        <time>2020-11-08T09:18:25.000Z</time>
      </trkpt>
      <trkpt lat="50.48514" lon="3.8079">
        <ele>106.42</ele>
        <time>2020-11-08T09:18:26.000Z</time>
      </trkpt>
      <trkpt lat="50.48512" lon="3.80803">
        <ele>106.29</ele>
        <time>2020-11-08T09:18:27.000Z</time>
      </trkpt>
      <trkpt lat="50.48509" lon="3.80814">
        <ele>106.24</ele>
        <time>2020-11-08T09:18:28.000Z</time>
      </trkpt>
      <trkpt lat="50.48504" lon="3.80826">
        <ele>106.3</ele>
        <time>2020-11-08T09:18:29.000Z</time>
      </trkpt>
      <trkpt lat="50.48499" lon="3.80834">
        <ele>105.45</ele>
        <time>2020-11-08T09:18:30.000Z</time>
      </trkpt>
      <trkpt lat="50.48494" lon="3.8084">
        <ele>104.91</ele>
        <time>2020-11-08T09:18:31.000Z</time>
      </trkpt>
      <trkpt lat="50.48487" lon="3.80843">
        <ele>104.03</ele>
        <time>2020-11-08T09:18:32.000Z</time>
      </trkpt>
      <trkpt lat="50.4848" lon="3.80848">
        <ele>103.88</ele>
        <time>2020-11-08T09:18:33.000Z</time>
      </trkpt>
      <trkpt lat="50.48472" lon="3.80852">
        <ele>104.72</ele>
        <time>2020-11-08T09:18:34.000Z</time>
      </trkpt>
      <trkpt lat="50.48464" lon="3.80855">
        <ele>104.18</ele>
        <time>2020-11-08T09:18:35.000Z</time>
      </trkpt>
      <trkpt lat="50.48458" lon="3.80856">
        <ele>103.81</ele>
        <time>2020-11-08T09:18:36.000Z</time>
      </trkpt>
      <trkpt lat="50.48451" lon="3.80859">
        <ele>102.81</ele>
        <time>2020-11-08T09:18:37.000Z</time>
      </trkpt>
      <trkpt lat="50.48443" lon="3.80863">
        <ele>102.68</ele>
        <time>2020-11-08T09:18:38.000Z</time>
      </trkpt>
      <trkpt lat="50.48437" lon="3.80871">
        <ele>102.51</ele>
        <time>2020-11-08T09:18:39.000Z</time>
      </trkpt>
      <trkpt lat="50.48429" lon="3.80876">
        <ele>102.1</ele>
        <time>2020-11-08T09:18:40.000Z</time>
      </trkpt>
      <trkpt lat="50.48422" lon="3.8088">
        <ele>102.11</ele>
        <time>2020-11-08T09:18:41.000Z</time>
      </trkpt>
      <trkpt lat="50.48414" lon="3.80887">
        <ele>102.47</ele>
        <time>2020-11-08T09:18:42.000Z</time>
      </trkpt>
      <trkpt lat="50.48406" lon="3.80892">
        <ele>101.99</ele>
        <time>2020-11-08T09:18:43.000Z</time>
      </trkpt>
      <trkpt lat="50.48399" lon="3.80893">
        <ele>100.76</ele>
        <time>2020-11-08T09:18:44.000Z</time>
      </trkpt>
      <trkpt lat="50.48392" lon="3.80896">
        <ele>100.54</ele>
        <time>2020-11-08T09:18:45.000Z</time>
      </trkpt>
      <trkpt lat="50.48386" lon="3.80895">
        <ele>100.03</ele>
        <time>2020-11-08T09:18:46.000Z</time>
      </trkpt>
      <trkpt lat="50.48382" lon="3.8089">
        <ele>100.45</ele>
        <time>2020-11-08T09:18:47.000Z</time>
      </trkpt>
      <trkpt lat="50.48378" lon="3.80883">
        <ele>99.82</ele>
        <time>2020-11-08T09:18:48.000Z</time>
      </trkpt>
      <trkpt lat="50.48373" lon="3.80877">
        <ele>100.11</ele>
        <time>2020-11-08T09:18:49.000Z</time>
      </trkpt>
      <trkpt lat="50.48366" lon="3.80876">
        <ele>100.46</ele>
        <time>2020-11-08T09:18:51.000Z</time>
      </trkpt>
      <trkpt lat="50.48359" lon="3.80881">
        <ele>100.49</ele>
        <time>2020-11-08T09:18:53.000Z</time>
      </trkpt>
      <trkpt lat="50.48357" lon="3.80892">
        <ele>100.1</ele>
        <time>2020-11-08T09:18:55.000Z</time>
      </trkpt>
      <trkpt lat="50.48355" lon="3.80901">
        <ele>99.05</ele>
        <time>2020-11-08T09:18:56.000Z</time>
      </trkpt>
      <trkpt lat="50.48349" lon="3.80912">
        <ele>98.75</ele>
        <time>2020-11-08T09:18:58.000Z</time>
      </trkpt>
      <trkpt lat="50.48344" lon="3.80915">
        <ele>99.27</ele>
        <time>2020-11-08T09:18:59.000Z</time>
      </trkpt>
      <trkpt lat="50.48338" lon="3.80917">
        <ele>98.71</ele>
        <time>2020-11-08T09:19:00.000Z</time>
      </trkpt>
      <trkpt lat="50.48332" lon="3.80919">
        <ele>98.33</ele>
        <time>2020-11-08T09:19:01.000Z</time>
      </trkpt>
      <trkpt lat="50.48325" lon="3.80921">
        <ele>97.76</ele>
        <time>2020-11-08T09:19:02.000Z</time>
      </trkpt>
      <trkpt lat="50.48319" lon="3.80921">
        <ele>98.14</ele>
        <time>2020-11-08T09:19:03.000Z</time>
      </trkpt>
      <trkpt lat="50.48313" lon="3.80925">
        <ele>98.41</ele>
        <time>2020-11-08T09:19:04.000Z</time>
      </trkpt>
      <trkpt lat="50.48306" lon="3.80928">
        <ele>99.11</ele>
        <time>2020-11-08T09:19:05.000Z</time>
      </trkpt>
      <trkpt lat="50.48299" lon="3.80932">
        <ele>100.17</ele>
        <time>2020-11-08T09:19:06.000Z</time>
      </trkpt>
      <trkpt lat="50.48292" lon="3.80935">
        <ele>99.25</ele>
        <time>2020-11-08T09:19:07.000Z</time>
      </trkpt>
      <trkpt lat="50.48285" lon="3.80935">
        <ele>98.9</ele>
        <time>2020-11-08T09:19:08.000Z</time>
      </trkpt>
      <trkpt lat="50.48278" lon="3.80937">
        <ele>97.8</ele>
        <time>2020-11-08T09:19:09.000Z</time>
      </trkpt>
      <trkpt lat="50.48271" lon="3.80937">
        <ele>97.1</ele>
        <time>2020-11-08T09:19:10.000Z</time>
      </trkpt>
      <trkpt lat="50.48264" lon="3.80939">
        <ele>96.09</ele>
        <time>2020-11-08T09:19:11.000Z</time>
      </trkpt>
      <trkpt lat="50.48257" lon="3.8094">
        <ele>96.61</ele>
        <time>2020-11-08T09:19:12.000Z</time>
      </trkpt>
      <trkpt lat="50.4825" lon="3.80942">
        <ele>96.52</ele>
        <time>2020-11-08T09:19:13.000Z</time>
      </trkpt>
      <trkpt lat="50.48245" lon="3.8094">
        <ele>96.19</ele>
        <time>2020-11-08T09:19:14.000Z</time>
      </trkpt>
      <trkpt lat="50.48237" lon="3.80939">
        <ele>95.84</ele>
        <time>2020-11-08T09:19:15.000Z</time>
      </trkpt>
      <trkpt lat="50.4823" lon="3.80939">
        <ele>95.51</ele>
        <time>2020-11-08T09:19:16.000Z</time>
      </trkpt>
      <trkpt lat="50.48223" lon="3.80937">
        <ele>95.33</ele>
        <time>2020-11-08T09:19:17.000Z</time>
      </trkpt>
      <trkpt lat="50.48216" lon="3.80938">
        <ele>94.83</ele>
        <time>2020-11-08T09:19:18.000Z</time>
      </trkpt>
      <trkpt lat="50.4821" lon="3.80938">
        <ele>94.22</ele>
        <time>2020-11-08T09:19:19.000Z</time>
      </trkpt>
      <trkpt lat="50.48206" lon="3.80944">
        <ele>93.99</ele>
        <time>2020-11-08T09:19:20.000Z</time>
      </trkpt>
      <trkpt lat="50.48202" lon="3.8095">
        <ele>96.68</ele>
        <time>2020-11-08T09:19:21.000Z</time>
      </trkpt>
      <trkpt lat="50.48198" lon="3.80955">
        <ele>96.28</ele>
        <time>2020-11-08T09:19:23.000Z</time>
      </trkpt>
      <trkpt lat="50.48192" lon="3.80954">
        <ele>96.67</ele>
        <time>2020-11-08T09:19:26.000Z</time>
      </trkpt>
      <trkpt lat="50.48189" lon="3.80961">
        <ele>96.89</ele>
        <time>2020-11-08T09:19:31.000Z</time>
      </trkpt>
      <trkpt lat="50.48192" lon="3.80967">
        <ele>97.72</ele>
        <time>2020-11-08T09:19:37.000Z</time>
      </trkpt>
      <trkpt lat="50.48194" lon="3.80975">
        <ele>96.36</ele>
        <time>2020-11-08T09:19:41.000Z</time>
      </trkpt>
      <trkpt lat="50.48193" lon="3.80985">
        <ele>96.82</ele>
        <time>2020-11-08T09:19:43.000Z</time>
      </trkpt>
      <trkpt lat="50.48192" lon="3.80995">
        <ele>95.37</ele>
        <time>2020-11-08T09:19:45.000Z</time>
      </trkpt>
      <trkpt lat="50.48191" lon="3.81006">
        <ele>94.77</ele>
        <time>2020-11-08T09:19:47.000Z</time>
      </trkpt>
      <trkpt lat="50.48191" lon="3.81018">
        <ele>96.14</ele>
        <time>2020-11-08T09:19:50.000Z</time>
      </trkpt>
      <trkpt lat="50.48191" lon="3.81027">
        <ele>96.11</ele>
        <time>2020-11-08T09:19:53.000Z</time>
      </trkpt>
      <trkpt lat="50.48191" lon="3.81038">
        <ele>96.49</ele>
        <time>2020-11-08T09:19:56.000Z</time>
      </trkpt>
      <trkpt lat="50.48192" lon="3.81048">
        <ele>96.72</ele>
        <time>2020-11-08T09:19:58.000Z</time>
      </trkpt>
      <trkpt lat="50.48193" lon="3.81061">
        <ele>95.48</ele>
        <time>2020-11-08T09:20:00.000Z</time>
      </trkpt>
      <trkpt lat="50.48193" lon="3.81068">
        <ele>96.11</ele>
        <time>2020-11-08T09:20:01.000Z</time>
      </trkpt>
      <trkpt lat="50.48194" lon="3.81076">
        <ele>95.37</ele>
        <time>2020-11-08T09:20:02.000Z</time>
      </trkpt>
      <trkpt lat="50.48197" lon="3.81089">
        <ele>94.45</ele>
        <time>2020-11-08T09:20:04.000Z</time>
      </trkpt>
      <trkpt lat="50.48199" lon="3.81096">
        <ele>94.63</ele>
        <time>2020-11-08T09:20:05.000Z</time>
      </trkpt>
      <trkpt lat="50.48203" lon="3.81108">
        <ele>93.63</ele>
        <time>2020-11-08T09:20:07.000Z</time>
      </trkpt>
      <trkpt lat="50.48206" lon="3.8112">
        <ele>94.05</ele>
        <time>2020-11-08T09:20:09.000Z</time>
      </trkpt>
      <trkpt lat="50.4821" lon="3.81128">
        <ele>93.82</ele>
        <time>2020-11-08T09:20:11.000Z</time>
      </trkpt>
      <trkpt lat="50.48213" lon="3.81135">
        <ele>92.64</ele>
        <time>2020-11-08T09:20:13.000Z</time>
      </trkpt>
      <trkpt lat="50.48215" lon="3.81144">
        <ele>92.09</ele>
        <time>2020-11-08T09:20:16.000Z</time>
      </trkpt>
      <trkpt lat="50.48214" lon="3.81151">
        <ele>92.5</ele>
        <time>2020-11-08T09:20:18.000Z</time>
      </trkpt>
      <trkpt lat="50.48213" lon="3.8116">
        <ele>91.6</ele>
        <time>2020-11-08T09:20:21.000Z</time>
      </trkpt>
      <trkpt lat="50.48212" lon="3.81168">
        <ele>92.83</ele>
        <time>2020-11-08T09:20:28.000Z</time>
      </trkpt>
      <trkpt lat="50.48212" lon="3.81168">
        <ele>92.83</ele>
        <time>2020-11-08T09:20:28.001Z</time>
      </trkpt>
      <trkpt lat="50.48213" lon="3.81177">
        <ele>93.32</ele>
        <time>2020-11-08T09:20:40.000Z</time>
      </trkpt>
      <trkpt lat="50.48214" lon="3.81184">
        <ele>93.31</ele>
        <time>2020-11-08T09:20:42.000Z</time>
      </trkpt>
      <trkpt lat="50.48216" lon="3.81192">
        <ele>96.71</ele>
        <time>2020-11-08T09:20:44.000Z</time>
      </trkpt>
      <trkpt lat="50.48217" lon="3.812">
        <ele>93.58</ele>
        <time>2020-11-08T09:20:46.000Z</time>
      </trkpt>
      <trkpt lat="50.48216" lon="3.81246">
        <ele>95.05</ele>
        <time>2020-11-08T09:20:53.000Z</time>
      </trkpt>
      <trkpt lat="50.48214" lon="3.81254">
        <ele>94.68</ele>
        <time>2020-11-08T09:20:54.000Z</time>
      </trkpt>
      <trkpt lat="50.48212" lon="3.81263">
        <ele>94.3</ele>
        <time>2020-11-08T09:20:55.000Z</time>
      </trkpt>
      <trkpt lat="50.48212" lon="3.81271">
        <ele>94.03</ele>
        <time>2020-11-08T09:20:56.000Z</time>
      </trkpt>
      <trkpt lat="50.4821" lon="3.81279">
        <ele>93.58</ele>
        <time>2020-11-08T09:20:57.000Z</time>
      </trkpt>
      <trkpt lat="50.48208" lon="3.81287">
        <ele>94.73</ele>
        <time>2020-11-08T09:20:58.000Z</time>
      </trkpt>
      <trkpt lat="50.48208" lon="3.81295">
        <ele>93.76</ele>
        <time>2020-11-08T09:20:59.000Z</time>
      </trkpt>
      <trkpt lat="50.48207" lon="3.81302">
        <ele>94.15</ele>
        <time>2020-11-08T09:21:00.000Z</time>
      </trkpt>
      <trkpt lat="50.48206" lon="3.81315">
        <ele>93.36</ele>
        <time>2020-11-08T09:21:02.000Z</time>
      </trkpt>
      <trkpt lat="50.48204" lon="3.81327">
        <ele>91.82</ele>
        <time>2020-11-08T09:21:04.000Z</time>
      </trkpt>
      <trkpt lat="50.48203" lon="3.81335">
        <ele>92.82</ele>
        <time>2020-11-08T09:21:05.000Z</time>
      </trkpt>
      <trkpt lat="50.48202" lon="3.81346">
        <ele>92.98</ele>
        <time>2020-11-08T09:21:07.000Z</time>
      </trkpt>
      <trkpt lat="50.482" lon="3.81355">
        <ele>91.29</ele>
        <time>2020-11-08T09:21:09.000Z</time>
      </trkpt>
      <trkpt lat="50.482" lon="3.81364">
        <ele>91.25</ele>
        <time>2020-11-08T09:21:11.000Z</time>
      </trkpt>
      <trkpt lat="50.48204" lon="3.81375">
        <ele>91.8</ele>
        <time>2020-11-08T09:21:13.000Z</time>
      </trkpt>
      <trkpt lat="50.4821" lon="3.81382">
        <ele>91.05</ele>
        <time>2020-11-08T09:21:15.000Z</time>
      </trkpt>
      <trkpt lat="50.48217" lon="3.81387">
        <ele>90.72</ele>
        <time>2020-11-08T09:21:17.000Z</time>
      </trkpt>
      <trkpt lat="50.48232" lon="3.81397">
        <ele>95.76</ele>
        <time>2020-11-08T09:21:20.000Z</time>
      </trkpt>
      <trkpt lat="50.48238" lon="3.81398">
        <ele>94.12</ele>
        <time>2020-11-08T09:21:21.000Z</time>
      </trkpt>
      <trkpt lat="50.48243" lon="3.814">
        <ele>92.78</ele>
        <time>2020-11-08T09:21:22.000Z</time>
      </trkpt>
      <trkpt lat="50.48251" lon="3.81404">
        <ele>90.92</ele>
        <time>2020-11-08T09:21:24.000Z</time>
      </trkpt>
      <trkpt lat="50.48255" lon="3.81405">
        <ele>91.11</ele>
        <time>2020-11-08T09:21:25.000Z</time>
      </trkpt>
      <trkpt lat="50.48264" lon="3.81408">
        <ele>91.28</ele>
        <time>2020-11-08T09:21:27.000Z</time>
      </trkpt>
      <trkpt lat="50.48272" lon="3.81412">
        <ele>91.78</ele>
        <time>2020-11-08T09:21:29.000Z</time>
      </trkpt>
      <trkpt lat="50.48281" lon="3.81417">
        <ele>92.09</ele>
        <time>2020-11-08T09:21:31.000Z</time>
      </trkpt>
      <trkpt lat="50.4829" lon="3.81419">
        <ele>91.84</ele>
        <time>2020-11-08T09:21:33.000Z</time>
      </trkpt>
      <trkpt lat="50.48299" lon="3.81419">
        <ele>92.19</ele>
        <time>2020-11-08T09:21:35.000Z</time>
      </trkpt>
      <trkpt lat="50.48304" lon="3.81417">
        <ele>93.86</ele>
        <time>2020-11-08T09:21:36.000Z</time>
      </trkpt>
      <trkpt lat="50.48313" lon="3.81417">
        <ele>92.36</ele>
        <time>2020-11-08T09:21:38.000Z</time>
      </trkpt>
      <trkpt lat="50.48319" lon="3.81415">
        <ele>91.26</ele>
        <time>2020-11-08T09:21:39.000Z</time>
      </trkpt>
      <trkpt lat="50.48324" lon="3.81417">
        <ele>92.02</ele>
        <time>2020-11-08T09:21:40.000Z</time>
      </trkpt>
      <trkpt lat="50.48331" lon="3.81416">
        <ele>94.29</ele>
        <time>2020-11-08T09:21:42.000Z</time>
      </trkpt>
      <trkpt lat="50.48338" lon="3.81418">
        <ele>94.19</ele>
        <time>2020-11-08T09:21:44.000Z</time>
      </trkpt>
      <trkpt lat="50.48345" lon="3.81418">
        <ele>96.32</ele>
        <time>2020-11-08T09:21:46.000Z</time>
      </trkpt>
      <trkpt lat="50.48349" lon="3.81419">
        <ele>97.4</ele>
        <time>2020-11-08T09:21:47.000Z</time>
      </trkpt>
      <trkpt lat="50.48357" lon="3.81422">
        <ele>99.47</ele>
        <time>2020-11-08T09:21:49.000Z</time>
      </trkpt>
      <trkpt lat="50.48364" lon="3.81424">
        <ele>99.72</ele>
        <time>2020-11-08T09:21:51.000Z</time>
      </trkpt>
      <trkpt lat="50.48373" lon="3.81428">
        <ele>101.81</ele>
        <time>2020-11-08T09:21:53.000Z</time>
      </trkpt>
      <trkpt lat="50.4838" lon="3.81432">
        <ele>102.29</ele>
        <time>2020-11-08T09:21:55.000Z</time>
      </trkpt>
      <trkpt lat="50.48388" lon="3.81435">
        <ele>101.69</ele>
        <time>2020-11-08T09:21:57.000Z</time>
      </trkpt>
      <trkpt lat="50.48395" lon="3.81443">
        <ele>101.52</ele>
        <time>2020-11-08T09:21:59.000Z</time>
      </trkpt>
      <trkpt lat="50.48403" lon="3.81454">
        <ele>100.44</ele>
        <time>2020-11-08T09:22:01.000Z</time>
      </trkpt>
      <trkpt lat="50.48416" lon="3.81466">
        <ele>101.04</ele>
        <time>2020-11-08T09:22:04.000Z</time>
      </trkpt>
      <trkpt lat="50.48423" lon="3.81467">
        <ele>100.6</ele>
        <time>2020-11-08T09:22:06.000Z</time>
      </trkpt>
      <trkpt lat="50.48431" lon="3.81464">
        <ele>98.57</ele>
        <time>2020-11-08T09:22:08.000Z</time>
      </trkpt>
      <trkpt lat="50.48439" lon="3.8146">
        <ele>98.84</ele>
        <time>2020-11-08T09:22:10.000Z</time>
      </trkpt>
      <trkpt lat="50.48444" lon="3.81458">
        <ele>100.27</ele>
        <time>2020-11-08T09:22:11.000Z</time>
      </trkpt>
      <trkpt lat="50.48449" lon="3.81457">
        <ele>100.11</ele>
        <time>2020-11-08T09:22:12.000Z</time>
      </trkpt>
      <trkpt lat="50.48458" lon="3.81453">
        <ele>101.13</ele>
        <time>2020-11-08T09:22:14.000Z</time>
      </trkpt>
      <trkpt lat="50.48463" lon="3.81451">
        <ele>100.11</ele>
        <time>2020-11-08T09:22:15.000Z</time>
      </trkpt>
      <trkpt lat="50.48467" lon="3.81451">
        <ele>99.72</ele>
        <time>2020-11-08T09:22:16.000Z</time>
      </trkpt>
      <trkpt lat="50.48472" lon="3.8145">
        <ele>99.92</ele>
        <time>2020-11-08T09:22:17.000Z</time>
      </trkpt>
      <trkpt lat="50.48476" lon="3.8145">
        <ele>100.44</ele>
        <time>2020-11-08T09:22:18.000Z</time>
      </trkpt>
      <trkpt lat="50.48481" lon="3.81451">
        <ele>100.35</ele>
        <time>2020-11-08T09:22:19.000Z</time>
      </trkpt>
      <trkpt lat="50.48491" lon="3.8145">
        <ele>100.72</ele>
        <time>2020-11-08T09:22:21.000Z</time>
      </trkpt>
      <trkpt lat="50.48499" lon="3.81451">
        <ele>100.41</ele>
        <time>2020-11-08T09:22:23.000Z</time>
      </trkpt>
      <trkpt lat="50.48509" lon="3.8145">
        <ele>100.38</ele>
        <time>2020-11-08T09:22:25.000Z</time>
      </trkpt>
      <trkpt lat="50.48514" lon="3.8145">
        <ele>101.18</ele>
        <time>2020-11-08T09:22:26.000Z</time>
      </trkpt>
      <trkpt lat="50.4852" lon="3.81449">
        <ele>102.38</ele>
        <time>2020-11-08T09:22:27.000Z</time>
      </trkpt>
      <trkpt lat="50.48525" lon="3.81452">
        <ele>102</ele>
        <time>2020-11-08T09:22:28.000Z</time>
      </trkpt>
      <trkpt lat="50.48529" lon="3.81452">
        <ele>102.64</ele>
        <time>2020-11-08T09:22:29.000Z</time>
      </trkpt>
      <trkpt lat="50.4854" lon="3.81454">
        <ele>102.69</ele>
        <time>2020-11-08T09:22:31.000Z</time>
      </trkpt>
      <trkpt lat="50.48549" lon="3.81454">
        <ele>104.75</ele>
        <time>2020-11-08T09:22:33.000Z</time>
      </trkpt>
      <trkpt lat="50.48555" lon="3.81456">
        <ele>105.17</ele>
        <time>2020-11-08T09:22:34.000Z</time>
      </trkpt>
      <trkpt lat="50.48561" lon="3.81456">
        <ele>105.62</ele>
        <time>2020-11-08T09:22:35.000Z</time>
      </trkpt>
      <trkpt lat="50.48567" lon="3.81458">
        <ele>103.84</ele>
        <time>2020-11-08T09:22:36.000Z</time>
      </trkpt>
      <trkpt lat="50.48573" lon="3.8146">
        <ele>103.37</ele>
        <time>2020-11-08T09:22:37.000Z</time>
      </trkpt>
      <trkpt lat="50.48581" lon="3.81462">
        <ele>102.82</ele>
        <time>2020-11-08T09:22:39.000Z</time>
      </trkpt>
      <trkpt lat="50.48586" lon="3.81463">
        <ele>103.43</ele>
        <time>2020-11-08T09:22:40.000Z</time>
      </trkpt>
      <trkpt lat="50.48594" lon="3.81465">
        <ele>105.1</ele>
        <time>2020-11-08T09:22:42.000Z</time>
      </trkpt>
      <trkpt lat="50.48599" lon="3.81465">
        <ele>105.6</ele>
        <time>2020-11-08T09:22:43.000Z</time>
      </trkpt>
      <trkpt lat="50.48608" lon="3.81466">
        <ele>106.09</ele>
        <time>2020-11-08T09:22:45.000Z</time>
      </trkpt>
      <trkpt lat="50.48617" lon="3.81467">
        <ele>108.26</ele>
        <time>2020-11-08T09:22:47.000Z</time>
      </trkpt>
      <trkpt lat="50.48622" lon="3.81466">
        <ele>109.21</ele>
        <time>2020-11-08T09:22:48.000Z</time>
      </trkpt>
      <trkpt lat="50.48626" lon="3.81465">
        <ele>109.73</ele>
        <time>2020-11-08T09:22:49.000Z</time>
      </trkpt>
      <trkpt lat="50.48635" lon="3.81465">
        <ele>108.23</ele>
        <time>2020-11-08T09:22:51.000Z</time>
      </trkpt>
      <trkpt lat="50.48644" lon="3.81464">
        <ele>109.59</ele>
        <time>2020-11-08T09:22:53.000Z</time>
      </trkpt>
      <trkpt lat="50.48653" lon="3.81466">
        <ele>108.02</ele>
        <time>2020-11-08T09:22:55.000Z</time>
      </trkpt>
      <trkpt lat="50.4866" lon="3.81475">
        <ele>108.15</ele>
        <time>2020-11-08T09:22:57.000Z</time>
      </trkpt>
      <trkpt lat="50.48659" lon="3.81488">
        <ele>109.49</ele>
        <time>2020-11-08T09:22:59.000Z</time>
      </trkpt>
      <trkpt lat="50.48654" lon="3.81499">
        <ele>108.17</ele>
        <time>2020-11-08T09:23:01.000Z</time>
      </trkpt>
      <trkpt lat="50.48652" lon="3.81506">
        <ele>107.92</ele>
        <time>2020-11-08T09:23:02.000Z</time>
      </trkpt>
      <trkpt lat="50.48649" lon="3.81512">
        <ele>107.92</ele>
        <time>2020-11-08T09:23:03.000Z</time>
      </trkpt>
      <trkpt lat="50.48645" lon="3.8152">
        <ele>107.99</ele>
        <time>2020-11-08T09:23:04.000Z</time>
      </trkpt>
      <trkpt lat="50.48642" lon="3.81527">
        <ele>106.94</ele>
        <time>2020-11-08T09:23:05.000Z</time>
      </trkpt>
      <trkpt lat="50.4864" lon="3.81536">
        <ele>107.85</ele>
        <time>2020-11-08T09:23:06.000Z</time>
      </trkpt>
      <trkpt lat="50.48636" lon="3.81545">
        <ele>107.29</ele>
        <time>2020-11-08T09:23:08.000Z</time>
      </trkpt>
      <trkpt lat="50.48631" lon="3.81556">
        <ele>106.38</ele>
        <time>2020-11-08T09:23:10.000Z</time>
      </trkpt>
      <trkpt lat="50.48627" lon="3.81567">
        <ele>104.24</ele>
        <time>2020-11-08T09:23:12.000Z</time>
      </trkpt>
      <trkpt lat="50.48624" lon="3.81576">
        <ele>104.85</ele>
        <time>2020-11-08T09:23:13.000Z</time>
      </trkpt>
      <trkpt lat="50.4862" lon="3.81587">
        <ele>106.17</ele>
        <time>2020-11-08T09:23:14.000Z</time>
      </trkpt>
      <trkpt lat="50.48617" lon="3.81596">
        <ele>106.97</ele>
        <time>2020-11-08T09:23:15.000Z</time>
      </trkpt>
      <trkpt lat="50.48614" lon="3.81607">
        <ele>106.39</ele>
        <time>2020-11-08T09:23:16.000Z</time>
      </trkpt>
      <trkpt lat="50.48612" lon="3.81617">
        <ele>107.42</ele>
        <time>2020-11-08T09:23:17.000Z</time>
      </trkpt>
      <trkpt lat="50.48606" lon="3.81633">
        <ele>105.28</ele>
        <time>2020-11-08T09:23:19.000Z</time>
      </trkpt>
      <trkpt lat="50.48605" lon="3.81642">
        <ele>103.81</ele>
        <time>2020-11-08T09:23:20.000Z</time>
      </trkpt>
      <trkpt lat="50.48603" lon="3.81652">
        <ele>103.36</ele>
        <time>2020-11-08T09:23:21.000Z</time>
      </trkpt>
      <trkpt lat="50.48601" lon="3.81662">
        <ele>104.33</ele>
        <time>2020-11-08T09:23:22.000Z</time>
      </trkpt>
      <trkpt lat="50.486" lon="3.81671">
        <ele>104.8</ele>
        <time>2020-11-08T09:23:23.000Z</time>
      </trkpt>
      <trkpt lat="50.48599" lon="3.8168">
        <ele>104.48</ele>
        <time>2020-11-08T09:23:24.000Z</time>
      </trkpt>
      <trkpt lat="50.48598" lon="3.8169">
        <ele>104.64</ele>
        <time>2020-11-08T09:23:25.000Z</time>
      </trkpt>
      <trkpt lat="50.48596" lon="3.81701">
        <ele>104.85</ele>
        <time>2020-11-08T09:23:26.000Z</time>
      </trkpt>
      <trkpt lat="50.48595" lon="3.81712">
        <ele>105.08</ele>
        <time>2020-11-08T09:23:27.000Z</time>
      </trkpt>
      <trkpt lat="50.48595" lon="3.81723">
        <ele>104.4</ele>
        <time>2020-11-08T09:23:28.000Z</time>
      </trkpt>
      <trkpt lat="50.48595" lon="3.81733">
        <ele>105</ele>
        <time>2020-11-08T09:23:29.000Z</time>
      </trkpt>
      <trkpt lat="50.48594" lon="3.81743">
        <ele>104.87</ele>
        <time>2020-11-08T09:23:30.000Z</time>
      </trkpt>
      <trkpt lat="50.48594" lon="3.81752">
        <ele>105.26</ele>
        <time>2020-11-08T09:23:31.000Z</time>
      </trkpt>
      <trkpt lat="50.48593" lon="3.81763">
        <ele>105.06</ele>
        <time>2020-11-08T09:23:32.000Z</time>
      </trkpt>
      <trkpt lat="50.48595" lon="3.81771">
        <ele>104.85</ele>
        <time>2020-11-08T09:23:33.000Z</time>
      </trkpt>
      <trkpt lat="50.48594" lon="3.81781">
        <ele>104.14</ele>
        <time>2020-11-08T09:23:34.000Z</time>
      </trkpt>
      <trkpt lat="50.48594" lon="3.81789">
        <ele>103.57</ele>
        <time>2020-11-08T09:23:35.000Z</time>
      </trkpt>
      <trkpt lat="50.48595" lon="3.81798">
        <ele>104.33</ele>
        <time>2020-11-08T09:23:36.000Z</time>
      </trkpt>
      <trkpt lat="50.48596" lon="3.81808">
        <ele>104.76</ele>
        <time>2020-11-08T09:23:37.000Z</time>
      </trkpt>
      <trkpt lat="50.48596" lon="3.81818">
        <ele>104.11</ele>
        <time>2020-11-08T09:23:38.000Z</time>
      </trkpt>
      <trkpt lat="50.48596" lon="3.81828">
        <ele>104.61</ele>
        <time>2020-11-08T09:23:39.000Z</time>
      </trkpt>
      <trkpt lat="50.48597" lon="3.81838">
        <ele>104.23</ele>
        <time>2020-11-08T09:23:40.000Z</time>
      </trkpt>
      <trkpt lat="50.48598" lon="3.81847">
        <ele>105.11</ele>
        <time>2020-11-08T09:23:41.000Z</time>
      </trkpt>
      <trkpt lat="50.486" lon="3.81857">
        <ele>104.95</ele>
        <time>2020-11-08T09:23:42.000Z</time>
      </trkpt>
      <trkpt lat="50.48601" lon="3.81867">
        <ele>105.44</ele>
        <time>2020-11-08T09:23:43.000Z</time>
      </trkpt>
      <trkpt lat="50.48601" lon="3.81875">
        <ele>105.19</ele>
        <time>2020-11-08T09:23:44.000Z</time>
      </trkpt>
      <trkpt lat="50.486" lon="3.81884">
        <ele>104.88</ele>
        <time>2020-11-08T09:23:45.000Z</time>
      </trkpt>
      <trkpt lat="50.486" lon="3.81894">
        <ele>103.29</ele>
        <time>2020-11-08T09:23:46.000Z</time>
      </trkpt>
      <trkpt lat="50.48599" lon="3.81904">
        <ele>103.36</ele>
        <time>2020-11-08T09:23:47.000Z</time>
      </trkpt>
      <trkpt lat="50.48599" lon="3.81915">
        <ele>102.63</ele>
        <time>2020-11-08T09:23:48.000Z</time>
      </trkpt>
      <trkpt lat="50.48598" lon="3.81925">
        <ele>101.52</ele>
        <time>2020-11-08T09:23:49.000Z</time>
      </trkpt>
      <trkpt lat="50.48597" lon="3.81935">
        <ele>101.41</ele>
        <time>2020-11-08T09:23:50.000Z</time>
      </trkpt>
      <trkpt lat="50.48597" lon="3.81948">
        <ele>103.32</ele>
        <time>2020-11-08T09:23:51.000Z</time>
      </trkpt>
      <trkpt lat="50.48596" lon="3.81959">
        <ele>104.32</ele>
        <time>2020-11-08T09:23:52.000Z</time>
      </trkpt>
      <trkpt lat="50.48594" lon="3.81969">
        <ele>103.54</ele>
        <time>2020-11-08T09:23:53.000Z</time>
      </trkpt>
      <trkpt lat="50.48592" lon="3.81978">
        <ele>103.99</ele>
        <time>2020-11-08T09:23:54.000Z</time>
      </trkpt>
      <trkpt lat="50.48592" lon="3.81988">
        <ele>103.79</ele>
        <time>2020-11-08T09:23:55.000Z</time>
      </trkpt>
      <trkpt lat="50.48592" lon="3.81999">
        <ele>104.75</ele>
        <time>2020-11-08T09:23:56.000Z</time>
      </trkpt>
      <trkpt lat="50.48591" lon="3.82008">
        <ele>103.64</ele>
        <time>2020-11-08T09:23:57.000Z</time>
      </trkpt>
      <trkpt lat="50.4859" lon="3.82017">
        <ele>103.71</ele>
        <time>2020-11-08T09:23:58.000Z</time>
      </trkpt>
      <trkpt lat="50.4859" lon="3.82026">
        <ele>103.12</ele>
        <time>2020-11-08T09:23:59.000Z</time>
      </trkpt>
      <trkpt lat="50.48588" lon="3.82036">
        <ele>103.02</ele>
        <time>2020-11-08T09:24:00.000Z</time>
      </trkpt>
      <trkpt lat="50.48587" lon="3.82046">
        <ele>102.59</ele>
        <time>2020-11-08T09:24:01.000Z</time>
      </trkpt>
      <trkpt lat="50.48586" lon="3.82057">
        <ele>103.61</ele>
        <time>2020-11-08T09:24:02.000Z</time>
      </trkpt>
      <trkpt lat="50.48584" lon="3.82067">
        <ele>103.02</ele>
        <time>2020-11-08T09:24:03.000Z</time>
      </trkpt>
      <trkpt lat="50.48583" lon="3.82076">
        <ele>103.75</ele>
        <time>2020-11-08T09:24:04.000Z</time>
      </trkpt>
      <trkpt lat="50.48583" lon="3.82088">
        <ele>104.01</ele>
        <time>2020-11-08T09:24:05.000Z</time>
      </trkpt>
      <trkpt lat="50.48583" lon="3.82097">
        <ele>103.41</ele>
        <time>2020-11-08T09:24:06.000Z</time>
      </trkpt>
      <trkpt lat="50.48583" lon="3.82108">
        <ele>104.28</ele>
        <time>2020-11-08T09:24:07.000Z</time>
      </trkpt>
      <trkpt lat="50.48582" lon="3.82117">
        <ele>102.97</ele>
        <time>2020-11-08T09:24:08.000Z</time>
      </trkpt>
      <trkpt lat="50.48582" lon="3.82126">
        <ele>102.55</ele>
        <time>2020-11-08T09:24:09.000Z</time>
      </trkpt>
      <trkpt lat="50.4858" lon="3.82138">
        <ele>101.51</ele>
        <time>2020-11-08T09:24:10.000Z</time>
      </trkpt>
      <trkpt lat="50.48579" lon="3.82148">
        <ele>101.6</ele>
        <time>2020-11-08T09:24:11.000Z</time>
      </trkpt>
      <trkpt lat="50.48579" lon="3.82158">
        <ele>103.41</ele>
        <time>2020-11-08T09:24:12.000Z</time>
      </trkpt>
      <trkpt lat="50.48579" lon="3.82167">
        <ele>103.1</ele>
        <time>2020-11-08T09:24:13.000Z</time>
      </trkpt>
      <trkpt lat="50.48577" lon="3.82175">
        <ele>103.86</ele>
        <time>2020-11-08T09:24:14.000Z</time>
      </trkpt>
      <trkpt lat="50.48576" lon="3.82183">
        <ele>103.77</ele>
        <time>2020-11-08T09:24:15.000Z</time>
      </trkpt>
      <trkpt lat="50.48574" lon="3.82196">
        <ele>101.56</ele>
        <time>2020-11-08T09:24:16.000Z</time>
      </trkpt>
      <trkpt lat="50.48572" lon="3.82207">
        <ele>101.97</ele>
        <time>2020-11-08T09:24:17.000Z</time>
      </trkpt>
      <trkpt lat="50.48571" lon="3.82218">
        <ele>101.72</ele>
        <time>2020-11-08T09:24:18.000Z</time>
      </trkpt>
      <trkpt lat="50.48571" lon="3.8223">
        <ele>101.32</ele>
        <time>2020-11-08T09:24:19.000Z</time>
      </trkpt>
      <trkpt lat="50.48573" lon="3.8224">
        <ele>100.76</ele>
        <time>2020-11-08T09:24:20.000Z</time>
      </trkpt>
      <trkpt lat="50.48574" lon="3.8225">
        <ele>99.4</ele>
        <time>2020-11-08T09:24:21.000Z</time>
      </trkpt>
      <trkpt lat="50.48575" lon="3.8226">
        <ele>97.86</ele>
        <time>2020-11-08T09:24:22.000Z</time>
      </trkpt>
      <trkpt lat="50.48578" lon="3.8227">
        <ele>97.86</ele>
        <time>2020-11-08T09:24:23.000Z</time>
      </trkpt>
      <trkpt lat="50.4858" lon="3.8228">
        <ele>98.16</ele>
        <time>2020-11-08T09:24:24.000Z</time>
      </trkpt>
      <trkpt lat="50.48585" lon="3.8229">
        <ele>97.7</ele>
        <time>2020-11-08T09:24:25.000Z</time>
      </trkpt>
      <trkpt lat="50.48588" lon="3.82303">
        <ele>96.8</ele>
        <time>2020-11-08T09:24:26.000Z</time>
      </trkpt>
      <trkpt lat="50.4859" lon="3.82313">
        <ele>95.17</ele>
        <time>2020-11-08T09:24:27.000Z</time>
      </trkpt>
      <trkpt lat="50.48593" lon="3.82324">
        <ele>95.84</ele>
        <time>2020-11-08T09:24:28.000Z</time>
      </trkpt>
      <trkpt lat="50.48594" lon="3.82335">
        <ele>96.28</ele>
        <time>2020-11-08T09:24:29.000Z</time>
      </trkpt>
      <trkpt lat="50.48594" lon="3.82346">
        <ele>95.95</ele>
        <time>2020-11-08T09:24:30.000Z</time>
      </trkpt>
      <trkpt lat="50.48593" lon="3.82357">
        <ele>95.82</ele>
        <time>2020-11-08T09:24:31.000Z</time>
      </trkpt>
      <trkpt lat="50.48591" lon="3.82368">
        <ele>96.72</ele>
        <time>2020-11-08T09:24:32.000Z</time>
      </trkpt>
      <trkpt lat="50.48588" lon="3.82378">
        <ele>97.99</ele>
        <time>2020-11-08T09:24:33.000Z</time>
      </trkpt>
      <trkpt lat="50.48586" lon="3.82388">
        <ele>97.79</ele>
        <time>2020-11-08T09:24:34.000Z</time>
      </trkpt>
      <trkpt lat="50.48586" lon="3.82398">
        <ele>98.17</ele>
        <time>2020-11-08T09:24:35.000Z</time>
      </trkpt>
      <trkpt lat="50.48586" lon="3.82406">
        <ele>97.6</ele>
        <time>2020-11-08T09:24:36.000Z</time>
      </trkpt>
      <trkpt lat="50.48586" lon="3.82416">
        <ele>97.96</ele>
        <time>2020-11-08T09:24:37.000Z</time>
      </trkpt>
      <trkpt lat="50.48585" lon="3.82427">
        <ele>98.13</ele>
        <time>2020-11-08T09:24:38.000Z</time>
      </trkpt>
      <trkpt lat="50.48585" lon="3.82436">
        <ele>97.67</ele>
        <time>2020-11-08T09:24:39.000Z</time>
      </trkpt>
      <trkpt lat="50.48587" lon="3.82447">
        <ele>97.5</ele>
        <time>2020-11-08T09:24:40.000Z</time>
      </trkpt>
      <trkpt lat="50.48588" lon="3.82454">
        <ele>96.52</ele>
        <time>2020-11-08T09:24:41.000Z</time>
      </trkpt>
      <trkpt lat="50.48591" lon="3.82471">
        <ele>96.1</ele>
        <time>2020-11-08T09:24:43.000Z</time>
      </trkpt>
      <trkpt lat="50.48593" lon="3.82481">
        <ele>97.02</ele>
        <time>2020-11-08T09:24:44.000Z</time>
      </trkpt>
      <trkpt lat="50.48594" lon="3.82491">
        <ele>97.92</ele>
        <time>2020-11-08T09:24:45.000Z</time>
      </trkpt>
      <trkpt lat="50.48596" lon="3.82502">
        <ele>99.28</ele>
        <time>2020-11-08T09:24:46.000Z</time>
      </trkpt>
      <trkpt lat="50.48597" lon="3.82512">
        <ele>98.99</ele>
        <time>2020-11-08T09:24:47.000Z</time>
      </trkpt>
      <trkpt lat="50.48599" lon="3.82523">
        <ele>99.66</ele>
        <time>2020-11-08T09:24:48.000Z</time>
      </trkpt>
      <trkpt lat="50.48599" lon="3.82532">
        <ele>99</ele>
        <time>2020-11-08T09:24:49.000Z</time>
      </trkpt>
      <trkpt lat="50.48599" lon="3.8254">
        <ele>99.12</ele>
        <time>2020-11-08T09:24:50.000Z</time>
      </trkpt>
      <trkpt lat="50.48599" lon="3.82549">
        <ele>98.87</ele>
        <time>2020-11-08T09:24:51.000Z</time>
      </trkpt>
      <trkpt lat="50.486" lon="3.82559">
        <ele>96.96</ele>
        <time>2020-11-08T09:24:53.000Z</time>
      </trkpt>
      <trkpt lat="50.48598" lon="3.82565">
        <ele>97.8</ele>
        <time>2020-11-08T09:24:55.000Z</time>
      </trkpt>
      <trkpt lat="50.48594" lon="3.82563">
        <ele>100.92</ele>
        <time>2020-11-08T09:24:57.000Z</time>
      </trkpt>
      <trkpt lat="50.48588" lon="3.82556">
        <ele>99.22</ele>
        <time>2020-11-08T09:24:59.000Z</time>
      </trkpt>
      <trkpt lat="50.48583" lon="3.82551">
        <ele>99.64</ele>
        <time>2020-11-08T09:25:00.000Z</time>
      </trkpt>
      <trkpt lat="50.4858" lon="3.82547">
        <ele>100.12</ele>
        <time>2020-11-08T09:25:01.000Z</time>
      </trkpt>
      <trkpt lat="50.48575" lon="3.82543">
        <ele>99.95</ele>
        <time>2020-11-08T09:25:02.000Z</time>
      </trkpt>
      <trkpt lat="50.4857" lon="3.82541">
        <ele>99.69</ele>
        <time>2020-11-08T09:25:03.000Z</time>
      </trkpt>
      <trkpt lat="50.48565" lon="3.82538">
        <ele>99.38</ele>
        <time>2020-11-08T09:25:04.000Z</time>
      </trkpt>
      <trkpt lat="50.48561" lon="3.82536">
        <ele>98.68</ele>
        <time>2020-11-08T09:25:05.000Z</time>
      </trkpt>
      <trkpt lat="50.48554" lon="3.82537">
        <ele>99.01</ele>
        <time>2020-11-08T09:25:06.000Z</time>
      </trkpt>
      <trkpt lat="50.48548" lon="3.82539">
        <ele>99.16</ele>
        <time>2020-11-08T09:25:07.000Z</time>
      </trkpt>
      <trkpt lat="50.48543" lon="3.82541">
        <ele>98.56</ele>
        <time>2020-11-08T09:25:08.000Z</time>
      </trkpt>
      <trkpt lat="50.48537" lon="3.82542">
        <ele>98</ele>
        <time>2020-11-08T09:25:09.000Z</time>
      </trkpt>
      <trkpt lat="50.48531" lon="3.82539">
        <ele>99.08</ele>
        <time>2020-11-08T09:25:10.000Z</time>
      </trkpt>
      <trkpt lat="50.48525" lon="3.82536">
        <ele>98</ele>
        <time>2020-11-08T09:25:11.000Z</time>
      </trkpt>
      <trkpt lat="50.48518" lon="3.82534">
        <ele>98.21</ele>
        <time>2020-11-08T09:25:12.000Z</time>
      </trkpt>
      <trkpt lat="50.48512" lon="3.8253">
        <ele>97.44</ele>
        <time>2020-11-08T09:25:13.000Z</time>
      </trkpt>
      <trkpt lat="50.48505" lon="3.82525">
        <ele>97.5</ele>
        <time>2020-11-08T09:25:14.000Z</time>
      </trkpt>
      <trkpt lat="50.48499" lon="3.82521">
        <ele>97.63</ele>
        <time>2020-11-08T09:25:15.000Z</time>
      </trkpt>
      <trkpt lat="50.48492" lon="3.82515">
        <ele>96.8</ele>
        <time>2020-11-08T09:25:16.000Z</time>
      </trkpt>
      <trkpt lat="50.48485" lon="3.82509">
        <ele>96.8</ele>
        <time>2020-11-08T09:25:17.000Z</time>
      </trkpt>
      <trkpt lat="50.48479" lon="3.82502">
        <ele>96.25</ele>
        <time>2020-11-08T09:25:18.000Z</time>
      </trkpt>
      <trkpt lat="50.48471" lon="3.82496">
        <ele>95.89</ele>
        <time>2020-11-08T09:25:19.000Z</time>
      </trkpt>
      <trkpt lat="50.48463" lon="3.82491">
        <ele>94.97</ele>
        <time>2020-11-08T09:25:20.000Z</time>
      </trkpt>
      <trkpt lat="50.48454" lon="3.82486">
        <ele>94.04</ele>
        <time>2020-11-08T09:25:21.000Z</time>
      </trkpt>
      <trkpt lat="50.48445" lon="3.82482">
        <ele>93.46</ele>
        <time>2020-11-08T09:25:22.000Z</time>
      </trkpt>
      <trkpt lat="50.48437" lon="3.82478">
        <ele>92.92</ele>
        <time>2020-11-08T09:25:23.000Z</time>
      </trkpt>
      <trkpt lat="50.4843" lon="3.82474">
        <ele>92.76</ele>
        <time>2020-11-08T09:25:24.000Z</time>
      </trkpt>
      <trkpt lat="50.48422" lon="3.82471">
        <ele>92.43</ele>
        <time>2020-11-08T09:25:25.000Z</time>
      </trkpt>
      <trkpt lat="50.48415" lon="3.82467">
        <ele>91.91</ele>
        <time>2020-11-08T09:25:26.000Z</time>
      </trkpt>
      <trkpt lat="50.48406" lon="3.82464">
        <ele>93.88</ele>
        <time>2020-11-08T09:25:27.000Z</time>
      </trkpt>
      <trkpt lat="50.48399" lon="3.82461">
        <ele>92.72</ele>
        <time>2020-11-08T09:25:28.000Z</time>
      </trkpt>
      <trkpt lat="50.48391" lon="3.82458">
        <ele>92.13</ele>
        <time>2020-11-08T09:25:29.000Z</time>
      </trkpt>
      <trkpt lat="50.48383" lon="3.82454">
        <ele>91.76</ele>
        <time>2020-11-08T09:25:30.000Z</time>
      </trkpt>
      <trkpt lat="50.48376" lon="3.82452">
        <ele>91.3</ele>
        <time>2020-11-08T09:25:31.000Z</time>
      </trkpt>
      <trkpt lat="50.48368" lon="3.82448">
        <ele>91.3</ele>
        <time>2020-11-08T09:25:32.000Z</time>
      </trkpt>
      <trkpt lat="50.4836" lon="3.82445">
        <ele>90.86</ele>
        <time>2020-11-08T09:25:33.000Z</time>
      </trkpt>
      <trkpt lat="50.48351" lon="3.82442">
        <ele>90.21</ele>
        <time>2020-11-08T09:25:34.000Z</time>
      </trkpt>
      <trkpt lat="50.48344" lon="3.82438">
        <ele>90.21</ele>
        <time>2020-11-08T09:25:35.000Z</time>
      </trkpt>
      <trkpt lat="50.48337" lon="3.82434">
        <ele>90.08</ele>
        <time>2020-11-08T09:25:36.000Z</time>
      </trkpt>
      <trkpt lat="50.4833" lon="3.82429">
        <ele>89.9</ele>
        <time>2020-11-08T09:25:37.000Z</time>
      </trkpt>
      <trkpt lat="50.48325" lon="3.82424">
        <ele>89.47</ele>
        <time>2020-11-08T09:25:38.000Z</time>
      </trkpt>
      <trkpt lat="50.48319" lon="3.82418">
        <ele>89.32</ele>
        <time>2020-11-08T09:25:39.000Z</time>
      </trkpt>
      <trkpt lat="50.48314" lon="3.82415">
        <ele>89.59</ele>
        <time>2020-11-08T09:25:40.000Z</time>
      </trkpt>
      <trkpt lat="50.48308" lon="3.82413">
        <ele>89.65</ele>
        <time>2020-11-08T09:25:41.000Z</time>
      </trkpt>
      <trkpt lat="50.48302" lon="3.82415">
        <ele>89.82</ele>
        <time>2020-11-08T09:25:42.000Z</time>
      </trkpt>
      <trkpt lat="50.48296" lon="3.82418">
        <ele>89.85</ele>
        <time>2020-11-08T09:25:43.000Z</time>
      </trkpt>
      <trkpt lat="50.4829" lon="3.82421">
        <ele>89.87</ele>
        <time>2020-11-08T09:25:44.000Z</time>
      </trkpt>
      <trkpt lat="50.48285" lon="3.82423">
        <ele>89.89</ele>
        <time>2020-11-08T09:25:45.000Z</time>
      </trkpt>
      <trkpt lat="50.4828" lon="3.82426">
        <ele>89.74</ele>
        <time>2020-11-08T09:25:46.000Z</time>
      </trkpt>
      <trkpt lat="50.48276" lon="3.82428">
        <ele>89.76</ele>
        <time>2020-11-08T09:25:47.000Z</time>
      </trkpt>
      <trkpt lat="50.48271" lon="3.8243">
        <ele>89.98</ele>
        <time>2020-11-08T09:25:48.000Z</time>
      </trkpt>
      <trkpt lat="50.48267" lon="3.82434">
        <ele>89.99</ele>
        <time>2020-11-08T09:25:49.000Z</time>
      </trkpt>
      <trkpt lat="50.48262" lon="3.82436">
        <ele>89.57</ele>
        <time>2020-11-08T09:25:50.000Z</time>
      </trkpt>
      <trkpt lat="50.48257" lon="3.8244">
        <ele>89.44</ele>
        <time>2020-11-08T09:25:51.000Z</time>
      </trkpt>
      <trkpt lat="50.48251" lon="3.82443">
        <ele>89.41</ele>
        <time>2020-11-08T09:25:52.000Z</time>
      </trkpt>
      <trkpt lat="50.48245" lon="3.82446">
        <ele>89.51</ele>
        <time>2020-11-08T09:25:53.000Z</time>
      </trkpt>
      <trkpt lat="50.4824" lon="3.8245">
        <ele>89.11</ele>
        <time>2020-11-08T09:25:54.000Z</time>
      </trkpt>
      <trkpt lat="50.48234" lon="3.82456">
        <ele>88.92</ele>
        <time>2020-11-08T09:25:55.000Z</time>
      </trkpt>
      <trkpt lat="50.48228" lon="3.82461">
        <ele>89.05</ele>
        <time>2020-11-08T09:25:56.000Z</time>
      </trkpt>
      <trkpt lat="50.48222" lon="3.82464">
        <ele>88.87</ele>
        <time>2020-11-08T09:25:57.000Z</time>
      </trkpt>
      <trkpt lat="50.48216" lon="3.82466">
        <ele>88.71</ele>
        <time>2020-11-08T09:25:58.000Z</time>
      </trkpt>
      <trkpt lat="50.48209" lon="3.82468">
        <ele>88.73</ele>
        <time>2020-11-08T09:25:59.000Z</time>
      </trkpt>
      <trkpt lat="50.48203" lon="3.82468">
        <ele>88.42</ele>
        <time>2020-11-08T09:26:00.000Z</time>
      </trkpt>
      <trkpt lat="50.48197" lon="3.82468">
        <ele>88.45</ele>
        <time>2020-11-08T09:26:01.000Z</time>
      </trkpt>
      <trkpt lat="50.4819" lon="3.82468">
        <ele>88.49</ele>
        <time>2020-11-08T09:26:02.000Z</time>
      </trkpt>
      <trkpt lat="50.48184" lon="3.82469">
        <ele>88.61</ele>
        <time>2020-11-08T09:26:03.000Z</time>
      </trkpt>
      <trkpt lat="50.48178" lon="3.82469">
        <ele>88.19</ele>
        <time>2020-11-08T09:26:04.000Z</time>
      </trkpt>
      <trkpt lat="50.48172" lon="3.82468">
        <ele>89.48</ele>
        <time>2020-11-08T09:26:05.000Z</time>
      </trkpt>
      <trkpt lat="50.48167" lon="3.82468">
        <ele>88.92</ele>
        <time>2020-11-08T09:26:06.000Z</time>
      </trkpt>
      <trkpt lat="50.48161" lon="3.82468">
        <ele>88.66</ele>
        <time>2020-11-08T09:26:07.000Z</time>
      </trkpt>
      <trkpt lat="50.48156" lon="3.82469">
        <ele>88.59</ele>
        <time>2020-11-08T09:26:08.000Z</time>
      </trkpt>
      <trkpt lat="50.4815" lon="3.82471">
        <ele>88.21</ele>
        <time>2020-11-08T09:26:09.000Z</time>
      </trkpt>
      <trkpt lat="50.48145" lon="3.82474">
        <ele>88.18</ele>
        <time>2020-11-08T09:26:10.000Z</time>
      </trkpt>
      <trkpt lat="50.48142" lon="3.8248">
        <ele>88.21</ele>
        <time>2020-11-08T09:26:11.000Z</time>
      </trkpt>
      <trkpt lat="50.4814" lon="3.82487">
        <ele>88.29</ele>
        <time>2020-11-08T09:26:12.000Z</time>
      </trkpt>
      <trkpt lat="50.48136" lon="3.82498">
        <ele>87.66</ele>
        <time>2020-11-08T09:26:14.000Z</time>
      </trkpt>
      <trkpt lat="50.48132" lon="3.82505">
        <ele>87.44</ele>
        <time>2020-11-08T09:26:16.000Z</time>
      </trkpt>
      <trkpt lat="50.48125" lon="3.82507">
        <ele>87.46</ele>
        <time>2020-11-08T09:26:18.000Z</time>
      </trkpt>
      <trkpt lat="50.48118" lon="3.82505">
        <ele>87.68</ele>
        <time>2020-11-08T09:26:20.000Z</time>
      </trkpt>
      <trkpt lat="50.48114" lon="3.82501">
        <ele>87.85</ele>
        <time>2020-11-08T09:26:21.000Z</time>
      </trkpt>
      <trkpt lat="50.4811" lon="3.82497">
        <ele>87.54</ele>
        <time>2020-11-08T09:26:22.000Z</time>
      </trkpt>
      <trkpt lat="50.48106" lon="3.82492">
        <ele>87.17</ele>
        <time>2020-11-08T09:26:23.000Z</time>
      </trkpt>
      <trkpt lat="50.48101" lon="3.82487">
        <ele>87.07</ele>
        <time>2020-11-08T09:26:24.000Z</time>
      </trkpt>
      <trkpt lat="50.48096" lon="3.82483">
        <ele>87.05</ele>
        <time>2020-11-08T09:26:25.000Z</time>
      </trkpt>
      <trkpt lat="50.48091" lon="3.82478">
        <ele>87.03</ele>
        <time>2020-11-08T09:26:26.000Z</time>
      </trkpt>
      <trkpt lat="50.48086" lon="3.82474">
        <ele>86.82</ele>
        <time>2020-11-08T09:26:27.000Z</time>
      </trkpt>
      <trkpt lat="50.48081" lon="3.82468">
        <ele>87.02</ele>
        <time>2020-11-08T09:26:28.000Z</time>
      </trkpt>
      <trkpt lat="50.48076" lon="3.82463">
        <ele>86.88</ele>
        <time>2020-11-08T09:26:29.000Z</time>
      </trkpt>
      <trkpt lat="50.48071" lon="3.82458">
        <ele>86.6</ele>
        <time>2020-11-08T09:26:30.000Z</time>
      </trkpt>
      <trkpt lat="50.48066" lon="3.82454">
        <ele>86.34</ele>
        <time>2020-11-08T09:26:31.000Z</time>
      </trkpt>
      <trkpt lat="50.48061" lon="3.82453">
        <ele>87.73</ele>
        <time>2020-11-08T09:26:32.000Z</time>
      </trkpt>
      <trkpt lat="50.48055" lon="3.82454">
        <ele>87.47</ele>
        <time>2020-11-08T09:26:33.000Z</time>
      </trkpt>
      <trkpt lat="50.48051" lon="3.82458">
        <ele>87.13</ele>
        <time>2020-11-08T09:26:34.000Z</time>
      </trkpt>
      <trkpt lat="50.48048" lon="3.82463">
        <ele>88.59</ele>
        <time>2020-11-08T09:26:35.000Z</time>
      </trkpt>
      <trkpt lat="50.48047" lon="3.8247">
        <ele>88.08</ele>
        <time>2020-11-08T09:26:36.000Z</time>
      </trkpt>
      <trkpt lat="50.48045" lon="3.82477">
        <ele>90.62</ele>
        <time>2020-11-08T09:26:37.000Z</time>
      </trkpt>
      <trkpt lat="50.48044" lon="3.82485">
        <ele>89.3</ele>
        <time>2020-11-08T09:26:38.000Z</time>
      </trkpt>
      <trkpt lat="50.48042" lon="3.82493">
        <ele>88.65</ele>
        <time>2020-11-08T09:26:39.000Z</time>
      </trkpt>
      <trkpt lat="50.4804" lon="3.82501">
        <ele>88.3</ele>
        <time>2020-11-08T09:26:40.000Z</time>
      </trkpt>
      <trkpt lat="50.48038" lon="3.82509">
        <ele>87.99</ele>
        <time>2020-11-08T09:26:41.000Z</time>
      </trkpt>
      <trkpt lat="50.48036" lon="3.82517">
        <ele>88.73</ele>
        <time>2020-11-08T09:26:42.000Z</time>
      </trkpt>
      <trkpt lat="50.48034" lon="3.82525">
        <ele>88.32</ele>
        <time>2020-11-08T09:26:43.000Z</time>
      </trkpt>
      <trkpt lat="50.48033" lon="3.82535">
        <ele>88.23</ele>
        <time>2020-11-08T09:26:44.000Z</time>
      </trkpt>
      <trkpt lat="50.48031" lon="3.82544">
        <ele>88.06</ele>
        <time>2020-11-08T09:26:45.000Z</time>
      </trkpt>
      <trkpt lat="50.48029" lon="3.82552">
        <ele>87.99</ele>
        <time>2020-11-08T09:26:46.000Z</time>
      </trkpt>
      <trkpt lat="50.48028" lon="3.82562">
        <ele>87.75</ele>
        <time>2020-11-08T09:26:47.000Z</time>
      </trkpt>
      <trkpt lat="50.48027" lon="3.82571">
        <ele>87.79</ele>
        <time>2020-11-08T09:26:48.000Z</time>
      </trkpt>
      <trkpt lat="50.48026" lon="3.8258">
        <ele>88.17</ele>
        <time>2020-11-08T09:26:49.000Z</time>
      </trkpt>
      <trkpt lat="50.48025" lon="3.8259">
        <ele>88.32</ele>
        <time>2020-11-08T09:26:50.000Z</time>
      </trkpt>
      <trkpt lat="50.48024" lon="3.826">
        <ele>88.59</ele>
        <time>2020-11-08T09:26:51.000Z</time>
      </trkpt>
      <trkpt lat="50.48023" lon="3.8261">
        <ele>88.42</ele>
        <time>2020-11-08T09:26:52.000Z</time>
      </trkpt>
      <trkpt lat="50.48022" lon="3.82619">
        <ele>88.52</ele>
        <time>2020-11-08T09:26:53.000Z</time>
      </trkpt>
      <trkpt lat="50.48021" lon="3.82629">
        <ele>88.58</ele>
        <time>2020-11-08T09:26:54.000Z</time>
      </trkpt>
      <trkpt lat="50.48019" lon="3.82638">
        <ele>88.75</ele>
        <time>2020-11-08T09:26:55.000Z</time>
      </trkpt>
      <trkpt lat="50.48018" lon="3.82648">
        <ele>88.86</ele>
        <time>2020-11-08T09:26:56.000Z</time>
      </trkpt>
      <trkpt lat="50.48017" lon="3.82657">
        <ele>88.91</ele>
        <time>2020-11-08T09:26:57.000Z</time>
      </trkpt>
      <trkpt lat="50.48016" lon="3.82666">
        <ele>92.17</ele>
        <time>2020-11-08T09:26:58.000Z</time>
      </trkpt>
      <trkpt lat="50.48015" lon="3.82675">
        <ele>90.7</ele>
        <time>2020-11-08T09:26:59.000Z</time>
      </trkpt>
      <trkpt lat="50.48014" lon="3.82685">
        <ele>90.34</ele>
        <time>2020-11-08T09:27:00.000Z</time>
      </trkpt>
      <trkpt lat="50.48013" lon="3.82694">
        <ele>90.37</ele>
        <time>2020-11-08T09:27:01.000Z</time>
      </trkpt>
      <trkpt lat="50.48011" lon="3.82704">
        <ele>89.92</ele>
        <time>2020-11-08T09:27:02.000Z</time>
      </trkpt>
      <trkpt lat="50.4801" lon="3.82713">
        <ele>90</ele>
        <time>2020-11-08T09:27:03.000Z</time>
      </trkpt>
      <trkpt lat="50.48008" lon="3.82721">
        <ele>90.07</ele>
        <time>2020-11-08T09:27:04.000Z</time>
      </trkpt>
      <trkpt lat="50.48007" lon="3.8273">
        <ele>90.09</ele>
        <time>2020-11-08T09:27:05.000Z</time>
      </trkpt>
      <trkpt lat="50.48006" lon="3.82739">
        <ele>89.76</ele>
        <time>2020-11-08T09:27:06.000Z</time>
      </trkpt>
      <trkpt lat="50.48004" lon="3.82749">
        <ele>89.45</ele>
        <time>2020-11-08T09:27:07.000Z</time>
      </trkpt>
      <trkpt lat="50.48003" lon="3.82758">
        <ele>89.45</ele>
        <time>2020-11-08T09:27:08.000Z</time>
      </trkpt>
      <trkpt lat="50.48" lon="3.82766">
        <ele>89.56</ele>
        <time>2020-11-08T09:27:09.000Z</time>
      </trkpt>
      <trkpt lat="50.47998" lon="3.82776">
        <ele>89.4</ele>
        <time>2020-11-08T09:27:10.000Z</time>
      </trkpt>
      <trkpt lat="50.47996" lon="3.82784">
        <ele>89.16</ele>
        <time>2020-11-08T09:27:11.000Z</time>
      </trkpt>
      <trkpt lat="50.47994" lon="3.82793">
        <ele>89.2</ele>
        <time>2020-11-08T09:27:12.000Z</time>
      </trkpt>
      <trkpt lat="50.47992" lon="3.82802">
        <ele>89.11</ele>
        <time>2020-11-08T09:27:13.000Z</time>
      </trkpt>
      <trkpt lat="50.4799" lon="3.82811">
        <ele>89.05</ele>
        <time>2020-11-08T09:27:14.000Z</time>
      </trkpt>
      <trkpt lat="50.47988" lon="3.8282">
        <ele>89.56</ele>
        <time>2020-11-08T09:27:15.000Z</time>
      </trkpt>
      <trkpt lat="50.47986" lon="3.82829">
        <ele>89.83</ele>
        <time>2020-11-08T09:27:16.000Z</time>
      </trkpt>
      <trkpt lat="50.47984" lon="3.82839">
        <ele>89.92</ele>
        <time>2020-11-08T09:27:17.000Z</time>
      </trkpt>
      <trkpt lat="50.47981" lon="3.82847">
        <ele>89.26</ele>
        <time>2020-11-08T09:27:18.000Z</time>
      </trkpt>
      <trkpt lat="50.47979" lon="3.82856">
        <ele>89.01</ele>
        <time>2020-11-08T09:27:19.000Z</time>
      </trkpt>
      <trkpt lat="50.47977" lon="3.82865">
        <ele>88.92</ele>
        <time>2020-11-08T09:27:20.000Z</time>
      </trkpt>
      <trkpt lat="50.47975" lon="3.82874">
        <ele>89.01</ele>
        <time>2020-11-08T09:27:21.000Z</time>
      </trkpt>
      <trkpt lat="50.47973" lon="3.82884">
        <ele>88.85</ele>
        <time>2020-11-08T09:27:22.000Z</time>
      </trkpt>
      <trkpt lat="50.47971" lon="3.82893">
        <ele>89.18</ele>
        <time>2020-11-08T09:27:23.000Z</time>
      </trkpt>
      <trkpt lat="50.47969" lon="3.82903">
        <ele>89.28</ele>
        <time>2020-11-08T09:27:24.000Z</time>
      </trkpt>
      <trkpt lat="50.47967" lon="3.82912">
        <ele>89.8</ele>
        <time>2020-11-08T09:27:25.000Z</time>
      </trkpt>
      <trkpt lat="50.47965" lon="3.82921">
        <ele>89.88</ele>
        <time>2020-11-08T09:27:26.000Z</time>
      </trkpt>
      <trkpt lat="50.47963" lon="3.8293">
        <ele>89.8</ele>
        <time>2020-11-08T09:27:27.000Z</time>
      </trkpt>
      <trkpt lat="50.47961" lon="3.82939">
        <ele>89.21</ele>
        <time>2020-11-08T09:27:28.000Z</time>
      </trkpt>
      <trkpt lat="50.47959" lon="3.82949">
        <ele>88.73</ele>
        <time>2020-11-08T09:27:29.000Z</time>
      </trkpt>
      <trkpt lat="50.47957" lon="3.82959">
        <ele>88.57</ele>
        <time>2020-11-08T09:27:30.000Z</time>
      </trkpt>
      <trkpt lat="50.47955" lon="3.82968">
        <ele>87.89</ele>
        <time>2020-11-08T09:27:31.000Z</time>
      </trkpt>
      <trkpt lat="50.47953" lon="3.82977">
        <ele>88.23</ele>
        <time>2020-11-08T09:27:32.000Z</time>
      </trkpt>
      <trkpt lat="50.47951" lon="3.82987">
        <ele>87.82</ele>
        <time>2020-11-08T09:27:33.000Z</time>
      </trkpt>
      <trkpt lat="50.47948" lon="3.82997">
        <ele>87.52</ele>
        <time>2020-11-08T09:27:34.000Z</time>
      </trkpt>
      <trkpt lat="50.47946" lon="3.83006">
        <ele>87.36</ele>
        <time>2020-11-08T09:27:35.000Z</time>
      </trkpt>
      <trkpt lat="50.47944" lon="3.83016">
        <ele>87.52</ele>
        <time>2020-11-08T09:27:36.000Z</time>
      </trkpt>
      <trkpt lat="50.47942" lon="3.83026">
        <ele>87.2</ele>
        <time>2020-11-08T09:27:37.000Z</time>
      </trkpt>
      <trkpt lat="50.47941" lon="3.83037">
        <ele>86.72</ele>
        <time>2020-11-08T09:27:38.000Z</time>
      </trkpt>
      <trkpt lat="50.4794" lon="3.83047">
        <ele>86.58</ele>
        <time>2020-11-08T09:27:39.000Z</time>
      </trkpt>
      <trkpt lat="50.47939" lon="3.83057">
        <ele>86.52</ele>
        <time>2020-11-08T09:27:40.000Z</time>
      </trkpt>
      <trkpt lat="50.47939" lon="3.83067">
        <ele>86.27</ele>
        <time>2020-11-08T09:27:41.000Z</time>
      </trkpt>
      <trkpt lat="50.47938" lon="3.83078">
        <ele>86.23</ele>
        <time>2020-11-08T09:27:42.000Z</time>
      </trkpt>
      <trkpt lat="50.47937" lon="3.83089">
        <ele>85.93</ele>
        <time>2020-11-08T09:27:43.000Z</time>
      </trkpt>
      <trkpt lat="50.47937" lon="3.831">
        <ele>85.5</ele>
        <time>2020-11-08T09:27:44.000Z</time>
      </trkpt>
      <trkpt lat="50.47936" lon="3.8311">
        <ele>85.17</ele>
        <time>2020-11-08T09:27:45.000Z</time>
      </trkpt>
      <trkpt lat="50.47936" lon="3.83121">
        <ele>84.74</ele>
        <time>2020-11-08T09:27:46.000Z</time>
      </trkpt>
      <trkpt lat="50.47935" lon="3.83131">
        <ele>84.71</ele>
        <time>2020-11-08T09:27:47.000Z</time>
      </trkpt>
      <trkpt lat="50.47934" lon="3.8314">
        <ele>84.35</ele>
        <time>2020-11-08T09:27:48.000Z</time>
      </trkpt>
      <trkpt lat="50.47934" lon="3.8315">
        <ele>83.95</ele>
        <time>2020-11-08T09:27:49.000Z</time>
      </trkpt>
      <trkpt lat="50.47933" lon="3.8316">
        <ele>84.24</ele>
        <time>2020-11-08T09:27:50.000Z</time>
      </trkpt>
      <trkpt lat="50.47933" lon="3.83168">
        <ele>83.59</ele>
        <time>2020-11-08T09:27:51.000Z</time>
      </trkpt>
      <trkpt lat="50.47932" lon="3.83176">
        <ele>83.06</ele>
        <time>2020-11-08T09:27:55.000Z</time>
      </trkpt>
      <trkpt lat="50.47932" lon="3.83186">
        <ele>83.15</ele>
        <time>2020-11-08T09:27:57.000Z</time>
      </trkpt>
      <trkpt lat="50.47932" lon="3.83193">
        <ele>82.96</ele>
        <time>2020-11-08T09:27:58.000Z</time>
      </trkpt>
      <trkpt lat="50.47932" lon="3.83201">
        <ele>82.92</ele>
        <time>2020-11-08T09:27:59.000Z</time>
      </trkpt>
      <trkpt lat="50.47931" lon="3.83209">
        <ele>82.85</ele>
        <time>2020-11-08T09:28:00.000Z</time>
      </trkpt>
      <trkpt lat="50.4793" lon="3.83218">
        <ele>82.57</ele>
        <time>2020-11-08T09:28:01.000Z</time>
      </trkpt>
      <trkpt lat="50.47929" lon="3.83227">
        <ele>82</ele>
        <time>2020-11-08T09:28:02.000Z</time>
      </trkpt>
      <trkpt lat="50.47928" lon="3.83237">
        <ele>82.25</ele>
        <time>2020-11-08T09:28:03.000Z</time>
      </trkpt>
      <trkpt lat="50.47927" lon="3.83247">
        <ele>81.81</ele>
        <time>2020-11-08T09:28:04.000Z</time>
      </trkpt>
      <trkpt lat="50.47925" lon="3.83257">
        <ele>82.19</ele>
        <time>2020-11-08T09:28:05.000Z</time>
      </trkpt>
      <trkpt lat="50.47924" lon="3.83268">
        <ele>82.11</ele>
        <time>2020-11-08T09:28:06.000Z</time>
      </trkpt>
      <trkpt lat="50.47923" lon="3.83279">
        <ele>82.08</ele>
        <time>2020-11-08T09:28:07.000Z</time>
      </trkpt>
      <trkpt lat="50.47922" lon="3.8329">
        <ele>82.1</ele>
        <time>2020-11-08T09:28:08.000Z</time>
      </trkpt>
      <trkpt lat="50.47921" lon="3.83302">
        <ele>82</ele>
        <time>2020-11-08T09:28:09.000Z</time>
      </trkpt>
      <trkpt lat="50.47919" lon="3.83314">
        <ele>82.39</ele>
        <time>2020-11-08T09:28:10.000Z</time>
      </trkpt>
      <trkpt lat="50.47917" lon="3.83326">
        <ele>82.69</ele>
        <time>2020-11-08T09:28:11.000Z</time>
      </trkpt>
      <trkpt lat="50.47916" lon="3.83338">
        <ele>82.81</ele>
        <time>2020-11-08T09:28:12.000Z</time>
      </trkpt>
      <trkpt lat="50.47914" lon="3.8335">
        <ele>83.05</ele>
        <time>2020-11-08T09:28:13.000Z</time>
      </trkpt>
      <trkpt lat="50.47913" lon="3.83363">
        <ele>83.22</ele>
        <time>2020-11-08T09:28:14.000Z</time>
      </trkpt>
      <trkpt lat="50.47912" lon="3.83376">
        <ele>83.04</ele>
        <time>2020-11-08T09:28:15.000Z</time>
      </trkpt>
      <trkpt lat="50.47911" lon="3.83388">
        <ele>83</ele>
        <time>2020-11-08T09:28:16.000Z</time>
      </trkpt>
      <trkpt lat="50.47909" lon="3.83401">
        <ele>83.45</ele>
        <time>2020-11-08T09:28:17.000Z</time>
      </trkpt>
      <trkpt lat="50.47907" lon="3.83414">
        <ele>83.84</ele>
        <time>2020-11-08T09:28:18.000Z</time>
      </trkpt>
      <trkpt lat="50.47906" lon="3.83426">
        <ele>83.92</ele>
        <time>2020-11-08T09:28:19.000Z</time>
      </trkpt>
      <trkpt lat="50.47905" lon="3.83438">
        <ele>84.1</ele>
        <time>2020-11-08T09:28:20.000Z</time>
      </trkpt>
      <trkpt lat="50.47903" lon="3.83451">
        <ele>84.38</ele>
        <time>2020-11-08T09:28:21.000Z</time>
      </trkpt>
      <trkpt lat="50.47902" lon="3.83463">
        <ele>84.6</ele>
        <time>2020-11-08T09:28:22.000Z</time>
      </trkpt>
      <trkpt lat="50.479" lon="3.83475">
        <ele>84.79</ele>
        <time>2020-11-08T09:28:23.000Z</time>
      </trkpt>
      <trkpt lat="50.47898" lon="3.83486">
        <ele>85.13</ele>
        <time>2020-11-08T09:28:24.000Z</time>
      </trkpt>
      <trkpt lat="50.47897" lon="3.83498">
        <ele>87.14</ele>
        <time>2020-11-08T09:28:25.000Z</time>
      </trkpt>
      <trkpt lat="50.47896" lon="3.83509">
        <ele>86.57</ele>
        <time>2020-11-08T09:28:26.000Z</time>
      </trkpt>
      <trkpt lat="50.47895" lon="3.83519">
        <ele>86.44</ele>
        <time>2020-11-08T09:28:27.000Z</time>
      </trkpt>
      <trkpt lat="50.47894" lon="3.83529">
        <ele>86.42</ele>
        <time>2020-11-08T09:28:28.000Z</time>
      </trkpt>
      <trkpt lat="50.47893" lon="3.83539">
        <ele>86.69</ele>
        <time>2020-11-08T09:28:29.000Z</time>
      </trkpt>
      <trkpt lat="50.47892" lon="3.83549">
        <ele>86.59</ele>
        <time>2020-11-08T09:28:30.000Z</time>
      </trkpt>
      <trkpt lat="50.4789" lon="3.8356">
        <ele>86.55</ele>
        <time>2020-11-08T09:28:31.000Z</time>
      </trkpt>
      <trkpt lat="50.47888" lon="3.8357">
        <ele>86.71</ele>
        <time>2020-11-08T09:28:32.000Z</time>
      </trkpt>
      <trkpt lat="50.47886" lon="3.8358">
        <ele>86.94</ele>
        <time>2020-11-08T09:28:33.000Z</time>
      </trkpt>
      <trkpt lat="50.47883" lon="3.8359">
        <ele>87.01</ele>
        <time>2020-11-08T09:28:34.000Z</time>
      </trkpt>
      <trkpt lat="50.47882" lon="3.836">
        <ele>86.7</ele>
        <time>2020-11-08T09:28:35.000Z</time>
      </trkpt>
      <trkpt lat="50.47879" lon="3.8361">
        <ele>86.49</ele>
        <time>2020-11-08T09:28:36.000Z</time>
      </trkpt>
      <trkpt lat="50.47877" lon="3.83619">
        <ele>86.33</ele>
        <time>2020-11-08T09:28:37.000Z</time>
      </trkpt>
      <trkpt lat="50.47875" lon="3.83629">
        <ele>89.3</ele>
        <time>2020-11-08T09:28:38.000Z</time>
      </trkpt>
      <trkpt lat="50.47873" lon="3.83638">
        <ele>88.25</ele>
        <time>2020-11-08T09:28:39.000Z</time>
      </trkpt>
      <trkpt lat="50.47871" lon="3.83648">
        <ele>87.83</ele>
        <time>2020-11-08T09:28:40.000Z</time>
      </trkpt>
      <trkpt lat="50.47869" lon="3.83658">
        <ele>87.61</ele>
        <time>2020-11-08T09:28:41.000Z</time>
      </trkpt>
      <trkpt lat="50.47867" lon="3.83668">
        <ele>87.13</ele>
        <time>2020-11-08T09:28:42.000Z</time>
      </trkpt>
      <trkpt lat="50.47864" lon="3.83677">
        <ele>87.39</ele>
        <time>2020-11-08T09:28:43.000Z</time>
      </trkpt>
      <trkpt lat="50.47863" lon="3.83686">
        <ele>87.43</ele>
        <time>2020-11-08T09:28:44.000Z</time>
      </trkpt>
      <trkpt lat="50.4786" lon="3.83695">
        <ele>87.69</ele>
        <time>2020-11-08T09:28:45.000Z</time>
      </trkpt>
      <trkpt lat="50.47859" lon="3.83705">
        <ele>87.44</ele>
        <time>2020-11-08T09:28:46.000Z</time>
      </trkpt>
      <trkpt lat="50.47857" lon="3.83714">
        <ele>88.15</ele>
        <time>2020-11-08T09:28:47.000Z</time>
      </trkpt>
      <trkpt lat="50.47855" lon="3.83724">
        <ele>87.89</ele>
        <time>2020-11-08T09:28:48.000Z</time>
      </trkpt>
      <trkpt lat="50.47853" lon="3.83732">
        <ele>87.19</ele>
        <time>2020-11-08T09:28:49.000Z</time>
      </trkpt>
      <trkpt lat="50.4785" lon="3.83742">
        <ele>86.92</ele>
        <time>2020-11-08T09:28:50.000Z</time>
      </trkpt>
      <trkpt lat="50.47848" lon="3.83751">
        <ele>87.03</ele>
        <time>2020-11-08T09:28:51.000Z</time>
      </trkpt>
      <trkpt lat="50.47846" lon="3.83759">
        <ele>86.93</ele>
        <time>2020-11-08T09:28:52.000Z</time>
      </trkpt>
      <trkpt lat="50.47844" lon="3.83768">
        <ele>86.81</ele>
        <time>2020-11-08T09:28:53.000Z</time>
      </trkpt>
      <trkpt lat="50.47842" lon="3.83777">
        <ele>86.22</ele>
        <time>2020-11-08T09:28:54.000Z</time>
      </trkpt>
      <trkpt lat="50.47841" lon="3.83786">
        <ele>85.9</ele>
        <time>2020-11-08T09:28:55.000Z</time>
      </trkpt>
      <trkpt lat="50.47841" lon="3.83796">
        <ele>86.39</ele>
        <time>2020-11-08T09:28:56.000Z</time>
      </trkpt>
      <trkpt lat="50.47842" lon="3.83806">
        <ele>86.23</ele>
        <time>2020-11-08T09:28:57.000Z</time>
      </trkpt>
      <trkpt lat="50.47844" lon="3.83814">
        <ele>86.34</ele>
        <time>2020-11-08T09:28:58.000Z</time>
      </trkpt>
      <trkpt lat="50.47848" lon="3.83821">
        <ele>86.52</ele>
        <time>2020-11-08T09:28:59.000Z</time>
      </trkpt>
      <trkpt lat="50.47853" lon="3.83827">
        <ele>86.88</ele>
        <time>2020-11-08T09:29:00.000Z</time>
      </trkpt>
      <trkpt lat="50.47859" lon="3.83832">
        <ele>87.12</ele>
        <time>2020-11-08T09:29:01.000Z</time>
      </trkpt>
      <trkpt lat="50.47864" lon="3.83836">
        <ele>87.47</ele>
        <time>2020-11-08T09:29:02.000Z</time>
      </trkpt>
      <trkpt lat="50.47869" lon="3.83841">
        <ele>87.85</ele>
        <time>2020-11-08T09:29:03.000Z</time>
      </trkpt>
      <trkpt lat="50.47875" lon="3.83845">
        <ele>88.07</ele>
        <time>2020-11-08T09:29:04.000Z</time>
      </trkpt>
      <trkpt lat="50.4788" lon="3.8385">
        <ele>88.15</ele>
        <time>2020-11-08T09:29:05.000Z</time>
      </trkpt>
      <trkpt lat="50.47885" lon="3.83854">
        <ele>88.11</ele>
        <time>2020-11-08T09:29:06.000Z</time>
      </trkpt>
      <trkpt lat="50.47891" lon="3.83859">
        <ele>88.19</ele>
        <time>2020-11-08T09:29:07.000Z</time>
      </trkpt>
      <trkpt lat="50.47896" lon="3.83864">
        <ele>88.11</ele>
        <time>2020-11-08T09:29:08.000Z</time>
      </trkpt>
      <trkpt lat="50.47902" lon="3.83869">
        <ele>88.02</ele>
        <time>2020-11-08T09:29:09.000Z</time>
      </trkpt>
      <trkpt lat="50.47908" lon="3.83874">
        <ele>88.11</ele>
        <time>2020-11-08T09:29:10.000Z</time>
      </trkpt>
      <trkpt lat="50.47913" lon="3.83878">
        <ele>87.78</ele>
        <time>2020-11-08T09:29:11.000Z</time>
      </trkpt>
      <trkpt lat="50.47918" lon="3.83883">
        <ele>87.68</ele>
        <time>2020-11-08T09:29:12.000Z</time>
      </trkpt>
      <trkpt lat="50.47924" lon="3.83888">
        <ele>88.06</ele>
        <time>2020-11-08T09:29:13.000Z</time>
      </trkpt>
      <trkpt lat="50.47928" lon="3.8389">
        <ele>88.11</ele>
        <time>2020-11-08T09:29:14.000Z</time>
      </trkpt>
      <trkpt lat="50.47932" lon="3.83894">
        <ele>87.93</ele>
        <time>2020-11-08T09:29:15.000Z</time>
      </trkpt>
      <trkpt lat="50.47939" lon="3.83901">
        <ele>88.39</ele>
        <time>2020-11-08T09:29:17.000Z</time>
      </trkpt>
      <trkpt lat="50.47945" lon="3.83906">
        <ele>88.88</ele>
        <time>2020-11-08T09:29:19.000Z</time>
      </trkpt>
      <trkpt lat="50.47952" lon="3.83908">
        <ele>90.64</ele>
        <time>2020-11-08T09:29:21.000Z</time>
      </trkpt>
      <trkpt lat="50.47961" lon="3.83909">
        <ele>90.21</ele>
        <time>2020-11-08T09:29:23.000Z</time>
      </trkpt>
      <trkpt lat="50.47966" lon="3.83908">
        <ele>90.36</ele>
        <time>2020-11-08T09:29:24.000Z</time>
      </trkpt>
      <trkpt lat="50.47972" lon="3.83906">
        <ele>90.17</ele>
        <time>2020-11-08T09:29:25.000Z</time>
      </trkpt>
      <trkpt lat="50.47977" lon="3.83905">
        <ele>90.53</ele>
        <time>2020-11-08T09:29:26.000Z</time>
      </trkpt>
      <trkpt lat="50.47982" lon="3.83904">
        <ele>90.6</ele>
        <time>2020-11-08T09:29:27.000Z</time>
      </trkpt>
      <trkpt lat="50.47988" lon="3.83902">
        <ele>91.03</ele>
        <time>2020-11-08T09:29:28.000Z</time>
      </trkpt>
      <trkpt lat="50.47993" lon="3.839">
        <ele>90.26</ele>
        <time>2020-11-08T09:29:29.000Z</time>
      </trkpt>
      <trkpt lat="50.47999" lon="3.83898">
        <ele>91.13</ele>
        <time>2020-11-08T09:29:30.000Z</time>
      </trkpt>
      <trkpt lat="50.48005" lon="3.83896">
        <ele>91.92</ele>
        <time>2020-11-08T09:29:31.000Z</time>
      </trkpt>
      <trkpt lat="50.48011" lon="3.83893">
        <ele>91.82</ele>
        <time>2020-11-08T09:29:32.000Z</time>
      </trkpt>
      <trkpt lat="50.48018" lon="3.83891">
        <ele>92.24</ele>
        <time>2020-11-08T09:29:33.000Z</time>
      </trkpt>
      <trkpt lat="50.48024" lon="3.83889">
        <ele>92.33</ele>
        <time>2020-11-08T09:29:34.000Z</time>
      </trkpt>
      <trkpt lat="50.48031" lon="3.83887">
        <ele>92.34</ele>
        <time>2020-11-08T09:29:35.000Z</time>
      </trkpt>
      <trkpt lat="50.48038" lon="3.83885">
        <ele>92.6</ele>
        <time>2020-11-08T09:29:36.000Z</time>
      </trkpt>
      <trkpt lat="50.48045" lon="3.83882">
        <ele>92.73</ele>
        <time>2020-11-08T09:29:37.000Z</time>
      </trkpt>
      <trkpt lat="50.48052" lon="3.8388">
        <ele>92.51</ele>
        <time>2020-11-08T09:29:38.000Z</time>
      </trkpt>
      <trkpt lat="50.48058" lon="3.83878">
        <ele>92.79</ele>
        <time>2020-11-08T09:29:39.000Z</time>
      </trkpt>
      <trkpt lat="50.48065" lon="3.83875">
        <ele>92.61</ele>
        <time>2020-11-08T09:29:40.000Z</time>
      </trkpt>
      <trkpt lat="50.48072" lon="3.83873">
        <ele>92.56</ele>
        <time>2020-11-08T09:29:41.000Z</time>
      </trkpt>
      <trkpt lat="50.48079" lon="3.83871">
        <ele>92.25</ele>
        <time>2020-11-08T09:29:42.000Z</time>
      </trkpt>
      <trkpt lat="50.48087" lon="3.83869">
        <ele>92.6</ele>
        <time>2020-11-08T09:29:43.000Z</time>
      </trkpt>
      <trkpt lat="50.48094" lon="3.83867">
        <ele>92.51</ele>
        <time>2020-11-08T09:29:44.000Z</time>
      </trkpt>
      <trkpt lat="50.48102" lon="3.83864">
        <ele>92.56</ele>
        <time>2020-11-08T09:29:45.000Z</time>
      </trkpt>
      <trkpt lat="50.48109" lon="3.83862">
        <ele>92.28</ele>
        <time>2020-11-08T09:29:46.000Z</time>
      </trkpt>
      <trkpt lat="50.48117" lon="3.83859">
        <ele>92.57</ele>
        <time>2020-11-08T09:29:47.000Z</time>
      </trkpt>
      <trkpt lat="50.48125" lon="3.83856">
        <ele>92.31</ele>
        <time>2020-11-08T09:29:48.000Z</time>
      </trkpt>
      <trkpt lat="50.48133" lon="3.83854">
        <ele>92.48</ele>
        <time>2020-11-08T09:29:49.000Z</time>
      </trkpt>
      <trkpt lat="50.48141" lon="3.8385">
        <ele>94.18</ele>
        <time>2020-11-08T09:29:50.000Z</time>
      </trkpt>
      <trkpt lat="50.48149" lon="3.83848">
        <ele>94.4</ele>
        <time>2020-11-08T09:29:51.000Z</time>
      </trkpt>
      <trkpt lat="50.48157" lon="3.83845">
        <ele>93.95</ele>
        <time>2020-11-08T09:29:52.000Z</time>
      </trkpt>
      <trkpt lat="50.48165" lon="3.83843">
        <ele>94.07</ele>
        <time>2020-11-08T09:29:53.000Z</time>
      </trkpt>
      <trkpt lat="50.48173" lon="3.83841">
        <ele>93.74</ele>
        <time>2020-11-08T09:29:54.000Z</time>
      </trkpt>
      <trkpt lat="50.48181" lon="3.83838">
        <ele>93.81</ele>
        <time>2020-11-08T09:29:55.000Z</time>
      </trkpt>
      <trkpt lat="50.4819" lon="3.83835">
        <ele>94.42</ele>
        <time>2020-11-08T09:29:56.000Z</time>
      </trkpt>
      <trkpt lat="50.48198" lon="3.83833">
        <ele>94.96</ele>
        <time>2020-11-08T09:29:57.000Z</time>
      </trkpt>
      <trkpt lat="50.48206" lon="3.83831">
        <ele>94.43</ele>
        <time>2020-11-08T09:29:58.000Z</time>
      </trkpt>
      <trkpt lat="50.48214" lon="3.83828">
        <ele>94.96</ele>
        <time>2020-11-08T09:29:59.000Z</time>
      </trkpt>
      <trkpt lat="50.48222" lon="3.83825">
        <ele>94.65</ele>
        <time>2020-11-08T09:30:00.000Z</time>
      </trkpt>
      <trkpt lat="50.48229" lon="3.83823">
        <ele>94.48</ele>
        <time>2020-11-08T09:30:01.000Z</time>
      </trkpt>
      <trkpt lat="50.48237" lon="3.83821">
        <ele>93.41</ele>
        <time>2020-11-08T09:30:02.000Z</time>
      </trkpt>
      <trkpt lat="50.48244" lon="3.83818">
        <ele>93.91</ele>
        <time>2020-11-08T09:30:03.000Z</time>
      </trkpt>
      <trkpt lat="50.48252" lon="3.83816">
        <ele>94.19</ele>
        <time>2020-11-08T09:30:04.000Z</time>
      </trkpt>
      <trkpt lat="50.48259" lon="3.83814">
        <ele>94.29</ele>
        <time>2020-11-08T09:30:05.000Z</time>
      </trkpt>
      <trkpt lat="50.48266" lon="3.83812">
        <ele>94.03</ele>
        <time>2020-11-08T09:30:06.000Z</time>
      </trkpt>
      <trkpt lat="50.48272" lon="3.83811">
        <ele>94.05</ele>
        <time>2020-11-08T09:30:07.000Z</time>
      </trkpt>
      <trkpt lat="50.48277" lon="3.83811">
        <ele>93.96</ele>
        <time>2020-11-08T09:30:08.000Z</time>
      </trkpt>
      <trkpt lat="50.48282" lon="3.83818">
        <ele>94.22</ele>
        <time>2020-11-08T09:30:10.000Z</time>
      </trkpt>
      <trkpt lat="50.4828" lon="3.8383">
        <ele>92.91</ele>
        <time>2020-11-08T09:30:12.000Z</time>
      </trkpt>
      <trkpt lat="50.48276" lon="3.83835">
        <ele>92.6</ele>
        <time>2020-11-08T09:30:13.000Z</time>
      </trkpt>
      <trkpt lat="50.48271" lon="3.8384">
        <ele>92.18</ele>
        <time>2020-11-08T09:30:14.000Z</time>
      </trkpt>
      <trkpt lat="50.48267" lon="3.83845">
        <ele>91.87</ele>
        <time>2020-11-08T09:30:15.000Z</time>
      </trkpt>
      <trkpt lat="50.48262" lon="3.83849">
        <ele>91.75</ele>
        <time>2020-11-08T09:30:16.000Z</time>
      </trkpt>
      <trkpt lat="50.48258" lon="3.83855">
        <ele>91.65</ele>
        <time>2020-11-08T09:30:17.000Z</time>
      </trkpt>
      <trkpt lat="50.48253" lon="3.83859">
        <ele>91.29</ele>
        <time>2020-11-08T09:30:18.000Z</time>
      </trkpt>
      <trkpt lat="50.48249" lon="3.83865">
        <ele>91.12</ele>
        <time>2020-11-08T09:30:19.000Z</time>
      </trkpt>
      <trkpt lat="50.48244" lon="3.8387">
        <ele>91</ele>
        <time>2020-11-08T09:30:20.000Z</time>
      </trkpt>
      <trkpt lat="50.4824" lon="3.83876">
        <ele>90.76</ele>
        <time>2020-11-08T09:30:21.000Z</time>
      </trkpt>
      <trkpt lat="50.48235" lon="3.83881">
        <ele>90.59</ele>
        <time>2020-11-08T09:30:22.000Z</time>
      </trkpt>
      <trkpt lat="50.4823" lon="3.83885">
        <ele>90.36</ele>
        <time>2020-11-08T09:30:23.000Z</time>
      </trkpt>
      <trkpt lat="50.48225" lon="3.8389">
        <ele>90.25</ele>
        <time>2020-11-08T09:30:24.000Z</time>
      </trkpt>
      <trkpt lat="50.4822" lon="3.83896">
        <ele>90.26</ele>
        <time>2020-11-08T09:30:25.000Z</time>
      </trkpt>
      <trkpt lat="50.48215" lon="3.839">
        <ele>90.25</ele>
        <time>2020-11-08T09:30:26.000Z</time>
      </trkpt>
      <trkpt lat="50.48209" lon="3.83905">
        <ele>90.58</ele>
        <time>2020-11-08T09:30:27.000Z</time>
      </trkpt>
      <trkpt lat="50.48204" lon="3.83909">
        <ele>91.06</ele>
        <time>2020-11-08T09:30:28.000Z</time>
      </trkpt>
      <trkpt lat="50.482" lon="3.83914">
        <ele>91.29</ele>
        <time>2020-11-08T09:30:29.000Z</time>
      </trkpt>
      <trkpt lat="50.48191" lon="3.83921">
        <ele>91.25</ele>
        <time>2020-11-08T09:30:31.000Z</time>
      </trkpt>
      <trkpt lat="50.48187" lon="3.83927">
        <ele>92.54</ele>
        <time>2020-11-08T09:30:32.000Z</time>
      </trkpt>
      <trkpt lat="50.48182" lon="3.83932">
        <ele>92.28</ele>
        <time>2020-11-08T09:30:33.000Z</time>
      </trkpt>
      <trkpt lat="50.48178" lon="3.83938">
        <ele>92.38</ele>
        <time>2020-11-08T09:30:34.000Z</time>
      </trkpt>
      <trkpt lat="50.48173" lon="3.83943">
        <ele>92.67</ele>
        <time>2020-11-08T09:30:35.000Z</time>
      </trkpt>
      <trkpt lat="50.48168" lon="3.83948">
        <ele>92.94</ele>
        <time>2020-11-08T09:30:36.000Z</time>
      </trkpt>
      <trkpt lat="50.48163" lon="3.83953">
        <ele>92.99</ele>
        <time>2020-11-08T09:30:37.000Z</time>
      </trkpt>
      <trkpt lat="50.48159" lon="3.83958">
        <ele>93.36</ele>
        <time>2020-11-08T09:30:38.000Z</time>
      </trkpt>
      <trkpt lat="50.48154" lon="3.83963">
        <ele>93.88</ele>
        <time>2020-11-08T09:30:39.000Z</time>
      </trkpt>
      <trkpt lat="50.48149" lon="3.83969">
        <ele>93.54</ele>
        <time>2020-11-08T09:30:40.000Z</time>
      </trkpt>
      <trkpt lat="50.48144" lon="3.83974">
        <ele>93.63</ele>
        <time>2020-11-08T09:30:41.000Z</time>
      </trkpt>
      <trkpt lat="50.4814" lon="3.83979">
        <ele>93.89</ele>
        <time>2020-11-08T09:30:42.000Z</time>
      </trkpt>
      <trkpt lat="50.48135" lon="3.83984">
        <ele>94</ele>
        <time>2020-11-08T09:30:43.000Z</time>
      </trkpt>
      <trkpt lat="50.4813" lon="3.83989">
        <ele>93.7</ele>
        <time>2020-11-08T09:30:44.000Z</time>
      </trkpt>
      <trkpt lat="50.48125" lon="3.83994">
        <ele>93.42</ele>
        <time>2020-11-08T09:30:45.000Z</time>
      </trkpt>
      <trkpt lat="50.4812" lon="3.84">
        <ele>93.86</ele>
        <time>2020-11-08T09:30:46.000Z</time>
      </trkpt>
      <trkpt lat="50.48115" lon="3.84005">
        <ele>93.92</ele>
        <time>2020-11-08T09:30:47.000Z</time>
      </trkpt>
      <trkpt lat="50.4811" lon="3.8401">
        <ele>94.05</ele>
        <time>2020-11-08T09:30:48.000Z</time>
      </trkpt>
      <trkpt lat="50.48104" lon="3.84016">
        <ele>94.38</ele>
        <time>2020-11-08T09:30:49.000Z</time>
      </trkpt>
      <trkpt lat="50.48099" lon="3.84021">
        <ele>94.6</ele>
        <time>2020-11-08T09:30:50.000Z</time>
      </trkpt>
      <trkpt lat="50.48094" lon="3.84026">
        <ele>94.76</ele>
        <time>2020-11-08T09:30:51.000Z</time>
      </trkpt>
      <trkpt lat="50.48088" lon="3.84032">
        <ele>94.82</ele>
        <time>2020-11-08T09:30:52.000Z</time>
      </trkpt>
      <trkpt lat="50.48084" lon="3.84038">
        <ele>94.47</ele>
        <time>2020-11-08T09:30:53.000Z</time>
      </trkpt>
      <trkpt lat="50.48079" lon="3.84043">
        <ele>94.46</ele>
        <time>2020-11-08T09:30:54.000Z</time>
      </trkpt>
      <trkpt lat="50.48074" lon="3.8405">
        <ele>94.5</ele>
        <time>2020-11-08T09:30:55.000Z</time>
      </trkpt>
      <trkpt lat="50.48068" lon="3.84055">
        <ele>94.47</ele>
        <time>2020-11-08T09:30:56.000Z</time>
      </trkpt>
      <trkpt lat="50.48063" lon="3.84061">
        <ele>94.52</ele>
        <time>2020-11-08T09:30:57.000Z</time>
      </trkpt>
      <trkpt lat="50.48058" lon="3.84066">
        <ele>94.64</ele>
        <time>2020-11-08T09:30:58.000Z</time>
      </trkpt>
      <trkpt lat="50.48052" lon="3.84071">
        <ele>94.68</ele>
        <time>2020-11-08T09:30:59.000Z</time>
      </trkpt>
      <trkpt lat="50.48048" lon="3.84076">
        <ele>94.27</ele>
        <time>2020-11-08T09:31:00.000Z</time>
      </trkpt>
      <trkpt lat="50.48043" lon="3.84082">
        <ele>94.41</ele>
        <time>2020-11-08T09:31:01.000Z</time>
      </trkpt>
      <trkpt lat="50.48038" lon="3.84088">
        <ele>94.13</ele>
        <time>2020-11-08T09:31:02.000Z</time>
      </trkpt>
      <trkpt lat="50.48033" lon="3.84093">
        <ele>94.28</ele>
        <time>2020-11-08T09:31:03.000Z</time>
      </trkpt>
      <trkpt lat="50.48028" lon="3.84098">
        <ele>94.35</ele>
        <time>2020-11-08T09:31:04.000Z</time>
      </trkpt>
      <trkpt lat="50.48023" lon="3.84104">
        <ele>93.67</ele>
        <time>2020-11-08T09:31:05.000Z</time>
      </trkpt>
      <trkpt lat="50.48018" lon="3.8411">
        <ele>93.58</ele>
        <time>2020-11-08T09:31:06.000Z</time>
      </trkpt>
      <trkpt lat="50.48013" lon="3.84114">
        <ele>93.36</ele>
        <time>2020-11-08T09:31:07.000Z</time>
      </trkpt>
      <trkpt lat="50.48009" lon="3.84119">
        <ele>93.72</ele>
        <time>2020-11-08T09:31:08.000Z</time>
      </trkpt>
      <trkpt lat="50.48005" lon="3.84122">
        <ele>93.69</ele>
        <time>2020-11-08T09:31:09.000Z</time>
      </trkpt>
      <trkpt lat="50.47998" lon="3.84128">
        <ele>92.95</ele>
        <time>2020-11-08T09:31:11.000Z</time>
      </trkpt>
      <trkpt lat="50.47994" lon="3.84134">
        <ele>93</ele>
        <time>2020-11-08T09:31:13.000Z</time>
      </trkpt>
      <trkpt lat="50.47994" lon="3.84134">
        <ele>93</ele>
        <time>2020-11-08T09:31:13.001Z</time>
      </trkpt>
      <trkpt lat="50.4799" lon="3.84139">
        <ele>92.61</ele>
        <time>2020-11-08T09:32:42.000Z</time>
      </trkpt>
      <trkpt lat="50.47986" lon="3.84145">
        <ele>91.95</ele>
        <time>2020-11-08T09:32:46.000Z</time>
      </trkpt>
      <trkpt lat="50.47991" lon="3.84144">
        <ele>91.27</ele>
        <time>2020-11-08T09:32:49.000Z</time>
      </trkpt>
      <trkpt lat="50.47995" lon="3.84138">
        <ele>91.41</ele>
        <time>2020-11-08T09:32:52.000Z</time>
      </trkpt>
      <trkpt lat="50.47999" lon="3.84134">
        <ele>91.56</ele>
        <time>2020-11-08T09:32:55.000Z</time>
      </trkpt>
      <trkpt lat="50.47999" lon="3.84134">
        <ele>91.56</ele>
        <time>2020-11-08T09:32:55.001Z</time>
      </trkpt>
      <trkpt lat="50.48003" lon="3.84126">
        <ele>91.71</ele>
        <time>2020-11-08T09:33:39.000Z</time>
      </trkpt>
      <trkpt lat="50.48008" lon="3.84121">
        <ele>91.52</ele>
        <time>2020-11-08T09:33:41.000Z</time>
      </trkpt>
      <trkpt lat="50.48014" lon="3.84114">
        <ele>91.26</ele>
        <time>2020-11-08T09:33:43.000Z</time>
      </trkpt>
      <trkpt lat="50.48021" lon="3.84107">
        <ele>92.82</ele>
        <time>2020-11-08T09:33:45.000Z</time>
      </trkpt>
      <trkpt lat="50.48027" lon="3.84099">
        <ele>92.88</ele>
        <time>2020-11-08T09:33:47.000Z</time>
      </trkpt>
      <trkpt lat="50.48034" lon="3.84092">
        <ele>92.8</ele>
        <time>2020-11-08T09:33:49.000Z</time>
      </trkpt>
      <trkpt lat="50.48041" lon="3.84085">
        <ele>92.54</ele>
        <time>2020-11-08T09:33:51.000Z</time>
      </trkpt>
      <trkpt lat="50.48048" lon="3.84077">
        <ele>92.61</ele>
        <time>2020-11-08T09:33:53.000Z</time>
      </trkpt>
      <trkpt lat="50.48055" lon="3.8407">
        <ele>93.07</ele>
        <time>2020-11-08T09:33:55.000Z</time>
      </trkpt>
      <trkpt lat="50.48062" lon="3.84063">
        <ele>93.11</ele>
        <time>2020-11-08T09:33:57.000Z</time>
      </trkpt>
      <trkpt lat="50.48068" lon="3.84056">
        <ele>93.04</ele>
        <time>2020-11-08T09:33:59.000Z</time>
      </trkpt>
      <trkpt lat="50.48075" lon="3.8405">
        <ele>92.79</ele>
        <time>2020-11-08T09:34:01.000Z</time>
      </trkpt>
      <trkpt lat="50.48081" lon="3.84044">
        <ele>92.6</ele>
        <time>2020-11-08T09:34:03.000Z</time>
      </trkpt>
      <trkpt lat="50.48086" lon="3.84038">
        <ele>92.66</ele>
        <time>2020-11-08T09:34:05.000Z</time>
      </trkpt>
      <trkpt lat="50.4809" lon="3.84034">
        <ele>92.33</ele>
        <time>2020-11-08T09:34:07.000Z</time>
      </trkpt>
      <trkpt lat="50.4809" lon="3.84034">
        <ele>92.33</ele>
        <time>2020-11-08T09:34:07.001Z</time>
      </trkpt>
      <trkpt lat="50.48095" lon="3.84033">
        <ele>93.7</ele>
        <time>2020-11-08T09:35:04.000Z</time>
      </trkpt>
      <trkpt lat="50.48099" lon="3.84042">
        <ele>93.68</ele>
        <time>2020-11-08T09:35:07.000Z</time>
      </trkpt>
      <trkpt lat="50.48101" lon="3.8405">
        <ele>94.07</ele>
        <time>2020-11-08T09:35:09.000Z</time>
      </trkpt>
      <trkpt lat="50.48104" lon="3.8406">
        <ele>93.68</ele>
        <time>2020-11-08T09:35:11.000Z</time>
      </trkpt>
      <trkpt lat="50.48105" lon="3.84069">
        <ele>93.7</ele>
        <time>2020-11-08T09:35:13.000Z</time>
      </trkpt>
      <trkpt lat="50.48108" lon="3.84078">
        <ele>93.16</ele>
        <time>2020-11-08T09:35:15.000Z</time>
      </trkpt>
      <trkpt lat="50.4811" lon="3.84089">
        <ele>93.44</ele>
        <time>2020-11-08T09:35:17.000Z</time>
      </trkpt>
      <trkpt lat="50.48112" lon="3.84101">
        <ele>93.38</ele>
        <time>2020-11-08T09:35:19.000Z</time>
      </trkpt>
      <trkpt lat="50.48114" lon="3.84112">
        <ele>93.83</ele>
        <time>2020-11-08T09:35:21.000Z</time>
      </trkpt>
      <trkpt lat="50.48117" lon="3.84124">
        <ele>93.68</ele>
        <time>2020-11-08T09:35:23.000Z</time>
      </trkpt>
      <trkpt lat="50.48118" lon="3.84132">
        <ele>93.62</ele>
        <time>2020-11-08T09:35:24.000Z</time>
      </trkpt>
      <trkpt lat="50.48122" lon="3.84145">
        <ele>93.31</ele>
        <time>2020-11-08T09:35:26.000Z</time>
      </trkpt>
      <trkpt lat="50.48125" lon="3.84156">
        <ele>93.25</ele>
        <time>2020-11-08T09:35:28.000Z</time>
      </trkpt>
      <trkpt lat="50.48126" lon="3.84163">
        <ele>93.97</ele>
        <time>2020-11-08T09:35:29.000Z</time>
      </trkpt>
      <trkpt lat="50.48129" lon="3.8417">
        <ele>93.99</ele>
        <time>2020-11-08T09:35:30.000Z</time>
      </trkpt>
      <trkpt lat="50.4813" lon="3.84177">
        <ele>94.36</ele>
        <time>2020-11-08T09:35:31.000Z</time>
      </trkpt>
      <trkpt lat="50.48133" lon="3.84185">
        <ele>94.83</ele>
        <time>2020-11-08T09:35:32.000Z</time>
      </trkpt>
      <trkpt lat="50.48136" lon="3.84192">
        <ele>94.42</ele>
        <time>2020-11-08T09:35:33.000Z</time>
      </trkpt>
      <trkpt lat="50.48136" lon="3.84199">
        <ele>93.48</ele>
        <time>2020-11-08T09:35:34.000Z</time>
      </trkpt>
      <trkpt lat="50.48139" lon="3.84206">
        <ele>93.62</ele>
        <time>2020-11-08T09:35:35.000Z</time>
      </trkpt>
      <trkpt lat="50.48142" lon="3.84212">
        <ele>93.52</ele>
        <time>2020-11-08T09:35:36.000Z</time>
      </trkpt>
      <trkpt lat="50.48144" lon="3.84219">
        <ele>92.67</ele>
        <time>2020-11-08T09:35:37.000Z</time>
      </trkpt>
      <trkpt lat="50.48148" lon="3.84232">
        <ele>90.99</ele>
        <time>2020-11-08T09:35:39.000Z</time>
      </trkpt>
      <trkpt lat="50.48154" lon="3.84249">
        <ele>90.24</ele>
        <time>2020-11-08T09:35:41.000Z</time>
      </trkpt>
      <trkpt lat="50.48157" lon="3.84257">
        <ele>90.29</ele>
        <time>2020-11-08T09:35:42.000Z</time>
      </trkpt>
      <trkpt lat="50.48161" lon="3.84264">
        <ele>91.34</ele>
        <time>2020-11-08T09:35:43.000Z</time>
      </trkpt>
      <trkpt lat="50.48162" lon="3.84271">
        <ele>91.98</ele>
        <time>2020-11-08T09:35:44.000Z</time>
      </trkpt>
      <trkpt lat="50.48163" lon="3.8428">
        <ele>91.77</ele>
        <time>2020-11-08T09:35:45.000Z</time>
      </trkpt>
      <trkpt lat="50.48164" lon="3.84291">
        <ele>93.06</ele>
        <time>2020-11-08T09:35:47.000Z</time>
      </trkpt>
      <trkpt lat="50.48165" lon="3.84301">
        <ele>91.62</ele>
        <time>2020-11-08T09:35:50.000Z</time>
      </trkpt>
      <trkpt lat="50.48161" lon="3.8431">
        <ele>92.13</ele>
        <time>2020-11-08T09:35:53.000Z</time>
      </trkpt>
      <trkpt lat="50.48159" lon="3.84317">
        <ele>91.67</ele>
        <time>2020-11-08T09:35:55.000Z</time>
      </trkpt>
      <trkpt lat="50.48159" lon="3.84317">
        <ele>91.67</ele>
        <time>2020-11-08T09:35:55.001Z</time>
      </trkpt>
      <trkpt lat="50.48155" lon="3.84313">
        <ele>93.37</ele>
        <time>2020-11-08T09:36:12.000Z</time>
      </trkpt>
      <trkpt lat="50.48158" lon="3.84307">
        <ele>94.06</ele>
        <time>2020-11-08T09:36:17.000Z</time>
      </trkpt>
      <trkpt lat="50.48162" lon="3.84302">
        <ele>95.51</ele>
        <time>2020-11-08T09:36:21.000Z</time>
      </trkpt>
      <trkpt lat="50.48162" lon="3.84302">
        <ele>95.51</ele>
        <time>2020-11-08T09:36:21.001Z</time>
      </trkpt>
      <trkpt lat="50.48161" lon="3.84295">
        <ele>95.69</ele>
        <time>2020-11-08T09:36:41.000Z</time>
      </trkpt>
      <trkpt lat="50.48163" lon="3.84288">
        <ele>96.47</ele>
        <time>2020-11-08T09:36:43.000Z</time>
      </trkpt>
      <trkpt lat="50.48162" lon="3.84278">
        <ele>96.71</ele>
        <time>2020-11-08T09:36:45.000Z</time>
      </trkpt>
      <trkpt lat="50.48162" lon="3.84266">
        <ele>98.01</ele>
        <time>2020-11-08T09:36:47.000Z</time>
      </trkpt>
      <trkpt lat="50.48158" lon="3.84257">
        <ele>96.67</ele>
        <time>2020-11-08T09:36:49.000Z</time>
      </trkpt>
      <trkpt lat="50.48153" lon="3.84245">
        <ele>97</ele>
        <time>2020-11-08T09:36:51.000Z</time>
      </trkpt>
      <trkpt lat="50.48148" lon="3.84235">
        <ele>96.28</ele>
        <time>2020-11-08T09:36:53.000Z</time>
      </trkpt>
      <trkpt lat="50.48143" lon="3.84225">
        <ele>97.79</ele>
        <time>2020-11-08T09:36:55.000Z</time>
      </trkpt>
      <trkpt lat="50.4814" lon="3.84213">
        <ele>98.24</ele>
        <time>2020-11-08T09:36:57.000Z</time>
      </trkpt>
      <trkpt lat="50.48137" lon="3.84203">
        <ele>95.78</ele>
        <time>2020-11-08T09:36:59.000Z</time>
      </trkpt>
      <trkpt lat="50.48134" lon="3.8419">
        <ele>94.76</ele>
        <time>2020-11-08T09:37:01.000Z</time>
      </trkpt>
      <trkpt lat="50.48131" lon="3.84179">
        <ele>93.82</ele>
        <time>2020-11-08T09:37:03.000Z</time>
      </trkpt>
      <trkpt lat="50.48128" lon="3.84167">
        <ele>93.87</ele>
        <time>2020-11-08T09:37:05.000Z</time>
      </trkpt>
      <trkpt lat="50.48124" lon="3.84156">
        <ele>93.41</ele>
        <time>2020-11-08T09:37:07.000Z</time>
      </trkpt>
      <trkpt lat="50.48121" lon="3.84143">
        <ele>92.65</ele>
        <time>2020-11-08T09:37:09.000Z</time>
      </trkpt>
      <trkpt lat="50.48119" lon="3.84135">
        <ele>92.77</ele>
        <time>2020-11-08T09:37:10.000Z</time>
      </trkpt>
      <trkpt lat="50.48118" lon="3.84128">
        <ele>92.7</ele>
        <time>2020-11-08T09:37:11.000Z</time>
      </trkpt>
      <trkpt lat="50.48116" lon="3.8412">
        <ele>92.37</ele>
        <time>2020-11-08T09:37:12.000Z</time>
      </trkpt>
      <trkpt lat="50.48114" lon="3.84113">
        <ele>92.9</ele>
        <time>2020-11-08T09:37:13.000Z</time>
      </trkpt>
      <trkpt lat="50.48112" lon="3.84106">
        <ele>92.83</ele>
        <time>2020-11-08T09:37:14.000Z</time>
      </trkpt>
      <trkpt lat="50.48111" lon="3.84098">
        <ele>92.86</ele>
        <time>2020-11-08T09:37:15.000Z</time>
      </trkpt>
      <trkpt lat="50.4811" lon="3.8409">
        <ele>92.55</ele>
        <time>2020-11-08T09:37:16.000Z</time>
      </trkpt>
      <trkpt lat="50.48108" lon="3.84083">
        <ele>92.6</ele>
        <time>2020-11-08T09:37:17.000Z</time>
      </trkpt>
      <trkpt lat="50.48107" lon="3.84075">
        <ele>91.66</ele>
        <time>2020-11-08T09:37:18.000Z</time>
      </trkpt>
      <trkpt lat="50.48105" lon="3.84067">
        <ele>91.4</ele>
        <time>2020-11-08T09:37:19.000Z</time>
      </trkpt>
      <trkpt lat="50.48103" lon="3.8406">
        <ele>91.27</ele>
        <time>2020-11-08T09:37:20.000Z</time>
      </trkpt>
      <trkpt lat="50.48102" lon="3.84053">
        <ele>91.57</ele>
        <time>2020-11-08T09:37:21.000Z</time>
      </trkpt>
      <trkpt lat="50.481" lon="3.84046">
        <ele>91.27</ele>
        <time>2020-11-08T09:37:22.000Z</time>
      </trkpt>
      <trkpt lat="50.48097" lon="3.84034">
        <ele>90.81</ele>
        <time>2020-11-08T09:37:24.000Z</time>
      </trkpt>
      <trkpt lat="50.48101" lon="3.84023">
        <ele>90.91</ele>
        <time>2020-11-08T09:37:26.000Z</time>
      </trkpt>
      <trkpt lat="50.48105" lon="3.84019">
        <ele>90.99</ele>
        <time>2020-11-08T09:37:27.000Z</time>
      </trkpt>
      <trkpt lat="50.4811" lon="3.84015">
        <ele>90.88</ele>
        <time>2020-11-08T09:37:28.000Z</time>
      </trkpt>
      <trkpt lat="50.48114" lon="3.84012">
        <ele>90.74</ele>
        <time>2020-11-08T09:37:29.000Z</time>
      </trkpt>
      <trkpt lat="50.48119" lon="3.84009">
        <ele>90.91</ele>
        <time>2020-11-08T09:37:30.000Z</time>
      </trkpt>
      <trkpt lat="50.48125" lon="3.84008">
        <ele>91.16</ele>
        <time>2020-11-08T09:37:31.000Z</time>
      </trkpt>
      <trkpt lat="50.4813" lon="3.84007">
        <ele>91.21</ele>
        <time>2020-11-08T09:37:32.000Z</time>
      </trkpt>
      <trkpt lat="50.48136" lon="3.84006">
        <ele>92.37</ele>
        <time>2020-11-08T09:37:33.000Z</time>
      </trkpt>
      <trkpt lat="50.4814" lon="3.84005">
        <ele>92.09</ele>
        <time>2020-11-08T09:37:34.000Z</time>
      </trkpt>
      <trkpt lat="50.48145" lon="3.84003">
        <ele>92.04</ele>
        <time>2020-11-08T09:37:35.000Z</time>
      </trkpt>
      <trkpt lat="50.4815" lon="3.84001">
        <ele>92.2</ele>
        <time>2020-11-08T09:37:36.000Z</time>
      </trkpt>
      <trkpt lat="50.48156" lon="3.83998">
        <ele>91.88</ele>
        <time>2020-11-08T09:37:37.000Z</time>
      </trkpt>
      <trkpt lat="50.48161" lon="3.83995">
        <ele>91.79</ele>
        <time>2020-11-08T09:37:38.000Z</time>
      </trkpt>
      <trkpt lat="50.48167" lon="3.83992">
        <ele>92</ele>
        <time>2020-11-08T09:37:39.000Z</time>
      </trkpt>
      <trkpt lat="50.48173" lon="3.83988">
        <ele>91.32</ele>
        <time>2020-11-08T09:37:40.000Z</time>
      </trkpt>
      <trkpt lat="50.48179" lon="3.83983">
        <ele>91.21</ele>
        <time>2020-11-08T09:37:41.000Z</time>
      </trkpt>
      <trkpt lat="50.48185" lon="3.83978">
        <ele>91.67</ele>
        <time>2020-11-08T09:37:42.000Z</time>
      </trkpt>
      <trkpt lat="50.48191" lon="3.83972">
        <ele>91.08</ele>
        <time>2020-11-08T09:37:43.000Z</time>
      </trkpt>
      <trkpt lat="50.48197" lon="3.83967">
        <ele>90.66</ele>
        <time>2020-11-08T09:37:44.000Z</time>
      </trkpt>
      <trkpt lat="50.48203" lon="3.83962">
        <ele>90.8</ele>
        <time>2020-11-08T09:37:45.000Z</time>
      </trkpt>
      <trkpt lat="50.4821" lon="3.83959">
        <ele>90</ele>
        <time>2020-11-08T09:37:46.000Z</time>
      </trkpt>
      <trkpt lat="50.48217" lon="3.83954">
        <ele>89.99</ele>
        <time>2020-11-08T09:37:47.000Z</time>
      </trkpt>
      <trkpt lat="50.48223" lon="3.83951">
        <ele>89.38</ele>
        <time>2020-11-08T09:37:48.000Z</time>
      </trkpt>
      <trkpt lat="50.4823" lon="3.83949">
        <ele>89.82</ele>
        <time>2020-11-08T09:37:49.000Z</time>
      </trkpt>
      <trkpt lat="50.48236" lon="3.83948">
        <ele>89.47</ele>
        <time>2020-11-08T09:37:50.000Z</time>
      </trkpt>
      <trkpt lat="50.48242" lon="3.83947">
        <ele>88.61</ele>
        <time>2020-11-08T09:37:51.000Z</time>
      </trkpt>
      <trkpt lat="50.48247" lon="3.83946">
        <ele>88.54</ele>
        <time>2020-11-08T09:37:52.000Z</time>
      </trkpt>
      <trkpt lat="50.48251" lon="3.83946">
        <ele>89.74</ele>
        <time>2020-11-08T09:37:53.000Z</time>
      </trkpt>
      <trkpt lat="50.48259" lon="3.83946">
        <ele>89.98</ele>
        <time>2020-11-08T09:37:55.000Z</time>
      </trkpt>
      <trkpt lat="50.48268" lon="3.83946">
        <ele>90.66</ele>
        <time>2020-11-08T09:37:57.000Z</time>
      </trkpt>
      <trkpt lat="50.48273" lon="3.83947">
        <ele>90.21</ele>
        <time>2020-11-08T09:37:58.000Z</time>
      </trkpt>
      <trkpt lat="50.48278" lon="3.83947">
        <ele>90.22</ele>
        <time>2020-11-08T09:37:59.000Z</time>
      </trkpt>
      <trkpt lat="50.48283" lon="3.83947">
        <ele>90.72</ele>
        <time>2020-11-08T09:38:00.000Z</time>
      </trkpt>
      <trkpt lat="50.48289" lon="3.83948">
        <ele>91</ele>
        <time>2020-11-08T09:38:01.000Z</time>
      </trkpt>
      <trkpt lat="50.48294" lon="3.83948">
        <ele>90.86</ele>
        <time>2020-11-08T09:38:02.000Z</time>
      </trkpt>
      <trkpt lat="50.48299" lon="3.83948">
        <ele>91.34</ele>
        <time>2020-11-08T09:38:03.000Z</time>
      </trkpt>
      <trkpt lat="50.48304" lon="3.83949">
        <ele>91.55</ele>
        <time>2020-11-08T09:38:04.000Z</time>
      </trkpt>
      <trkpt lat="50.48312" lon="3.8395">
        <ele>91.13</ele>
        <time>2020-11-08T09:38:06.000Z</time>
      </trkpt>
      <trkpt lat="50.48318" lon="3.83952">
        <ele>90</ele>
        <time>2020-11-08T09:38:08.000Z</time>
      </trkpt>
      <trkpt lat="50.4832" lon="3.83964">
        <ele>90.32</ele>
        <time>2020-11-08T09:38:11.000Z</time>
      </trkpt>
      <trkpt lat="50.4832" lon="3.83977">
        <ele>91.68</ele>
        <time>2020-11-08T09:38:13.000Z</time>
      </trkpt>
      <trkpt lat="50.48319" lon="3.83985">
        <ele>91.22</ele>
        <time>2020-11-08T09:38:14.000Z</time>
      </trkpt>
      <trkpt lat="50.48319" lon="3.83993">
        <ele>91.3</ele>
        <time>2020-11-08T09:38:15.000Z</time>
      </trkpt>
      <trkpt lat="50.48319" lon="3.84001">
        <ele>91.15</ele>
        <time>2020-11-08T09:38:16.000Z</time>
      </trkpt>
      <trkpt lat="50.48319" lon="3.84009">
        <ele>91.74</ele>
        <time>2020-11-08T09:38:17.000Z</time>
      </trkpt>
      <trkpt lat="50.48319" lon="3.84025">
        <ele>91.26</ele>
        <time>2020-11-08T09:38:19.000Z</time>
      </trkpt>
      <trkpt lat="50.48318" lon="3.84035">
        <ele>91.08</ele>
        <time>2020-11-08T09:38:20.000Z</time>
      </trkpt>
      <trkpt lat="50.48317" lon="3.84043">
        <ele>91.45</ele>
        <time>2020-11-08T09:38:21.000Z</time>
      </trkpt>
      <trkpt lat="50.48317" lon="3.84052">
        <ele>91.77</ele>
        <time>2020-11-08T09:38:22.000Z</time>
      </trkpt>
      <trkpt lat="50.48317" lon="3.84061">
        <ele>92.15</ele>
        <time>2020-11-08T09:38:23.000Z</time>
      </trkpt>
      <trkpt lat="50.48316" lon="3.8407">
        <ele>92.77</ele>
        <time>2020-11-08T09:38:24.000Z</time>
      </trkpt>
      <trkpt lat="50.48316" lon="3.84079">
        <ele>93.32</ele>
        <time>2020-11-08T09:38:25.000Z</time>
      </trkpt>
      <trkpt lat="50.48315" lon="3.8409">
        <ele>92.58</ele>
        <time>2020-11-08T09:38:26.000Z</time>
      </trkpt>
      <trkpt lat="50.48314" lon="3.84099">
        <ele>92.11</ele>
        <time>2020-11-08T09:38:27.000Z</time>
      </trkpt>
      <trkpt lat="50.48314" lon="3.84109">
        <ele>91.95</ele>
        <time>2020-11-08T09:38:28.000Z</time>
      </trkpt>
      <trkpt lat="50.48313" lon="3.84119">
        <ele>91.55</ele>
        <time>2020-11-08T09:38:29.000Z</time>
      </trkpt>
      <trkpt lat="50.48314" lon="3.84128">
        <ele>92.21</ele>
        <time>2020-11-08T09:38:30.000Z</time>
      </trkpt>
      <trkpt lat="50.48314" lon="3.84138">
        <ele>92.28</ele>
        <time>2020-11-08T09:38:31.000Z</time>
      </trkpt>
      <trkpt lat="50.48313" lon="3.84147">
        <ele>91.78</ele>
        <time>2020-11-08T09:38:32.000Z</time>
      </trkpt>
      <trkpt lat="50.48313" lon="3.84157">
        <ele>92.12</ele>
        <time>2020-11-08T09:38:33.000Z</time>
      </trkpt>
      <trkpt lat="50.48312" lon="3.84167">
        <ele>92.28</ele>
        <time>2020-11-08T09:38:34.000Z</time>
      </trkpt>
      <trkpt lat="50.48312" lon="3.84177">
        <ele>92.36</ele>
        <time>2020-11-08T09:38:35.000Z</time>
      </trkpt>
      <trkpt lat="50.48311" lon="3.84187">
        <ele>92.55</ele>
        <time>2020-11-08T09:38:36.000Z</time>
      </trkpt>
      <trkpt lat="50.48311" lon="3.84197">
        <ele>92.73</ele>
        <time>2020-11-08T09:38:37.000Z</time>
      </trkpt>
      <trkpt lat="50.48311" lon="3.84207">
        <ele>91.78</ele>
        <time>2020-11-08T09:38:38.000Z</time>
      </trkpt>
      <trkpt lat="50.4831" lon="3.84217">
        <ele>92.08</ele>
        <time>2020-11-08T09:38:39.000Z</time>
      </trkpt>
      <trkpt lat="50.4831" lon="3.84226">
        <ele>91.96</ele>
        <time>2020-11-08T09:38:40.000Z</time>
      </trkpt>
      <trkpt lat="50.48309" lon="3.84236">
        <ele>92.03</ele>
        <time>2020-11-08T09:38:41.000Z</time>
      </trkpt>
      <trkpt lat="50.48308" lon="3.84246">
        <ele>91.9</ele>
        <time>2020-11-08T09:38:42.000Z</time>
      </trkpt>
      <trkpt lat="50.48308" lon="3.84255">
        <ele>92.09</ele>
        <time>2020-11-08T09:38:43.000Z</time>
      </trkpt>
      <trkpt lat="50.48307" lon="3.84266">
        <ele>92.36</ele>
        <time>2020-11-08T09:38:44.000Z</time>
      </trkpt>
      <trkpt lat="50.48307" lon="3.84275">
        <ele>92.18</ele>
        <time>2020-11-08T09:38:45.000Z</time>
      </trkpt>
      <trkpt lat="50.48307" lon="3.84285">
        <ele>93.18</ele>
        <time>2020-11-08T09:38:46.000Z</time>
      </trkpt>
      <trkpt lat="50.48306" lon="3.84295">
        <ele>93.55</ele>
        <time>2020-11-08T09:38:47.000Z</time>
      </trkpt>
      <trkpt lat="50.48306" lon="3.84305">
        <ele>93.97</ele>
        <time>2020-11-08T09:38:48.000Z</time>
      </trkpt>
      <trkpt lat="50.48305" lon="3.84315">
        <ele>93.97</ele>
        <time>2020-11-08T09:38:49.000Z</time>
      </trkpt>
      <trkpt lat="50.48305" lon="3.84325">
        <ele>93.77</ele>
        <time>2020-11-08T09:38:50.000Z</time>
      </trkpt>
      <trkpt lat="50.48304" lon="3.84335">
        <ele>94.09</ele>
        <time>2020-11-08T09:38:51.000Z</time>
      </trkpt>
      <trkpt lat="50.48304" lon="3.84345">
        <ele>94.43</ele>
        <time>2020-11-08T09:38:52.000Z</time>
      </trkpt>
      <trkpt lat="50.48303" lon="3.84355">
        <ele>93.98</ele>
        <time>2020-11-08T09:38:53.000Z</time>
      </trkpt>
      <trkpt lat="50.48302" lon="3.84365">
        <ele>94.61</ele>
        <time>2020-11-08T09:38:54.000Z</time>
      </trkpt>
      <trkpt lat="50.48301" lon="3.84375">
        <ele>94.14</ele>
        <time>2020-11-08T09:38:55.000Z</time>
      </trkpt>
      <trkpt lat="50.483" lon="3.84384">
        <ele>94.58</ele>
        <time>2020-11-08T09:38:56.000Z</time>
      </trkpt>
      <trkpt lat="50.483" lon="3.84394">
        <ele>94.15</ele>
        <time>2020-11-08T09:38:57.000Z</time>
      </trkpt>
      <trkpt lat="50.483" lon="3.84404">
        <ele>94.09</ele>
        <time>2020-11-08T09:38:58.000Z</time>
      </trkpt>
      <trkpt lat="50.48299" lon="3.84414">
        <ele>93.75</ele>
        <time>2020-11-08T09:38:59.000Z</time>
      </trkpt>
      <trkpt lat="50.48298" lon="3.84423">
        <ele>93.92</ele>
        <time>2020-11-08T09:39:00.000Z</time>
      </trkpt>
      <trkpt lat="50.48298" lon="3.84433">
        <ele>93.66</ele>
        <time>2020-11-08T09:39:01.000Z</time>
      </trkpt>
      <trkpt lat="50.48297" lon="3.84442">
        <ele>93.41</ele>
        <time>2020-11-08T09:39:02.000Z</time>
      </trkpt>
      <trkpt lat="50.48297" lon="3.84452">
        <ele>92.89</ele>
        <time>2020-11-08T09:39:03.000Z</time>
      </trkpt>
      <trkpt lat="50.48296" lon="3.84462">
        <ele>92.81</ele>
        <time>2020-11-08T09:39:04.000Z</time>
      </trkpt>
      <trkpt lat="50.48295" lon="3.84471">
        <ele>92.91</ele>
        <time>2020-11-08T09:39:05.000Z</time>
      </trkpt>
      <trkpt lat="50.48295" lon="3.84481">
        <ele>92.97</ele>
        <time>2020-11-08T09:39:06.000Z</time>
      </trkpt>
      <trkpt lat="50.48294" lon="3.84491">
        <ele>92.59</ele>
        <time>2020-11-08T09:39:07.000Z</time>
      </trkpt>
      <trkpt lat="50.48294" lon="3.84501">
        <ele>92.23</ele>
        <time>2020-11-08T09:39:08.000Z</time>
      </trkpt>
      <trkpt lat="50.48294" lon="3.84511">
        <ele>92.11</ele>
        <time>2020-11-08T09:39:09.000Z</time>
      </trkpt>
      <trkpt lat="50.48293" lon="3.8452">
        <ele>91.85</ele>
        <time>2020-11-08T09:39:10.000Z</time>
      </trkpt>
      <trkpt lat="50.48293" lon="3.8453">
        <ele>92.01</ele>
        <time>2020-11-08T09:39:11.000Z</time>
      </trkpt>
      <trkpt lat="50.48292" lon="3.8454">
        <ele>91.98</ele>
        <time>2020-11-08T09:39:12.000Z</time>
      </trkpt>
      <trkpt lat="50.48292" lon="3.8455">
        <ele>91.71</ele>
        <time>2020-11-08T09:39:13.000Z</time>
      </trkpt>
      <trkpt lat="50.48291" lon="3.8456">
        <ele>91.67</ele>
        <time>2020-11-08T09:39:14.000Z</time>
      </trkpt>
      <trkpt lat="50.48291" lon="3.84571">
        <ele>91.17</ele>
        <time>2020-11-08T09:39:15.000Z</time>
      </trkpt>
      <trkpt lat="50.4829" lon="3.84582">
        <ele>91</ele>
        <time>2020-11-08T09:39:16.000Z</time>
      </trkpt>
      <trkpt lat="50.4829" lon="3.84593">
        <ele>90.91</ele>
        <time>2020-11-08T09:39:17.000Z</time>
      </trkpt>
      <trkpt lat="50.48289" lon="3.84603">
        <ele>90.98</ele>
        <time>2020-11-08T09:39:18.000Z</time>
      </trkpt>
      <trkpt lat="50.48289" lon="3.84614">
        <ele>90.8</ele>
        <time>2020-11-08T09:39:19.000Z</time>
      </trkpt>
      <trkpt lat="50.48288" lon="3.84625">
        <ele>90.91</ele>
        <time>2020-11-08T09:39:20.000Z</time>
      </trkpt>
      <trkpt lat="50.48288" lon="3.84636">
        <ele>90.31</ele>
        <time>2020-11-08T09:39:21.000Z</time>
      </trkpt>
      <trkpt lat="50.48287" lon="3.84648">
        <ele>90.5</ele>
        <time>2020-11-08T09:39:22.000Z</time>
      </trkpt>
      <trkpt lat="50.48286" lon="3.84659">
        <ele>90.45</ele>
        <time>2020-11-08T09:39:23.000Z</time>
      </trkpt>
      <trkpt lat="50.48285" lon="3.84671">
        <ele>90.19</ele>
        <time>2020-11-08T09:39:24.000Z</time>
      </trkpt>
      <trkpt lat="50.48284" lon="3.84683">
        <ele>89.87</ele>
        <time>2020-11-08T09:39:25.000Z</time>
      </trkpt>
      <trkpt lat="50.48283" lon="3.84694">
        <ele>89.62</ele>
        <time>2020-11-08T09:39:26.000Z</time>
      </trkpt>
      <trkpt lat="50.48282" lon="3.84706">
        <ele>89.42</ele>
        <time>2020-11-08T09:39:27.000Z</time>
      </trkpt>
      <trkpt lat="50.48281" lon="3.84718">
        <ele>88.97</ele>
        <time>2020-11-08T09:39:28.000Z</time>
      </trkpt>
      <trkpt lat="50.4828" lon="3.8473">
        <ele>88.59</ele>
        <time>2020-11-08T09:39:29.000Z</time>
      </trkpt>
      <trkpt lat="50.48279" lon="3.84741">
        <ele>88.47</ele>
        <time>2020-11-08T09:39:30.000Z</time>
      </trkpt>
      <trkpt lat="50.48278" lon="3.84753">
        <ele>88.07</ele>
        <time>2020-11-08T09:39:31.000Z</time>
      </trkpt>
      <trkpt lat="50.48278" lon="3.84763">
        <ele>87.85</ele>
        <time>2020-11-08T09:39:32.000Z</time>
      </trkpt>
      <trkpt lat="50.48277" lon="3.84771">
        <ele>87.6</ele>
        <time>2020-11-08T09:39:33.000Z</time>
      </trkpt>
      <trkpt lat="50.48277" lon="3.8478">
        <ele>87.31</ele>
        <time>2020-11-08T09:39:34.000Z</time>
      </trkpt>
      <trkpt lat="50.48277" lon="3.84787">
        <ele>87.17</ele>
        <time>2020-11-08T09:39:35.000Z</time>
      </trkpt>
      <trkpt lat="50.4827" lon="3.84793">
        <ele>87.67</ele>
        <time>2020-11-08T09:39:37.000Z</time>
      </trkpt>
      <trkpt lat="50.48262" lon="3.84793">
        <ele>87.02</ele>
        <time>2020-11-08T09:39:39.000Z</time>
      </trkpt>
      <trkpt lat="50.48256" lon="3.84792">
        <ele>86.76</ele>
        <time>2020-11-08T09:39:40.000Z</time>
      </trkpt>
      <trkpt lat="50.4825" lon="3.84791">
        <ele>86.79</ele>
        <time>2020-11-08T09:39:41.000Z</time>
      </trkpt>
      <trkpt lat="50.48244" lon="3.8479">
        <ele>86.79</ele>
        <time>2020-11-08T09:39:42.000Z</time>
      </trkpt>
      <trkpt lat="50.48238" lon="3.8479">
        <ele>86.6</ele>
        <time>2020-11-08T09:39:43.000Z</time>
      </trkpt>
      <trkpt lat="50.48232" lon="3.84789">
        <ele>87.02</ele>
        <time>2020-11-08T09:39:44.000Z</time>
      </trkpt>
      <trkpt lat="50.48226" lon="3.84789">
        <ele>87.19</ele>
        <time>2020-11-08T09:39:45.000Z</time>
      </trkpt>
      <trkpt lat="50.48221" lon="3.84789">
        <ele>86.9</ele>
        <time>2020-11-08T09:39:46.000Z</time>
      </trkpt>
      <trkpt lat="50.48215" lon="3.84789">
        <ele>86.69</ele>
        <time>2020-11-08T09:39:47.000Z</time>
      </trkpt>
      <trkpt lat="50.4821" lon="3.84787">
        <ele>86.2</ele>
        <time>2020-11-08T09:39:48.000Z</time>
      </trkpt>
      <trkpt lat="50.48204" lon="3.84786">
        <ele>86.07</ele>
        <time>2020-11-08T09:39:49.000Z</time>
      </trkpt>
      <trkpt lat="50.48199" lon="3.84785">
        <ele>85.84</ele>
        <time>2020-11-08T09:39:50.000Z</time>
      </trkpt>
      <trkpt lat="50.48194" lon="3.84785">
        <ele>86.62</ele>
        <time>2020-11-08T09:39:51.000Z</time>
      </trkpt>
      <trkpt lat="50.48188" lon="3.84789">
        <ele>85.55</ele>
        <time>2020-11-08T09:39:53.000Z</time>
      </trkpt>
      <trkpt lat="50.48188" lon="3.84799">
        <ele>85.21</ele>
        <time>2020-11-08T09:39:55.000Z</time>
      </trkpt>
      <trkpt lat="50.48189" lon="3.84806">
        <ele>85.49</ele>
        <time>2020-11-08T09:39:56.000Z</time>
      </trkpt>
      <trkpt lat="50.48189" lon="3.84814">
        <ele>85.17</ele>
        <time>2020-11-08T09:39:57.000Z</time>
      </trkpt>
      <trkpt lat="50.4819" lon="3.84824">
        <ele>84.62</ele>
        <time>2020-11-08T09:39:58.000Z</time>
      </trkpt>
      <trkpt lat="50.48192" lon="3.84834">
        <ele>84.06</ele>
        <time>2020-11-08T09:39:59.000Z</time>
      </trkpt>
      <trkpt lat="50.48193" lon="3.84844">
        <ele>83.94</ele>
        <time>2020-11-08T09:40:00.000Z</time>
      </trkpt>
      <trkpt lat="50.48195" lon="3.84855">
        <ele>82.97</ele>
        <time>2020-11-08T09:40:01.000Z</time>
      </trkpt>
      <trkpt lat="50.48197" lon="3.84867">
        <ele>82.92</ele>
        <time>2020-11-08T09:40:02.000Z</time>
      </trkpt>
      <trkpt lat="50.48198" lon="3.84878">
        <ele>82.41</ele>
        <time>2020-11-08T09:40:03.000Z</time>
      </trkpt>
      <trkpt lat="50.482" lon="3.84889">
        <ele>82.3</ele>
        <time>2020-11-08T09:40:04.000Z</time>
      </trkpt>
      <trkpt lat="50.48202" lon="3.849">
        <ele>81.86</ele>
        <time>2020-11-08T09:40:05.000Z</time>
      </trkpt>
      <trkpt lat="50.48205" lon="3.84912">
        <ele>81.43</ele>
        <time>2020-11-08T09:40:06.000Z</time>
      </trkpt>
      <trkpt lat="50.48207" lon="3.84924">
        <ele>81.65</ele>
        <time>2020-11-08T09:40:07.000Z</time>
      </trkpt>
      <trkpt lat="50.48209" lon="3.84935">
        <ele>81.99</ele>
        <time>2020-11-08T09:40:08.000Z</time>
      </trkpt>
      <trkpt lat="50.4821" lon="3.84947">
        <ele>81.82</ele>
        <time>2020-11-08T09:40:09.000Z</time>
      </trkpt>
      <trkpt lat="50.48212" lon="3.84959">
        <ele>81.66</ele>
        <time>2020-11-08T09:40:10.000Z</time>
      </trkpt>
      <trkpt lat="50.48214" lon="3.84971">
        <ele>81.49</ele>
        <time>2020-11-08T09:40:11.000Z</time>
      </trkpt>
      <trkpt lat="50.48216" lon="3.84982">
        <ele>81.93</ele>
        <time>2020-11-08T09:40:12.000Z</time>
      </trkpt>
      <trkpt lat="50.48218" lon="3.84994">
        <ele>81.74</ele>
        <time>2020-11-08T09:40:13.000Z</time>
      </trkpt>
      <trkpt lat="50.48219" lon="3.85005">
        <ele>81.33</ele>
        <time>2020-11-08T09:40:14.000Z</time>
      </trkpt>
      <trkpt lat="50.48221" lon="3.85017">
        <ele>81.63</ele>
        <time>2020-11-08T09:40:15.000Z</time>
      </trkpt>
      <trkpt lat="50.48222" lon="3.85027">
        <ele>81.74</ele>
        <time>2020-11-08T09:40:16.000Z</time>
      </trkpt>
      <trkpt lat="50.48224" lon="3.85038">
        <ele>81.42</ele>
        <time>2020-11-08T09:40:17.000Z</time>
      </trkpt>
      <trkpt lat="50.48225" lon="3.85049">
        <ele>81.62</ele>
        <time>2020-11-08T09:40:18.000Z</time>
      </trkpt>
      <trkpt lat="50.48226" lon="3.8506">
        <ele>81.48</ele>
        <time>2020-11-08T09:40:19.000Z</time>
      </trkpt>
      <trkpt lat="50.48227" lon="3.85071">
        <ele>81.28</ele>
        <time>2020-11-08T09:40:20.000Z</time>
      </trkpt>
      <trkpt lat="50.48229" lon="3.85083">
        <ele>81.38</ele>
        <time>2020-11-08T09:40:21.000Z</time>
      </trkpt>
      <trkpt lat="50.4823" lon="3.85093">
        <ele>80.67</ele>
        <time>2020-11-08T09:40:22.000Z</time>
      </trkpt>
      <trkpt lat="50.48232" lon="3.85104">
        <ele>81.77</ele>
        <time>2020-11-08T09:40:23.000Z</time>
      </trkpt>
      <trkpt lat="50.48233" lon="3.85115">
        <ele>82.28</ele>
        <time>2020-11-08T09:40:24.000Z</time>
      </trkpt>
      <trkpt lat="50.48234" lon="3.85126">
        <ele>82.31</ele>
        <time>2020-11-08T09:40:25.000Z</time>
      </trkpt>
      <trkpt lat="50.48235" lon="3.85137">
        <ele>82.59</ele>
        <time>2020-11-08T09:40:26.000Z</time>
      </trkpt>
      <trkpt lat="50.48236" lon="3.85147">
        <ele>82.26</ele>
        <time>2020-11-08T09:40:27.000Z</time>
      </trkpt>
      <trkpt lat="50.48238" lon="3.85159">
        <ele>81.72</ele>
        <time>2020-11-08T09:40:28.000Z</time>
      </trkpt>
      <trkpt lat="50.4824" lon="3.85169">
        <ele>82.06</ele>
        <time>2020-11-08T09:40:29.000Z</time>
      </trkpt>
      <trkpt lat="50.48241" lon="3.85181">
        <ele>82</ele>
        <time>2020-11-08T09:40:30.000Z</time>
      </trkpt>
      <trkpt lat="50.48242" lon="3.85191">
        <ele>82.09</ele>
        <time>2020-11-08T09:40:31.000Z</time>
      </trkpt>
      <trkpt lat="50.48243" lon="3.852">
        <ele>81.95</ele>
        <time>2020-11-08T09:40:32.000Z</time>
      </trkpt>
      <trkpt lat="50.48244" lon="3.8521">
        <ele>81.76</ele>
        <time>2020-11-08T09:40:33.000Z</time>
      </trkpt>
      <trkpt lat="50.48245" lon="3.85219">
        <ele>81.99</ele>
        <time>2020-11-08T09:40:34.000Z</time>
      </trkpt>
      <trkpt lat="50.48247" lon="3.85227">
        <ele>82.13</ele>
        <time>2020-11-08T09:40:35.000Z</time>
      </trkpt>
      <trkpt lat="50.48249" lon="3.85235">
        <ele>81.91</ele>
        <time>2020-11-08T09:40:36.000Z</time>
      </trkpt>
      <trkpt lat="50.48252" lon="3.85242">
        <ele>82.05</ele>
        <time>2020-11-08T09:40:37.000Z</time>
      </trkpt>
      <trkpt lat="50.48253" lon="3.8525">
        <ele>82.4</ele>
        <time>2020-11-08T09:40:38.000Z</time>
      </trkpt>
      <trkpt lat="50.48253" lon="3.85259">
        <ele>82.96</ele>
        <time>2020-11-08T09:40:39.000Z</time>
      </trkpt>
      <trkpt lat="50.48253" lon="3.85268">
        <ele>84.95</ele>
        <time>2020-11-08T09:40:40.000Z</time>
      </trkpt>
      <trkpt lat="50.48253" lon="3.85277">
        <ele>84.3</ele>
        <time>2020-11-08T09:40:41.000Z</time>
      </trkpt>
      <trkpt lat="50.48252" lon="3.85286">
        <ele>84.29</ele>
        <time>2020-11-08T09:40:42.000Z</time>
      </trkpt>
      <trkpt lat="50.48253" lon="3.85294">
        <ele>84.76</ele>
        <time>2020-11-08T09:40:43.000Z</time>
      </trkpt>
      <trkpt lat="50.48252" lon="3.85303">
        <ele>84.7</ele>
        <time>2020-11-08T09:40:44.000Z</time>
      </trkpt>
      <trkpt lat="50.48252" lon="3.85312">
        <ele>84.44</ele>
        <time>2020-11-08T09:40:45.000Z</time>
      </trkpt>
      <trkpt lat="50.48252" lon="3.85321">
        <ele>85.02</ele>
        <time>2020-11-08T09:40:46.000Z</time>
      </trkpt>
      <trkpt lat="50.48252" lon="3.85329">
        <ele>84.91</ele>
        <time>2020-11-08T09:40:47.000Z</time>
      </trkpt>
      <trkpt lat="50.48252" lon="3.85338">
        <ele>84.91</ele>
        <time>2020-11-08T09:40:48.000Z</time>
      </trkpt>
      <trkpt lat="50.48252" lon="3.85346">
        <ele>85.31</ele>
        <time>2020-11-08T09:40:49.000Z</time>
      </trkpt>
      <trkpt lat="50.48251" lon="3.85355">
        <ele>85.37</ele>
        <time>2020-11-08T09:40:50.000Z</time>
      </trkpt>
      <trkpt lat="50.48251" lon="3.85364">
        <ele>85.66</ele>
        <time>2020-11-08T09:40:51.000Z</time>
      </trkpt>
      <trkpt lat="50.4825" lon="3.85373">
        <ele>85.77</ele>
        <time>2020-11-08T09:40:52.000Z</time>
      </trkpt>
      <trkpt lat="50.4825" lon="3.85382">
        <ele>85.84</ele>
        <time>2020-11-08T09:40:53.000Z</time>
      </trkpt>
      <trkpt lat="50.48249" lon="3.85391">
        <ele>85.9</ele>
        <time>2020-11-08T09:40:54.000Z</time>
      </trkpt>
      <trkpt lat="50.48249" lon="3.854">
        <ele>85.73</ele>
        <time>2020-11-08T09:40:55.000Z</time>
      </trkpt>
      <trkpt lat="50.48248" lon="3.85409">
        <ele>85.91</ele>
        <time>2020-11-08T09:40:56.000Z</time>
      </trkpt>
      <trkpt lat="50.48247" lon="3.85418">
        <ele>85.85</ele>
        <time>2020-11-08T09:40:57.000Z</time>
      </trkpt>
      <trkpt lat="50.48247" lon="3.85426">
        <ele>85.85</ele>
        <time>2020-11-08T09:40:58.000Z</time>
      </trkpt>
      <trkpt lat="50.48247" lon="3.85435">
        <ele>86.31</ele>
        <time>2020-11-08T09:40:59.000Z</time>
      </trkpt>
      <trkpt lat="50.48247" lon="3.85445">
        <ele>86.14</ele>
        <time>2020-11-08T09:41:00.000Z</time>
      </trkpt>
      <trkpt lat="50.48247" lon="3.85454">
        <ele>86.58</ele>
        <time>2020-11-08T09:41:01.000Z</time>
      </trkpt>
      <trkpt lat="50.48246" lon="3.85464">
        <ele>86.59</ele>
        <time>2020-11-08T09:41:02.000Z</time>
      </trkpt>
      <trkpt lat="50.48246" lon="3.85473">
        <ele>86.71</ele>
        <time>2020-11-08T09:41:03.000Z</time>
      </trkpt>
      <trkpt lat="50.48246" lon="3.85481">
        <ele>86.52</ele>
        <time>2020-11-08T09:41:04.000Z</time>
      </trkpt>
      <trkpt lat="50.48245" lon="3.8549">
        <ele>87.09</ele>
        <time>2020-11-08T09:41:05.000Z</time>
      </trkpt>
      <trkpt lat="50.48245" lon="3.85499">
        <ele>87.56</ele>
        <time>2020-11-08T09:41:06.000Z</time>
      </trkpt>
      <trkpt lat="50.48245" lon="3.85509">
        <ele>87.74</ele>
        <time>2020-11-08T09:41:07.000Z</time>
      </trkpt>
      <trkpt lat="50.48244" lon="3.85518">
        <ele>87.79</ele>
        <time>2020-11-08T09:41:08.000Z</time>
      </trkpt>
      <trkpt lat="50.48243" lon="3.85528">
        <ele>88.02</ele>
        <time>2020-11-08T09:41:09.000Z</time>
      </trkpt>
      <trkpt lat="50.48243" lon="3.85537">
        <ele>88.18</ele>
        <time>2020-11-08T09:41:10.000Z</time>
      </trkpt>
      <trkpt lat="50.48243" lon="3.85548">
        <ele>88.19</ele>
        <time>2020-11-08T09:41:11.000Z</time>
      </trkpt>
      <trkpt lat="50.48242" lon="3.85558">
        <ele>87.86</ele>
        <time>2020-11-08T09:41:12.000Z</time>
      </trkpt>
      <trkpt lat="50.48242" lon="3.85568">
        <ele>87.9</ele>
        <time>2020-11-08T09:41:13.000Z</time>
      </trkpt>
      <trkpt lat="50.48243" lon="3.85577">
        <ele>87.93</ele>
        <time>2020-11-08T09:41:14.000Z</time>
      </trkpt>
      <trkpt lat="50.48242" lon="3.85587">
        <ele>87.83</ele>
        <time>2020-11-08T09:41:15.000Z</time>
      </trkpt>
      <trkpt lat="50.48242" lon="3.85596">
        <ele>88.14</ele>
        <time>2020-11-08T09:41:16.000Z</time>
      </trkpt>
      <trkpt lat="50.48242" lon="3.85606">
        <ele>87.67</ele>
        <time>2020-11-08T09:41:17.000Z</time>
      </trkpt>
      <trkpt lat="50.48242" lon="3.85615">
        <ele>88.29</ele>
        <time>2020-11-08T09:41:18.000Z</time>
      </trkpt>
      <trkpt lat="50.48243" lon="3.85624">
        <ele>88.38</ele>
        <time>2020-11-08T09:41:19.000Z</time>
      </trkpt>
      <trkpt lat="50.48243" lon="3.85634">
        <ele>89.04</ele>
        <time>2020-11-08T09:41:20.000Z</time>
      </trkpt>
      <trkpt lat="50.48243" lon="3.85644">
        <ele>89.1</ele>
        <time>2020-11-08T09:41:21.000Z</time>
      </trkpt>
      <trkpt lat="50.48243" lon="3.85654">
        <ele>88.96</ele>
        <time>2020-11-08T09:41:22.000Z</time>
      </trkpt>
      <trkpt lat="50.48244" lon="3.85665">
        <ele>88.55</ele>
        <time>2020-11-08T09:41:23.000Z</time>
      </trkpt>
      <trkpt lat="50.48244" lon="3.85675">
        <ele>88.76</ele>
        <time>2020-11-08T09:41:24.000Z</time>
      </trkpt>
      <trkpt lat="50.48245" lon="3.85685">
        <ele>88.44</ele>
        <time>2020-11-08T09:41:25.000Z</time>
      </trkpt>
      <trkpt lat="50.48245" lon="3.85695">
        <ele>88.56</ele>
        <time>2020-11-08T09:41:26.000Z</time>
      </trkpt>
      <trkpt lat="50.48246" lon="3.85705">
        <ele>88.82</ele>
        <time>2020-11-08T09:41:27.000Z</time>
      </trkpt>
      <trkpt lat="50.48247" lon="3.85714">
        <ele>89.07</ele>
        <time>2020-11-08T09:41:28.000Z</time>
      </trkpt>
      <trkpt lat="50.48248" lon="3.85723">
        <ele>89.29</ele>
        <time>2020-11-08T09:41:29.000Z</time>
      </trkpt>
      <trkpt lat="50.48248" lon="3.85733">
        <ele>89.03</ele>
        <time>2020-11-08T09:41:30.000Z</time>
      </trkpt>
      <trkpt lat="50.48249" lon="3.85742">
        <ele>89.45</ele>
        <time>2020-11-08T09:41:31.000Z</time>
      </trkpt>
      <trkpt lat="50.4825" lon="3.85751">
        <ele>89.37</ele>
        <time>2020-11-08T09:41:32.000Z</time>
      </trkpt>
      <trkpt lat="50.4825" lon="3.8576">
        <ele>89.55</ele>
        <time>2020-11-08T09:41:33.000Z</time>
      </trkpt>
      <trkpt lat="50.4825" lon="3.85769">
        <ele>89.22</ele>
        <time>2020-11-08T09:41:34.000Z</time>
      </trkpt>
      <trkpt lat="50.48251" lon="3.85779">
        <ele>89.45</ele>
        <time>2020-11-08T09:41:35.000Z</time>
      </trkpt>
      <trkpt lat="50.48251" lon="3.85789">
        <ele>89.49</ele>
        <time>2020-11-08T09:41:36.000Z</time>
      </trkpt>
      <trkpt lat="50.48252" lon="3.85798">
        <ele>89.97</ele>
        <time>2020-11-08T09:41:37.000Z</time>
      </trkpt>
      <trkpt lat="50.48253" lon="3.85807">
        <ele>89.98</ele>
        <time>2020-11-08T09:41:38.000Z</time>
      </trkpt>
      <trkpt lat="50.48254" lon="3.85818">
        <ele>90.06</ele>
        <time>2020-11-08T09:41:39.000Z</time>
      </trkpt>
      <trkpt lat="50.48255" lon="3.85827">
        <ele>90.18</ele>
        <time>2020-11-08T09:41:40.000Z</time>
      </trkpt>
      <trkpt lat="50.48256" lon="3.85836">
        <ele>90.62</ele>
        <time>2020-11-08T09:41:41.000Z</time>
      </trkpt>
      <trkpt lat="50.48257" lon="3.85846">
        <ele>90.49</ele>
        <time>2020-11-08T09:41:42.000Z</time>
      </trkpt>
      <trkpt lat="50.48258" lon="3.85856">
        <ele>90.03</ele>
        <time>2020-11-08T09:41:43.000Z</time>
      </trkpt>
      <trkpt lat="50.48259" lon="3.85866">
        <ele>90.34</ele>
        <time>2020-11-08T09:41:44.000Z</time>
      </trkpt>
      <trkpt lat="50.4826" lon="3.85875">
        <ele>90.17</ele>
        <time>2020-11-08T09:41:45.000Z</time>
      </trkpt>
      <trkpt lat="50.4826" lon="3.85884">
        <ele>90.12</ele>
        <time>2020-11-08T09:41:46.000Z</time>
      </trkpt>
      <trkpt lat="50.48262" lon="3.85894">
        <ele>89.98</ele>
        <time>2020-11-08T09:41:47.000Z</time>
      </trkpt>
      <trkpt lat="50.48262" lon="3.85904">
        <ele>90.28</ele>
        <time>2020-11-08T09:41:48.000Z</time>
      </trkpt>
      <trkpt lat="50.48263" lon="3.85914">
        <ele>90.38</ele>
        <time>2020-11-08T09:41:49.000Z</time>
      </trkpt>
      <trkpt lat="50.48264" lon="3.85923">
        <ele>90.49</ele>
        <time>2020-11-08T09:41:50.000Z</time>
      </trkpt>
      <trkpt lat="50.48265" lon="3.85933">
        <ele>90.9</ele>
        <time>2020-11-08T09:41:51.000Z</time>
      </trkpt>
      <trkpt lat="50.48266" lon="3.85943">
        <ele>90.73</ele>
        <time>2020-11-08T09:41:52.000Z</time>
      </trkpt>
      <trkpt lat="50.48267" lon="3.85953">
        <ele>91.22</ele>
        <time>2020-11-08T09:41:53.000Z</time>
      </trkpt>
      <trkpt lat="50.48268" lon="3.85962">
        <ele>90.77</ele>
        <time>2020-11-08T09:41:54.000Z</time>
      </trkpt>
      <trkpt lat="50.48269" lon="3.85972">
        <ele>90.54</ele>
        <time>2020-11-08T09:41:55.000Z</time>
      </trkpt>
      <trkpt lat="50.4827" lon="3.85982">
        <ele>90.33</ele>
        <time>2020-11-08T09:41:56.000Z</time>
      </trkpt>
      <trkpt lat="50.48271" lon="3.85991">
        <ele>90.65</ele>
        <time>2020-11-08T09:41:57.000Z</time>
      </trkpt>
      <trkpt lat="50.48272" lon="3.86001">
        <ele>90.9</ele>
        <time>2020-11-08T09:41:58.000Z</time>
      </trkpt>
      <trkpt lat="50.48273" lon="3.86011">
        <ele>91.42</ele>
        <time>2020-11-08T09:41:59.000Z</time>
      </trkpt>
      <trkpt lat="50.48274" lon="3.8602">
        <ele>91.79</ele>
        <time>2020-11-08T09:42:00.000Z</time>
      </trkpt>
      <trkpt lat="50.48275" lon="3.8603">
        <ele>91.9</ele>
        <time>2020-11-08T09:42:01.000Z</time>
      </trkpt>
      <trkpt lat="50.48276" lon="3.86039">
        <ele>92.42</ele>
        <time>2020-11-08T09:42:02.000Z</time>
      </trkpt>
      <trkpt lat="50.48277" lon="3.86048">
        <ele>92.78</ele>
        <time>2020-11-08T09:42:03.000Z</time>
      </trkpt>
      <trkpt lat="50.48278" lon="3.86058">
        <ele>92.65</ele>
        <time>2020-11-08T09:42:04.000Z</time>
      </trkpt>
      <trkpt lat="50.48278" lon="3.86067">
        <ele>92.76</ele>
        <time>2020-11-08T09:42:05.000Z</time>
      </trkpt>
      <trkpt lat="50.48279" lon="3.86077">
        <ele>93.1</ele>
        <time>2020-11-08T09:42:06.000Z</time>
      </trkpt>
      <trkpt lat="50.4828" lon="3.86086">
        <ele>92.97</ele>
        <time>2020-11-08T09:42:07.000Z</time>
      </trkpt>
      <trkpt lat="50.48281" lon="3.86097">
        <ele>92.56</ele>
        <time>2020-11-08T09:42:08.000Z</time>
      </trkpt>
      <trkpt lat="50.48282" lon="3.86107">
        <ele>92.71</ele>
        <time>2020-11-08T09:42:09.000Z</time>
      </trkpt>
      <trkpt lat="50.48283" lon="3.86118">
        <ele>92.97</ele>
        <time>2020-11-08T09:42:10.000Z</time>
      </trkpt>
      <trkpt lat="50.48284" lon="3.86128">
        <ele>93.07</ele>
        <time>2020-11-08T09:42:11.000Z</time>
      </trkpt>
      <trkpt lat="50.48285" lon="3.86138">
        <ele>92.99</ele>
        <time>2020-11-08T09:42:12.000Z</time>
      </trkpt>
      <trkpt lat="50.48286" lon="3.86148">
        <ele>93.14</ele>
        <time>2020-11-08T09:42:13.000Z</time>
      </trkpt>
      <trkpt lat="50.48287" lon="3.86158">
        <ele>92.96</ele>
        <time>2020-11-08T09:42:14.000Z</time>
      </trkpt>
      <trkpt lat="50.48288" lon="3.86167">
        <ele>92.73</ele>
        <time>2020-11-08T09:42:15.000Z</time>
      </trkpt>
      <trkpt lat="50.48289" lon="3.86177">
        <ele>92.72</ele>
        <time>2020-11-08T09:42:16.000Z</time>
      </trkpt>
      <trkpt lat="50.48291" lon="3.86186">
        <ele>92.75</ele>
        <time>2020-11-08T09:42:17.000Z</time>
      </trkpt>
      <trkpt lat="50.48291" lon="3.86196">
        <ele>92.93</ele>
        <time>2020-11-08T09:42:18.000Z</time>
      </trkpt>
      <trkpt lat="50.48292" lon="3.86206">
        <ele>92.97</ele>
        <time>2020-11-08T09:42:19.000Z</time>
      </trkpt>
      <trkpt lat="50.48294" lon="3.86216">
        <ele>92.72</ele>
        <time>2020-11-08T09:42:20.000Z</time>
      </trkpt>
      <trkpt lat="50.48295" lon="3.86227">
        <ele>92.62</ele>
        <time>2020-11-08T09:42:21.000Z</time>
      </trkpt>
      <trkpt lat="50.48296" lon="3.86238">
        <ele>92.66</ele>
        <time>2020-11-08T09:42:22.000Z</time>
      </trkpt>
      <trkpt lat="50.48297" lon="3.86248">
        <ele>92.49</ele>
        <time>2020-11-08T09:42:23.000Z</time>
      </trkpt>
      <trkpt lat="50.48298" lon="3.86258">
        <ele>92.5</ele>
        <time>2020-11-08T09:42:24.000Z</time>
      </trkpt>
      <trkpt lat="50.48299" lon="3.86269">
        <ele>92.26</ele>
        <time>2020-11-08T09:42:25.000Z</time>
      </trkpt>
      <trkpt lat="50.48299" lon="3.8628">
        <ele>92.11</ele>
        <time>2020-11-08T09:42:26.000Z</time>
      </trkpt>
      <trkpt lat="50.483" lon="3.86289">
        <ele>92.01</ele>
        <time>2020-11-08T09:42:27.000Z</time>
      </trkpt>
      <trkpt lat="50.48301" lon="3.863">
        <ele>91.72</ele>
        <time>2020-11-08T09:42:28.000Z</time>
      </trkpt>
      <trkpt lat="50.48302" lon="3.8631">
        <ele>90.92</ele>
        <time>2020-11-08T09:42:29.000Z</time>
      </trkpt>
      <trkpt lat="50.48303" lon="3.86321">
        <ele>90.19</ele>
        <time>2020-11-08T09:42:30.000Z</time>
      </trkpt>
      <trkpt lat="50.48304" lon="3.8633">
        <ele>90.15</ele>
        <time>2020-11-08T09:42:31.000Z</time>
      </trkpt>
      <trkpt lat="50.48305" lon="3.86341">
        <ele>89.81</ele>
        <time>2020-11-08T09:42:32.000Z</time>
      </trkpt>
      <trkpt lat="50.48306" lon="3.86351">
        <ele>89.66</ele>
        <time>2020-11-08T09:42:33.000Z</time>
      </trkpt>
      <trkpt lat="50.48307" lon="3.86362">
        <ele>89.12</ele>
        <time>2020-11-08T09:42:34.000Z</time>
      </trkpt>
      <trkpt lat="50.48308" lon="3.86373">
        <ele>89.18</ele>
        <time>2020-11-08T09:42:35.000Z</time>
      </trkpt>
      <trkpt lat="50.48308" lon="3.86384">
        <ele>89.44</ele>
        <time>2020-11-08T09:42:36.000Z</time>
      </trkpt>
      <trkpt lat="50.4831" lon="3.86394">
        <ele>89.43</ele>
        <time>2020-11-08T09:42:37.000Z</time>
      </trkpt>
      <trkpt lat="50.4831" lon="3.86405">
        <ele>89.58</ele>
        <time>2020-11-08T09:42:38.000Z</time>
      </trkpt>
      <trkpt lat="50.48312" lon="3.86416">
        <ele>89.47</ele>
        <time>2020-11-08T09:42:39.000Z</time>
      </trkpt>
      <trkpt lat="50.48312" lon="3.86427">
        <ele>89.23</ele>
        <time>2020-11-08T09:42:40.000Z</time>
      </trkpt>
      <trkpt lat="50.48314" lon="3.86438">
        <ele>89.43</ele>
        <time>2020-11-08T09:42:41.000Z</time>
      </trkpt>
      <trkpt lat="50.48315" lon="3.86449">
        <ele>89.13</ele>
        <time>2020-11-08T09:42:42.000Z</time>
      </trkpt>
      <trkpt lat="50.48316" lon="3.8646">
        <ele>89.28</ele>
        <time>2020-11-08T09:42:43.000Z</time>
      </trkpt>
      <trkpt lat="50.48317" lon="3.86471">
        <ele>89.25</ele>
        <time>2020-11-08T09:42:44.000Z</time>
      </trkpt>
      <trkpt lat="50.48317" lon="3.86482">
        <ele>88.84</ele>
        <time>2020-11-08T09:42:45.000Z</time>
      </trkpt>
      <trkpt lat="50.48318" lon="3.86493">
        <ele>89.03</ele>
        <time>2020-11-08T09:42:46.000Z</time>
      </trkpt>
      <trkpt lat="50.4832" lon="3.86503">
        <ele>89.06</ele>
        <time>2020-11-08T09:42:47.000Z</time>
      </trkpt>
      <trkpt lat="50.48321" lon="3.86514">
        <ele>89.04</ele>
        <time>2020-11-08T09:42:48.000Z</time>
      </trkpt>
      <trkpt lat="50.48322" lon="3.86525">
        <ele>88.92</ele>
        <time>2020-11-08T09:42:49.000Z</time>
      </trkpt>
      <trkpt lat="50.48323" lon="3.86536">
        <ele>88.97</ele>
        <time>2020-11-08T09:42:50.000Z</time>
      </trkpt>
      <trkpt lat="50.48324" lon="3.86546">
        <ele>88.65</ele>
        <time>2020-11-08T09:42:51.000Z</time>
      </trkpt>
      <trkpt lat="50.48325" lon="3.86557">
        <ele>88.72</ele>
        <time>2020-11-08T09:42:52.000Z</time>
      </trkpt>
      <trkpt lat="50.48326" lon="3.86567">
        <ele>88.41</ele>
        <time>2020-11-08T09:42:53.000Z</time>
      </trkpt>
      <trkpt lat="50.48327" lon="3.86578">
        <ele>88.69</ele>
        <time>2020-11-08T09:42:54.000Z</time>
      </trkpt>
      <trkpt lat="50.48328" lon="3.86587">
        <ele>88.86</ele>
        <time>2020-11-08T09:42:55.000Z</time>
      </trkpt>
      <trkpt lat="50.48329" lon="3.86597">
        <ele>88.84</ele>
        <time>2020-11-08T09:42:56.000Z</time>
      </trkpt>
      <trkpt lat="50.4833" lon="3.86608">
        <ele>88.3</ele>
        <time>2020-11-08T09:42:57.000Z</time>
      </trkpt>
      <trkpt lat="50.48331" lon="3.86619">
        <ele>88.07</ele>
        <time>2020-11-08T09:42:58.000Z</time>
      </trkpt>
      <trkpt lat="50.48331" lon="3.86629">
        <ele>87.85</ele>
        <time>2020-11-08T09:42:59.000Z</time>
      </trkpt>
      <trkpt lat="50.48333" lon="3.86639">
        <ele>88.05</ele>
        <time>2020-11-08T09:43:00.000Z</time>
      </trkpt>
      <trkpt lat="50.48335" lon="3.8665">
        <ele>88.78</ele>
        <time>2020-11-08T09:43:01.000Z</time>
      </trkpt>
      <trkpt lat="50.48336" lon="3.86661">
        <ele>87.92</ele>
        <time>2020-11-08T09:43:02.000Z</time>
      </trkpt>
      <trkpt lat="50.48338" lon="3.86672">
        <ele>87.6</ele>
        <time>2020-11-08T09:43:03.000Z</time>
      </trkpt>
      <trkpt lat="50.48339" lon="3.86682">
        <ele>87.37</ele>
        <time>2020-11-08T09:43:04.000Z</time>
      </trkpt>
      <trkpt lat="50.48341" lon="3.86693">
        <ele>87.83</ele>
        <time>2020-11-08T09:43:05.000Z</time>
      </trkpt>
      <trkpt lat="50.48343" lon="3.86704">
        <ele>86.97</ele>
        <time>2020-11-08T09:43:06.000Z</time>
      </trkpt>
      <trkpt lat="50.48345" lon="3.86715">
        <ele>86.72</ele>
        <time>2020-11-08T09:43:07.000Z</time>
      </trkpt>
      <trkpt lat="50.48347" lon="3.86726">
        <ele>86.02</ele>
        <time>2020-11-08T09:43:08.000Z</time>
      </trkpt>
      <trkpt lat="50.48348" lon="3.86737">
        <ele>85.52</ele>
        <time>2020-11-08T09:43:09.000Z</time>
      </trkpt>
      <trkpt lat="50.4835" lon="3.86748">
        <ele>84.77</ele>
        <time>2020-11-08T09:43:10.000Z</time>
      </trkpt>
      <trkpt lat="50.48352" lon="3.86759">
        <ele>84.31</ele>
        <time>2020-11-08T09:43:11.000Z</time>
      </trkpt>
      <trkpt lat="50.48353" lon="3.8677">
        <ele>84.2</ele>
        <time>2020-11-08T09:43:12.000Z</time>
      </trkpt>
      <trkpt lat="50.48355" lon="3.86781">
        <ele>84.24</ele>
        <time>2020-11-08T09:43:13.000Z</time>
      </trkpt>
      <trkpt lat="50.48357" lon="3.8679">
        <ele>83.94</ele>
        <time>2020-11-08T09:43:14.000Z</time>
      </trkpt>
      <trkpt lat="50.48359" lon="3.868">
        <ele>83.13</ele>
        <time>2020-11-08T09:43:15.000Z</time>
      </trkpt>
      <trkpt lat="50.48361" lon="3.86812">
        <ele>83.25</ele>
        <time>2020-11-08T09:43:16.000Z</time>
      </trkpt>
      <trkpt lat="50.48364" lon="3.86823">
        <ele>83.26</ele>
        <time>2020-11-08T09:43:17.000Z</time>
      </trkpt>
      <trkpt lat="50.48366" lon="3.86833">
        <ele>83.35</ele>
        <time>2020-11-08T09:43:18.000Z</time>
      </trkpt>
      <trkpt lat="50.48369" lon="3.86843">
        <ele>83.01</ele>
        <time>2020-11-08T09:43:19.000Z</time>
      </trkpt>
      <trkpt lat="50.48371" lon="3.86854">
        <ele>82.44</ele>
        <time>2020-11-08T09:43:20.000Z</time>
      </trkpt>
      <trkpt lat="50.48374" lon="3.86865">
        <ele>81.9</ele>
        <time>2020-11-08T09:43:21.000Z</time>
      </trkpt>
      <trkpt lat="50.48376" lon="3.86875">
        <ele>81.71</ele>
        <time>2020-11-08T09:43:22.000Z</time>
      </trkpt>
      <trkpt lat="50.48379" lon="3.86885">
        <ele>81.61</ele>
        <time>2020-11-08T09:43:23.000Z</time>
      </trkpt>
      <trkpt lat="50.48381" lon="3.86895">
        <ele>81.21</ele>
        <time>2020-11-08T09:43:24.000Z</time>
      </trkpt>
      <trkpt lat="50.48384" lon="3.86906">
        <ele>81.34</ele>
        <time>2020-11-08T09:43:25.000Z</time>
      </trkpt>
      <trkpt lat="50.48386" lon="3.86916">
        <ele>80.92</ele>
        <time>2020-11-08T09:43:26.000Z</time>
      </trkpt>
      <trkpt lat="50.48388" lon="3.86926">
        <ele>80.43</ele>
        <time>2020-11-08T09:43:27.000Z</time>
      </trkpt>
      <trkpt lat="50.4839" lon="3.86937">
        <ele>80.32</ele>
        <time>2020-11-08T09:43:28.000Z</time>
      </trkpt>
      <trkpt lat="50.48393" lon="3.86947">
        <ele>80.15</ele>
        <time>2020-11-08T09:43:29.000Z</time>
      </trkpt>
      <trkpt lat="50.48395" lon="3.86957">
        <ele>80.22</ele>
        <time>2020-11-08T09:43:30.000Z</time>
      </trkpt>
      <trkpt lat="50.48397" lon="3.86968">
        <ele>80.24</ele>
        <time>2020-11-08T09:43:31.000Z</time>
      </trkpt>
      <trkpt lat="50.48399" lon="3.86977">
        <ele>80.3</ele>
        <time>2020-11-08T09:43:32.000Z</time>
      </trkpt>
      <trkpt lat="50.48402" lon="3.86988">
        <ele>80.16</ele>
        <time>2020-11-08T09:43:33.000Z</time>
      </trkpt>
      <trkpt lat="50.48404" lon="3.86998">
        <ele>80.63</ele>
        <time>2020-11-08T09:43:34.000Z</time>
      </trkpt>
      <trkpt lat="50.48406" lon="3.87008">
        <ele>80.68</ele>
        <time>2020-11-08T09:43:35.000Z</time>
      </trkpt>
      <trkpt lat="50.48407" lon="3.87017">
        <ele>80.84</ele>
        <time>2020-11-08T09:43:36.000Z</time>
      </trkpt>
      <trkpt lat="50.48409" lon="3.87027">
        <ele>80.59</ele>
        <time>2020-11-08T09:43:37.000Z</time>
      </trkpt>
      <trkpt lat="50.48411" lon="3.87036">
        <ele>80.78</ele>
        <time>2020-11-08T09:43:38.000Z</time>
      </trkpt>
      <trkpt lat="50.48412" lon="3.87045">
        <ele>81.34</ele>
        <time>2020-11-08T09:43:39.000Z</time>
      </trkpt>
      <trkpt lat="50.48413" lon="3.87053">
        <ele>81.79</ele>
        <time>2020-11-08T09:43:40.000Z</time>
      </trkpt>
      <trkpt lat="50.48413" lon="3.87061">
        <ele>81.54</ele>
        <time>2020-11-08T09:43:41.000Z</time>
      </trkpt>
      <trkpt lat="50.48412" lon="3.87068">
        <ele>81.41</ele>
        <time>2020-11-08T09:43:42.000Z</time>
      </trkpt>
      <trkpt lat="50.48408" lon="3.87075">
        <ele>81.95</ele>
        <time>2020-11-08T09:43:43.000Z</time>
      </trkpt>
      <trkpt lat="50.48403" lon="3.87079">
        <ele>82.07</ele>
        <time>2020-11-08T09:43:44.000Z</time>
      </trkpt>
      <trkpt lat="50.48396" lon="3.87082">
        <ele>82.04</ele>
        <time>2020-11-08T09:43:45.000Z</time>
      </trkpt>
      <trkpt lat="50.4839" lon="3.87084">
        <ele>82.16</ele>
        <time>2020-11-08T09:43:46.000Z</time>
      </trkpt>
      <trkpt lat="50.48384" lon="3.87085">
        <ele>82.07</ele>
        <time>2020-11-08T09:43:47.000Z</time>
      </trkpt>
      <trkpt lat="50.48376" lon="3.87087">
        <ele>81.78</ele>
        <time>2020-11-08T09:43:49.000Z</time>
      </trkpt>
      <trkpt lat="50.48369" lon="3.87089">
        <ele>81.51</ele>
        <time>2020-11-08T09:43:51.000Z</time>
      </trkpt>
      <trkpt lat="50.48363" lon="3.87091">
        <ele>81.65</ele>
        <time>2020-11-08T09:43:53.000Z</time>
      </trkpt>
      <trkpt lat="50.4836" lon="3.87098">
        <ele>81.06</ele>
        <time>2020-11-08T09:43:55.000Z</time>
      </trkpt>
      <trkpt lat="50.48365" lon="3.87107">
        <ele>81.01</ele>
        <time>2020-11-08T09:43:57.000Z</time>
      </trkpt>
      <trkpt lat="50.4837" lon="3.87113">
        <ele>81.86</ele>
        <time>2020-11-08T09:43:59.000Z</time>
      </trkpt>
      <trkpt lat="50.48372" lon="3.87121">
        <ele>82.28</ele>
        <time>2020-11-08T09:44:01.000Z</time>
      </trkpt>
      <trkpt lat="50.48372" lon="3.87133">
        <ele>82.02</ele>
        <time>2020-11-08T09:44:03.000Z</time>
      </trkpt>
      <trkpt lat="50.48372" lon="3.87144">
        <ele>82.6</ele>
        <time>2020-11-08T09:44:05.000Z</time>
      </trkpt>
      <trkpt lat="50.48372" lon="3.87159">
        <ele>82.05</ele>
        <time>2020-11-08T09:44:07.000Z</time>
      </trkpt>
      <trkpt lat="50.48372" lon="3.87166">
        <ele>82.19</ele>
        <time>2020-11-08T09:44:08.000Z</time>
      </trkpt>
      <trkpt lat="50.48372" lon="3.87173">
        <ele>82.18</ele>
        <time>2020-11-08T09:44:09.000Z</time>
      </trkpt>
      <trkpt lat="50.48372" lon="3.87188">
        <ele>82.03</ele>
        <time>2020-11-08T09:44:11.000Z</time>
      </trkpt>
      <trkpt lat="50.48372" lon="3.87195">
        <ele>82.28</ele>
        <time>2020-11-08T09:44:12.000Z</time>
      </trkpt>
      <trkpt lat="50.48372" lon="3.87203">
        <ele>82.45</ele>
        <time>2020-11-08T09:44:13.000Z</time>
      </trkpt>
      <trkpt lat="50.48372" lon="3.8721">
        <ele>82.37</ele>
        <time>2020-11-08T09:44:14.000Z</time>
      </trkpt>
      <trkpt lat="50.48373" lon="3.87219">
        <ele>82.59</ele>
        <time>2020-11-08T09:44:15.000Z</time>
      </trkpt>
      <trkpt lat="50.48374" lon="3.87227">
        <ele>82.98</ele>
        <time>2020-11-08T09:44:16.000Z</time>
      </trkpt>
      <trkpt lat="50.48374" lon="3.87235">
        <ele>83.3</ele>
        <time>2020-11-08T09:44:17.000Z</time>
      </trkpt>
      <trkpt lat="50.48374" lon="3.87243">
        <ele>83.24</ele>
        <time>2020-11-08T09:44:18.000Z</time>
      </trkpt>
      <trkpt lat="50.48374" lon="3.87251">
        <ele>83.5</ele>
        <time>2020-11-08T09:44:19.000Z</time>
      </trkpt>
      <trkpt lat="50.48375" lon="3.8726">
        <ele>83.64</ele>
        <time>2020-11-08T09:44:20.000Z</time>
      </trkpt>
      <trkpt lat="50.48375" lon="3.87269">
        <ele>83.81</ele>
        <time>2020-11-08T09:44:21.000Z</time>
      </trkpt>
      <trkpt lat="50.48375" lon="3.87278">
        <ele>84</ele>
        <time>2020-11-08T09:44:22.000Z</time>
      </trkpt>
      <trkpt lat="50.48376" lon="3.87287">
        <ele>83.89</ele>
        <time>2020-11-08T09:44:23.000Z</time>
      </trkpt>
      <trkpt lat="50.48376" lon="3.87297">
        <ele>83.63</ele>
        <time>2020-11-08T09:44:24.000Z</time>
      </trkpt>
      <trkpt lat="50.48376" lon="3.87307">
        <ele>83.56</ele>
        <time>2020-11-08T09:44:25.000Z</time>
      </trkpt>
      <trkpt lat="50.48376" lon="3.87317">
        <ele>83.55</ele>
        <time>2020-11-08T09:44:26.000Z</time>
      </trkpt>
      <trkpt lat="50.48377" lon="3.87326">
        <ele>83.79</ele>
        <time>2020-11-08T09:44:27.000Z</time>
      </trkpt>
      <trkpt lat="50.48377" lon="3.87336">
        <ele>83.94</ele>
        <time>2020-11-08T09:44:28.000Z</time>
      </trkpt>
      <trkpt lat="50.48378" lon="3.87346">
        <ele>83.58</ele>
        <time>2020-11-08T09:44:29.000Z</time>
      </trkpt>
      <trkpt lat="50.48378" lon="3.87355">
        <ele>83.36</ele>
        <time>2020-11-08T09:44:30.000Z</time>
      </trkpt>
      <trkpt lat="50.48379" lon="3.87365">
        <ele>83.52</ele>
        <time>2020-11-08T09:44:31.000Z</time>
      </trkpt>
      <trkpt lat="50.4838" lon="3.87373">
        <ele>83.64</ele>
        <time>2020-11-08T09:44:32.000Z</time>
      </trkpt>
      <trkpt lat="50.4838" lon="3.87382">
        <ele>83.86</ele>
        <time>2020-11-08T09:44:33.000Z</time>
      </trkpt>
      <trkpt lat="50.48381" lon="3.87391">
        <ele>83.67</ele>
        <time>2020-11-08T09:44:34.000Z</time>
      </trkpt>
      <trkpt lat="50.48381" lon="3.874">
        <ele>83.95</ele>
        <time>2020-11-08T09:44:35.000Z</time>
      </trkpt>
      <trkpt lat="50.48382" lon="3.8741">
        <ele>83.85</ele>
        <time>2020-11-08T09:44:36.000Z</time>
      </trkpt>
      <trkpt lat="50.48382" lon="3.87418">
        <ele>83.94</ele>
        <time>2020-11-08T09:44:37.000Z</time>
      </trkpt>
      <trkpt lat="50.48382" lon="3.87427">
        <ele>83.89</ele>
        <time>2020-11-08T09:44:38.000Z</time>
      </trkpt>
      <trkpt lat="50.48383" lon="3.87435">
        <ele>84.42</ele>
        <time>2020-11-08T09:44:39.000Z</time>
      </trkpt>
      <trkpt lat="50.48383" lon="3.87443">
        <ele>84.98</ele>
        <time>2020-11-08T09:44:40.000Z</time>
      </trkpt>
      <trkpt lat="50.48384" lon="3.87452">
        <ele>85.33</ele>
        <time>2020-11-08T09:44:41.000Z</time>
      </trkpt>
      <trkpt lat="50.48384" lon="3.87461">
        <ele>85.09</ele>
        <time>2020-11-08T09:44:42.000Z</time>
      </trkpt>
      <trkpt lat="50.48384" lon="3.87469">
        <ele>85.45</ele>
        <time>2020-11-08T09:44:43.000Z</time>
      </trkpt>
      <trkpt lat="50.48385" lon="3.87477">
        <ele>85.45</ele>
        <time>2020-11-08T09:44:44.000Z</time>
      </trkpt>
      <trkpt lat="50.48386" lon="3.87485">
        <ele>85.42</ele>
        <time>2020-11-08T09:44:45.000Z</time>
      </trkpt>
      <trkpt lat="50.48387" lon="3.87492">
        <ele>85.5</ele>
        <time>2020-11-08T09:44:46.000Z</time>
      </trkpt>
      <trkpt lat="50.48388" lon="3.875">
        <ele>85.99</ele>
        <time>2020-11-08T09:44:47.000Z</time>
      </trkpt>
      <trkpt lat="50.48389" lon="3.87508">
        <ele>86.14</ele>
        <time>2020-11-08T09:44:48.000Z</time>
      </trkpt>
      <trkpt lat="50.48389" lon="3.87516">
        <ele>85.85</ele>
        <time>2020-11-08T09:44:49.000Z</time>
      </trkpt>
      <trkpt lat="50.48389" lon="3.87523">
        <ele>86.28</ele>
        <time>2020-11-08T09:44:50.000Z</time>
      </trkpt>
      <trkpt lat="50.4839" lon="3.87531">
        <ele>86.59</ele>
        <time>2020-11-08T09:44:51.000Z</time>
      </trkpt>
      <trkpt lat="50.4839" lon="3.87539">
        <ele>86.68</ele>
        <time>2020-11-08T09:44:52.000Z</time>
      </trkpt>
      <trkpt lat="50.4839" lon="3.87548">
        <ele>87.1</ele>
        <time>2020-11-08T09:44:53.000Z</time>
      </trkpt>
      <trkpt lat="50.4839" lon="3.87556">
        <ele>87.03</ele>
        <time>2020-11-08T09:44:54.000Z</time>
      </trkpt>
      <trkpt lat="50.48391" lon="3.87565">
        <ele>87.47</ele>
        <time>2020-11-08T09:44:55.000Z</time>
      </trkpt>
      <trkpt lat="50.48391" lon="3.87574">
        <ele>87.46</ele>
        <time>2020-11-08T09:44:56.000Z</time>
      </trkpt>
      <trkpt lat="50.48391" lon="3.87583">
        <ele>87.1</ele>
        <time>2020-11-08T09:44:57.000Z</time>
      </trkpt>
      <trkpt lat="50.48392" lon="3.87592">
        <ele>86.98</ele>
        <time>2020-11-08T09:44:58.000Z</time>
      </trkpt>
      <trkpt lat="50.48392" lon="3.876">
        <ele>87.32</ele>
        <time>2020-11-08T09:44:59.000Z</time>
      </trkpt>
      <trkpt lat="50.48392" lon="3.87609">
        <ele>87.33</ele>
        <time>2020-11-08T09:45:00.000Z</time>
      </trkpt>
      <trkpt lat="50.48393" lon="3.87618">
        <ele>87.41</ele>
        <time>2020-11-08T09:45:01.000Z</time>
      </trkpt>
      <trkpt lat="50.48393" lon="3.87627">
        <ele>87.29</ele>
        <time>2020-11-08T09:45:02.000Z</time>
      </trkpt>
      <trkpt lat="50.48394" lon="3.87636">
        <ele>87.12</ele>
        <time>2020-11-08T09:45:03.000Z</time>
      </trkpt>
      <trkpt lat="50.48394" lon="3.87645">
        <ele>87.05</ele>
        <time>2020-11-08T09:45:04.000Z</time>
      </trkpt>
      <trkpt lat="50.48394" lon="3.87655">
        <ele>87.13</ele>
        <time>2020-11-08T09:45:05.000Z</time>
      </trkpt>
      <trkpt lat="50.48395" lon="3.87664">
        <ele>87.11</ele>
        <time>2020-11-08T09:45:06.000Z</time>
      </trkpt>
      <trkpt lat="50.48395" lon="3.87673">
        <ele>87.45</ele>
        <time>2020-11-08T09:45:07.000Z</time>
      </trkpt>
      <trkpt lat="50.48395" lon="3.87682">
        <ele>87.44</ele>
        <time>2020-11-08T09:45:08.000Z</time>
      </trkpt>
      <trkpt lat="50.48396" lon="3.87691">
        <ele>87.36</ele>
        <time>2020-11-08T09:45:09.000Z</time>
      </trkpt>
      <trkpt lat="50.48396" lon="3.877">
        <ele>87.31</ele>
        <time>2020-11-08T09:45:10.000Z</time>
      </trkpt>
      <trkpt lat="50.48397" lon="3.8771">
        <ele>87.42</ele>
        <time>2020-11-08T09:45:11.000Z</time>
      </trkpt>
      <trkpt lat="50.48397" lon="3.8772">
        <ele>87.29</ele>
        <time>2020-11-08T09:45:12.000Z</time>
      </trkpt>
      <trkpt lat="50.48398" lon="3.8773">
        <ele>87</ele>
        <time>2020-11-08T09:45:13.000Z</time>
      </trkpt>
      <trkpt lat="50.48399" lon="3.8774">
        <ele>87.18</ele>
        <time>2020-11-08T09:45:14.000Z</time>
      </trkpt>
      <trkpt lat="50.48399" lon="3.8775">
        <ele>87.12</ele>
        <time>2020-11-08T09:45:15.000Z</time>
      </trkpt>
      <trkpt lat="50.484" lon="3.87761">
        <ele>87.1</ele>
        <time>2020-11-08T09:45:16.000Z</time>
      </trkpt>
      <trkpt lat="50.48401" lon="3.87772">
        <ele>87.02</ele>
        <time>2020-11-08T09:45:17.000Z</time>
      </trkpt>
      <trkpt lat="50.48402" lon="3.87784">
        <ele>87.6</ele>
        <time>2020-11-08T09:45:18.000Z</time>
      </trkpt>
      <trkpt lat="50.48403" lon="3.87795">
        <ele>87.48</ele>
        <time>2020-11-08T09:45:19.000Z</time>
      </trkpt>
      <trkpt lat="50.48403" lon="3.87805">
        <ele>87.21</ele>
        <time>2020-11-08T09:45:20.000Z</time>
      </trkpt>
      <trkpt lat="50.48404" lon="3.87814">
        <ele>87.22</ele>
        <time>2020-11-08T09:45:21.000Z</time>
      </trkpt>
      <trkpt lat="50.48405" lon="3.87824">
        <ele>87.39</ele>
        <time>2020-11-08T09:45:22.000Z</time>
      </trkpt>
      <trkpt lat="50.48405" lon="3.87834">
        <ele>87.08</ele>
        <time>2020-11-08T09:45:23.000Z</time>
      </trkpt>
      <trkpt lat="50.48406" lon="3.87845">
        <ele>87.06</ele>
        <time>2020-11-08T09:45:24.000Z</time>
      </trkpt>
      <trkpt lat="50.48407" lon="3.87855">
        <ele>87</ele>
        <time>2020-11-08T09:45:25.000Z</time>
      </trkpt>
      <trkpt lat="50.48407" lon="3.87865">
        <ele>87.08</ele>
        <time>2020-11-08T09:45:26.000Z</time>
      </trkpt>
      <trkpt lat="50.48408" lon="3.87876">
        <ele>87.08</ele>
        <time>2020-11-08T09:45:27.000Z</time>
      </trkpt>
      <trkpt lat="50.48409" lon="3.87887">
        <ele>87.5</ele>
        <time>2020-11-08T09:45:28.000Z</time>
      </trkpt>
      <trkpt lat="50.4841" lon="3.87897">
        <ele>87.78</ele>
        <time>2020-11-08T09:45:29.000Z</time>
      </trkpt>
      <trkpt lat="50.48411" lon="3.87908">
        <ele>87.83</ele>
        <time>2020-11-08T09:45:30.000Z</time>
      </trkpt>
      <trkpt lat="50.48411" lon="3.87919">
        <ele>87.68</ele>
        <time>2020-11-08T09:45:31.000Z</time>
      </trkpt>
      <trkpt lat="50.48412" lon="3.8793">
        <ele>87.92</ele>
        <time>2020-11-08T09:45:32.000Z</time>
      </trkpt>
      <trkpt lat="50.48413" lon="3.87941">
        <ele>87.78</ele>
        <time>2020-11-08T09:45:33.000Z</time>
      </trkpt>
      <trkpt lat="50.48414" lon="3.87951">
        <ele>87.78</ele>
        <time>2020-11-08T09:45:34.000Z</time>
      </trkpt>
      <trkpt lat="50.48415" lon="3.87962">
        <ele>87.39</ele>
        <time>2020-11-08T09:45:35.000Z</time>
      </trkpt>
      <trkpt lat="50.48416" lon="3.87971">
        <ele>87.5</ele>
        <time>2020-11-08T09:45:36.000Z</time>
      </trkpt>
      <trkpt lat="50.48417" lon="3.87979">
        <ele>87.54</ele>
        <time>2020-11-08T09:45:37.000Z</time>
      </trkpt>
      <trkpt lat="50.48417" lon="3.87986">
        <ele>87.97</ele>
        <time>2020-11-08T09:45:38.000Z</time>
      </trkpt>
      <trkpt lat="50.48419" lon="3.87997">
        <ele>87.57</ele>
        <time>2020-11-08T09:45:40.000Z</time>
      </trkpt>
      <trkpt lat="50.48414" lon="3.88001">
        <ele>85.79</ele>
        <time>2020-11-08T09:45:44.000Z</time>
      </trkpt>
      <trkpt lat="50.48409" lon="3.88001">
        <ele>85.7</ele>
        <time>2020-11-08T09:45:46.000Z</time>
      </trkpt>
      <trkpt lat="50.48403" lon="3.88003">
        <ele>85.38</ele>
        <time>2020-11-08T09:45:48.000Z</time>
      </trkpt>
      <trkpt lat="50.48403" lon="3.88011">
        <ele>84.98</ele>
        <time>2020-11-08T09:45:50.000Z</time>
      </trkpt>
      <trkpt lat="50.48404" lon="3.88022">
        <ele>85.29</ele>
        <time>2020-11-08T09:45:52.000Z</time>
      </trkpt>
      <trkpt lat="50.48404" lon="3.8803">
        <ele>85.33</ele>
        <time>2020-11-08T09:45:53.000Z</time>
      </trkpt>
      <trkpt lat="50.48405" lon="3.88042">
        <ele>85.3</ele>
        <time>2020-11-08T09:45:55.000Z</time>
      </trkpt>
      <trkpt lat="50.48407" lon="3.88051">
        <ele>85.62</ele>
        <time>2020-11-08T09:45:57.000Z</time>
      </trkpt>
      <trkpt lat="50.48407" lon="3.88062">
        <ele>85.82</ele>
        <time>2020-11-08T09:45:59.000Z</time>
      </trkpt>
      <trkpt lat="50.48407" lon="3.88069">
        <ele>85.8</ele>
        <time>2020-11-08T09:46:00.000Z</time>
      </trkpt>
      <trkpt lat="50.48407" lon="3.88077">
        <ele>85.12</ele>
        <time>2020-11-08T09:46:01.000Z</time>
      </trkpt>
      <trkpt lat="50.48408" lon="3.88085">
        <ele>85.52</ele>
        <time>2020-11-08T09:46:02.000Z</time>
      </trkpt>
      <trkpt lat="50.48408" lon="3.88093">
        <ele>85.83</ele>
        <time>2020-11-08T09:46:03.000Z</time>
      </trkpt>
      <trkpt lat="50.48409" lon="3.88106">
        <ele>84.77</ele>
        <time>2020-11-08T09:46:05.000Z</time>
      </trkpt>
      <trkpt lat="50.48408" lon="3.88114">
        <ele>85.19</ele>
        <time>2020-11-08T09:46:06.000Z</time>
      </trkpt>
      <trkpt lat="50.48407" lon="3.88122">
        <ele>84.61</ele>
        <time>2020-11-08T09:46:07.000Z</time>
      </trkpt>
      <trkpt lat="50.48408" lon="3.88135">
        <ele>84.97</ele>
        <time>2020-11-08T09:46:09.000Z</time>
      </trkpt>
      <trkpt lat="50.48409" lon="3.88148">
        <ele>84.76</ele>
        <time>2020-11-08T09:46:11.000Z</time>
      </trkpt>
      <trkpt lat="50.4841" lon="3.88159">
        <ele>84.87</ele>
        <time>2020-11-08T09:46:13.000Z</time>
      </trkpt>
      <trkpt lat="50.48417" lon="3.88162">
        <ele>86.12</ele>
        <time>2020-11-08T09:46:15.000Z</time>
      </trkpt>
      <trkpt lat="50.48421" lon="3.88167">
        <ele>86.71</ele>
        <time>2020-11-08T09:46:17.000Z</time>
      </trkpt>
      <trkpt lat="50.48423" lon="3.88178">
        <ele>85.94</ele>
        <time>2020-11-08T09:46:19.000Z</time>
      </trkpt>
      <trkpt lat="50.48423" lon="3.88186">
        <ele>85.68</ele>
        <time>2020-11-08T09:46:20.000Z</time>
      </trkpt>
      <trkpt lat="50.48424" lon="3.88198">
        <ele>86.56</ele>
        <time>2020-11-08T09:46:22.000Z</time>
      </trkpt>
      <trkpt lat="50.48426" lon="3.88211">
        <ele>85.53</ele>
        <time>2020-11-08T09:46:24.000Z</time>
      </trkpt>
      <trkpt lat="50.48427" lon="3.8822">
        <ele>85.7</ele>
        <time>2020-11-08T09:46:25.000Z</time>
      </trkpt>
      <trkpt lat="50.48427" lon="3.88229">
        <ele>85.72</ele>
        <time>2020-11-08T09:46:26.000Z</time>
      </trkpt>
      <trkpt lat="50.48428" lon="3.88237">
        <ele>85.51</ele>
        <time>2020-11-08T09:46:27.000Z</time>
      </trkpt>
      <trkpt lat="50.48429" lon="3.88246">
        <ele>85.47</ele>
        <time>2020-11-08T09:46:28.000Z</time>
      </trkpt>
      <trkpt lat="50.48429" lon="3.88254">
        <ele>85.26</ele>
        <time>2020-11-08T09:46:29.000Z</time>
      </trkpt>
      <trkpt lat="50.48431" lon="3.88263">
        <ele>85.7</ele>
        <time>2020-11-08T09:46:30.000Z</time>
      </trkpt>
      <trkpt lat="50.48432" lon="3.88271">
        <ele>86.15</ele>
        <time>2020-11-08T09:46:31.000Z</time>
      </trkpt>
      <trkpt lat="50.48432" lon="3.88279">
        <ele>86.29</ele>
        <time>2020-11-08T09:46:32.000Z</time>
      </trkpt>
      <trkpt lat="50.48433" lon="3.88287">
        <ele>86.14</ele>
        <time>2020-11-08T09:46:33.000Z</time>
      </trkpt>
      <trkpt lat="50.48434" lon="3.88295">
        <ele>85.6</ele>
        <time>2020-11-08T09:46:34.000Z</time>
      </trkpt>
      <trkpt lat="50.48435" lon="3.88305">
        <ele>85.29</ele>
        <time>2020-11-08T09:46:35.000Z</time>
      </trkpt>
      <trkpt lat="50.48436" lon="3.88315">
        <ele>85.17</ele>
        <time>2020-11-08T09:46:36.000Z</time>
      </trkpt>
      <trkpt lat="50.48437" lon="3.88325">
        <ele>85.44</ele>
        <time>2020-11-08T09:46:37.000Z</time>
      </trkpt>
      <trkpt lat="50.48439" lon="3.88335">
        <ele>85.47</ele>
        <time>2020-11-08T09:46:38.000Z</time>
      </trkpt>
      <trkpt lat="50.4844" lon="3.88345">
        <ele>86.27</ele>
        <time>2020-11-08T09:46:39.000Z</time>
      </trkpt>
      <trkpt lat="50.48441" lon="3.88355">
        <ele>86.42</ele>
        <time>2020-11-08T09:46:40.000Z</time>
      </trkpt>
      <trkpt lat="50.48441" lon="3.88369">
        <ele>85.82</ele>
        <time>2020-11-08T09:46:42.000Z</time>
      </trkpt>
      <trkpt lat="50.48442" lon="3.88376">
        <ele>85.49</ele>
        <time>2020-11-08T09:46:43.000Z</time>
      </trkpt>
      <trkpt lat="50.48445" lon="3.8839">
        <ele>85.34</ele>
        <time>2020-11-08T09:46:45.000Z</time>
      </trkpt>
      <trkpt lat="50.48445" lon="3.88399">
        <ele>85.45</ele>
        <time>2020-11-08T09:46:46.000Z</time>
      </trkpt>
      <trkpt lat="50.48446" lon="3.88408">
        <ele>84.54</ele>
        <time>2020-11-08T09:46:47.000Z</time>
      </trkpt>
      <trkpt lat="50.48447" lon="3.88418">
        <ele>84.71</ele>
        <time>2020-11-08T09:46:48.000Z</time>
      </trkpt>
      <trkpt lat="50.48448" lon="3.88428">
        <ele>84.83</ele>
        <time>2020-11-08T09:46:49.000Z</time>
      </trkpt>
      <trkpt lat="50.48449" lon="3.88437">
        <ele>84.94</ele>
        <time>2020-11-08T09:46:50.000Z</time>
      </trkpt>
      <trkpt lat="50.4845" lon="3.88446">
        <ele>84.97</ele>
        <time>2020-11-08T09:46:51.000Z</time>
      </trkpt>
      <trkpt lat="50.48451" lon="3.88453">
        <ele>85.4</ele>
        <time>2020-11-08T09:46:52.000Z</time>
      </trkpt>
      <trkpt lat="50.48452" lon="3.88463">
        <ele>84.6</ele>
        <time>2020-11-08T09:46:53.000Z</time>
      </trkpt>
      <trkpt lat="50.48453" lon="3.88472">
        <ele>84.56</ele>
        <time>2020-11-08T09:46:54.000Z</time>
      </trkpt>
      <trkpt lat="50.48454" lon="3.88481">
        <ele>84.62</ele>
        <time>2020-11-08T09:46:55.000Z</time>
      </trkpt>
      <trkpt lat="50.48454" lon="3.88491">
        <ele>83.09</ele>
        <time>2020-11-08T09:46:57.000Z</time>
      </trkpt>
      <trkpt lat="50.48449" lon="3.88494">
        <ele>83.68</ele>
        <time>2020-11-08T09:46:59.000Z</time>
      </trkpt>
      <trkpt lat="50.48441" lon="3.88495">
        <ele>85.2</ele>
        <time>2020-11-08T09:47:01.000Z</time>
      </trkpt>
      <trkpt lat="50.48434" lon="3.885">
        <ele>84.99</ele>
        <time>2020-11-08T09:47:03.000Z</time>
      </trkpt>
      <trkpt lat="50.48429" lon="3.88502">
        <ele>85.06</ele>
        <time>2020-11-08T09:47:04.000Z</time>
      </trkpt>
      <trkpt lat="50.48423" lon="3.8851">
        <ele>86.2</ele>
        <time>2020-11-08T09:47:06.000Z</time>
      </trkpt>
      <trkpt lat="50.48423" lon="3.8852">
        <ele>85.17</ele>
        <time>2020-11-08T09:47:08.000Z</time>
      </trkpt>
      <trkpt lat="50.48424" lon="3.88528">
        <ele>85.23</ele>
        <time>2020-11-08T09:47:09.000Z</time>
      </trkpt>
      <trkpt lat="50.48426" lon="3.88537">
        <ele>86.01</ele>
        <time>2020-11-08T09:47:10.000Z</time>
      </trkpt>
      <trkpt lat="50.48427" lon="3.88545">
        <ele>86.09</ele>
        <time>2020-11-08T09:47:11.000Z</time>
      </trkpt>
      <trkpt lat="50.48427" lon="3.88554">
        <ele>85.72</ele>
        <time>2020-11-08T09:47:13.000Z</time>
      </trkpt>
      <trkpt lat="50.48427" lon="3.88554">
        <ele>85.72</ele>
        <time>2020-11-08T09:47:13.001Z</time>
      </trkpt>
      <trkpt lat="50.48429" lon="3.88561">
        <ele>85.74</ele>
        <time>2020-11-08T09:48:29.000Z</time>
      </trkpt>
      <trkpt lat="50.48431" lon="3.88572">
        <ele>85.17</ele>
        <time>2020-11-08T09:48:32.000Z</time>
      </trkpt>
      <trkpt lat="50.48432" lon="3.88587">
        <ele>86.01</ele>
        <time>2020-11-08T09:48:34.000Z</time>
      </trkpt>
      <trkpt lat="50.48433" lon="3.88601">
        <ele>84.87</ele>
        <time>2020-11-08T09:48:36.000Z</time>
      </trkpt>
      <trkpt lat="50.48434" lon="3.88609">
        <ele>85.02</ele>
        <time>2020-11-08T09:48:37.000Z</time>
      </trkpt>
      <trkpt lat="50.48435" lon="3.88618">
        <ele>85.67</ele>
        <time>2020-11-08T09:48:38.000Z</time>
      </trkpt>
      <trkpt lat="50.48436" lon="3.88627">
        <ele>85.33</ele>
        <time>2020-11-08T09:48:39.000Z</time>
      </trkpt>
      <trkpt lat="50.48437" lon="3.88634">
        <ele>84.79</ele>
        <time>2020-11-08T09:48:40.000Z</time>
      </trkpt>
      <trkpt lat="50.48438" lon="3.88643">
        <ele>85.7</ele>
        <time>2020-11-08T09:48:41.000Z</time>
      </trkpt>
      <trkpt lat="50.48439" lon="3.8865">
        <ele>86.04</ele>
        <time>2020-11-08T09:48:42.000Z</time>
      </trkpt>
      <trkpt lat="50.4844" lon="3.88657">
        <ele>85.97</ele>
        <time>2020-11-08T09:48:43.000Z</time>
      </trkpt>
      <trkpt lat="50.48441" lon="3.88666">
        <ele>86.29</ele>
        <time>2020-11-08T09:48:44.000Z</time>
      </trkpt>
      <trkpt lat="50.48442" lon="3.88674">
        <ele>86.37</ele>
        <time>2020-11-08T09:48:45.000Z</time>
      </trkpt>
      <trkpt lat="50.48443" lon="3.88681">
        <ele>86.99</ele>
        <time>2020-11-08T09:48:46.000Z</time>
      </trkpt>
      <trkpt lat="50.48444" lon="3.88688">
        <ele>86.68</ele>
        <time>2020-11-08T09:48:47.000Z</time>
      </trkpt>
      <trkpt lat="50.48445" lon="3.88701">
        <ele>87.96</ele>
        <time>2020-11-08T09:48:49.000Z</time>
      </trkpt>
      <trkpt lat="50.48446" lon="3.88712">
        <ele>87.33</ele>
        <time>2020-11-08T09:48:51.000Z</time>
      </trkpt>
      <trkpt lat="50.48448" lon="3.88724">
        <ele>87.35</ele>
        <time>2020-11-08T09:48:53.000Z</time>
      </trkpt>
      <trkpt lat="50.48449" lon="3.88737">
        <ele>87.24</ele>
        <time>2020-11-08T09:48:55.000Z</time>
      </trkpt>
      <trkpt lat="50.4845" lon="3.88744">
        <ele>87.8</ele>
        <time>2020-11-08T09:48:56.000Z</time>
      </trkpt>
      <trkpt lat="50.48451" lon="3.88759">
        <ele>87.42</ele>
        <time>2020-11-08T09:48:58.000Z</time>
      </trkpt>
      <trkpt lat="50.48451" lon="3.88773">
        <ele>87</ele>
        <time>2020-11-08T09:49:00.000Z</time>
      </trkpt>
      <trkpt lat="50.48453" lon="3.8878">
        <ele>86.95</ele>
        <time>2020-11-08T09:49:01.000Z</time>
      </trkpt>
      <trkpt lat="50.48454" lon="3.88787">
        <ele>86.68</ele>
        <time>2020-11-08T09:49:02.000Z</time>
      </trkpt>
      <trkpt lat="50.48458" lon="3.88801">
        <ele>86.98</ele>
        <time>2020-11-08T09:49:04.000Z</time>
      </trkpt>
      <trkpt lat="50.48466" lon="3.88903">
        <ele>87.64</ele>
        <time>2020-11-08T09:49:14.000Z</time>
      </trkpt>
      <trkpt lat="50.48467" lon="3.88913">
        <ele>87.83</ele>
        <time>2020-11-08T09:49:15.000Z</time>
      </trkpt>
      <trkpt lat="50.48469" lon="3.88921">
        <ele>87.15</ele>
        <time>2020-11-08T09:49:16.000Z</time>
      </trkpt>
      <trkpt lat="50.4847" lon="3.8893">
        <ele>86.42</ele>
        <time>2020-11-08T09:49:17.000Z</time>
      </trkpt>
      <trkpt lat="50.48471" lon="3.88939">
        <ele>86.38</ele>
        <time>2020-11-08T09:49:20.000Z</time>
      </trkpt>
      <trkpt lat="50.4847" lon="3.88947">
        <ele>86.92</ele>
        <time>2020-11-08T09:49:25.000Z</time>
      </trkpt>
      <trkpt lat="50.48469" lon="3.88956">
        <ele>86.86</ele>
        <time>2020-11-08T09:49:30.000Z</time>
      </trkpt>
      <trkpt lat="50.48471" lon="3.88964">
        <ele>88.9</ele>
        <time>2020-11-08T09:49:36.000Z</time>
      </trkpt>
      <trkpt lat="50.48472" lon="3.88973">
        <ele>87.08</ele>
        <time>2020-11-08T09:49:38.000Z</time>
      </trkpt>
      <trkpt lat="50.48475" lon="3.88982">
        <ele>86.91</ele>
        <time>2020-11-08T09:49:39.000Z</time>
      </trkpt>
      <trkpt lat="50.48474" lon="3.88993">
        <ele>87.71</ele>
        <time>2020-11-08T09:49:41.000Z</time>
      </trkpt>
      <trkpt lat="50.48475" lon="3.89003">
        <ele>88.87</ele>
        <time>2020-11-08T09:49:43.000Z</time>
      </trkpt>
      <trkpt lat="50.48482" lon="3.89007">
        <ele>89.09</ele>
        <time>2020-11-08T09:49:45.000Z</time>
      </trkpt>
      <trkpt lat="50.4849" lon="3.89012">
        <ele>89.54</ele>
        <time>2020-11-08T09:49:47.000Z</time>
      </trkpt>
      <trkpt lat="50.48494" lon="3.89021">
        <ele>89.08</ele>
        <time>2020-11-08T09:49:49.000Z</time>
      </trkpt>
      <trkpt lat="50.48494" lon="3.89029">
        <ele>89.79</ele>
        <time>2020-11-08T09:49:50.000Z</time>
      </trkpt>
      <trkpt lat="50.48495" lon="3.89035">
        <ele>90.2</ele>
        <time>2020-11-08T09:49:51.000Z</time>
      </trkpt>
      <trkpt lat="50.48497" lon="3.89043">
        <ele>89.82</ele>
        <time>2020-11-08T09:49:52.000Z</time>
      </trkpt>
      <trkpt lat="50.48498" lon="3.89052">
        <ele>89.5</ele>
        <time>2020-11-08T09:49:53.000Z</time>
      </trkpt>
      <trkpt lat="50.485" lon="3.8906">
        <ele>89.34</ele>
        <time>2020-11-08T09:49:54.000Z</time>
      </trkpt>
      <trkpt lat="50.48502" lon="3.89068">
        <ele>88.51</ele>
        <time>2020-11-08T09:49:55.000Z</time>
      </trkpt>
      <trkpt lat="50.48505" lon="3.89077">
        <ele>89.22</ele>
        <time>2020-11-08T09:49:56.000Z</time>
      </trkpt>
      <trkpt lat="50.48507" lon="3.89084">
        <ele>88.84</ele>
        <time>2020-11-08T09:49:57.000Z</time>
      </trkpt>
      <trkpt lat="50.48509" lon="3.89091">
        <ele>89.82</ele>
        <time>2020-11-08T09:49:58.000Z</time>
      </trkpt>
      <trkpt lat="50.48512" lon="3.89099">
        <ele>89.06</ele>
        <time>2020-11-08T09:49:59.000Z</time>
      </trkpt>
      <trkpt lat="50.48514" lon="3.89106">
        <ele>89.27</ele>
        <time>2020-11-08T09:50:00.000Z</time>
      </trkpt>
      <trkpt lat="50.48516" lon="3.89113">
        <ele>89.48</ele>
        <time>2020-11-08T09:50:01.000Z</time>
      </trkpt>
      <trkpt lat="50.48517" lon="3.89121">
        <ele>89.53</ele>
        <time>2020-11-08T09:50:02.000Z</time>
      </trkpt>
      <trkpt lat="50.48517" lon="3.89129">
        <ele>88.94</ele>
        <time>2020-11-08T09:50:03.000Z</time>
      </trkpt>
      <trkpt lat="50.48518" lon="3.89138">
        <ele>88.52</ele>
        <time>2020-11-08T09:50:04.000Z</time>
      </trkpt>
      <trkpt lat="50.48517" lon="3.89145">
        <ele>88.28</ele>
        <time>2020-11-08T09:50:05.000Z</time>
      </trkpt>
      <trkpt lat="50.48512" lon="3.89157">
        <ele>87.73</ele>
        <time>2020-11-08T09:50:07.000Z</time>
      </trkpt>
      <trkpt lat="50.4851" lon="3.89164">
        <ele>87.2</ele>
        <time>2020-11-08T09:50:08.000Z</time>
      </trkpt>
      <trkpt lat="50.48506" lon="3.89169">
        <ele>87.32</ele>
        <time>2020-11-08T09:50:09.000Z</time>
      </trkpt>
      <trkpt lat="50.48501" lon="3.89174">
        <ele>86.89</ele>
        <time>2020-11-08T09:50:10.000Z</time>
      </trkpt>
      <trkpt lat="50.48497" lon="3.89179">
        <ele>86.86</ele>
        <time>2020-11-08T09:50:11.000Z</time>
      </trkpt>
      <trkpt lat="50.48494" lon="3.89186">
        <ele>86.53</ele>
        <time>2020-11-08T09:50:12.000Z</time>
      </trkpt>
      <trkpt lat="50.48493" lon="3.89198">
        <ele>86.39</ele>
        <time>2020-11-08T09:50:14.000Z</time>
      </trkpt>
      <trkpt lat="50.48498" lon="3.89205">
        <ele>86.16</ele>
        <time>2020-11-08T09:50:16.000Z</time>
      </trkpt>
      <trkpt lat="50.48503" lon="3.89211">
        <ele>86.15</ele>
        <time>2020-11-08T09:50:18.000Z</time>
      </trkpt>
      <trkpt lat="50.48507" lon="3.89215">
        <ele>86.19</ele>
        <time>2020-11-08T09:50:21.000Z</time>
      </trkpt>
      <trkpt lat="50.48518" lon="3.89214">
        <ele>86.98</ele>
        <time>2020-11-08T09:50:25.000Z</time>
      </trkpt>
      <trkpt lat="50.48544" lon="3.89195">
        <ele>87.48</ele>
        <time>2020-11-08T09:50:37.000Z</time>
      </trkpt>
      <trkpt lat="50.48546" lon="3.89202">
        <ele>87.99</ele>
        <time>2020-11-08T09:50:39.000Z</time>
      </trkpt>
      <trkpt lat="50.48547" lon="3.8921">
        <ele>88.86</ele>
        <time>2020-11-08T09:50:41.000Z</time>
      </trkpt>
      <trkpt lat="50.48549" lon="3.89219">
        <ele>89.49</ele>
        <time>2020-11-08T09:50:44.000Z</time>
      </trkpt>
      <trkpt lat="50.48551" lon="3.89227">
        <ele>89.6</ele>
        <time>2020-11-08T09:50:47.000Z</time>
      </trkpt>
      <trkpt lat="50.48553" lon="3.89234">
        <ele>89.66</ele>
        <time>2020-11-08T09:50:50.000Z</time>
      </trkpt>
      <trkpt lat="50.48554" lon="3.89241">
        <ele>89.52</ele>
        <time>2020-11-08T09:50:53.000Z</time>
      </trkpt>
      <trkpt lat="50.48556" lon="3.8925">
        <ele>89.3</ele>
        <time>2020-11-08T09:50:57.000Z</time>
      </trkpt>
      <trkpt lat="50.48558" lon="3.89258">
        <ele>89.79</ele>
        <time>2020-11-08T09:51:00.000Z</time>
      </trkpt>
      <trkpt lat="50.48559" lon="3.89266">
        <ele>90.44</ele>
        <time>2020-11-08T09:51:03.000Z</time>
      </trkpt>
      <trkpt lat="50.48559" lon="3.89274">
        <ele>89.91</ele>
        <time>2020-11-08T09:51:06.000Z</time>
      </trkpt>
      <trkpt lat="50.48561" lon="3.89281">
        <ele>89.82</ele>
        <time>2020-11-08T09:51:09.000Z</time>
      </trkpt>
      <trkpt lat="50.48562" lon="3.89289">
        <ele>88.91</ele>
        <time>2020-11-08T09:51:13.000Z</time>
      </trkpt>
      <trkpt lat="50.48561" lon="3.89297">
        <ele>88.91</ele>
        <time>2020-11-08T09:51:17.000Z</time>
      </trkpt>
      <trkpt lat="50.48561" lon="3.89297">
        <ele>88.91</ele>
        <time>2020-11-08T09:51:17.001Z</time>
      </trkpt>
      <trkpt lat="50.48563" lon="3.89303">
        <ele>89.26</ele>
        <time>2020-11-08T09:51:54.000Z</time>
      </trkpt>
      <trkpt lat="50.48569" lon="3.8933">
        <ele>88.32</ele>
        <time>2020-11-08T09:52:01.000Z</time>
      </trkpt>
      <trkpt lat="50.48571" lon="3.8934">
        <ele>88.56</ele>
        <time>2020-11-08T09:52:03.000Z</time>
      </trkpt>
      <trkpt lat="50.48573" lon="3.8935">
        <ele>88.61</ele>
        <time>2020-11-08T09:52:05.000Z</time>
      </trkpt>
      <trkpt lat="50.48575" lon="3.89361">
        <ele>88.85</ele>
        <time>2020-11-08T09:52:07.000Z</time>
      </trkpt>
      <trkpt lat="50.48577" lon="3.89374">
        <ele>89.26</ele>
        <time>2020-11-08T09:52:09.000Z</time>
      </trkpt>
      <trkpt lat="50.48579" lon="3.89381">
        <ele>89.55</ele>
        <time>2020-11-08T09:52:10.000Z</time>
      </trkpt>
      <trkpt lat="50.48581" lon="3.89388">
        <ele>89.41</ele>
        <time>2020-11-08T09:52:11.000Z</time>
      </trkpt>
      <trkpt lat="50.48582" lon="3.89396">
        <ele>89.51</ele>
        <time>2020-11-08T09:52:12.000Z</time>
      </trkpt>
      <trkpt lat="50.48584" lon="3.89403">
        <ele>89.57</ele>
        <time>2020-11-08T09:52:13.000Z</time>
      </trkpt>
      <trkpt lat="50.48585" lon="3.89411">
        <ele>89.58</ele>
        <time>2020-11-08T09:52:14.000Z</time>
      </trkpt>
      <trkpt lat="50.48586" lon="3.89418">
        <ele>89.58</ele>
        <time>2020-11-08T09:52:15.000Z</time>
      </trkpt>
      <trkpt lat="50.48588" lon="3.89426">
        <ele>89.84</ele>
        <time>2020-11-08T09:52:16.000Z</time>
      </trkpt>
      <trkpt lat="50.48589" lon="3.89433">
        <ele>89.52</ele>
        <time>2020-11-08T09:52:17.000Z</time>
      </trkpt>
      <trkpt lat="50.4859" lon="3.89441">
        <ele>89.44</ele>
        <time>2020-11-08T09:52:18.000Z</time>
      </trkpt>
      <trkpt lat="50.48592" lon="3.89448">
        <ele>89.69</ele>
        <time>2020-11-08T09:52:19.000Z</time>
      </trkpt>
      <trkpt lat="50.48593" lon="3.89456">
        <ele>89.55</ele>
        <time>2020-11-08T09:52:20.000Z</time>
      </trkpt>
      <trkpt lat="50.48594" lon="3.89464">
        <ele>89.62</ele>
        <time>2020-11-08T09:52:21.000Z</time>
      </trkpt>
      <trkpt lat="50.48595" lon="3.89471">
        <ele>89.77</ele>
        <time>2020-11-08T09:52:22.000Z</time>
      </trkpt>
      <trkpt lat="50.48597" lon="3.89479">
        <ele>89.81</ele>
        <time>2020-11-08T09:52:23.000Z</time>
      </trkpt>
      <trkpt lat="50.48598" lon="3.89487">
        <ele>90.05</ele>
        <time>2020-11-08T09:52:24.000Z</time>
      </trkpt>
      <trkpt lat="50.486" lon="3.89495">
        <ele>90.17</ele>
        <time>2020-11-08T09:52:25.000Z</time>
      </trkpt>
      <trkpt lat="50.48601" lon="3.89503">
        <ele>90.5</ele>
        <time>2020-11-08T09:52:26.000Z</time>
      </trkpt>
      <trkpt lat="50.48603" lon="3.89512">
        <ele>90.69</ele>
        <time>2020-11-08T09:52:27.000Z</time>
      </trkpt>
      <trkpt lat="50.48605" lon="3.8952">
        <ele>90.72</ele>
        <time>2020-11-08T09:52:28.000Z</time>
      </trkpt>
      <trkpt lat="50.48606" lon="3.89528">
        <ele>90.76</ele>
        <time>2020-11-08T09:52:29.000Z</time>
      </trkpt>
      <trkpt lat="50.48607" lon="3.89537">
        <ele>90.43</ele>
        <time>2020-11-08T09:52:30.000Z</time>
      </trkpt>
      <trkpt lat="50.48609" lon="3.89545">
        <ele>90.23</ele>
        <time>2020-11-08T09:52:31.000Z</time>
      </trkpt>
      <trkpt lat="50.48611" lon="3.89554">
        <ele>90.29</ele>
        <time>2020-11-08T09:52:32.000Z</time>
      </trkpt>
      <trkpt lat="50.48612" lon="3.89562">
        <ele>90.09</ele>
        <time>2020-11-08T09:52:33.000Z</time>
      </trkpt>
      <trkpt lat="50.48614" lon="3.89571">
        <ele>90.34</ele>
        <time>2020-11-08T09:52:34.000Z</time>
      </trkpt>
      <trkpt lat="50.48615" lon="3.8958">
        <ele>90.06</ele>
        <time>2020-11-08T09:52:35.000Z</time>
      </trkpt>
      <trkpt lat="50.48617" lon="3.89589">
        <ele>90</ele>
        <time>2020-11-08T09:52:36.000Z</time>
      </trkpt>
      <trkpt lat="50.48619" lon="3.89598">
        <ele>89.89</ele>
        <time>2020-11-08T09:52:37.000Z</time>
      </trkpt>
      <trkpt lat="50.48621" lon="3.89608">
        <ele>90.14</ele>
        <time>2020-11-08T09:52:38.000Z</time>
      </trkpt>
      <trkpt lat="50.48623" lon="3.89617">
        <ele>90.31</ele>
        <time>2020-11-08T09:52:39.000Z</time>
      </trkpt>
      <trkpt lat="50.48625" lon="3.89627">
        <ele>90.27</ele>
        <time>2020-11-08T09:52:40.000Z</time>
      </trkpt>
      <trkpt lat="50.48627" lon="3.89637">
        <ele>90.18</ele>
        <time>2020-11-08T09:52:41.000Z</time>
      </trkpt>
      <trkpt lat="50.48629" lon="3.89647">
        <ele>90.11</ele>
        <time>2020-11-08T09:52:42.000Z</time>
      </trkpt>
      <trkpt lat="50.48631" lon="3.89656">
        <ele>90.25</ele>
        <time>2020-11-08T09:52:43.000Z</time>
      </trkpt>
      <trkpt lat="50.48633" lon="3.89665">
        <ele>90.21</ele>
        <time>2020-11-08T09:52:44.000Z</time>
      </trkpt>
      <trkpt lat="50.48636" lon="3.89675">
        <ele>90.43</ele>
        <time>2020-11-08T09:52:45.000Z</time>
      </trkpt>
      <trkpt lat="50.48639" lon="3.89684">
        <ele>90.61</ele>
        <time>2020-11-08T09:52:46.000Z</time>
      </trkpt>
      <trkpt lat="50.48642" lon="3.89692">
        <ele>89.59</ele>
        <time>2020-11-08T09:52:47.000Z</time>
      </trkpt>
      <trkpt lat="50.48645" lon="3.89701">
        <ele>90.07</ele>
        <time>2020-11-08T09:52:48.000Z</time>
      </trkpt>
      <trkpt lat="50.48647" lon="3.89709">
        <ele>90.5</ele>
        <time>2020-11-08T09:52:49.000Z</time>
      </trkpt>
      <trkpt lat="50.4865" lon="3.89718">
        <ele>90.45</ele>
        <time>2020-11-08T09:52:50.000Z</time>
      </trkpt>
      <trkpt lat="50.48653" lon="3.89726">
        <ele>90.54</ele>
        <time>2020-11-08T09:52:51.000Z</time>
      </trkpt>
      <trkpt lat="50.48657" lon="3.89733">
        <ele>90.69</ele>
        <time>2020-11-08T09:52:52.000Z</time>
      </trkpt>
      <trkpt lat="50.4866" lon="3.8974">
        <ele>91.01</ele>
        <time>2020-11-08T09:52:53.000Z</time>
      </trkpt>
      <trkpt lat="50.48663" lon="3.89747">
        <ele>91.44</ele>
        <time>2020-11-08T09:52:54.000Z</time>
      </trkpt>
      <trkpt lat="50.48676" lon="3.89775">
        <ele>91.86</ele>
        <time>2020-11-08T09:52:58.000Z</time>
      </trkpt>
      <trkpt lat="50.48681" lon="3.89784">
        <ele>92.15</ele>
        <time>2020-11-08T09:53:00.000Z</time>
      </trkpt>
      <trkpt lat="50.48683" lon="3.89791">
        <ele>92.24</ele>
        <time>2020-11-08T09:53:02.000Z</time>
      </trkpt>
      <trkpt lat="50.48685" lon="3.89799">
        <ele>92.09</ele>
        <time>2020-11-08T09:53:05.000Z</time>
      </trkpt>
      <trkpt lat="50.48685" lon="3.8981">
        <ele>91.77</ele>
        <time>2020-11-08T09:53:08.000Z</time>
      </trkpt>
      <trkpt lat="50.4869" lon="3.8981">
        <ele>92.16</ele>
        <time>2020-11-08T09:53:11.000Z</time>
      </trkpt>
      <trkpt lat="50.48692" lon="3.89802">
        <ele>91.87</ele>
        <time>2020-11-08T09:53:13.000Z</time>
      </trkpt>
      <trkpt lat="50.4869" lon="3.89793">
        <ele>91.49</ele>
        <time>2020-11-08T09:53:15.000Z</time>
      </trkpt>
      <trkpt lat="50.48686" lon="3.89791">
        <ele>91.68</ele>
        <time>2020-11-08T09:53:17.000Z</time>
      </trkpt>
      <trkpt lat="50.48684" lon="3.89798">
        <ele>91.18</ele>
        <time>2020-11-08T09:53:20.000Z</time>
      </trkpt>
      <trkpt lat="50.48657" lon="3.89825">
        <ele>90.63</ele>
        <time>2020-11-08T09:53:30.000Z</time>
      </trkpt>
      <trkpt lat="50.48653" lon="3.89831">
        <ele>90.73</ele>
        <time>2020-11-08T09:53:32.000Z</time>
      </trkpt>
      <trkpt lat="50.48656" lon="3.89837">
        <ele>90.86</ele>
        <time>2020-11-08T09:53:34.000Z</time>
      </trkpt>
      <trkpt lat="50.48661" lon="3.89842">
        <ele>91.98</ele>
        <time>2020-11-08T09:53:36.000Z</time>
      </trkpt>
      <trkpt lat="50.48667" lon="3.89847">
        <ele>91.49</ele>
        <time>2020-11-08T09:53:38.000Z</time>
      </trkpt>
      <trkpt lat="50.48674" lon="3.89847">
        <ele>91.77</ele>
        <time>2020-11-08T09:53:40.000Z</time>
      </trkpt>
      <trkpt lat="50.48681" lon="3.89844">
        <ele>91.78</ele>
        <time>2020-11-08T09:53:42.000Z</time>
      </trkpt>
      <trkpt lat="50.48688" lon="3.89845">
        <ele>91.79</ele>
        <time>2020-11-08T09:53:44.000Z</time>
      </trkpt>
      <trkpt lat="50.48696" lon="3.89848">
        <ele>92.91</ele>
        <time>2020-11-08T09:53:46.000Z</time>
      </trkpt>
      <trkpt lat="50.48701" lon="3.89851">
        <ele>93.99</ele>
        <time>2020-11-08T09:53:48.000Z</time>
      </trkpt>
      <trkpt lat="50.48703" lon="3.89857">
        <ele>94.23</ele>
        <time>2020-11-08T09:53:50.000Z</time>
      </trkpt>
      <trkpt lat="50.48707" lon="3.89862">
        <ele>94.58</ele>
        <time>2020-11-08T09:53:53.000Z</time>
      </trkpt>
      <trkpt lat="50.48711" lon="3.89868">
        <ele>94.9</ele>
        <time>2020-11-08T09:53:56.000Z</time>
      </trkpt>
      <trkpt lat="50.48713" lon="3.89874">
        <ele>94.75</ele>
        <time>2020-11-08T09:53:59.000Z</time>
      </trkpt>
      <trkpt lat="50.48716" lon="3.89881">
        <ele>94.97</ele>
        <time>2020-11-08T09:54:02.000Z</time>
      </trkpt>
      <trkpt lat="50.4872" lon="3.89889">
        <ele>95.28</ele>
        <time>2020-11-08T09:54:06.000Z</time>
      </trkpt>
      <trkpt lat="50.48689" lon="3.89866">
        <ele>91.57</ele>
        <time>2020-11-08T09:54:18.000Z</time>
      </trkpt>
      <trkpt lat="50.48684" lon="3.89858">
        <ele>91.95</ele>
        <time>2020-11-08T09:54:20.000Z</time>
      </trkpt>
      <trkpt lat="50.48683" lon="3.89851">
        <ele>91.53</ele>
        <time>2020-11-08T09:54:22.000Z</time>
      </trkpt>
      <trkpt lat="50.48684" lon="3.89842">
        <ele>91.88</ele>
        <time>2020-11-08T09:54:24.000Z</time>
      </trkpt>
      <trkpt lat="50.48686" lon="3.89828">
        <ele>91.19</ele>
        <time>2020-11-08T09:54:27.000Z</time>
      </trkpt>
      <trkpt lat="50.4869" lon="3.89821">
        <ele>91.89</ele>
        <time>2020-11-08T09:54:29.000Z</time>
      </trkpt>
      <trkpt lat="50.48696" lon="3.89823">
        <ele>91.42</ele>
        <time>2020-11-08T09:54:32.000Z</time>
      </trkpt>
      <trkpt lat="50.487" lon="3.89827">
        <ele>91.26</ele>
        <time>2020-11-08T09:54:34.000Z</time>
      </trkpt>
      <trkpt lat="50.48706" lon="3.89831">
        <ele>91.34</ele>
        <time>2020-11-08T09:54:37.000Z</time>
      </trkpt>
      <trkpt lat="50.48711" lon="3.89835">
        <ele>91.49</ele>
        <time>2020-11-08T09:54:40.000Z</time>
      </trkpt>
      <trkpt lat="50.48711" lon="3.89835">
        <ele>91.49</ele>
        <time>2020-11-08T09:54:40.001Z</time>
      </trkpt>
      <trkpt lat="50.48712" lon="3.89843">
        <ele>88.99</ele>
        <time>2020-11-08T09:57:37.000Z</time>
      </trkpt>
      <trkpt lat="50.48717" lon="3.89851">
        <ele>88.99</ele>
        <time>2020-11-08T09:57:40.000Z</time>
      </trkpt>
      <trkpt lat="50.48721" lon="3.89859">
        <ele>89.54</ele>
        <time>2020-11-08T09:57:42.000Z</time>
      </trkpt>
      <trkpt lat="50.48725" lon="3.89864">
        <ele>89.49</ele>
        <time>2020-11-08T09:57:43.000Z</time>
      </trkpt>
      <trkpt lat="50.48729" lon="3.8987">
        <ele>89.89</ele>
        <time>2020-11-08T09:57:44.000Z</time>
      </trkpt>
      <trkpt lat="50.48732" lon="3.89877">
        <ele>90.11</ele>
        <time>2020-11-08T09:57:45.000Z</time>
      </trkpt>
      <trkpt lat="50.48735" lon="3.89883">
        <ele>90.07</ele>
        <time>2020-11-08T09:57:46.000Z</time>
      </trkpt>
      <trkpt lat="50.4874" lon="3.89889">
        <ele>90.01</ele>
        <time>2020-11-08T09:57:47.000Z</time>
      </trkpt>
      <trkpt lat="50.48744" lon="3.89895">
        <ele>89.99</ele>
        <time>2020-11-08T09:57:48.000Z</time>
      </trkpt>
      <trkpt lat="50.48748" lon="3.899">
        <ele>89.66</ele>
        <time>2020-11-08T09:57:49.000Z</time>
      </trkpt>
      <trkpt lat="50.48751" lon="3.89907">
        <ele>90.04</ele>
        <time>2020-11-08T09:57:50.000Z</time>
      </trkpt>
      <trkpt lat="50.48754" lon="3.89916">
        <ele>90.38</ele>
        <time>2020-11-08T09:57:51.000Z</time>
      </trkpt>
      <trkpt lat="50.48757" lon="3.89924">
        <ele>90.92</ele>
        <time>2020-11-08T09:57:52.000Z</time>
      </trkpt>
      <trkpt lat="50.48761" lon="3.89931">
        <ele>92.06</ele>
        <time>2020-11-08T09:57:53.000Z</time>
      </trkpt>
      <trkpt lat="50.48764" lon="3.89938">
        <ele>92.65</ele>
        <time>2020-11-08T09:57:54.000Z</time>
      </trkpt>
      <trkpt lat="50.48768" lon="3.89946">
        <ele>92.19</ele>
        <time>2020-11-08T09:57:55.000Z</time>
      </trkpt>
      <trkpt lat="50.48771" lon="3.89953">
        <ele>92.47</ele>
        <time>2020-11-08T09:57:56.000Z</time>
      </trkpt>
      <trkpt lat="50.48774" lon="3.8996">
        <ele>92.76</ele>
        <time>2020-11-08T09:57:57.000Z</time>
      </trkpt>
      <trkpt lat="50.48776" lon="3.89967">
        <ele>93.17</ele>
        <time>2020-11-08T09:57:58.000Z</time>
      </trkpt>
      <trkpt lat="50.48779" lon="3.89974">
        <ele>93.49</ele>
        <time>2020-11-08T09:57:59.000Z</time>
      </trkpt>
      <trkpt lat="50.48781" lon="3.8998">
        <ele>93.52</ele>
        <time>2020-11-08T09:58:00.000Z</time>
      </trkpt>
      <trkpt lat="50.48784" lon="3.89986">
        <ele>94.46</ele>
        <time>2020-11-08T09:58:01.000Z</time>
      </trkpt>
      <trkpt lat="50.48786" lon="3.89993">
        <ele>93.04</ele>
        <time>2020-11-08T09:58:02.000Z</time>
      </trkpt>
      <trkpt lat="50.48788" lon="3.90007">
        <ele>92.5</ele>
        <time>2020-11-08T09:58:04.000Z</time>
      </trkpt>
      <trkpt lat="50.4879" lon="3.90019">
        <ele>92.86</ele>
        <time>2020-11-08T09:58:06.000Z</time>
      </trkpt>
      <trkpt lat="50.48793" lon="3.90025">
        <ele>92.76</ele>
        <time>2020-11-08T09:58:07.000Z</time>
      </trkpt>
      <trkpt lat="50.48794" lon="3.90033">
        <ele>93.65</ele>
        <time>2020-11-08T09:58:08.000Z</time>
      </trkpt>
      <trkpt lat="50.48796" lon="3.9004">
        <ele>93.5</ele>
        <time>2020-11-08T09:58:09.000Z</time>
      </trkpt>
      <trkpt lat="50.48798" lon="3.90052">
        <ele>93.63</ele>
        <time>2020-11-08T09:58:11.000Z</time>
      </trkpt>
      <trkpt lat="50.48801" lon="3.90061">
        <ele>93.47</ele>
        <time>2020-11-08T09:58:13.000Z</time>
      </trkpt>
      <trkpt lat="50.48802" lon="3.90068">
        <ele>93.15</ele>
        <time>2020-11-08T09:58:14.000Z</time>
      </trkpt>
      <trkpt lat="50.48802" lon="3.90076">
        <ele>93.46</ele>
        <time>2020-11-08T09:58:15.000Z</time>
      </trkpt>
      <trkpt lat="50.48804" lon="3.90089">
        <ele>92.86</ele>
        <time>2020-11-08T09:58:17.000Z</time>
      </trkpt>
      <trkpt lat="50.48805" lon="3.90103">
        <ele>93.23</ele>
        <time>2020-11-08T09:58:19.000Z</time>
      </trkpt>
      <trkpt lat="50.48807" lon="3.90116">
        <ele>93.77</ele>
        <time>2020-11-08T09:58:21.000Z</time>
      </trkpt>
      <trkpt lat="50.48807" lon="3.90124">
        <ele>93.9</ele>
        <time>2020-11-08T09:58:22.000Z</time>
      </trkpt>
      <trkpt lat="50.48807" lon="3.90133">
        <ele>94.16</ele>
        <time>2020-11-08T09:58:23.000Z</time>
      </trkpt>
      <trkpt lat="50.48807" lon="3.90142">
        <ele>94.37</ele>
        <time>2020-11-08T09:58:24.000Z</time>
      </trkpt>
      <trkpt lat="50.48806" lon="3.9015">
        <ele>94.25</ele>
        <time>2020-11-08T09:58:25.000Z</time>
      </trkpt>
      <trkpt lat="50.48805" lon="3.9016">
        <ele>94.83</ele>
        <time>2020-11-08T09:58:27.000Z</time>
      </trkpt>
      <trkpt lat="50.48805" lon="3.90167">
        <ele>94.91</ele>
        <time>2020-11-08T09:58:29.000Z</time>
      </trkpt>
      <trkpt lat="50.48804" lon="3.90177">
        <ele>94.89</ele>
        <time>2020-11-08T09:58:31.000Z</time>
      </trkpt>
      <trkpt lat="50.48802" lon="3.90191">
        <ele>94.71</ele>
        <time>2020-11-08T09:58:33.000Z</time>
      </trkpt>
      <trkpt lat="50.48802" lon="3.90198">
        <ele>94.13</ele>
        <time>2020-11-08T09:58:34.000Z</time>
      </trkpt>
      <trkpt lat="50.48801" lon="3.90211">
        <ele>93.5</ele>
        <time>2020-11-08T09:58:36.000Z</time>
      </trkpt>
      <trkpt lat="50.488" lon="3.90224">
        <ele>93.61</ele>
        <time>2020-11-08T09:58:38.000Z</time>
      </trkpt>
      <trkpt lat="50.488" lon="3.90236">
        <ele>93.72</ele>
        <time>2020-11-08T09:58:40.000Z</time>
      </trkpt>
      <trkpt lat="50.48802" lon="3.90243">
        <ele>94.16</ele>
        <time>2020-11-08T09:58:42.000Z</time>
      </trkpt>
      <trkpt lat="50.48807" lon="3.90243">
        <ele>93.88</ele>
        <time>2020-11-08T09:58:44.000Z</time>
      </trkpt>
      <trkpt lat="50.4881" lon="3.90233">
        <ele>94.49</ele>
        <time>2020-11-08T09:58:46.000Z</time>
      </trkpt>
      <trkpt lat="50.48812" lon="3.90223">
        <ele>93.78</ele>
        <time>2020-11-08T09:58:48.000Z</time>
      </trkpt>
      <trkpt lat="50.48815" lon="3.90212">
        <ele>94.06</ele>
        <time>2020-11-08T09:58:50.000Z</time>
      </trkpt>
      <trkpt lat="50.48818" lon="3.90201">
        <ele>94.33</ele>
        <time>2020-11-08T09:58:52.000Z</time>
      </trkpt>
      <trkpt lat="50.4882" lon="3.90194">
        <ele>94.5</ele>
        <time>2020-11-08T09:58:53.000Z</time>
      </trkpt>
      <trkpt lat="50.48821" lon="3.90187">
        <ele>94.39</ele>
        <time>2020-11-08T09:58:54.000Z</time>
      </trkpt>
      <trkpt lat="50.48822" lon="3.9018">
        <ele>94.33</ele>
        <time>2020-11-08T09:58:55.000Z</time>
      </trkpt>
      <trkpt lat="50.48822" lon="3.90172">
        <ele>94.21</ele>
        <time>2020-11-08T09:58:56.000Z</time>
      </trkpt>
      <trkpt lat="50.48822" lon="3.90165">
        <ele>94.21</ele>
        <time>2020-11-08T09:58:57.000Z</time>
      </trkpt>
      <trkpt lat="50.48823" lon="3.90157">
        <ele>94.49</ele>
        <time>2020-11-08T09:58:58.000Z</time>
      </trkpt>
      <trkpt lat="50.48823" lon="3.9015">
        <ele>94.92</ele>
        <time>2020-11-08T09:58:59.000Z</time>
      </trkpt>
      <trkpt lat="50.48823" lon="3.90143">
        <ele>95.37</ele>
        <time>2020-11-08T09:59:00.000Z</time>
      </trkpt>
      <trkpt lat="50.48822" lon="3.90135">
        <ele>95.49</ele>
        <time>2020-11-08T09:59:01.000Z</time>
      </trkpt>
      <trkpt lat="50.48822" lon="3.90127">
        <ele>95.84</ele>
        <time>2020-11-08T09:59:02.000Z</time>
      </trkpt>
      <trkpt lat="50.48822" lon="3.90119">
        <ele>96.24</ele>
        <time>2020-11-08T09:59:03.000Z</time>
      </trkpt>
      <trkpt lat="50.48823" lon="3.90105">
        <ele>96.89</ele>
        <time>2020-11-08T09:59:05.000Z</time>
      </trkpt>
      <trkpt lat="50.48823" lon="3.90098">
        <ele>97</ele>
        <time>2020-11-08T09:59:06.000Z</time>
      </trkpt>
      <trkpt lat="50.48826" lon="3.90085">
        <ele>97.43</ele>
        <time>2020-11-08T09:59:08.000Z</time>
      </trkpt>
      <trkpt lat="50.48829" lon="3.90079">
        <ele>97.51</ele>
        <time>2020-11-08T09:59:09.000Z</time>
      </trkpt>
      <trkpt lat="50.48831" lon="3.90072">
        <ele>97.98</ele>
        <time>2020-11-08T09:59:10.000Z</time>
      </trkpt>
      <trkpt lat="50.48833" lon="3.90066">
        <ele>98.2</ele>
        <time>2020-11-08T09:59:11.000Z</time>
      </trkpt>
      <trkpt lat="50.48834" lon="3.90059">
        <ele>98.41</ele>
        <time>2020-11-08T09:59:12.000Z</time>
      </trkpt>
      <trkpt lat="50.48836" lon="3.90051">
        <ele>98.53</ele>
        <time>2020-11-08T09:59:13.000Z</time>
      </trkpt>
      <trkpt lat="50.48838" lon="3.90044">
        <ele>98.43</ele>
        <time>2020-11-08T09:59:14.000Z</time>
      </trkpt>
      <trkpt lat="50.48839" lon="3.90036">
        <ele>98.6</ele>
        <time>2020-11-08T09:59:15.000Z</time>
      </trkpt>
      <trkpt lat="50.48841" lon="3.90029">
        <ele>98.75</ele>
        <time>2020-11-08T09:59:16.000Z</time>
      </trkpt>
      <trkpt lat="50.48843" lon="3.90022">
        <ele>98.83</ele>
        <time>2020-11-08T09:59:17.000Z</time>
      </trkpt>
      <trkpt lat="50.48844" lon="3.90014">
        <ele>99.21</ele>
        <time>2020-11-08T09:59:18.000Z</time>
      </trkpt>
      <trkpt lat="50.48846" lon="3.90006">
        <ele>99.37</ele>
        <time>2020-11-08T09:59:19.000Z</time>
      </trkpt>
      <trkpt lat="50.48848" lon="3.89999">
        <ele>99.56</ele>
        <time>2020-11-08T09:59:20.000Z</time>
      </trkpt>
      <trkpt lat="50.48849" lon="3.89991">
        <ele>99.84</ele>
        <time>2020-11-08T09:59:21.000Z</time>
      </trkpt>
      <trkpt lat="50.48851" lon="3.89983">
        <ele>100.08</ele>
        <time>2020-11-08T09:59:22.000Z</time>
      </trkpt>
      <trkpt lat="50.48853" lon="3.89976">
        <ele>100.4</ele>
        <time>2020-11-08T09:59:23.000Z</time>
      </trkpt>
      <trkpt lat="50.48854" lon="3.89968">
        <ele>100.41</ele>
        <time>2020-11-08T09:59:24.000Z</time>
      </trkpt>
      <trkpt lat="50.48856" lon="3.89961">
        <ele>100.72</ele>
        <time>2020-11-08T09:59:25.000Z</time>
      </trkpt>
      <trkpt lat="50.48858" lon="3.89953">
        <ele>100.86</ele>
        <time>2020-11-08T09:59:26.000Z</time>
      </trkpt>
      <trkpt lat="50.4886" lon="3.89946">
        <ele>101.34</ele>
        <time>2020-11-08T09:59:27.000Z</time>
      </trkpt>
      <trkpt lat="50.48862" lon="3.89938">
        <ele>101.3</ele>
        <time>2020-11-08T09:59:28.000Z</time>
      </trkpt>
      <trkpt lat="50.48864" lon="3.89931">
        <ele>101.25</ele>
        <time>2020-11-08T09:59:29.000Z</time>
      </trkpt>
      <trkpt lat="50.48866" lon="3.89923">
        <ele>101.36</ele>
        <time>2020-11-08T09:59:30.000Z</time>
      </trkpt>
      <trkpt lat="50.48868" lon="3.89916">
        <ele>101.46</ele>
        <time>2020-11-08T09:59:31.000Z</time>
      </trkpt>
      <trkpt lat="50.4887" lon="3.89908">
        <ele>101.33</ele>
        <time>2020-11-08T09:59:32.000Z</time>
      </trkpt>
      <trkpt lat="50.48872" lon="3.89901">
        <ele>101.6</ele>
        <time>2020-11-08T09:59:33.000Z</time>
      </trkpt>
      <trkpt lat="50.48874" lon="3.89893">
        <ele>101.39</ele>
        <time>2020-11-08T09:59:34.000Z</time>
      </trkpt>
      <trkpt lat="50.48876" lon="3.89885">
        <ele>101.54</ele>
        <time>2020-11-08T09:59:35.000Z</time>
      </trkpt>
      <trkpt lat="50.48879" lon="3.89878">
        <ele>101.74</ele>
        <time>2020-11-08T09:59:36.000Z</time>
      </trkpt>
      <trkpt lat="50.48881" lon="3.8987">
        <ele>101.65</ele>
        <time>2020-11-08T09:59:37.000Z</time>
      </trkpt>
      <trkpt lat="50.48883" lon="3.89863">
        <ele>101.65</ele>
        <time>2020-11-08T09:59:38.000Z</time>
      </trkpt>
      <trkpt lat="50.48886" lon="3.89855">
        <ele>101.63</ele>
        <time>2020-11-08T09:59:39.000Z</time>
      </trkpt>
      <trkpt lat="50.48888" lon="3.89848">
        <ele>101.52</ele>
        <time>2020-11-08T09:59:40.000Z</time>
      </trkpt>
      <trkpt lat="50.4889" lon="3.89841">
        <ele>101.72</ele>
        <time>2020-11-08T09:59:41.000Z</time>
      </trkpt>
      <trkpt lat="50.48893" lon="3.89834">
        <ele>101.79</ele>
        <time>2020-11-08T09:59:42.000Z</time>
      </trkpt>
      <trkpt lat="50.48895" lon="3.89826">
        <ele>101.78</ele>
        <time>2020-11-08T09:59:43.000Z</time>
      </trkpt>
      <trkpt lat="50.48898" lon="3.89819">
        <ele>101.87</ele>
        <time>2020-11-08T09:59:44.000Z</time>
      </trkpt>
      <trkpt lat="50.489" lon="3.89812">
        <ele>101.99</ele>
        <time>2020-11-08T09:59:45.000Z</time>
      </trkpt>
      <trkpt lat="50.48902" lon="3.89806">
        <ele>101.83</ele>
        <time>2020-11-08T09:59:46.000Z</time>
      </trkpt>
      <trkpt lat="50.48904" lon="3.89799">
        <ele>102.14</ele>
        <time>2020-11-08T09:59:47.000Z</time>
      </trkpt>
      <trkpt lat="50.48906" lon="3.89792">
        <ele>102.06</ele>
        <time>2020-11-08T09:59:48.000Z</time>
      </trkpt>
      <trkpt lat="50.48907" lon="3.89784">
        <ele>102.01</ele>
        <time>2020-11-08T09:59:49.000Z</time>
      </trkpt>
      <trkpt lat="50.48905" lon="3.8977">
        <ele>100.97</ele>
        <time>2020-11-08T09:59:51.000Z</time>
      </trkpt>
      <trkpt lat="50.48903" lon="3.89764">
        <ele>100.47</ele>
        <time>2020-11-08T09:59:52.000Z</time>
      </trkpt>
      <trkpt lat="50.48903" lon="3.89755">
        <ele>100.26</ele>
        <time>2020-11-08T09:59:53.000Z</time>
      </trkpt>
      <trkpt lat="50.48906" lon="3.89744">
        <ele>99.62</ele>
        <time>2020-11-08T09:59:55.000Z</time>
      </trkpt>
      <trkpt lat="50.48907" lon="3.89731">
        <ele>98.82</ele>
        <time>2020-11-08T09:59:57.000Z</time>
      </trkpt>
      <trkpt lat="50.48903" lon="3.8972">
        <ele>97.56</ele>
        <time>2020-11-08T09:59:59.000Z</time>
      </trkpt>
      <trkpt lat="50.48899" lon="3.89714">
        <ele>97.22</ele>
        <time>2020-11-08T10:00:00.000Z</time>
      </trkpt>
      <trkpt lat="50.48896" lon="3.89702">
        <ele>95.74</ele>
        <time>2020-11-08T10:00:02.000Z</time>
      </trkpt>
      <trkpt lat="50.48897" lon="3.8969">
        <ele>95.79</ele>
        <time>2020-11-08T10:00:04.000Z</time>
      </trkpt>
      <trkpt lat="50.48893" lon="3.89682">
        <ele>95.1</ele>
        <time>2020-11-08T10:00:06.000Z</time>
      </trkpt>
      <trkpt lat="50.48888" lon="3.89679">
        <ele>94.42</ele>
        <time>2020-11-08T10:00:07.000Z</time>
      </trkpt>
      <trkpt lat="50.48883" lon="3.89675">
        <ele>95.06</ele>
        <time>2020-11-08T10:00:08.000Z</time>
      </trkpt>
      <trkpt lat="50.48879" lon="3.89669">
        <ele>95.05</ele>
        <time>2020-11-08T10:00:09.000Z</time>
      </trkpt>
      <trkpt lat="50.48876" lon="3.89661">
        <ele>94.6</ele>
        <time>2020-11-08T10:00:10.000Z</time>
      </trkpt>
      <trkpt lat="50.48873" lon="3.89652">
        <ele>95.01</ele>
        <time>2020-11-08T10:00:11.000Z</time>
      </trkpt>
      <trkpt lat="50.48872" lon="3.89643">
        <ele>94.87</ele>
        <time>2020-11-08T10:00:12.000Z</time>
      </trkpt>
      <trkpt lat="50.48869" lon="3.89634">
        <ele>94.51</ele>
        <time>2020-11-08T10:00:13.000Z</time>
      </trkpt>
      <trkpt lat="50.48864" lon="3.89627">
        <ele>94.89</ele>
        <time>2020-11-08T10:00:14.000Z</time>
      </trkpt>
      <trkpt lat="50.48863" lon="3.89618">
        <ele>94.24</ele>
        <time>2020-11-08T10:00:15.000Z</time>
      </trkpt>
      <trkpt lat="50.4886" lon="3.8961">
        <ele>94.51</ele>
        <time>2020-11-08T10:00:16.000Z</time>
      </trkpt>
      <trkpt lat="50.48856" lon="3.89604">
        <ele>94.16</ele>
        <time>2020-11-08T10:00:17.000Z</time>
      </trkpt>
      <trkpt lat="50.48852" lon="3.89597">
        <ele>93.73</ele>
        <time>2020-11-08T10:00:18.000Z</time>
      </trkpt>
      <trkpt lat="50.48848" lon="3.89588">
        <ele>93.81</ele>
        <time>2020-11-08T10:00:19.000Z</time>
      </trkpt>
      <trkpt lat="50.48846" lon="3.89577">
        <ele>93.27</ele>
        <time>2020-11-08T10:00:20.000Z</time>
      </trkpt>
      <trkpt lat="50.48842" lon="3.89567">
        <ele>93.24</ele>
        <time>2020-11-08T10:00:21.000Z</time>
      </trkpt>
      <trkpt lat="50.48837" lon="3.89557">
        <ele>93.15</ele>
        <time>2020-11-08T10:00:22.000Z</time>
      </trkpt>
      <trkpt lat="50.48834" lon="3.89546">
        <ele>92.59</ele>
        <time>2020-11-08T10:00:23.000Z</time>
      </trkpt>
      <trkpt lat="50.4883" lon="3.89536">
        <ele>91.97</ele>
        <time>2020-11-08T10:00:24.000Z</time>
      </trkpt>
      <trkpt lat="50.48825" lon="3.8953">
        <ele>91.6</ele>
        <time>2020-11-08T10:00:25.000Z</time>
      </trkpt>
      <trkpt lat="50.4882" lon="3.89524">
        <ele>91.71</ele>
        <time>2020-11-08T10:00:26.000Z</time>
      </trkpt>
      <trkpt lat="50.48815" lon="3.89517">
        <ele>91.04</ele>
        <time>2020-11-08T10:00:27.000Z</time>
      </trkpt>
      <trkpt lat="50.48812" lon="3.89508">
        <ele>90.31</ele>
        <time>2020-11-08T10:00:28.000Z</time>
      </trkpt>
      <trkpt lat="50.48811" lon="3.89498">
        <ele>90.8</ele>
        <time>2020-11-08T10:00:29.000Z</time>
      </trkpt>
      <trkpt lat="50.48811" lon="3.89487">
        <ele>91.46</ele>
        <time>2020-11-08T10:00:30.000Z</time>
      </trkpt>
      <trkpt lat="50.48809" lon="3.89479">
        <ele>90.97</ele>
        <time>2020-11-08T10:00:31.000Z</time>
      </trkpt>
      <trkpt lat="50.48806" lon="3.89468">
        <ele>90.78</ele>
        <time>2020-11-08T10:00:32.000Z</time>
      </trkpt>
      <trkpt lat="50.48803" lon="3.8946">
        <ele>90.82</ele>
        <time>2020-11-08T10:00:33.000Z</time>
      </trkpt>
      <trkpt lat="50.488" lon="3.89452">
        <ele>90.6</ele>
        <time>2020-11-08T10:00:34.000Z</time>
      </trkpt>
      <trkpt lat="50.48797" lon="3.89443">
        <ele>90.65</ele>
        <time>2020-11-08T10:00:35.000Z</time>
      </trkpt>
      <trkpt lat="50.48793" lon="3.89435">
        <ele>90.61</ele>
        <time>2020-11-08T10:00:36.000Z</time>
      </trkpt>
      <trkpt lat="50.48788" lon="3.89428">
        <ele>90.42</ele>
        <time>2020-11-08T10:00:37.000Z</time>
      </trkpt>
      <trkpt lat="50.48784" lon="3.89421">
        <ele>90.05</ele>
        <time>2020-11-08T10:00:38.000Z</time>
      </trkpt>
      <trkpt lat="50.48779" lon="3.89413">
        <ele>89.93</ele>
        <time>2020-11-08T10:00:39.000Z</time>
      </trkpt>
      <trkpt lat="50.48775" lon="3.89405">
        <ele>90.62</ele>
        <time>2020-11-08T10:00:40.000Z</time>
      </trkpt>
      <trkpt lat="50.48771" lon="3.89396">
        <ele>90.44</ele>
        <time>2020-11-08T10:00:41.000Z</time>
      </trkpt>
      <trkpt lat="50.48767" lon="3.89388">
        <ele>89.85</ele>
        <time>2020-11-08T10:00:42.000Z</time>
      </trkpt>
      <trkpt lat="50.48762" lon="3.8938">
        <ele>89.61</ele>
        <time>2020-11-08T10:00:43.000Z</time>
      </trkpt>
      <trkpt lat="50.48758" lon="3.89372">
        <ele>89.64</ele>
        <time>2020-11-08T10:00:44.000Z</time>
      </trkpt>
      <trkpt lat="50.48755" lon="3.89365">
        <ele>89.98</ele>
        <time>2020-11-08T10:00:45.000Z</time>
      </trkpt>
      <trkpt lat="50.48752" lon="3.89358">
        <ele>89.23</ele>
        <time>2020-11-08T10:00:46.000Z</time>
      </trkpt>
      <trkpt lat="50.48748" lon="3.89352">
        <ele>89.4</ele>
        <time>2020-11-08T10:00:47.000Z</time>
      </trkpt>
      <trkpt lat="50.48746" lon="3.89344">
        <ele>88.89</ele>
        <time>2020-11-08T10:00:48.000Z</time>
      </trkpt>
      <trkpt lat="50.48744" lon="3.89335">
        <ele>88.86</ele>
        <time>2020-11-08T10:00:49.000Z</time>
      </trkpt>
      <trkpt lat="50.4874" lon="3.89327">
        <ele>89.52</ele>
        <time>2020-11-08T10:00:50.000Z</time>
      </trkpt>
      <trkpt lat="50.48737" lon="3.89321">
        <ele>90.81</ele>
        <time>2020-11-08T10:00:51.000Z</time>
      </trkpt>
      <trkpt lat="50.48734" lon="3.89315">
        <ele>91.35</ele>
        <time>2020-11-08T10:00:52.000Z</time>
      </trkpt>
      <trkpt lat="50.48731" lon="3.8931">
        <ele>91.56</ele>
        <time>2020-11-08T10:00:53.000Z</time>
      </trkpt>
      <trkpt lat="50.48727" lon="3.89305">
        <ele>91.86</ele>
        <time>2020-11-08T10:00:54.000Z</time>
      </trkpt>
      <trkpt lat="50.48721" lon="3.89295">
        <ele>92.76</ele>
        <time>2020-11-08T10:00:56.000Z</time>
      </trkpt>
      <trkpt lat="50.48719" lon="3.89288">
        <ele>92.88</ele>
        <time>2020-11-08T10:00:57.000Z</time>
      </trkpt>
      <trkpt lat="50.48715" lon="3.89277">
        <ele>93.43</ele>
        <time>2020-11-08T10:00:59.000Z</time>
      </trkpt>
      <trkpt lat="50.48708" lon="3.89269">
        <ele>92.99</ele>
        <time>2020-11-08T10:01:01.000Z</time>
      </trkpt>
      <trkpt lat="50.48705" lon="3.89263">
        <ele>93.63</ele>
        <time>2020-11-08T10:01:02.000Z</time>
      </trkpt>
      <trkpt lat="50.48702" lon="3.89257">
        <ele>93.67</ele>
        <time>2020-11-08T10:01:03.000Z</time>
      </trkpt>
      <trkpt lat="50.48697" lon="3.89245">
        <ele>93.7</ele>
        <time>2020-11-08T10:01:05.000Z</time>
      </trkpt>
      <trkpt lat="50.48695" lon="3.89238">
        <ele>93.92</ele>
        <time>2020-11-08T10:01:06.000Z</time>
      </trkpt>
      <trkpt lat="50.48692" lon="3.89232">
        <ele>93.91</ele>
        <time>2020-11-08T10:01:07.000Z</time>
      </trkpt>
      <trkpt lat="50.4869" lon="3.89225">
        <ele>94.04</ele>
        <time>2020-11-08T10:01:08.000Z</time>
      </trkpt>
      <trkpt lat="50.48687" lon="3.89218">
        <ele>93.9</ele>
        <time>2020-11-08T10:01:09.000Z</time>
      </trkpt>
      <trkpt lat="50.48684" lon="3.89212">
        <ele>94.2</ele>
        <time>2020-11-08T10:01:10.000Z</time>
      </trkpt>
      <trkpt lat="50.48682" lon="3.89205">
        <ele>94.24</ele>
        <time>2020-11-08T10:01:11.000Z</time>
      </trkpt>
      <trkpt lat="50.4868" lon="3.89197">
        <ele>94.13</ele>
        <time>2020-11-08T10:01:12.000Z</time>
      </trkpt>
      <trkpt lat="50.48678" lon="3.89188">
        <ele>94.16</ele>
        <time>2020-11-08T10:01:13.000Z</time>
      </trkpt>
      <trkpt lat="50.48676" lon="3.8918">
        <ele>94.48</ele>
        <time>2020-11-08T10:01:14.000Z</time>
      </trkpt>
      <trkpt lat="50.48674" lon="3.89173">
        <ele>93.76</ele>
        <time>2020-11-08T10:01:15.000Z</time>
      </trkpt>
      <trkpt lat="50.48672" lon="3.89165">
        <ele>93.76</ele>
        <time>2020-11-08T10:01:16.000Z</time>
      </trkpt>
      <trkpt lat="50.48669" lon="3.89157">
        <ele>93.63</ele>
        <time>2020-11-08T10:01:17.000Z</time>
      </trkpt>
      <trkpt lat="50.48667" lon="3.8915">
        <ele>93.47</ele>
        <time>2020-11-08T10:01:18.000Z</time>
      </trkpt>
      <trkpt lat="50.48665" lon="3.89142">
        <ele>93.41</ele>
        <time>2020-11-08T10:01:19.000Z</time>
      </trkpt>
      <trkpt lat="50.48663" lon="3.89135">
        <ele>93.41</ele>
        <time>2020-11-08T10:01:20.000Z</time>
      </trkpt>
      <trkpt lat="50.4866" lon="3.89128">
        <ele>93.61</ele>
        <time>2020-11-08T10:01:21.000Z</time>
      </trkpt>
      <trkpt lat="50.48656" lon="3.8912">
        <ele>93.84</ele>
        <time>2020-11-08T10:01:22.000Z</time>
      </trkpt>
      <trkpt lat="50.48652" lon="3.89114">
        <ele>93.93</ele>
        <time>2020-11-08T10:01:23.000Z</time>
      </trkpt>
      <trkpt lat="50.48647" lon="3.89107">
        <ele>93.73</ele>
        <time>2020-11-08T10:01:24.000Z</time>
      </trkpt>
      <trkpt lat="50.48644" lon="3.891">
        <ele>93.33</ele>
        <time>2020-11-08T10:01:25.000Z</time>
      </trkpt>
      <trkpt lat="50.4864" lon="3.89092">
        <ele>92.97</ele>
        <time>2020-11-08T10:01:26.000Z</time>
      </trkpt>
      <trkpt lat="50.48638" lon="3.89084">
        <ele>93.26</ele>
        <time>2020-11-08T10:01:27.000Z</time>
      </trkpt>
      <trkpt lat="50.48638" lon="3.89076">
        <ele>93.44</ele>
        <time>2020-11-08T10:01:28.000Z</time>
      </trkpt>
      <trkpt lat="50.48639" lon="3.89069">
        <ele>93.98</ele>
        <time>2020-11-08T10:01:29.000Z</time>
      </trkpt>
      <trkpt lat="50.48646" lon="3.89059">
        <ele>95.18</ele>
        <time>2020-11-08T10:01:31.000Z</time>
      </trkpt>
      <trkpt lat="50.4865" lon="3.89055">
        <ele>95.69</ele>
        <time>2020-11-08T10:01:32.000Z</time>
      </trkpt>
      <trkpt lat="50.48654" lon="3.89051">
        <ele>95.07</ele>
        <time>2020-11-08T10:01:33.000Z</time>
      </trkpt>
      <trkpt lat="50.48658" lon="3.89046">
        <ele>95.79</ele>
        <time>2020-11-08T10:01:34.000Z</time>
      </trkpt>
      <trkpt lat="50.48662" lon="3.89042">
        <ele>96.33</ele>
        <time>2020-11-08T10:01:35.000Z</time>
      </trkpt>
      <trkpt lat="50.48665" lon="3.89038">
        <ele>96.58</ele>
        <time>2020-11-08T10:01:36.000Z</time>
      </trkpt>
      <trkpt lat="50.48673" lon="3.8903">
        <ele>97.45</ele>
        <time>2020-11-08T10:01:38.000Z</time>
      </trkpt>
      <trkpt lat="50.4868" lon="3.89021">
        <ele>98.16</ele>
        <time>2020-11-08T10:01:40.000Z</time>
      </trkpt>
      <trkpt lat="50.48684" lon="3.89017">
        <ele>98.05</ele>
        <time>2020-11-08T10:01:41.000Z</time>
      </trkpt>
      <trkpt lat="50.48692" lon="3.89009">
        <ele>97.97</ele>
        <time>2020-11-08T10:01:43.000Z</time>
      </trkpt>
      <trkpt lat="50.48696" lon="3.89005">
        <ele>98.46</ele>
        <time>2020-11-08T10:01:44.000Z</time>
      </trkpt>
      <trkpt lat="50.487" lon="3.89001">
        <ele>98.83</ele>
        <time>2020-11-08T10:01:45.000Z</time>
      </trkpt>
      <trkpt lat="50.48704" lon="3.88997">
        <ele>99.23</ele>
        <time>2020-11-08T10:01:46.000Z</time>
      </trkpt>
      <trkpt lat="50.48708" lon="3.88993">
        <ele>99.37</ele>
        <time>2020-11-08T10:01:47.000Z</time>
      </trkpt>
      <trkpt lat="50.48712" lon="3.8899">
        <ele>99.38</ele>
        <time>2020-11-08T10:01:48.000Z</time>
      </trkpt>
      <trkpt lat="50.48717" lon="3.88986">
        <ele>99.66</ele>
        <time>2020-11-08T10:01:49.000Z</time>
      </trkpt>
      <trkpt lat="50.48721" lon="3.88982">
        <ele>99.45</ele>
        <time>2020-11-08T10:01:50.000Z</time>
      </trkpt>
      <trkpt lat="50.48725" lon="3.88977">
        <ele>99.17</ele>
        <time>2020-11-08T10:01:51.000Z</time>
      </trkpt>
      <trkpt lat="50.48729" lon="3.88973">
        <ele>99.68</ele>
        <time>2020-11-08T10:01:52.000Z</time>
      </trkpt>
      <trkpt lat="50.48733" lon="3.88968">
        <ele>99.88</ele>
        <time>2020-11-08T10:01:53.000Z</time>
      </trkpt>
      <trkpt lat="50.48738" lon="3.88964">
        <ele>100.1</ele>
        <time>2020-11-08T10:01:54.000Z</time>
      </trkpt>
      <trkpt lat="50.48742" lon="3.8896">
        <ele>99.78</ele>
        <time>2020-11-08T10:01:55.000Z</time>
      </trkpt>
      <trkpt lat="50.48747" lon="3.88955">
        <ele>100.28</ele>
        <time>2020-11-08T10:01:56.000Z</time>
      </trkpt>
      <trkpt lat="50.48751" lon="3.8895">
        <ele>99.79</ele>
        <time>2020-11-08T10:01:57.000Z</time>
      </trkpt>
      <trkpt lat="50.48756" lon="3.88946">
        <ele>100.07</ele>
        <time>2020-11-08T10:01:58.000Z</time>
      </trkpt>
      <trkpt lat="50.4876" lon="3.88941">
        <ele>100.07</ele>
        <time>2020-11-08T10:01:59.000Z</time>
      </trkpt>
      <trkpt lat="50.48764" lon="3.88937">
        <ele>100.53</ele>
        <time>2020-11-08T10:02:00.000Z</time>
      </trkpt>
      <trkpt lat="50.48769" lon="3.88932">
        <ele>100.8</ele>
        <time>2020-11-08T10:02:01.000Z</time>
      </trkpt>
      <trkpt lat="50.48772" lon="3.88927">
        <ele>101.2</ele>
        <time>2020-11-08T10:02:02.000Z</time>
      </trkpt>
      <trkpt lat="50.48776" lon="3.88923">
        <ele>101.06</ele>
        <time>2020-11-08T10:02:03.000Z</time>
      </trkpt>
      <trkpt lat="50.4878" lon="3.88918">
        <ele>101.96</ele>
        <time>2020-11-08T10:02:04.000Z</time>
      </trkpt>
      <trkpt lat="50.48784" lon="3.88913">
        <ele>102.4</ele>
        <time>2020-11-08T10:02:05.000Z</time>
      </trkpt>
      <trkpt lat="50.48788" lon="3.88909">
        <ele>102.98</ele>
        <time>2020-11-08T10:02:06.000Z</time>
      </trkpt>
      <trkpt lat="50.48792" lon="3.88905">
        <ele>103.5</ele>
        <time>2020-11-08T10:02:07.000Z</time>
      </trkpt>
      <trkpt lat="50.48796" lon="3.889">
        <ele>103.08</ele>
        <time>2020-11-08T10:02:08.000Z</time>
      </trkpt>
      <trkpt lat="50.488" lon="3.88896">
        <ele>102.91</ele>
        <time>2020-11-08T10:02:09.000Z</time>
      </trkpt>
      <trkpt lat="50.48807" lon="3.88887">
        <ele>103.26</ele>
        <time>2020-11-08T10:02:11.000Z</time>
      </trkpt>
      <trkpt lat="50.48812" lon="3.88883">
        <ele>103.6</ele>
        <time>2020-11-08T10:02:12.000Z</time>
      </trkpt>
      <trkpt lat="50.48816" lon="3.88878">
        <ele>104.24</ele>
        <time>2020-11-08T10:02:13.000Z</time>
      </trkpt>
      <trkpt lat="50.4882" lon="3.88873">
        <ele>103.84</ele>
        <time>2020-11-08T10:02:14.000Z</time>
      </trkpt>
      <trkpt lat="50.48827" lon="3.88865">
        <ele>104.68</ele>
        <time>2020-11-08T10:02:16.000Z</time>
      </trkpt>
      <trkpt lat="50.48831" lon="3.88861">
        <ele>104.6</ele>
        <time>2020-11-08T10:02:17.000Z</time>
      </trkpt>
      <trkpt lat="50.48835" lon="3.88857">
        <ele>104.59</ele>
        <time>2020-11-08T10:02:18.000Z</time>
      </trkpt>
      <trkpt lat="50.48839" lon="3.88852">
        <ele>104.99</ele>
        <time>2020-11-08T10:02:19.000Z</time>
      </trkpt>
      <trkpt lat="50.48843" lon="3.88848">
        <ele>105.11</ele>
        <time>2020-11-08T10:02:20.000Z</time>
      </trkpt>
      <trkpt lat="50.48847" lon="3.88843">
        <ele>105.36</ele>
        <time>2020-11-08T10:02:21.000Z</time>
      </trkpt>
      <trkpt lat="50.48852" lon="3.88837">
        <ele>105.41</ele>
        <time>2020-11-08T10:02:22.000Z</time>
      </trkpt>
      <trkpt lat="50.48857" lon="3.88832">
        <ele>105.54</ele>
        <time>2020-11-08T10:02:23.000Z</time>
      </trkpt>
      <trkpt lat="50.48862" lon="3.88828">
        <ele>105.78</ele>
        <time>2020-11-08T10:02:24.000Z</time>
      </trkpt>
      <trkpt lat="50.48867" lon="3.88823">
        <ele>105.75</ele>
        <time>2020-11-08T10:02:25.000Z</time>
      </trkpt>
      <trkpt lat="50.48871" lon="3.88818">
        <ele>105.86</ele>
        <time>2020-11-08T10:02:26.000Z</time>
      </trkpt>
      <trkpt lat="50.48876" lon="3.88813">
        <ele>105.56</ele>
        <time>2020-11-08T10:02:27.000Z</time>
      </trkpt>
      <trkpt lat="50.4888" lon="3.88808">
        <ele>105.64</ele>
        <time>2020-11-08T10:02:28.000Z</time>
      </trkpt>
      <trkpt lat="50.48884" lon="3.88804">
        <ele>105.94</ele>
        <time>2020-11-08T10:02:29.000Z</time>
      </trkpt>
      <trkpt lat="50.48888" lon="3.88799">
        <ele>106.26</ele>
        <time>2020-11-08T10:02:30.000Z</time>
      </trkpt>
      <trkpt lat="50.48892" lon="3.88795">
        <ele>106.21</ele>
        <time>2020-11-08T10:02:31.000Z</time>
      </trkpt>
      <trkpt lat="50.48896" lon="3.8879">
        <ele>105.89</ele>
        <time>2020-11-08T10:02:32.000Z</time>
      </trkpt>
      <trkpt lat="50.489" lon="3.88785">
        <ele>105.76</ele>
        <time>2020-11-08T10:02:33.000Z</time>
      </trkpt>
      <trkpt lat="50.48904" lon="3.88781">
        <ele>105.86</ele>
        <time>2020-11-08T10:02:34.000Z</time>
      </trkpt>
      <trkpt lat="50.48909" lon="3.88779">
        <ele>105.9</ele>
        <time>2020-11-08T10:02:35.000Z</time>
      </trkpt>
      <trkpt lat="50.48913" lon="3.88774">
        <ele>106.03</ele>
        <time>2020-11-08T10:02:36.000Z</time>
      </trkpt>
      <trkpt lat="50.48918" lon="3.8877">
        <ele>106.14</ele>
        <time>2020-11-08T10:02:37.000Z</time>
      </trkpt>
      <trkpt lat="50.48922" lon="3.88766">
        <ele>106.56</ele>
        <time>2020-11-08T10:02:38.000Z</time>
      </trkpt>
      <trkpt lat="50.48927" lon="3.8876">
        <ele>106.75</ele>
        <time>2020-11-08T10:02:39.000Z</time>
      </trkpt>
      <trkpt lat="50.48932" lon="3.88755">
        <ele>106.31</ele>
        <time>2020-11-08T10:02:40.000Z</time>
      </trkpt>
      <trkpt lat="50.48937" lon="3.8875">
        <ele>106.87</ele>
        <time>2020-11-08T10:02:41.000Z</time>
      </trkpt>
      <trkpt lat="50.48942" lon="3.88745">
        <ele>107.13</ele>
        <time>2020-11-08T10:02:42.000Z</time>
      </trkpt>
      <trkpt lat="50.48947" lon="3.88741">
        <ele>107.86</ele>
        <time>2020-11-08T10:02:43.000Z</time>
      </trkpt>
      <trkpt lat="50.48952" lon="3.88736">
        <ele>108.31</ele>
        <time>2020-11-08T10:02:44.000Z</time>
      </trkpt>
      <trkpt lat="50.48957" lon="3.88731">
        <ele>107.89</ele>
        <time>2020-11-08T10:02:45.000Z</time>
      </trkpt>
      <trkpt lat="50.48965" lon="3.88723">
        <ele>109.11</ele>
        <time>2020-11-08T10:02:47.000Z</time>
      </trkpt>
      <trkpt lat="50.48969" lon="3.88718">
        <ele>104.11</ele>
        <time>2020-11-08T10:02:48.000Z</time>
      </trkpt>
      <trkpt lat="50.48977" lon="3.88709">
        <ele>107.41</ele>
        <time>2020-11-08T10:02:50.000Z</time>
      </trkpt>
      <trkpt lat="50.48985" lon="3.88701">
        <ele>108.42</ele>
        <time>2020-11-08T10:02:52.000Z</time>
      </trkpt>
      <trkpt lat="50.48992" lon="3.88694">
        <ele>109.65</ele>
        <time>2020-11-08T10:02:54.000Z</time>
      </trkpt>
      <trkpt lat="50.48996" lon="3.88689">
        <ele>110.28</ele>
        <time>2020-11-08T10:02:55.000Z</time>
      </trkpt>
      <trkpt lat="50.49002" lon="3.88681">
        <ele>110.49</ele>
        <time>2020-11-08T10:02:57.000Z</time>
      </trkpt>
      <trkpt lat="50.49009" lon="3.88673">
        <ele>114.54</ele>
        <time>2020-11-08T10:02:59.000Z</time>
      </trkpt>
      <trkpt lat="50.49016" lon="3.88665">
        <ele>113.39</ele>
        <time>2020-11-08T10:03:01.000Z</time>
      </trkpt>
      <trkpt lat="50.49021" lon="3.88663">
        <ele>112.36</ele>
        <time>2020-11-08T10:03:02.000Z</time>
      </trkpt>
      <trkpt lat="50.49026" lon="3.88659">
        <ele>111.35</ele>
        <time>2020-11-08T10:03:03.000Z</time>
      </trkpt>
      <trkpt lat="50.49031" lon="3.88654">
        <ele>111.25</ele>
        <time>2020-11-08T10:03:04.000Z</time>
      </trkpt>
      <trkpt lat="50.49035" lon="3.88651">
        <ele>111.57</ele>
        <time>2020-11-08T10:03:05.000Z</time>
      </trkpt>
      <trkpt lat="50.49039" lon="3.88646">
        <ele>111.36</ele>
        <time>2020-11-08T10:03:06.000Z</time>
      </trkpt>
      <trkpt lat="50.49047" lon="3.88639">
        <ele>112.63</ele>
        <time>2020-11-08T10:03:08.000Z</time>
      </trkpt>
      <trkpt lat="50.49051" lon="3.88635">
        <ele>113.3</ele>
        <time>2020-11-08T10:03:09.000Z</time>
      </trkpt>
      <trkpt lat="50.49055" lon="3.8863">
        <ele>113.88</ele>
        <time>2020-11-08T10:03:10.000Z</time>
      </trkpt>
      <trkpt lat="50.4906" lon="3.88626">
        <ele>113.42</ele>
        <time>2020-11-08T10:03:11.000Z</time>
      </trkpt>
      <trkpt lat="50.49067" lon="3.88618">
        <ele>113.8</ele>
        <time>2020-11-08T10:03:13.000Z</time>
      </trkpt>
      <trkpt lat="50.49073" lon="3.88609">
        <ele>113.8</ele>
        <time>2020-11-08T10:03:15.000Z</time>
      </trkpt>
      <trkpt lat="50.49077" lon="3.88605">
        <ele>113.38</ele>
        <time>2020-11-08T10:03:16.000Z</time>
      </trkpt>
      <trkpt lat="50.49082" lon="3.88602">
        <ele>113.74</ele>
        <time>2020-11-08T10:03:17.000Z</time>
      </trkpt>
      <trkpt lat="50.49086" lon="3.88598">
        <ele>112.89</ele>
        <time>2020-11-08T10:03:18.000Z</time>
      </trkpt>
      <trkpt lat="50.49093" lon="3.88589">
        <ele>114.29</ele>
        <time>2020-11-08T10:03:20.000Z</time>
      </trkpt>
      <trkpt lat="50.491" lon="3.88583">
        <ele>113.26</ele>
        <time>2020-11-08T10:03:22.000Z</time>
      </trkpt>
      <trkpt lat="50.49104" lon="3.88578">
        <ele>114.13</ele>
        <time>2020-11-08T10:03:23.000Z</time>
      </trkpt>
      <trkpt lat="50.49111" lon="3.88568">
        <ele>114.79</ele>
        <time>2020-11-08T10:03:25.000Z</time>
      </trkpt>
      <trkpt lat="50.49116" lon="3.88565">
        <ele>115.39</ele>
        <time>2020-11-08T10:03:26.000Z</time>
      </trkpt>
      <trkpt lat="50.4912" lon="3.88559">
        <ele>115.64</ele>
        <time>2020-11-08T10:03:27.000Z</time>
      </trkpt>
      <trkpt lat="50.49124" lon="3.88555">
        <ele>113.9</ele>
        <time>2020-11-08T10:03:28.000Z</time>
      </trkpt>
      <trkpt lat="50.49131" lon="3.88548">
        <ele>115.03</ele>
        <time>2020-11-08T10:03:30.000Z</time>
      </trkpt>
      <trkpt lat="50.49136" lon="3.88544">
        <ele>114.62</ele>
        <time>2020-11-08T10:03:31.000Z</time>
      </trkpt>
      <trkpt lat="50.49141" lon="3.88538">
        <ele>115.69</ele>
        <time>2020-11-08T10:03:32.000Z</time>
      </trkpt>
      <trkpt lat="50.49146" lon="3.88533">
        <ele>115.06</ele>
        <time>2020-11-08T10:03:33.000Z</time>
      </trkpt>
      <trkpt lat="50.49151" lon="3.88529">
        <ele>115.04</ele>
        <time>2020-11-08T10:03:34.000Z</time>
      </trkpt>
      <trkpt lat="50.49155" lon="3.88523">
        <ele>114.68</ele>
        <time>2020-11-08T10:03:35.000Z</time>
      </trkpt>
      <trkpt lat="50.4916" lon="3.88518">
        <ele>114.62</ele>
        <time>2020-11-08T10:03:36.000Z</time>
      </trkpt>
      <trkpt lat="50.49165" lon="3.88513">
        <ele>116.07</ele>
        <time>2020-11-08T10:03:37.000Z</time>
      </trkpt>
      <trkpt lat="50.49169" lon="3.88508">
        <ele>116.92</ele>
        <time>2020-11-08T10:03:38.000Z</time>
      </trkpt>
      <trkpt lat="50.49174" lon="3.88503">
        <ele>117.3</ele>
        <time>2020-11-08T10:03:39.000Z</time>
      </trkpt>
      <trkpt lat="50.49178" lon="3.88499">
        <ele>116.62</ele>
        <time>2020-11-08T10:03:40.000Z</time>
      </trkpt>
      <trkpt lat="50.49183" lon="3.88494">
        <ele>116.55</ele>
        <time>2020-11-08T10:03:41.000Z</time>
      </trkpt>
      <trkpt lat="50.49187" lon="3.88491">
        <ele>115.47</ele>
        <time>2020-11-08T10:03:42.000Z</time>
      </trkpt>
      <trkpt lat="50.49191" lon="3.88487">
        <ele>115.04</ele>
        <time>2020-11-08T10:03:43.000Z</time>
      </trkpt>
      <trkpt lat="50.49199" lon="3.88478">
        <ele>114.9</ele>
        <time>2020-11-08T10:03:45.000Z</time>
      </trkpt>
      <trkpt lat="50.49204" lon="3.88476">
        <ele>114.48</ele>
        <time>2020-11-08T10:03:46.000Z</time>
      </trkpt>
      <trkpt lat="50.49211" lon="3.88465">
        <ele>118.05</ele>
        <time>2020-11-08T10:03:48.000Z</time>
      </trkpt>
      <trkpt lat="50.49216" lon="3.88459">
        <ele>117.07</ele>
        <time>2020-11-08T10:03:49.000Z</time>
      </trkpt>
      <trkpt lat="50.49221" lon="3.88455">
        <ele>116.73</ele>
        <time>2020-11-08T10:03:50.000Z</time>
      </trkpt>
      <trkpt lat="50.49225" lon="3.88451">
        <ele>115.88</ele>
        <time>2020-11-08T10:03:51.000Z</time>
      </trkpt>
      <trkpt lat="50.49229" lon="3.88448">
        <ele>115.12</ele>
        <time>2020-11-08T10:03:52.000Z</time>
      </trkpt>
      <trkpt lat="50.49233" lon="3.88441">
        <ele>115.17</ele>
        <time>2020-11-08T10:03:53.000Z</time>
      </trkpt>
      <trkpt lat="50.49238" lon="3.88435">
        <ele>116.16</ele>
        <time>2020-11-08T10:03:54.000Z</time>
      </trkpt>
      <trkpt lat="50.49243" lon="3.8843">
        <ele>116.38</ele>
        <time>2020-11-08T10:03:55.000Z</time>
      </trkpt>
      <trkpt lat="50.49248" lon="3.88425">
        <ele>115.48</ele>
        <time>2020-11-08T10:03:56.000Z</time>
      </trkpt>
      <trkpt lat="50.49253" lon="3.8842">
        <ele>116.18</ele>
        <time>2020-11-08T10:03:57.000Z</time>
      </trkpt>
      <trkpt lat="50.49258" lon="3.88415">
        <ele>116.63</ele>
        <time>2020-11-08T10:03:58.000Z</time>
      </trkpt>
      <trkpt lat="50.49263" lon="3.8841">
        <ele>116.94</ele>
        <time>2020-11-08T10:03:59.000Z</time>
      </trkpt>
      <trkpt lat="50.49268" lon="3.88404">
        <ele>117.73</ele>
        <time>2020-11-08T10:04:00.000Z</time>
      </trkpt>
      <trkpt lat="50.49273" lon="3.88399">
        <ele>117.37</ele>
        <time>2020-11-08T10:04:01.000Z</time>
      </trkpt>
      <trkpt lat="50.49278" lon="3.88393">
        <ele>117.68</ele>
        <time>2020-11-08T10:04:02.000Z</time>
      </trkpt>
      <trkpt lat="50.49283" lon="3.88388">
        <ele>118.59</ele>
        <time>2020-11-08T10:04:03.000Z</time>
      </trkpt>
      <trkpt lat="50.49289" lon="3.88383">
        <ele>118.13</ele>
        <time>2020-11-08T10:04:04.000Z</time>
      </trkpt>
      <trkpt lat="50.49294" lon="3.88378">
        <ele>118.25</ele>
        <time>2020-11-08T10:04:05.000Z</time>
      </trkpt>
      <trkpt lat="50.49299" lon="3.88372">
        <ele>118.17</ele>
        <time>2020-11-08T10:04:06.000Z</time>
      </trkpt>
      <trkpt lat="50.49305" lon="3.88367">
        <ele>117.94</ele>
        <time>2020-11-08T10:04:07.000Z</time>
      </trkpt>
      <trkpt lat="50.4931" lon="3.88361">
        <ele>119.2</ele>
        <time>2020-11-08T10:04:08.000Z</time>
      </trkpt>
      <trkpt lat="50.49315" lon="3.88356">
        <ele>118.56</ele>
        <time>2020-11-08T10:04:09.000Z</time>
      </trkpt>
      <trkpt lat="50.4932" lon="3.88352">
        <ele>118.41</ele>
        <time>2020-11-08T10:04:10.000Z</time>
      </trkpt>
      <trkpt lat="50.49325" lon="3.88347">
        <ele>117.27</ele>
        <time>2020-11-08T10:04:11.000Z</time>
      </trkpt>
      <trkpt lat="50.4933" lon="3.8834">
        <ele>117.54</ele>
        <time>2020-11-08T10:04:12.000Z</time>
      </trkpt>
      <trkpt lat="50.49334" lon="3.88334">
        <ele>117.24</ele>
        <time>2020-11-08T10:04:13.000Z</time>
      </trkpt>
      <trkpt lat="50.4934" lon="3.88327">
        <ele>117.52</ele>
        <time>2020-11-08T10:04:14.000Z</time>
      </trkpt>
      <trkpt lat="50.49345" lon="3.88322">
        <ele>117.11</ele>
        <time>2020-11-08T10:04:15.000Z</time>
      </trkpt>
      <trkpt lat="50.49351" lon="3.88316">
        <ele>116.68</ele>
        <time>2020-11-08T10:04:16.000Z</time>
      </trkpt>
      <trkpt lat="50.49356" lon="3.8831">
        <ele>114.83</ele>
        <time>2020-11-08T10:04:17.000Z</time>
      </trkpt>
      <trkpt lat="50.49362" lon="3.88304">
        <ele>114.95</ele>
        <time>2020-11-08T10:04:18.000Z</time>
      </trkpt>
      <trkpt lat="50.49367" lon="3.88298">
        <ele>115.65</ele>
        <time>2020-11-08T10:04:19.000Z</time>
      </trkpt>
      <trkpt lat="50.49373" lon="3.88292">
        <ele>115.88</ele>
        <time>2020-11-08T10:04:20.000Z</time>
      </trkpt>
      <trkpt lat="50.49379" lon="3.88286">
        <ele>116.44</ele>
        <time>2020-11-08T10:04:21.000Z</time>
      </trkpt>
      <trkpt lat="50.49384" lon="3.8828">
        <ele>116.88</ele>
        <time>2020-11-08T10:04:22.000Z</time>
      </trkpt>
      <trkpt lat="50.49389" lon="3.88275">
        <ele>116.53</ele>
        <time>2020-11-08T10:04:23.000Z</time>
      </trkpt>
      <trkpt lat="50.49394" lon="3.8827">
        <ele>116.68</ele>
        <time>2020-11-08T10:04:24.000Z</time>
      </trkpt>
      <trkpt lat="50.49398" lon="3.88266">
        <ele>116.9</ele>
        <time>2020-11-08T10:04:25.000Z</time>
      </trkpt>
      <trkpt lat="50.49403" lon="3.88261">
        <ele>116.58</ele>
        <time>2020-11-08T10:04:26.000Z</time>
      </trkpt>
      <trkpt lat="50.49408" lon="3.88256">
        <ele>116.71</ele>
        <time>2020-11-08T10:04:27.000Z</time>
      </trkpt>
      <trkpt lat="50.49413" lon="3.88252">
        <ele>116.84</ele>
        <time>2020-11-08T10:04:28.000Z</time>
      </trkpt>
      <trkpt lat="50.49418" lon="3.88247">
        <ele>116.66</ele>
        <time>2020-11-08T10:04:29.000Z</time>
      </trkpt>
      <trkpt lat="50.49424" lon="3.88242">
        <ele>117.05</ele>
        <time>2020-11-08T10:04:30.000Z</time>
      </trkpt>
      <trkpt lat="50.49429" lon="3.88237">
        <ele>116.46</ele>
        <time>2020-11-08T10:04:31.000Z</time>
      </trkpt>
      <trkpt lat="50.49431" lon="3.88231">
        <ele>116.81</ele>
        <time>2020-11-08T10:04:32.000Z</time>
      </trkpt>
      <trkpt lat="50.4943" lon="3.88218">
        <ele>116.52</ele>
        <time>2020-11-08T10:04:34.000Z</time>
      </trkpt>
      <trkpt lat="50.49428" lon="3.8821">
        <ele>116.56</ele>
        <time>2020-11-08T10:04:35.000Z</time>
      </trkpt>
      <trkpt lat="50.49424" lon="3.88203">
        <ele>116.22</ele>
        <time>2020-11-08T10:04:36.000Z</time>
      </trkpt>
      <trkpt lat="50.49421" lon="3.88193">
        <ele>116.5</ele>
        <time>2020-11-08T10:04:37.000Z</time>
      </trkpt>
      <trkpt lat="50.49418" lon="3.88185">
        <ele>116.26</ele>
        <time>2020-11-08T10:04:38.000Z</time>
      </trkpt>
      <trkpt lat="50.49415" lon="3.88177">
        <ele>115.41</ele>
        <time>2020-11-08T10:04:39.000Z</time>
      </trkpt>
      <trkpt lat="50.49412" lon="3.8817">
        <ele>115.34</ele>
        <time>2020-11-08T10:04:40.000Z</time>
      </trkpt>
      <trkpt lat="50.49409" lon="3.88161">
        <ele>114.92</ele>
        <time>2020-11-08T10:04:41.000Z</time>
      </trkpt>
      <trkpt lat="50.49406" lon="3.88153">
        <ele>114.8</ele>
        <time>2020-11-08T10:04:42.000Z</time>
      </trkpt>
      <trkpt lat="50.49405" lon="3.88144">
        <ele>114.63</ele>
        <time>2020-11-08T10:04:43.000Z</time>
      </trkpt>
      <trkpt lat="50.49402" lon="3.88134">
        <ele>115.8</ele>
        <time>2020-11-08T10:04:44.000Z</time>
      </trkpt>
      <trkpt lat="50.49399" lon="3.88126">
        <ele>115.92</ele>
        <time>2020-11-08T10:04:45.000Z</time>
      </trkpt>
      <trkpt lat="50.49396" lon="3.88118">
        <ele>115.81</ele>
        <time>2020-11-08T10:04:46.000Z</time>
      </trkpt>
      <trkpt lat="50.49395" lon="3.88109">
        <ele>116.29</ele>
        <time>2020-11-08T10:04:47.000Z</time>
      </trkpt>
      <trkpt lat="50.49392" lon="3.881">
        <ele>116.74</ele>
        <time>2020-11-08T10:04:48.000Z</time>
      </trkpt>
      <trkpt lat="50.4939" lon="3.88091">
        <ele>116.56</ele>
        <time>2020-11-08T10:04:49.000Z</time>
      </trkpt>
      <trkpt lat="50.49386" lon="3.88081">
        <ele>117.26</ele>
        <time>2020-11-08T10:04:50.000Z</time>
      </trkpt>
      <trkpt lat="50.49383" lon="3.88072">
        <ele>117.52</ele>
        <time>2020-11-08T10:04:51.000Z</time>
      </trkpt>
      <trkpt lat="50.4938" lon="3.88064">
        <ele>117.28</ele>
        <time>2020-11-08T10:04:52.000Z</time>
      </trkpt>
      <trkpt lat="50.49376" lon="3.88054">
        <ele>117.59</ele>
        <time>2020-11-08T10:04:53.000Z</time>
      </trkpt>
      <trkpt lat="50.49375" lon="3.88046">
        <ele>117.24</ele>
        <time>2020-11-08T10:04:54.000Z</time>
      </trkpt>
      <trkpt lat="50.49372" lon="3.88039">
        <ele>117.17</ele>
        <time>2020-11-08T10:04:55.000Z</time>
      </trkpt>
      <trkpt lat="50.49369" lon="3.88031">
        <ele>117.4</ele>
        <time>2020-11-08T10:04:56.000Z</time>
      </trkpt>
      <trkpt lat="50.49366" lon="3.88023">
        <ele>117.69</ele>
        <time>2020-11-08T10:04:57.000Z</time>
      </trkpt>
      <trkpt lat="50.49363" lon="3.88014">
        <ele>117.18</ele>
        <time>2020-11-08T10:04:58.000Z</time>
      </trkpt>
      <trkpt lat="50.49359" lon="3.88005">
        <ele>117.32</ele>
        <time>2020-11-08T10:04:59.000Z</time>
      </trkpt>
      <trkpt lat="50.49357" lon="3.87998">
        <ele>117.98</ele>
        <time>2020-11-08T10:05:00.000Z</time>
      </trkpt>
      <trkpt lat="50.49354" lon="3.87989">
        <ele>117.52</ele>
        <time>2020-11-08T10:05:01.000Z</time>
      </trkpt>
      <trkpt lat="50.4935" lon="3.87981">
        <ele>117.45</ele>
        <time>2020-11-08T10:05:02.000Z</time>
      </trkpt>
      <trkpt lat="50.49347" lon="3.87972">
        <ele>118.08</ele>
        <time>2020-11-08T10:05:03.000Z</time>
      </trkpt>
      <trkpt lat="50.49345" lon="3.87964">
        <ele>117.63</ele>
        <time>2020-11-08T10:05:04.000Z</time>
      </trkpt>
      <trkpt lat="50.49343" lon="3.87954">
        <ele>117.09</ele>
        <time>2020-11-08T10:05:05.000Z</time>
      </trkpt>
      <trkpt lat="50.49339" lon="3.87945">
        <ele>116.25</ele>
        <time>2020-11-08T10:05:06.000Z</time>
      </trkpt>
      <trkpt lat="50.49336" lon="3.87936">
        <ele>117.37</ele>
        <time>2020-11-08T10:05:07.000Z</time>
      </trkpt>
      <trkpt lat="50.49331" lon="3.87928">
        <ele>117.19</ele>
        <time>2020-11-08T10:05:08.000Z</time>
      </trkpt>
      <trkpt lat="50.4933" lon="3.87918">
        <ele>118.9</ele>
        <time>2020-11-08T10:05:09.000Z</time>
      </trkpt>
      <trkpt lat="50.49327" lon="3.87908">
        <ele>119.66</ele>
        <time>2020-11-08T10:05:10.000Z</time>
      </trkpt>
      <trkpt lat="50.49326" lon="3.879">
        <ele>118.46</ele>
        <time>2020-11-08T10:05:11.000Z</time>
      </trkpt>
      <trkpt lat="50.49325" lon="3.87891">
        <ele>118.07</ele>
        <time>2020-11-08T10:05:12.000Z</time>
      </trkpt>
      <trkpt lat="50.4932" lon="3.87883">
        <ele>118.12</ele>
        <time>2020-11-08T10:05:13.000Z</time>
      </trkpt>
      <trkpt lat="50.49319" lon="3.87876">
        <ele>115.81</ele>
        <time>2020-11-08T10:05:14.000Z</time>
      </trkpt>
      <trkpt lat="50.49315" lon="3.87866">
        <ele>114.99</ele>
        <time>2020-11-08T10:05:15.000Z</time>
      </trkpt>
      <trkpt lat="50.49312" lon="3.87857">
        <ele>115.87</ele>
        <time>2020-11-08T10:05:16.000Z</time>
      </trkpt>
      <trkpt lat="50.49309" lon="3.87846">
        <ele>117.27</ele>
        <time>2020-11-08T10:05:17.000Z</time>
      </trkpt>
      <trkpt lat="50.49306" lon="3.87836">
        <ele>118.1</ele>
        <time>2020-11-08T10:05:18.000Z</time>
      </trkpt>
      <trkpt lat="50.49307" lon="3.87826">
        <ele>119.02</ele>
        <time>2020-11-08T10:05:19.000Z</time>
      </trkpt>
      <trkpt lat="50.49305" lon="3.87818">
        <ele>118.86</ele>
        <time>2020-11-08T10:05:20.000Z</time>
      </trkpt>
      <trkpt lat="50.49302" lon="3.87809">
        <ele>120.77</ele>
        <time>2020-11-08T10:05:21.000Z</time>
      </trkpt>
      <trkpt lat="50.49302" lon="3.87799">
        <ele>120.38</ele>
        <time>2020-11-08T10:05:22.000Z</time>
      </trkpt>
      <trkpt lat="50.49303" lon="3.87788">
        <ele>120.34</ele>
        <time>2020-11-08T10:05:23.000Z</time>
      </trkpt>
      <trkpt lat="50.49306" lon="3.87777">
        <ele>120.25</ele>
        <time>2020-11-08T10:05:24.000Z</time>
      </trkpt>
      <trkpt lat="50.49309" lon="3.87766">
        <ele>120.6</ele>
        <time>2020-11-08T10:05:25.000Z</time>
      </trkpt>
      <trkpt lat="50.49311" lon="3.87755">
        <ele>121.25</ele>
        <time>2020-11-08T10:05:26.000Z</time>
      </trkpt>
      <trkpt lat="50.49312" lon="3.87744">
        <ele>120.89</ele>
        <time>2020-11-08T10:05:27.000Z</time>
      </trkpt>
      <trkpt lat="50.49314" lon="3.87733">
        <ele>121.67</ele>
        <time>2020-11-08T10:05:28.000Z</time>
      </trkpt>
      <trkpt lat="50.49317" lon="3.87723">
        <ele>121.15</ele>
        <time>2020-11-08T10:05:29.000Z</time>
      </trkpt>
      <trkpt lat="50.49318" lon="3.87714">
        <ele>119.73</ele>
        <time>2020-11-08T10:05:30.000Z</time>
      </trkpt>
      <trkpt lat="50.4932" lon="3.87706">
        <ele>119.54</ele>
        <time>2020-11-08T10:05:31.000Z</time>
      </trkpt>
      <trkpt lat="50.49322" lon="3.87698">
        <ele>119.35</ele>
        <time>2020-11-08T10:05:32.000Z</time>
      </trkpt>
      <trkpt lat="50.49326" lon="3.87683">
        <ele>119.3</ele>
        <time>2020-11-08T10:05:34.000Z</time>
      </trkpt>
      <trkpt lat="50.49328" lon="3.87674">
        <ele>119.2</ele>
        <time>2020-11-08T10:05:35.000Z</time>
      </trkpt>
      <trkpt lat="50.4933" lon="3.87665">
        <ele>118.93</ele>
        <time>2020-11-08T10:05:36.000Z</time>
      </trkpt>
      <trkpt lat="50.49332" lon="3.87656">
        <ele>119.25</ele>
        <time>2020-11-08T10:05:37.000Z</time>
      </trkpt>
      <trkpt lat="50.49334" lon="3.87647">
        <ele>119.41</ele>
        <time>2020-11-08T10:05:38.000Z</time>
      </trkpt>
      <trkpt lat="50.49335" lon="3.87638">
        <ele>119.88</ele>
        <time>2020-11-08T10:05:39.000Z</time>
      </trkpt>
      <trkpt lat="50.49336" lon="3.8763">
        <ele>119.19</ele>
        <time>2020-11-08T10:05:40.000Z</time>
      </trkpt>
      <trkpt lat="50.49338" lon="3.87621">
        <ele>120</ele>
        <time>2020-11-08T10:05:41.000Z</time>
      </trkpt>
      <trkpt lat="50.49339" lon="3.87611">
        <ele>119.77</ele>
        <time>2020-11-08T10:05:42.000Z</time>
      </trkpt>
      <trkpt lat="50.49342" lon="3.87602">
        <ele>118.47</ele>
        <time>2020-11-08T10:05:43.000Z</time>
      </trkpt>
      <trkpt lat="50.49343" lon="3.87593">
        <ele>118.39</ele>
        <time>2020-11-08T10:05:44.000Z</time>
      </trkpt>
      <trkpt lat="50.49344" lon="3.87584">
        <ele>117.9</ele>
        <time>2020-11-08T10:05:45.000Z</time>
      </trkpt>
      <trkpt lat="50.49346" lon="3.87574">
        <ele>118.67</ele>
        <time>2020-11-08T10:05:46.000Z</time>
      </trkpt>
      <trkpt lat="50.49348" lon="3.87565">
        <ele>119</ele>
        <time>2020-11-08T10:05:47.000Z</time>
      </trkpt>
      <trkpt lat="50.4935" lon="3.87556">
        <ele>119.5</ele>
        <time>2020-11-08T10:05:48.000Z</time>
      </trkpt>
      <trkpt lat="50.49352" lon="3.87545">
        <ele>120.52</ele>
        <time>2020-11-08T10:05:49.000Z</time>
      </trkpt>
      <trkpt lat="50.49353" lon="3.87534">
        <ele>121.4</ele>
        <time>2020-11-08T10:05:50.000Z</time>
      </trkpt>
      <trkpt lat="50.49355" lon="3.87525">
        <ele>119.57</ele>
        <time>2020-11-08T10:05:51.000Z</time>
      </trkpt>
      <trkpt lat="50.49357" lon="3.87515">
        <ele>120.02</ele>
        <time>2020-11-08T10:05:52.000Z</time>
      </trkpt>
      <trkpt lat="50.49359" lon="3.87505">
        <ele>119.84</ele>
        <time>2020-11-08T10:05:53.000Z</time>
      </trkpt>
      <trkpt lat="50.49362" lon="3.87495">
        <ele>118.49</ele>
        <time>2020-11-08T10:05:54.000Z</time>
      </trkpt>
      <trkpt lat="50.49364" lon="3.87486">
        <ele>118.43</ele>
        <time>2020-11-08T10:05:55.000Z</time>
      </trkpt>
      <trkpt lat="50.49366" lon="3.87477">
        <ele>116.03</ele>
        <time>2020-11-08T10:05:56.000Z</time>
      </trkpt>
      <trkpt lat="50.49367" lon="3.87468">
        <ele>115.06</ele>
        <time>2020-11-08T10:05:57.000Z</time>
      </trkpt>
      <trkpt lat="50.49369" lon="3.87459">
        <ele>116.11</ele>
        <time>2020-11-08T10:05:58.000Z</time>
      </trkpt>
      <trkpt lat="50.4937" lon="3.8745">
        <ele>116.39</ele>
        <time>2020-11-08T10:05:59.000Z</time>
      </trkpt>
      <trkpt lat="50.49372" lon="3.87444">
        <ele>115.9</ele>
        <time>2020-11-08T10:06:00.000Z</time>
      </trkpt>
      <trkpt lat="50.49374" lon="3.87432">
        <ele>117.45</ele>
        <time>2020-11-08T10:06:01.000Z</time>
      </trkpt>
      <trkpt lat="50.49375" lon="3.87424">
        <ele>118.58</ele>
        <time>2020-11-08T10:06:02.000Z</time>
      </trkpt>
      <trkpt lat="50.49376" lon="3.87413">
        <ele>119.31</ele>
        <time>2020-11-08T10:06:03.000Z</time>
      </trkpt>
      <trkpt lat="50.49379" lon="3.87403">
        <ele>119.97</ele>
        <time>2020-11-08T10:06:04.000Z</time>
      </trkpt>
      <trkpt lat="50.4938" lon="3.87392">
        <ele>120.23</ele>
        <time>2020-11-08T10:06:05.000Z</time>
      </trkpt>
      <trkpt lat="50.49382" lon="3.87382">
        <ele>120.49</ele>
        <time>2020-11-08T10:06:06.000Z</time>
      </trkpt>
      <trkpt lat="50.49384" lon="3.87373">
        <ele>120.55</ele>
        <time>2020-11-08T10:06:07.000Z</time>
      </trkpt>
      <trkpt lat="50.49385" lon="3.87364">
        <ele>120.97</ele>
        <time>2020-11-08T10:06:08.000Z</time>
      </trkpt>
      <trkpt lat="50.49387" lon="3.87355">
        <ele>120.32</ele>
        <time>2020-11-08T10:06:09.000Z</time>
      </trkpt>
      <trkpt lat="50.49388" lon="3.87347">
        <ele>120.4</ele>
        <time>2020-11-08T10:06:10.000Z</time>
      </trkpt>
      <trkpt lat="50.49389" lon="3.87337">
        <ele>120.17</ele>
        <time>2020-11-08T10:06:11.000Z</time>
      </trkpt>
      <trkpt lat="50.4939" lon="3.87327">
        <ele>120.82</ele>
        <time>2020-11-08T10:06:12.000Z</time>
      </trkpt>
      <trkpt lat="50.49392" lon="3.87317">
        <ele>120.81</ele>
        <time>2020-11-08T10:06:13.000Z</time>
      </trkpt>
      <trkpt lat="50.49394" lon="3.87307">
        <ele>121.92</ele>
        <time>2020-11-08T10:06:14.000Z</time>
      </trkpt>
      <trkpt lat="50.49396" lon="3.87297">
        <ele>122.39</ele>
        <time>2020-11-08T10:06:15.000Z</time>
      </trkpt>
      <trkpt lat="50.49398" lon="3.87287">
        <ele>122.34</ele>
        <time>2020-11-08T10:06:16.000Z</time>
      </trkpt>
      <trkpt lat="50.494" lon="3.87278">
        <ele>122.63</ele>
        <time>2020-11-08T10:06:17.000Z</time>
      </trkpt>
      <trkpt lat="50.49403" lon="3.87269">
        <ele>122</ele>
        <time>2020-11-08T10:06:18.000Z</time>
      </trkpt>
      <trkpt lat="50.49405" lon="3.8726">
        <ele>121.74</ele>
        <time>2020-11-08T10:06:19.000Z</time>
      </trkpt>
      <trkpt lat="50.49407" lon="3.8725">
        <ele>122.02</ele>
        <time>2020-11-08T10:06:20.000Z</time>
      </trkpt>
      <trkpt lat="50.4941" lon="3.8724">
        <ele>121.8</ele>
        <time>2020-11-08T10:06:21.000Z</time>
      </trkpt>
      <trkpt lat="50.49412" lon="3.87229">
        <ele>122.09</ele>
        <time>2020-11-08T10:06:22.000Z</time>
      </trkpt>
      <trkpt lat="50.49414" lon="3.87218">
        <ele>121.48</ele>
        <time>2020-11-08T10:06:23.000Z</time>
      </trkpt>
      <trkpt lat="50.49416" lon="3.87206">
        <ele>121.9</ele>
        <time>2020-11-08T10:06:24.000Z</time>
      </trkpt>
      <trkpt lat="50.49419" lon="3.87194">
        <ele>121.46</ele>
        <time>2020-11-08T10:06:25.000Z</time>
      </trkpt>
      <trkpt lat="50.4942" lon="3.87181">
        <ele>121.38</ele>
        <time>2020-11-08T10:06:26.000Z</time>
      </trkpt>
      <trkpt lat="50.49423" lon="3.87168">
        <ele>121.61</ele>
        <time>2020-11-08T10:06:27.000Z</time>
      </trkpt>
      <trkpt lat="50.49425" lon="3.87156">
        <ele>121.09</ele>
        <time>2020-11-08T10:06:28.000Z</time>
      </trkpt>
      <trkpt lat="50.49427" lon="3.87143">
        <ele>120.23</ele>
        <time>2020-11-08T10:06:29.000Z</time>
      </trkpt>
      <trkpt lat="50.49429" lon="3.87131">
        <ele>119.61</ele>
        <time>2020-11-08T10:06:30.000Z</time>
      </trkpt>
      <trkpt lat="50.49431" lon="3.8712">
        <ele>118.73</ele>
        <time>2020-11-08T10:06:31.000Z</time>
      </trkpt>
      <trkpt lat="50.49433" lon="3.8711">
        <ele>118.42</ele>
        <time>2020-11-08T10:06:32.000Z</time>
      </trkpt>
      <trkpt lat="50.49435" lon="3.87098">
        <ele>118</ele>
        <time>2020-11-08T10:06:33.000Z</time>
      </trkpt>
      <trkpt lat="50.49438" lon="3.87088">
        <ele>117.94</ele>
        <time>2020-11-08T10:06:34.000Z</time>
      </trkpt>
      <trkpt lat="50.4944" lon="3.87076">
        <ele>118.27</ele>
        <time>2020-11-08T10:06:35.000Z</time>
      </trkpt>
      <trkpt lat="50.49442" lon="3.87066">
        <ele>118.43</ele>
        <time>2020-11-08T10:06:36.000Z</time>
      </trkpt>
      <trkpt lat="50.49444" lon="3.87056">
        <ele>117.67</ele>
        <time>2020-11-08T10:06:37.000Z</time>
      </trkpt>
      <trkpt lat="50.49446" lon="3.87047">
        <ele>117.28</ele>
        <time>2020-11-08T10:06:38.000Z</time>
      </trkpt>
      <trkpt lat="50.49448" lon="3.87037">
        <ele>117.65</ele>
        <time>2020-11-08T10:06:39.000Z</time>
      </trkpt>
      <trkpt lat="50.49449" lon="3.8703">
        <ele>117.18</ele>
        <time>2020-11-08T10:06:40.000Z</time>
      </trkpt>
      <trkpt lat="50.49451" lon="3.87018">
        <ele>117.58</ele>
        <time>2020-11-08T10:06:41.000Z</time>
      </trkpt>
      <trkpt lat="50.49453" lon="3.87008">
        <ele>117.4</ele>
        <time>2020-11-08T10:06:42.000Z</time>
      </trkpt>
      <trkpt lat="50.49455" lon="3.86998">
        <ele>118.49</ele>
        <time>2020-11-08T10:06:43.000Z</time>
      </trkpt>
      <trkpt lat="50.49456" lon="3.86991">
        <ele>118.68</ele>
        <time>2020-11-08T10:06:44.000Z</time>
      </trkpt>
      <trkpt lat="50.49458" lon="3.86979">
        <ele>118.48</ele>
        <time>2020-11-08T10:06:45.000Z</time>
      </trkpt>
      <trkpt lat="50.49459" lon="3.86967">
        <ele>119.47</ele>
        <time>2020-11-08T10:06:46.000Z</time>
      </trkpt>
      <trkpt lat="50.4946" lon="3.86957">
        <ele>121.19</ele>
        <time>2020-11-08T10:06:47.000Z</time>
      </trkpt>
      <trkpt lat="50.49462" lon="3.86946">
        <ele>120.95</ele>
        <time>2020-11-08T10:06:48.000Z</time>
      </trkpt>
      <trkpt lat="50.49464" lon="3.86936">
        <ele>120.72</ele>
        <time>2020-11-08T10:06:49.000Z</time>
      </trkpt>
      <trkpt lat="50.49466" lon="3.86925">
        <ele>120.28</ele>
        <time>2020-11-08T10:06:50.000Z</time>
      </trkpt>
      <trkpt lat="50.49469" lon="3.86916">
        <ele>118.2</ele>
        <time>2020-11-08T10:06:51.000Z</time>
      </trkpt>
      <trkpt lat="50.49471" lon="3.86907">
        <ele>117.47</ele>
        <time>2020-11-08T10:06:52.000Z</time>
      </trkpt>
      <trkpt lat="50.49472" lon="3.86897">
        <ele>117.37</ele>
        <time>2020-11-08T10:06:53.000Z</time>
      </trkpt>
      <trkpt lat="50.49475" lon="3.86889">
        <ele>117.68</ele>
        <time>2020-11-08T10:06:54.000Z</time>
      </trkpt>
      <trkpt lat="50.49477" lon="3.86879">
        <ele>117.88</ele>
        <time>2020-11-08T10:06:55.000Z</time>
      </trkpt>
      <trkpt lat="50.49478" lon="3.86869">
        <ele>118.1</ele>
        <time>2020-11-08T10:06:56.000Z</time>
      </trkpt>
      <trkpt lat="50.4948" lon="3.86859">
        <ele>118.58</ele>
        <time>2020-11-08T10:06:57.000Z</time>
      </trkpt>
      <trkpt lat="50.49481" lon="3.86849">
        <ele>118.15</ele>
        <time>2020-11-08T10:06:58.000Z</time>
      </trkpt>
      <trkpt lat="50.49482" lon="3.86839">
        <ele>119.23</ele>
        <time>2020-11-08T10:06:59.000Z</time>
      </trkpt>
      <trkpt lat="50.49484" lon="3.8683">
        <ele>119.14</ele>
        <time>2020-11-08T10:07:00.000Z</time>
      </trkpt>
      <trkpt lat="50.49485" lon="3.8682">
        <ele>121.39</ele>
        <time>2020-11-08T10:07:01.000Z</time>
      </trkpt>
      <trkpt lat="50.49488" lon="3.86811">
        <ele>120.45</ele>
        <time>2020-11-08T10:07:02.000Z</time>
      </trkpt>
      <trkpt lat="50.4949" lon="3.86802">
        <ele>120.02</ele>
        <time>2020-11-08T10:07:03.000Z</time>
      </trkpt>
      <trkpt lat="50.49491" lon="3.86791">
        <ele>122.27</ele>
        <time>2020-11-08T10:07:04.000Z</time>
      </trkpt>
      <trkpt lat="50.49492" lon="3.86782">
        <ele>122.03</ele>
        <time>2020-11-08T10:07:05.000Z</time>
      </trkpt>
      <trkpt lat="50.49494" lon="3.86774">
        <ele>122.56</ele>
        <time>2020-11-08T10:07:06.000Z</time>
      </trkpt>
      <trkpt lat="50.49496" lon="3.86765">
        <ele>123.48</ele>
        <time>2020-11-08T10:07:07.000Z</time>
      </trkpt>
      <trkpt lat="50.49497" lon="3.86757">
        <ele>122.34</ele>
        <time>2020-11-08T10:07:08.000Z</time>
      </trkpt>
      <trkpt lat="50.495" lon="3.86749">
        <ele>121.89</ele>
        <time>2020-11-08T10:07:09.000Z</time>
      </trkpt>
      <trkpt lat="50.495" lon="3.8674">
        <ele>122.03</ele>
        <time>2020-11-08T10:07:10.000Z</time>
      </trkpt>
      <trkpt lat="50.49503" lon="3.86731">
        <ele>121.87</ele>
        <time>2020-11-08T10:07:11.000Z</time>
      </trkpt>
      <trkpt lat="50.49505" lon="3.86722">
        <ele>122.13</ele>
        <time>2020-11-08T10:07:12.000Z</time>
      </trkpt>
      <trkpt lat="50.49508" lon="3.86714">
        <ele>120.11</ele>
        <time>2020-11-08T10:07:13.000Z</time>
      </trkpt>
      <trkpt lat="50.49508" lon="3.86704">
        <ele>120.71</ele>
        <time>2020-11-08T10:07:14.000Z</time>
      </trkpt>
      <trkpt lat="50.4951" lon="3.86694">
        <ele>121.06</ele>
        <time>2020-11-08T10:07:15.000Z</time>
      </trkpt>
      <trkpt lat="50.49512" lon="3.8668">
        <ele>122.6</ele>
        <time>2020-11-08T10:07:16.000Z</time>
      </trkpt>
      <trkpt lat="50.49513" lon="3.86669">
        <ele>122.48</ele>
        <time>2020-11-08T10:07:17.000Z</time>
      </trkpt>
      <trkpt lat="50.49514" lon="3.86659">
        <ele>122.98</ele>
        <time>2020-11-08T10:07:18.000Z</time>
      </trkpt>
      <trkpt lat="50.49516" lon="3.8665">
        <ele>123.13</ele>
        <time>2020-11-08T10:07:19.000Z</time>
      </trkpt>
      <trkpt lat="50.4952" lon="3.8664">
        <ele>122.52</ele>
        <time>2020-11-08T10:07:20.000Z</time>
      </trkpt>
      <trkpt lat="50.49521" lon="3.8663">
        <ele>123.38</ele>
        <time>2020-11-08T10:07:21.000Z</time>
      </trkpt>
      <trkpt lat="50.49523" lon="3.86621">
        <ele>123.85</ele>
        <time>2020-11-08T10:07:22.000Z</time>
      </trkpt>
      <trkpt lat="50.49525" lon="3.86612">
        <ele>123.93</ele>
        <time>2020-11-08T10:07:23.000Z</time>
      </trkpt>
      <trkpt lat="50.49526" lon="3.86604">
        <ele>123.45</ele>
        <time>2020-11-08T10:07:24.000Z</time>
      </trkpt>
      <trkpt lat="50.49527" lon="3.86597">
        <ele>122.87</ele>
        <time>2020-11-08T10:07:25.000Z</time>
      </trkpt>
      <trkpt lat="50.49529" lon="3.86584">
        <ele>124.26</ele>
        <time>2020-11-08T10:07:27.000Z</time>
      </trkpt>
      <trkpt lat="50.49532" lon="3.86573">
        <ele>124.07</ele>
        <time>2020-11-08T10:07:29.000Z</time>
      </trkpt>
      <trkpt lat="50.49534" lon="3.86564">
        <ele>124.05</ele>
        <time>2020-11-08T10:07:31.000Z</time>
      </trkpt>
      <trkpt lat="50.49534" lon="3.86555">
        <ele>122.7</ele>
        <time>2020-11-08T10:07:33.000Z</time>
      </trkpt>
      <trkpt lat="50.49527" lon="3.86549">
        <ele>122.2</ele>
        <time>2020-11-08T10:07:35.000Z</time>
      </trkpt>
      <trkpt lat="50.49518" lon="3.86546">
        <ele>121.76</ele>
        <time>2020-11-08T10:07:37.000Z</time>
      </trkpt>
      <trkpt lat="50.49513" lon="3.86543">
        <ele>121.94</ele>
        <time>2020-11-08T10:07:38.000Z</time>
      </trkpt>
      <trkpt lat="50.49509" lon="3.86541">
        <ele>120.87</ele>
        <time>2020-11-08T10:07:39.000Z</time>
      </trkpt>
      <trkpt lat="50.49499" lon="3.86535">
        <ele>120.45</ele>
        <time>2020-11-08T10:07:41.000Z</time>
      </trkpt>
      <trkpt lat="50.49494" lon="3.86532">
        <ele>119.2</ele>
        <time>2020-11-08T10:07:42.000Z</time>
      </trkpt>
      <trkpt lat="50.49489" lon="3.86529">
        <ele>118.61</ele>
        <time>2020-11-08T10:07:43.000Z</time>
      </trkpt>
      <trkpt lat="50.49484" lon="3.86526">
        <ele>118.83</ele>
        <time>2020-11-08T10:07:44.000Z</time>
      </trkpt>
      <trkpt lat="50.49479" lon="3.86522">
        <ele>118.48</ele>
        <time>2020-11-08T10:07:45.000Z</time>
      </trkpt>
      <trkpt lat="50.49473" lon="3.86519">
        <ele>118.17</ele>
        <time>2020-11-08T10:07:46.000Z</time>
      </trkpt>
      <trkpt lat="50.49468" lon="3.86515">
        <ele>117.97</ele>
        <time>2020-11-08T10:07:47.000Z</time>
      </trkpt>
      <trkpt lat="50.49462" lon="3.86512">
        <ele>118.15</ele>
        <time>2020-11-08T10:07:48.000Z</time>
      </trkpt>
      <trkpt lat="50.49455" lon="3.86508">
        <ele>118.22</ele>
        <time>2020-11-08T10:07:49.000Z</time>
      </trkpt>
      <trkpt lat="50.49448" lon="3.86504">
        <ele>118.16</ele>
        <time>2020-11-08T10:07:50.000Z</time>
      </trkpt>
      <trkpt lat="50.49441" lon="3.86501">
        <ele>118.3</ele>
        <time>2020-11-08T10:07:51.000Z</time>
      </trkpt>
      <trkpt lat="50.49435" lon="3.86497">
        <ele>118.71</ele>
        <time>2020-11-08T10:07:52.000Z</time>
      </trkpt>
      <trkpt lat="50.49429" lon="3.86494">
        <ele>119.35</ele>
        <time>2020-11-08T10:07:53.000Z</time>
      </trkpt>
      <trkpt lat="50.49424" lon="3.8649">
        <ele>120.77</ele>
        <time>2020-11-08T10:07:54.000Z</time>
      </trkpt>
      <trkpt lat="50.49418" lon="3.86488">
        <ele>121.66</ele>
        <time>2020-11-08T10:07:55.000Z</time>
      </trkpt>
      <trkpt lat="50.49414" lon="3.86485">
        <ele>120.98</ele>
        <time>2020-11-08T10:07:56.000Z</time>
      </trkpt>
      <trkpt lat="50.49408" lon="3.86482">
        <ele>120.65</ele>
        <time>2020-11-08T10:07:57.000Z</time>
      </trkpt>
      <trkpt lat="50.49402" lon="3.86479">
        <ele>120.37</ele>
        <time>2020-11-08T10:07:58.000Z</time>
      </trkpt>
      <trkpt lat="50.49396" lon="3.86476">
        <ele>120.67</ele>
        <time>2020-11-08T10:07:59.000Z</time>
      </trkpt>
      <trkpt lat="50.4939" lon="3.86473">
        <ele>121.42</ele>
        <time>2020-11-08T10:08:00.000Z</time>
      </trkpt>
      <trkpt lat="50.49384" lon="3.86471">
        <ele>122.64</ele>
        <time>2020-11-08T10:08:01.000Z</time>
      </trkpt>
      <trkpt lat="50.49379" lon="3.86467">
        <ele>122.45</ele>
        <time>2020-11-08T10:08:02.000Z</time>
      </trkpt>
      <trkpt lat="50.49372" lon="3.86464">
        <ele>122.37</ele>
        <time>2020-11-08T10:08:03.000Z</time>
      </trkpt>
      <trkpt lat="50.49366" lon="3.8646">
        <ele>121.14</ele>
        <time>2020-11-08T10:08:04.000Z</time>
      </trkpt>
      <trkpt lat="50.49361" lon="3.86456">
        <ele>122.48</ele>
        <time>2020-11-08T10:08:05.000Z</time>
      </trkpt>
      <trkpt lat="50.49356" lon="3.86452">
        <ele>122.06</ele>
        <time>2020-11-08T10:08:06.000Z</time>
      </trkpt>
      <trkpt lat="50.49349" lon="3.8645">
        <ele>123.73</ele>
        <time>2020-11-08T10:08:07.000Z</time>
      </trkpt>
      <trkpt lat="50.49344" lon="3.86447">
        <ele>123.14</ele>
        <time>2020-11-08T10:08:08.000Z</time>
      </trkpt>
      <trkpt lat="50.49338" lon="3.86445">
        <ele>122.65</ele>
        <time>2020-11-08T10:08:09.000Z</time>
      </trkpt>
      <trkpt lat="50.49334" lon="3.8644">
        <ele>122.39</ele>
        <time>2020-11-08T10:08:10.000Z</time>
      </trkpt>
      <trkpt lat="50.49328" lon="3.86438">
        <ele>122.33</ele>
        <time>2020-11-08T10:08:11.000Z</time>
      </trkpt>
      <trkpt lat="50.49323" lon="3.86435">
        <ele>122.56</ele>
        <time>2020-11-08T10:08:12.000Z</time>
      </trkpt>
      <trkpt lat="50.49318" lon="3.86431">
        <ele>122.63</ele>
        <time>2020-11-08T10:08:13.000Z</time>
      </trkpt>
      <trkpt lat="50.49313" lon="3.86428">
        <ele>122.97</ele>
        <time>2020-11-08T10:08:14.000Z</time>
      </trkpt>
      <trkpt lat="50.49308" lon="3.86424">
        <ele>122.71</ele>
        <time>2020-11-08T10:08:15.000Z</time>
      </trkpt>
      <trkpt lat="50.49302" lon="3.8642">
        <ele>122.26</ele>
        <time>2020-11-08T10:08:16.000Z</time>
      </trkpt>
      <trkpt lat="50.49296" lon="3.86416">
        <ele>122.61</ele>
        <time>2020-11-08T10:08:17.000Z</time>
      </trkpt>
      <trkpt lat="50.4929" lon="3.86413">
        <ele>122.7</ele>
        <time>2020-11-08T10:08:18.000Z</time>
      </trkpt>
      <trkpt lat="50.49285" lon="3.86409">
        <ele>122.93</ele>
        <time>2020-11-08T10:08:19.000Z</time>
      </trkpt>
      <trkpt lat="50.49279" lon="3.86405">
        <ele>122.52</ele>
        <time>2020-11-08T10:08:20.000Z</time>
      </trkpt>
      <trkpt lat="50.49274" lon="3.86402">
        <ele>122.66</ele>
        <time>2020-11-08T10:08:21.000Z</time>
      </trkpt>
      <trkpt lat="50.49266" lon="3.864">
        <ele>121.97</ele>
        <time>2020-11-08T10:08:22.000Z</time>
      </trkpt>
      <trkpt lat="50.4926" lon="3.86395">
        <ele>122.5</ele>
        <time>2020-11-08T10:08:23.000Z</time>
      </trkpt>
      <trkpt lat="50.49253" lon="3.86393">
        <ele>122.14</ele>
        <time>2020-11-08T10:08:24.000Z</time>
      </trkpt>
      <trkpt lat="50.49247" lon="3.8639">
        <ele>123.32</ele>
        <time>2020-11-08T10:08:25.000Z</time>
      </trkpt>
      <trkpt lat="50.49241" lon="3.86386">
        <ele>122.93</ele>
        <time>2020-11-08T10:08:26.000Z</time>
      </trkpt>
      <trkpt lat="50.49235" lon="3.86384">
        <ele>123.2</ele>
        <time>2020-11-08T10:08:27.000Z</time>
      </trkpt>
      <trkpt lat="50.4923" lon="3.86382">
        <ele>123.62</ele>
        <time>2020-11-08T10:08:28.000Z</time>
      </trkpt>
      <trkpt lat="50.49221" lon="3.86374">
        <ele>123.85</ele>
        <time>2020-11-08T10:08:30.000Z</time>
      </trkpt>
      <trkpt lat="50.49216" lon="3.86372">
        <ele>124.25</ele>
        <time>2020-11-08T10:08:31.000Z</time>
      </trkpt>
      <trkpt lat="50.49211" lon="3.86368">
        <ele>123.53</ele>
        <time>2020-11-08T10:08:32.000Z</time>
      </trkpt>
      <trkpt lat="50.49204" lon="3.86364">
        <ele>122.93</ele>
        <time>2020-11-08T10:08:33.000Z</time>
      </trkpt>
      <trkpt lat="50.49198" lon="3.8636">
        <ele>124.12</ele>
        <time>2020-11-08T10:08:34.000Z</time>
      </trkpt>
      <trkpt lat="50.4919" lon="3.86357">
        <ele>124.69</ele>
        <time>2020-11-08T10:08:35.000Z</time>
      </trkpt>
      <trkpt lat="50.49183" lon="3.86353">
        <ele>124.37</ele>
        <time>2020-11-08T10:08:36.000Z</time>
      </trkpt>
      <trkpt lat="50.49176" lon="3.86349">
        <ele>123.19</ele>
        <time>2020-11-08T10:08:37.000Z</time>
      </trkpt>
      <trkpt lat="50.4917" lon="3.86344">
        <ele>122.77</ele>
        <time>2020-11-08T10:08:38.000Z</time>
      </trkpt>
      <trkpt lat="50.49163" lon="3.8634">
        <ele>121.99</ele>
        <time>2020-11-08T10:08:39.000Z</time>
      </trkpt>
      <trkpt lat="50.49156" lon="3.86336">
        <ele>121.38</ele>
        <time>2020-11-08T10:08:40.000Z</time>
      </trkpt>
      <trkpt lat="50.49149" lon="3.86333">
        <ele>120.51</ele>
        <time>2020-11-08T10:08:41.000Z</time>
      </trkpt>
      <trkpt lat="50.49143" lon="3.86328">
        <ele>118.87</ele>
        <time>2020-11-08T10:08:42.000Z</time>
      </trkpt>
      <trkpt lat="50.49137" lon="3.86325">
        <ele>119.34</ele>
        <time>2020-11-08T10:08:43.000Z</time>
      </trkpt>
      <trkpt lat="50.49123" lon="3.86318">
        <ele>120.27</ele>
        <time>2020-11-08T10:08:45.000Z</time>
      </trkpt>
      <trkpt lat="50.49111" lon="3.86312">
        <ele>116.49</ele>
        <time>2020-11-08T10:08:47.000Z</time>
      </trkpt>
      <trkpt lat="50.49104" lon="3.86308">
        <ele>116.34</ele>
        <time>2020-11-08T10:08:48.000Z</time>
      </trkpt>
      <trkpt lat="50.49098" lon="3.86306">
        <ele>115.83</ele>
        <time>2020-11-08T10:08:49.000Z</time>
      </trkpt>
      <trkpt lat="50.49089" lon="3.863">
        <ele>114.59</ele>
        <time>2020-11-08T10:08:51.000Z</time>
      </trkpt>
      <trkpt lat="50.49084" lon="3.86297">
        <ele>113.92</ele>
        <time>2020-11-08T10:08:52.000Z</time>
      </trkpt>
      <trkpt lat="50.49079" lon="3.86294">
        <ele>113.56</ele>
        <time>2020-11-08T10:08:53.000Z</time>
      </trkpt>
      <trkpt lat="50.49073" lon="3.86288">
        <ele>114.05</ele>
        <time>2020-11-08T10:08:55.000Z</time>
      </trkpt>
      <trkpt lat="50.49069" lon="3.86282">
        <ele>114.82</ele>
        <time>2020-11-08T10:08:57.000Z</time>
      </trkpt>
      <trkpt lat="50.49073" lon="3.86276">
        <ele>113.92</ele>
        <time>2020-11-08T10:08:59.000Z</time>
      </trkpt>
      <trkpt lat="50.49079" lon="3.8627">
        <ele>112.38</ele>
        <time>2020-11-08T10:09:01.000Z</time>
      </trkpt>
      <trkpt lat="50.49085" lon="3.86265">
        <ele>112.31</ele>
        <time>2020-11-08T10:09:03.000Z</time>
      </trkpt>
      <trkpt lat="50.49091" lon="3.8626">
        <ele>113.5</ele>
        <time>2020-11-08T10:09:05.000Z</time>
      </trkpt>
      <trkpt lat="50.49097" lon="3.86253">
        <ele>115.58</ele>
        <time>2020-11-08T10:09:07.000Z</time>
      </trkpt>
      <trkpt lat="50.49104" lon="3.86248">
        <ele>116.47</ele>
        <time>2020-11-08T10:09:09.000Z</time>
      </trkpt>
      <trkpt lat="50.49109" lon="3.86243">
        <ele>117.85</ele>
        <time>2020-11-08T10:09:10.000Z</time>
      </trkpt>
      <trkpt lat="50.49113" lon="3.8624">
        <ele>117.02</ele>
        <time>2020-11-08T10:09:11.000Z</time>
      </trkpt>
      <trkpt lat="50.49117" lon="3.86237">
        <ele>117.64</ele>
        <time>2020-11-08T10:09:12.000Z</time>
      </trkpt>
      <trkpt lat="50.49125" lon="3.86231">
        <ele>118.65</ele>
        <time>2020-11-08T10:09:14.000Z</time>
      </trkpt>
      <trkpt lat="50.49129" lon="3.86228">
        <ele>117.45</ele>
        <time>2020-11-08T10:09:15.000Z</time>
      </trkpt>
      <trkpt lat="50.49137" lon="3.86223">
        <ele>116.78</ele>
        <time>2020-11-08T10:09:17.000Z</time>
      </trkpt>
      <trkpt lat="50.49143" lon="3.8622">
        <ele>116.71</ele>
        <time>2020-11-08T10:09:18.000Z</time>
      </trkpt>
      <trkpt lat="50.49148" lon="3.86216">
        <ele>118.36</ele>
        <time>2020-11-08T10:09:19.000Z</time>
      </trkpt>
      <trkpt lat="50.49153" lon="3.86213">
        <ele>119.47</ele>
        <time>2020-11-08T10:09:20.000Z</time>
      </trkpt>
      <trkpt lat="50.49157" lon="3.86207">
        <ele>121.22</ele>
        <time>2020-11-08T10:09:21.000Z</time>
      </trkpt>
      <trkpt lat="50.49162" lon="3.86203">
        <ele>122.16</ele>
        <time>2020-11-08T10:09:22.000Z</time>
      </trkpt>
      <trkpt lat="50.49167" lon="3.86199">
        <ele>122.54</ele>
        <time>2020-11-08T10:09:23.000Z</time>
      </trkpt>
      <trkpt lat="50.49172" lon="3.86197">
        <ele>122.08</ele>
        <time>2020-11-08T10:09:24.000Z</time>
      </trkpt>
      <trkpt lat="50.49177" lon="3.86192">
        <ele>121.33</ele>
        <time>2020-11-08T10:09:25.000Z</time>
      </trkpt>
      <trkpt lat="50.49183" lon="3.86187">
        <ele>113.24</ele>
        <time>2020-11-08T10:09:26.000Z</time>
      </trkpt>
      <trkpt lat="50.49188" lon="3.86182">
        <ele>116.06</ele>
        <time>2020-11-08T10:09:27.000Z</time>
      </trkpt>
      <trkpt lat="50.49193" lon="3.86178">
        <ele>117.46</ele>
        <time>2020-11-08T10:09:28.000Z</time>
      </trkpt>
      <trkpt lat="50.49199" lon="3.86173">
        <ele>118.75</ele>
        <time>2020-11-08T10:09:29.000Z</time>
      </trkpt>
      <trkpt lat="50.49208" lon="3.86166">
        <ele>120.15</ele>
        <time>2020-11-08T10:09:31.000Z</time>
      </trkpt>
      <trkpt lat="50.49213" lon="3.86162">
        <ele>120.12</ele>
        <time>2020-11-08T10:09:32.000Z</time>
      </trkpt>
      <trkpt lat="50.49217" lon="3.86157">
        <ele>120.03</ele>
        <time>2020-11-08T10:09:33.000Z</time>
      </trkpt>
      <trkpt lat="50.49222" lon="3.86152">
        <ele>120.48</ele>
        <time>2020-11-08T10:09:34.000Z</time>
      </trkpt>
      <trkpt lat="50.49228" lon="3.86147">
        <ele>120.27</ele>
        <time>2020-11-08T10:09:35.000Z</time>
      </trkpt>
      <trkpt lat="50.49234" lon="3.86143">
        <ele>119.91</ele>
        <time>2020-11-08T10:09:36.000Z</time>
      </trkpt>
      <trkpt lat="50.4924" lon="3.86138">
        <ele>119.23</ele>
        <time>2020-11-08T10:09:37.000Z</time>
      </trkpt>
      <trkpt lat="50.49246" lon="3.86133">
        <ele>119.64</ele>
        <time>2020-11-08T10:09:38.000Z</time>
      </trkpt>
      <trkpt lat="50.49252" lon="3.86128">
        <ele>120.15</ele>
        <time>2020-11-08T10:09:39.000Z</time>
      </trkpt>
      <trkpt lat="50.49258" lon="3.86125">
        <ele>119.19</ele>
        <time>2020-11-08T10:09:40.000Z</time>
      </trkpt>
      <trkpt lat="50.49264" lon="3.8612">
        <ele>119.13</ele>
        <time>2020-11-08T10:09:41.000Z</time>
      </trkpt>
      <trkpt lat="50.4927" lon="3.86115">
        <ele>118.84</ele>
        <time>2020-11-08T10:09:42.000Z</time>
      </trkpt>
      <trkpt lat="50.49275" lon="3.8611">
        <ele>119.42</ele>
        <time>2020-11-08T10:09:43.000Z</time>
      </trkpt>
      <trkpt lat="50.49281" lon="3.86107">
        <ele>117.96</ele>
        <time>2020-11-08T10:09:44.000Z</time>
      </trkpt>
      <trkpt lat="50.49287" lon="3.86103">
        <ele>117.98</ele>
        <time>2020-11-08T10:09:45.000Z</time>
      </trkpt>
      <trkpt lat="50.49292" lon="3.86097">
        <ele>118.67</ele>
        <time>2020-11-08T10:09:46.000Z</time>
      </trkpt>
      <trkpt lat="50.49297" lon="3.86093">
        <ele>117.95</ele>
        <time>2020-11-08T10:09:47.000Z</time>
      </trkpt>
      <trkpt lat="50.49304" lon="3.8609">
        <ele>117.11</ele>
        <time>2020-11-08T10:09:48.000Z</time>
      </trkpt>
      <trkpt lat="50.49311" lon="3.86085">
        <ele>116.66</ele>
        <time>2020-11-08T10:09:49.000Z</time>
      </trkpt>
      <trkpt lat="50.49316" lon="3.86082">
        <ele>115.95</ele>
        <time>2020-11-08T10:09:50.000Z</time>
      </trkpt>
      <trkpt lat="50.49321" lon="3.86079">
        <ele>116.36</ele>
        <time>2020-11-08T10:09:51.000Z</time>
      </trkpt>
      <trkpt lat="50.49327" lon="3.86079">
        <ele>117.73</ele>
        <time>2020-11-08T10:09:53.000Z</time>
      </trkpt>
      <trkpt lat="50.49334" lon="3.86077">
        <ele>117.67</ele>
        <time>2020-11-08T10:09:56.000Z</time>
      </trkpt>
      <trkpt lat="50.49337" lon="3.86071">
        <ele>117.87</ele>
        <time>2020-11-08T10:09:58.000Z</time>
      </trkpt>
      <trkpt lat="50.49343" lon="3.86061">
        <ele>117.95</ele>
        <time>2020-11-08T10:10:00.000Z</time>
      </trkpt>
      <trkpt lat="50.49349" lon="3.86054">
        <ele>116.77</ele>
        <time>2020-11-08T10:10:02.000Z</time>
      </trkpt>
      <trkpt lat="50.49355" lon="3.86045">
        <ele>116.12</ele>
        <time>2020-11-08T10:10:04.000Z</time>
      </trkpt>
      <trkpt lat="50.4936" lon="3.86046">
        <ele>116.05</ele>
        <time>2020-11-08T10:10:05.000Z</time>
      </trkpt>
      <trkpt lat="50.49365" lon="3.86044">
        <ele>115.79</ele>
        <time>2020-11-08T10:10:06.000Z</time>
      </trkpt>
      <trkpt lat="50.49371" lon="3.86042">
        <ele>115.85</ele>
        <time>2020-11-08T10:10:07.000Z</time>
      </trkpt>
      <trkpt lat="50.49376" lon="3.86039">
        <ele>115.44</ele>
        <time>2020-11-08T10:10:08.000Z</time>
      </trkpt>
      <trkpt lat="50.49381" lon="3.86034">
        <ele>115.65</ele>
        <time>2020-11-08T10:10:09.000Z</time>
      </trkpt>
      <trkpt lat="50.49386" lon="3.86029">
        <ele>115.63</ele>
        <time>2020-11-08T10:10:10.000Z</time>
      </trkpt>
      <trkpt lat="50.49391" lon="3.86026">
        <ele>114.35</ele>
        <time>2020-11-08T10:10:11.000Z</time>
      </trkpt>
      <trkpt lat="50.49395" lon="3.86022">
        <ele>115.13</ele>
        <time>2020-11-08T10:10:12.000Z</time>
      </trkpt>
      <trkpt lat="50.494" lon="3.86017">
        <ele>115.66</ele>
        <time>2020-11-08T10:10:13.000Z</time>
      </trkpt>
      <trkpt lat="50.49406" lon="3.86014">
        <ele>113.87</ele>
        <time>2020-11-08T10:10:15.000Z</time>
      </trkpt>
      <trkpt lat="50.49411" lon="3.86011">
        <ele>114.24</ele>
        <time>2020-11-08T10:10:17.000Z</time>
      </trkpt>
      <trkpt lat="50.49416" lon="3.86007">
        <ele>114.2</ele>
        <time>2020-11-08T10:10:19.000Z</time>
      </trkpt>
      <trkpt lat="50.49421" lon="3.86004">
        <ele>117.12</ele>
        <time>2020-11-08T10:10:21.000Z</time>
      </trkpt>
      <trkpt lat="50.4943" lon="3.85997">
        <ele>118.06</ele>
        <time>2020-11-08T10:10:23.000Z</time>
      </trkpt>
      <trkpt lat="50.49434" lon="3.85993">
        <ele>117.06</ele>
        <time>2020-11-08T10:10:24.000Z</time>
      </trkpt>
      <trkpt lat="50.49439" lon="3.85989">
        <ele>116.87</ele>
        <time>2020-11-08T10:10:25.000Z</time>
      </trkpt>
      <trkpt lat="50.49444" lon="3.85984">
        <ele>117.44</ele>
        <time>2020-11-08T10:10:26.000Z</time>
      </trkpt>
      <trkpt lat="50.49449" lon="3.8598">
        <ele>117.48</ele>
        <time>2020-11-08T10:10:27.000Z</time>
      </trkpt>
      <trkpt lat="50.49455" lon="3.85976">
        <ele>117.75</ele>
        <time>2020-11-08T10:10:28.000Z</time>
      </trkpt>
      <trkpt lat="50.4946" lon="3.85971">
        <ele>117.77</ele>
        <time>2020-11-08T10:10:29.000Z</time>
      </trkpt>
      <trkpt lat="50.49465" lon="3.85967">
        <ele>117.29</ele>
        <time>2020-11-08T10:10:30.000Z</time>
      </trkpt>
      <trkpt lat="50.49471" lon="3.85963">
        <ele>117.86</ele>
        <time>2020-11-08T10:10:31.000Z</time>
      </trkpt>
      <trkpt lat="50.49476" lon="3.85958">
        <ele>117.63</ele>
        <time>2020-11-08T10:10:32.000Z</time>
      </trkpt>
      <trkpt lat="50.49482" lon="3.85953">
        <ele>118.48</ele>
        <time>2020-11-08T10:10:33.000Z</time>
      </trkpt>
      <trkpt lat="50.49488" lon="3.85949">
        <ele>118.78</ele>
        <time>2020-11-08T10:10:34.000Z</time>
      </trkpt>
      <trkpt lat="50.49492" lon="3.85945">
        <ele>119.03</ele>
        <time>2020-11-08T10:10:35.000Z</time>
      </trkpt>
      <trkpt lat="50.49498" lon="3.85941">
        <ele>118.69</ele>
        <time>2020-11-08T10:10:36.000Z</time>
      </trkpt>
      <trkpt lat="50.49503" lon="3.85936">
        <ele>118.82</ele>
        <time>2020-11-08T10:10:37.000Z</time>
      </trkpt>
      <trkpt lat="50.49508" lon="3.85932">
        <ele>118.7</ele>
        <time>2020-11-08T10:10:38.000Z</time>
      </trkpt>
      <trkpt lat="50.49513" lon="3.85929">
        <ele>119.39</ele>
        <time>2020-11-08T10:10:39.000Z</time>
      </trkpt>
      <trkpt lat="50.49519" lon="3.85922">
        <ele>120.51</ele>
        <time>2020-11-08T10:10:40.000Z</time>
      </trkpt>
      <trkpt lat="50.49526" lon="3.85917">
        <ele>120.3</ele>
        <time>2020-11-08T10:10:41.000Z</time>
      </trkpt>
      <trkpt lat="50.49532" lon="3.85911">
        <ele>120.33</ele>
        <time>2020-11-08T10:10:42.000Z</time>
      </trkpt>
      <trkpt lat="50.49539" lon="3.85906">
        <ele>120.67</ele>
        <time>2020-11-08T10:10:43.000Z</time>
      </trkpt>
      <trkpt lat="50.49545" lon="3.85901">
        <ele>120.85</ele>
        <time>2020-11-08T10:10:44.000Z</time>
      </trkpt>
      <trkpt lat="50.49552" lon="3.85896">
        <ele>120.52</ele>
        <time>2020-11-08T10:10:45.000Z</time>
      </trkpt>
      <trkpt lat="50.49558" lon="3.85891">
        <ele>120.58</ele>
        <time>2020-11-08T10:10:46.000Z</time>
      </trkpt>
      <trkpt lat="50.49564" lon="3.85887">
        <ele>121</ele>
        <time>2020-11-08T10:10:47.000Z</time>
      </trkpt>
      <trkpt lat="50.49571" lon="3.85882">
        <ele>120.56</ele>
        <time>2020-11-08T10:10:48.000Z</time>
      </trkpt>
      <trkpt lat="50.49579" lon="3.85878">
        <ele>121.81</ele>
        <time>2020-11-08T10:10:49.000Z</time>
      </trkpt>
      <trkpt lat="50.49585" lon="3.85874">
        <ele>121.28</ele>
        <time>2020-11-08T10:10:50.000Z</time>
      </trkpt>
      <trkpt lat="50.49591" lon="3.85872">
        <ele>121.23</ele>
        <time>2020-11-08T10:10:51.000Z</time>
      </trkpt>
      <trkpt lat="50.49596" lon="3.85866">
        <ele>122.33</ele>
        <time>2020-11-08T10:10:52.000Z</time>
      </trkpt>
      <trkpt lat="50.49601" lon="3.85861">
        <ele>122.49</ele>
        <time>2020-11-08T10:10:53.000Z</time>
      </trkpt>
      <trkpt lat="50.49607" lon="3.85856">
        <ele>122.36</ele>
        <time>2020-11-08T10:10:54.000Z</time>
      </trkpt>
      <trkpt lat="50.49613" lon="3.8585">
        <ele>122.35</ele>
        <time>2020-11-08T10:10:55.000Z</time>
      </trkpt>
      <trkpt lat="50.49618" lon="3.85845">
        <ele>122.61</ele>
        <time>2020-11-08T10:10:56.000Z</time>
      </trkpt>
      <trkpt lat="50.49624" lon="3.85841">
        <ele>122.87</ele>
        <time>2020-11-08T10:10:57.000Z</time>
      </trkpt>
      <trkpt lat="50.4963" lon="3.85836">
        <ele>123.48</ele>
        <time>2020-11-08T10:10:58.000Z</time>
      </trkpt>
      <trkpt lat="50.49636" lon="3.85831">
        <ele>122.18</ele>
        <time>2020-11-08T10:10:59.000Z</time>
      </trkpt>
      <trkpt lat="50.49642" lon="3.85826">
        <ele>122.88</ele>
        <time>2020-11-08T10:11:00.000Z</time>
      </trkpt>
      <trkpt lat="50.49647" lon="3.85822">
        <ele>122.76</ele>
        <time>2020-11-08T10:11:01.000Z</time>
      </trkpt>
      <trkpt lat="50.49652" lon="3.85817">
        <ele>122.8</ele>
        <time>2020-11-08T10:11:02.000Z</time>
      </trkpt>
      <trkpt lat="50.49658" lon="3.85815">
        <ele>123.55</ele>
        <time>2020-11-08T10:11:03.000Z</time>
      </trkpt>
      <trkpt lat="50.49663" lon="3.85811">
        <ele>124.21</ele>
        <time>2020-11-08T10:11:04.000Z</time>
      </trkpt>
      <trkpt lat="50.49667" lon="3.85807">
        <ele>124.05</ele>
        <time>2020-11-08T10:11:05.000Z</time>
      </trkpt>
      <trkpt lat="50.49676" lon="3.85797">
        <ele>123.9</ele>
        <time>2020-11-08T10:11:07.000Z</time>
      </trkpt>
      <trkpt lat="50.49678" lon="3.85787">
        <ele>124.68</ele>
        <time>2020-11-08T10:11:08.000Z</time>
      </trkpt>
      <trkpt lat="50.4968" lon="3.85777">
        <ele>124.37</ele>
        <time>2020-11-08T10:11:09.000Z</time>
      </trkpt>
      <trkpt lat="50.49681" lon="3.85766">
        <ele>124.05</ele>
        <time>2020-11-08T10:11:10.000Z</time>
      </trkpt>
      <trkpt lat="50.49683" lon="3.85757">
        <ele>123.98</ele>
        <time>2020-11-08T10:11:11.000Z</time>
      </trkpt>
      <trkpt lat="50.49685" lon="3.85747">
        <ele>124.04</ele>
        <time>2020-11-08T10:11:12.000Z</time>
      </trkpt>
      <trkpt lat="50.49687" lon="3.85737">
        <ele>123.79</ele>
        <time>2020-11-08T10:11:13.000Z</time>
      </trkpt>
      <trkpt lat="50.4969" lon="3.85727">
        <ele>123.33</ele>
        <time>2020-11-08T10:11:14.000Z</time>
      </trkpt>
      <trkpt lat="50.49692" lon="3.85717">
        <ele>123.4</ele>
        <time>2020-11-08T10:11:15.000Z</time>
      </trkpt>
      <trkpt lat="50.49693" lon="3.85707">
        <ele>124.82</ele>
        <time>2020-11-08T10:11:16.000Z</time>
      </trkpt>
      <trkpt lat="50.49694" lon="3.85698">
        <ele>125.8</ele>
        <time>2020-11-08T10:11:17.000Z</time>
      </trkpt>
      <trkpt lat="50.49696" lon="3.85688">
        <ele>126.15</ele>
        <time>2020-11-08T10:11:18.000Z</time>
      </trkpt>
      <trkpt lat="50.49698" lon="3.8568">
        <ele>125.33</ele>
        <time>2020-11-08T10:11:19.000Z</time>
      </trkpt>
      <trkpt lat="50.49701" lon="3.85671">
        <ele>124.07</ele>
        <time>2020-11-08T10:11:20.000Z</time>
      </trkpt>
      <trkpt lat="50.49703" lon="3.85663">
        <ele>124.27</ele>
        <time>2020-11-08T10:11:21.000Z</time>
      </trkpt>
      <trkpt lat="50.49705" lon="3.85654">
        <ele>123.24</ele>
        <time>2020-11-08T10:11:22.000Z</time>
      </trkpt>
      <trkpt lat="50.49707" lon="3.85645">
        <ele>122.85</ele>
        <time>2020-11-08T10:11:23.000Z</time>
      </trkpt>
      <trkpt lat="50.49709" lon="3.85635">
        <ele>123.62</ele>
        <time>2020-11-08T10:11:24.000Z</time>
      </trkpt>
      <trkpt lat="50.49711" lon="3.85625">
        <ele>123.43</ele>
        <time>2020-11-08T10:11:25.000Z</time>
      </trkpt>
      <trkpt lat="50.49712" lon="3.85616">
        <ele>124.21</ele>
        <time>2020-11-08T10:11:26.000Z</time>
      </trkpt>
      <trkpt lat="50.49714" lon="3.85606">
        <ele>124.66</ele>
        <time>2020-11-08T10:11:27.000Z</time>
      </trkpt>
      <trkpt lat="50.49717" lon="3.85597">
        <ele>124.21</ele>
        <time>2020-11-08T10:11:28.000Z</time>
      </trkpt>
      <trkpt lat="50.49718" lon="3.85586">
        <ele>124.22</ele>
        <time>2020-11-08T10:11:29.000Z</time>
      </trkpt>
      <trkpt lat="50.49718" lon="3.85576">
        <ele>124.05</ele>
        <time>2020-11-08T10:11:30.000Z</time>
      </trkpt>
      <trkpt lat="50.49721" lon="3.85563">
        <ele>124.61</ele>
        <time>2020-11-08T10:11:31.000Z</time>
      </trkpt>
      <trkpt lat="50.49723" lon="3.85553">
        <ele>124.11</ele>
        <time>2020-11-08T10:11:32.000Z</time>
      </trkpt>
      <trkpt lat="50.49726" lon="3.85544">
        <ele>124.63</ele>
        <time>2020-11-08T10:11:33.000Z</time>
      </trkpt>
      <trkpt lat="50.49727" lon="3.85536">
        <ele>124.35</ele>
        <time>2020-11-08T10:11:34.000Z</time>
      </trkpt>
      <trkpt lat="50.49729" lon="3.85528">
        <ele>124.82</ele>
        <time>2020-11-08T10:11:35.000Z</time>
      </trkpt>
      <trkpt lat="50.4973" lon="3.85516">
        <ele>125.27</ele>
        <time>2020-11-08T10:11:36.000Z</time>
      </trkpt>
      <trkpt lat="50.49731" lon="3.85507">
        <ele>124.51</ele>
        <time>2020-11-08T10:11:37.000Z</time>
      </trkpt>
      <trkpt lat="50.49733" lon="3.85498">
        <ele>125.3</ele>
        <time>2020-11-08T10:11:38.000Z</time>
      </trkpt>
      <trkpt lat="50.49736" lon="3.85489">
        <ele>125.93</ele>
        <time>2020-11-08T10:11:39.000Z</time>
      </trkpt>
      <trkpt lat="50.49738" lon="3.85479">
        <ele>126.17</ele>
        <time>2020-11-08T10:11:40.000Z</time>
      </trkpt>
      <trkpt lat="50.49739" lon="3.85469">
        <ele>126.03</ele>
        <time>2020-11-08T10:11:41.000Z</time>
      </trkpt>
      <trkpt lat="50.4974" lon="3.85459">
        <ele>128.01</ele>
        <time>2020-11-08T10:11:42.000Z</time>
      </trkpt>
      <trkpt lat="50.49741" lon="3.8545">
        <ele>127.07</ele>
        <time>2020-11-08T10:11:43.000Z</time>
      </trkpt>
      <trkpt lat="50.49743" lon="3.85441">
        <ele>126.13</ele>
        <time>2020-11-08T10:11:44.000Z</time>
      </trkpt>
      <trkpt lat="50.49745" lon="3.85431">
        <ele>125.95</ele>
        <time>2020-11-08T10:11:45.000Z</time>
      </trkpt>
      <trkpt lat="50.49747" lon="3.85421">
        <ele>126.03</ele>
        <time>2020-11-08T10:11:46.000Z</time>
      </trkpt>
      <trkpt lat="50.49749" lon="3.85412">
        <ele>124.93</ele>
        <time>2020-11-08T10:11:47.000Z</time>
      </trkpt>
      <trkpt lat="50.49751" lon="3.85402">
        <ele>125.75</ele>
        <time>2020-11-08T10:11:48.000Z</time>
      </trkpt>
      <trkpt lat="50.49752" lon="3.85394">
        <ele>125.56</ele>
        <time>2020-11-08T10:11:49.000Z</time>
      </trkpt>
      <trkpt lat="50.49755" lon="3.85383">
        <ele>124.47</ele>
        <time>2020-11-08T10:11:50.000Z</time>
      </trkpt>
      <trkpt lat="50.49756" lon="3.85375">
        <ele>124.76</ele>
        <time>2020-11-08T10:11:51.000Z</time>
      </trkpt>
      <trkpt lat="50.49758" lon="3.85367">
        <ele>124.63</ele>
        <time>2020-11-08T10:11:52.000Z</time>
      </trkpt>
      <trkpt lat="50.49761" lon="3.85358">
        <ele>125.96</ele>
        <time>2020-11-08T10:11:53.000Z</time>
      </trkpt>
      <trkpt lat="50.49763" lon="3.85349">
        <ele>125.43</ele>
        <time>2020-11-08T10:11:54.000Z</time>
      </trkpt>
      <trkpt lat="50.49765" lon="3.8534">
        <ele>124.44</ele>
        <time>2020-11-08T10:11:55.000Z</time>
      </trkpt>
      <trkpt lat="50.49767" lon="3.85331">
        <ele>123.94</ele>
        <time>2020-11-08T10:11:56.000Z</time>
      </trkpt>
      <trkpt lat="50.49768" lon="3.85324">
        <ele>124.69</ele>
        <time>2020-11-08T10:11:57.000Z</time>
      </trkpt>
      <trkpt lat="50.49769" lon="3.85316">
        <ele>125.78</ele>
        <time>2020-11-08T10:11:58.000Z</time>
      </trkpt>
      <trkpt lat="50.4977" lon="3.85307">
        <ele>126.36</ele>
        <time>2020-11-08T10:12:00.000Z</time>
      </trkpt>
      <trkpt lat="50.4977" lon="3.85307">
        <ele>126.36</ele>
        <time>2020-11-08T10:12:00.001Z</time>
      </trkpt>
      <trkpt lat="50.49769" lon="3.85298">
        <ele>129.32</ele>
        <time>2020-11-08T10:13:13.000Z</time>
      </trkpt>
      <trkpt lat="50.49766" lon="3.85292">
        <ele>128.82</ele>
        <time>2020-11-08T10:13:15.000Z</time>
      </trkpt>
      <trkpt lat="50.49765" lon="3.85281">
        <ele>128.01</ele>
        <time>2020-11-08T10:13:17.000Z</time>
      </trkpt>
      <trkpt lat="50.49762" lon="3.85269">
        <ele>128.26</ele>
        <time>2020-11-08T10:13:19.000Z</time>
      </trkpt>
      <trkpt lat="50.4976" lon="3.85261">
        <ele>127.87</ele>
        <time>2020-11-08T10:13:20.000Z</time>
      </trkpt>
      <trkpt lat="50.49758" lon="3.85254">
        <ele>127.84</ele>
        <time>2020-11-08T10:13:21.000Z</time>
      </trkpt>
      <trkpt lat="50.49755" lon="3.85245">
        <ele>128.16</ele>
        <time>2020-11-08T10:13:22.000Z</time>
      </trkpt>
      <trkpt lat="50.49753" lon="3.85238">
        <ele>127.83</ele>
        <time>2020-11-08T10:13:23.000Z</time>
      </trkpt>
      <trkpt lat="50.4975" lon="3.85231">
        <ele>128.41</ele>
        <time>2020-11-08T10:13:24.000Z</time>
      </trkpt>
      <trkpt lat="50.49748" lon="3.85222">
        <ele>129.15</ele>
        <time>2020-11-08T10:13:25.000Z</time>
      </trkpt>
      <trkpt lat="50.49745" lon="3.85215">
        <ele>128.54</ele>
        <time>2020-11-08T10:13:26.000Z</time>
      </trkpt>
      <trkpt lat="50.49744" lon="3.85206">
        <ele>128.94</ele>
        <time>2020-11-08T10:13:27.000Z</time>
      </trkpt>
      <trkpt lat="50.4974" lon="3.85192">
        <ele>127.94</ele>
        <time>2020-11-08T10:13:29.000Z</time>
      </trkpt>
      <trkpt lat="50.49737" lon="3.85182">
        <ele>127.11</ele>
        <time>2020-11-08T10:13:31.000Z</time>
      </trkpt>
      <trkpt lat="50.49735" lon="3.85167">
        <ele>128.16</ele>
        <time>2020-11-08T10:13:33.000Z</time>
      </trkpt>
      <trkpt lat="50.49733" lon="3.85159">
        <ele>127.21</ele>
        <time>2020-11-08T10:13:34.000Z</time>
      </trkpt>
      <trkpt lat="50.49732" lon="3.8515">
        <ele>128.33</ele>
        <time>2020-11-08T10:13:35.000Z</time>
      </trkpt>
      <trkpt lat="50.49732" lon="3.85142">
        <ele>127.93</ele>
        <time>2020-11-08T10:13:36.000Z</time>
      </trkpt>
      <trkpt lat="50.49731" lon="3.85134">
        <ele>128.11</ele>
        <time>2020-11-08T10:13:37.000Z</time>
      </trkpt>
      <trkpt lat="50.49728" lon="3.85124">
        <ele>129.1</ele>
        <time>2020-11-08T10:13:38.000Z</time>
      </trkpt>
      <trkpt lat="50.49726" lon="3.85117">
        <ele>129.45</ele>
        <time>2020-11-08T10:13:39.000Z</time>
      </trkpt>
      <trkpt lat="50.49724" lon="3.85108">
        <ele>129.46</ele>
        <time>2020-11-08T10:13:40.000Z</time>
      </trkpt>
      <trkpt lat="50.49722" lon="3.85101">
        <ele>128.47</ele>
        <time>2020-11-08T10:13:41.000Z</time>
      </trkpt>
      <trkpt lat="50.4972" lon="3.85093">
        <ele>128.4</ele>
        <time>2020-11-08T10:13:42.000Z</time>
      </trkpt>
      <trkpt lat="50.49718" lon="3.85085">
        <ele>128.3</ele>
        <time>2020-11-08T10:13:43.000Z</time>
      </trkpt>
      <trkpt lat="50.49715" lon="3.85076">
        <ele>128.62</ele>
        <time>2020-11-08T10:13:44.000Z</time>
      </trkpt>
      <trkpt lat="50.49713" lon="3.85067">
        <ele>128.48</ele>
        <time>2020-11-08T10:13:45.000Z</time>
      </trkpt>
      <trkpt lat="50.49711" lon="3.85059">
        <ele>127.68</ele>
        <time>2020-11-08T10:13:46.000Z</time>
      </trkpt>
      <trkpt lat="50.4971" lon="3.8505">
        <ele>127.57</ele>
        <time>2020-11-08T10:13:47.000Z</time>
      </trkpt>
      <trkpt lat="50.49707" lon="3.8504">
        <ele>127.03</ele>
        <time>2020-11-08T10:13:48.000Z</time>
      </trkpt>
      <trkpt lat="50.49704" lon="3.85031">
        <ele>127.23</ele>
        <time>2020-11-08T10:13:49.000Z</time>
      </trkpt>
      <trkpt lat="50.49703" lon="3.85022">
        <ele>126.84</ele>
        <time>2020-11-08T10:13:50.000Z</time>
      </trkpt>
      <trkpt lat="50.497" lon="3.85012">
        <ele>126.42</ele>
        <time>2020-11-08T10:13:51.000Z</time>
      </trkpt>
      <trkpt lat="50.49698" lon="3.85002">
        <ele>125.6</ele>
        <time>2020-11-08T10:13:52.000Z</time>
      </trkpt>
      <trkpt lat="50.49696" lon="3.84992">
        <ele>125.78</ele>
        <time>2020-11-08T10:13:53.000Z</time>
      </trkpt>
      <trkpt lat="50.49692" lon="3.84981">
        <ele>126.16</ele>
        <time>2020-11-08T10:13:54.000Z</time>
      </trkpt>
      <trkpt lat="50.49689" lon="3.84971">
        <ele>125.44</ele>
        <time>2020-11-08T10:13:55.000Z</time>
      </trkpt>
      <trkpt lat="50.49686" lon="3.8496">
        <ele>125.45</ele>
        <time>2020-11-08T10:13:56.000Z</time>
      </trkpt>
      <trkpt lat="50.49683" lon="3.84949">
        <ele>125.91</ele>
        <time>2020-11-08T10:13:57.000Z</time>
      </trkpt>
      <trkpt lat="50.49681" lon="3.8494">
        <ele>125.98</ele>
        <time>2020-11-08T10:13:58.000Z</time>
      </trkpt>
      <trkpt lat="50.49679" lon="3.8493">
        <ele>126.26</ele>
        <time>2020-11-08T10:13:59.000Z</time>
      </trkpt>
      <trkpt lat="50.49676" lon="3.84921">
        <ele>126.33</ele>
        <time>2020-11-08T10:14:00.000Z</time>
      </trkpt>
      <trkpt lat="50.49675" lon="3.84912">
        <ele>126.67</ele>
        <time>2020-11-08T10:14:01.000Z</time>
      </trkpt>
      <trkpt lat="50.49673" lon="3.84903">
        <ele>127.29</ele>
        <time>2020-11-08T10:14:02.000Z</time>
      </trkpt>
      <trkpt lat="50.49671" lon="3.84895">
        <ele>127.33</ele>
        <time>2020-11-08T10:14:03.000Z</time>
      </trkpt>
      <trkpt lat="50.49668" lon="3.84887">
        <ele>127.13</ele>
        <time>2020-11-08T10:14:04.000Z</time>
      </trkpt>
      <trkpt lat="50.49666" lon="3.8488">
        <ele>127.49</ele>
        <time>2020-11-08T10:14:05.000Z</time>
      </trkpt>
      <trkpt lat="50.49665" lon="3.84873">
        <ele>127.58</ele>
        <time>2020-11-08T10:14:06.000Z</time>
      </trkpt>
      <trkpt lat="50.49662" lon="3.84866">
        <ele>127.68</ele>
        <time>2020-11-08T10:14:07.000Z</time>
      </trkpt>
      <trkpt lat="50.4966" lon="3.84858">
        <ele>127.79</ele>
        <time>2020-11-08T10:14:08.000Z</time>
      </trkpt>
      <trkpt lat="50.49659" lon="3.84849">
        <ele>127.95</ele>
        <time>2020-11-08T10:14:09.000Z</time>
      </trkpt>
      <trkpt lat="50.49657" lon="3.84842">
        <ele>128.55</ele>
        <time>2020-11-08T10:14:10.000Z</time>
      </trkpt>
      <trkpt lat="50.49656" lon="3.84834">
        <ele>128.86</ele>
        <time>2020-11-08T10:14:11.000Z</time>
      </trkpt>
      <trkpt lat="50.49655" lon="3.84823">
        <ele>128.88</ele>
        <time>2020-11-08T10:14:12.000Z</time>
      </trkpt>
      <trkpt lat="50.49651" lon="3.84814">
        <ele>129.55</ele>
        <time>2020-11-08T10:14:13.000Z</time>
      </trkpt>
      <trkpt lat="50.49649" lon="3.84805">
        <ele>130.06</ele>
        <time>2020-11-08T10:14:14.000Z</time>
      </trkpt>
      <trkpt lat="50.49646" lon="3.84794">
        <ele>129.33</ele>
        <time>2020-11-08T10:14:15.000Z</time>
      </trkpt>
      <trkpt lat="50.49644" lon="3.84783">
        <ele>130.07</ele>
        <time>2020-11-08T10:14:16.000Z</time>
      </trkpt>
      <trkpt lat="50.4964" lon="3.84773">
        <ele>130.6</ele>
        <time>2020-11-08T10:14:17.000Z</time>
      </trkpt>
      <trkpt lat="50.49638" lon="3.84763">
        <ele>131.79</ele>
        <time>2020-11-08T10:14:18.000Z</time>
      </trkpt>
      <trkpt lat="50.49636" lon="3.84754">
        <ele>130.76</ele>
        <time>2020-11-08T10:14:19.000Z</time>
      </trkpt>
      <trkpt lat="50.49632" lon="3.84744">
        <ele>130.65</ele>
        <time>2020-11-08T10:14:20.000Z</time>
      </trkpt>
      <trkpt lat="50.49629" lon="3.84736">
        <ele>130.72</ele>
        <time>2020-11-08T10:14:21.000Z</time>
      </trkpt>
      <trkpt lat="50.49625" lon="3.84723">
        <ele>128.46</ele>
        <time>2020-11-08T10:14:23.000Z</time>
      </trkpt>
      <trkpt lat="50.49623" lon="3.84715">
        <ele>127.94</ele>
        <time>2020-11-08T10:14:24.000Z</time>
      </trkpt>
      <trkpt lat="50.49621" lon="3.84705">
        <ele>127.72</ele>
        <time>2020-11-08T10:14:25.000Z</time>
      </trkpt>
      <trkpt lat="50.49619" lon="3.84695">
        <ele>128.23</ele>
        <time>2020-11-08T10:14:26.000Z</time>
      </trkpt>
      <trkpt lat="50.49617" lon="3.84687">
        <ele>128.27</ele>
        <time>2020-11-08T10:14:27.000Z</time>
      </trkpt>
      <trkpt lat="50.49615" lon="3.84677">
        <ele>128.3</ele>
        <time>2020-11-08T10:14:28.000Z</time>
      </trkpt>
      <trkpt lat="50.49614" lon="3.84669">
        <ele>128.13</ele>
        <time>2020-11-08T10:14:29.000Z</time>
      </trkpt>
      <trkpt lat="50.4961" lon="3.84659">
        <ele>128.51</ele>
        <time>2020-11-08T10:14:30.000Z</time>
      </trkpt>
      <trkpt lat="50.49609" lon="3.84649">
        <ele>128.48</ele>
        <time>2020-11-08T10:14:31.000Z</time>
      </trkpt>
      <trkpt lat="50.49605" lon="3.84639">
        <ele>129.05</ele>
        <time>2020-11-08T10:14:32.000Z</time>
      </trkpt>
      <trkpt lat="50.49604" lon="3.84631">
        <ele>128.09</ele>
        <time>2020-11-08T10:14:33.000Z</time>
      </trkpt>
      <trkpt lat="50.49602" lon="3.84622">
        <ele>127.08</ele>
        <time>2020-11-08T10:14:34.000Z</time>
      </trkpt>
      <trkpt lat="50.496" lon="3.84613">
        <ele>125.68</ele>
        <time>2020-11-08T10:14:35.000Z</time>
      </trkpt>
      <trkpt lat="50.49599" lon="3.84605">
        <ele>126.46</ele>
        <time>2020-11-08T10:14:36.000Z</time>
      </trkpt>
      <trkpt lat="50.49596" lon="3.84597">
        <ele>126.44</ele>
        <time>2020-11-08T10:14:37.000Z</time>
      </trkpt>
      <trkpt lat="50.49594" lon="3.84587">
        <ele>126.27</ele>
        <time>2020-11-08T10:14:38.000Z</time>
      </trkpt>
      <trkpt lat="50.49592" lon="3.84581">
        <ele>125.95</ele>
        <time>2020-11-08T10:14:39.000Z</time>
      </trkpt>
      <trkpt lat="50.4959" lon="3.84573">
        <ele>122.78</ele>
        <time>2020-11-08T10:14:40.000Z</time>
      </trkpt>
      <trkpt lat="50.49589" lon="3.84563">
        <ele>123.57</ele>
        <time>2020-11-08T10:14:41.000Z</time>
      </trkpt>
      <trkpt lat="50.49586" lon="3.84554">
        <ele>123.45</ele>
        <time>2020-11-08T10:14:42.000Z</time>
      </trkpt>
      <trkpt lat="50.49585" lon="3.84544">
        <ele>123.2</ele>
        <time>2020-11-08T10:14:43.000Z</time>
      </trkpt>
      <trkpt lat="50.49582" lon="3.84535">
        <ele>123.69</ele>
        <time>2020-11-08T10:14:44.000Z</time>
      </trkpt>
      <trkpt lat="50.4958" lon="3.84525">
        <ele>123.98</ele>
        <time>2020-11-08T10:14:45.000Z</time>
      </trkpt>
      <trkpt lat="50.49579" lon="3.84517">
        <ele>123.37</ele>
        <time>2020-11-08T10:14:46.000Z</time>
      </trkpt>
      <trkpt lat="50.49576" lon="3.84508">
        <ele>124.04</ele>
        <time>2020-11-08T10:14:47.000Z</time>
      </trkpt>
      <trkpt lat="50.49574" lon="3.84498">
        <ele>124.36</ele>
        <time>2020-11-08T10:14:48.000Z</time>
      </trkpt>
      <trkpt lat="50.49572" lon="3.84489">
        <ele>124.98</ele>
        <time>2020-11-08T10:14:49.000Z</time>
      </trkpt>
      <trkpt lat="50.49567" lon="3.84472">
        <ele>126.68</ele>
        <time>2020-11-08T10:14:51.000Z</time>
      </trkpt>
      <trkpt lat="50.49565" lon="3.84464">
        <ele>127.42</ele>
        <time>2020-11-08T10:14:52.000Z</time>
      </trkpt>
      <trkpt lat="50.49563" lon="3.84457">
        <ele>127.04</ele>
        <time>2020-11-08T10:14:53.000Z</time>
      </trkpt>
      <trkpt lat="50.49561" lon="3.8445">
        <ele>124.97</ele>
        <time>2020-11-08T10:14:54.000Z</time>
      </trkpt>
      <trkpt lat="50.49557" lon="3.84435">
        <ele>125.27</ele>
        <time>2020-11-08T10:14:56.000Z</time>
      </trkpt>
      <trkpt lat="50.49555" lon="3.84428">
        <ele>125.69</ele>
        <time>2020-11-08T10:14:57.000Z</time>
      </trkpt>
      <trkpt lat="50.49553" lon="3.8442">
        <ele>126.11</ele>
        <time>2020-11-08T10:14:58.000Z</time>
      </trkpt>
      <trkpt lat="50.49551" lon="3.84411">
        <ele>126.15</ele>
        <time>2020-11-08T10:14:59.000Z</time>
      </trkpt>
      <trkpt lat="50.49548" lon="3.84404">
        <ele>126.22</ele>
        <time>2020-11-08T10:15:00.000Z</time>
      </trkpt>
      <trkpt lat="50.49546" lon="3.84397">
        <ele>127.17</ele>
        <time>2020-11-08T10:15:01.000Z</time>
      </trkpt>
      <trkpt lat="50.49542" lon="3.84388">
        <ele>127.24</ele>
        <time>2020-11-08T10:15:03.000Z</time>
      </trkpt>
      <trkpt lat="50.49542" lon="3.84379">
        <ele>126.91</ele>
        <time>2020-11-08T10:15:05.000Z</time>
      </trkpt>
      <trkpt lat="50.4954" lon="3.84369">
        <ele>126.65</ele>
        <time>2020-11-08T10:15:07.000Z</time>
      </trkpt>
      <trkpt lat="50.49538" lon="3.84357">
        <ele>126.04</ele>
        <time>2020-11-08T10:15:09.000Z</time>
      </trkpt>
      <trkpt lat="50.49533" lon="3.84344">
        <ele>126.13</ele>
        <time>2020-11-08T10:15:10.000Z</time>
      </trkpt>
      <trkpt lat="50.49529" lon="3.84333">
        <ele>126.16</ele>
        <time>2020-11-08T10:15:11.000Z</time>
      </trkpt>
      <trkpt lat="50.49527" lon="3.8432">
        <ele>126.22</ele>
        <time>2020-11-08T10:15:12.000Z</time>
      </trkpt>
      <trkpt lat="50.49524" lon="3.84308">
        <ele>126.57</ele>
        <time>2020-11-08T10:15:13.000Z</time>
      </trkpt>
      <trkpt lat="50.49521" lon="3.84296">
        <ele>125.4</ele>
        <time>2020-11-08T10:15:14.000Z</time>
      </trkpt>
      <trkpt lat="50.49519" lon="3.84283">
        <ele>125.42</ele>
        <time>2020-11-08T10:15:15.000Z</time>
      </trkpt>
      <trkpt lat="50.49516" lon="3.84271">
        <ele>125.21</ele>
        <time>2020-11-08T10:15:16.000Z</time>
      </trkpt>
      <trkpt lat="50.49514" lon="3.84259">
        <ele>125.39</ele>
        <time>2020-11-08T10:15:17.000Z</time>
      </trkpt>
      <trkpt lat="50.49511" lon="3.84248">
        <ele>125.71</ele>
        <time>2020-11-08T10:15:18.000Z</time>
      </trkpt>
      <trkpt lat="50.4951" lon="3.84238">
        <ele>126.32</ele>
        <time>2020-11-08T10:15:19.000Z</time>
      </trkpt>
      <trkpt lat="50.49506" lon="3.84229">
        <ele>127.1</ele>
        <time>2020-11-08T10:15:20.000Z</time>
      </trkpt>
      <trkpt lat="50.49504" lon="3.8422">
        <ele>126.81</ele>
        <time>2020-11-08T10:15:21.000Z</time>
      </trkpt>
      <trkpt lat="50.495" lon="3.8421">
        <ele>127.8</ele>
        <time>2020-11-08T10:15:22.000Z</time>
      </trkpt>
      <trkpt lat="50.49498" lon="3.84201">
        <ele>126.45</ele>
        <time>2020-11-08T10:15:23.000Z</time>
      </trkpt>
      <trkpt lat="50.49496" lon="3.84192">
        <ele>126.05</ele>
        <time>2020-11-08T10:15:24.000Z</time>
      </trkpt>
      <trkpt lat="50.49494" lon="3.84183">
        <ele>126.43</ele>
        <time>2020-11-08T10:15:25.000Z</time>
      </trkpt>
      <trkpt lat="50.49492" lon="3.84174">
        <ele>126.61</ele>
        <time>2020-11-08T10:15:26.000Z</time>
      </trkpt>
      <trkpt lat="50.4949" lon="3.84164">
        <ele>125.31</ele>
        <time>2020-11-08T10:15:27.000Z</time>
      </trkpt>
      <trkpt lat="50.49488" lon="3.84154">
        <ele>125.46</ele>
        <time>2020-11-08T10:15:28.000Z</time>
      </trkpt>
      <trkpt lat="50.49485" lon="3.84143">
        <ele>125.96</ele>
        <time>2020-11-08T10:15:29.000Z</time>
      </trkpt>
      <trkpt lat="50.49482" lon="3.84134">
        <ele>126.26</ele>
        <time>2020-11-08T10:15:30.000Z</time>
      </trkpt>
      <trkpt lat="50.4948" lon="3.84124">
        <ele>126.86</ele>
        <time>2020-11-08T10:15:31.000Z</time>
      </trkpt>
      <trkpt lat="50.4948" lon="3.84114">
        <ele>125.34</ele>
        <time>2020-11-08T10:15:32.000Z</time>
      </trkpt>
      <trkpt lat="50.4948" lon="3.84102">
        <ele>124.39</ele>
        <time>2020-11-08T10:15:33.000Z</time>
      </trkpt>
      <trkpt lat="50.4948" lon="3.84091">
        <ele>125.73</ele>
        <time>2020-11-08T10:15:34.000Z</time>
      </trkpt>
      <trkpt lat="50.49479" lon="3.8408">
        <ele>125.98</ele>
        <time>2020-11-08T10:15:35.000Z</time>
      </trkpt>
      <trkpt lat="50.49479" lon="3.8407">
        <ele>125.92</ele>
        <time>2020-11-08T10:15:36.000Z</time>
      </trkpt>
      <trkpt lat="50.49479" lon="3.8406">
        <ele>126.08</ele>
        <time>2020-11-08T10:15:37.000Z</time>
      </trkpt>
      <trkpt lat="50.4948" lon="3.84051">
        <ele>125.21</ele>
        <time>2020-11-08T10:15:38.000Z</time>
      </trkpt>
      <trkpt lat="50.49481" lon="3.8404">
        <ele>125.37</ele>
        <time>2020-11-08T10:15:39.000Z</time>
      </trkpt>
      <trkpt lat="50.49481" lon="3.84028">
        <ele>125.99</ele>
        <time>2020-11-08T10:15:40.000Z</time>
      </trkpt>
      <trkpt lat="50.49481" lon="3.84016">
        <ele>126.51</ele>
        <time>2020-11-08T10:15:41.000Z</time>
      </trkpt>
      <trkpt lat="50.49481" lon="3.84005">
        <ele>125.81</ele>
        <time>2020-11-08T10:15:42.000Z</time>
      </trkpt>
      <trkpt lat="50.49481" lon="3.83993">
        <ele>125.72</ele>
        <time>2020-11-08T10:15:43.000Z</time>
      </trkpt>
      <trkpt lat="50.49481" lon="3.83983">
        <ele>125.46</ele>
        <time>2020-11-08T10:15:44.000Z</time>
      </trkpt>
      <trkpt lat="50.49481" lon="3.83973">
        <ele>124.12</ele>
        <time>2020-11-08T10:15:45.000Z</time>
      </trkpt>
      <trkpt lat="50.49481" lon="3.83962">
        <ele>124.1</ele>
        <time>2020-11-08T10:15:46.000Z</time>
      </trkpt>
      <trkpt lat="50.49481" lon="3.83952">
        <ele>123.6</ele>
        <time>2020-11-08T10:15:47.000Z</time>
      </trkpt>
      <trkpt lat="50.49481" lon="3.8394">
        <ele>123.01</ele>
        <time>2020-11-08T10:15:48.000Z</time>
      </trkpt>
      <trkpt lat="50.49482" lon="3.83928">
        <ele>123.1</ele>
        <time>2020-11-08T10:15:49.000Z</time>
      </trkpt>
      <trkpt lat="50.49482" lon="3.83917">
        <ele>123.4</ele>
        <time>2020-11-08T10:15:50.000Z</time>
      </trkpt>
      <trkpt lat="50.49482" lon="3.83905">
        <ele>123.45</ele>
        <time>2020-11-08T10:15:51.000Z</time>
      </trkpt>
      <trkpt lat="50.49482" lon="3.83893">
        <ele>123.61</ele>
        <time>2020-11-08T10:15:52.000Z</time>
      </trkpt>
      <trkpt lat="50.49482" lon="3.83881">
        <ele>123.37</ele>
        <time>2020-11-08T10:15:53.000Z</time>
      </trkpt>
      <trkpt lat="50.49481" lon="3.83871">
        <ele>122.43</ele>
        <time>2020-11-08T10:15:54.000Z</time>
      </trkpt>
      <trkpt lat="50.49482" lon="3.83857">
        <ele>122.22</ele>
        <time>2020-11-08T10:15:55.000Z</time>
      </trkpt>
      <trkpt lat="50.49482" lon="3.83844">
        <ele>121.41</ele>
        <time>2020-11-08T10:15:56.000Z</time>
      </trkpt>
      <trkpt lat="50.49481" lon="3.83831">
        <ele>121.9</ele>
        <time>2020-11-08T10:15:57.000Z</time>
      </trkpt>
      <trkpt lat="50.49481" lon="3.83818">
        <ele>120.83</ele>
        <time>2020-11-08T10:15:58.000Z</time>
      </trkpt>
      <trkpt lat="50.49481" lon="3.83805">
        <ele>120.48</ele>
        <time>2020-11-08T10:15:59.000Z</time>
      </trkpt>
      <trkpt lat="50.49482" lon="3.83791">
        <ele>121.55</ele>
        <time>2020-11-08T10:16:00.000Z</time>
      </trkpt>
      <trkpt lat="50.49481" lon="3.83779">
        <ele>121.04</ele>
        <time>2020-11-08T10:16:01.000Z</time>
      </trkpt>
      <trkpt lat="50.49482" lon="3.83767">
        <ele>120.86</ele>
        <time>2020-11-08T10:16:02.000Z</time>
      </trkpt>
      <trkpt lat="50.49482" lon="3.83751">
        <ele>120.2</ele>
        <time>2020-11-08T10:16:04.000Z</time>
      </trkpt>
      <trkpt lat="50.49483" lon="3.83742">
        <ele>120.16</ele>
        <time>2020-11-08T10:16:05.000Z</time>
      </trkpt>
      <trkpt lat="50.49484" lon="3.83733">
        <ele>120.32</ele>
        <time>2020-11-08T10:16:06.000Z</time>
      </trkpt>
      <trkpt lat="50.49486" lon="3.83724">
        <ele>121.38</ele>
        <time>2020-11-08T10:16:07.000Z</time>
      </trkpt>
      <trkpt lat="50.49489" lon="3.83715">
        <ele>122.16</ele>
        <time>2020-11-08T10:16:08.000Z</time>
      </trkpt>
      <trkpt lat="50.49495" lon="3.83708">
        <ele>122.25</ele>
        <time>2020-11-08T10:16:09.000Z</time>
      </trkpt>
      <trkpt lat="50.49501" lon="3.83701">
        <ele>121.54</ele>
        <time>2020-11-08T10:16:10.000Z</time>
      </trkpt>
      <trkpt lat="50.49507" lon="3.83696">
        <ele>121.22</ele>
        <time>2020-11-08T10:16:11.000Z</time>
      </trkpt>
      <trkpt lat="50.49513" lon="3.83691">
        <ele>121.61</ele>
        <time>2020-11-08T10:16:12.000Z</time>
      </trkpt>
      <trkpt lat="50.49518" lon="3.83687">
        <ele>121.64</ele>
        <time>2020-11-08T10:16:13.000Z</time>
      </trkpt>
      <trkpt lat="50.49523" lon="3.83682">
        <ele>122.04</ele>
        <time>2020-11-08T10:16:14.000Z</time>
      </trkpt>
      <trkpt lat="50.49528" lon="3.83677">
        <ele>120.89</ele>
        <time>2020-11-08T10:16:15.000Z</time>
      </trkpt>
      <trkpt lat="50.49533" lon="3.83672">
        <ele>121.89</ele>
        <time>2020-11-08T10:16:16.000Z</time>
      </trkpt>
      <trkpt lat="50.4954" lon="3.83664">
        <ele>121.09</ele>
        <time>2020-11-08T10:16:18.000Z</time>
      </trkpt>
      <trkpt lat="50.49545" lon="3.8366">
        <ele>122.04</ele>
        <time>2020-11-08T10:16:19.000Z</time>
      </trkpt>
      <trkpt lat="50.49549" lon="3.83655">
        <ele>121.81</ele>
        <time>2020-11-08T10:16:20.000Z</time>
      </trkpt>
      <trkpt lat="50.49553" lon="3.8365">
        <ele>122.59</ele>
        <time>2020-11-08T10:16:21.000Z</time>
      </trkpt>
      <trkpt lat="50.49558" lon="3.83645">
        <ele>121.75</ele>
        <time>2020-11-08T10:16:22.000Z</time>
      </trkpt>
      <trkpt lat="50.49563" lon="3.8364">
        <ele>122.37</ele>
        <time>2020-11-08T10:16:23.000Z</time>
      </trkpt>
      <trkpt lat="50.49568" lon="3.83635">
        <ele>123.32</ele>
        <time>2020-11-08T10:16:24.000Z</time>
      </trkpt>
      <trkpt lat="50.49572" lon="3.8363">
        <ele>123.63</ele>
        <time>2020-11-08T10:16:25.000Z</time>
      </trkpt>
      <trkpt lat="50.49578" lon="3.83623">
        <ele>123.39</ele>
        <time>2020-11-08T10:16:26.000Z</time>
      </trkpt>
      <trkpt lat="50.49584" lon="3.83619">
        <ele>122.78</ele>
        <time>2020-11-08T10:16:27.000Z</time>
      </trkpt>
      <trkpt lat="50.49591" lon="3.83613">
        <ele>122.51</ele>
        <time>2020-11-08T10:16:28.000Z</time>
      </trkpt>
      <trkpt lat="50.49596" lon="3.83605">
        <ele>122.47</ele>
        <time>2020-11-08T10:16:29.000Z</time>
      </trkpt>
      <trkpt lat="50.49602" lon="3.83597">
        <ele>122.85</ele>
        <time>2020-11-08T10:16:30.000Z</time>
      </trkpt>
      <trkpt lat="50.49608" lon="3.8359">
        <ele>123.04</ele>
        <time>2020-11-08T10:16:31.000Z</time>
      </trkpt>
      <trkpt lat="50.49615" lon="3.83582">
        <ele>122.7</ele>
        <time>2020-11-08T10:16:32.000Z</time>
      </trkpt>
      <trkpt lat="50.49622" lon="3.83574">
        <ele>123.03</ele>
        <time>2020-11-08T10:16:33.000Z</time>
      </trkpt>
      <trkpt lat="50.49628" lon="3.83566">
        <ele>123.37</ele>
        <time>2020-11-08T10:16:34.000Z</time>
      </trkpt>
      <trkpt lat="50.49634" lon="3.83558">
        <ele>123.53</ele>
        <time>2020-11-08T10:16:35.000Z</time>
      </trkpt>
      <trkpt lat="50.49641" lon="3.83551">
        <ele>122.64</ele>
        <time>2020-11-08T10:16:36.000Z</time>
      </trkpt>
      <trkpt lat="50.49647" lon="3.83544">
        <ele>122.6</ele>
        <time>2020-11-08T10:16:37.000Z</time>
      </trkpt>
      <trkpt lat="50.49652" lon="3.83538">
        <ele>122.47</ele>
        <time>2020-11-08T10:16:38.000Z</time>
      </trkpt>
      <trkpt lat="50.49658" lon="3.83533">
        <ele>120.55</ele>
        <time>2020-11-08T10:16:39.000Z</time>
      </trkpt>
      <trkpt lat="50.49663" lon="3.83528">
        <ele>120.24</ele>
        <time>2020-11-08T10:16:40.000Z</time>
      </trkpt>
      <trkpt lat="50.49669" lon="3.83521">
        <ele>120.44</ele>
        <time>2020-11-08T10:16:41.000Z</time>
      </trkpt>
      <trkpt lat="50.49675" lon="3.83515">
        <ele>120.6</ele>
        <time>2020-11-08T10:16:42.000Z</time>
      </trkpt>
      <trkpt lat="50.49681" lon="3.8351">
        <ele>119.49</ele>
        <time>2020-11-08T10:16:43.000Z</time>
      </trkpt>
      <trkpt lat="50.49687" lon="3.83505">
        <ele>118.79</ele>
        <time>2020-11-08T10:16:44.000Z</time>
      </trkpt>
      <trkpt lat="50.49692" lon="3.83499">
        <ele>119.32</ele>
        <time>2020-11-08T10:16:45.000Z</time>
      </trkpt>
      <trkpt lat="50.49697" lon="3.83492">
        <ele>119.66</ele>
        <time>2020-11-08T10:16:46.000Z</time>
      </trkpt>
      <trkpt lat="50.49702" lon="3.83486">
        <ele>120.12</ele>
        <time>2020-11-08T10:16:47.000Z</time>
      </trkpt>
      <trkpt lat="50.49707" lon="3.83479">
        <ele>120.05</ele>
        <time>2020-11-08T10:16:48.000Z</time>
      </trkpt>
      <trkpt lat="50.4971" lon="3.8347">
        <ele>119.83</ele>
        <time>2020-11-08T10:16:49.000Z</time>
      </trkpt>
      <trkpt lat="50.49711" lon="3.8346">
        <ele>119.96</ele>
        <time>2020-11-08T10:16:50.000Z</time>
      </trkpt>
      <trkpt lat="50.4971" lon="3.83449">
        <ele>120.84</ele>
        <time>2020-11-08T10:16:51.000Z</time>
      </trkpt>
      <trkpt lat="50.49709" lon="3.83438">
        <ele>121.37</ele>
        <time>2020-11-08T10:16:52.000Z</time>
      </trkpt>
      <trkpt lat="50.49708" lon="3.83427">
        <ele>122.01</ele>
        <time>2020-11-08T10:16:53.000Z</time>
      </trkpt>
      <trkpt lat="50.49708" lon="3.83416">
        <ele>122.4</ele>
        <time>2020-11-08T10:16:54.000Z</time>
      </trkpt>
      <trkpt lat="50.49707" lon="3.83406">
        <ele>121.93</ele>
        <time>2020-11-08T10:16:55.000Z</time>
      </trkpt>
      <trkpt lat="50.49707" lon="3.83397">
        <ele>121.85</ele>
        <time>2020-11-08T10:16:56.000Z</time>
      </trkpt>
      <trkpt lat="50.49707" lon="3.83387">
        <ele>122.26</ele>
        <time>2020-11-08T10:16:57.000Z</time>
      </trkpt>
      <trkpt lat="50.49706" lon="3.83378">
        <ele>122.48</ele>
        <time>2020-11-08T10:16:58.000Z</time>
      </trkpt>
      <trkpt lat="50.49705" lon="3.83368">
        <ele>122.89</ele>
        <time>2020-11-08T10:16:59.000Z</time>
      </trkpt>
      <trkpt lat="50.49705" lon="3.83359">
        <ele>123.18</ele>
        <time>2020-11-08T10:17:00.000Z</time>
      </trkpt>
      <trkpt lat="50.49704" lon="3.83351">
        <ele>123.08</ele>
        <time>2020-11-08T10:17:01.000Z</time>
      </trkpt>
      <trkpt lat="50.49703" lon="3.83338">
        <ele>123.11</ele>
        <time>2020-11-08T10:17:03.000Z</time>
      </trkpt>
      <trkpt lat="50.49703" lon="3.83331">
        <ele>122.68</ele>
        <time>2020-11-08T10:17:04.000Z</time>
      </trkpt>
      <trkpt lat="50.49703" lon="3.83323">
        <ele>123.02</ele>
        <time>2020-11-08T10:17:06.000Z</time>
      </trkpt>
      <trkpt lat="50.49706" lon="3.83317">
        <ele>122.27</ele>
        <time>2020-11-08T10:17:09.000Z</time>
      </trkpt>
      <trkpt lat="50.49702" lon="3.83307">
        <ele>122.28</ele>
        <time>2020-11-08T10:17:13.000Z</time>
      </trkpt>
      <trkpt lat="50.49701" lon="3.833">
        <ele>121.29</ele>
        <time>2020-11-08T10:17:15.000Z</time>
      </trkpt>
      <trkpt lat="50.49702" lon="3.83289">
        <ele>121.38</ele>
        <time>2020-11-08T10:17:18.000Z</time>
      </trkpt>
      <trkpt lat="50.49701" lon="3.83278">
        <ele>123.12</ele>
        <time>2020-11-08T10:17:20.000Z</time>
      </trkpt>
      <trkpt lat="50.49699" lon="3.83269">
        <ele>123.94</ele>
        <time>2020-11-08T10:17:22.000Z</time>
      </trkpt>
      <trkpt lat="50.49692" lon="3.83267">
        <ele>123.42</ele>
        <time>2020-11-08T10:17:24.000Z</time>
      </trkpt>
      <trkpt lat="50.49687" lon="3.83268">
        <ele>123.77</ele>
        <time>2020-11-08T10:17:25.000Z</time>
      </trkpt>
      <trkpt lat="50.49682" lon="3.83268">
        <ele>123.67</ele>
        <time>2020-11-08T10:17:26.000Z</time>
      </trkpt>
      <trkpt lat="50.49677" lon="3.83268">
        <ele>123.89</ele>
        <time>2020-11-08T10:17:27.000Z</time>
      </trkpt>
      <trkpt lat="50.49671" lon="3.83268">
        <ele>123.85</ele>
        <time>2020-11-08T10:17:28.000Z</time>
      </trkpt>
      <trkpt lat="50.49665" lon="3.83269">
        <ele>123.67</ele>
        <time>2020-11-08T10:17:29.000Z</time>
      </trkpt>
      <trkpt lat="50.49659" lon="3.83269">
        <ele>123.19</ele>
        <time>2020-11-08T10:17:30.000Z</time>
      </trkpt>
      <trkpt lat="50.49654" lon="3.83269">
        <ele>123.2</ele>
        <time>2020-11-08T10:17:31.000Z</time>
      </trkpt>
      <trkpt lat="50.49648" lon="3.83271">
        <ele>122.21</ele>
        <time>2020-11-08T10:17:32.000Z</time>
      </trkpt>
      <trkpt lat="50.49642" lon="3.83271">
        <ele>122.1</ele>
        <time>2020-11-08T10:17:33.000Z</time>
      </trkpt>
      <trkpt lat="50.49636" lon="3.83272">
        <ele>122.13</ele>
        <time>2020-11-08T10:17:34.000Z</time>
      </trkpt>
      <trkpt lat="50.4963" lon="3.83274">
        <ele>122.05</ele>
        <time>2020-11-08T10:17:35.000Z</time>
      </trkpt>
      <trkpt lat="50.49625" lon="3.83275">
        <ele>121.56</ele>
        <time>2020-11-08T10:17:36.000Z</time>
      </trkpt>
      <trkpt lat="50.4962" lon="3.83275">
        <ele>121.65</ele>
        <time>2020-11-08T10:17:37.000Z</time>
      </trkpt>
      <trkpt lat="50.49615" lon="3.83275">
        <ele>121.4</ele>
        <time>2020-11-08T10:17:38.000Z</time>
      </trkpt>
      <trkpt lat="50.4961" lon="3.83276">
        <ele>121.5</ele>
        <time>2020-11-08T10:17:39.000Z</time>
      </trkpt>
      <trkpt lat="50.49606" lon="3.83276">
        <ele>121.54</ele>
        <time>2020-11-08T10:17:40.000Z</time>
      </trkpt>
      <trkpt lat="50.49601" lon="3.83276">
        <ele>121.32</ele>
        <time>2020-11-08T10:17:41.000Z</time>
      </trkpt>
      <trkpt lat="50.49596" lon="3.83277">
        <ele>121.21</ele>
        <time>2020-11-08T10:17:42.000Z</time>
      </trkpt>
      <trkpt lat="50.4959" lon="3.83279">
        <ele>121.2</ele>
        <time>2020-11-08T10:17:43.000Z</time>
      </trkpt>
      <trkpt lat="50.49584" lon="3.83279">
        <ele>120.95</ele>
        <time>2020-11-08T10:17:44.000Z</time>
      </trkpt>
      <trkpt lat="50.49579" lon="3.83279">
        <ele>120.73</ele>
        <time>2020-11-08T10:17:45.000Z</time>
      </trkpt>
      <trkpt lat="50.49573" lon="3.8328">
        <ele>120.73</ele>
        <time>2020-11-08T10:17:46.000Z</time>
      </trkpt>
      <trkpt lat="50.49568" lon="3.83281">
        <ele>120.8</ele>
        <time>2020-11-08T10:17:47.000Z</time>
      </trkpt>
      <trkpt lat="50.49562" lon="3.83282">
        <ele>120.66</ele>
        <time>2020-11-08T10:17:48.000Z</time>
      </trkpt>
      <trkpt lat="50.49556" lon="3.83283">
        <ele>120.74</ele>
        <time>2020-11-08T10:17:49.000Z</time>
      </trkpt>
      <trkpt lat="50.49549" lon="3.83283">
        <ele>120.56</ele>
        <time>2020-11-08T10:17:50.000Z</time>
      </trkpt>
      <trkpt lat="50.49543" lon="3.83283">
        <ele>120.63</ele>
        <time>2020-11-08T10:17:51.000Z</time>
      </trkpt>
      <trkpt lat="50.49537" lon="3.83284">
        <ele>120.44</ele>
        <time>2020-11-08T10:17:52.000Z</time>
      </trkpt>
      <trkpt lat="50.49531" lon="3.83285">
        <ele>120.18</ele>
        <time>2020-11-08T10:17:53.000Z</time>
      </trkpt>
      <trkpt lat="50.49525" lon="3.83285">
        <ele>120</ele>
        <time>2020-11-08T10:17:54.000Z</time>
      </trkpt>
      <trkpt lat="50.49519" lon="3.83286">
        <ele>120</ele>
        <time>2020-11-08T10:17:55.000Z</time>
      </trkpt>
      <trkpt lat="50.49514" lon="3.83287">
        <ele>119.85</ele>
        <time>2020-11-08T10:17:56.000Z</time>
      </trkpt>
      <trkpt lat="50.49508" lon="3.83287">
        <ele>119.78</ele>
        <time>2020-11-08T10:17:57.000Z</time>
      </trkpt>
      <trkpt lat="50.49504" lon="3.83288">
        <ele>119.46</ele>
        <time>2020-11-08T10:17:58.000Z</time>
      </trkpt>
      <trkpt lat="50.49496" lon="3.83289">
        <ele>119.33</ele>
        <time>2020-11-08T10:18:00.000Z</time>
      </trkpt>
      <trkpt lat="50.49489" lon="3.83282">
        <ele>120.02</ele>
        <time>2020-11-08T10:18:02.000Z</time>
      </trkpt>
      <trkpt lat="50.49488" lon="3.83269">
        <ele>120.65</ele>
        <time>2020-11-08T10:18:04.000Z</time>
      </trkpt>
      <trkpt lat="50.49488" lon="3.8326">
        <ele>120.52</ele>
        <time>2020-11-08T10:18:05.000Z</time>
      </trkpt>
      <trkpt lat="50.49488" lon="3.83252">
        <ele>120.66</ele>
        <time>2020-11-08T10:18:06.000Z</time>
      </trkpt>
      <trkpt lat="50.49487" lon="3.83244">
        <ele>120.62</ele>
        <time>2020-11-08T10:18:07.000Z</time>
      </trkpt>
      <trkpt lat="50.49488" lon="3.83236">
        <ele>120.59</ele>
        <time>2020-11-08T10:18:08.000Z</time>
      </trkpt>
      <trkpt lat="50.49488" lon="3.83227">
        <ele>120.67</ele>
        <time>2020-11-08T10:18:09.000Z</time>
      </trkpt>
      <trkpt lat="50.49487" lon="3.83219">
        <ele>120.51</ele>
        <time>2020-11-08T10:18:10.000Z</time>
      </trkpt>
      <trkpt lat="50.49487" lon="3.8321">
        <ele>121.01</ele>
        <time>2020-11-08T10:18:11.000Z</time>
      </trkpt>
      <trkpt lat="50.49487" lon="3.83203">
        <ele>120.93</ele>
        <time>2020-11-08T10:18:12.000Z</time>
      </trkpt>
      <trkpt lat="50.49487" lon="3.83195">
        <ele>121.05</ele>
        <time>2020-11-08T10:18:13.000Z</time>
      </trkpt>
      <trkpt lat="50.49487" lon="3.83186">
        <ele>121</ele>
        <time>2020-11-08T10:18:14.000Z</time>
      </trkpt>
      <trkpt lat="50.49488" lon="3.83176">
        <ele>121.21</ele>
        <time>2020-11-08T10:18:15.000Z</time>
      </trkpt>
      <trkpt lat="50.49487" lon="3.83165">
        <ele>121.34</ele>
        <time>2020-11-08T10:18:16.000Z</time>
      </trkpt>
      <trkpt lat="50.49487" lon="3.83154">
        <ele>121.42</ele>
        <time>2020-11-08T10:18:17.000Z</time>
      </trkpt>
      <trkpt lat="50.49487" lon="3.83143">
        <ele>120.98</ele>
        <time>2020-11-08T10:18:18.000Z</time>
      </trkpt>
      <trkpt lat="50.49487" lon="3.83131">
        <ele>120.41</ele>
        <time>2020-11-08T10:18:19.000Z</time>
      </trkpt>
      <trkpt lat="50.49488" lon="3.83121">
        <ele>120.98</ele>
        <time>2020-11-08T10:18:20.000Z</time>
      </trkpt>
      <trkpt lat="50.49487" lon="3.8311">
        <ele>121.14</ele>
        <time>2020-11-08T10:18:21.000Z</time>
      </trkpt>
      <trkpt lat="50.49488" lon="3.83099">
        <ele>122.05</ele>
        <time>2020-11-08T10:18:22.000Z</time>
      </trkpt>
      <trkpt lat="50.49488" lon="3.83088">
        <ele>121.75</ele>
        <time>2020-11-08T10:18:23.000Z</time>
      </trkpt>
      <trkpt lat="50.49488" lon="3.83077">
        <ele>121.91</ele>
        <time>2020-11-08T10:18:24.000Z</time>
      </trkpt>
      <trkpt lat="50.49488" lon="3.83065">
        <ele>121.74</ele>
        <time>2020-11-08T10:18:25.000Z</time>
      </trkpt>
      <trkpt lat="50.49488" lon="3.83054">
        <ele>122</ele>
        <time>2020-11-08T10:18:26.000Z</time>
      </trkpt>
      <trkpt lat="50.49488" lon="3.83043">
        <ele>122.58</ele>
        <time>2020-11-08T10:18:27.000Z</time>
      </trkpt>
      <trkpt lat="50.49488" lon="3.83032">
        <ele>122.76</ele>
        <time>2020-11-08T10:18:28.000Z</time>
      </trkpt>
      <trkpt lat="50.49488" lon="3.8302">
        <ele>122.57</ele>
        <time>2020-11-08T10:18:29.000Z</time>
      </trkpt>
      <trkpt lat="50.49489" lon="3.8301">
        <ele>121.26</ele>
        <time>2020-11-08T10:18:30.000Z</time>
      </trkpt>
      <trkpt lat="50.49489" lon="3.82999">
        <ele>121</ele>
        <time>2020-11-08T10:18:31.000Z</time>
      </trkpt>
      <trkpt lat="50.49489" lon="3.82987">
        <ele>121.59</ele>
        <time>2020-11-08T10:18:32.000Z</time>
      </trkpt>
      <trkpt lat="50.49488" lon="3.82976">
        <ele>121.36</ele>
        <time>2020-11-08T10:18:33.000Z</time>
      </trkpt>
      <trkpt lat="50.49489" lon="3.82966">
        <ele>120.89</ele>
        <time>2020-11-08T10:18:34.000Z</time>
      </trkpt>
      <trkpt lat="50.49489" lon="3.82955">
        <ele>120.27</ele>
        <time>2020-11-08T10:18:35.000Z</time>
      </trkpt>
      <trkpt lat="50.49489" lon="3.82943">
        <ele>120.38</ele>
        <time>2020-11-08T10:18:36.000Z</time>
      </trkpt>
      <trkpt lat="50.4949" lon="3.82932">
        <ele>121.07</ele>
        <time>2020-11-08T10:18:37.000Z</time>
      </trkpt>
      <trkpt lat="50.4949" lon="3.82921">
        <ele>120.65</ele>
        <time>2020-11-08T10:18:38.000Z</time>
      </trkpt>
      <trkpt lat="50.4949" lon="3.8291">
        <ele>119.75</ele>
        <time>2020-11-08T10:18:39.000Z</time>
      </trkpt>
      <trkpt lat="50.49491" lon="3.82899">
        <ele>119.85</ele>
        <time>2020-11-08T10:18:40.000Z</time>
      </trkpt>
      <trkpt lat="50.49491" lon="3.82888">
        <ele>119.67</ele>
        <time>2020-11-08T10:18:41.000Z</time>
      </trkpt>
      <trkpt lat="50.49491" lon="3.82877">
        <ele>119.26</ele>
        <time>2020-11-08T10:18:42.000Z</time>
      </trkpt>
      <trkpt lat="50.49491" lon="3.82869">
        <ele>119.56</ele>
        <time>2020-11-08T10:18:43.000Z</time>
      </trkpt>
      <trkpt lat="50.49491" lon="3.82857">
        <ele>120.18</ele>
        <time>2020-11-08T10:18:45.000Z</time>
      </trkpt>
      <trkpt lat="50.49489" lon="3.82846">
        <ele>119.27</ele>
        <time>2020-11-08T10:18:47.000Z</time>
      </trkpt>
      <trkpt lat="50.4949" lon="3.82835">
        <ele>118.76</ele>
        <time>2020-11-08T10:18:49.000Z</time>
      </trkpt>
      <trkpt lat="50.49493" lon="3.82822">
        <ele>117.77</ele>
        <time>2020-11-08T10:18:51.000Z</time>
      </trkpt>
      <trkpt lat="50.49493" lon="3.82814">
        <ele>117.67</ele>
        <time>2020-11-08T10:18:52.000Z</time>
      </trkpt>
      <trkpt lat="50.49494" lon="3.82804">
        <ele>117.85</ele>
        <time>2020-11-08T10:18:53.000Z</time>
      </trkpt>
      <trkpt lat="50.49493" lon="3.82793">
        <ele>118.14</ele>
        <time>2020-11-08T10:18:54.000Z</time>
      </trkpt>
      <trkpt lat="50.49493" lon="3.82783">
        <ele>118.36</ele>
        <time>2020-11-08T10:18:55.000Z</time>
      </trkpt>
      <trkpt lat="50.49494" lon="3.82773">
        <ele>118.22</ele>
        <time>2020-11-08T10:18:56.000Z</time>
      </trkpt>
      <trkpt lat="50.49493" lon="3.82764">
        <ele>118.44</ele>
        <time>2020-11-08T10:18:57.000Z</time>
      </trkpt>
      <trkpt lat="50.49493" lon="3.82755">
        <ele>117.83</ele>
        <time>2020-11-08T10:18:58.000Z</time>
      </trkpt>
      <trkpt lat="50.49493" lon="3.82746">
        <ele>117.86</ele>
        <time>2020-11-08T10:18:59.000Z</time>
      </trkpt>
      <trkpt lat="50.49493" lon="3.82737">
        <ele>117.89</ele>
        <time>2020-11-08T10:19:00.000Z</time>
      </trkpt>
      <trkpt lat="50.49493" lon="3.82727">
        <ele>118.26</ele>
        <time>2020-11-08T10:19:01.000Z</time>
      </trkpt>
      <trkpt lat="50.49493" lon="3.82717">
        <ele>117.68</ele>
        <time>2020-11-08T10:19:02.000Z</time>
      </trkpt>
      <trkpt lat="50.49493" lon="3.82708">
        <ele>117.08</ele>
        <time>2020-11-08T10:19:03.000Z</time>
      </trkpt>
      <trkpt lat="50.49493" lon="3.82698">
        <ele>117.55</ele>
        <time>2020-11-08T10:19:04.000Z</time>
      </trkpt>
      <trkpt lat="50.49493" lon="3.82688">
        <ele>117.74</ele>
        <time>2020-11-08T10:19:05.000Z</time>
      </trkpt>
      <trkpt lat="50.49493" lon="3.82677">
        <ele>117.89</ele>
        <time>2020-11-08T10:19:06.000Z</time>
      </trkpt>
      <trkpt lat="50.49494" lon="3.82666">
        <ele>117.49</ele>
        <time>2020-11-08T10:19:07.000Z</time>
      </trkpt>
      <trkpt lat="50.49494" lon="3.82656">
        <ele>117.53</ele>
        <time>2020-11-08T10:19:08.000Z</time>
      </trkpt>
      <trkpt lat="50.49493" lon="3.82645">
        <ele>117.62</ele>
        <time>2020-11-08T10:19:09.000Z</time>
      </trkpt>
      <trkpt lat="50.49494" lon="3.82635">
        <ele>117.93</ele>
        <time>2020-11-08T10:19:10.000Z</time>
      </trkpt>
      <trkpt lat="50.49494" lon="3.82624">
        <ele>117.83</ele>
        <time>2020-11-08T10:19:11.000Z</time>
      </trkpt>
      <trkpt lat="50.49494" lon="3.82614">
        <ele>118.09</ele>
        <time>2020-11-08T10:19:12.000Z</time>
      </trkpt>
      <trkpt lat="50.49494" lon="3.82603">
        <ele>118.09</ele>
        <time>2020-11-08T10:19:13.000Z</time>
      </trkpt>
      <trkpt lat="50.49494" lon="3.82592">
        <ele>118.45</ele>
        <time>2020-11-08T10:19:14.000Z</time>
      </trkpt>
      <trkpt lat="50.49494" lon="3.82582">
        <ele>119.15</ele>
        <time>2020-11-08T10:19:15.000Z</time>
      </trkpt>
      <trkpt lat="50.49494" lon="3.82572">
        <ele>119.58</ele>
        <time>2020-11-08T10:19:16.000Z</time>
      </trkpt>
      <trkpt lat="50.49494" lon="3.82561">
        <ele>119.71</ele>
        <time>2020-11-08T10:19:17.000Z</time>
      </trkpt>
      <trkpt lat="50.49493" lon="3.82551">
        <ele>120.82</ele>
        <time>2020-11-08T10:19:18.000Z</time>
      </trkpt>
      <trkpt lat="50.49493" lon="3.82541">
        <ele>120.56</ele>
        <time>2020-11-08T10:19:19.000Z</time>
      </trkpt>
      <trkpt lat="50.49493" lon="3.82531">
        <ele>121.16</ele>
        <time>2020-11-08T10:19:20.000Z</time>
      </trkpt>
      <trkpt lat="50.49493" lon="3.8252">
        <ele>121.43</ele>
        <time>2020-11-08T10:19:21.000Z</time>
      </trkpt>
      <trkpt lat="50.49493" lon="3.8251">
        <ele>121.11</ele>
        <time>2020-11-08T10:19:22.000Z</time>
      </trkpt>
      <trkpt lat="50.49493" lon="3.825">
        <ele>121.16</ele>
        <time>2020-11-08T10:19:23.000Z</time>
      </trkpt>
      <trkpt lat="50.49493" lon="3.82491">
        <ele>121.2</ele>
        <time>2020-11-08T10:19:24.000Z</time>
      </trkpt>
      <trkpt lat="50.49494" lon="3.82482">
        <ele>121.47</ele>
        <time>2020-11-08T10:19:25.000Z</time>
      </trkpt>
      <trkpt lat="50.49496" lon="3.82474">
        <ele>121.72</ele>
        <time>2020-11-08T10:19:26.000Z</time>
      </trkpt>
      <trkpt lat="50.49502" lon="3.82463">
        <ele>122.04</ele>
        <time>2020-11-08T10:19:28.000Z</time>
      </trkpt>
      <trkpt lat="50.49507" lon="3.82459">
        <ele>122.68</ele>
        <time>2020-11-08T10:19:29.000Z</time>
      </trkpt>
      <trkpt lat="50.49512" lon="3.82457">
        <ele>123.4</ele>
        <time>2020-11-08T10:19:30.000Z</time>
      </trkpt>
      <trkpt lat="50.49517" lon="3.82454">
        <ele>123.71</ele>
        <time>2020-11-08T10:19:31.000Z</time>
      </trkpt>
      <trkpt lat="50.49522" lon="3.82451">
        <ele>123.03</ele>
        <time>2020-11-08T10:19:32.000Z</time>
      </trkpt>
      <trkpt lat="50.49527" lon="3.82445">
        <ele>123.43</ele>
        <time>2020-11-08T10:19:33.000Z</time>
      </trkpt>
      <trkpt lat="50.49532" lon="3.82439">
        <ele>122.93</ele>
        <time>2020-11-08T10:19:34.000Z</time>
      </trkpt>
      <trkpt lat="50.49536" lon="3.82434">
        <ele>122.51</ele>
        <time>2020-11-08T10:19:35.000Z</time>
      </trkpt>
      <trkpt lat="50.49545" lon="3.82426">
        <ele>121.33</ele>
        <time>2020-11-08T10:19:37.000Z</time>
      </trkpt>
      <trkpt lat="50.4955" lon="3.82419">
        <ele>122.09</ele>
        <time>2020-11-08T10:19:38.000Z</time>
      </trkpt>
      <trkpt lat="50.49554" lon="3.82413">
        <ele>121.7</ele>
        <time>2020-11-08T10:19:39.000Z</time>
      </trkpt>
      <trkpt lat="50.49559" lon="3.82408">
        <ele>121.9</ele>
        <time>2020-11-08T10:19:40.000Z</time>
      </trkpt>
      <trkpt lat="50.49564" lon="3.82401">
        <ele>123.02</ele>
        <time>2020-11-08T10:19:41.000Z</time>
      </trkpt>
      <trkpt lat="50.49568" lon="3.82395">
        <ele>122.82</ele>
        <time>2020-11-08T10:19:42.000Z</time>
      </trkpt>
      <trkpt lat="50.49574" lon="3.8239">
        <ele>123.23</ele>
        <time>2020-11-08T10:19:43.000Z</time>
      </trkpt>
      <trkpt lat="50.49579" lon="3.82383">
        <ele>123.28</ele>
        <time>2020-11-08T10:19:44.000Z</time>
      </trkpt>
      <trkpt lat="50.49584" lon="3.82376">
        <ele>122.91</ele>
        <time>2020-11-08T10:19:45.000Z</time>
      </trkpt>
      <trkpt lat="50.4959" lon="3.82369">
        <ele>123.24</ele>
        <time>2020-11-08T10:19:46.000Z</time>
      </trkpt>
      <trkpt lat="50.49594" lon="3.82363">
        <ele>122.82</ele>
        <time>2020-11-08T10:19:47.000Z</time>
      </trkpt>
      <trkpt lat="50.49601" lon="3.82355">
        <ele>123.94</ele>
        <time>2020-11-08T10:19:48.000Z</time>
      </trkpt>
      <trkpt lat="50.49606" lon="3.82349">
        <ele>124.03</ele>
        <time>2020-11-08T10:19:49.000Z</time>
      </trkpt>
      <trkpt lat="50.49612" lon="3.82343">
        <ele>123.2</ele>
        <time>2020-11-08T10:19:50.000Z</time>
      </trkpt>
      <trkpt lat="50.49617" lon="3.82336">
        <ele>123.16</ele>
        <time>2020-11-08T10:19:51.000Z</time>
      </trkpt>
      <trkpt lat="50.49622" lon="3.8233">
        <ele>123.22</ele>
        <time>2020-11-08T10:19:52.000Z</time>
      </trkpt>
      <trkpt lat="50.49628" lon="3.82322">
        <ele>123.41</ele>
        <time>2020-11-08T10:19:53.000Z</time>
      </trkpt>
      <trkpt lat="50.49636" lon="3.82315">
        <ele>123.34</ele>
        <time>2020-11-08T10:19:54.000Z</time>
      </trkpt>
      <trkpt lat="50.49641" lon="3.82308">
        <ele>122.63</ele>
        <time>2020-11-08T10:19:55.000Z</time>
      </trkpt>
      <trkpt lat="50.49646" lon="3.82301">
        <ele>123.02</ele>
        <time>2020-11-08T10:19:56.000Z</time>
      </trkpt>
      <trkpt lat="50.49653" lon="3.82295">
        <ele>123.86</ele>
        <time>2020-11-08T10:19:57.000Z</time>
      </trkpt>
      <trkpt lat="50.49659" lon="3.82288">
        <ele>123.63</ele>
        <time>2020-11-08T10:19:58.000Z</time>
      </trkpt>
      <trkpt lat="50.49664" lon="3.82281">
        <ele>124.01</ele>
        <time>2020-11-08T10:19:59.000Z</time>
      </trkpt>
      <trkpt lat="50.4967" lon="3.82275">
        <ele>124.73</ele>
        <time>2020-11-08T10:20:00.000Z</time>
      </trkpt>
      <trkpt lat="50.49675" lon="3.82268">
        <ele>124.73</ele>
        <time>2020-11-08T10:20:01.000Z</time>
      </trkpt>
      <trkpt lat="50.4968" lon="3.82261">
        <ele>125.29</ele>
        <time>2020-11-08T10:20:02.000Z</time>
      </trkpt>
      <trkpt lat="50.49686" lon="3.82256">
        <ele>125.89</ele>
        <time>2020-11-08T10:20:03.000Z</time>
      </trkpt>
      <trkpt lat="50.4969" lon="3.8225">
        <ele>126.96</ele>
        <time>2020-11-08T10:20:04.000Z</time>
      </trkpt>
      <trkpt lat="50.49695" lon="3.82246">
        <ele>126.43</ele>
        <time>2020-11-08T10:20:05.000Z</time>
      </trkpt>
      <trkpt lat="50.49701" lon="3.82241">
        <ele>125.1</ele>
        <time>2020-11-08T10:20:06.000Z</time>
      </trkpt>
      <trkpt lat="50.49706" lon="3.82234">
        <ele>123.87</ele>
        <time>2020-11-08T10:20:07.000Z</time>
      </trkpt>
      <trkpt lat="50.4971" lon="3.8223">
        <ele>123.9</ele>
        <time>2020-11-08T10:20:08.000Z</time>
      </trkpt>
      <trkpt lat="50.49715" lon="3.82223">
        <ele>123.08</ele>
        <time>2020-11-08T10:20:09.000Z</time>
      </trkpt>
      <trkpt lat="50.4972" lon="3.82218">
        <ele>123.39</ele>
        <time>2020-11-08T10:20:10.000Z</time>
      </trkpt>
      <trkpt lat="50.49725" lon="3.8221">
        <ele>124.05</ele>
        <time>2020-11-08T10:20:11.000Z</time>
      </trkpt>
      <trkpt lat="50.49729" lon="3.82204">
        <ele>123.95</ele>
        <time>2020-11-08T10:20:12.000Z</time>
      </trkpt>
      <trkpt lat="50.49733" lon="3.82195">
        <ele>124.92</ele>
        <time>2020-11-08T10:20:13.000Z</time>
      </trkpt>
      <trkpt lat="50.49735" lon="3.82186">
        <ele>125.58</ele>
        <time>2020-11-08T10:20:14.000Z</time>
      </trkpt>
      <trkpt lat="50.49739" lon="3.82178">
        <ele>125.66</ele>
        <time>2020-11-08T10:20:15.000Z</time>
      </trkpt>
      <trkpt lat="50.49743" lon="3.8217">
        <ele>126.07</ele>
        <time>2020-11-08T10:20:16.000Z</time>
      </trkpt>
      <trkpt lat="50.49745" lon="3.82161">
        <ele>126.37</ele>
        <time>2020-11-08T10:20:17.000Z</time>
      </trkpt>
      <trkpt lat="50.49748" lon="3.82152">
        <ele>127.37</ele>
        <time>2020-11-08T10:20:18.000Z</time>
      </trkpt>
      <trkpt lat="50.49751" lon="3.82143">
        <ele>127.94</ele>
        <time>2020-11-08T10:20:19.000Z</time>
      </trkpt>
      <trkpt lat="50.49754" lon="3.82133">
        <ele>127.59</ele>
        <time>2020-11-08T10:20:20.000Z</time>
      </trkpt>
      <trkpt lat="50.49756" lon="3.82125">
        <ele>127.11</ele>
        <time>2020-11-08T10:20:21.000Z</time>
      </trkpt>
      <trkpt lat="50.49757" lon="3.82117">
        <ele>125.92</ele>
        <time>2020-11-08T10:20:22.000Z</time>
      </trkpt>
      <trkpt lat="50.49757" lon="3.82107">
        <ele>126.82</ele>
        <time>2020-11-08T10:20:23.000Z</time>
      </trkpt>
      <trkpt lat="50.49758" lon="3.82097">
        <ele>127.17</ele>
        <time>2020-11-08T10:20:24.000Z</time>
      </trkpt>
      <trkpt lat="50.49758" lon="3.82087">
        <ele>126.26</ele>
        <time>2020-11-08T10:20:25.000Z</time>
      </trkpt>
      <trkpt lat="50.49759" lon="3.82076">
        <ele>127.05</ele>
        <time>2020-11-08T10:20:26.000Z</time>
      </trkpt>
      <trkpt lat="50.49759" lon="3.82065">
        <ele>127.25</ele>
        <time>2020-11-08T10:20:27.000Z</time>
      </trkpt>
      <trkpt lat="50.49758" lon="3.82054">
        <ele>127.8</ele>
        <time>2020-11-08T10:20:28.000Z</time>
      </trkpt>
      <trkpt lat="50.49759" lon="3.82043">
        <ele>127.41</ele>
        <time>2020-11-08T10:20:29.000Z</time>
      </trkpt>
      <trkpt lat="50.49759" lon="3.82031">
        <ele>128.22</ele>
        <time>2020-11-08T10:20:30.000Z</time>
      </trkpt>
      <trkpt lat="50.49759" lon="3.8202">
        <ele>128.22</ele>
        <time>2020-11-08T10:20:31.000Z</time>
      </trkpt>
      <trkpt lat="50.49758" lon="3.8201">
        <ele>128.79</ele>
        <time>2020-11-08T10:20:32.000Z</time>
      </trkpt>
      <trkpt lat="50.49758" lon="3.82001">
        <ele>128.16</ele>
        <time>2020-11-08T10:20:33.000Z</time>
      </trkpt>
      <trkpt lat="50.49758" lon="3.81992">
        <ele>128.76</ele>
        <time>2020-11-08T10:20:34.000Z</time>
      </trkpt>
      <trkpt lat="50.49759" lon="3.81984">
        <ele>127.94</ele>
        <time>2020-11-08T10:20:35.000Z</time>
      </trkpt>
      <trkpt lat="50.49759" lon="3.81976">
        <ele>127.94</ele>
        <time>2020-11-08T10:20:36.000Z</time>
      </trkpt>
      <trkpt lat="50.4976" lon="3.81967">
        <ele>128.62</ele>
        <time>2020-11-08T10:20:37.000Z</time>
      </trkpt>
      <trkpt lat="50.49762" lon="3.81958">
        <ele>128.47</ele>
        <time>2020-11-08T10:20:38.000Z</time>
      </trkpt>
      <trkpt lat="50.49765" lon="3.81949">
        <ele>128.53</ele>
        <time>2020-11-08T10:20:39.000Z</time>
      </trkpt>
      <trkpt lat="50.49767" lon="3.8194">
        <ele>129.29</ele>
        <time>2020-11-08T10:20:40.000Z</time>
      </trkpt>
      <trkpt lat="50.4977" lon="3.81931">
        <ele>129.28</ele>
        <time>2020-11-08T10:20:41.000Z</time>
      </trkpt>
      <trkpt lat="50.49773" lon="3.81923">
        <ele>130.67</ele>
        <time>2020-11-08T10:20:42.000Z</time>
      </trkpt>
      <trkpt lat="50.49776" lon="3.81916">
        <ele>130.64</ele>
        <time>2020-11-08T10:20:43.000Z</time>
      </trkpt>
      <trkpt lat="50.4978" lon="3.81908">
        <ele>131.18</ele>
        <time>2020-11-08T10:20:44.000Z</time>
      </trkpt>
      <trkpt lat="50.49783" lon="3.81902">
        <ele>131.91</ele>
        <time>2020-11-08T10:20:45.000Z</time>
      </trkpt>
      <trkpt lat="50.49786" lon="3.81894">
        <ele>133.03</ele>
        <time>2020-11-08T10:20:46.000Z</time>
      </trkpt>
      <trkpt lat="50.49789" lon="3.81886">
        <ele>131.97</ele>
        <time>2020-11-08T10:20:47.000Z</time>
      </trkpt>
      <trkpt lat="50.49791" lon="3.81879">
        <ele>131.94</ele>
        <time>2020-11-08T10:20:48.000Z</time>
      </trkpt>
      <trkpt lat="50.49795" lon="3.81872">
        <ele>131.3</ele>
        <time>2020-11-08T10:20:49.000Z</time>
      </trkpt>
      <trkpt lat="50.49798" lon="3.81865">
        <ele>132.36</ele>
        <time>2020-11-08T10:20:50.000Z</time>
      </trkpt>
      <trkpt lat="50.49801" lon="3.81858">
        <ele>131.97</ele>
        <time>2020-11-08T10:20:51.000Z</time>
      </trkpt>
      <trkpt lat="50.49805" lon="3.81852">
        <ele>131.77</ele>
        <time>2020-11-08T10:20:52.000Z</time>
      </trkpt>
      <trkpt lat="50.49808" lon="3.81844">
        <ele>131.99</ele>
        <time>2020-11-08T10:20:53.000Z</time>
      </trkpt>
      <trkpt lat="50.49812" lon="3.81838">
        <ele>131.88</ele>
        <time>2020-11-08T10:20:54.000Z</time>
      </trkpt>
      <trkpt lat="50.49816" lon="3.81833">
        <ele>131.5</ele>
        <time>2020-11-08T10:20:55.000Z</time>
      </trkpt>
      <trkpt lat="50.49819" lon="3.81825">
        <ele>132.92</ele>
        <time>2020-11-08T10:20:56.000Z</time>
      </trkpt>
      <trkpt lat="50.49822" lon="3.81817">
        <ele>132.13</ele>
        <time>2020-11-08T10:20:57.000Z</time>
      </trkpt>
      <trkpt lat="50.49825" lon="3.81809">
        <ele>132.96</ele>
        <time>2020-11-08T10:20:58.000Z</time>
      </trkpt>
      <trkpt lat="50.49827" lon="3.81801">
        <ele>134.78</ele>
        <time>2020-11-08T10:20:59.000Z</time>
      </trkpt>
      <trkpt lat="50.4983" lon="3.81792">
        <ele>135.69</ele>
        <time>2020-11-08T10:21:00.000Z</time>
      </trkpt>
      <trkpt lat="50.49833" lon="3.81785">
        <ele>134.3</ele>
        <time>2020-11-08T10:21:01.000Z</time>
      </trkpt>
      <trkpt lat="50.49836" lon="3.81777">
        <ele>135.21</ele>
        <time>2020-11-08T10:21:02.000Z</time>
      </trkpt>
      <trkpt lat="50.49838" lon="3.81769">
        <ele>135.11</ele>
        <time>2020-11-08T10:21:03.000Z</time>
      </trkpt>
      <trkpt lat="50.49841" lon="3.8176">
        <ele>134.9</ele>
        <time>2020-11-08T10:21:04.000Z</time>
      </trkpt>
      <trkpt lat="50.49844" lon="3.81752">
        <ele>135.07</ele>
        <time>2020-11-08T10:21:05.000Z</time>
      </trkpt>
      <trkpt lat="50.49848" lon="3.81744">
        <ele>135.16</ele>
        <time>2020-11-08T10:21:06.000Z</time>
      </trkpt>
      <trkpt lat="50.49851" lon="3.81735">
        <ele>135.48</ele>
        <time>2020-11-08T10:21:07.000Z</time>
      </trkpt>
      <trkpt lat="50.49854" lon="3.81727">
        <ele>135.22</ele>
        <time>2020-11-08T10:21:08.000Z</time>
      </trkpt>
      <trkpt lat="50.49857" lon="3.81719">
        <ele>135.43</ele>
        <time>2020-11-08T10:21:09.000Z</time>
      </trkpt>
      <trkpt lat="50.49861" lon="3.81712">
        <ele>134.58</ele>
        <time>2020-11-08T10:21:10.000Z</time>
      </trkpt>
      <trkpt lat="50.49864" lon="3.81704">
        <ele>134.48</ele>
        <time>2020-11-08T10:21:11.000Z</time>
      </trkpt>
      <trkpt lat="50.49867" lon="3.81696">
        <ele>134.26</ele>
        <time>2020-11-08T10:21:12.000Z</time>
      </trkpt>
      <trkpt lat="50.49871" lon="3.81688">
        <ele>134.21</ele>
        <time>2020-11-08T10:21:13.000Z</time>
      </trkpt>
      <trkpt lat="50.49875" lon="3.81681">
        <ele>135.15</ele>
        <time>2020-11-08T10:21:14.000Z</time>
      </trkpt>
      <trkpt lat="50.4988" lon="3.81675">
        <ele>134.49</ele>
        <time>2020-11-08T10:21:15.000Z</time>
      </trkpt>
      <trkpt lat="50.49883" lon="3.81668">
        <ele>135.39</ele>
        <time>2020-11-08T10:21:16.000Z</time>
      </trkpt>
      <trkpt lat="50.49886" lon="3.81659">
        <ele>135.18</ele>
        <time>2020-11-08T10:21:17.000Z</time>
      </trkpt>
      <trkpt lat="50.49887" lon="3.8165">
        <ele>134.56</ele>
        <time>2020-11-08T10:21:18.000Z</time>
      </trkpt>
      <trkpt lat="50.49887" lon="3.8164">
        <ele>135.65</ele>
        <time>2020-11-08T10:21:19.000Z</time>
      </trkpt>
      <trkpt lat="50.49885" lon="3.81631">
        <ele>135.94</ele>
        <time>2020-11-08T10:21:20.000Z</time>
      </trkpt>
      <trkpt lat="50.49881" lon="3.81625">
        <ele>134.5</ele>
        <time>2020-11-08T10:21:21.000Z</time>
      </trkpt>
      <trkpt lat="50.49877" lon="3.81618">
        <ele>128.45</ele>
        <time>2020-11-08T10:21:22.000Z</time>
      </trkpt>
      <trkpt lat="50.49871" lon="3.8161">
        <ele>130.52</ele>
        <time>2020-11-08T10:21:23.000Z</time>
      </trkpt>
      <trkpt lat="50.49867" lon="3.81602">
        <ele>131.53</ele>
        <time>2020-11-08T10:21:24.000Z</time>
      </trkpt>
      <trkpt lat="50.49861" lon="3.81592">
        <ele>132.41</ele>
        <time>2020-11-08T10:21:25.000Z</time>
      </trkpt>
      <trkpt lat="50.49856" lon="3.81583">
        <ele>132.74</ele>
        <time>2020-11-08T10:21:26.000Z</time>
      </trkpt>
      <trkpt lat="50.4985" lon="3.81572">
        <ele>130.88</ele>
        <time>2020-11-08T10:21:27.000Z</time>
      </trkpt>
      <trkpt lat="50.49845" lon="3.81562">
        <ele>130.09</ele>
        <time>2020-11-08T10:21:28.000Z</time>
      </trkpt>
      <trkpt lat="50.4984" lon="3.81552">
        <ele>129.81</ele>
        <time>2020-11-08T10:21:29.000Z</time>
      </trkpt>
      <trkpt lat="50.49834" lon="3.81541">
        <ele>129.24</ele>
        <time>2020-11-08T10:21:30.000Z</time>
      </trkpt>
      <trkpt lat="50.49827" lon="3.81531">
        <ele>128.8</ele>
        <time>2020-11-08T10:21:31.000Z</time>
      </trkpt>
      <trkpt lat="50.4982" lon="3.81522">
        <ele>129.57</ele>
        <time>2020-11-08T10:21:32.000Z</time>
      </trkpt>
      <trkpt lat="50.49816" lon="3.81512">
        <ele>129.09</ele>
        <time>2020-11-08T10:21:33.000Z</time>
      </trkpt>
      <trkpt lat="50.49811" lon="3.81502">
        <ele>129.33</ele>
        <time>2020-11-08T10:21:34.000Z</time>
      </trkpt>
      <trkpt lat="50.49806" lon="3.81492">
        <ele>128.36</ele>
        <time>2020-11-08T10:21:35.000Z</time>
      </trkpt>
      <trkpt lat="50.498" lon="3.81483">
        <ele>128.53</ele>
        <time>2020-11-08T10:21:36.000Z</time>
      </trkpt>
      <trkpt lat="50.49795" lon="3.81473">
        <ele>129.69</ele>
        <time>2020-11-08T10:21:37.000Z</time>
      </trkpt>
      <trkpt lat="50.49791" lon="3.81464">
        <ele>129.07</ele>
        <time>2020-11-08T10:21:38.000Z</time>
      </trkpt>
      <trkpt lat="50.49787" lon="3.81454">
        <ele>128.42</ele>
        <time>2020-11-08T10:21:39.000Z</time>
      </trkpt>
      <trkpt lat="50.49782" lon="3.81446">
        <ele>128.31</ele>
        <time>2020-11-08T10:21:40.000Z</time>
      </trkpt>
      <trkpt lat="50.49778" lon="3.81434">
        <ele>129.52</ele>
        <time>2020-11-08T10:21:41.000Z</time>
      </trkpt>
      <trkpt lat="50.49771" lon="3.81423">
        <ele>129.88</ele>
        <time>2020-11-08T10:21:42.000Z</time>
      </trkpt>
      <trkpt lat="50.49766" lon="3.81412">
        <ele>129.21</ele>
        <time>2020-11-08T10:21:43.000Z</time>
      </trkpt>
      <trkpt lat="50.49759" lon="3.81401">
        <ele>131.03</ele>
        <time>2020-11-08T10:21:44.000Z</time>
      </trkpt>
      <trkpt lat="50.49753" lon="3.8139">
        <ele>130.76</ele>
        <time>2020-11-08T10:21:45.000Z</time>
      </trkpt>
      <trkpt lat="50.49748" lon="3.81382">
        <ele>131.54</ele>
        <time>2020-11-08T10:21:46.000Z</time>
      </trkpt>
      <trkpt lat="50.49742" lon="3.81373">
        <ele>131.72</ele>
        <time>2020-11-08T10:21:47.000Z</time>
      </trkpt>
      <trkpt lat="50.49737" lon="3.81364">
        <ele>131.4</ele>
        <time>2020-11-08T10:21:48.000Z</time>
      </trkpt>
      <trkpt lat="50.49732" lon="3.81359">
        <ele>130.7</ele>
        <time>2020-11-08T10:21:49.000Z</time>
      </trkpt>
      <trkpt lat="50.49727" lon="3.81349">
        <ele>131.13</ele>
        <time>2020-11-08T10:21:50.000Z</time>
      </trkpt>
      <trkpt lat="50.49723" lon="3.8134">
        <ele>132.2</ele>
        <time>2020-11-08T10:21:51.000Z</time>
      </trkpt>
      <trkpt lat="50.49718" lon="3.8133">
        <ele>131.43</ele>
        <time>2020-11-08T10:21:52.000Z</time>
      </trkpt>
      <trkpt lat="50.49712" lon="3.81321">
        <ele>131.1</ele>
        <time>2020-11-08T10:21:53.000Z</time>
      </trkpt>
      <trkpt lat="50.49708" lon="3.8131">
        <ele>130.89</ele>
        <time>2020-11-08T10:21:54.000Z</time>
      </trkpt>
      <trkpt lat="50.49702" lon="3.81299">
        <ele>130.13</ele>
        <time>2020-11-08T10:21:55.000Z</time>
      </trkpt>
      <trkpt lat="50.49694" lon="3.81288">
        <ele>129.77</ele>
        <time>2020-11-08T10:21:56.000Z</time>
      </trkpt>
      <trkpt lat="50.49687" lon="3.81277">
        <ele>128.4</ele>
        <time>2020-11-08T10:21:57.000Z</time>
      </trkpt>
      <trkpt lat="50.49681" lon="3.81266">
        <ele>128.03</ele>
        <time>2020-11-08T10:21:58.000Z</time>
      </trkpt>
      <trkpt lat="50.49674" lon="3.81254">
        <ele>127.97</ele>
        <time>2020-11-08T10:21:59.000Z</time>
      </trkpt>
      <trkpt lat="50.49668" lon="3.81242">
        <ele>128.69</ele>
        <time>2020-11-08T10:22:00.000Z</time>
      </trkpt>
      <trkpt lat="50.49662" lon="3.81232">
        <ele>128.42</ele>
        <time>2020-11-08T10:22:01.000Z</time>
      </trkpt>
      <trkpt lat="50.49655" lon="3.81221">
        <ele>128.18</ele>
        <time>2020-11-08T10:22:02.000Z</time>
      </trkpt>
      <trkpt lat="50.4965" lon="3.8121">
        <ele>128.29</ele>
        <time>2020-11-08T10:22:03.000Z</time>
      </trkpt>
      <trkpt lat="50.49645" lon="3.812">
        <ele>127.29</ele>
        <time>2020-11-08T10:22:04.000Z</time>
      </trkpt>
      <trkpt lat="50.49639" lon="3.81189">
        <ele>127.07</ele>
        <time>2020-11-08T10:22:05.000Z</time>
      </trkpt>
      <trkpt lat="50.49633" lon="3.81181">
        <ele>127.76</ele>
        <time>2020-11-08T10:22:06.000Z</time>
      </trkpt>
      <trkpt lat="50.49627" lon="3.81172">
        <ele>127.77</ele>
        <time>2020-11-08T10:22:07.000Z</time>
      </trkpt>
      <trkpt lat="50.49622" lon="3.81163">
        <ele>127.85</ele>
        <time>2020-11-08T10:22:08.000Z</time>
      </trkpt>
      <trkpt lat="50.49616" lon="3.81152">
        <ele>127.47</ele>
        <time>2020-11-08T10:22:09.000Z</time>
      </trkpt>
      <trkpt lat="50.49611" lon="3.81143">
        <ele>127.94</ele>
        <time>2020-11-08T10:22:10.000Z</time>
      </trkpt>
      <trkpt lat="50.49606" lon="3.81132">
        <ele>128.13</ele>
        <time>2020-11-08T10:22:11.000Z</time>
      </trkpt>
      <trkpt lat="50.49601" lon="3.81122">
        <ele>128.33</ele>
        <time>2020-11-08T10:22:12.000Z</time>
      </trkpt>
      <trkpt lat="50.49595" lon="3.81112">
        <ele>127.69</ele>
        <time>2020-11-08T10:22:13.000Z</time>
      </trkpt>
      <trkpt lat="50.49591" lon="3.81102">
        <ele>127.59</ele>
        <time>2020-11-08T10:22:14.000Z</time>
      </trkpt>
      <trkpt lat="50.49586" lon="3.81092">
        <ele>127.72</ele>
        <time>2020-11-08T10:22:15.000Z</time>
      </trkpt>
      <trkpt lat="50.49581" lon="3.81082">
        <ele>128.05</ele>
        <time>2020-11-08T10:22:16.000Z</time>
      </trkpt>
      <trkpt lat="50.49577" lon="3.81072">
        <ele>128.2</ele>
        <time>2020-11-08T10:22:17.000Z</time>
      </trkpt>
      <trkpt lat="50.49572" lon="3.81064">
        <ele>127.91</ele>
        <time>2020-11-08T10:22:18.000Z</time>
      </trkpt>
      <trkpt lat="50.49568" lon="3.81056">
        <ele>127.7</ele>
        <time>2020-11-08T10:22:19.000Z</time>
      </trkpt>
      <trkpt lat="50.49563" lon="3.81048">
        <ele>127.07</ele>
        <time>2020-11-08T10:22:20.000Z</time>
      </trkpt>
      <trkpt lat="50.49558" lon="3.81041">
        <ele>126.44</ele>
        <time>2020-11-08T10:22:21.000Z</time>
      </trkpt>
      <trkpt lat="50.49554" lon="3.81034">
        <ele>126.91</ele>
        <time>2020-11-08T10:22:22.000Z</time>
      </trkpt>
      <trkpt lat="50.49551" lon="3.81025">
        <ele>127.74</ele>
        <time>2020-11-08T10:22:23.000Z</time>
      </trkpt>
      <trkpt lat="50.49547" lon="3.81018">
        <ele>127.12</ele>
        <time>2020-11-08T10:22:24.000Z</time>
      </trkpt>
      <trkpt lat="50.49542" lon="3.81012">
        <ele>127.17</ele>
        <time>2020-11-08T10:22:25.000Z</time>
      </trkpt>
      <trkpt lat="50.49538" lon="3.81007">
        <ele>127.02</ele>
        <time>2020-11-08T10:22:26.000Z</time>
      </trkpt>
      <trkpt lat="50.49533" lon="3.81001">
        <ele>126.61</ele>
        <time>2020-11-08T10:22:28.000Z</time>
      </trkpt>
      <trkpt lat="50.49529" lon="3.80996">
        <ele>126.94</ele>
        <time>2020-11-08T10:22:30.000Z</time>
      </trkpt>
      <trkpt lat="50.49522" lon="3.80993">
        <ele>126.47</ele>
        <time>2020-11-08T10:22:33.000Z</time>
      </trkpt>
      <trkpt lat="50.49517" lon="3.80987">
        <ele>125.91</ele>
        <time>2020-11-08T10:22:35.000Z</time>
      </trkpt>
      <trkpt lat="50.49511" lon="3.80979">
        <ele>125.64</ele>
        <time>2020-11-08T10:22:37.000Z</time>
      </trkpt>
      <trkpt lat="50.49506" lon="3.80969">
        <ele>125.43</ele>
        <time>2020-11-08T10:22:39.000Z</time>
      </trkpt>
      <trkpt lat="50.49501" lon="3.80967">
        <ele>125.03</ele>
        <time>2020-11-08T10:22:41.000Z</time>
      </trkpt>
      <trkpt lat="50.49496" lon="3.80968">
        <ele>125.35</ele>
        <time>2020-11-08T10:22:44.000Z</time>
      </trkpt>
      <trkpt lat="50.49491" lon="3.80967">
        <ele>125.42</ele>
        <time>2020-11-08T10:22:50.000Z</time>
      </trkpt>
      <trkpt lat="50.49491" lon="3.80967">
        <ele>125.42</ele>
        <time>2020-11-08T10:22:50.001Z</time>
      </trkpt>
      <trkpt lat="50.49489" lon="3.80975">
        <ele>126.68</ele>
        <time>2020-11-08T10:24:51.000Z</time>
      </trkpt>
      <trkpt lat="50.49483" lon="3.80977">
        <ele>125.71</ele>
        <time>2020-11-08T10:24:54.000Z</time>
      </trkpt>
      <trkpt lat="50.49478" lon="3.80979">
        <ele>123.67</ele>
        <time>2020-11-08T10:24:57.000Z</time>
      </trkpt>
      <trkpt lat="50.49474" lon="3.80982">
        <ele>122.88</ele>
        <time>2020-11-08T10:24:59.000Z</time>
      </trkpt>
      <trkpt lat="50.4947" lon="3.80987">
        <ele>125.7</ele>
        <time>2020-11-08T10:25:01.000Z</time>
      </trkpt>
      <trkpt lat="50.49465" lon="3.80993">
        <ele>125.32</ele>
        <time>2020-11-08T10:25:03.000Z</time>
      </trkpt>
      <trkpt lat="50.49457" lon="3.80998">
        <ele>122.26</ele>
        <time>2020-11-08T10:25:05.000Z</time>
      </trkpt>
      <trkpt lat="50.49451" lon="3.81007">
        <ele>123.33</ele>
        <time>2020-11-08T10:25:06.000Z</time>
      </trkpt>
      <trkpt lat="50.49446" lon="3.81012">
        <ele>122.37</ele>
        <time>2020-11-08T10:25:07.000Z</time>
      </trkpt>
      <trkpt lat="50.49441" lon="3.81017">
        <ele>121.78</ele>
        <time>2020-11-08T10:25:08.000Z</time>
      </trkpt>
      <trkpt lat="50.49436" lon="3.8102">
        <ele>123.17</ele>
        <time>2020-11-08T10:25:09.000Z</time>
      </trkpt>
      <trkpt lat="50.4943" lon="3.8103">
        <ele>122.69</ele>
        <time>2020-11-08T10:25:11.000Z</time>
      </trkpt>
      <trkpt lat="50.49425" lon="3.81034">
        <ele>122.62</ele>
        <time>2020-11-08T10:25:12.000Z</time>
      </trkpt>
      <trkpt lat="50.49421" lon="3.81038">
        <ele>122.1</ele>
        <time>2020-11-08T10:25:13.000Z</time>
      </trkpt>
      <trkpt lat="50.49416" lon="3.81042">
        <ele>123.21</ele>
        <time>2020-11-08T10:25:14.000Z</time>
      </trkpt>
      <trkpt lat="50.49412" lon="3.81048">
        <ele>123.59</ele>
        <time>2020-11-08T10:25:15.000Z</time>
      </trkpt>
      <trkpt lat="50.49406" lon="3.81053">
        <ele>122.68</ele>
        <time>2020-11-08T10:25:16.000Z</time>
      </trkpt>
      <trkpt lat="50.49401" lon="3.81057">
        <ele>122.69</ele>
        <time>2020-11-08T10:25:17.000Z</time>
      </trkpt>
      <trkpt lat="50.49394" lon="3.81061">
        <ele>123.1</ele>
        <time>2020-11-08T10:25:18.000Z</time>
      </trkpt>
      <trkpt lat="50.49389" lon="3.81066">
        <ele>123.34</ele>
        <time>2020-11-08T10:25:19.000Z</time>
      </trkpt>
      <trkpt lat="50.49384" lon="3.81072">
        <ele>123.33</ele>
        <time>2020-11-08T10:25:20.000Z</time>
      </trkpt>
      <trkpt lat="50.49379" lon="3.81078">
        <ele>122.54</ele>
        <time>2020-11-08T10:25:21.000Z</time>
      </trkpt>
      <trkpt lat="50.49374" lon="3.81083">
        <ele>122.83</ele>
        <time>2020-11-08T10:25:22.000Z</time>
      </trkpt>
      <trkpt lat="50.49368" lon="3.81089">
        <ele>122.78</ele>
        <time>2020-11-08T10:25:23.000Z</time>
      </trkpt>
      <trkpt lat="50.49361" lon="3.81097">
        <ele>123</ele>
        <time>2020-11-08T10:25:24.000Z</time>
      </trkpt>
      <trkpt lat="50.49355" lon="3.81104">
        <ele>123.48</ele>
        <time>2020-11-08T10:25:25.000Z</time>
      </trkpt>
      <trkpt lat="50.49349" lon="3.8111">
        <ele>124.11</ele>
        <time>2020-11-08T10:25:26.000Z</time>
      </trkpt>
      <trkpt lat="50.49344" lon="3.81116">
        <ele>123.98</ele>
        <time>2020-11-08T10:25:27.000Z</time>
      </trkpt>
      <trkpt lat="50.49339" lon="3.81121">
        <ele>123.12</ele>
        <time>2020-11-08T10:25:28.000Z</time>
      </trkpt>
      <trkpt lat="50.49335" lon="3.81126">
        <ele>122.25</ele>
        <time>2020-11-08T10:25:29.000Z</time>
      </trkpt>
      <trkpt lat="50.4933" lon="3.81133">
        <ele>121.34</ele>
        <time>2020-11-08T10:25:30.000Z</time>
      </trkpt>
      <trkpt lat="50.49324" lon="3.81139">
        <ele>121.45</ele>
        <time>2020-11-08T10:25:31.000Z</time>
      </trkpt>
      <trkpt lat="50.49318" lon="3.81143">
        <ele>121.74</ele>
        <time>2020-11-08T10:25:32.000Z</time>
      </trkpt>
      <trkpt lat="50.49312" lon="3.81148">
        <ele>121.5</ele>
        <time>2020-11-08T10:25:33.000Z</time>
      </trkpt>
      <trkpt lat="50.49306" lon="3.81154">
        <ele>122.5</ele>
        <time>2020-11-08T10:25:34.000Z</time>
      </trkpt>
      <trkpt lat="50.493" lon="3.8116">
        <ele>122.76</ele>
        <time>2020-11-08T10:25:35.000Z</time>
      </trkpt>
      <trkpt lat="50.49296" lon="3.81166">
        <ele>123.87</ele>
        <time>2020-11-08T10:25:36.000Z</time>
      </trkpt>
      <trkpt lat="50.49291" lon="3.81172">
        <ele>123.56</ele>
        <time>2020-11-08T10:25:37.000Z</time>
      </trkpt>
      <trkpt lat="50.49287" lon="3.81175">
        <ele>123.51</ele>
        <time>2020-11-08T10:25:38.000Z</time>
      </trkpt>
      <trkpt lat="50.49281" lon="3.81179">
        <ele>124.27</ele>
        <time>2020-11-08T10:25:39.000Z</time>
      </trkpt>
      <trkpt lat="50.49277" lon="3.81185">
        <ele>124.24</ele>
        <time>2020-11-08T10:25:40.000Z</time>
      </trkpt>
      <trkpt lat="50.49273" lon="3.81189">
        <ele>123.92</ele>
        <time>2020-11-08T10:25:41.000Z</time>
      </trkpt>
      <trkpt lat="50.49267" lon="3.81192">
        <ele>124.16</ele>
        <time>2020-11-08T10:25:42.000Z</time>
      </trkpt>
      <trkpt lat="50.49259" lon="3.81199">
        <ele>124.08</ele>
        <time>2020-11-08T10:25:44.000Z</time>
      </trkpt>
      <trkpt lat="50.49254" lon="3.81206">
        <ele>124.36</ele>
        <time>2020-11-08T10:25:45.000Z</time>
      </trkpt>
      <trkpt lat="50.4925" lon="3.81213">
        <ele>124.3</ele>
        <time>2020-11-08T10:25:46.000Z</time>
      </trkpt>
      <trkpt lat="50.49248" lon="3.81221">
        <ele>125.62</ele>
        <time>2020-11-08T10:25:47.000Z</time>
      </trkpt>
      <trkpt lat="50.49245" lon="3.81227">
        <ele>125.58</ele>
        <time>2020-11-08T10:25:48.000Z</time>
      </trkpt>
      <trkpt lat="50.49241" lon="3.81235">
        <ele>122.64</ele>
        <time>2020-11-08T10:25:49.000Z</time>
      </trkpt>
      <trkpt lat="50.49238" lon="3.81244">
        <ele>123.41</ele>
        <time>2020-11-08T10:25:50.000Z</time>
      </trkpt>
      <trkpt lat="50.49234" lon="3.81253">
        <ele>120.43</ele>
        <time>2020-11-08T10:25:51.000Z</time>
      </trkpt>
      <trkpt lat="50.49231" lon="3.8126">
        <ele>120.61</ele>
        <time>2020-11-08T10:25:52.000Z</time>
      </trkpt>
      <trkpt lat="50.49227" lon="3.81269">
        <ele>122.61</ele>
        <time>2020-11-08T10:25:53.000Z</time>
      </trkpt>
      <trkpt lat="50.49224" lon="3.81276">
        <ele>122.32</ele>
        <time>2020-11-08T10:25:54.000Z</time>
      </trkpt>
      <trkpt lat="50.49222" lon="3.81283">
        <ele>123.13</ele>
        <time>2020-11-08T10:25:55.000Z</time>
      </trkpt>
      <trkpt lat="50.4922" lon="3.8129">
        <ele>122.86</ele>
        <time>2020-11-08T10:25:56.000Z</time>
      </trkpt>
      <trkpt lat="50.49218" lon="3.81297">
        <ele>122.64</ele>
        <time>2020-11-08T10:25:57.000Z</time>
      </trkpt>
      <trkpt lat="50.49217" lon="3.81305">
        <ele>123.09</ele>
        <time>2020-11-08T10:25:58.000Z</time>
      </trkpt>
      <trkpt lat="50.49215" lon="3.81313">
        <ele>123.51</ele>
        <time>2020-11-08T10:25:59.000Z</time>
      </trkpt>
      <trkpt lat="50.49213" lon="3.8132">
        <ele>123.15</ele>
        <time>2020-11-08T10:26:00.000Z</time>
      </trkpt>
      <trkpt lat="50.4921" lon="3.81329">
        <ele>119.18</ele>
        <time>2020-11-08T10:26:01.000Z</time>
      </trkpt>
      <trkpt lat="50.49206" lon="3.81338">
        <ele>120.48</ele>
        <time>2020-11-08T10:26:02.000Z</time>
      </trkpt>
      <trkpt lat="50.49203" lon="3.81345">
        <ele>122.07</ele>
        <time>2020-11-08T10:26:03.000Z</time>
      </trkpt>
      <trkpt lat="50.492" lon="3.81353">
        <ele>121.92</ele>
        <time>2020-11-08T10:26:04.000Z</time>
      </trkpt>
      <trkpt lat="50.49198" lon="3.81359">
        <ele>120.57</ele>
        <time>2020-11-08T10:26:05.000Z</time>
      </trkpt>
      <trkpt lat="50.49194" lon="3.81368">
        <ele>120.98</ele>
        <time>2020-11-08T10:26:06.000Z</time>
      </trkpt>
      <trkpt lat="50.49192" lon="3.81376">
        <ele>120.18</ele>
        <time>2020-11-08T10:26:07.000Z</time>
      </trkpt>
      <trkpt lat="50.49189" lon="3.81384">
        <ele>121.51</ele>
        <time>2020-11-08T10:26:08.000Z</time>
      </trkpt>
      <trkpt lat="50.49186" lon="3.81392">
        <ele>121.94</ele>
        <time>2020-11-08T10:26:09.000Z</time>
      </trkpt>
      <trkpt lat="50.49185" lon="3.81401">
        <ele>121.4</ele>
        <time>2020-11-08T10:26:10.000Z</time>
      </trkpt>
      <trkpt lat="50.49182" lon="3.81408">
        <ele>121.94</ele>
        <time>2020-11-08T10:26:11.000Z</time>
      </trkpt>
      <trkpt lat="50.4918" lon="3.81418">
        <ele>122.33</ele>
        <time>2020-11-08T10:26:12.000Z</time>
      </trkpt>
      <trkpt lat="50.49177" lon="3.81425">
        <ele>123.16</ele>
        <time>2020-11-08T10:26:13.000Z</time>
      </trkpt>
      <trkpt lat="50.49175" lon="3.81432">
        <ele>123.21</ele>
        <time>2020-11-08T10:26:14.000Z</time>
      </trkpt>
      <trkpt lat="50.49172" lon="3.81437">
        <ele>122.72</ele>
        <time>2020-11-08T10:26:15.000Z</time>
      </trkpt>
      <trkpt lat="50.49169" lon="3.81442">
        <ele>124.03</ele>
        <time>2020-11-08T10:26:16.000Z</time>
      </trkpt>
      <trkpt lat="50.49164" lon="3.81448">
        <ele>123.85</ele>
        <time>2020-11-08T10:26:17.000Z</time>
      </trkpt>
      <trkpt lat="50.49159" lon="3.81454">
        <ele>123.22</ele>
        <time>2020-11-08T10:26:18.000Z</time>
      </trkpt>
      <trkpt lat="50.49154" lon="3.81459">
        <ele>123.96</ele>
        <time>2020-11-08T10:26:19.000Z</time>
      </trkpt>
      <trkpt lat="50.49147" lon="3.81467">
        <ele>120.84</ele>
        <time>2020-11-08T10:26:21.000Z</time>
      </trkpt>
      <trkpt lat="50.49142" lon="3.81471">
        <ele>120.41</ele>
        <time>2020-11-08T10:26:22.000Z</time>
      </trkpt>
      <trkpt lat="50.49133" lon="3.81475">
        <ele>117.98</ele>
        <time>2020-11-08T10:26:24.000Z</time>
      </trkpt>
      <trkpt lat="50.49128" lon="3.81474">
        <ele>119.49</ele>
        <time>2020-11-08T10:26:25.000Z</time>
      </trkpt>
      <trkpt lat="50.49122" lon="3.81471">
        <ele>120.23</ele>
        <time>2020-11-08T10:26:26.000Z</time>
      </trkpt>
      <trkpt lat="50.49117" lon="3.81468">
        <ele>120.18</ele>
        <time>2020-11-08T10:26:27.000Z</time>
      </trkpt>
      <trkpt lat="50.49112" lon="3.81465">
        <ele>120.02</ele>
        <time>2020-11-08T10:26:28.000Z</time>
      </trkpt>
      <trkpt lat="50.49106" lon="3.81461">
        <ele>119.43</ele>
        <time>2020-11-08T10:26:29.000Z</time>
      </trkpt>
      <trkpt lat="50.491" lon="3.81458">
        <ele>119.37</ele>
        <time>2020-11-08T10:26:30.000Z</time>
      </trkpt>
      <trkpt lat="50.49093" lon="3.81455">
        <ele>119.87</ele>
        <time>2020-11-08T10:26:31.000Z</time>
      </trkpt>
      <trkpt lat="50.49087" lon="3.81451">
        <ele>119.84</ele>
        <time>2020-11-08T10:26:32.000Z</time>
      </trkpt>
      <trkpt lat="50.49082" lon="3.81449">
        <ele>120.17</ele>
        <time>2020-11-08T10:26:33.000Z</time>
      </trkpt>
      <trkpt lat="50.49076" lon="3.81445">
        <ele>120.01</ele>
        <time>2020-11-08T10:26:34.000Z</time>
      </trkpt>
      <trkpt lat="50.49071" lon="3.81442">
        <ele>119.79</ele>
        <time>2020-11-08T10:26:35.000Z</time>
      </trkpt>
      <trkpt lat="50.49066" lon="3.81439">
        <ele>119.61</ele>
        <time>2020-11-08T10:26:36.000Z</time>
      </trkpt>
      <trkpt lat="50.49061" lon="3.81436">
        <ele>119.71</ele>
        <time>2020-11-08T10:26:37.000Z</time>
      </trkpt>
      <trkpt lat="50.49056" lon="3.81432">
        <ele>115.93</ele>
        <time>2020-11-08T10:26:39.000Z</time>
      </trkpt>
      <trkpt lat="50.49053" lon="3.81424">
        <ele>121.92</ele>
        <time>2020-11-08T10:26:42.000Z</time>
      </trkpt>
      <trkpt lat="50.49049" lon="3.81422">
        <ele>117.47</ele>
        <time>2020-11-08T10:26:45.000Z</time>
      </trkpt>
      <trkpt lat="50.49049" lon="3.81422">
        <ele>117.47</ele>
        <time>2020-11-08T10:26:45.001Z</time>
      </trkpt>
      <trkpt lat="50.49044" lon="3.81421">
        <ele>119.21</ele>
        <time>2020-11-08T10:26:58.000Z</time>
      </trkpt>
      <trkpt lat="50.49045" lon="3.81413">
        <ele>120.49</ele>
        <time>2020-11-08T10:27:00.000Z</time>
      </trkpt>
      <trkpt lat="50.49047" lon="3.81403">
        <ele>118.24</ele>
        <time>2020-11-08T10:27:02.000Z</time>
      </trkpt>
      <trkpt lat="50.49051" lon="3.81392">
        <ele>119.64</ele>
        <time>2020-11-08T10:27:04.000Z</time>
      </trkpt>
      <trkpt lat="50.49054" lon="3.81386">
        <ele>119.72</ele>
        <time>2020-11-08T10:27:05.000Z</time>
      </trkpt>
      <trkpt lat="50.49058" lon="3.81379">
        <ele>119.85</ele>
        <time>2020-11-08T10:27:06.000Z</time>
      </trkpt>
      <trkpt lat="50.49061" lon="3.81372">
        <ele>119.2</ele>
        <time>2020-11-08T10:27:07.000Z</time>
      </trkpt>
      <trkpt lat="50.49063" lon="3.81365">
        <ele>119.74</ele>
        <time>2020-11-08T10:27:08.000Z</time>
      </trkpt>
      <trkpt lat="50.49065" lon="3.81358">
        <ele>120.04</ele>
        <time>2020-11-08T10:27:09.000Z</time>
      </trkpt>
      <trkpt lat="50.49068" lon="3.8135">
        <ele>120.07</ele>
        <time>2020-11-08T10:27:10.000Z</time>
      </trkpt>
      <trkpt lat="50.4907" lon="3.81342">
        <ele>120.89</ele>
        <time>2020-11-08T10:27:11.000Z</time>
      </trkpt>
      <trkpt lat="50.49073" lon="3.81335">
        <ele>120.82</ele>
        <time>2020-11-08T10:27:12.000Z</time>
      </trkpt>
      <trkpt lat="50.49076" lon="3.81329">
        <ele>121.02</ele>
        <time>2020-11-08T10:27:13.000Z</time>
      </trkpt>
      <trkpt lat="50.49079" lon="3.81323">
        <ele>121.48</ele>
        <time>2020-11-08T10:27:14.000Z</time>
      </trkpt>
      <trkpt lat="50.49084" lon="3.8131">
        <ele>121.25</ele>
        <time>2020-11-08T10:27:16.000Z</time>
      </trkpt>
      <trkpt lat="50.49088" lon="3.81297">
        <ele>121.03</ele>
        <time>2020-11-08T10:27:18.000Z</time>
      </trkpt>
      <trkpt lat="50.49091" lon="3.81291">
        <ele>120.31</ele>
        <time>2020-11-08T10:27:19.000Z</time>
      </trkpt>
      <trkpt lat="50.49095" lon="3.81278">
        <ele>120.31</ele>
        <time>2020-11-08T10:27:21.000Z</time>
      </trkpt>
      <trkpt lat="50.491" lon="3.81266">
        <ele>120.36</ele>
        <time>2020-11-08T10:27:23.000Z</time>
      </trkpt>
      <trkpt lat="50.49103" lon="3.81259">
        <ele>121.3</ele>
        <time>2020-11-08T10:27:24.000Z</time>
      </trkpt>
      <trkpt lat="50.49106" lon="3.81251">
        <ele>120.68</ele>
        <time>2020-11-08T10:27:25.000Z</time>
      </trkpt>
      <trkpt lat="50.49109" lon="3.81244">
        <ele>120.97</ele>
        <time>2020-11-08T10:27:26.000Z</time>
      </trkpt>
      <trkpt lat="50.49111" lon="3.81236">
        <ele>121.29</ele>
        <time>2020-11-08T10:27:27.000Z</time>
      </trkpt>
      <trkpt lat="50.49114" lon="3.81228">
        <ele>121.14</ele>
        <time>2020-11-08T10:27:28.000Z</time>
      </trkpt>
      <trkpt lat="50.49117" lon="3.81221">
        <ele>121.51</ele>
        <time>2020-11-08T10:27:29.000Z</time>
      </trkpt>
      <trkpt lat="50.4912" lon="3.81213">
        <ele>121.14</ele>
        <time>2020-11-08T10:27:30.000Z</time>
      </trkpt>
      <trkpt lat="50.49123" lon="3.81205">
        <ele>121.39</ele>
        <time>2020-11-08T10:27:31.000Z</time>
      </trkpt>
      <trkpt lat="50.49126" lon="3.81197">
        <ele>121.22</ele>
        <time>2020-11-08T10:27:32.000Z</time>
      </trkpt>
      <trkpt lat="50.49129" lon="3.8119">
        <ele>121.36</ele>
        <time>2020-11-08T10:27:33.000Z</time>
      </trkpt>
      <trkpt lat="50.49132" lon="3.81182">
        <ele>121.38</ele>
        <time>2020-11-08T10:27:34.000Z</time>
      </trkpt>
      <trkpt lat="50.49135" lon="3.81174">
        <ele>121.02</ele>
        <time>2020-11-08T10:27:35.000Z</time>
      </trkpt>
      <trkpt lat="50.49138" lon="3.81166">
        <ele>121.1</ele>
        <time>2020-11-08T10:27:36.000Z</time>
      </trkpt>
      <trkpt lat="50.49141" lon="3.81157">
        <ele>121.07</ele>
        <time>2020-11-08T10:27:37.000Z</time>
      </trkpt>
      <trkpt lat="50.49144" lon="3.81148">
        <ele>121.16</ele>
        <time>2020-11-08T10:27:38.000Z</time>
      </trkpt>
      <trkpt lat="50.49147" lon="3.81139">
        <ele>121.45</ele>
        <time>2020-11-08T10:27:39.000Z</time>
      </trkpt>
      <trkpt lat="50.4915" lon="3.8113">
        <ele>122</ele>
        <time>2020-11-08T10:27:40.000Z</time>
      </trkpt>
      <trkpt lat="50.49153" lon="3.81122">
        <ele>121.07</ele>
        <time>2020-11-08T10:27:41.000Z</time>
      </trkpt>
      <trkpt lat="50.49156" lon="3.81113">
        <ele>121.08</ele>
        <time>2020-11-08T10:27:42.000Z</time>
      </trkpt>
      <trkpt lat="50.49159" lon="3.81104">
        <ele>121.11</ele>
        <time>2020-11-08T10:27:43.000Z</time>
      </trkpt>
      <trkpt lat="50.49162" lon="3.81095">
        <ele>121.22</ele>
        <time>2020-11-08T10:27:44.000Z</time>
      </trkpt>
      <trkpt lat="50.49165" lon="3.81086">
        <ele>121.13</ele>
        <time>2020-11-08T10:27:45.000Z</time>
      </trkpt>
      <trkpt lat="50.49169" lon="3.81077">
        <ele>120.83</ele>
        <time>2020-11-08T10:27:46.000Z</time>
      </trkpt>
      <trkpt lat="50.49172" lon="3.81069">
        <ele>121.11</ele>
        <time>2020-11-08T10:27:47.000Z</time>
      </trkpt>
      <trkpt lat="50.49176" lon="3.8106">
        <ele>120.84</ele>
        <time>2020-11-08T10:27:48.000Z</time>
      </trkpt>
      <trkpt lat="50.49179" lon="3.81051">
        <ele>120.46</ele>
        <time>2020-11-08T10:27:49.000Z</time>
      </trkpt>
      <trkpt lat="50.49183" lon="3.81043">
        <ele>121.33</ele>
        <time>2020-11-08T10:27:50.000Z</time>
      </trkpt>
      <trkpt lat="50.49186" lon="3.81035">
        <ele>121.38</ele>
        <time>2020-11-08T10:27:51.000Z</time>
      </trkpt>
      <trkpt lat="50.49189" lon="3.81026">
        <ele>122.33</ele>
        <time>2020-11-08T10:27:52.000Z</time>
      </trkpt>
      <trkpt lat="50.49192" lon="3.81017">
        <ele>123</ele>
        <time>2020-11-08T10:27:53.000Z</time>
      </trkpt>
      <trkpt lat="50.49195" lon="3.81008">
        <ele>123.45</ele>
        <time>2020-11-08T10:27:54.000Z</time>
      </trkpt>
      <trkpt lat="50.49198" lon="3.81">
        <ele>123.85</ele>
        <time>2020-11-08T10:27:55.000Z</time>
      </trkpt>
      <trkpt lat="50.49201" lon="3.80991">
        <ele>123.24</ele>
        <time>2020-11-08T10:27:56.000Z</time>
      </trkpt>
      <trkpt lat="50.49205" lon="3.80981">
        <ele>123.42</ele>
        <time>2020-11-08T10:27:57.000Z</time>
      </trkpt>
      <trkpt lat="50.49209" lon="3.80971">
        <ele>124.11</ele>
        <time>2020-11-08T10:27:58.000Z</time>
      </trkpt>
      <trkpt lat="50.49212" lon="3.80962">
        <ele>122.3</ele>
        <time>2020-11-08T10:27:59.000Z</time>
      </trkpt>
      <trkpt lat="50.49215" lon="3.80953">
        <ele>123.93</ele>
        <time>2020-11-08T10:28:00.000Z</time>
      </trkpt>
      <trkpt lat="50.49218" lon="3.80944">
        <ele>123.36</ele>
        <time>2020-11-08T10:28:01.000Z</time>
      </trkpt>
      <trkpt lat="50.49221" lon="3.80936">
        <ele>123.9</ele>
        <time>2020-11-08T10:28:02.000Z</time>
      </trkpt>
      <trkpt lat="50.49224" lon="3.80927">
        <ele>124.2</ele>
        <time>2020-11-08T10:28:03.000Z</time>
      </trkpt>
      <trkpt lat="50.49227" lon="3.80919">
        <ele>124.89</ele>
        <time>2020-11-08T10:28:04.000Z</time>
      </trkpt>
      <trkpt lat="50.4923" lon="3.80911">
        <ele>124.73</ele>
        <time>2020-11-08T10:28:05.000Z</time>
      </trkpt>
      <trkpt lat="50.49233" lon="3.80904">
        <ele>125.06</ele>
        <time>2020-11-08T10:28:06.000Z</time>
      </trkpt>
      <trkpt lat="50.49237" lon="3.80896">
        <ele>125.52</ele>
        <time>2020-11-08T10:28:07.000Z</time>
      </trkpt>
      <trkpt lat="50.4924" lon="3.80888">
        <ele>125.71</ele>
        <time>2020-11-08T10:28:08.000Z</time>
      </trkpt>
      <trkpt lat="50.49242" lon="3.80879">
        <ele>125.8</ele>
        <time>2020-11-08T10:28:09.000Z</time>
      </trkpt>
      <trkpt lat="50.49245" lon="3.80869">
        <ele>125.99</ele>
        <time>2020-11-08T10:28:10.000Z</time>
      </trkpt>
      <trkpt lat="50.49247" lon="3.80859">
        <ele>126.87</ele>
        <time>2020-11-08T10:28:11.000Z</time>
      </trkpt>
      <trkpt lat="50.49247" lon="3.80849">
        <ele>127.67</ele>
        <time>2020-11-08T10:28:12.000Z</time>
      </trkpt>
      <trkpt lat="50.49247" lon="3.80839">
        <ele>128.41</ele>
        <time>2020-11-08T10:28:13.000Z</time>
      </trkpt>
      <trkpt lat="50.49245" lon="3.80829">
        <ele>128.15</ele>
        <time>2020-11-08T10:28:14.000Z</time>
      </trkpt>
      <trkpt lat="50.49243" lon="3.8082">
        <ele>127.74</ele>
        <time>2020-11-08T10:28:15.000Z</time>
      </trkpt>
      <trkpt lat="50.4924" lon="3.80812">
        <ele>126.84</ele>
        <time>2020-11-08T10:28:16.000Z</time>
      </trkpt>
      <trkpt lat="50.49237" lon="3.80805">
        <ele>126.48</ele>
        <time>2020-11-08T10:28:17.000Z</time>
      </trkpt>
      <trkpt lat="50.49233" lon="3.80798">
        <ele>126.16</ele>
        <time>2020-11-08T10:28:18.000Z</time>
      </trkpt>
      <trkpt lat="50.49231" lon="3.8079">
        <ele>125.86</ele>
        <time>2020-11-08T10:28:19.000Z</time>
      </trkpt>
      <trkpt lat="50.49229" lon="3.80782">
        <ele>125.62</ele>
        <time>2020-11-08T10:28:20.000Z</time>
      </trkpt>
      <trkpt lat="50.49227" lon="3.80773">
        <ele>125.83</ele>
        <time>2020-11-08T10:28:21.000Z</time>
      </trkpt>
      <trkpt lat="50.49226" lon="3.80764">
        <ele>125.78</ele>
        <time>2020-11-08T10:28:22.000Z</time>
      </trkpt>
      <trkpt lat="50.49226" lon="3.80756">
        <ele>125.01</ele>
        <time>2020-11-08T10:28:23.000Z</time>
      </trkpt>
      <trkpt lat="50.49228" lon="3.80742">
        <ele>123.68</ele>
        <time>2020-11-08T10:28:25.000Z</time>
      </trkpt>
      <trkpt lat="50.4923" lon="3.8073">
        <ele>124.07</ele>
        <time>2020-11-08T10:28:27.000Z</time>
      </trkpt>
      <trkpt lat="50.49233" lon="3.80723">
        <ele>123.23</ele>
        <time>2020-11-08T10:28:29.000Z</time>
      </trkpt>
      <trkpt lat="50.49234" lon="3.80716">
        <ele>123.46</ele>
        <time>2020-11-08T10:28:33.000Z</time>
      </trkpt>
      <trkpt lat="50.49234" lon="3.80716">
        <ele>123.46</ele>
        <time>2020-11-08T10:28:33.001Z</time>
      </trkpt>
      <trkpt lat="50.49233" lon="3.80707">
        <ele>123.82</ele>
        <time>2020-11-08T10:28:59.000Z</time>
      </trkpt>
      <trkpt lat="50.49226" lon="3.80704">
        <ele>123.54</ele>
        <time>2020-11-08T10:29:01.000Z</time>
      </trkpt>
      <trkpt lat="50.49216" lon="3.80711">
        <ele>123.33</ele>
        <time>2020-11-08T10:29:03.000Z</time>
      </trkpt>
      <trkpt lat="50.49211" lon="3.80711">
        <ele>119.54</ele>
        <time>2020-11-08T10:29:04.000Z</time>
      </trkpt>
      <trkpt lat="50.49201" lon="3.80714">
        <ele>121.05</ele>
        <time>2020-11-08T10:29:06.000Z</time>
      </trkpt>
      <trkpt lat="50.49197" lon="3.80716">
        <ele>120.88</ele>
        <time>2020-11-08T10:29:07.000Z</time>
      </trkpt>
      <trkpt lat="50.49192" lon="3.80718">
        <ele>121.18</ele>
        <time>2020-11-08T10:29:08.000Z</time>
      </trkpt>
      <trkpt lat="50.49187" lon="3.80721">
        <ele>121.3</ele>
        <time>2020-11-08T10:29:09.000Z</time>
      </trkpt>
      <trkpt lat="50.49181" lon="3.80722">
        <ele>121.03</ele>
        <time>2020-11-08T10:29:10.000Z</time>
      </trkpt>
      <trkpt lat="50.49176" lon="3.8072">
        <ele>121.19</ele>
        <time>2020-11-08T10:29:11.000Z</time>
      </trkpt>
      <trkpt lat="50.4917" lon="3.80719">
        <ele>121.47</ele>
        <time>2020-11-08T10:29:12.000Z</time>
      </trkpt>
      <trkpt lat="50.49164" lon="3.8072">
        <ele>121.28</ele>
        <time>2020-11-08T10:29:13.000Z</time>
      </trkpt>
      <trkpt lat="50.49158" lon="3.80723">
        <ele>121</ele>
        <time>2020-11-08T10:29:14.000Z</time>
      </trkpt>
      <trkpt lat="50.49152" lon="3.80725">
        <ele>120.77</ele>
        <time>2020-11-08T10:29:15.000Z</time>
      </trkpt>
      <trkpt lat="50.49146" lon="3.80728">
        <ele>120.7</ele>
        <time>2020-11-08T10:29:16.000Z</time>
      </trkpt>
      <trkpt lat="50.4914" lon="3.80731">
        <ele>120.43</ele>
        <time>2020-11-08T10:29:17.000Z</time>
      </trkpt>
      <trkpt lat="50.49133" lon="3.80734">
        <ele>120.5</ele>
        <time>2020-11-08T10:29:18.000Z</time>
      </trkpt>
      <trkpt lat="50.49126" lon="3.80737">
        <ele>120.72</ele>
        <time>2020-11-08T10:29:19.000Z</time>
      </trkpt>
      <trkpt lat="50.4912" lon="3.8074">
        <ele>120.2</ele>
        <time>2020-11-08T10:29:20.000Z</time>
      </trkpt>
      <trkpt lat="50.49113" lon="3.80743">
        <ele>120.01</ele>
        <time>2020-11-08T10:29:21.000Z</time>
      </trkpt>
      <trkpt lat="50.49106" lon="3.80746">
        <ele>119.11</ele>
        <time>2020-11-08T10:29:22.000Z</time>
      </trkpt>
      <trkpt lat="50.49099" lon="3.80749">
        <ele>119.04</ele>
        <time>2020-11-08T10:29:23.000Z</time>
      </trkpt>
      <trkpt lat="50.49094" lon="3.80752">
        <ele>118.68</ele>
        <time>2020-11-08T10:29:24.000Z</time>
      </trkpt>
      <trkpt lat="50.49089" lon="3.80757">
        <ele>118.67</ele>
        <time>2020-11-08T10:29:25.000Z</time>
      </trkpt>
      <trkpt lat="50.49085" lon="3.80758">
        <ele>118.54</ele>
        <time>2020-11-08T10:29:26.000Z</time>
      </trkpt>
      <trkpt lat="50.4908" lon="3.8076">
        <ele>118.75</ele>
        <time>2020-11-08T10:29:27.000Z</time>
      </trkpt>
      <trkpt lat="50.49074" lon="3.80763">
        <ele>118.1</ele>
        <time>2020-11-08T10:29:29.000Z</time>
      </trkpt>
      <trkpt lat="50.4907" lon="3.80755">
        <ele>111.56</ele>
        <time>2020-11-08T10:29:34.000Z</time>
      </trkpt>
      <trkpt lat="50.49069" lon="3.80742">
        <ele>116.53</ele>
        <time>2020-11-08T10:29:37.000Z</time>
      </trkpt>
      <trkpt lat="50.49069" lon="3.80731">
        <ele>118.65</ele>
        <time>2020-11-08T10:29:39.000Z</time>
      </trkpt>
      <trkpt lat="50.49072" lon="3.80723">
        <ele>118.81</ele>
        <time>2020-11-08T10:29:40.000Z</time>
      </trkpt>
      <trkpt lat="50.49071" lon="3.80715">
        <ele>118.97</ele>
        <time>2020-11-08T10:29:41.000Z</time>
      </trkpt>
      <trkpt lat="50.49072" lon="3.80707">
        <ele>119.86</ele>
        <time>2020-11-08T10:29:42.000Z</time>
      </trkpt>
      <trkpt lat="50.49072" lon="3.807">
        <ele>120.65</ele>
        <time>2020-11-08T10:29:43.000Z</time>
      </trkpt>
      <trkpt lat="50.49072" lon="3.80692">
        <ele>121.99</ele>
        <time>2020-11-08T10:29:44.000Z</time>
      </trkpt>
      <trkpt lat="50.49072" lon="3.80684">
        <ele>122.76</ele>
        <time>2020-11-08T10:29:45.000Z</time>
      </trkpt>
      <trkpt lat="50.49073" lon="3.80676">
        <ele>123.22</ele>
        <time>2020-11-08T10:29:46.000Z</time>
      </trkpt>
      <trkpt lat="50.49073" lon="3.80667">
        <ele>122.9</ele>
        <time>2020-11-08T10:29:47.000Z</time>
      </trkpt>
      <trkpt lat="50.49073" lon="3.80657">
        <ele>123.25</ele>
        <time>2020-11-08T10:29:48.000Z</time>
      </trkpt>
      <trkpt lat="50.49073" lon="3.80647">
        <ele>123.63</ele>
        <time>2020-11-08T10:29:49.000Z</time>
      </trkpt>
      <trkpt lat="50.49075" lon="3.80637">
        <ele>123.49</ele>
        <time>2020-11-08T10:29:50.000Z</time>
      </trkpt>
      <trkpt lat="50.49076" lon="3.80627">
        <ele>122.53</ele>
        <time>2020-11-08T10:29:51.000Z</time>
      </trkpt>
      <trkpt lat="50.49077" lon="3.80615">
        <ele>122.97</ele>
        <time>2020-11-08T10:29:52.000Z</time>
      </trkpt>
      <trkpt lat="50.49077" lon="3.80604">
        <ele>123.92</ele>
        <time>2020-11-08T10:29:53.000Z</time>
      </trkpt>
      <trkpt lat="50.49077" lon="3.80596">
        <ele>124.58</ele>
        <time>2020-11-08T10:29:54.000Z</time>
      </trkpt>
      <trkpt lat="50.49076" lon="3.80588">
        <ele>125.34</ele>
        <time>2020-11-08T10:29:55.000Z</time>
      </trkpt>
      <trkpt lat="50.49077" lon="3.80578">
        <ele>124.24</ele>
        <time>2020-11-08T10:29:57.000Z</time>
      </trkpt>
      <trkpt lat="50.49077" lon="3.80578">
        <ele>124.24</ele>
        <time>2020-11-08T10:29:57.001Z</time>
      </trkpt>
      <trkpt lat="50.49079" lon="3.80571">
        <ele>124.71</ele>
        <time>2020-11-08T10:32:10.000Z</time>
      </trkpt>
      <trkpt lat="50.4908" lon="3.80563">
        <ele>124.46</ele>
        <time>2020-11-08T10:32:13.000Z</time>
      </trkpt>
      <trkpt lat="50.4908" lon="3.80555">
        <ele>121.46</ele>
        <time>2020-11-08T10:32:15.000Z</time>
      </trkpt>
      <trkpt lat="50.4908" lon="3.80544">
        <ele>125.71</ele>
        <time>2020-11-08T10:32:17.000Z</time>
      </trkpt>
      <trkpt lat="50.4908" lon="3.8053">
        <ele>126.56</ele>
        <time>2020-11-08T10:32:19.000Z</time>
      </trkpt>
      <trkpt lat="50.4908" lon="3.80522">
        <ele>127.76</ele>
        <time>2020-11-08T10:32:20.000Z</time>
      </trkpt>
      <trkpt lat="50.49081" lon="3.80513">
        <ele>128.17</ele>
        <time>2020-11-08T10:32:21.000Z</time>
      </trkpt>
      <trkpt lat="50.49082" lon="3.80504">
        <ele>127.72</ele>
        <time>2020-11-08T10:32:22.000Z</time>
      </trkpt>
      <trkpt lat="50.49082" lon="3.80494">
        <ele>128.06</ele>
        <time>2020-11-08T10:32:23.000Z</time>
      </trkpt>
      <trkpt lat="50.49083" lon="3.80485">
        <ele>127.79</ele>
        <time>2020-11-08T10:32:24.000Z</time>
      </trkpt>
      <trkpt lat="50.49083" lon="3.80476">
        <ele>127.19</ele>
        <time>2020-11-08T10:32:25.000Z</time>
      </trkpt>
      <trkpt lat="50.49084" lon="3.80466">
        <ele>127.09</ele>
        <time>2020-11-08T10:32:26.000Z</time>
      </trkpt>
      <trkpt lat="50.49085" lon="3.80456">
        <ele>126.25</ele>
        <time>2020-11-08T10:32:27.000Z</time>
      </trkpt>
      <trkpt lat="50.49086" lon="3.80447">
        <ele>125.89</ele>
        <time>2020-11-08T10:32:28.000Z</time>
      </trkpt>
      <trkpt lat="50.49086" lon="3.80437">
        <ele>126</ele>
        <time>2020-11-08T10:32:29.000Z</time>
      </trkpt>
      <trkpt lat="50.49087" lon="3.80427">
        <ele>125.06</ele>
        <time>2020-11-08T10:32:30.000Z</time>
      </trkpt>
      <trkpt lat="50.49087" lon="3.80417">
        <ele>125.03</ele>
        <time>2020-11-08T10:32:31.000Z</time>
      </trkpt>
      <trkpt lat="50.49087" lon="3.80406">
        <ele>124.85</ele>
        <time>2020-11-08T10:32:32.000Z</time>
      </trkpt>
      <trkpt lat="50.49087" lon="3.80395">
        <ele>123.9</ele>
        <time>2020-11-08T10:32:33.000Z</time>
      </trkpt>
      <trkpt lat="50.49088" lon="3.80384">
        <ele>123.39</ele>
        <time>2020-11-08T10:32:34.000Z</time>
      </trkpt>
      <trkpt lat="50.49088" lon="3.80372">
        <ele>123.44</ele>
        <time>2020-11-08T10:32:35.000Z</time>
      </trkpt>
      <trkpt lat="50.49088" lon="3.80361">
        <ele>123.14</ele>
        <time>2020-11-08T10:32:36.000Z</time>
      </trkpt>
      <trkpt lat="50.49089" lon="3.80351">
        <ele>123.3</ele>
        <time>2020-11-08T10:32:37.000Z</time>
      </trkpt>
      <trkpt lat="50.49089" lon="3.8034">
        <ele>123.31</ele>
        <time>2020-11-08T10:32:38.000Z</time>
      </trkpt>
      <trkpt lat="50.49089" lon="3.8033">
        <ele>123.38</ele>
        <time>2020-11-08T10:32:39.000Z</time>
      </trkpt>
      <trkpt lat="50.4909" lon="3.80319">
        <ele>123.59</ele>
        <time>2020-11-08T10:32:40.000Z</time>
      </trkpt>
      <trkpt lat="50.4909" lon="3.80307">
        <ele>118.57</ele>
        <time>2020-11-08T10:32:41.000Z</time>
      </trkpt>
      <trkpt lat="50.49091" lon="3.80296">
        <ele>120.11</ele>
        <time>2020-11-08T10:32:42.000Z</time>
      </trkpt>
      <trkpt lat="50.49091" lon="3.80286">
        <ele>120.43</ele>
        <time>2020-11-08T10:32:43.000Z</time>
      </trkpt>
      <trkpt lat="50.49092" lon="3.80275">
        <ele>120.95</ele>
        <time>2020-11-08T10:32:44.000Z</time>
      </trkpt>
      <trkpt lat="50.49092" lon="3.80265">
        <ele>121.43</ele>
        <time>2020-11-08T10:32:45.000Z</time>
      </trkpt>
      <trkpt lat="50.49093" lon="3.80255">
        <ele>121.96</ele>
        <time>2020-11-08T10:32:46.000Z</time>
      </trkpt>
      <trkpt lat="50.49093" lon="3.80244">
        <ele>122.04</ele>
        <time>2020-11-08T10:32:47.000Z</time>
      </trkpt>
      <trkpt lat="50.49094" lon="3.80236">
        <ele>121.21</ele>
        <time>2020-11-08T10:32:48.000Z</time>
      </trkpt>
      <trkpt lat="50.49093" lon="3.80227">
        <ele>120.78</ele>
        <time>2020-11-08T10:32:49.000Z</time>
      </trkpt>
      <trkpt lat="50.49092" lon="3.80218">
        <ele>120.76</ele>
        <time>2020-11-08T10:32:51.000Z</time>
      </trkpt>
      <trkpt lat="50.49092" lon="3.8021">
        <ele>120.47</ele>
        <time>2020-11-08T10:32:53.000Z</time>
      </trkpt>
      <trkpt lat="50.49095" lon="3.80198">
        <ele>119.82</ele>
        <time>2020-11-08T10:32:55.000Z</time>
      </trkpt>
      <trkpt lat="50.49097" lon="3.8019">
        <ele>119.85</ele>
        <time>2020-11-08T10:32:56.000Z</time>
      </trkpt>
      <trkpt lat="50.49099" lon="3.80182">
        <ele>120.03</ele>
        <time>2020-11-08T10:32:57.000Z</time>
      </trkpt>
      <trkpt lat="50.491" lon="3.80172">
        <ele>119.87</ele>
        <time>2020-11-08T10:32:58.000Z</time>
      </trkpt>
      <trkpt lat="50.49102" lon="3.80163">
        <ele>120.29</ele>
        <time>2020-11-08T10:32:59.000Z</time>
      </trkpt>
      <trkpt lat="50.49104" lon="3.80153">
        <ele>119.59</ele>
        <time>2020-11-08T10:33:00.000Z</time>
      </trkpt>
      <trkpt lat="50.49106" lon="3.80144">
        <ele>119.28</ele>
        <time>2020-11-08T10:33:01.000Z</time>
      </trkpt>
      <trkpt lat="50.49108" lon="3.80134">
        <ele>118.71</ele>
        <time>2020-11-08T10:33:02.000Z</time>
      </trkpt>
      <trkpt lat="50.49111" lon="3.80125">
        <ele>118.25</ele>
        <time>2020-11-08T10:33:03.000Z</time>
      </trkpt>
      <trkpt lat="50.49114" lon="3.80117">
        <ele>117.88</ele>
        <time>2020-11-08T10:33:04.000Z</time>
      </trkpt>
      <trkpt lat="50.49117" lon="3.80108">
        <ele>117.56</ele>
        <time>2020-11-08T10:33:05.000Z</time>
      </trkpt>
      <trkpt lat="50.49118" lon="3.80097">
        <ele>117.74</ele>
        <time>2020-11-08T10:33:06.000Z</time>
      </trkpt>
      <trkpt lat="50.49117" lon="3.80087">
        <ele>117.62</ele>
        <time>2020-11-08T10:33:07.000Z</time>
      </trkpt>
      <trkpt lat="50.49116" lon="3.80077">
        <ele>117.54</ele>
        <time>2020-11-08T10:33:08.000Z</time>
      </trkpt>
      <trkpt lat="50.49113" lon="3.80068">
        <ele>117.31</ele>
        <time>2020-11-08T10:33:09.000Z</time>
      </trkpt>
      <trkpt lat="50.4911" lon="3.80059">
        <ele>117.03</ele>
        <time>2020-11-08T10:33:10.000Z</time>
      </trkpt>
      <trkpt lat="50.49106" lon="3.8005">
        <ele>119.39</ele>
        <time>2020-11-08T10:33:11.000Z</time>
      </trkpt>
      <trkpt lat="50.49103" lon="3.80041">
        <ele>118.15</ele>
        <time>2020-11-08T10:33:12.000Z</time>
      </trkpt>
      <trkpt lat="50.491" lon="3.80032">
        <ele>117.39</ele>
        <time>2020-11-08T10:33:13.000Z</time>
      </trkpt>
      <trkpt lat="50.49096" lon="3.80023">
        <ele>117.09</ele>
        <time>2020-11-08T10:33:14.000Z</time>
      </trkpt>
      <trkpt lat="50.49092" lon="3.80014">
        <ele>116.42</ele>
        <time>2020-11-08T10:33:15.000Z</time>
      </trkpt>
      <trkpt lat="50.49088" lon="3.80006">
        <ele>115.94</ele>
        <time>2020-11-08T10:33:16.000Z</time>
      </trkpt>
      <trkpt lat="50.49085" lon="3.79997">
        <ele>115.73</ele>
        <time>2020-11-08T10:33:17.000Z</time>
      </trkpt>
      <trkpt lat="50.49081" lon="3.79988">
        <ele>115.48</ele>
        <time>2020-11-08T10:33:18.000Z</time>
      </trkpt>
      <trkpt lat="50.49078" lon="3.7998">
        <ele>115.32</ele>
        <time>2020-11-08T10:33:19.000Z</time>
      </trkpt>
      <trkpt lat="50.49075" lon="3.79971">
        <ele>115.08</ele>
        <time>2020-11-08T10:33:20.000Z</time>
      </trkpt>
      <trkpt lat="50.49071" lon="3.79963">
        <ele>115</ele>
        <time>2020-11-08T10:33:21.000Z</time>
      </trkpt>
      <trkpt lat="50.49068" lon="3.79955">
        <ele>114.98</ele>
        <time>2020-11-08T10:33:22.000Z</time>
      </trkpt>
      <trkpt lat="50.49064" lon="3.79946">
        <ele>114.97</ele>
        <time>2020-11-08T10:33:23.000Z</time>
      </trkpt>
      <trkpt lat="50.4906" lon="3.79938">
        <ele>114.92</ele>
        <time>2020-11-08T10:33:24.000Z</time>
      </trkpt>
      <trkpt lat="50.49056" lon="3.79929">
        <ele>114.61</ele>
        <time>2020-11-08T10:33:25.000Z</time>
      </trkpt>
      <trkpt lat="50.49052" lon="3.79921">
        <ele>114.28</ele>
        <time>2020-11-08T10:33:26.000Z</time>
      </trkpt>
      <trkpt lat="50.49048" lon="3.79913">
        <ele>114.19</ele>
        <time>2020-11-08T10:33:27.000Z</time>
      </trkpt>
      <trkpt lat="50.49043" lon="3.79905">
        <ele>113.87</ele>
        <time>2020-11-08T10:33:28.000Z</time>
      </trkpt>
      <trkpt lat="50.49039" lon="3.79898">
        <ele>113.68</ele>
        <time>2020-11-08T10:33:29.000Z</time>
      </trkpt>
      <trkpt lat="50.49034" lon="3.79891">
        <ele>112.96</ele>
        <time>2020-11-08T10:33:30.000Z</time>
      </trkpt>
      <trkpt lat="50.49029" lon="3.79883">
        <ele>112.94</ele>
        <time>2020-11-08T10:33:31.000Z</time>
      </trkpt>
      <trkpt lat="50.49025" lon="3.79877">
        <ele>112.69</ele>
        <time>2020-11-08T10:33:32.000Z</time>
      </trkpt>
      <trkpt lat="50.4902" lon="3.7987">
        <ele>112.62</ele>
        <time>2020-11-08T10:33:33.000Z</time>
      </trkpt>
      <trkpt lat="50.49015" lon="3.79864">
        <ele>112.71</ele>
        <time>2020-11-08T10:33:34.000Z</time>
      </trkpt>
      <trkpt lat="50.4901" lon="3.79858">
        <ele>109.86</ele>
        <time>2020-11-08T10:33:35.000Z</time>
      </trkpt>
      <trkpt lat="50.49005" lon="3.79853">
        <ele>110.96</ele>
        <time>2020-11-08T10:33:36.000Z</time>
      </trkpt>
      <trkpt lat="50.49" lon="3.79848">
        <ele>111.62</ele>
        <time>2020-11-08T10:33:37.000Z</time>
      </trkpt>
      <trkpt lat="50.48998" lon="3.79842">
        <ele>109.52</ele>
        <time>2020-11-08T10:33:38.000Z</time>
      </trkpt>
      <trkpt lat="50.48999" lon="3.79835">
        <ele>110.29</ele>
        <time>2020-11-08T10:33:39.000Z</time>
      </trkpt>
      <trkpt lat="50.49002" lon="3.79829">
        <ele>115.43</ele>
        <time>2020-11-08T10:33:40.000Z</time>
      </trkpt>
      <trkpt lat="50.49006" lon="3.79824">
        <ele>114.09</ele>
        <time>2020-11-08T10:33:41.000Z</time>
      </trkpt>
      <trkpt lat="50.49012" lon="3.79821">
        <ele>113.26</ele>
        <time>2020-11-08T10:33:42.000Z</time>
      </trkpt>
      <trkpt lat="50.49018" lon="3.79817">
        <ele>113.07</ele>
        <time>2020-11-08T10:33:43.000Z</time>
      </trkpt>
      <trkpt lat="50.49024" lon="3.79814">
        <ele>112.99</ele>
        <time>2020-11-08T10:33:44.000Z</time>
      </trkpt>
      <trkpt lat="50.4903" lon="3.79811">
        <ele>112.94</ele>
        <time>2020-11-08T10:33:45.000Z</time>
      </trkpt>
      <trkpt lat="50.49036" lon="3.79808">
        <ele>112.68</ele>
        <time>2020-11-08T10:33:46.000Z</time>
      </trkpt>
      <trkpt lat="50.49042" lon="3.79804">
        <ele>112.41</ele>
        <time>2020-11-08T10:33:47.000Z</time>
      </trkpt>
      <trkpt lat="50.49048" lon="3.79801">
        <ele>112.32</ele>
        <time>2020-11-08T10:33:48.000Z</time>
      </trkpt>
      <trkpt lat="50.49054" lon="3.79798">
        <ele>114.99</ele>
        <time>2020-11-08T10:33:49.000Z</time>
      </trkpt>
      <trkpt lat="50.4906" lon="3.79795">
        <ele>108.84</ele>
        <time>2020-11-08T10:33:50.000Z</time>
      </trkpt>
      <trkpt lat="50.49066" lon="3.79792">
        <ele>109.74</ele>
        <time>2020-11-08T10:33:51.000Z</time>
      </trkpt>
      <trkpt lat="50.49073" lon="3.79789">
        <ele>110.36</ele>
        <time>2020-11-08T10:33:52.000Z</time>
      </trkpt>
      <trkpt lat="50.49079" lon="3.79786">
        <ele>110.62</ele>
        <time>2020-11-08T10:33:53.000Z</time>
      </trkpt>
      <trkpt lat="50.49085" lon="3.79782">
        <ele>110.65</ele>
        <time>2020-11-08T10:33:54.000Z</time>
      </trkpt>
      <trkpt lat="50.49091" lon="3.79778">
        <ele>110.78</ele>
        <time>2020-11-08T10:33:55.000Z</time>
      </trkpt>
      <trkpt lat="50.49097" lon="3.79775">
        <ele>110.76</ele>
        <time>2020-11-08T10:33:56.000Z</time>
      </trkpt>
      <trkpt lat="50.49103" lon="3.79771">
        <ele>110.92</ele>
        <time>2020-11-08T10:33:57.000Z</time>
      </trkpt>
      <trkpt lat="50.49109" lon="3.79767">
        <ele>110.69</ele>
        <time>2020-11-08T10:33:58.000Z</time>
      </trkpt>
      <trkpt lat="50.49116" lon="3.79763">
        <ele>110.7</ele>
        <time>2020-11-08T10:33:59.000Z</time>
      </trkpt>
      <trkpt lat="50.49122" lon="3.79758">
        <ele>109.02</ele>
        <time>2020-11-08T10:34:00.000Z</time>
      </trkpt>
      <trkpt lat="50.49129" lon="3.79754">
        <ele>110.16</ele>
        <time>2020-11-08T10:34:01.000Z</time>
      </trkpt>
      <trkpt lat="50.49134" lon="3.79751">
        <ele>110.89</ele>
        <time>2020-11-08T10:34:02.000Z</time>
      </trkpt>
      <trkpt lat="50.49138" lon="3.79748">
        <ele>112.32</ele>
        <time>2020-11-08T10:34:03.000Z</time>
      </trkpt>
      <trkpt lat="50.49144" lon="3.79745">
        <ele>112.95</ele>
        <time>2020-11-08T10:34:04.000Z</time>
      </trkpt>
      <trkpt lat="50.49149" lon="3.79743">
        <ele>113.68</ele>
        <time>2020-11-08T10:34:05.000Z</time>
      </trkpt>
      <trkpt lat="50.49154" lon="3.7974">
        <ele>114.35</ele>
        <time>2020-11-08T10:34:06.000Z</time>
      </trkpt>
      <trkpt lat="50.4916" lon="3.79736">
        <ele>114.81</ele>
        <time>2020-11-08T10:34:07.000Z</time>
      </trkpt>
      <trkpt lat="50.49165" lon="3.79732">
        <ele>114.72</ele>
        <time>2020-11-08T10:34:08.000Z</time>
      </trkpt>
      <trkpt lat="50.49171" lon="3.79729">
        <ele>115.25</ele>
        <time>2020-11-08T10:34:09.000Z</time>
      </trkpt>
      <trkpt lat="50.49177" lon="3.79726">
        <ele>115.3</ele>
        <time>2020-11-08T10:34:10.000Z</time>
      </trkpt>
      <trkpt lat="50.49182" lon="3.79723">
        <ele>115.75</ele>
        <time>2020-11-08T10:34:11.000Z</time>
      </trkpt>
      <trkpt lat="50.49188" lon="3.7972">
        <ele>115.63</ele>
        <time>2020-11-08T10:34:12.000Z</time>
      </trkpt>
      <trkpt lat="50.49193" lon="3.79715">
        <ele>116.44</ele>
        <time>2020-11-08T10:34:13.000Z</time>
      </trkpt>
      <trkpt lat="50.49199" lon="3.79712">
        <ele>116.02</ele>
        <time>2020-11-08T10:34:14.000Z</time>
      </trkpt>
      <trkpt lat="50.49204" lon="3.79709">
        <ele>115.99</ele>
        <time>2020-11-08T10:34:15.000Z</time>
      </trkpt>
      <trkpt lat="50.49209" lon="3.79706">
        <ele>116.15</ele>
        <time>2020-11-08T10:34:16.000Z</time>
      </trkpt>
      <trkpt lat="50.49214" lon="3.79702">
        <ele>116.75</ele>
        <time>2020-11-08T10:34:17.000Z</time>
      </trkpt>
      <trkpt lat="50.49219" lon="3.79699">
        <ele>116.59</ele>
        <time>2020-11-08T10:34:18.000Z</time>
      </trkpt>
      <trkpt lat="50.49225" lon="3.79697">
        <ele>116.93</ele>
        <time>2020-11-08T10:34:19.000Z</time>
      </trkpt>
      <trkpt lat="50.4923" lon="3.79694">
        <ele>117.05</ele>
        <time>2020-11-08T10:34:20.000Z</time>
      </trkpt>
      <trkpt lat="50.49236" lon="3.79693">
        <ele>117.35</ele>
        <time>2020-11-08T10:34:21.000Z</time>
      </trkpt>
      <trkpt lat="50.49241" lon="3.79691">
        <ele>117.3</ele>
        <time>2020-11-08T10:34:22.000Z</time>
      </trkpt>
      <trkpt lat="50.49249" lon="3.79689">
        <ele>116.78</ele>
        <time>2020-11-08T10:34:24.000Z</time>
      </trkpt>
      <trkpt lat="50.49254" lon="3.79685">
        <ele>117.99</ele>
        <time>2020-11-08T10:34:25.000Z</time>
      </trkpt>
      <trkpt lat="50.4926" lon="3.79678">
        <ele>115.18</ele>
        <time>2020-11-08T10:34:27.000Z</time>
      </trkpt>
      <trkpt lat="50.49266" lon="3.79668">
        <ele>117.92</ele>
        <time>2020-11-08T10:34:29.000Z</time>
      </trkpt>
      <trkpt lat="50.49269" lon="3.79662">
        <ele>118.84</ele>
        <time>2020-11-08T10:34:30.000Z</time>
      </trkpt>
      <trkpt lat="50.49272" lon="3.79656">
        <ele>119.16</ele>
        <time>2020-11-08T10:34:31.000Z</time>
      </trkpt>
      <trkpt lat="50.49276" lon="3.79651">
        <ele>118.52</ele>
        <time>2020-11-08T10:34:32.000Z</time>
      </trkpt>
      <trkpt lat="50.49281" lon="3.79645">
        <ele>118.46</ele>
        <time>2020-11-08T10:34:33.000Z</time>
      </trkpt>
      <trkpt lat="50.49286" lon="3.79638">
        <ele>118.48</ele>
        <time>2020-11-08T10:34:34.000Z</time>
      </trkpt>
      <trkpt lat="50.49291" lon="3.79632">
        <ele>118.33</ele>
        <time>2020-11-08T10:34:35.000Z</time>
      </trkpt>
      <trkpt lat="50.49296" lon="3.79625">
        <ele>117.82</ele>
        <time>2020-11-08T10:34:36.000Z</time>
      </trkpt>
      <trkpt lat="50.49301" lon="3.79618">
        <ele>117.72</ele>
        <time>2020-11-08T10:34:37.000Z</time>
      </trkpt>
      <trkpt lat="50.49306" lon="3.7961">
        <ele>117.31</ele>
        <time>2020-11-08T10:34:38.000Z</time>
      </trkpt>
      <trkpt lat="50.49309" lon="3.79602">
        <ele>117.18</ele>
        <time>2020-11-08T10:34:39.000Z</time>
      </trkpt>
      <trkpt lat="50.49312" lon="3.79592">
        <ele>117.36</ele>
        <time>2020-11-08T10:34:40.000Z</time>
      </trkpt>
      <trkpt lat="50.49314" lon="3.79583">
        <ele>117.23</ele>
        <time>2020-11-08T10:34:41.000Z</time>
      </trkpt>
      <trkpt lat="50.49315" lon="3.79574">
        <ele>116.56</ele>
        <time>2020-11-08T10:34:42.000Z</time>
      </trkpt>
      <trkpt lat="50.49315" lon="3.79565">
        <ele>116.44</ele>
        <time>2020-11-08T10:34:43.000Z</time>
      </trkpt>
      <trkpt lat="50.49316" lon="3.79556">
        <ele>116.56</ele>
        <time>2020-11-08T10:34:44.000Z</time>
      </trkpt>
      <trkpt lat="50.49316" lon="3.79547">
        <ele>116.45</ele>
        <time>2020-11-08T10:34:45.000Z</time>
      </trkpt>
      <trkpt lat="50.49316" lon="3.79538">
        <ele>116.52</ele>
        <time>2020-11-08T10:34:46.000Z</time>
      </trkpt>
      <trkpt lat="50.49317" lon="3.79529">
        <ele>116.76</ele>
        <time>2020-11-08T10:34:47.000Z</time>
      </trkpt>
      <trkpt lat="50.49317" lon="3.79519">
        <ele>116.56</ele>
        <time>2020-11-08T10:34:48.000Z</time>
      </trkpt>
      <trkpt lat="50.49317" lon="3.79511">
        <ele>116.86</ele>
        <time>2020-11-08T10:34:49.000Z</time>
      </trkpt>
      <trkpt lat="50.49317" lon="3.79501">
        <ele>113.22</ele>
        <time>2020-11-08T10:34:50.000Z</time>
      </trkpt>
      <trkpt lat="50.49317" lon="3.79492">
        <ele>114.87</ele>
        <time>2020-11-08T10:34:51.000Z</time>
      </trkpt>
      <trkpt lat="50.49317" lon="3.79483">
        <ele>115.7</ele>
        <time>2020-11-08T10:34:52.000Z</time>
      </trkpt>
      <trkpt lat="50.49318" lon="3.79474">
        <ele>115.89</ele>
        <time>2020-11-08T10:34:53.000Z</time>
      </trkpt>
      <trkpt lat="50.49318" lon="3.79465">
        <ele>116.12</ele>
        <time>2020-11-08T10:34:54.000Z</time>
      </trkpt>
      <trkpt lat="50.49318" lon="3.79456">
        <ele>116.38</ele>
        <time>2020-11-08T10:34:55.000Z</time>
      </trkpt>
      <trkpt lat="50.49318" lon="3.79446">
        <ele>116.6</ele>
        <time>2020-11-08T10:34:56.000Z</time>
      </trkpt>
      <trkpt lat="50.49317" lon="3.79436">
        <ele>116.71</ele>
        <time>2020-11-08T10:34:57.000Z</time>
      </trkpt>
      <trkpt lat="50.49316" lon="3.79426">
        <ele>116.42</ele>
        <time>2020-11-08T10:34:58.000Z</time>
      </trkpt>
      <trkpt lat="50.49316" lon="3.79416">
        <ele>116.28</ele>
        <time>2020-11-08T10:34:59.000Z</time>
      </trkpt>
      <trkpt lat="50.49315" lon="3.79406">
        <ele>116.32</ele>
        <time>2020-11-08T10:35:00.000Z</time>
      </trkpt>
      <trkpt lat="50.49314" lon="3.79396">
        <ele>116.39</ele>
        <time>2020-11-08T10:35:01.000Z</time>
      </trkpt>
      <trkpt lat="50.49313" lon="3.79386">
        <ele>116.66</ele>
        <time>2020-11-08T10:35:02.000Z</time>
      </trkpt>
      <trkpt lat="50.49313" lon="3.79376">
        <ele>116.45</ele>
        <time>2020-11-08T10:35:03.000Z</time>
      </trkpt>
      <trkpt lat="50.49312" lon="3.79367">
        <ele>116.5</ele>
        <time>2020-11-08T10:35:04.000Z</time>
      </trkpt>
      <trkpt lat="50.49311" lon="3.79357">
        <ele>116.56</ele>
        <time>2020-11-08T10:35:05.000Z</time>
      </trkpt>
      <trkpt lat="50.4931" lon="3.79348">
        <ele>116.19</ele>
        <time>2020-11-08T10:35:06.000Z</time>
      </trkpt>
      <trkpt lat="50.49309" lon="3.79339">
        <ele>116.19</ele>
        <time>2020-11-08T10:35:07.000Z</time>
      </trkpt>
      <trkpt lat="50.49309" lon="3.79329">
        <ele>116.15</ele>
        <time>2020-11-08T10:35:08.000Z</time>
      </trkpt>
      <trkpt lat="50.49308" lon="3.79319">
        <ele>116.17</ele>
        <time>2020-11-08T10:35:09.000Z</time>
      </trkpt>
      <trkpt lat="50.49307" lon="3.7931">
        <ele>116.06</ele>
        <time>2020-11-08T10:35:10.000Z</time>
      </trkpt>
      <trkpt lat="50.49306" lon="3.793">
        <ele>116.35</ele>
        <time>2020-11-08T10:35:11.000Z</time>
      </trkpt>
      <trkpt lat="50.49305" lon="3.7929">
        <ele>116.55</ele>
        <time>2020-11-08T10:35:12.000Z</time>
      </trkpt>
      <trkpt lat="50.49304" lon="3.79281">
        <ele>116.73</ele>
        <time>2020-11-08T10:35:13.000Z</time>
      </trkpt>
      <trkpt lat="50.49302" lon="3.7927">
        <ele>116.71</ele>
        <time>2020-11-08T10:35:14.000Z</time>
      </trkpt>
      <trkpt lat="50.49301" lon="3.79261">
        <ele>116.58</ele>
        <time>2020-11-08T10:35:15.000Z</time>
      </trkpt>
      <trkpt lat="50.493" lon="3.79251">
        <ele>116.75</ele>
        <time>2020-11-08T10:35:16.000Z</time>
      </trkpt>
      <trkpt lat="50.49299" lon="3.79242">
        <ele>117.38</ele>
        <time>2020-11-08T10:35:17.000Z</time>
      </trkpt>
      <trkpt lat="50.49297" lon="3.79232">
        <ele>117.29</ele>
        <time>2020-11-08T10:35:18.000Z</time>
      </trkpt>
      <trkpt lat="50.49296" lon="3.79223">
        <ele>117.17</ele>
        <time>2020-11-08T10:35:19.000Z</time>
      </trkpt>
      <trkpt lat="50.49295" lon="3.79214">
        <ele>117.06</ele>
        <time>2020-11-08T10:35:20.000Z</time>
      </trkpt>
      <trkpt lat="50.49294" lon="3.79204">
        <ele>117.13</ele>
        <time>2020-11-08T10:35:21.000Z</time>
      </trkpt>
      <trkpt lat="50.49293" lon="3.79194">
        <ele>116.66</ele>
        <time>2020-11-08T10:35:22.000Z</time>
      </trkpt>
      <trkpt lat="50.49292" lon="3.79184">
        <ele>116.78</ele>
        <time>2020-11-08T10:35:23.000Z</time>
      </trkpt>
      <trkpt lat="50.49291" lon="3.79174">
        <ele>116.88</ele>
        <time>2020-11-08T10:35:24.000Z</time>
      </trkpt>
      <trkpt lat="50.49289" lon="3.79164">
        <ele>116.86</ele>
        <time>2020-11-08T10:35:25.000Z</time>
      </trkpt>
      <trkpt lat="50.49288" lon="3.79154">
        <ele>116.89</ele>
        <time>2020-11-08T10:35:26.000Z</time>
      </trkpt>
      <trkpt lat="50.49287" lon="3.79145">
        <ele>116.92</ele>
        <time>2020-11-08T10:35:27.000Z</time>
      </trkpt>
      <trkpt lat="50.49285" lon="3.79136">
        <ele>116.26</ele>
        <time>2020-11-08T10:35:28.000Z</time>
      </trkpt>
      <trkpt lat="50.49284" lon="3.79126">
        <ele>116.02</ele>
        <time>2020-11-08T10:35:29.000Z</time>
      </trkpt>
      <trkpt lat="50.49283" lon="3.79117">
        <ele>115.87</ele>
        <time>2020-11-08T10:35:30.000Z</time>
      </trkpt>
      <trkpt lat="50.49282" lon="3.79107">
        <ele>116.07</ele>
        <time>2020-11-08T10:35:31.000Z</time>
      </trkpt>
      <trkpt lat="50.49281" lon="3.79097">
        <ele>116.13</ele>
        <time>2020-11-08T10:35:32.000Z</time>
      </trkpt>
      <trkpt lat="50.4928" lon="3.79086">
        <ele>116.74</ele>
        <time>2020-11-08T10:35:33.000Z</time>
      </trkpt>
      <trkpt lat="50.49279" lon="3.79076">
        <ele>116.94</ele>
        <time>2020-11-08T10:35:34.000Z</time>
      </trkpt>
      <trkpt lat="50.49277" lon="3.79066">
        <ele>117.18</ele>
        <time>2020-11-08T10:35:35.000Z</time>
      </trkpt>
      <trkpt lat="50.49276" lon="3.79056">
        <ele>116.93</ele>
        <time>2020-11-08T10:35:36.000Z</time>
      </trkpt>
      <trkpt lat="50.49275" lon="3.79046">
        <ele>117.09</ele>
        <time>2020-11-08T10:35:37.000Z</time>
      </trkpt>
      <trkpt lat="50.49273" lon="3.79036">
        <ele>117.01</ele>
        <time>2020-11-08T10:35:38.000Z</time>
      </trkpt>
      <trkpt lat="50.49273" lon="3.79025">
        <ele>116.79</ele>
        <time>2020-11-08T10:35:39.000Z</time>
      </trkpt>
      <trkpt lat="50.49272" lon="3.79015">
        <ele>116.86</ele>
        <time>2020-11-08T10:35:40.000Z</time>
      </trkpt>
      <trkpt lat="50.49272" lon="3.79005">
        <ele>117.15</ele>
        <time>2020-11-08T10:35:41.000Z</time>
      </trkpt>
      <trkpt lat="50.49272" lon="3.78994">
        <ele>117.1</ele>
        <time>2020-11-08T10:35:42.000Z</time>
      </trkpt>
      <trkpt lat="50.49272" lon="3.78984">
        <ele>116.99</ele>
        <time>2020-11-08T10:35:43.000Z</time>
      </trkpt>
      <trkpt lat="50.49273" lon="3.78974">
        <ele>117.22</ele>
        <time>2020-11-08T10:35:44.000Z</time>
      </trkpt>
      <trkpt lat="50.49274" lon="3.78964">
        <ele>116.9</ele>
        <time>2020-11-08T10:35:45.000Z</time>
      </trkpt>
      <trkpt lat="50.49275" lon="3.78956">
        <ele>117.04</ele>
        <time>2020-11-08T10:35:46.000Z</time>
      </trkpt>
      <trkpt lat="50.49276" lon="3.78947">
        <ele>117.18</ele>
        <time>2020-11-08T10:35:47.000Z</time>
      </trkpt>
      <trkpt lat="50.49277" lon="3.78939">
        <ele>117.17</ele>
        <time>2020-11-08T10:35:48.000Z</time>
      </trkpt>
      <trkpt lat="50.49274" lon="3.78928">
        <ele>116.9</ele>
        <time>2020-11-08T10:35:50.000Z</time>
      </trkpt>
      <trkpt lat="50.49268" lon="3.78927">
        <ele>116.58</ele>
        <time>2020-11-08T10:35:52.000Z</time>
      </trkpt>
      <trkpt lat="50.49259" lon="3.78926">
        <ele>116.18</ele>
        <time>2020-11-08T10:35:54.000Z</time>
      </trkpt>
      <trkpt lat="50.49255" lon="3.78926">
        <ele>118.25</ele>
        <time>2020-11-08T10:35:55.000Z</time>
      </trkpt>
      <trkpt lat="50.49249" lon="3.78926">
        <ele>117.24</ele>
        <time>2020-11-08T10:35:56.000Z</time>
      </trkpt>
      <trkpt lat="50.49244" lon="3.78926">
        <ele>116.77</ele>
        <time>2020-11-08T10:35:57.000Z</time>
      </trkpt>
      <trkpt lat="50.49238" lon="3.78928">
        <ele>116.09</ele>
        <time>2020-11-08T10:35:58.000Z</time>
      </trkpt>
      <trkpt lat="50.49233" lon="3.78929">
        <ele>115.84</ele>
        <time>2020-11-08T10:35:59.000Z</time>
      </trkpt>
      <trkpt lat="50.49227" lon="3.7893">
        <ele>115.67</ele>
        <time>2020-11-08T10:36:00.000Z</time>
      </trkpt>
      <trkpt lat="50.49221" lon="3.78931">
        <ele>115.48</ele>
        <time>2020-11-08T10:36:01.000Z</time>
      </trkpt>
      <trkpt lat="50.49215" lon="3.78933">
        <ele>115.42</ele>
        <time>2020-11-08T10:36:02.000Z</time>
      </trkpt>
      <trkpt lat="50.49209" lon="3.78934">
        <ele>115.23</ele>
        <time>2020-11-08T10:36:03.000Z</time>
      </trkpt>
      <trkpt lat="50.49203" lon="3.78936">
        <ele>115.33</ele>
        <time>2020-11-08T10:36:04.000Z</time>
      </trkpt>
      <trkpt lat="50.49196" lon="3.78938">
        <ele>115.17</ele>
        <time>2020-11-08T10:36:05.000Z</time>
      </trkpt>
      <trkpt lat="50.4919" lon="3.7894">
        <ele>115.09</ele>
        <time>2020-11-08T10:36:06.000Z</time>
      </trkpt>
      <trkpt lat="50.49184" lon="3.78942">
        <ele>115.02</ele>
        <time>2020-11-08T10:36:07.000Z</time>
      </trkpt>
      <trkpt lat="50.49178" lon="3.78945">
        <ele>117.55</ele>
        <time>2020-11-08T10:36:08.000Z</time>
      </trkpt>
      <trkpt lat="50.49171" lon="3.78948">
        <ele>116.09</ele>
        <time>2020-11-08T10:36:09.000Z</time>
      </trkpt>
      <trkpt lat="50.49165" lon="3.78951">
        <ele>115.45</ele>
        <time>2020-11-08T10:36:10.000Z</time>
      </trkpt>
      <trkpt lat="50.4916" lon="3.78956">
        <ele>114.87</ele>
        <time>2020-11-08T10:36:11.000Z</time>
      </trkpt>
      <trkpt lat="50.49154" lon="3.78961">
        <ele>114.17</ele>
        <time>2020-11-08T10:36:12.000Z</time>
      </trkpt>
      <trkpt lat="50.49148" lon="3.78966">
        <ele>113.6</ele>
        <time>2020-11-08T10:36:13.000Z</time>
      </trkpt>
      <trkpt lat="50.49141" lon="3.7897">
        <ele>113.07</ele>
        <time>2020-11-08T10:36:14.000Z</time>
      </trkpt>
      <trkpt lat="50.49134" lon="3.78973">
        <ele>112.47</ele>
        <time>2020-11-08T10:36:15.000Z</time>
      </trkpt>
      <trkpt lat="50.49127" lon="3.78976">
        <ele>112.79</ele>
        <time>2020-11-08T10:36:16.000Z</time>
      </trkpt>
      <trkpt lat="50.4912" lon="3.78978">
        <ele>112.2</ele>
        <time>2020-11-08T10:36:17.000Z</time>
      </trkpt>
      <trkpt lat="50.49113" lon="3.78981">
        <ele>111.64</ele>
        <time>2020-11-08T10:36:18.000Z</time>
      </trkpt>
      <trkpt lat="50.49105" lon="3.78983">
        <ele>111.11</ele>
        <time>2020-11-08T10:36:19.000Z</time>
      </trkpt>
      <trkpt lat="50.49098" lon="3.78984">
        <ele>110.68</ele>
        <time>2020-11-08T10:36:20.000Z</time>
      </trkpt>
      <trkpt lat="50.4909" lon="3.78986">
        <ele>109.91</ele>
        <time>2020-11-08T10:36:21.000Z</time>
      </trkpt>
      <trkpt lat="50.49083" lon="3.78987">
        <ele>110.14</ele>
        <time>2020-11-08T10:36:22.000Z</time>
      </trkpt>
      <trkpt lat="50.49075" lon="3.78987">
        <ele>109.46</ele>
        <time>2020-11-08T10:36:23.000Z</time>
      </trkpt>
      <trkpt lat="50.49067" lon="3.78987">
        <ele>109.25</ele>
        <time>2020-11-08T10:36:24.000Z</time>
      </trkpt>
      <trkpt lat="50.49059" lon="3.78986">
        <ele>110.09</ele>
        <time>2020-11-08T10:36:25.000Z</time>
      </trkpt>
      <trkpt lat="50.49052" lon="3.78985">
        <ele>110.65</ele>
        <time>2020-11-08T10:36:26.000Z</time>
      </trkpt>
      <trkpt lat="50.49045" lon="3.78984">
        <ele>110.09</ele>
        <time>2020-11-08T10:36:27.000Z</time>
      </trkpt>
      <trkpt lat="50.49039" lon="3.78984">
        <ele>109.46</ele>
        <time>2020-11-08T10:36:28.000Z</time>
      </trkpt>
      <trkpt lat="50.49032" lon="3.78984">
        <ele>109.5</ele>
        <time>2020-11-08T10:36:29.000Z</time>
      </trkpt>
      <trkpt lat="50.49026" lon="3.78983">
        <ele>110</ele>
        <time>2020-11-08T10:36:30.000Z</time>
      </trkpt>
      <trkpt lat="50.49021" lon="3.78982">
        <ele>109.72</ele>
        <time>2020-11-08T10:36:31.000Z</time>
      </trkpt>
      <trkpt lat="50.49015" lon="3.78982">
        <ele>110.28</ele>
        <time>2020-11-08T10:36:32.000Z</time>
      </trkpt>
      <trkpt lat="50.49009" lon="3.78981">
        <ele>110.87</ele>
        <time>2020-11-08T10:36:33.000Z</time>
      </trkpt>
      <trkpt lat="50.49004" lon="3.7898">
        <ele>111.41</ele>
        <time>2020-11-08T10:36:34.000Z</time>
      </trkpt>
      <trkpt lat="50.48999" lon="3.78979">
        <ele>111.13</ele>
        <time>2020-11-08T10:36:35.000Z</time>
      </trkpt>
      <trkpt lat="50.48994" lon="3.78978">
        <ele>111.08</ele>
        <time>2020-11-08T10:36:36.000Z</time>
      </trkpt>
      <trkpt lat="50.48989" lon="3.78977">
        <ele>110.46</ele>
        <time>2020-11-08T10:36:37.000Z</time>
      </trkpt>
      <trkpt lat="50.48983" lon="3.78977">
        <ele>110.25</ele>
        <time>2020-11-08T10:36:38.000Z</time>
      </trkpt>
      <trkpt lat="50.48977" lon="3.78975">
        <ele>110.31</ele>
        <time>2020-11-08T10:36:39.000Z</time>
      </trkpt>
      <trkpt lat="50.48971" lon="3.78974">
        <ele>110.05</ele>
        <time>2020-11-08T10:36:40.000Z</time>
      </trkpt>
      <trkpt lat="50.48965" lon="3.78973">
        <ele>109.64</ele>
        <time>2020-11-08T10:36:41.000Z</time>
      </trkpt>
      <trkpt lat="50.48959" lon="3.78972">
        <ele>109.54</ele>
        <time>2020-11-08T10:36:42.000Z</time>
      </trkpt>
      <trkpt lat="50.48953" lon="3.78973">
        <ele>109.93</ele>
        <time>2020-11-08T10:36:43.000Z</time>
      </trkpt>
      <trkpt lat="50.48947" lon="3.78975">
        <ele>109.59</ele>
        <time>2020-11-08T10:36:44.000Z</time>
      </trkpt>
      <trkpt lat="50.4894" lon="3.78978">
        <ele>109.69</ele>
        <time>2020-11-08T10:36:45.000Z</time>
      </trkpt>
      <trkpt lat="50.48933" lon="3.7898">
        <ele>109.79</ele>
        <time>2020-11-08T10:36:46.000Z</time>
      </trkpt>
      <trkpt lat="50.48927" lon="3.78983">
        <ele>109.82</ele>
        <time>2020-11-08T10:36:47.000Z</time>
      </trkpt>
      <trkpt lat="50.48921" lon="3.78986">
        <ele>109.51</ele>
        <time>2020-11-08T10:36:48.000Z</time>
      </trkpt>
      <trkpt lat="50.48915" lon="3.78989">
        <ele>109.32</ele>
        <time>2020-11-08T10:36:49.000Z</time>
      </trkpt>
      <trkpt lat="50.48909" lon="3.78992">
        <ele>109.29</ele>
        <time>2020-11-08T10:36:50.000Z</time>
      </trkpt>
      <trkpt lat="50.48904" lon="3.78995">
        <ele>108.85</ele>
        <time>2020-11-08T10:36:51.000Z</time>
      </trkpt>
      <trkpt lat="50.48899" lon="3.78998">
        <ele>108.7</ele>
        <time>2020-11-08T10:36:52.000Z</time>
      </trkpt>
      <trkpt lat="50.48894" lon="3.79001">
        <ele>108.73</ele>
        <time>2020-11-08T10:36:53.000Z</time>
      </trkpt>
      <trkpt lat="50.4889" lon="3.79003">
        <ele>108.65</ele>
        <time>2020-11-08T10:36:54.000Z</time>
      </trkpt>
      <trkpt lat="50.48885" lon="3.79">
        <ele>109.27</ele>
        <time>2020-11-08T10:36:55.000Z</time>
      </trkpt>
      <trkpt lat="50.48879" lon="3.79001">
        <ele>108.85</ele>
        <time>2020-11-08T10:36:56.000Z</time>
      </trkpt>
      <trkpt lat="50.48875" lon="3.79005">
        <ele>107.68</ele>
        <time>2020-11-08T10:36:57.000Z</time>
      </trkpt>
      <trkpt lat="50.48869" lon="3.7901">
        <ele>105.11</ele>
        <time>2020-11-08T10:36:58.000Z</time>
      </trkpt>
      <trkpt lat="50.48863" lon="3.79014">
        <ele>105.41</ele>
        <time>2020-11-08T10:36:59.000Z</time>
      </trkpt>
      <trkpt lat="50.48857" lon="3.79015">
        <ele>105.93</ele>
        <time>2020-11-08T10:37:00.000Z</time>
      </trkpt>
      <trkpt lat="50.48849" lon="3.79013">
        <ele>105.98</ele>
        <time>2020-11-08T10:37:01.000Z</time>
      </trkpt>
      <trkpt lat="50.48842" lon="3.79015">
        <ele>105.96</ele>
        <time>2020-11-08T10:37:02.000Z</time>
      </trkpt>
      <trkpt lat="50.48836" lon="3.7902">
        <ele>105.13</ele>
        <time>2020-11-08T10:37:03.000Z</time>
      </trkpt>
      <trkpt lat="50.48831" lon="3.79028">
        <ele>105.22</ele>
        <time>2020-11-08T10:37:04.000Z</time>
      </trkpt>
      <trkpt lat="50.48826" lon="3.79037">
        <ele>104.56</ele>
        <time>2020-11-08T10:37:05.000Z</time>
      </trkpt>
      <trkpt lat="50.4882" lon="3.79046">
        <ele>104.73</ele>
        <time>2020-11-08T10:37:06.000Z</time>
      </trkpt>
      <trkpt lat="50.48814" lon="3.79056">
        <ele>104.6</ele>
        <time>2020-11-08T10:37:07.000Z</time>
      </trkpt>
      <trkpt lat="50.48808" lon="3.79064">
        <ele>104.81</ele>
        <time>2020-11-08T10:37:08.000Z</time>
      </trkpt>
      <trkpt lat="50.48802" lon="3.79073">
        <ele>104.32</ele>
        <time>2020-11-08T10:37:09.000Z</time>
      </trkpt>
      <trkpt lat="50.48797" lon="3.7908">
        <ele>104.5</ele>
        <time>2020-11-08T10:37:10.000Z</time>
      </trkpt>
      <trkpt lat="50.48791" lon="3.79085">
        <ele>104.1</ele>
        <time>2020-11-08T10:37:11.000Z</time>
      </trkpt>
      <trkpt lat="50.48784" lon="3.79087">
        <ele>103.66</ele>
        <time>2020-11-08T10:37:12.000Z</time>
      </trkpt>
      <trkpt lat="50.48778" lon="3.79087">
        <ele>101.82</ele>
        <time>2020-11-08T10:37:13.000Z</time>
      </trkpt>
      <trkpt lat="50.48772" lon="3.79088">
        <ele>102.19</ele>
        <time>2020-11-08T10:37:14.000Z</time>
      </trkpt>
      <trkpt lat="50.48765" lon="3.7909">
        <ele>102.65</ele>
        <time>2020-11-08T10:37:16.000Z</time>
      </trkpt>
      <trkpt lat="50.4876" lon="3.7909">
        <ele>103.05</ele>
        <time>2020-11-08T10:37:18.000Z</time>
      </trkpt>
      <trkpt lat="50.48757" lon="3.79096">
        <ele>102.48</ele>
        <time>2020-11-08T10:37:20.000Z</time>
      </trkpt>
      <trkpt lat="50.48751" lon="3.79105">
        <ele>102.05</ele>
        <time>2020-11-08T10:37:22.000Z</time>
      </trkpt>
      <trkpt lat="50.48745" lon="3.79111">
        <ele>101.95</ele>
        <time>2020-11-08T10:37:24.000Z</time>
      </trkpt>
      <trkpt lat="50.48741" lon="3.79107">
        <ele>102.1</ele>
        <time>2020-11-08T10:37:25.000Z</time>
      </trkpt>
      <trkpt lat="50.48735" lon="3.79097">
        <ele>102.22</ele>
        <time>2020-11-08T10:37:27.000Z</time>
      </trkpt>
      <trkpt lat="50.48729" lon="3.79089">
        <ele>102.89</ele>
        <time>2020-11-08T10:37:29.000Z</time>
      </trkpt>
      <trkpt lat="50.48721" lon="3.79082">
        <ele>102.51</ele>
        <time>2020-11-08T10:37:31.000Z</time>
      </trkpt>
      <trkpt lat="50.48714" lon="3.79077">
        <ele>102.52</ele>
        <time>2020-11-08T10:37:33.000Z</time>
      </trkpt>
      <trkpt lat="50.48706" lon="3.79074">
        <ele>102.67</ele>
        <time>2020-11-08T10:37:35.000Z</time>
      </trkpt>
      <trkpt lat="50.48701" lon="3.7907">
        <ele>102.85</ele>
        <time>2020-11-08T10:37:37.000Z</time>
      </trkpt>
      <trkpt lat="50.48694" lon="3.79069">
        <ele>102.29</ele>
        <time>2020-11-08T10:37:39.000Z</time>
      </trkpt>
      <trkpt lat="50.48688" lon="3.79067">
        <ele>102.49</ele>
        <time>2020-11-08T10:37:41.000Z</time>
      </trkpt>
      <trkpt lat="50.48681" lon="3.79065">
        <ele>102.43</ele>
        <time>2020-11-08T10:37:43.000Z</time>
      </trkpt>
      <trkpt lat="50.48675" lon="3.79064">
        <ele>102.11</ele>
        <time>2020-11-08T10:37:45.000Z</time>
      </trkpt>
      <trkpt lat="50.48668" lon="3.79061">
        <ele>102.6</ele>
        <time>2020-11-08T10:37:47.000Z</time>
      </trkpt>
      <trkpt lat="50.48664" lon="3.7905">
        <ele>102.52</ele>
        <time>2020-11-08T10:37:49.000Z</time>
      </trkpt>
      <trkpt lat="50.48663" lon="3.79042">
        <ele>102.45</ele>
        <time>2020-11-08T10:37:50.000Z</time>
      </trkpt>
      <trkpt lat="50.48663" lon="3.79034">
        <ele>102.47</ele>
        <time>2020-11-08T10:37:51.000Z</time>
      </trkpt>
      <trkpt lat="50.48662" lon="3.79025">
        <ele>102.32</ele>
        <time>2020-11-08T10:37:52.000Z</time>
      </trkpt>
      <trkpt lat="50.48662" lon="3.79017">
        <ele>102.32</ele>
        <time>2020-11-08T10:37:53.000Z</time>
      </trkpt>
      <trkpt lat="50.48662" lon="3.79008">
        <ele>102.04</ele>
        <time>2020-11-08T10:37:54.000Z</time>
      </trkpt>
      <trkpt lat="50.48662" lon="3.78999">
        <ele>102.11</ele>
        <time>2020-11-08T10:37:55.000Z</time>
      </trkpt>
      <trkpt lat="50.48662" lon="3.7899">
        <ele>101.78</ele>
        <time>2020-11-08T10:37:56.000Z</time>
      </trkpt>
      <trkpt lat="50.48666" lon="3.78962">
        <ele>102.12</ele>
        <time>2020-11-08T10:37:59.000Z</time>
      </trkpt>
      <trkpt lat="50.48667" lon="3.78952">
        <ele>101.93</ele>
        <time>2020-11-08T10:38:00.000Z</time>
      </trkpt>
      <trkpt lat="50.48669" lon="3.78943">
        <ele>101.59</ele>
        <time>2020-11-08T10:38:01.000Z</time>
      </trkpt>
      <trkpt lat="50.48671" lon="3.78933">
        <ele>101.42</ele>
        <time>2020-11-08T10:38:02.000Z</time>
      </trkpt>
      <trkpt lat="50.48673" lon="3.78922">
        <ele>101.21</ele>
        <time>2020-11-08T10:38:03.000Z</time>
      </trkpt>
      <trkpt lat="50.48675" lon="3.78912">
        <ele>100.89</ele>
        <time>2020-11-08T10:38:04.000Z</time>
      </trkpt>
      <trkpt lat="50.48678" lon="3.78901">
        <ele>101.32</ele>
        <time>2020-11-08T10:38:05.000Z</time>
      </trkpt>
      <trkpt lat="50.48681" lon="3.78892">
        <ele>101.73</ele>
        <time>2020-11-08T10:38:06.000Z</time>
      </trkpt>
      <trkpt lat="50.48685" lon="3.78882">
        <ele>101.77</ele>
        <time>2020-11-08T10:38:07.000Z</time>
      </trkpt>
      <trkpt lat="50.48689" lon="3.78874">
        <ele>102.2</ele>
        <time>2020-11-08T10:38:08.000Z</time>
      </trkpt>
      <trkpt lat="50.48693" lon="3.78865">
        <ele>102.46</ele>
        <time>2020-11-08T10:38:09.000Z</time>
      </trkpt>
      <trkpt lat="50.48697" lon="3.78857">
        <ele>102.68</ele>
        <time>2020-11-08T10:38:10.000Z</time>
      </trkpt>
      <trkpt lat="50.487" lon="3.78849">
        <ele>102.72</ele>
        <time>2020-11-08T10:38:11.000Z</time>
      </trkpt>
      <trkpt lat="50.48703" lon="3.7884">
        <ele>103.09</ele>
        <time>2020-11-08T10:38:12.000Z</time>
      </trkpt>
      <trkpt lat="50.48707" lon="3.78833">
        <ele>102.93</ele>
        <time>2020-11-08T10:38:13.000Z</time>
      </trkpt>
      <trkpt lat="50.48711" lon="3.78824">
        <ele>103.23</ele>
        <time>2020-11-08T10:38:14.000Z</time>
      </trkpt>
      <trkpt lat="50.48714" lon="3.78816">
        <ele>103.44</ele>
        <time>2020-11-08T10:38:15.000Z</time>
      </trkpt>
      <trkpt lat="50.48718" lon="3.78807">
        <ele>103.89</ele>
        <time>2020-11-08T10:38:16.000Z</time>
      </trkpt>
      <trkpt lat="50.48721" lon="3.78798">
        <ele>103.86</ele>
        <time>2020-11-08T10:38:17.000Z</time>
      </trkpt>
      <trkpt lat="50.48725" lon="3.7879">
        <ele>104.03</ele>
        <time>2020-11-08T10:38:18.000Z</time>
      </trkpt>
      <trkpt lat="50.48728" lon="3.78782">
        <ele>104.15</ele>
        <time>2020-11-08T10:38:19.000Z</time>
      </trkpt>
      <trkpt lat="50.48731" lon="3.78774">
        <ele>104.26</ele>
        <time>2020-11-08T10:38:20.000Z</time>
      </trkpt>
      <trkpt lat="50.48734" lon="3.78766">
        <ele>103.86</ele>
        <time>2020-11-08T10:38:21.000Z</time>
      </trkpt>
      <trkpt lat="50.48737" lon="3.7876">
        <ele>104.12</ele>
        <time>2020-11-08T10:38:22.000Z</time>
      </trkpt>
      <trkpt lat="50.4874" lon="3.78747">
        <ele>103.69</ele>
        <time>2020-11-08T10:38:24.000Z</time>
      </trkpt>
      <trkpt lat="50.48742" lon="3.78741">
        <ele>103.01</ele>
        <time>2020-11-08T10:38:25.000Z</time>
      </trkpt>
      <trkpt lat="50.48745" lon="3.78734">
        <ele>102.97</ele>
        <time>2020-11-08T10:38:26.000Z</time>
      </trkpt>
      <trkpt lat="50.48748" lon="3.78726">
        <ele>103.15</ele>
        <time>2020-11-08T10:38:27.000Z</time>
      </trkpt>
      <trkpt lat="50.4875" lon="3.78719">
        <ele>102.85</ele>
        <time>2020-11-08T10:38:28.000Z</time>
      </trkpt>
      <trkpt lat="50.48753" lon="3.78712">
        <ele>103.5</ele>
        <time>2020-11-08T10:38:29.000Z</time>
      </trkpt>
      <trkpt lat="50.48755" lon="3.78702">
        <ele>103.36</ele>
        <time>2020-11-08T10:38:30.000Z</time>
      </trkpt>
      <trkpt lat="50.48758" lon="3.78694">
        <ele>102.76</ele>
        <time>2020-11-08T10:38:31.000Z</time>
      </trkpt>
      <trkpt lat="50.48761" lon="3.78685">
        <ele>103.12</ele>
        <time>2020-11-08T10:38:32.000Z</time>
      </trkpt>
      <trkpt lat="50.48764" lon="3.78676">
        <ele>103.07</ele>
        <time>2020-11-08T10:38:33.000Z</time>
      </trkpt>
      <trkpt lat="50.48766" lon="3.78667">
        <ele>103.14</ele>
        <time>2020-11-08T10:38:34.000Z</time>
      </trkpt>
      <trkpt lat="50.48767" lon="3.78658">
        <ele>103.23</ele>
        <time>2020-11-08T10:38:35.000Z</time>
      </trkpt>
      <trkpt lat="50.48768" lon="3.78648">
        <ele>103.55</ele>
        <time>2020-11-08T10:38:36.000Z</time>
      </trkpt>
      <trkpt lat="50.48769" lon="3.7864">
        <ele>103.57</ele>
        <time>2020-11-08T10:38:37.000Z</time>
      </trkpt>
      <trkpt lat="50.48771" lon="3.78632">
        <ele>103.2</ele>
        <time>2020-11-08T10:38:38.000Z</time>
      </trkpt>
      <trkpt lat="50.48772" lon="3.78624">
        <ele>102.89</ele>
        <time>2020-11-08T10:38:39.000Z</time>
      </trkpt>
      <trkpt lat="50.48775" lon="3.7861">
        <ele>103.75</ele>
        <time>2020-11-08T10:38:41.000Z</time>
      </trkpt>
      <trkpt lat="50.48776" lon="3.78602">
        <ele>103.3</ele>
        <time>2020-11-08T10:38:42.000Z</time>
      </trkpt>
      <trkpt lat="50.48777" lon="3.78594">
        <ele>103.11</ele>
        <time>2020-11-08T10:38:43.000Z</time>
      </trkpt>
      <trkpt lat="50.48778" lon="3.78586">
        <ele>102.85</ele>
        <time>2020-11-08T10:38:44.000Z</time>
      </trkpt>
      <trkpt lat="50.48779" lon="3.78578">
        <ele>103.03</ele>
        <time>2020-11-08T10:38:45.000Z</time>
      </trkpt>
      <trkpt lat="50.48779" lon="3.7857">
        <ele>103.18</ele>
        <time>2020-11-08T10:38:46.000Z</time>
      </trkpt>
      <trkpt lat="50.48781" lon="3.78559">
        <ele>103.18</ele>
        <time>2020-11-08T10:38:48.000Z</time>
      </trkpt>
      <trkpt lat="50.4878" lon="3.78552">
        <ele>103.37</ele>
        <time>2020-11-08T10:38:50.000Z</time>
      </trkpt>
      <trkpt lat="50.48773" lon="3.78549">
        <ele>103.93</ele>
        <time>2020-11-08T10:38:52.000Z</time>
      </trkpt>
      <trkpt lat="50.48769" lon="3.78552">
        <ele>103.36</ele>
        <time>2020-11-08T10:38:53.000Z</time>
      </trkpt>
      <trkpt lat="50.48763" lon="3.78555">
        <ele>103.27</ele>
        <time>2020-11-08T10:38:54.000Z</time>
      </trkpt>
      <trkpt lat="50.48758" lon="3.78558">
        <ele>103.01</ele>
        <time>2020-11-08T10:38:55.000Z</time>
      </trkpt>
      <trkpt lat="50.48752" lon="3.78562">
        <ele>102.58</ele>
        <time>2020-11-08T10:38:56.000Z</time>
      </trkpt>
      <trkpt lat="50.48746" lon="3.78566">
        <ele>102.7</ele>
        <time>2020-11-08T10:38:57.000Z</time>
      </trkpt>
      <trkpt lat="50.4874" lon="3.7857">
        <ele>103</ele>
        <time>2020-11-08T10:38:58.000Z</time>
      </trkpt>
      <trkpt lat="50.48734" lon="3.78572">
        <ele>103.17</ele>
        <time>2020-11-08T10:38:59.000Z</time>
      </trkpt>
      <trkpt lat="50.48728" lon="3.78576">
        <ele>103.29</ele>
        <time>2020-11-08T10:39:00.000Z</time>
      </trkpt>
      <trkpt lat="50.48721" lon="3.78579">
        <ele>103.41</ele>
        <time>2020-11-08T10:39:01.000Z</time>
      </trkpt>
      <trkpt lat="50.48715" lon="3.78583">
        <ele>103.07</ele>
        <time>2020-11-08T10:39:02.000Z</time>
      </trkpt>
      <trkpt lat="50.48709" lon="3.78587">
        <ele>102.9</ele>
        <time>2020-11-08T10:39:03.000Z</time>
      </trkpt>
      <trkpt lat="50.48702" lon="3.78591">
        <ele>102.84</ele>
        <time>2020-11-08T10:39:04.000Z</time>
      </trkpt>
      <trkpt lat="50.48696" lon="3.78595">
        <ele>102.82</ele>
        <time>2020-11-08T10:39:05.000Z</time>
      </trkpt>
      <trkpt lat="50.48689" lon="3.78598">
        <ele>102.69</ele>
        <time>2020-11-08T10:39:06.000Z</time>
      </trkpt>
      <trkpt lat="50.48683" lon="3.78601">
        <ele>102.23</ele>
        <time>2020-11-08T10:39:07.000Z</time>
      </trkpt>
      <trkpt lat="50.48677" lon="3.78606">
        <ele>101.93</ele>
        <time>2020-11-08T10:39:08.000Z</time>
      </trkpt>
      <trkpt lat="50.48671" lon="3.7861">
        <ele>101.52</ele>
        <time>2020-11-08T10:39:09.000Z</time>
      </trkpt>
      <trkpt lat="50.48665" lon="3.78615">
        <ele>101.83</ele>
        <time>2020-11-08T10:39:10.000Z</time>
      </trkpt>
      <trkpt lat="50.4866" lon="3.78618">
        <ele>101.45</ele>
        <time>2020-11-08T10:39:11.000Z</time>
      </trkpt>
      <trkpt lat="50.48655" lon="3.78619">
        <ele>101.23</ele>
        <time>2020-11-08T10:39:12.000Z</time>
      </trkpt>
      <trkpt lat="50.48651" lon="3.78607">
        <ele>101.56</ele>
        <time>2020-11-08T10:39:14.000Z</time>
      </trkpt>
      <trkpt lat="50.48654" lon="3.78593">
        <ele>101.86</ele>
        <time>2020-11-08T10:39:16.000Z</time>
      </trkpt>
      <trkpt lat="50.48656" lon="3.78585">
        <ele>101.32</ele>
        <time>2020-11-08T10:39:17.000Z</time>
      </trkpt>
      <trkpt lat="50.48657" lon="3.78577">
        <ele>101.48</ele>
        <time>2020-11-08T10:39:18.000Z</time>
      </trkpt>
      <trkpt lat="50.48659" lon="3.78569">
        <ele>101.71</ele>
        <time>2020-11-08T10:39:19.000Z</time>
      </trkpt>
      <trkpt lat="50.48661" lon="3.7856">
        <ele>102.11</ele>
        <time>2020-11-08T10:39:20.000Z</time>
      </trkpt>
      <trkpt lat="50.48663" lon="3.78552">
        <ele>102.35</ele>
        <time>2020-11-08T10:39:21.000Z</time>
      </trkpt>
      <trkpt lat="50.48665" lon="3.78543">
        <ele>102.55</ele>
        <time>2020-11-08T10:39:22.000Z</time>
      </trkpt>
      <trkpt lat="50.48667" lon="3.78534">
        <ele>102.51</ele>
        <time>2020-11-08T10:39:23.000Z</time>
      </trkpt>
      <trkpt lat="50.48669" lon="3.78526">
        <ele>102.63</ele>
        <time>2020-11-08T10:39:24.000Z</time>
      </trkpt>
      <trkpt lat="50.48671" lon="3.78517">
        <ele>102.8</ele>
        <time>2020-11-08T10:39:25.000Z</time>
      </trkpt>
      <trkpt lat="50.48673" lon="3.78508">
        <ele>102.86</ele>
        <time>2020-11-08T10:39:26.000Z</time>
      </trkpt>
      <trkpt lat="50.48675" lon="3.78499">
        <ele>102.9</ele>
        <time>2020-11-08T10:39:27.000Z</time>
      </trkpt>
      <trkpt lat="50.48677" lon="3.7849">
        <ele>102.96</ele>
        <time>2020-11-08T10:39:28.000Z</time>
      </trkpt>
      <trkpt lat="50.48679" lon="3.78481">
        <ele>102.95</ele>
        <time>2020-11-08T10:39:29.000Z</time>
      </trkpt>
      <trkpt lat="50.48682" lon="3.78473">
        <ele>103.1</ele>
        <time>2020-11-08T10:39:30.000Z</time>
      </trkpt>
      <trkpt lat="50.48684" lon="3.78464">
        <ele>102.96</ele>
        <time>2020-11-08T10:39:31.000Z</time>
      </trkpt>
      <trkpt lat="50.48685" lon="3.78455">
        <ele>103.13</ele>
        <time>2020-11-08T10:39:32.000Z</time>
      </trkpt>
      <trkpt lat="50.48687" lon="3.78447">
        <ele>103.18</ele>
        <time>2020-11-08T10:39:33.000Z</time>
      </trkpt>
      <trkpt lat="50.4869" lon="3.78439">
        <ele>103.18</ele>
        <time>2020-11-08T10:39:34.000Z</time>
      </trkpt>
      <trkpt lat="50.48693" lon="3.78431">
        <ele>103.38</ele>
        <time>2020-11-08T10:39:35.000Z</time>
      </trkpt>
      <trkpt lat="50.48696" lon="3.78423">
        <ele>102.95</ele>
        <time>2020-11-08T10:39:36.000Z</time>
      </trkpt>
      <trkpt lat="50.48699" lon="3.78415">
        <ele>103.18</ele>
        <time>2020-11-08T10:39:37.000Z</time>
      </trkpt>
      <trkpt lat="50.48702" lon="3.78407">
        <ele>102.88</ele>
        <time>2020-11-08T10:39:38.000Z</time>
      </trkpt>
      <trkpt lat="50.48706" lon="3.78398">
        <ele>102.86</ele>
        <time>2020-11-08T10:39:39.000Z</time>
      </trkpt>
      <trkpt lat="50.48709" lon="3.78389">
        <ele>103.26</ele>
        <time>2020-11-08T10:39:40.000Z</time>
      </trkpt>
      <trkpt lat="50.48712" lon="3.7838">
        <ele>103.38</ele>
        <time>2020-11-08T10:39:41.000Z</time>
      </trkpt>
      <trkpt lat="50.48715" lon="3.78371">
        <ele>103.49</ele>
        <time>2020-11-08T10:39:42.000Z</time>
      </trkpt>
      <trkpt lat="50.48719" lon="3.78363">
        <ele>104.02</ele>
        <time>2020-11-08T10:39:43.000Z</time>
      </trkpt>
      <trkpt lat="50.48722" lon="3.78354">
        <ele>104.31</ele>
        <time>2020-11-08T10:39:44.000Z</time>
      </trkpt>
      <trkpt lat="50.48725" lon="3.78345">
        <ele>104.47</ele>
        <time>2020-11-08T10:39:45.000Z</time>
      </trkpt>
      <trkpt lat="50.48728" lon="3.78336">
        <ele>103.82</ele>
        <time>2020-11-08T10:39:46.000Z</time>
      </trkpt>
      <trkpt lat="50.48732" lon="3.78329">
        <ele>103.69</ele>
        <time>2020-11-08T10:39:47.000Z</time>
      </trkpt>
      <trkpt lat="50.48734" lon="3.78321">
        <ele>103.66</ele>
        <time>2020-11-08T10:39:48.000Z</time>
      </trkpt>
      <trkpt lat="50.48737" lon="3.78312">
        <ele>103.59</ele>
        <time>2020-11-08T10:39:49.000Z</time>
      </trkpt>
      <trkpt lat="50.48739" lon="3.78304">
        <ele>103.67</ele>
        <time>2020-11-08T10:39:50.000Z</time>
      </trkpt>
      <trkpt lat="50.48742" lon="3.78297">
        <ele>103.83</ele>
        <time>2020-11-08T10:39:51.000Z</time>
      </trkpt>
      <trkpt lat="50.48745" lon="3.7829">
        <ele>103.55</ele>
        <time>2020-11-08T10:39:52.000Z</time>
      </trkpt>
      <trkpt lat="50.48748" lon="3.78283">
        <ele>103.61</ele>
        <time>2020-11-08T10:39:53.000Z</time>
      </trkpt>
      <trkpt lat="50.4875" lon="3.78275">
        <ele>103.34</ele>
        <time>2020-11-08T10:39:54.000Z</time>
      </trkpt>
      <trkpt lat="50.48753" lon="3.78266">
        <ele>103.43</ele>
        <time>2020-11-08T10:39:55.000Z</time>
      </trkpt>
      <trkpt lat="50.48756" lon="3.78258">
        <ele>103.59</ele>
        <time>2020-11-08T10:39:56.000Z</time>
      </trkpt>
      <trkpt lat="50.4876" lon="3.78249">
        <ele>103.73</ele>
        <time>2020-11-08T10:39:57.000Z</time>
      </trkpt>
      <trkpt lat="50.48763" lon="3.78241">
        <ele>104.09</ele>
        <time>2020-11-08T10:39:58.000Z</time>
      </trkpt>
      <trkpt lat="50.48766" lon="3.78232">
        <ele>104.1</ele>
        <time>2020-11-08T10:39:59.000Z</time>
      </trkpt>
      <trkpt lat="50.4877" lon="3.78224">
        <ele>104.13</ele>
        <time>2020-11-08T10:40:00.000Z</time>
      </trkpt>
      <trkpt lat="50.48773" lon="3.78216">
        <ele>104.51</ele>
        <time>2020-11-08T10:40:01.000Z</time>
      </trkpt>
      <trkpt lat="50.48777" lon="3.78209">
        <ele>104.52</ele>
        <time>2020-11-08T10:40:02.000Z</time>
      </trkpt>
      <trkpt lat="50.4878" lon="3.78202">
        <ele>104.73</ele>
        <time>2020-11-08T10:40:03.000Z</time>
      </trkpt>
      <trkpt lat="50.48784" lon="3.78195">
        <ele>104.58</ele>
        <time>2020-11-08T10:40:04.000Z</time>
      </trkpt>
      <trkpt lat="50.48788" lon="3.78188">
        <ele>104.14</ele>
        <time>2020-11-08T10:40:05.000Z</time>
      </trkpt>
      <trkpt lat="50.48792" lon="3.78181">
        <ele>104.28</ele>
        <time>2020-11-08T10:40:06.000Z</time>
      </trkpt>
      <trkpt lat="50.48795" lon="3.78174">
        <ele>104.07</ele>
        <time>2020-11-08T10:40:07.000Z</time>
      </trkpt>
      <trkpt lat="50.48799" lon="3.78167">
        <ele>103.85</ele>
        <time>2020-11-08T10:40:08.000Z</time>
      </trkpt>
      <trkpt lat="50.48802" lon="3.78159">
        <ele>103.78</ele>
        <time>2020-11-08T10:40:09.000Z</time>
      </trkpt>
      <trkpt lat="50.48806" lon="3.78152">
        <ele>103.62</ele>
        <time>2020-11-08T10:40:10.000Z</time>
      </trkpt>
      <trkpt lat="50.48809" lon="3.78144">
        <ele>103.8</ele>
        <time>2020-11-08T10:40:11.000Z</time>
      </trkpt>
      <trkpt lat="50.48813" lon="3.78137">
        <ele>103.73</ele>
        <time>2020-11-08T10:40:12.000Z</time>
      </trkpt>
      <trkpt lat="50.48815" lon="3.78127">
        <ele>103.93</ele>
        <time>2020-11-08T10:40:13.000Z</time>
      </trkpt>
      <trkpt lat="50.48817" lon="3.78117">
        <ele>104.06</ele>
        <time>2020-11-08T10:40:14.000Z</time>
      </trkpt>
      <trkpt lat="50.48819" lon="3.78107">
        <ele>104.36</ele>
        <time>2020-11-08T10:40:15.000Z</time>
      </trkpt>
      <trkpt lat="50.4882" lon="3.78097">
        <ele>102.35</ele>
        <time>2020-11-08T10:40:16.000Z</time>
      </trkpt>
      <trkpt lat="50.48822" lon="3.78087">
        <ele>103.29</ele>
        <time>2020-11-08T10:40:17.000Z</time>
      </trkpt>
      <trkpt lat="50.48823" lon="3.78077">
        <ele>103.57</ele>
        <time>2020-11-08T10:40:18.000Z</time>
      </trkpt>
      <trkpt lat="50.48825" lon="3.78066">
        <ele>103.9</ele>
        <time>2020-11-08T10:40:19.000Z</time>
      </trkpt>
      <trkpt lat="50.48826" lon="3.78056">
        <ele>103.95</ele>
        <time>2020-11-08T10:40:20.000Z</time>
      </trkpt>
      <trkpt lat="50.48828" lon="3.78045">
        <ele>103.44</ele>
        <time>2020-11-08T10:40:21.000Z</time>
      </trkpt>
      <trkpt lat="50.4883" lon="3.78035">
        <ele>103.47</ele>
        <time>2020-11-08T10:40:22.000Z</time>
      </trkpt>
      <trkpt lat="50.48831" lon="3.78024">
        <ele>103.22</ele>
        <time>2020-11-08T10:40:23.000Z</time>
      </trkpt>
      <trkpt lat="50.48832" lon="3.78012">
        <ele>102.83</ele>
        <time>2020-11-08T10:40:24.000Z</time>
      </trkpt>
      <trkpt lat="50.48834" lon="3.78001">
        <ele>102.82</ele>
        <time>2020-11-08T10:40:25.000Z</time>
      </trkpt>
      <trkpt lat="50.48835" lon="3.7799">
        <ele>102.59</ele>
        <time>2020-11-08T10:40:26.000Z</time>
      </trkpt>
      <trkpt lat="50.48836" lon="3.77979">
        <ele>103.3</ele>
        <time>2020-11-08T10:40:27.000Z</time>
      </trkpt>
      <trkpt lat="50.48839" lon="3.77967">
        <ele>102.86</ele>
        <time>2020-11-08T10:40:28.000Z</time>
      </trkpt>
      <trkpt lat="50.48841" lon="3.77955">
        <ele>102.98</ele>
        <time>2020-11-08T10:40:29.000Z</time>
      </trkpt>
      <trkpt lat="50.48844" lon="3.77943">
        <ele>102.59</ele>
        <time>2020-11-08T10:40:30.000Z</time>
      </trkpt>
      <trkpt lat="50.48847" lon="3.77932">
        <ele>102.54</ele>
        <time>2020-11-08T10:40:31.000Z</time>
      </trkpt>
      <trkpt lat="50.4885" lon="3.7792">
        <ele>102.17</ele>
        <time>2020-11-08T10:40:32.000Z</time>
      </trkpt>
      <trkpt lat="50.48852" lon="3.77908">
        <ele>101.98</ele>
        <time>2020-11-08T10:40:33.000Z</time>
      </trkpt>
      <trkpt lat="50.48855" lon="3.77898">
        <ele>101.93</ele>
        <time>2020-11-08T10:40:34.000Z</time>
      </trkpt>
      <trkpt lat="50.48857" lon="3.77888">
        <ele>101.88</ele>
        <time>2020-11-08T10:40:35.000Z</time>
      </trkpt>
      <trkpt lat="50.48859" lon="3.77878">
        <ele>101.72</ele>
        <time>2020-11-08T10:40:36.000Z</time>
      </trkpt>
      <trkpt lat="50.48861" lon="3.77867">
        <ele>101.7</ele>
        <time>2020-11-08T10:40:37.000Z</time>
      </trkpt>
      <trkpt lat="50.48863" lon="3.77857">
        <ele>101.91</ele>
        <time>2020-11-08T10:40:38.000Z</time>
      </trkpt>
      <trkpt lat="50.48866" lon="3.77845">
        <ele>101.7</ele>
        <time>2020-11-08T10:40:39.000Z</time>
      </trkpt>
      <trkpt lat="50.48868" lon="3.77835">
        <ele>102.62</ele>
        <time>2020-11-08T10:40:40.000Z</time>
      </trkpt>
      <trkpt lat="50.48871" lon="3.77825">
        <ele>102.63</ele>
        <time>2020-11-08T10:40:41.000Z</time>
      </trkpt>
      <trkpt lat="50.48873" lon="3.77815">
        <ele>102.38</ele>
        <time>2020-11-08T10:40:42.000Z</time>
      </trkpt>
      <trkpt lat="50.48876" lon="3.77805">
        <ele>102.59</ele>
        <time>2020-11-08T10:40:43.000Z</time>
      </trkpt>
      <trkpt lat="50.48878" lon="3.77796">
        <ele>102.78</ele>
        <time>2020-11-08T10:40:44.000Z</time>
      </trkpt>
      <trkpt lat="50.48881" lon="3.77787">
        <ele>102.74</ele>
        <time>2020-11-08T10:40:45.000Z</time>
      </trkpt>
      <trkpt lat="50.48883" lon="3.77776">
        <ele>103.14</ele>
        <time>2020-11-08T10:40:46.000Z</time>
      </trkpt>
      <trkpt lat="50.48885" lon="3.77766">
        <ele>103.27</ele>
        <time>2020-11-08T10:40:47.000Z</time>
      </trkpt>
      <trkpt lat="50.48886" lon="3.77756">
        <ele>103.23</ele>
        <time>2020-11-08T10:40:48.000Z</time>
      </trkpt>
      <trkpt lat="50.48888" lon="3.77745">
        <ele>104.06</ele>
        <time>2020-11-08T10:40:49.000Z</time>
      </trkpt>
      <trkpt lat="50.4889" lon="3.77735">
        <ele>103.76</ele>
        <time>2020-11-08T10:40:50.000Z</time>
      </trkpt>
      <trkpt lat="50.48891" lon="3.77725">
        <ele>103.74</ele>
        <time>2020-11-08T10:40:51.000Z</time>
      </trkpt>
      <trkpt lat="50.48893" lon="3.77714">
        <ele>103.83</ele>
        <time>2020-11-08T10:40:52.000Z</time>
      </trkpt>
      <trkpt lat="50.48894" lon="3.77704">
        <ele>104.22</ele>
        <time>2020-11-08T10:40:53.000Z</time>
      </trkpt>
      <trkpt lat="50.48896" lon="3.77695">
        <ele>104.2</ele>
        <time>2020-11-08T10:40:54.000Z</time>
      </trkpt>
      <trkpt lat="50.48898" lon="3.77685">
        <ele>104.56</ele>
        <time>2020-11-08T10:40:55.000Z</time>
      </trkpt>
      <trkpt lat="50.48899" lon="3.77675">
        <ele>104.68</ele>
        <time>2020-11-08T10:40:56.000Z</time>
      </trkpt>
      <trkpt lat="50.489" lon="3.77666">
        <ele>104.55</ele>
        <time>2020-11-08T10:40:57.000Z</time>
      </trkpt>
      <trkpt lat="50.48902" lon="3.77656">
        <ele>104.49</ele>
        <time>2020-11-08T10:40:58.000Z</time>
      </trkpt>
      <trkpt lat="50.48903" lon="3.77647">
        <ele>104.8</ele>
        <time>2020-11-08T10:40:59.000Z</time>
      </trkpt>
      <trkpt lat="50.48904" lon="3.77637">
        <ele>104.81</ele>
        <time>2020-11-08T10:41:00.000Z</time>
      </trkpt>
      <trkpt lat="50.48906" lon="3.77628">
        <ele>104.66</ele>
        <time>2020-11-08T10:41:01.000Z</time>
      </trkpt>
      <trkpt lat="50.48908" lon="3.77617">
        <ele>104.25</ele>
        <time>2020-11-08T10:41:02.000Z</time>
      </trkpt>
      <trkpt lat="50.48909" lon="3.77607">
        <ele>104.43</ele>
        <time>2020-11-08T10:41:03.000Z</time>
      </trkpt>
      <trkpt lat="50.48911" lon="3.77597">
        <ele>104.01</ele>
        <time>2020-11-08T10:41:04.000Z</time>
      </trkpt>
      <trkpt lat="50.48913" lon="3.77586">
        <ele>103.93</ele>
        <time>2020-11-08T10:41:05.000Z</time>
      </trkpt>
      <trkpt lat="50.48914" lon="3.77576">
        <ele>103.89</ele>
        <time>2020-11-08T10:41:06.000Z</time>
      </trkpt>
      <trkpt lat="50.48916" lon="3.77567">
        <ele>103.76</ele>
        <time>2020-11-08T10:41:07.000Z</time>
      </trkpt>
      <trkpt lat="50.48917" lon="3.77558">
        <ele>103.72</ele>
        <time>2020-11-08T10:41:08.000Z</time>
      </trkpt>
      <trkpt lat="50.48918" lon="3.77547">
        <ele>103.48</ele>
        <time>2020-11-08T10:41:09.000Z</time>
      </trkpt>
      <trkpt lat="50.4892" lon="3.77537">
        <ele>102.89</ele>
        <time>2020-11-08T10:41:10.000Z</time>
      </trkpt>
      <trkpt lat="50.48921" lon="3.77527">
        <ele>102.89</ele>
        <time>2020-11-08T10:41:11.000Z</time>
      </trkpt>
      <trkpt lat="50.48924" lon="3.77518">
        <ele>102.14</ele>
        <time>2020-11-08T10:41:12.000Z</time>
      </trkpt>
      <trkpt lat="50.48928" lon="3.7751">
        <ele>101.91</ele>
        <time>2020-11-08T10:41:13.000Z</time>
      </trkpt>
      <trkpt lat="50.48932" lon="3.77506">
        <ele>102.53</ele>
        <time>2020-11-08T10:41:14.000Z</time>
      </trkpt>
      <trkpt lat="50.48939" lon="3.77506">
        <ele>103.1</ele>
        <time>2020-11-08T10:41:15.000Z</time>
      </trkpt>
      <trkpt lat="50.48945" lon="3.77507">
        <ele>103.05</ele>
        <time>2020-11-08T10:41:16.000Z</time>
      </trkpt>
      <trkpt lat="50.48951" lon="3.77509">
        <ele>103.23</ele>
        <time>2020-11-08T10:41:17.000Z</time>
      </trkpt>
      <trkpt lat="50.48957" lon="3.77511">
        <ele>102.78</ele>
        <time>2020-11-08T10:41:18.000Z</time>
      </trkpt>
      <trkpt lat="50.48963" lon="3.77514">
        <ele>102.96</ele>
        <time>2020-11-08T10:41:19.000Z</time>
      </trkpt>
      <trkpt lat="50.48969" lon="3.77515">
        <ele>102.79</ele>
        <time>2020-11-08T10:41:20.000Z</time>
      </trkpt>
      <trkpt lat="50.48975" lon="3.77516">
        <ele>102.83</ele>
        <time>2020-11-08T10:41:21.000Z</time>
      </trkpt>
      <trkpt lat="50.48981" lon="3.77516">
        <ele>103.21</ele>
        <time>2020-11-08T10:41:22.000Z</time>
      </trkpt>
      <trkpt lat="50.48986" lon="3.77516">
        <ele>103.79</ele>
        <time>2020-11-08T10:41:23.000Z</time>
      </trkpt>
      <trkpt lat="50.48992" lon="3.77513">
        <ele>104.44</ele>
        <time>2020-11-08T10:41:24.000Z</time>
      </trkpt>
      <trkpt lat="50.48996" lon="3.7751">
        <ele>104.1</ele>
        <time>2020-11-08T10:41:25.000Z</time>
      </trkpt>
      <trkpt lat="50.49001" lon="3.77505">
        <ele>104.3</ele>
        <time>2020-11-08T10:41:26.000Z</time>
      </trkpt>
      <trkpt lat="50.49006" lon="3.775">
        <ele>104.78</ele>
        <time>2020-11-08T10:41:27.000Z</time>
      </trkpt>
      <trkpt lat="50.4901" lon="3.77494">
        <ele>104.85</ele>
        <time>2020-11-08T10:41:28.000Z</time>
      </trkpt>
      <trkpt lat="50.49014" lon="3.77488">
        <ele>105.32</ele>
        <time>2020-11-08T10:41:29.000Z</time>
      </trkpt>
      <trkpt lat="50.49019" lon="3.77482">
        <ele>104.79</ele>
        <time>2020-11-08T10:41:30.000Z</time>
      </trkpt>
      <trkpt lat="50.49023" lon="3.77476">
        <ele>104.56</ele>
        <time>2020-11-08T10:41:31.000Z</time>
      </trkpt>
      <trkpt lat="50.49028" lon="3.7747">
        <ele>104.23</ele>
        <time>2020-11-08T10:41:32.000Z</time>
      </trkpt>
      <trkpt lat="50.49033" lon="3.77465">
        <ele>103.83</ele>
        <time>2020-11-08T10:41:33.000Z</time>
      </trkpt>
      <trkpt lat="50.49039" lon="3.77459">
        <ele>104.24</ele>
        <time>2020-11-08T10:41:34.000Z</time>
      </trkpt>
      <trkpt lat="50.49045" lon="3.77455">
        <ele>104.22</ele>
        <time>2020-11-08T10:41:35.000Z</time>
      </trkpt>
      <trkpt lat="50.49051" lon="3.77452">
        <ele>104.7</ele>
        <time>2020-11-08T10:41:36.000Z</time>
      </trkpt>
      <trkpt lat="50.49056" lon="3.77447">
        <ele>105.21</ele>
        <time>2020-11-08T10:41:37.000Z</time>
      </trkpt>
      <trkpt lat="50.49064" lon="3.77437">
        <ele>104.8</ele>
        <time>2020-11-08T10:41:39.000Z</time>
      </trkpt>
      <trkpt lat="50.49066" lon="3.7743">
        <ele>104.77</ele>
        <time>2020-11-08T10:41:40.000Z</time>
      </trkpt>
      <trkpt lat="50.49063" lon="3.77423">
        <ele>104.24</ele>
        <time>2020-11-08T10:41:41.000Z</time>
      </trkpt>
      <trkpt lat="50.49061" lon="3.77416">
        <ele>103.17</ele>
        <time>2020-11-08T10:41:42.000Z</time>
      </trkpt>
      <trkpt lat="50.49059" lon="3.77407">
        <ele>102.61</ele>
        <time>2020-11-08T10:41:43.000Z</time>
      </trkpt>
      <trkpt lat="50.49057" lon="3.77398">
        <ele>102.88</ele>
        <time>2020-11-08T10:41:44.000Z</time>
      </trkpt>
      <trkpt lat="50.49056" lon="3.77386">
        <ele>101.6</ele>
        <time>2020-11-08T10:41:46.000Z</time>
      </trkpt>
      <trkpt lat="50.49055" lon="3.77373">
        <ele>101.73</ele>
        <time>2020-11-08T10:41:48.000Z</time>
      </trkpt>
      <trkpt lat="50.49053" lon="3.7736">
        <ele>100.99</ele>
        <time>2020-11-08T10:41:50.000Z</time>
      </trkpt>
      <trkpt lat="50.49052" lon="3.77349">
        <ele>100.47</ele>
        <time>2020-11-08T10:41:52.000Z</time>
      </trkpt>
      <trkpt lat="50.49052" lon="3.77341">
        <ele>100.45</ele>
        <time>2020-11-08T10:41:54.000Z</time>
      </trkpt>
      <trkpt lat="50.49053" lon="3.77332">
        <ele>100.59</ele>
        <time>2020-11-08T10:41:56.000Z</time>
      </trkpt>
      <trkpt lat="50.49052" lon="3.77321">
        <ele>100.7</ele>
        <time>2020-11-08T10:41:58.000Z</time>
      </trkpt>
      <trkpt lat="50.49051" lon="3.7731">
        <ele>99.9</ele>
        <time>2020-11-08T10:42:00.000Z</time>
      </trkpt>
      <trkpt lat="50.4905" lon="3.77301">
        <ele>99.77</ele>
        <time>2020-11-08T10:42:02.000Z</time>
      </trkpt>
      <trkpt lat="50.49049" lon="3.77292">
        <ele>99.25</ele>
        <time>2020-11-08T10:42:04.000Z</time>
      </trkpt>
      <trkpt lat="50.49048" lon="3.77282">
        <ele>98.84</ele>
        <time>2020-11-08T10:42:06.000Z</time>
      </trkpt>
      <trkpt lat="50.49047" lon="3.77271">
        <ele>99.43</ele>
        <time>2020-11-08T10:42:08.000Z</time>
      </trkpt>
      <trkpt lat="50.49046" lon="3.7726">
        <ele>99.42</ele>
        <time>2020-11-08T10:42:10.000Z</time>
      </trkpt>
      <trkpt lat="50.49046" lon="3.77244">
        <ele>97.68</ele>
        <time>2020-11-08T10:42:12.000Z</time>
      </trkpt>
      <trkpt lat="50.49045" lon="3.77236">
        <ele>97.87</ele>
        <time>2020-11-08T10:42:13.000Z</time>
      </trkpt>
      <trkpt lat="50.49044" lon="3.77227">
        <ele>97.77</ele>
        <time>2020-11-08T10:42:14.000Z</time>
      </trkpt>
      <trkpt lat="50.49043" lon="3.77216">
        <ele>98.12</ele>
        <time>2020-11-08T10:42:15.000Z</time>
      </trkpt>
      <trkpt lat="50.49043" lon="3.77206">
        <ele>98.84</ele>
        <time>2020-11-08T10:42:16.000Z</time>
      </trkpt>
      <trkpt lat="50.49043" lon="3.77197">
        <ele>98.74</ele>
        <time>2020-11-08T10:42:17.000Z</time>
      </trkpt>
      <trkpt lat="50.49042" lon="3.77187">
        <ele>99.1</ele>
        <time>2020-11-08T10:42:18.000Z</time>
      </trkpt>
      <trkpt lat="50.49041" lon="3.77177">
        <ele>99.27</ele>
        <time>2020-11-08T10:42:19.000Z</time>
      </trkpt>
      <trkpt lat="50.49041" lon="3.77168">
        <ele>98.58</ele>
        <time>2020-11-08T10:42:20.000Z</time>
      </trkpt>
      <trkpt lat="50.4904" lon="3.77158">
        <ele>98.45</ele>
        <time>2020-11-08T10:42:21.000Z</time>
      </trkpt>
      <trkpt lat="50.49039" lon="3.77148">
        <ele>98.43</ele>
        <time>2020-11-08T10:42:22.000Z</time>
      </trkpt>
      <trkpt lat="50.49039" lon="3.77138">
        <ele>98.38</ele>
        <time>2020-11-08T10:42:23.000Z</time>
      </trkpt>
      <trkpt lat="50.49038" lon="3.77128">
        <ele>98.29</ele>
        <time>2020-11-08T10:42:24.000Z</time>
      </trkpt>
      <trkpt lat="50.49038" lon="3.77119">
        <ele>97.22</ele>
        <time>2020-11-08T10:42:25.000Z</time>
      </trkpt>
      <trkpt lat="50.49037" lon="3.77108">
        <ele>97.05</ele>
        <time>2020-11-08T10:42:26.000Z</time>
      </trkpt>
      <trkpt lat="50.49036" lon="3.77098">
        <ele>95.96</ele>
        <time>2020-11-08T10:42:27.000Z</time>
      </trkpt>
      <trkpt lat="50.49036" lon="3.77086">
        <ele>96.07</ele>
        <time>2020-11-08T10:42:28.000Z</time>
      </trkpt>
      <trkpt lat="50.49035" lon="3.77075">
        <ele>95.98</ele>
        <time>2020-11-08T10:42:29.000Z</time>
      </trkpt>
      <trkpt lat="50.49034" lon="3.77063">
        <ele>95.21</ele>
        <time>2020-11-08T10:42:30.000Z</time>
      </trkpt>
      <trkpt lat="50.49029" lon="3.77013">
        <ele>94.28</ele>
        <time>2020-11-08T10:42:35.000Z</time>
      </trkpt>
      <trkpt lat="50.49029" lon="3.77005">
        <ele>93.71</ele>
        <time>2020-11-08T10:42:36.000Z</time>
      </trkpt>
      <trkpt lat="50.49029" lon="3.76996">
        <ele>92.75</ele>
        <time>2020-11-08T10:42:38.000Z</time>
      </trkpt>
      <trkpt lat="50.49033" lon="3.76988">
        <ele>92.64</ele>
        <time>2020-11-08T10:42:40.000Z</time>
      </trkpt>
      <trkpt lat="50.49035" lon="3.76981">
        <ele>92.38</ele>
        <time>2020-11-08T10:42:42.000Z</time>
      </trkpt>
      <trkpt lat="50.4903" lon="3.76977">
        <ele>91.63</ele>
        <time>2020-11-08T10:42:45.000Z</time>
      </trkpt>
      <trkpt lat="50.49026" lon="3.76982">
        <ele>92.38</ele>
        <time>2020-11-08T10:42:48.000Z</time>
      </trkpt>
      <trkpt lat="50.49026" lon="3.76989">
        <ele>92.19</ele>
        <time>2020-11-08T10:42:50.000Z</time>
      </trkpt>
      <trkpt lat="50.49027" lon="3.76997">
        <ele>92.34</ele>
        <time>2020-11-08T10:42:52.000Z</time>
      </trkpt>
      <trkpt lat="50.49029" lon="3.77008">
        <ele>92.19</ele>
        <time>2020-11-08T10:42:54.000Z</time>
      </trkpt>
      <trkpt lat="50.4903" lon="3.77022">
        <ele>92.23</ele>
        <time>2020-11-08T10:42:56.000Z</time>
      </trkpt>
      <trkpt lat="50.49031" lon="3.77035">
        <ele>92.12</ele>
        <time>2020-11-08T10:42:58.000Z</time>
      </trkpt>
      <trkpt lat="50.49037" lon="3.77042">
        <ele>91.97</ele>
        <time>2020-11-08T10:43:00.000Z</time>
      </trkpt>
      <trkpt lat="50.49046" lon="3.77045">
        <ele>94.39</ele>
        <time>2020-11-08T10:43:02.000Z</time>
      </trkpt>
      <trkpt lat="50.49051" lon="3.77049">
        <ele>95.11</ele>
        <time>2020-11-08T10:43:04.000Z</time>
      </trkpt>
      <trkpt lat="50.49056" lon="3.77052">
        <ele>96.57</ele>
        <time>2020-11-08T10:43:06.000Z</time>
      </trkpt>
      <trkpt lat="50.49061" lon="3.77056">
        <ele>98.35</ele>
        <time>2020-11-08T10:43:08.000Z</time>
      </trkpt>
      <trkpt lat="50.49067" lon="3.77061">
        <ele>99.77</ele>
        <time>2020-11-08T10:43:10.000Z</time>
      </trkpt>
      <trkpt lat="50.49072" lon="3.77065">
        <ele>96.39</ele>
        <time>2020-11-08T10:43:12.000Z</time>
      </trkpt>
      <trkpt lat="50.4908" lon="3.7707">
        <ele>96.78</ele>
        <time>2020-11-08T10:43:14.000Z</time>
      </trkpt>
      <trkpt lat="50.49086" lon="3.77075">
        <ele>96.98</ele>
        <time>2020-11-08T10:43:16.000Z</time>
      </trkpt>
      <trkpt lat="50.49091" lon="3.77081">
        <ele>97.54</ele>
        <time>2020-11-08T10:43:18.000Z</time>
      </trkpt>
      <trkpt lat="50.49096" lon="3.77087">
        <ele>98.88</ele>
        <time>2020-11-08T10:43:20.000Z</time>
      </trkpt>
      <trkpt lat="50.49101" lon="3.77094">
        <ele>99.58</ele>
        <time>2020-11-08T10:43:22.000Z</time>
      </trkpt>
      <trkpt lat="50.49108" lon="3.77103">
        <ele>100.42</ele>
        <time>2020-11-08T10:43:24.000Z</time>
      </trkpt>
      <trkpt lat="50.49111" lon="3.77108">
        <ele>100.32</ele>
        <time>2020-11-08T10:43:25.000Z</time>
      </trkpt>
      <trkpt lat="50.49118" lon="3.77118">
        <ele>99.94</ele>
        <time>2020-11-08T10:43:27.000Z</time>
      </trkpt>
      <trkpt lat="50.49124" lon="3.77128">
        <ele>99.04</ele>
        <time>2020-11-08T10:43:29.000Z</time>
      </trkpt>
      <trkpt lat="50.49129" lon="3.77132">
        <ele>99.99</ele>
        <time>2020-11-08T10:43:30.000Z</time>
      </trkpt>
      <trkpt lat="50.49132" lon="3.77138">
        <ele>99.61</ele>
        <time>2020-11-08T10:43:31.000Z</time>
      </trkpt>
      <trkpt lat="50.49136" lon="3.77142">
        <ele>99.83</ele>
        <time>2020-11-08T10:43:32.000Z</time>
      </trkpt>
      <trkpt lat="50.4914" lon="3.77148">
        <ele>100.56</ele>
        <time>2020-11-08T10:43:33.000Z</time>
      </trkpt>
      <trkpt lat="50.49144" lon="3.77152">
        <ele>101.33</ele>
        <time>2020-11-08T10:43:34.000Z</time>
      </trkpt>
      <trkpt lat="50.49152" lon="3.77161">
        <ele>100.94</ele>
        <time>2020-11-08T10:43:36.000Z</time>
      </trkpt>
      <trkpt lat="50.49157" lon="3.77165">
        <ele>101.1</ele>
        <time>2020-11-08T10:43:37.000Z</time>
      </trkpt>
      <trkpt lat="50.49163" lon="3.77168">
        <ele>102.24</ele>
        <time>2020-11-08T10:43:38.000Z</time>
      </trkpt>
      <trkpt lat="50.49167" lon="3.77172">
        <ele>103.26</ele>
        <time>2020-11-08T10:43:39.000Z</time>
      </trkpt>
      <trkpt lat="50.49173" lon="3.77176">
        <ele>103.51</ele>
        <time>2020-11-08T10:43:40.000Z</time>
      </trkpt>
      <trkpt lat="50.49178" lon="3.7718">
        <ele>103.78</ele>
        <time>2020-11-08T10:43:41.000Z</time>
      </trkpt>
      <trkpt lat="50.49183" lon="3.77183">
        <ele>104.33</ele>
        <time>2020-11-08T10:43:42.000Z</time>
      </trkpt>
      <trkpt lat="50.49188" lon="3.77187">
        <ele>104.66</ele>
        <time>2020-11-08T10:43:43.000Z</time>
      </trkpt>
      <trkpt lat="50.49194" lon="3.7719">
        <ele>105.96</ele>
        <time>2020-11-08T10:43:44.000Z</time>
      </trkpt>
      <trkpt lat="50.49199" lon="3.77194">
        <ele>105.81</ele>
        <time>2020-11-08T10:43:45.000Z</time>
      </trkpt>
      <trkpt lat="50.49203" lon="3.77197">
        <ele>108.18</ele>
        <time>2020-11-08T10:43:46.000Z</time>
      </trkpt>
      <trkpt lat="50.49209" lon="3.77199">
        <ele>108.12</ele>
        <time>2020-11-08T10:43:47.000Z</time>
      </trkpt>
      <trkpt lat="50.49215" lon="3.77201">
        <ele>107.99</ele>
        <time>2020-11-08T10:43:48.000Z</time>
      </trkpt>
      <trkpt lat="50.4922" lon="3.77203">
        <ele>107.79</ele>
        <time>2020-11-08T10:43:49.000Z</time>
      </trkpt>
      <trkpt lat="50.49227" lon="3.77205">
        <ele>107.72</ele>
        <time>2020-11-08T10:43:50.000Z</time>
      </trkpt>
      <trkpt lat="50.49232" lon="3.77206">
        <ele>107.31</ele>
        <time>2020-11-08T10:43:51.000Z</time>
      </trkpt>
      <trkpt lat="50.49239" lon="3.77207">
        <ele>107.12</ele>
        <time>2020-11-08T10:43:52.000Z</time>
      </trkpt>
      <trkpt lat="50.49245" lon="3.77209">
        <ele>107.25</ele>
        <time>2020-11-08T10:43:53.000Z</time>
      </trkpt>
      <trkpt lat="50.49251" lon="3.77211">
        <ele>106.35</ele>
        <time>2020-11-08T10:43:54.000Z</time>
      </trkpt>
      <trkpt lat="50.49258" lon="3.77213">
        <ele>107.53</ele>
        <time>2020-11-08T10:43:55.000Z</time>
      </trkpt>
      <trkpt lat="50.49265" lon="3.77214">
        <ele>109.25</ele>
        <time>2020-11-08T10:43:56.000Z</time>
      </trkpt>
      <trkpt lat="50.4927" lon="3.77216">
        <ele>111.02</ele>
        <time>2020-11-08T10:43:57.000Z</time>
      </trkpt>
      <trkpt lat="50.49275" lon="3.77219">
        <ele>110.75</ele>
        <time>2020-11-08T10:43:58.000Z</time>
      </trkpt>
      <trkpt lat="50.49282" lon="3.77219">
        <ele>109.92</ele>
        <time>2020-11-08T10:43:59.000Z</time>
      </trkpt>
      <trkpt lat="50.49287" lon="3.77219">
        <ele>109.96</ele>
        <time>2020-11-08T10:44:00.000Z</time>
      </trkpt>
      <trkpt lat="50.49295" lon="3.77221">
        <ele>109.15</ele>
        <time>2020-11-08T10:44:02.000Z</time>
      </trkpt>
      <trkpt lat="50.493" lon="3.77222">
        <ele>108.44</ele>
        <time>2020-11-08T10:44:03.000Z</time>
      </trkpt>
      <trkpt lat="50.49305" lon="3.77221">
        <ele>108.31</ele>
        <time>2020-11-08T10:44:04.000Z</time>
      </trkpt>
      <trkpt lat="50.4931" lon="3.77219">
        <ele>108.47</ele>
        <time>2020-11-08T10:44:05.000Z</time>
      </trkpt>
      <trkpt lat="50.49316" lon="3.77208">
        <ele>104.73</ele>
        <time>2020-11-08T10:44:07.000Z</time>
      </trkpt>
      <trkpt lat="50.49323" lon="3.77195">
        <ele>104.58</ele>
        <time>2020-11-08T10:44:09.000Z</time>
      </trkpt>
      <trkpt lat="50.49325" lon="3.77187">
        <ele>104.81</ele>
        <time>2020-11-08T10:44:10.000Z</time>
      </trkpt>
      <trkpt lat="50.49329" lon="3.77178">
        <ele>105.03</ele>
        <time>2020-11-08T10:44:11.000Z</time>
      </trkpt>
      <trkpt lat="50.4933" lon="3.77171">
        <ele>106.13</ele>
        <time>2020-11-08T10:44:12.000Z</time>
      </trkpt>
      <trkpt lat="50.49334" lon="3.77164">
        <ele>106.76</ele>
        <time>2020-11-08T10:44:13.000Z</time>
      </trkpt>
      <trkpt lat="50.49338" lon="3.77159">
        <ele>106.26</ele>
        <time>2020-11-08T10:44:14.000Z</time>
      </trkpt>
      <trkpt lat="50.49343" lon="3.77158">
        <ele>111.2</ele>
        <time>2020-11-08T10:44:15.000Z</time>
      </trkpt>
      <trkpt lat="50.49352" lon="3.77161">
        <ele>106.4</ele>
        <time>2020-11-08T10:44:17.000Z</time>
      </trkpt>
      <trkpt lat="50.49361" lon="3.77164">
        <ele>103.94</ele>
        <time>2020-11-08T10:44:19.000Z</time>
      </trkpt>
      <trkpt lat="50.49366" lon="3.77167">
        <ele>104.77</ele>
        <time>2020-11-08T10:44:20.000Z</time>
      </trkpt>
      <trkpt lat="50.49371" lon="3.77169">
        <ele>104.88</ele>
        <time>2020-11-08T10:44:21.000Z</time>
      </trkpt>
      <trkpt lat="50.49376" lon="3.77173">
        <ele>103.84</ele>
        <time>2020-11-08T10:44:22.000Z</time>
      </trkpt>
      <trkpt lat="50.49382" lon="3.77176">
        <ele>102.82</ele>
        <time>2020-11-08T10:44:24.000Z</time>
      </trkpt>
      <trkpt lat="50.49386" lon="3.77172">
        <ele>104.35</ele>
        <time>2020-11-08T10:44:26.000Z</time>
      </trkpt>
      <trkpt lat="50.49389" lon="3.77165">
        <ele>105.37</ele>
        <time>2020-11-08T10:44:29.000Z</time>
      </trkpt>
      <trkpt lat="50.49389" lon="3.77158">
        <ele>106.66</ele>
        <time>2020-11-08T10:44:32.000Z</time>
      </trkpt>
      <trkpt lat="50.49384" lon="3.77154">
        <ele>111.74</ele>
        <time>2020-11-08T10:44:35.000Z</time>
      </trkpt>
      <trkpt lat="50.49379" lon="3.77149">
        <ele>109.62</ele>
        <time>2020-11-08T10:44:40.000Z</time>
      </trkpt>
      <trkpt lat="50.49375" lon="3.77144">
        <ele>112.21</ele>
        <time>2020-11-08T10:44:43.000Z</time>
      </trkpt>
      <trkpt lat="50.49369" lon="3.77141">
        <ele>110.31</ele>
        <time>2020-11-08T10:44:46.000Z</time>
      </trkpt>
      <trkpt lat="50.49365" lon="3.77138">
        <ele>110.57</ele>
        <time>2020-11-08T10:44:48.000Z</time>
      </trkpt>
      <trkpt lat="50.49364" lon="3.77127">
        <ele>108.53</ele>
        <time>2020-11-08T10:44:51.000Z</time>
      </trkpt>
      <trkpt lat="50.49366" lon="3.77114">
        <ele>108.66</ele>
        <time>2020-11-08T10:44:53.000Z</time>
      </trkpt>
      <trkpt lat="50.49367" lon="3.77105">
        <ele>109.13</ele>
        <time>2020-11-08T10:44:54.000Z</time>
      </trkpt>
      <trkpt lat="50.49368" lon="3.77097">
        <ele>109.93</ele>
        <time>2020-11-08T10:44:55.000Z</time>
      </trkpt>
      <trkpt lat="50.49369" lon="3.77086">
        <ele>108.38</ele>
        <time>2020-11-08T10:44:56.000Z</time>
      </trkpt>
      <trkpt lat="50.4937" lon="3.77076">
        <ele>106.96</ele>
        <time>2020-11-08T10:44:57.000Z</time>
      </trkpt>
      <trkpt lat="50.49372" lon="3.77066">
        <ele>105.98</ele>
        <time>2020-11-08T10:44:58.000Z</time>
      </trkpt>
      <trkpt lat="50.49377" lon="3.77056">
        <ele>103.98</ele>
        <time>2020-11-08T10:44:59.000Z</time>
      </trkpt>
      <trkpt lat="50.49382" lon="3.77047">
        <ele>104.88</ele>
        <time>2020-11-08T10:45:00.000Z</time>
      </trkpt>
      <trkpt lat="50.49388" lon="3.7704">
        <ele>104.94</ele>
        <time>2020-11-08T10:45:01.000Z</time>
      </trkpt>
      <trkpt lat="50.49393" lon="3.77033">
        <ele>104.04</ele>
        <time>2020-11-08T10:45:02.000Z</time>
      </trkpt>
      <trkpt lat="50.49399" lon="3.77025">
        <ele>103.92</ele>
        <time>2020-11-08T10:45:03.000Z</time>
      </trkpt>
      <trkpt lat="50.49405" lon="3.77019">
        <ele>104.24</ele>
        <time>2020-11-08T10:45:04.000Z</time>
      </trkpt>
      <trkpt lat="50.4941" lon="3.77011">
        <ele>104.43</ele>
        <time>2020-11-08T10:45:05.000Z</time>
      </trkpt>
      <trkpt lat="50.49416" lon="3.77008">
        <ele>103.82</ele>
        <time>2020-11-08T10:45:06.000Z</time>
      </trkpt>
      <trkpt lat="50.49422" lon="3.77003">
        <ele>103.07</ele>
        <time>2020-11-08T10:45:07.000Z</time>
      </trkpt>
      <trkpt lat="50.49426" lon="3.76997">
        <ele>102.75</ele>
        <time>2020-11-08T10:45:08.000Z</time>
      </trkpt>
      <trkpt lat="50.49429" lon="3.76992">
        <ele>102.45</ele>
        <time>2020-11-08T10:45:09.000Z</time>
      </trkpt>
      <trkpt lat="50.49435" lon="3.7698">
        <ele>101.58</ele>
        <time>2020-11-08T10:45:11.000Z</time>
      </trkpt>
      <trkpt lat="50.49437" lon="3.76974">
        <ele>100.54</ele>
        <time>2020-11-08T10:45:12.000Z</time>
      </trkpt>
      <trkpt lat="50.49438" lon="3.76966">
        <ele>99.52</ele>
        <time>2020-11-08T10:45:13.000Z</time>
      </trkpt>
      <trkpt lat="50.49439" lon="3.76959">
        <ele>99.14</ele>
        <time>2020-11-08T10:45:14.000Z</time>
      </trkpt>
      <trkpt lat="50.4944" lon="3.76951">
        <ele>98.49</ele>
        <time>2020-11-08T10:45:15.000Z</time>
      </trkpt>
      <trkpt lat="50.49442" lon="3.76944">
        <ele>97.2</ele>
        <time>2020-11-08T10:45:16.000Z</time>
      </trkpt>
      <trkpt lat="50.49444" lon="3.76936">
        <ele>97.07</ele>
        <time>2020-11-08T10:45:17.000Z</time>
      </trkpt>
      <trkpt lat="50.49447" lon="3.7693">
        <ele>96.41</ele>
        <time>2020-11-08T10:45:18.000Z</time>
      </trkpt>
      <trkpt lat="50.49451" lon="3.76923">
        <ele>95.64</ele>
        <time>2020-11-08T10:45:19.000Z</time>
      </trkpt>
      <trkpt lat="50.49455" lon="3.76919">
        <ele>96.63</ele>
        <time>2020-11-08T10:45:20.000Z</time>
      </trkpt>
      <trkpt lat="50.49461" lon="3.7692">
        <ele>96.61</ele>
        <time>2020-11-08T10:45:21.000Z</time>
      </trkpt>
      <trkpt lat="50.49468" lon="3.76921">
        <ele>95.56</ele>
        <time>2020-11-08T10:45:22.000Z</time>
      </trkpt>
      <trkpt lat="50.49474" lon="3.76919">
        <ele>95.38</ele>
        <time>2020-11-08T10:45:23.000Z</time>
      </trkpt>
      <trkpt lat="50.4948" lon="3.76917">
        <ele>95.75</ele>
        <time>2020-11-08T10:45:24.000Z</time>
      </trkpt>
      <trkpt lat="50.49486" lon="3.76915">
        <ele>95.21</ele>
        <time>2020-11-08T10:45:25.000Z</time>
      </trkpt>
      <trkpt lat="50.49491" lon="3.76911">
        <ele>94.98</ele>
        <time>2020-11-08T10:45:26.000Z</time>
      </trkpt>
      <trkpt lat="50.49495" lon="3.76905">
        <ele>95</ele>
        <time>2020-11-08T10:45:27.000Z</time>
      </trkpt>
      <trkpt lat="50.495" lon="3.76898">
        <ele>94.52</ele>
        <time>2020-11-08T10:45:28.000Z</time>
      </trkpt>
      <trkpt lat="50.49504" lon="3.7689">
        <ele>95.12</ele>
        <time>2020-11-08T10:45:29.000Z</time>
      </trkpt>
      <trkpt lat="50.49508" lon="3.76881">
        <ele>95.55</ele>
        <time>2020-11-08T10:45:30.000Z</time>
      </trkpt>
      <trkpt lat="50.4951" lon="3.76872">
        <ele>95.51</ele>
        <time>2020-11-08T10:45:31.000Z</time>
      </trkpt>
      <trkpt lat="50.4951" lon="3.76863">
        <ele>95.09</ele>
        <time>2020-11-08T10:45:32.000Z</time>
      </trkpt>
      <trkpt lat="50.4951" lon="3.76853">
        <ele>95.02</ele>
        <time>2020-11-08T10:45:33.000Z</time>
      </trkpt>
      <trkpt lat="50.49508" lon="3.76845">
        <ele>94.73</ele>
        <time>2020-11-08T10:45:34.000Z</time>
      </trkpt>
      <trkpt lat="50.49504" lon="3.76834">
        <ele>95.84</ele>
        <time>2020-11-08T10:45:35.000Z</time>
      </trkpt>
      <trkpt lat="50.49501" lon="3.76827">
        <ele>96.23</ele>
        <time>2020-11-08T10:45:36.000Z</time>
      </trkpt>
      <trkpt lat="50.49498" lon="3.76816">
        <ele>95.85</ele>
        <time>2020-11-08T10:45:37.000Z</time>
      </trkpt>
      <trkpt lat="50.49494" lon="3.76808">
        <ele>95.88</ele>
        <time>2020-11-08T10:45:38.000Z</time>
      </trkpt>
      <trkpt lat="50.4949" lon="3.76799">
        <ele>95.4</ele>
        <time>2020-11-08T10:45:39.000Z</time>
      </trkpt>
      <trkpt lat="50.49486" lon="3.76792">
        <ele>94.97</ele>
        <time>2020-11-08T10:45:40.000Z</time>
      </trkpt>
      <trkpt lat="50.49482" lon="3.76787">
        <ele>94.52</ele>
        <time>2020-11-08T10:45:41.000Z</time>
      </trkpt>
      <trkpt lat="50.49482" lon="3.76778">
        <ele>96.74</ele>
        <time>2020-11-08T10:45:43.000Z</time>
      </trkpt>
      <trkpt lat="50.49488" lon="3.76777">
        <ele>95.06</ele>
        <time>2020-11-08T10:45:45.000Z</time>
      </trkpt>
      <trkpt lat="50.49492" lon="3.76777">
        <ele>95.24</ele>
        <time>2020-11-08T10:45:46.000Z</time>
      </trkpt>
      <trkpt lat="50.49497" lon="3.76776">
        <ele>95.92</ele>
        <time>2020-11-08T10:45:47.000Z</time>
      </trkpt>
      <trkpt lat="50.49503" lon="3.76776">
        <ele>95.98</ele>
        <time>2020-11-08T10:45:48.000Z</time>
      </trkpt>
      <trkpt lat="50.49509" lon="3.76774">
        <ele>96.51</ele>
        <time>2020-11-08T10:45:49.000Z</time>
      </trkpt>
      <trkpt lat="50.49514" lon="3.7677">
        <ele>97.55</ele>
        <time>2020-11-08T10:45:50.000Z</time>
      </trkpt>
      <trkpt lat="50.49519" lon="3.76768">
        <ele>97.5</ele>
        <time>2020-11-08T10:45:51.000Z</time>
      </trkpt>
      <trkpt lat="50.49525" lon="3.76767">
        <ele>97.58</ele>
        <time>2020-11-08T10:45:52.000Z</time>
      </trkpt>
      <trkpt lat="50.49531" lon="3.76765">
        <ele>97.84</ele>
        <time>2020-11-08T10:45:53.000Z</time>
      </trkpt>
      <trkpt lat="50.49536" lon="3.76765">
        <ele>97.66</ele>
        <time>2020-11-08T10:45:54.000Z</time>
      </trkpt>
      <trkpt lat="50.49541" lon="3.76766">
        <ele>96.92</ele>
        <time>2020-11-08T10:45:55.000Z</time>
      </trkpt>
      <trkpt lat="50.49546" lon="3.76767">
        <ele>97.24</ele>
        <time>2020-11-08T10:45:56.000Z</time>
      </trkpt>
      <trkpt lat="50.49552" lon="3.76769">
        <ele>98.1</ele>
        <time>2020-11-08T10:45:57.000Z</time>
      </trkpt>
      <trkpt lat="50.49557" lon="3.76772">
        <ele>98.29</ele>
        <time>2020-11-08T10:45:58.000Z</time>
      </trkpt>
      <trkpt lat="50.49561" lon="3.76776">
        <ele>97.47</ele>
        <time>2020-11-08T10:45:59.000Z</time>
      </trkpt>
      <trkpt lat="50.49565" lon="3.7678">
        <ele>98.64</ele>
        <time>2020-11-08T10:46:00.000Z</time>
      </trkpt>
      <trkpt lat="50.49572" lon="3.76789">
        <ele>100.28</ele>
        <time>2020-11-08T10:46:02.000Z</time>
      </trkpt>
      <trkpt lat="50.49577" lon="3.76794">
        <ele>100.34</ele>
        <time>2020-11-08T10:46:03.000Z</time>
      </trkpt>
      <trkpt lat="50.49581" lon="3.76798">
        <ele>100.59</ele>
        <time>2020-11-08T10:46:04.000Z</time>
      </trkpt>
      <trkpt lat="50.49586" lon="3.76802">
        <ele>100.51</ele>
        <time>2020-11-08T10:46:05.000Z</time>
      </trkpt>
      <trkpt lat="50.4959" lon="3.76805">
        <ele>100.31</ele>
        <time>2020-11-08T10:46:06.000Z</time>
      </trkpt>
      <trkpt lat="50.49597" lon="3.7681">
        <ele>101.77</ele>
        <time>2020-11-08T10:46:07.000Z</time>
      </trkpt>
      <trkpt lat="50.49601" lon="3.76815">
        <ele>102.22</ele>
        <time>2020-11-08T10:46:08.000Z</time>
      </trkpt>
      <trkpt lat="50.49607" lon="3.76819">
        <ele>103.76</ele>
        <time>2020-11-08T10:46:09.000Z</time>
      </trkpt>
      <trkpt lat="50.49612" lon="3.76826">
        <ele>102.3</ele>
        <time>2020-11-08T10:46:11.000Z</time>
      </trkpt>
      <trkpt lat="50.49618" lon="3.76828">
        <ele>101.03</ele>
        <time>2020-11-08T10:46:13.000Z</time>
      </trkpt>
      <trkpt lat="50.49623" lon="3.76827">
        <ele>103.15</ele>
        <time>2020-11-08T10:46:16.000Z</time>
      </trkpt>
      <trkpt lat="50.49623" lon="3.76827">
        <ele>103.15</ele>
        <time>2020-11-08T10:46:16.001Z</time>
      </trkpt>
      <trkpt lat="50.49621" lon="3.76819">
        <ele>105.89</ele>
        <time>2020-11-08T10:46:35.000Z</time>
      </trkpt>
      <trkpt lat="50.49623" lon="3.76811">
        <ele>106.71</ele>
        <time>2020-11-08T10:46:38.000Z</time>
      </trkpt>
      <trkpt lat="50.49624" lon="3.76796">
        <ele>107.12</ele>
        <time>2020-11-08T10:46:40.000Z</time>
      </trkpt>
      <trkpt lat="50.49623" lon="3.76786">
        <ele>108.31</ele>
        <time>2020-11-08T10:46:41.000Z</time>
      </trkpt>
      <trkpt lat="50.49623" lon="3.76778">
        <ele>108.83</ele>
        <time>2020-11-08T10:46:42.000Z</time>
      </trkpt>
      <trkpt lat="50.49623" lon="3.76769">
        <ele>109.16</ele>
        <time>2020-11-08T10:46:43.000Z</time>
      </trkpt>
      <trkpt lat="50.49623" lon="3.76761">
        <ele>108.94</ele>
        <time>2020-11-08T10:46:44.000Z</time>
      </trkpt>
      <trkpt lat="50.49623" lon="3.76753">
        <ele>109.26</ele>
        <time>2020-11-08T10:46:45.000Z</time>
      </trkpt>
      <trkpt lat="50.49623" lon="3.76744">
        <ele>109.35</ele>
        <time>2020-11-08T10:46:46.000Z</time>
      </trkpt>
      <trkpt lat="50.49623" lon="3.76735">
        <ele>109.3</ele>
        <time>2020-11-08T10:46:47.000Z</time>
      </trkpt>
      <trkpt lat="50.49624" lon="3.76727">
        <ele>109.59</ele>
        <time>2020-11-08T10:46:48.000Z</time>
      </trkpt>
      <trkpt lat="50.49624" lon="3.76718">
        <ele>109.45</ele>
        <time>2020-11-08T10:46:49.000Z</time>
      </trkpt>
      <trkpt lat="50.49624" lon="3.7671">
        <ele>109.5</ele>
        <time>2020-11-08T10:46:50.000Z</time>
      </trkpt>
      <trkpt lat="50.49624" lon="3.76703">
        <ele>109.74</ele>
        <time>2020-11-08T10:46:51.000Z</time>
      </trkpt>
      <trkpt lat="50.49624" lon="3.76695">
        <ele>108.78</ele>
        <time>2020-11-08T10:46:52.000Z</time>
      </trkpt>
      <trkpt lat="50.49624" lon="3.76687">
        <ele>109.26</ele>
        <time>2020-11-08T10:46:53.000Z</time>
      </trkpt>
      <trkpt lat="50.49624" lon="3.76678">
        <ele>108.8</ele>
        <time>2020-11-08T10:46:54.000Z</time>
      </trkpt>
      <trkpt lat="50.49624" lon="3.76669">
        <ele>109.13</ele>
        <time>2020-11-08T10:46:55.000Z</time>
      </trkpt>
      <trkpt lat="50.49624" lon="3.76661">
        <ele>109.34</ele>
        <time>2020-11-08T10:46:56.000Z</time>
      </trkpt>
      <trkpt lat="50.49624" lon="3.76652">
        <ele>109.83</ele>
        <time>2020-11-08T10:46:57.000Z</time>
      </trkpt>
      <trkpt lat="50.49624" lon="3.76644">
        <ele>110.09</ele>
        <time>2020-11-08T10:46:58.000Z</time>
      </trkpt>
      <trkpt lat="50.49624" lon="3.76636">
        <ele>110.67</ele>
        <time>2020-11-08T10:46:59.000Z</time>
      </trkpt>
      <trkpt lat="50.49624" lon="3.76629">
        <ele>110.81</ele>
        <time>2020-11-08T10:47:00.000Z</time>
      </trkpt>
      <trkpt lat="50.49624" lon="3.76621">
        <ele>110.18</ele>
        <time>2020-11-08T10:47:01.000Z</time>
      </trkpt>
      <trkpt lat="50.49624" lon="3.76614">
        <ele>109.93</ele>
        <time>2020-11-08T10:47:02.000Z</time>
      </trkpt>
      <trkpt lat="50.49624" lon="3.76599">
        <ele>109.53</ele>
        <time>2020-11-08T10:47:04.000Z</time>
      </trkpt>
      <trkpt lat="50.49624" lon="3.76591">
        <ele>109.8</ele>
        <time>2020-11-08T10:47:05.000Z</time>
      </trkpt>
      <trkpt lat="50.49624" lon="3.76583">
        <ele>109.85</ele>
        <time>2020-11-08T10:47:06.000Z</time>
      </trkpt>
      <trkpt lat="50.49624" lon="3.76575">
        <ele>109.72</ele>
        <time>2020-11-08T10:47:07.000Z</time>
      </trkpt>
      <trkpt lat="50.49624" lon="3.76567">
        <ele>110.13</ele>
        <time>2020-11-08T10:47:08.000Z</time>
      </trkpt>
      <trkpt lat="50.49624" lon="3.76559">
        <ele>110.34</ele>
        <time>2020-11-08T10:47:09.000Z</time>
      </trkpt>
      <trkpt lat="50.49624" lon="3.7655">
        <ele>110.05</ele>
        <time>2020-11-08T10:47:10.000Z</time>
      </trkpt>
      <trkpt lat="50.49624" lon="3.76542">
        <ele>110</ele>
        <time>2020-11-08T10:47:11.000Z</time>
      </trkpt>
      <trkpt lat="50.49625" lon="3.76534">
        <ele>110.11</ele>
        <time>2020-11-08T10:47:12.000Z</time>
      </trkpt>
      <trkpt lat="50.49625" lon="3.76525">
        <ele>110.2</ele>
        <time>2020-11-08T10:47:13.000Z</time>
      </trkpt>
      <trkpt lat="50.49625" lon="3.76517">
        <ele>110.16</ele>
        <time>2020-11-08T10:47:14.000Z</time>
      </trkpt>
      <trkpt lat="50.49625" lon="3.76509">
        <ele>109.99</ele>
        <time>2020-11-08T10:47:15.000Z</time>
      </trkpt>
      <trkpt lat="50.49625" lon="3.765">
        <ele>110.47</ele>
        <time>2020-11-08T10:47:16.000Z</time>
      </trkpt>
      <trkpt lat="50.49625" lon="3.76491">
        <ele>110.37</ele>
        <time>2020-11-08T10:47:17.000Z</time>
      </trkpt>
      <trkpt lat="50.49625" lon="3.76483">
        <ele>110.1</ele>
        <time>2020-11-08T10:47:18.000Z</time>
      </trkpt>
      <trkpt lat="50.49625" lon="3.76475">
        <ele>109.91</ele>
        <time>2020-11-08T10:47:19.000Z</time>
      </trkpt>
      <trkpt lat="50.49625" lon="3.76467">
        <ele>109.19</ele>
        <time>2020-11-08T10:47:20.000Z</time>
      </trkpt>
      <trkpt lat="50.49625" lon="3.76459">
        <ele>109.64</ele>
        <time>2020-11-08T10:47:21.000Z</time>
      </trkpt>
      <trkpt lat="50.49625" lon="3.76452">
        <ele>109.38</ele>
        <time>2020-11-08T10:47:22.000Z</time>
      </trkpt>
      <trkpt lat="50.49625" lon="3.76445">
        <ele>109.41</ele>
        <time>2020-11-08T10:47:23.000Z</time>
      </trkpt>
      <trkpt lat="50.49625" lon="3.76437">
        <ele>109.78</ele>
        <time>2020-11-08T10:47:24.000Z</time>
      </trkpt>
      <trkpt lat="50.49625" lon="3.76428">
        <ele>109.99</ele>
        <time>2020-11-08T10:47:25.000Z</time>
      </trkpt>
      <trkpt lat="50.49625" lon="3.7642">
        <ele>109.87</ele>
        <time>2020-11-08T10:47:26.000Z</time>
      </trkpt>
      <trkpt lat="50.49625" lon="3.76412">
        <ele>109.21</ele>
        <time>2020-11-08T10:47:27.000Z</time>
      </trkpt>
      <trkpt lat="50.49625" lon="3.76403">
        <ele>108.97</ele>
        <time>2020-11-08T10:47:28.000Z</time>
      </trkpt>
      <trkpt lat="50.49624" lon="3.76394">
        <ele>108.9</ele>
        <time>2020-11-08T10:47:29.000Z</time>
      </trkpt>
      <trkpt lat="50.49624" lon="3.76386">
        <ele>109.25</ele>
        <time>2020-11-08T10:47:30.000Z</time>
      </trkpt>
      <trkpt lat="50.49624" lon="3.76377">
        <ele>108.7</ele>
        <time>2020-11-08T10:47:31.000Z</time>
      </trkpt>
      <trkpt lat="50.49624" lon="3.76369">
        <ele>108.88</ele>
        <time>2020-11-08T10:47:32.000Z</time>
      </trkpt>
      <trkpt lat="50.49624" lon="3.76361">
        <ele>109.12</ele>
        <time>2020-11-08T10:47:33.000Z</time>
      </trkpt>
      <trkpt lat="50.49624" lon="3.76353">
        <ele>109.28</ele>
        <time>2020-11-08T10:47:34.000Z</time>
      </trkpt>
      <trkpt lat="50.49624" lon="3.76345">
        <ele>108.95</ele>
        <time>2020-11-08T10:47:35.000Z</time>
      </trkpt>
      <trkpt lat="50.49624" lon="3.76337">
        <ele>109.23</ele>
        <time>2020-11-08T10:47:36.000Z</time>
      </trkpt>
      <trkpt lat="50.49624" lon="3.7633">
        <ele>109.29</ele>
        <time>2020-11-08T10:47:37.000Z</time>
      </trkpt>
      <trkpt lat="50.49623" lon="3.76315">
        <ele>109.34</ele>
        <time>2020-11-08T10:47:39.000Z</time>
      </trkpt>
      <trkpt lat="50.49623" lon="3.76307">
        <ele>109.2</ele>
        <time>2020-11-08T10:47:40.000Z</time>
      </trkpt>
      <trkpt lat="50.49623" lon="3.76299">
        <ele>109.04</ele>
        <time>2020-11-08T10:47:41.000Z</time>
      </trkpt>
      <trkpt lat="50.49623" lon="3.76291">
        <ele>108.91</ele>
        <time>2020-11-08T10:47:42.000Z</time>
      </trkpt>
      <trkpt lat="50.49623" lon="3.76283">
        <ele>109.17</ele>
        <time>2020-11-08T10:47:43.000Z</time>
      </trkpt>
      <trkpt lat="50.49623" lon="3.76275">
        <ele>109.29</ele>
        <time>2020-11-08T10:47:44.000Z</time>
      </trkpt>
      <trkpt lat="50.49623" lon="3.76267">
        <ele>109.41</ele>
        <time>2020-11-08T10:47:45.000Z</time>
      </trkpt>
      <trkpt lat="50.49623" lon="3.76258">
        <ele>109.97</ele>
        <time>2020-11-08T10:47:46.000Z</time>
      </trkpt>
      <trkpt lat="50.49623" lon="3.7625">
        <ele>110.08</ele>
        <time>2020-11-08T10:47:47.000Z</time>
      </trkpt>
      <trkpt lat="50.49623" lon="3.76242">
        <ele>110.07</ele>
        <time>2020-11-08T10:47:48.000Z</time>
      </trkpt>
      <trkpt lat="50.49623" lon="3.76235">
        <ele>109.94</ele>
        <time>2020-11-08T10:47:49.000Z</time>
      </trkpt>
      <trkpt lat="50.49622" lon="3.76226">
        <ele>109.83</ele>
        <time>2020-11-08T10:47:50.000Z</time>
      </trkpt>
      <trkpt lat="50.49622" lon="3.76218">
        <ele>110.04</ele>
        <time>2020-11-08T10:47:51.000Z</time>
      </trkpt>
      <trkpt lat="50.49622" lon="3.7621">
        <ele>110.25</ele>
        <time>2020-11-08T10:47:52.000Z</time>
      </trkpt>
      <trkpt lat="50.49622" lon="3.76202">
        <ele>110.44</ele>
        <time>2020-11-08T10:47:53.000Z</time>
      </trkpt>
      <trkpt lat="50.49622" lon="3.76193">
        <ele>110.17</ele>
        <time>2020-11-08T10:47:54.000Z</time>
      </trkpt>
      <trkpt lat="50.49622" lon="3.76185">
        <ele>110.28</ele>
        <time>2020-11-08T10:47:55.000Z</time>
      </trkpt>
      <trkpt lat="50.49622" lon="3.76177">
        <ele>110.53</ele>
        <time>2020-11-08T10:47:56.000Z</time>
      </trkpt>
      <trkpt lat="50.49622" lon="3.76169">
        <ele>111.53</ele>
        <time>2020-11-08T10:47:57.000Z</time>
      </trkpt>
      <trkpt lat="50.49622" lon="3.76161">
        <ele>111.15</ele>
        <time>2020-11-08T10:47:58.000Z</time>
      </trkpt>
      <trkpt lat="50.49622" lon="3.76154">
        <ele>111.09</ele>
        <time>2020-11-08T10:47:59.000Z</time>
      </trkpt>
      <trkpt lat="50.49622" lon="3.76147">
        <ele>110.89</ele>
        <time>2020-11-08T10:48:00.000Z</time>
      </trkpt>
      <trkpt lat="50.49622" lon="3.76139">
        <ele>110.83</ele>
        <time>2020-11-08T10:48:01.000Z</time>
      </trkpt>
      <trkpt lat="50.49622" lon="3.76131">
        <ele>110.61</ele>
        <time>2020-11-08T10:48:02.000Z</time>
      </trkpt>
      <trkpt lat="50.49622" lon="3.76124">
        <ele>110.39</ele>
        <time>2020-11-08T10:48:03.000Z</time>
      </trkpt>
      <trkpt lat="50.49622" lon="3.76115">
        <ele>110.85</ele>
        <time>2020-11-08T10:48:04.000Z</time>
      </trkpt>
      <trkpt lat="50.49622" lon="3.76107">
        <ele>110.83</ele>
        <time>2020-11-08T10:48:05.000Z</time>
      </trkpt>
      <trkpt lat="50.49622" lon="3.76098">
        <ele>110.87</ele>
        <time>2020-11-08T10:48:06.000Z</time>
      </trkpt>
      <trkpt lat="50.49621" lon="3.7609">
        <ele>111.04</ele>
        <time>2020-11-08T10:48:07.000Z</time>
      </trkpt>
      <trkpt lat="50.49621" lon="3.76081">
        <ele>110.71</ele>
        <time>2020-11-08T10:48:08.000Z</time>
      </trkpt>
      <trkpt lat="50.49621" lon="3.76073">
        <ele>110.85</ele>
        <time>2020-11-08T10:48:09.000Z</time>
      </trkpt>
      <trkpt lat="50.49621" lon="3.76063">
        <ele>111.23</ele>
        <time>2020-11-08T10:48:10.000Z</time>
      </trkpt>
      <trkpt lat="50.49621" lon="3.76054">
        <ele>111.67</ele>
        <time>2020-11-08T10:48:11.000Z</time>
      </trkpt>
      <trkpt lat="50.49621" lon="3.76044">
        <ele>111.45</ele>
        <time>2020-11-08T10:48:12.000Z</time>
      </trkpt>
      <trkpt lat="50.49622" lon="3.76034">
        <ele>111.75</ele>
        <time>2020-11-08T10:48:13.000Z</time>
      </trkpt>
      <trkpt lat="50.49622" lon="3.76025">
        <ele>111.37</ele>
        <time>2020-11-08T10:48:14.000Z</time>
      </trkpt>
      <trkpt lat="50.49622" lon="3.76016">
        <ele>111.68</ele>
        <time>2020-11-08T10:48:15.000Z</time>
      </trkpt>
      <trkpt lat="50.49622" lon="3.76006">
        <ele>111.74</ele>
        <time>2020-11-08T10:48:16.000Z</time>
      </trkpt>
      <trkpt lat="50.49621" lon="3.75997">
        <ele>111.78</ele>
        <time>2020-11-08T10:48:17.000Z</time>
      </trkpt>
      <trkpt lat="50.49621" lon="3.75987">
        <ele>111.73</ele>
        <time>2020-11-08T10:48:18.000Z</time>
      </trkpt>
      <trkpt lat="50.49621" lon="3.75978">
        <ele>111.82</ele>
        <time>2020-11-08T10:48:19.000Z</time>
      </trkpt>
      <trkpt lat="50.49621" lon="3.75969">
        <ele>112.11</ele>
        <time>2020-11-08T10:48:20.000Z</time>
      </trkpt>
      <trkpt lat="50.4962" lon="3.7596">
        <ele>112.28</ele>
        <time>2020-11-08T10:48:21.000Z</time>
      </trkpt>
      <trkpt lat="50.4962" lon="3.75951">
        <ele>112.26</ele>
        <time>2020-11-08T10:48:22.000Z</time>
      </trkpt>
      <trkpt lat="50.4962" lon="3.75943">
        <ele>112.22</ele>
        <time>2020-11-08T10:48:23.000Z</time>
      </trkpt>
      <trkpt lat="50.49621" lon="3.75935">
        <ele>112.22</ele>
        <time>2020-11-08T10:48:24.000Z</time>
      </trkpt>
      <trkpt lat="50.4962" lon="3.75927">
        <ele>112.47</ele>
        <time>2020-11-08T10:48:25.000Z</time>
      </trkpt>
      <trkpt lat="50.49621" lon="3.7592">
        <ele>112.45</ele>
        <time>2020-11-08T10:48:26.000Z</time>
      </trkpt>
      <trkpt lat="50.4962" lon="3.75912">
        <ele>112.36</ele>
        <time>2020-11-08T10:48:27.000Z</time>
      </trkpt>
      <trkpt lat="50.4962" lon="3.75899">
        <ele>112.17</ele>
        <time>2020-11-08T10:48:29.000Z</time>
      </trkpt>
      <trkpt lat="50.4962" lon="3.75885">
        <ele>111.94</ele>
        <time>2020-11-08T10:48:31.000Z</time>
      </trkpt>
      <trkpt lat="50.4962" lon="3.75876">
        <ele>111.83</ele>
        <time>2020-11-08T10:48:32.000Z</time>
      </trkpt>
      <trkpt lat="50.4962" lon="3.75868">
        <ele>111.99</ele>
        <time>2020-11-08T10:48:33.000Z</time>
      </trkpt>
      <trkpt lat="50.4962" lon="3.75859">
        <ele>112.04</ele>
        <time>2020-11-08T10:48:34.000Z</time>
      </trkpt>
      <trkpt lat="50.4962" lon="3.7585">
        <ele>112.34</ele>
        <time>2020-11-08T10:48:35.000Z</time>
      </trkpt>
      <trkpt lat="50.4962" lon="3.7584">
        <ele>112.43</ele>
        <time>2020-11-08T10:48:36.000Z</time>
      </trkpt>
      <trkpt lat="50.49621" lon="3.7583">
        <ele>112.61</ele>
        <time>2020-11-08T10:48:37.000Z</time>
      </trkpt>
      <trkpt lat="50.49621" lon="3.7582">
        <ele>112.29</ele>
        <time>2020-11-08T10:48:38.000Z</time>
      </trkpt>
      <trkpt lat="50.49621" lon="3.75809">
        <ele>112.48</ele>
        <time>2020-11-08T10:48:39.000Z</time>
      </trkpt>
      <trkpt lat="50.49622" lon="3.75798">
        <ele>112.46</ele>
        <time>2020-11-08T10:48:40.000Z</time>
      </trkpt>
      <trkpt lat="50.49622" lon="3.75788">
        <ele>112.18</ele>
        <time>2020-11-08T10:48:41.000Z</time>
      </trkpt>
      <trkpt lat="50.49622" lon="3.75777">
        <ele>112.08</ele>
        <time>2020-11-08T10:48:42.000Z</time>
      </trkpt>
      <trkpt lat="50.49622" lon="3.75766">
        <ele>112.05</ele>
        <time>2020-11-08T10:48:43.000Z</time>
      </trkpt>
      <trkpt lat="50.49622" lon="3.75755">
        <ele>111.93</ele>
        <time>2020-11-08T10:48:44.000Z</time>
      </trkpt>
      <trkpt lat="50.49622" lon="3.75744">
        <ele>111.82</ele>
        <time>2020-11-08T10:48:45.000Z</time>
      </trkpt>
      <trkpt lat="50.49622" lon="3.75734">
        <ele>112.16</ele>
        <time>2020-11-08T10:48:46.000Z</time>
      </trkpt>
      <trkpt lat="50.49622" lon="3.75723">
        <ele>112.1</ele>
        <time>2020-11-08T10:48:47.000Z</time>
      </trkpt>
      <trkpt lat="50.49622" lon="3.75712">
        <ele>112.02</ele>
        <time>2020-11-08T10:48:48.000Z</time>
      </trkpt>
      <trkpt lat="50.49622" lon="3.75701">
        <ele>111.89</ele>
        <time>2020-11-08T10:48:49.000Z</time>
      </trkpt>
      <trkpt lat="50.49622" lon="3.7569">
        <ele>111.86</ele>
        <time>2020-11-08T10:48:50.000Z</time>
      </trkpt>
      <trkpt lat="50.49622" lon="3.75679">
        <ele>111.81</ele>
        <time>2020-11-08T10:48:51.000Z</time>
      </trkpt>
      <trkpt lat="50.49622" lon="3.75668">
        <ele>112.02</ele>
        <time>2020-11-08T10:48:52.000Z</time>
      </trkpt>
      <trkpt lat="50.49622" lon="3.75656">
        <ele>111.8</ele>
        <time>2020-11-08T10:48:53.000Z</time>
      </trkpt>
      <trkpt lat="50.49621" lon="3.75645">
        <ele>111.52</ele>
        <time>2020-11-08T10:48:54.000Z</time>
      </trkpt>
      <trkpt lat="50.4962" lon="3.75635">
        <ele>111.34</ele>
        <time>2020-11-08T10:48:55.000Z</time>
      </trkpt>
      <trkpt lat="50.4962" lon="3.75625">
        <ele>111.28</ele>
        <time>2020-11-08T10:48:56.000Z</time>
      </trkpt>
      <trkpt lat="50.4962" lon="3.75614">
        <ele>111.29</ele>
        <time>2020-11-08T10:48:57.000Z</time>
      </trkpt>
      <trkpt lat="50.49621" lon="3.75603">
        <ele>111.59</ele>
        <time>2020-11-08T10:48:58.000Z</time>
      </trkpt>
      <trkpt lat="50.49621" lon="3.75592">
        <ele>111.87</ele>
        <time>2020-11-08T10:48:59.000Z</time>
      </trkpt>
      <trkpt lat="50.49621" lon="3.75581">
        <ele>111.67</ele>
        <time>2020-11-08T10:49:00.000Z</time>
      </trkpt>
      <trkpt lat="50.4962" lon="3.7557">
        <ele>112.16</ele>
        <time>2020-11-08T10:49:01.000Z</time>
      </trkpt>
      <trkpt lat="50.4962" lon="3.75559">
        <ele>111.96</ele>
        <time>2020-11-08T10:49:02.000Z</time>
      </trkpt>
      <trkpt lat="50.4962" lon="3.75549">
        <ele>111.95</ele>
        <time>2020-11-08T10:49:03.000Z</time>
      </trkpt>
      <trkpt lat="50.4962" lon="3.75538">
        <ele>112.02</ele>
        <time>2020-11-08T10:49:04.000Z</time>
      </trkpt>
      <trkpt lat="50.49619" lon="3.75527">
        <ele>112.29</ele>
        <time>2020-11-08T10:49:05.000Z</time>
      </trkpt>
      <trkpt lat="50.49619" lon="3.75517">
        <ele>112.29</ele>
        <time>2020-11-08T10:49:06.000Z</time>
      </trkpt>
      <trkpt lat="50.49619" lon="3.75507">
        <ele>112.65</ele>
        <time>2020-11-08T10:49:07.000Z</time>
      </trkpt>
      <trkpt lat="50.49619" lon="3.75496">
        <ele>112.87</ele>
        <time>2020-11-08T10:49:08.000Z</time>
      </trkpt>
      <trkpt lat="50.4962" lon="3.75486">
        <ele>112.83</ele>
        <time>2020-11-08T10:49:09.000Z</time>
      </trkpt>
      <trkpt lat="50.4962" lon="3.75475">
        <ele>112.79</ele>
        <time>2020-11-08T10:49:10.000Z</time>
      </trkpt>
      <trkpt lat="50.4962" lon="3.75465">
        <ele>112.83</ele>
        <time>2020-11-08T10:49:11.000Z</time>
      </trkpt>
      <trkpt lat="50.49619" lon="3.75454">
        <ele>112.9</ele>
        <time>2020-11-08T10:49:12.000Z</time>
      </trkpt>
      <trkpt lat="50.49619" lon="3.75444">
        <ele>112.73</ele>
        <time>2020-11-08T10:49:13.000Z</time>
      </trkpt>
      <trkpt lat="50.49619" lon="3.75433">
        <ele>112.72</ele>
        <time>2020-11-08T10:49:14.000Z</time>
      </trkpt>
      <trkpt lat="50.49619" lon="3.75423">
        <ele>113.61</ele>
        <time>2020-11-08T10:49:15.000Z</time>
      </trkpt>
      <trkpt lat="50.49619" lon="3.75412">
        <ele>113.62</ele>
        <time>2020-11-08T10:49:16.000Z</time>
      </trkpt>
      <trkpt lat="50.49619" lon="3.75403">
        <ele>113.46</ele>
        <time>2020-11-08T10:49:17.000Z</time>
      </trkpt>
      <trkpt lat="50.49619" lon="3.75393">
        <ele>113.79</ele>
        <time>2020-11-08T10:49:18.000Z</time>
      </trkpt>
      <trkpt lat="50.49619" lon="3.75383">
        <ele>113.96</ele>
        <time>2020-11-08T10:49:19.000Z</time>
      </trkpt>
      <trkpt lat="50.49619" lon="3.75375">
        <ele>114.35</ele>
        <time>2020-11-08T10:49:20.000Z</time>
      </trkpt>
      <trkpt lat="50.4962" lon="3.75366">
        <ele>114.15</ele>
        <time>2020-11-08T10:49:21.000Z</time>
      </trkpt>
      <trkpt lat="50.4962" lon="3.75358">
        <ele>113.99</ele>
        <time>2020-11-08T10:49:22.000Z</time>
      </trkpt>
      <trkpt lat="50.4962" lon="3.75348">
        <ele>113.6</ele>
        <time>2020-11-08T10:49:23.000Z</time>
      </trkpt>
      <trkpt lat="50.4962" lon="3.75339">
        <ele>113.42</ele>
        <time>2020-11-08T10:49:24.000Z</time>
      </trkpt>
      <trkpt lat="50.4962" lon="3.75329">
        <ele>113.53</ele>
        <time>2020-11-08T10:49:25.000Z</time>
      </trkpt>
      <trkpt lat="50.4962" lon="3.7532">
        <ele>113.58</ele>
        <time>2020-11-08T10:49:26.000Z</time>
      </trkpt>
      <trkpt lat="50.4962" lon="3.75311">
        <ele>113.53</ele>
        <time>2020-11-08T10:49:27.000Z</time>
      </trkpt>
      <trkpt lat="50.4962" lon="3.75302">
        <ele>113.04</ele>
        <time>2020-11-08T10:49:28.000Z</time>
      </trkpt>
      <trkpt lat="50.49624" lon="3.75295">
        <ele>113.28</ele>
        <time>2020-11-08T10:49:29.000Z</time>
      </trkpt>
      <trkpt lat="50.49628" lon="3.75292">
        <ele>113.63</ele>
        <time>2020-11-08T10:49:30.000Z</time>
      </trkpt>
      <trkpt lat="50.49633" lon="3.7529">
        <ele>113.8</ele>
        <time>2020-11-08T10:49:31.000Z</time>
      </trkpt>
      <trkpt lat="50.49638" lon="3.7529">
        <ele>114.02</ele>
        <time>2020-11-08T10:49:32.000Z</time>
      </trkpt>
      <trkpt lat="50.49644" lon="3.7529">
        <ele>113.44</ele>
        <time>2020-11-08T10:49:33.000Z</time>
      </trkpt>
      <trkpt lat="50.49649" lon="3.7529">
        <ele>113.54</ele>
        <time>2020-11-08T10:49:34.000Z</time>
      </trkpt>
      <trkpt lat="50.49654" lon="3.75291">
        <ele>113.4</ele>
        <time>2020-11-08T10:49:35.000Z</time>
      </trkpt>
      <trkpt lat="50.4966" lon="3.75292">
        <ele>113.66</ele>
        <time>2020-11-08T10:49:36.000Z</time>
      </trkpt>
      <trkpt lat="50.49665" lon="3.75294">
        <ele>113.67</ele>
        <time>2020-11-08T10:49:37.000Z</time>
      </trkpt>
      <trkpt lat="50.4967" lon="3.75295">
        <ele>113.45</ele>
        <time>2020-11-08T10:49:38.000Z</time>
      </trkpt>
      <trkpt lat="50.49674" lon="3.75298">
        <ele>113.31</ele>
        <time>2020-11-08T10:49:39.000Z</time>
      </trkpt>
      <trkpt lat="50.4968" lon="3.75304">
        <ele>113.09</ele>
        <time>2020-11-08T10:49:41.000Z</time>
      </trkpt>
      <trkpt lat="50.49685" lon="3.7531">
        <ele>112.2</ele>
        <time>2020-11-08T10:49:43.000Z</time>
      </trkpt>
      <trkpt lat="50.4969" lon="3.75305">
        <ele>112.78</ele>
        <time>2020-11-08T10:49:45.000Z</time>
      </trkpt>
      <trkpt lat="50.49694" lon="3.75297">
        <ele>112.98</ele>
        <time>2020-11-08T10:49:47.000Z</time>
      </trkpt>
      <trkpt lat="50.49699" lon="3.75288">
        <ele>113.37</ele>
        <time>2020-11-08T10:49:49.000Z</time>
      </trkpt>
      <trkpt lat="50.49706" lon="3.75279">
        <ele>114.04</ele>
        <time>2020-11-08T10:49:51.000Z</time>
      </trkpt>
      <trkpt lat="50.4971" lon="3.75272">
        <ele>113.91</ele>
        <time>2020-11-08T10:49:52.000Z</time>
      </trkpt>
      <trkpt lat="50.49714" lon="3.75266">
        <ele>114.83</ele>
        <time>2020-11-08T10:49:53.000Z</time>
      </trkpt>
      <trkpt lat="50.49718" lon="3.75261">
        <ele>113.83</ele>
        <time>2020-11-08T10:49:54.000Z</time>
      </trkpt>
      <trkpt lat="50.49723" lon="3.75256">
        <ele>113.47</ele>
        <time>2020-11-08T10:49:55.000Z</time>
      </trkpt>
      <trkpt lat="50.49728" lon="3.75251">
        <ele>112.92</ele>
        <time>2020-11-08T10:49:56.000Z</time>
      </trkpt>
      <trkpt lat="50.49733" lon="3.75243">
        <ele>113.65</ele>
        <time>2020-11-08T10:49:57.000Z</time>
      </trkpt>
      <trkpt lat="50.49738" lon="3.75236">
        <ele>115</ele>
        <time>2020-11-08T10:49:58.000Z</time>
      </trkpt>
      <trkpt lat="50.49743" lon="3.7523">
        <ele>115.36</ele>
        <time>2020-11-08T10:49:59.000Z</time>
      </trkpt>
      <trkpt lat="50.49747" lon="3.75222">
        <ele>116.18</ele>
        <time>2020-11-08T10:50:00.000Z</time>
      </trkpt>
      <trkpt lat="50.49752" lon="3.75216">
        <ele>116.26</ele>
        <time>2020-11-08T10:50:01.000Z</time>
      </trkpt>
      <trkpt lat="50.49758" lon="3.75203">
        <ele>116.41</ele>
        <time>2020-11-08T10:50:03.000Z</time>
      </trkpt>
      <trkpt lat="50.49764" lon="3.75199">
        <ele>116.45</ele>
        <time>2020-11-08T10:50:04.000Z</time>
      </trkpt>
      <trkpt lat="50.49768" lon="3.75196">
        <ele>116.85</ele>
        <time>2020-11-08T10:50:05.000Z</time>
      </trkpt>
      <trkpt lat="50.49772" lon="3.75191">
        <ele>117.62</ele>
        <time>2020-11-08T10:50:06.000Z</time>
      </trkpt>
      <trkpt lat="50.49778" lon="3.75185">
        <ele>117.84</ele>
        <time>2020-11-08T10:50:07.000Z</time>
      </trkpt>
      <trkpt lat="50.49783" lon="3.75179">
        <ele>118.32</ele>
        <time>2020-11-08T10:50:08.000Z</time>
      </trkpt>
      <trkpt lat="50.49786" lon="3.75168">
        <ele>120.46</ele>
        <time>2020-11-08T10:50:10.000Z</time>
      </trkpt>
      <trkpt lat="50.49791" lon="3.75163">
        <ele>120.64</ele>
        <time>2020-11-08T10:50:11.000Z</time>
      </trkpt>
      <trkpt lat="50.49795" lon="3.75157">
        <ele>120.75</ele>
        <time>2020-11-08T10:50:12.000Z</time>
      </trkpt>
      <trkpt lat="50.498" lon="3.75151">
        <ele>120.47</ele>
        <time>2020-11-08T10:50:13.000Z</time>
      </trkpt>
      <trkpt lat="50.49804" lon="3.75145">
        <ele>119.92</ele>
        <time>2020-11-08T10:50:14.000Z</time>
      </trkpt>
      <trkpt lat="50.49807" lon="3.75138">
        <ele>119.98</ele>
        <time>2020-11-08T10:50:15.000Z</time>
      </trkpt>
      <trkpt lat="50.49812" lon="3.75132">
        <ele>119.66</ele>
        <time>2020-11-08T10:50:16.000Z</time>
      </trkpt>
      <trkpt lat="50.49817" lon="3.75127">
        <ele>118.09</ele>
        <time>2020-11-08T10:50:17.000Z</time>
      </trkpt>
      <trkpt lat="50.49822" lon="3.7512">
        <ele>118.44</ele>
        <time>2020-11-08T10:50:18.000Z</time>
      </trkpt>
      <trkpt lat="50.49828" lon="3.75115">
        <ele>120</ele>
        <time>2020-11-08T10:50:19.000Z</time>
      </trkpt>
      <trkpt lat="50.49833" lon="3.75109">
        <ele>119.85</ele>
        <time>2020-11-08T10:50:20.000Z</time>
      </trkpt>
      <trkpt lat="50.49838" lon="3.75104">
        <ele>120.75</ele>
        <time>2020-11-08T10:50:21.000Z</time>
      </trkpt>
      <trkpt lat="50.49842" lon="3.75099">
        <ele>121.17</ele>
        <time>2020-11-08T10:50:22.000Z</time>
      </trkpt>
      <trkpt lat="50.49846" lon="3.75095">
        <ele>121.07</ele>
        <time>2020-11-08T10:50:23.000Z</time>
      </trkpt>
      <trkpt lat="50.49849" lon="3.75089">
        <ele>121.6</ele>
        <time>2020-11-08T10:50:24.000Z</time>
      </trkpt>
      <trkpt lat="50.49855" lon="3.75079">
        <ele>120.57</ele>
        <time>2020-11-08T10:50:26.000Z</time>
      </trkpt>
      <trkpt lat="50.49862" lon="3.7507">
        <ele>119.37</ele>
        <time>2020-11-08T10:50:28.000Z</time>
      </trkpt>
      <trkpt lat="50.49866" lon="3.75065">
        <ele>118.7</ele>
        <time>2020-11-08T10:50:29.000Z</time>
      </trkpt>
      <trkpt lat="50.4987" lon="3.75059">
        <ele>116.96</ele>
        <time>2020-11-08T10:50:30.000Z</time>
      </trkpt>
      <trkpt lat="50.49876" lon="3.75054">
        <ele>118.08</ele>
        <time>2020-11-08T10:50:31.000Z</time>
      </trkpt>
      <trkpt lat="50.4988" lon="3.75047">
        <ele>118.69</ele>
        <time>2020-11-08T10:50:32.000Z</time>
      </trkpt>
      <trkpt lat="50.49888" lon="3.75037">
        <ele>121.01</ele>
        <time>2020-11-08T10:50:34.000Z</time>
      </trkpt>
      <trkpt lat="50.49891" lon="3.75032">
        <ele>122.54</ele>
        <time>2020-11-08T10:50:35.000Z</time>
      </trkpt>
      <trkpt lat="50.49895" lon="3.75022">
        <ele>123.63</ele>
        <time>2020-11-08T10:50:37.000Z</time>
      </trkpt>
      <trkpt lat="50.49899" lon="3.75016">
        <ele>124.13</ele>
        <time>2020-11-08T10:50:38.000Z</time>
      </trkpt>
      <trkpt lat="50.49902" lon="3.7501">
        <ele>123.76</ele>
        <time>2020-11-08T10:50:39.000Z</time>
      </trkpt>
      <trkpt lat="50.49909" lon="3.74999">
        <ele>123.4</ele>
        <time>2020-11-08T10:50:41.000Z</time>
      </trkpt>
      <trkpt lat="50.49918" lon="3.74989">
        <ele>124.24</ele>
        <time>2020-11-08T10:50:43.000Z</time>
      </trkpt>
      <trkpt lat="50.49922" lon="3.74985">
        <ele>123.86</ele>
        <time>2020-11-08T10:50:44.000Z</time>
      </trkpt>
      <trkpt lat="50.49926" lon="3.74978">
        <ele>123.64</ele>
        <time>2020-11-08T10:50:45.000Z</time>
      </trkpt>
      <trkpt lat="50.49932" lon="3.74967">
        <ele>121</ele>
        <time>2020-11-08T10:50:47.000Z</time>
      </trkpt>
      <trkpt lat="50.49937" lon="3.74954">
        <ele>123.46</ele>
        <time>2020-11-08T10:50:49.000Z</time>
      </trkpt>
      <trkpt lat="50.49942" lon="3.74946">
        <ele>123.55</ele>
        <time>2020-11-08T10:50:51.000Z</time>
      </trkpt>
      <trkpt lat="50.49947" lon="3.74935">
        <ele>123.48</ele>
        <time>2020-11-08T10:50:53.000Z</time>
      </trkpt>
      <trkpt lat="50.49951" lon="3.7493">
        <ele>123.72</ele>
        <time>2020-11-08T10:50:54.000Z</time>
      </trkpt>
      <trkpt lat="50.49957" lon="3.7492">
        <ele>122.54</ele>
        <time>2020-11-08T10:50:56.000Z</time>
      </trkpt>
      <trkpt lat="50.49964" lon="3.74915">
        <ele>122.15</ele>
        <time>2020-11-08T10:50:58.000Z</time>
      </trkpt>
      <trkpt lat="50.49969" lon="3.7491">
        <ele>122.3</ele>
        <time>2020-11-08T10:50:59.000Z</time>
      </trkpt>
      <trkpt lat="50.49974" lon="3.74905">
        <ele>122.59</ele>
        <time>2020-11-08T10:51:00.000Z</time>
      </trkpt>
      <trkpt lat="50.49977" lon="3.74899">
        <ele>121.78</ele>
        <time>2020-11-08T10:51:01.000Z</time>
      </trkpt>
      <trkpt lat="50.4998" lon="3.74893">
        <ele>121.86</ele>
        <time>2020-11-08T10:51:02.000Z</time>
      </trkpt>
      <trkpt lat="50.49987" lon="3.74883">
        <ele>122.62</ele>
        <time>2020-11-08T10:51:04.000Z</time>
      </trkpt>
      <trkpt lat="50.49991" lon="3.74877">
        <ele>122.81</ele>
        <time>2020-11-08T10:51:05.000Z</time>
      </trkpt>
      <trkpt lat="50.49995" lon="3.74871">
        <ele>123.44</ele>
        <time>2020-11-08T10:51:06.000Z</time>
      </trkpt>
      <trkpt lat="50.49999" lon="3.74865">
        <ele>123.4</ele>
        <time>2020-11-08T10:51:07.000Z</time>
      </trkpt>
      <trkpt lat="50.50003" lon="3.74859">
        <ele>123.51</ele>
        <time>2020-11-08T10:51:08.000Z</time>
      </trkpt>
      <trkpt lat="50.50006" lon="3.74853">
        <ele>123.89</ele>
        <time>2020-11-08T10:51:09.000Z</time>
      </trkpt>
      <trkpt lat="50.5001" lon="3.74849">
        <ele>123.71</ele>
        <time>2020-11-08T10:51:10.000Z</time>
      </trkpt>
      <trkpt lat="50.50014" lon="3.74843">
        <ele>123.57</ele>
        <time>2020-11-08T10:51:11.000Z</time>
      </trkpt>
      <trkpt lat="50.5002" lon="3.74833">
        <ele>123.49</ele>
        <time>2020-11-08T10:51:13.000Z</time>
      </trkpt>
      <trkpt lat="50.50024" lon="3.74828">
        <ele>123.65</ele>
        <time>2020-11-08T10:51:14.000Z</time>
      </trkpt>
      <trkpt lat="50.50028" lon="3.74824">
        <ele>123.93</ele>
        <time>2020-11-08T10:51:15.000Z</time>
      </trkpt>
      <trkpt lat="50.50033" lon="3.74818">
        <ele>124.65</ele>
        <time>2020-11-08T10:51:16.000Z</time>
      </trkpt>
      <trkpt lat="50.50037" lon="3.74813">
        <ele>125.23</ele>
        <time>2020-11-08T10:51:17.000Z</time>
      </trkpt>
      <trkpt lat="50.50041" lon="3.74809">
        <ele>125.3</ele>
        <time>2020-11-08T10:51:18.000Z</time>
      </trkpt>
      <trkpt lat="50.50043" lon="3.74801">
        <ele>124.59</ele>
        <time>2020-11-08T10:51:19.000Z</time>
      </trkpt>
      <trkpt lat="50.50046" lon="3.74795">
        <ele>124.14</ele>
        <time>2020-11-08T10:51:20.000Z</time>
      </trkpt>
      <trkpt lat="50.50049" lon="3.74789">
        <ele>124.31</ele>
        <time>2020-11-08T10:51:21.000Z</time>
      </trkpt>
      <trkpt lat="50.50053" lon="3.74786">
        <ele>124.51</ele>
        <time>2020-11-08T10:51:22.000Z</time>
      </trkpt>
      <trkpt lat="50.5006" lon="3.7478">
        <ele>125.6</ele>
        <time>2020-11-08T10:51:24.000Z</time>
      </trkpt>
      <trkpt lat="50.50064" lon="3.74775">
        <ele>126.6</ele>
        <time>2020-11-08T10:51:25.000Z</time>
      </trkpt>
      <trkpt lat="50.50067" lon="3.7477">
        <ele>127.4</ele>
        <time>2020-11-08T10:51:26.000Z</time>
      </trkpt>
      <trkpt lat="50.50073" lon="3.74759">
        <ele>129.17</ele>
        <time>2020-11-08T10:51:28.000Z</time>
      </trkpt>
      <trkpt lat="50.5008" lon="3.7475">
        <ele>129.88</ele>
        <time>2020-11-08T10:51:30.000Z</time>
      </trkpt>
      <trkpt lat="50.50086" lon="3.74742">
        <ele>129.75</ele>
        <time>2020-11-08T10:51:32.000Z</time>
      </trkpt>
      <trkpt lat="50.50091" lon="3.74734">
        <ele>130.35</ele>
        <time>2020-11-08T10:51:34.000Z</time>
      </trkpt>
      <trkpt lat="50.50098" lon="3.74726">
        <ele>130.67</ele>
        <time>2020-11-08T10:51:36.000Z</time>
      </trkpt>
      <trkpt lat="50.50102" lon="3.74721">
        <ele>130.9</ele>
        <time>2020-11-08T10:51:37.000Z</time>
      </trkpt>
      <trkpt lat="50.50109" lon="3.74714">
        <ele>130.65</ele>
        <time>2020-11-08T10:51:39.000Z</time>
      </trkpt>
      <trkpt lat="50.50115" lon="3.74709">
        <ele>132.33</ele>
        <time>2020-11-08T10:51:41.000Z</time>
      </trkpt>
      <trkpt lat="50.5012" lon="3.74702">
        <ele>132.69</ele>
        <time>2020-11-08T10:51:43.000Z</time>
      </trkpt>
      <trkpt lat="50.50125" lon="3.74694">
        <ele>129.52</ele>
        <time>2020-11-08T10:51:45.000Z</time>
      </trkpt>
      <trkpt lat="50.50129" lon="3.74689">
        <ele>128.98</ele>
        <time>2020-11-08T10:51:46.000Z</time>
      </trkpt>
      <trkpt lat="50.50136" lon="3.74682">
        <ele>129.27</ele>
        <time>2020-11-08T10:51:48.000Z</time>
      </trkpt>
      <trkpt lat="50.50141" lon="3.74675">
        <ele>127.23</ele>
        <time>2020-11-08T10:51:51.000Z</time>
      </trkpt>
      <trkpt lat="50.50147" lon="3.74668">
        <ele>128.44</ele>
        <time>2020-11-08T10:51:54.000Z</time>
      </trkpt>
      <trkpt lat="50.50148" lon="3.7466">
        <ele>132.45</ele>
        <time>2020-11-08T10:52:02.000Z</time>
      </trkpt>
      <trkpt lat="50.50152" lon="3.74656">
        <ele>130.77</ele>
        <time>2020-11-08T10:52:04.000Z</time>
      </trkpt>
      <trkpt lat="50.50157" lon="3.7465">
        <ele>129.99</ele>
        <time>2020-11-08T10:52:06.000Z</time>
      </trkpt>
      <trkpt lat="50.50172" lon="3.74636">
        <ele>131.67</ele>
        <time>2020-11-08T10:52:09.000Z</time>
      </trkpt>
      <trkpt lat="50.50177" lon="3.74632">
        <ele>132.52</ele>
        <time>2020-11-08T10:52:10.000Z</time>
      </trkpt>
      <trkpt lat="50.50182" lon="3.74629">
        <ele>133.46</ele>
        <time>2020-11-08T10:52:11.000Z</time>
      </trkpt>
      <trkpt lat="50.50185" lon="3.74623">
        <ele>133.87</ele>
        <time>2020-11-08T10:52:12.000Z</time>
      </trkpt>
      <trkpt lat="50.50192" lon="3.74615">
        <ele>132.95</ele>
        <time>2020-11-08T10:52:14.000Z</time>
      </trkpt>
      <trkpt lat="50.50199" lon="3.74607">
        <ele>132.48</ele>
        <time>2020-11-08T10:52:16.000Z</time>
      </trkpt>
      <trkpt lat="50.50205" lon="3.74599">
        <ele>131.19</ele>
        <time>2020-11-08T10:52:18.000Z</time>
      </trkpt>
      <trkpt lat="50.50209" lon="3.74592">
        <ele>131.86</ele>
        <time>2020-11-08T10:52:19.000Z</time>
      </trkpt>
      <trkpt lat="50.50212" lon="3.74586">
        <ele>132.04</ele>
        <time>2020-11-08T10:52:20.000Z</time>
      </trkpt>
      <trkpt lat="50.50213" lon="3.74578">
        <ele>132.62</ele>
        <time>2020-11-08T10:52:21.000Z</time>
      </trkpt>
      <trkpt lat="50.50215" lon="3.74571">
        <ele>133.05</ele>
        <time>2020-11-08T10:52:22.000Z</time>
      </trkpt>
      <trkpt lat="50.50218" lon="3.74562">
        <ele>132.32</ele>
        <time>2020-11-08T10:52:24.000Z</time>
      </trkpt>
      <trkpt lat="50.50221" lon="3.74556">
        <ele>132.68</ele>
        <time>2020-11-08T10:52:26.000Z</time>
      </trkpt>
      <trkpt lat="50.50224" lon="3.7455">
        <ele>132.17</ele>
        <time>2020-11-08T10:52:29.000Z</time>
      </trkpt>
      <trkpt lat="50.50224" lon="3.7455">
        <ele>132.17</ele>
        <time>2020-11-08T10:52:29.001Z</time>
      </trkpt>
      <trkpt lat="50.50223" lon="3.74543">
        <ele>132.61</ele>
        <time>2020-11-08T10:54:05.000Z</time>
      </trkpt>
      <trkpt lat="50.50218" lon="3.74536">
        <ele>131.67</ele>
        <time>2020-11-08T10:54:07.000Z</time>
      </trkpt>
      <trkpt lat="50.50214" lon="3.74531">
        <ele>131.66</ele>
        <time>2020-11-08T10:54:09.000Z</time>
      </trkpt>
      <trkpt lat="50.5021" lon="3.74525">
        <ele>130.11</ele>
        <time>2020-11-08T10:54:11.000Z</time>
      </trkpt>
      <trkpt lat="50.50202" lon="3.74517">
        <ele>129.99</ele>
        <time>2020-11-08T10:54:13.000Z</time>
      </trkpt>
      <trkpt lat="50.50198" lon="3.74513">
        <ele>130.61</ele>
        <time>2020-11-08T10:54:14.000Z</time>
      </trkpt>
      <trkpt lat="50.50193" lon="3.74508">
        <ele>131.03</ele>
        <time>2020-11-08T10:54:15.000Z</time>
      </trkpt>
      <trkpt lat="50.50188" lon="3.74504">
        <ele>130.7</ele>
        <time>2020-11-08T10:54:16.000Z</time>
      </trkpt>
      <trkpt lat="50.50184" lon="3.74499">
        <ele>131.25</ele>
        <time>2020-11-08T10:54:17.000Z</time>
      </trkpt>
      <trkpt lat="50.50178" lon="3.74495">
        <ele>130.88</ele>
        <time>2020-11-08T10:54:18.000Z</time>
      </trkpt>
      <trkpt lat="50.50172" lon="3.7449">
        <ele>130.02</ele>
        <time>2020-11-08T10:54:19.000Z</time>
      </trkpt>
      <trkpt lat="50.50167" lon="3.74487">
        <ele>130.37</ele>
        <time>2020-11-08T10:54:20.000Z</time>
      </trkpt>
      <trkpt lat="50.50161" lon="3.74483">
        <ele>132.09</ele>
        <time>2020-11-08T10:54:21.000Z</time>
      </trkpt>
      <trkpt lat="50.50156" lon="3.74478">
        <ele>132.1</ele>
        <time>2020-11-08T10:54:22.000Z</time>
      </trkpt>
      <trkpt lat="50.50152" lon="3.74473">
        <ele>131.92</ele>
        <time>2020-11-08T10:54:23.000Z</time>
      </trkpt>
      <trkpt lat="50.50147" lon="3.74468">
        <ele>131.12</ele>
        <time>2020-11-08T10:54:24.000Z</time>
      </trkpt>
      <trkpt lat="50.50143" lon="3.74462">
        <ele>129.81</ele>
        <time>2020-11-08T10:54:25.000Z</time>
      </trkpt>
      <trkpt lat="50.50139" lon="3.74457">
        <ele>129.53</ele>
        <time>2020-11-08T10:54:26.000Z</time>
      </trkpt>
      <trkpt lat="50.50134" lon="3.7445">
        <ele>129.88</ele>
        <time>2020-11-08T10:54:27.000Z</time>
      </trkpt>
      <trkpt lat="50.50128" lon="3.74446">
        <ele>129.86</ele>
        <time>2020-11-08T10:54:28.000Z</time>
      </trkpt>
      <trkpt lat="50.50125" lon="3.74439">
        <ele>130.09</ele>
        <time>2020-11-08T10:54:29.000Z</time>
      </trkpt>
      <trkpt lat="50.50121" lon="3.74432">
        <ele>130.01</ele>
        <time>2020-11-08T10:54:30.000Z</time>
      </trkpt>
      <trkpt lat="50.50118" lon="3.74426">
        <ele>129.92</ele>
        <time>2020-11-08T10:54:31.000Z</time>
      </trkpt>
      <trkpt lat="50.50113" lon="3.7442">
        <ele>128.81</ele>
        <time>2020-11-08T10:54:32.000Z</time>
      </trkpt>
      <trkpt lat="50.50107" lon="3.74412">
        <ele>128.77</ele>
        <time>2020-11-08T10:54:33.000Z</time>
      </trkpt>
      <trkpt lat="50.50104" lon="3.74404">
        <ele>128.78</ele>
        <time>2020-11-08T10:54:34.000Z</time>
      </trkpt>
      <trkpt lat="50.50099" lon="3.74396">
        <ele>130.84</ele>
        <time>2020-11-08T10:54:35.000Z</time>
      </trkpt>
      <trkpt lat="50.50094" lon="3.74389">
        <ele>131.61</ele>
        <time>2020-11-08T10:54:36.000Z</time>
      </trkpt>
      <trkpt lat="50.50089" lon="3.74383">
        <ele>131.2</ele>
        <time>2020-11-08T10:54:37.000Z</time>
      </trkpt>
      <trkpt lat="50.50084" lon="3.74376">
        <ele>129.99</ele>
        <time>2020-11-08T10:54:38.000Z</time>
      </trkpt>
      <trkpt lat="50.5008" lon="3.74367">
        <ele>129.52</ele>
        <time>2020-11-08T10:54:39.000Z</time>
      </trkpt>
      <trkpt lat="50.50075" lon="3.74358">
        <ele>129.38</ele>
        <time>2020-11-08T10:54:40.000Z</time>
      </trkpt>
      <trkpt lat="50.5007" lon="3.74352">
        <ele>128.38</ele>
        <time>2020-11-08T10:54:41.000Z</time>
      </trkpt>
      <trkpt lat="50.50066" lon="3.74343">
        <ele>128.03</ele>
        <time>2020-11-08T10:54:42.000Z</time>
      </trkpt>
      <trkpt lat="50.50062" lon="3.74335">
        <ele>127.11</ele>
        <time>2020-11-08T10:54:43.000Z</time>
      </trkpt>
      <trkpt lat="50.50059" lon="3.74325">
        <ele>127.86</ele>
        <time>2020-11-08T10:54:44.000Z</time>
      </trkpt>
      <trkpt lat="50.50055" lon="3.74315">
        <ele>129.06</ele>
        <time>2020-11-08T10:54:45.000Z</time>
      </trkpt>
      <trkpt lat="50.5005" lon="3.74308">
        <ele>129.76</ele>
        <time>2020-11-08T10:54:46.000Z</time>
      </trkpt>
      <trkpt lat="50.50046" lon="3.74301">
        <ele>129.64</ele>
        <time>2020-11-08T10:54:47.000Z</time>
      </trkpt>
      <trkpt lat="50.50042" lon="3.74293">
        <ele>130.86</ele>
        <time>2020-11-08T10:54:48.000Z</time>
      </trkpt>
      <trkpt lat="50.50038" lon="3.74286">
        <ele>129.33</ele>
        <time>2020-11-08T10:54:49.000Z</time>
      </trkpt>
      <trkpt lat="50.50034" lon="3.74278">
        <ele>130.13</ele>
        <time>2020-11-08T10:54:50.000Z</time>
      </trkpt>
      <trkpt lat="50.50031" lon="3.7427">
        <ele>129.98</ele>
        <time>2020-11-08T10:54:51.000Z</time>
      </trkpt>
      <trkpt lat="50.50027" lon="3.74262">
        <ele>129.95</ele>
        <time>2020-11-08T10:54:52.000Z</time>
      </trkpt>
      <trkpt lat="50.50022" lon="3.74254">
        <ele>129.55</ele>
        <time>2020-11-08T10:54:53.000Z</time>
      </trkpt>
      <trkpt lat="50.50017" lon="3.74247">
        <ele>128.88</ele>
        <time>2020-11-08T10:54:54.000Z</time>
      </trkpt>
      <trkpt lat="50.50012" lon="3.74241">
        <ele>126.94</ele>
        <time>2020-11-08T10:54:55.000Z</time>
      </trkpt>
      <trkpt lat="50.50008" lon="3.74233">
        <ele>126.33</ele>
        <time>2020-11-08T10:54:56.000Z</time>
      </trkpt>
      <trkpt lat="50.50004" lon="3.74226">
        <ele>126.16</ele>
        <time>2020-11-08T10:54:57.000Z</time>
      </trkpt>
      <trkpt lat="50.49999" lon="3.74218">
        <ele>126.84</ele>
        <time>2020-11-08T10:54:58.000Z</time>
      </trkpt>
      <trkpt lat="50.49995" lon="3.74211">
        <ele>125.7</ele>
        <time>2020-11-08T10:54:59.000Z</time>
      </trkpt>
      <trkpt lat="50.49989" lon="3.74201">
        <ele>126.13</ele>
        <time>2020-11-08T10:55:00.000Z</time>
      </trkpt>
      <trkpt lat="50.49983" lon="3.74191">
        <ele>125.9</ele>
        <time>2020-11-08T10:55:01.000Z</time>
      </trkpt>
      <trkpt lat="50.49977" lon="3.74181">
        <ele>126</ele>
        <time>2020-11-08T10:55:02.000Z</time>
      </trkpt>
      <trkpt lat="50.49972" lon="3.7417">
        <ele>126.14</ele>
        <time>2020-11-08T10:55:03.000Z</time>
      </trkpt>
      <trkpt lat="50.49957" lon="3.74153">
        <ele>123.51</ele>
        <time>2020-11-08T10:55:05.000Z</time>
      </trkpt>
      <trkpt lat="50.4995" lon="3.74144">
        <ele>123.56</ele>
        <time>2020-11-08T10:55:06.000Z</time>
      </trkpt>
      <trkpt lat="50.49943" lon="3.74135">
        <ele>123.82</ele>
        <time>2020-11-08T10:55:07.000Z</time>
      </trkpt>
      <trkpt lat="50.49939" lon="3.74127">
        <ele>122.56</ele>
        <time>2020-11-08T10:55:08.000Z</time>
      </trkpt>
      <trkpt lat="50.49933" lon="3.74119">
        <ele>122.69</ele>
        <time>2020-11-08T10:55:09.000Z</time>
      </trkpt>
      <trkpt lat="50.4993" lon="3.74109">
        <ele>122.97</ele>
        <time>2020-11-08T10:55:10.000Z</time>
      </trkpt>
      <trkpt lat="50.49927" lon="3.74101">
        <ele>122.41</ele>
        <time>2020-11-08T10:55:11.000Z</time>
      </trkpt>
      <trkpt lat="50.49921" lon="3.74094">
        <ele>123.07</ele>
        <time>2020-11-08T10:55:12.000Z</time>
      </trkpt>
      <trkpt lat="50.49915" lon="3.7409">
        <ele>123.48</ele>
        <time>2020-11-08T10:55:13.000Z</time>
      </trkpt>
      <trkpt lat="50.49908" lon="3.74087">
        <ele>123.24</ele>
        <time>2020-11-08T10:55:14.000Z</time>
      </trkpt>
      <trkpt lat="50.49901" lon="3.74083">
        <ele>123.03</ele>
        <time>2020-11-08T10:55:15.000Z</time>
      </trkpt>
      <trkpt lat="50.49895" lon="3.74078">
        <ele>121.86</ele>
        <time>2020-11-08T10:55:16.000Z</time>
      </trkpt>
      <trkpt lat="50.49888" lon="3.74074">
        <ele>122.28</ele>
        <time>2020-11-08T10:55:17.000Z</time>
      </trkpt>
      <trkpt lat="50.49882" lon="3.74069">
        <ele>122.57</ele>
        <time>2020-11-08T10:55:18.000Z</time>
      </trkpt>
      <trkpt lat="50.49875" lon="3.74065">
        <ele>123.13</ele>
        <time>2020-11-08T10:55:19.000Z</time>
      </trkpt>
      <trkpt lat="50.49869" lon="3.74062">
        <ele>122.34</ele>
        <time>2020-11-08T10:55:20.000Z</time>
      </trkpt>
      <trkpt lat="50.49863" lon="3.74058">
        <ele>120.16</ele>
        <time>2020-11-08T10:55:21.000Z</time>
      </trkpt>
      <trkpt lat="50.49856" lon="3.74054">
        <ele>121.25</ele>
        <time>2020-11-08T10:55:22.000Z</time>
      </trkpt>
      <trkpt lat="50.49851" lon="3.7405">
        <ele>122.36</ele>
        <time>2020-11-08T10:55:23.000Z</time>
      </trkpt>
      <trkpt lat="50.49846" lon="3.74046">
        <ele>122.18</ele>
        <time>2020-11-08T10:55:24.000Z</time>
      </trkpt>
      <trkpt lat="50.49841" lon="3.74044">
        <ele>123.16</ele>
        <time>2020-11-08T10:55:25.000Z</time>
      </trkpt>
      <trkpt lat="50.49835" lon="3.74041">
        <ele>123.82</ele>
        <time>2020-11-08T10:55:26.000Z</time>
      </trkpt>
      <trkpt lat="50.4983" lon="3.74037">
        <ele>123.96</ele>
        <time>2020-11-08T10:55:27.000Z</time>
      </trkpt>
      <trkpt lat="50.49824" lon="3.74033">
        <ele>124.39</ele>
        <time>2020-11-08T10:55:28.000Z</time>
      </trkpt>
      <trkpt lat="50.49819" lon="3.7403">
        <ele>124.79</ele>
        <time>2020-11-08T10:55:29.000Z</time>
      </trkpt>
      <trkpt lat="50.49813" lon="3.74026">
        <ele>123.84</ele>
        <time>2020-11-08T10:55:30.000Z</time>
      </trkpt>
      <trkpt lat="50.49807" lon="3.74021">
        <ele>124.17</ele>
        <time>2020-11-08T10:55:31.000Z</time>
      </trkpt>
      <trkpt lat="50.49802" lon="3.74016">
        <ele>123.73</ele>
        <time>2020-11-08T10:55:32.000Z</time>
      </trkpt>
      <trkpt lat="50.49796" lon="3.7401">
        <ele>123.46</ele>
        <time>2020-11-08T10:55:33.000Z</time>
      </trkpt>
      <trkpt lat="50.49792" lon="3.74004">
        <ele>124.7</ele>
        <time>2020-11-08T10:55:34.000Z</time>
      </trkpt>
      <trkpt lat="50.49786" lon="3.73998">
        <ele>124.34</ele>
        <time>2020-11-08T10:55:35.000Z</time>
      </trkpt>
      <trkpt lat="50.49782" lon="3.7399">
        <ele>124.32</ele>
        <time>2020-11-08T10:55:36.000Z</time>
      </trkpt>
      <trkpt lat="50.49778" lon="3.73982">
        <ele>124.06</ele>
        <time>2020-11-08T10:55:37.000Z</time>
      </trkpt>
      <trkpt lat="50.49775" lon="3.73973">
        <ele>123.82</ele>
        <time>2020-11-08T10:55:38.000Z</time>
      </trkpt>
      <trkpt lat="50.49771" lon="3.73966">
        <ele>123.51</ele>
        <time>2020-11-08T10:55:39.000Z</time>
      </trkpt>
      <trkpt lat="50.49768" lon="3.73958">
        <ele>124.05</ele>
        <time>2020-11-08T10:55:40.000Z</time>
      </trkpt>
      <trkpt lat="50.49763" lon="3.73951">
        <ele>123.81</ele>
        <time>2020-11-08T10:55:41.000Z</time>
      </trkpt>
      <trkpt lat="50.49758" lon="3.73944">
        <ele>124.2</ele>
        <time>2020-11-08T10:55:42.000Z</time>
      </trkpt>
      <trkpt lat="50.49755" lon="3.73937">
        <ele>123.7</ele>
        <time>2020-11-08T10:55:43.000Z</time>
      </trkpt>
      <trkpt lat="50.49751" lon="3.73929">
        <ele>123.24</ele>
        <time>2020-11-08T10:55:44.000Z</time>
      </trkpt>
      <trkpt lat="50.49747" lon="3.73922">
        <ele>123.36</ele>
        <time>2020-11-08T10:55:45.000Z</time>
      </trkpt>
      <trkpt lat="50.49745" lon="3.73913">
        <ele>122.99</ele>
        <time>2020-11-08T10:55:46.000Z</time>
      </trkpt>
      <trkpt lat="50.4974" lon="3.73905">
        <ele>123.25</ele>
        <time>2020-11-08T10:55:47.000Z</time>
      </trkpt>
      <trkpt lat="50.49736" lon="3.73898">
        <ele>123.6</ele>
        <time>2020-11-08T10:55:48.000Z</time>
      </trkpt>
      <trkpt lat="50.49732" lon="3.73891">
        <ele>123.44</ele>
        <time>2020-11-08T10:55:49.000Z</time>
      </trkpt>
      <trkpt lat="50.49729" lon="3.73883">
        <ele>123.33</ele>
        <time>2020-11-08T10:55:50.000Z</time>
      </trkpt>
      <trkpt lat="50.49725" lon="3.73876">
        <ele>123.72</ele>
        <time>2020-11-08T10:55:51.000Z</time>
      </trkpt>
      <trkpt lat="50.49721" lon="3.73868">
        <ele>123.67</ele>
        <time>2020-11-08T10:55:52.000Z</time>
      </trkpt>
      <trkpt lat="50.49717" lon="3.7386">
        <ele>123.8</ele>
        <time>2020-11-08T10:55:53.000Z</time>
      </trkpt>
      <trkpt lat="50.49714" lon="3.73852">
        <ele>123.01</ele>
        <time>2020-11-08T10:55:54.000Z</time>
      </trkpt>
      <trkpt lat="50.49711" lon="3.73844">
        <ele>123.01</ele>
        <time>2020-11-08T10:55:55.000Z</time>
      </trkpt>
      <trkpt lat="50.49707" lon="3.73836">
        <ele>122.84</ele>
        <time>2020-11-08T10:55:56.000Z</time>
      </trkpt>
      <trkpt lat="50.49704" lon="3.73829">
        <ele>123.41</ele>
        <time>2020-11-08T10:55:57.000Z</time>
      </trkpt>
      <trkpt lat="50.497" lon="3.73821">
        <ele>123.39</ele>
        <time>2020-11-08T10:55:58.000Z</time>
      </trkpt>
      <trkpt lat="50.49696" lon="3.73814">
        <ele>123.22</ele>
        <time>2020-11-08T10:55:59.000Z</time>
      </trkpt>
      <trkpt lat="50.49693" lon="3.73808">
        <ele>123.39</ele>
        <time>2020-11-08T10:56:00.000Z</time>
      </trkpt>
      <trkpt lat="50.4969" lon="3.73801">
        <ele>123.4</ele>
        <time>2020-11-08T10:56:01.000Z</time>
      </trkpt>
      <trkpt lat="50.49682" lon="3.73795">
        <ele>123.09</ele>
        <time>2020-11-08T10:56:03.000Z</time>
      </trkpt>
      <trkpt lat="50.49678" lon="3.73784">
        <ele>123.24</ele>
        <time>2020-11-08T10:56:05.000Z</time>
      </trkpt>
      <trkpt lat="50.49673" lon="3.73775">
        <ele>122.98</ele>
        <time>2020-11-08T10:56:07.000Z</time>
      </trkpt>
      <trkpt lat="50.4967" lon="3.73768">
        <ele>122.37</ele>
        <time>2020-11-08T10:56:09.000Z</time>
      </trkpt>
      <trkpt lat="50.49669" lon="3.73761">
        <ele>122.06</ele>
        <time>2020-11-08T10:56:12.000Z</time>
      </trkpt>
      <trkpt lat="50.49669" lon="3.73761">
        <ele>122.06</ele>
        <time>2020-11-08T10:56:12.001Z</time>
      </trkpt>
      <trkpt lat="50.49669" lon="3.73749">
        <ele>121.7</ele>
        <time>2020-11-08T10:56:40.000Z</time>
      </trkpt>
      <trkpt lat="50.49671" lon="3.73735">
        <ele>121.35</ele>
        <time>2020-11-08T10:56:42.000Z</time>
      </trkpt>
      <trkpt lat="50.49674" lon="3.73722">
        <ele>121.98</ele>
        <time>2020-11-08T10:56:44.000Z</time>
      </trkpt>
      <trkpt lat="50.49675" lon="3.73714">
        <ele>122.19</ele>
        <time>2020-11-08T10:56:45.000Z</time>
      </trkpt>
      <trkpt lat="50.49676" lon="3.73707">
        <ele>122.3</ele>
        <time>2020-11-08T10:56:46.000Z</time>
      </trkpt>
      <trkpt lat="50.49677" lon="3.73699">
        <ele>122.38</ele>
        <time>2020-11-08T10:56:47.000Z</time>
      </trkpt>
      <trkpt lat="50.49679" lon="3.7369">
        <ele>121.69</ele>
        <time>2020-11-08T10:56:48.000Z</time>
      </trkpt>
      <trkpt lat="50.4968" lon="3.73682">
        <ele>121.71</ele>
        <time>2020-11-08T10:56:49.000Z</time>
      </trkpt>
      <trkpt lat="50.4968" lon="3.73672">
        <ele>121.75</ele>
        <time>2020-11-08T10:56:50.000Z</time>
      </trkpt>
      <trkpt lat="50.49681" lon="3.73666">
        <ele>120.73</ele>
        <time>2020-11-08T10:56:51.000Z</time>
      </trkpt>
      <trkpt lat="50.49682" lon="3.73656">
        <ele>120.61</ele>
        <time>2020-11-08T10:56:52.000Z</time>
      </trkpt>
      <trkpt lat="50.49684" lon="3.73647">
        <ele>121.18</ele>
        <time>2020-11-08T10:56:53.000Z</time>
      </trkpt>
      <trkpt lat="50.49686" lon="3.73638">
        <ele>121.16</ele>
        <time>2020-11-08T10:56:54.000Z</time>
      </trkpt>
      <trkpt lat="50.49689" lon="3.7363">
        <ele>120.72</ele>
        <time>2020-11-08T10:56:55.000Z</time>
      </trkpt>
      <trkpt lat="50.49689" lon="3.73618">
        <ele>120.98</ele>
        <time>2020-11-08T10:56:56.000Z</time>
      </trkpt>
      <trkpt lat="50.4969" lon="3.73609">
        <ele>121.15</ele>
        <time>2020-11-08T10:56:57.000Z</time>
      </trkpt>
      <trkpt lat="50.4969" lon="3.73601">
        <ele>120.93</ele>
        <time>2020-11-08T10:56:58.000Z</time>
      </trkpt>
      <trkpt lat="50.49692" lon="3.73591">
        <ele>120.78</ele>
        <time>2020-11-08T10:56:59.000Z</time>
      </trkpt>
      <trkpt lat="50.49694" lon="3.73583">
        <ele>121.73</ele>
        <time>2020-11-08T10:57:00.000Z</time>
      </trkpt>
      <trkpt lat="50.49697" lon="3.73575">
        <ele>122.36</ele>
        <time>2020-11-08T10:57:01.000Z</time>
      </trkpt>
      <trkpt lat="50.49701" lon="3.73567">
        <ele>122.19</ele>
        <time>2020-11-08T10:57:02.000Z</time>
      </trkpt>
      <trkpt lat="50.49704" lon="3.73559">
        <ele>122.17</ele>
        <time>2020-11-08T10:57:03.000Z</time>
      </trkpt>
      <trkpt lat="50.49707" lon="3.73552">
        <ele>121.66</ele>
        <time>2020-11-08T10:57:04.000Z</time>
      </trkpt>
      <trkpt lat="50.49711" lon="3.73542">
        <ele>122.62</ele>
        <time>2020-11-08T10:57:05.000Z</time>
      </trkpt>
      <trkpt lat="50.49715" lon="3.73537">
        <ele>123.04</ele>
        <time>2020-11-08T10:57:06.000Z</time>
      </trkpt>
      <trkpt lat="50.49718" lon="3.73529">
        <ele>123.25</ele>
        <time>2020-11-08T10:57:07.000Z</time>
      </trkpt>
      <trkpt lat="50.49725" lon="3.73521">
        <ele>123.06</ele>
        <time>2020-11-08T10:57:08.000Z</time>
      </trkpt>
      <trkpt lat="50.4973" lon="3.73514">
        <ele>123.33</ele>
        <time>2020-11-08T10:57:09.000Z</time>
      </trkpt>
      <trkpt lat="50.49736" lon="3.73509">
        <ele>124.04</ele>
        <time>2020-11-08T10:57:10.000Z</time>
      </trkpt>
      <trkpt lat="50.49741" lon="3.73504">
        <ele>122.58</ele>
        <time>2020-11-08T10:57:11.000Z</time>
      </trkpt>
      <trkpt lat="50.49747" lon="3.735">
        <ele>122.88</ele>
        <time>2020-11-08T10:57:12.000Z</time>
      </trkpt>
      <trkpt lat="50.49753" lon="3.73494">
        <ele>123.33</ele>
        <time>2020-11-08T10:57:13.000Z</time>
      </trkpt>
      <trkpt lat="50.49759" lon="3.7349">
        <ele>122.77</ele>
        <time>2020-11-08T10:57:14.000Z</time>
      </trkpt>
      <trkpt lat="50.49765" lon="3.73487">
        <ele>122.88</ele>
        <time>2020-11-08T10:57:15.000Z</time>
      </trkpt>
      <trkpt lat="50.49768" lon="3.7348">
        <ele>122.67</ele>
        <time>2020-11-08T10:57:16.000Z</time>
      </trkpt>
      <trkpt lat="50.49773" lon="3.73474">
        <ele>122.18</ele>
        <time>2020-11-08T10:57:17.000Z</time>
      </trkpt>
      <trkpt lat="50.49777" lon="3.7347">
        <ele>122.13</ele>
        <time>2020-11-08T10:57:18.000Z</time>
      </trkpt>
      <trkpt lat="50.49783" lon="3.73462">
        <ele>121.71</ele>
        <time>2020-11-08T10:57:19.000Z</time>
      </trkpt>
      <trkpt lat="50.49788" lon="3.73457">
        <ele>121.56</ele>
        <time>2020-11-08T10:57:20.000Z</time>
      </trkpt>
      <trkpt lat="50.49792" lon="3.7345">
        <ele>121.46</ele>
        <time>2020-11-08T10:57:21.000Z</time>
      </trkpt>
      <trkpt lat="50.49797" lon="3.73445">
        <ele>121.83</ele>
        <time>2020-11-08T10:57:22.000Z</time>
      </trkpt>
      <trkpt lat="50.49802" lon="3.73439">
        <ele>122</ele>
        <time>2020-11-08T10:57:23.000Z</time>
      </trkpt>
      <trkpt lat="50.49808" lon="3.73436">
        <ele>123.23</ele>
        <time>2020-11-08T10:57:24.000Z</time>
      </trkpt>
      <trkpt lat="50.49813" lon="3.73429">
        <ele>122.66</ele>
        <time>2020-11-08T10:57:25.000Z</time>
      </trkpt>
      <trkpt lat="50.49818" lon="3.73424">
        <ele>123.83</ele>
        <time>2020-11-08T10:57:26.000Z</time>
      </trkpt>
      <trkpt lat="50.49823" lon="3.73417">
        <ele>123.77</ele>
        <time>2020-11-08T10:57:27.000Z</time>
      </trkpt>
      <trkpt lat="50.49829" lon="3.73409">
        <ele>124.14</ele>
        <time>2020-11-08T10:57:28.000Z</time>
      </trkpt>
      <trkpt lat="50.49834" lon="3.73404">
        <ele>124.83</ele>
        <time>2020-11-08T10:57:29.000Z</time>
      </trkpt>
      <trkpt lat="50.49839" lon="3.73399">
        <ele>124.42</ele>
        <time>2020-11-08T10:57:30.000Z</time>
      </trkpt>
      <trkpt lat="50.49844" lon="3.73393">
        <ele>123.47</ele>
        <time>2020-11-08T10:57:31.000Z</time>
      </trkpt>
      <trkpt lat="50.49848" lon="3.73388">
        <ele>123.63</ele>
        <time>2020-11-08T10:57:32.000Z</time>
      </trkpt>
      <trkpt lat="50.49854" lon="3.73383">
        <ele>122.91</ele>
        <time>2020-11-08T10:57:33.000Z</time>
      </trkpt>
      <trkpt lat="50.49858" lon="3.73378">
        <ele>122.71</ele>
        <time>2020-11-08T10:57:34.000Z</time>
      </trkpt>
      <trkpt lat="50.49864" lon="3.73371">
        <ele>122.49</ele>
        <time>2020-11-08T10:57:35.000Z</time>
      </trkpt>
      <trkpt lat="50.49869" lon="3.73366">
        <ele>123.03</ele>
        <time>2020-11-08T10:57:36.000Z</time>
      </trkpt>
      <trkpt lat="50.49875" lon="3.7336">
        <ele>123.47</ele>
        <time>2020-11-08T10:57:37.000Z</time>
      </trkpt>
      <trkpt lat="50.4988" lon="3.73353">
        <ele>121.53</ele>
        <time>2020-11-08T10:57:38.000Z</time>
      </trkpt>
      <trkpt lat="50.49884" lon="3.73347">
        <ele>122.49</ele>
        <time>2020-11-08T10:57:39.000Z</time>
      </trkpt>
      <trkpt lat="50.49889" lon="3.73342">
        <ele>121.73</ele>
        <time>2020-11-08T10:57:40.000Z</time>
      </trkpt>
      <trkpt lat="50.49894" lon="3.73335">
        <ele>121.78</ele>
        <time>2020-11-08T10:57:41.000Z</time>
      </trkpt>
      <trkpt lat="50.49899" lon="3.73329">
        <ele>122.73</ele>
        <time>2020-11-08T10:57:42.000Z</time>
      </trkpt>
      <trkpt lat="50.49904" lon="3.73322">
        <ele>123.15</ele>
        <time>2020-11-08T10:57:43.000Z</time>
      </trkpt>
      <trkpt lat="50.49908" lon="3.73315">
        <ele>123.9</ele>
        <time>2020-11-08T10:57:44.000Z</time>
      </trkpt>
      <trkpt lat="50.49913" lon="3.7331">
        <ele>124.03</ele>
        <time>2020-11-08T10:57:45.000Z</time>
      </trkpt>
      <trkpt lat="50.49919" lon="3.73303">
        <ele>122.94</ele>
        <time>2020-11-08T10:57:46.000Z</time>
      </trkpt>
      <trkpt lat="50.49925" lon="3.73297">
        <ele>122.09</ele>
        <time>2020-11-08T10:57:47.000Z</time>
      </trkpt>
      <trkpt lat="50.4993" lon="3.73292">
        <ele>121.46</ele>
        <time>2020-11-08T10:57:48.000Z</time>
      </trkpt>
      <trkpt lat="50.49936" lon="3.73287">
        <ele>121.06</ele>
        <time>2020-11-08T10:57:49.000Z</time>
      </trkpt>
      <trkpt lat="50.4994" lon="3.73282">
        <ele>120.45</ele>
        <time>2020-11-08T10:57:50.000Z</time>
      </trkpt>
      <trkpt lat="50.49945" lon="3.73277">
        <ele>121.18</ele>
        <time>2020-11-08T10:57:51.000Z</time>
      </trkpt>
      <trkpt lat="50.4995" lon="3.73271">
        <ele>121.5</ele>
        <time>2020-11-08T10:57:52.000Z</time>
      </trkpt>
      <trkpt lat="50.49954" lon="3.73266">
        <ele>121.68</ele>
        <time>2020-11-08T10:57:53.000Z</time>
      </trkpt>
      <trkpt lat="50.49959" lon="3.73262">
        <ele>120.46</ele>
        <time>2020-11-08T10:57:54.000Z</time>
      </trkpt>
      <trkpt lat="50.49966" lon="3.73256">
        <ele>119.74</ele>
        <time>2020-11-08T10:57:55.000Z</time>
      </trkpt>
      <trkpt lat="50.49971" lon="3.73252">
        <ele>118.72</ele>
        <time>2020-11-08T10:57:56.000Z</time>
      </trkpt>
      <trkpt lat="50.49976" lon="3.7325">
        <ele>118.34</ele>
        <time>2020-11-08T10:57:57.000Z</time>
      </trkpt>
      <trkpt lat="50.49982" lon="3.73249">
        <ele>120.45</ele>
        <time>2020-11-08T10:57:58.000Z</time>
      </trkpt>
      <trkpt lat="50.49987" lon="3.73241">
        <ele>120.54</ele>
        <time>2020-11-08T10:57:59.000Z</time>
      </trkpt>
      <trkpt lat="50.49992" lon="3.73234">
        <ele>120.65</ele>
        <time>2020-11-08T10:58:00.000Z</time>
      </trkpt>
      <trkpt lat="50.49995" lon="3.73229">
        <ele>120.62</ele>
        <time>2020-11-08T10:58:01.000Z</time>
      </trkpt>
      <trkpt lat="50.50001" lon="3.73223">
        <ele>120.59</ele>
        <time>2020-11-08T10:58:02.000Z</time>
      </trkpt>
      <trkpt lat="50.50006" lon="3.73217">
        <ele>120.35</ele>
        <time>2020-11-08T10:58:03.000Z</time>
      </trkpt>
      <trkpt lat="50.50012" lon="3.73211">
        <ele>120.49</ele>
        <time>2020-11-08T10:58:04.000Z</time>
      </trkpt>
      <trkpt lat="50.50017" lon="3.73205">
        <ele>120.64</ele>
        <time>2020-11-08T10:58:05.000Z</time>
      </trkpt>
      <trkpt lat="50.50023" lon="3.732">
        <ele>119.06</ele>
        <time>2020-11-08T10:58:06.000Z</time>
      </trkpt>
      <trkpt lat="50.50029" lon="3.73195">
        <ele>118.11</ele>
        <time>2020-11-08T10:58:07.000Z</time>
      </trkpt>
      <trkpt lat="50.50034" lon="3.73189">
        <ele>117.6</ele>
        <time>2020-11-08T10:58:08.000Z</time>
      </trkpt>
      <trkpt lat="50.50039" lon="3.73181">
        <ele>117.82</ele>
        <time>2020-11-08T10:58:09.000Z</time>
      </trkpt>
      <trkpt lat="50.50043" lon="3.73175">
        <ele>116.57</ele>
        <time>2020-11-08T10:58:10.000Z</time>
      </trkpt>
      <trkpt lat="50.50049" lon="3.73169">
        <ele>116.51</ele>
        <time>2020-11-08T10:58:11.000Z</time>
      </trkpt>
      <trkpt lat="50.50055" lon="3.73165">
        <ele>116.83</ele>
        <time>2020-11-08T10:58:12.000Z</time>
      </trkpt>
      <trkpt lat="50.5006" lon="3.73159">
        <ele>115.28</ele>
        <time>2020-11-08T10:58:13.000Z</time>
      </trkpt>
      <trkpt lat="50.50066" lon="3.73153">
        <ele>116.49</ele>
        <time>2020-11-08T10:58:14.000Z</time>
      </trkpt>
      <trkpt lat="50.50071" lon="3.73147">
        <ele>116.26</ele>
        <time>2020-11-08T10:58:15.000Z</time>
      </trkpt>
      <trkpt lat="50.50076" lon="3.7314">
        <ele>116.78</ele>
        <time>2020-11-08T10:58:16.000Z</time>
      </trkpt>
      <trkpt lat="50.50082" lon="3.73134">
        <ele>118.43</ele>
        <time>2020-11-08T10:58:17.000Z</time>
      </trkpt>
      <trkpt lat="50.50088" lon="3.73128">
        <ele>118.71</ele>
        <time>2020-11-08T10:58:18.000Z</time>
      </trkpt>
      <trkpt lat="50.50093" lon="3.73121">
        <ele>119.55</ele>
        <time>2020-11-08T10:58:19.000Z</time>
      </trkpt>
      <trkpt lat="50.50098" lon="3.73116">
        <ele>119.7</ele>
        <time>2020-11-08T10:58:20.000Z</time>
      </trkpt>
      <trkpt lat="50.50103" lon="3.7311">
        <ele>118.99</ele>
        <time>2020-11-08T10:58:21.000Z</time>
      </trkpt>
      <trkpt lat="50.50108" lon="3.73104">
        <ele>119.34</ele>
        <time>2020-11-08T10:58:22.000Z</time>
      </trkpt>
      <trkpt lat="50.50113" lon="3.73098">
        <ele>119.7</ele>
        <time>2020-11-08T10:58:23.000Z</time>
      </trkpt>
      <trkpt lat="50.5012" lon="3.73092">
        <ele>121.68</ele>
        <time>2020-11-08T10:58:24.000Z</time>
      </trkpt>
      <trkpt lat="50.50126" lon="3.73086">
        <ele>122.4</ele>
        <time>2020-11-08T10:58:25.000Z</time>
      </trkpt>
      <trkpt lat="50.50132" lon="3.7308">
        <ele>121.98</ele>
        <time>2020-11-08T10:58:26.000Z</time>
      </trkpt>
      <trkpt lat="50.50138" lon="3.73075">
        <ele>121.83</ele>
        <time>2020-11-08T10:58:27.000Z</time>
      </trkpt>
      <trkpt lat="50.50143" lon="3.7307">
        <ele>120.98</ele>
        <time>2020-11-08T10:58:28.000Z</time>
      </trkpt>
      <trkpt lat="50.50148" lon="3.73062">
        <ele>120.49</ele>
        <time>2020-11-08T10:58:29.000Z</time>
      </trkpt>
      <trkpt lat="50.50152" lon="3.73055">
        <ele>120.56</ele>
        <time>2020-11-08T10:58:30.000Z</time>
      </trkpt>
      <trkpt lat="50.50155" lon="3.73048">
        <ele>121.17</ele>
        <time>2020-11-08T10:58:31.000Z</time>
      </trkpt>
      <trkpt lat="50.50161" lon="3.73041">
        <ele>120.52</ele>
        <time>2020-11-08T10:58:32.000Z</time>
      </trkpt>
      <trkpt lat="50.50165" lon="3.73034">
        <ele>121.43</ele>
        <time>2020-11-08T10:58:33.000Z</time>
      </trkpt>
      <trkpt lat="50.50171" lon="3.73029">
        <ele>120.99</ele>
        <time>2020-11-08T10:58:34.000Z</time>
      </trkpt>
      <trkpt lat="50.50176" lon="3.73024">
        <ele>120.81</ele>
        <time>2020-11-08T10:58:35.000Z</time>
      </trkpt>
      <trkpt lat="50.5018" lon="3.73019">
        <ele>121.36</ele>
        <time>2020-11-08T10:58:36.000Z</time>
      </trkpt>
      <trkpt lat="50.50185" lon="3.73014">
        <ele>120.77</ele>
        <time>2020-11-08T10:58:37.000Z</time>
      </trkpt>
      <trkpt lat="50.50189" lon="3.73009">
        <ele>120.11</ele>
        <time>2020-11-08T10:58:38.000Z</time>
      </trkpt>
      <trkpt lat="50.50193" lon="3.73004">
        <ele>121.05</ele>
        <time>2020-11-08T10:58:39.000Z</time>
      </trkpt>
      <trkpt lat="50.50198" lon="3.73">
        <ele>120.79</ele>
        <time>2020-11-08T10:58:40.000Z</time>
      </trkpt>
      <trkpt lat="50.50201" lon="3.72996">
        <ele>121.22</ele>
        <time>2020-11-08T10:58:41.000Z</time>
      </trkpt>
      <trkpt lat="50.50208" lon="3.72988">
        <ele>122.04</ele>
        <time>2020-11-08T10:58:43.000Z</time>
      </trkpt>
      <trkpt lat="50.50216" lon="3.7298">
        <ele>122.59</ele>
        <time>2020-11-08T10:58:45.000Z</time>
      </trkpt>
      <trkpt lat="50.50222" lon="3.72975">
        <ele>120.82</ele>
        <time>2020-11-08T10:58:47.000Z</time>
      </trkpt>
      <trkpt lat="50.50226" lon="3.72969">
        <ele>121.52</ele>
        <time>2020-11-08T10:58:48.000Z</time>
      </trkpt>
      <trkpt lat="50.5023" lon="3.72965">
        <ele>120.86</ele>
        <time>2020-11-08T10:58:49.000Z</time>
      </trkpt>
      <trkpt lat="50.50235" lon="3.72959">
        <ele>120.48</ele>
        <time>2020-11-08T10:58:50.000Z</time>
      </trkpt>
      <trkpt lat="50.5024" lon="3.72954">
        <ele>120.8</ele>
        <time>2020-11-08T10:58:51.000Z</time>
      </trkpt>
      <trkpt lat="50.50245" lon="3.72949">
        <ele>121.03</ele>
        <time>2020-11-08T10:58:52.000Z</time>
      </trkpt>
      <trkpt lat="50.50249" lon="3.72944">
        <ele>120.65</ele>
        <time>2020-11-08T10:58:53.000Z</time>
      </trkpt>
      <trkpt lat="50.50253" lon="3.72939">
        <ele>120.85</ele>
        <time>2020-11-08T10:58:54.000Z</time>
      </trkpt>
      <trkpt lat="50.50257" lon="3.72935">
        <ele>121.37</ele>
        <time>2020-11-08T10:58:55.000Z</time>
      </trkpt>
      <trkpt lat="50.50262" lon="3.7293">
        <ele>121.24</ele>
        <time>2020-11-08T10:58:56.000Z</time>
      </trkpt>
      <trkpt lat="50.50267" lon="3.72924">
        <ele>121.35</ele>
        <time>2020-11-08T10:58:57.000Z</time>
      </trkpt>
      <trkpt lat="50.50272" lon="3.72918">
        <ele>121.93</ele>
        <time>2020-11-08T10:58:58.000Z</time>
      </trkpt>
      <trkpt lat="50.50276" lon="3.72912">
        <ele>121.55</ele>
        <time>2020-11-08T10:58:59.000Z</time>
      </trkpt>
      <trkpt lat="50.5028" lon="3.72908">
        <ele>120.84</ele>
        <time>2020-11-08T10:59:00.000Z</time>
      </trkpt>
      <trkpt lat="50.50284" lon="3.72903">
        <ele>120.57</ele>
        <time>2020-11-08T10:59:01.000Z</time>
      </trkpt>
      <trkpt lat="50.50288" lon="3.72897">
        <ele>120.01</ele>
        <time>2020-11-08T10:59:02.000Z</time>
      </trkpt>
      <trkpt lat="50.50294" lon="3.72892">
        <ele>121.17</ele>
        <time>2020-11-08T10:59:03.000Z</time>
      </trkpt>
      <trkpt lat="50.50299" lon="3.72887">
        <ele>120.49</ele>
        <time>2020-11-08T10:59:04.000Z</time>
      </trkpt>
      <trkpt lat="50.50304" lon="3.72881">
        <ele>120.19</ele>
        <time>2020-11-08T10:59:05.000Z</time>
      </trkpt>
      <trkpt lat="50.50309" lon="3.72876">
        <ele>119.92</ele>
        <time>2020-11-08T10:59:06.000Z</time>
      </trkpt>
      <trkpt lat="50.50314" lon="3.7287">
        <ele>119.56</ele>
        <time>2020-11-08T10:59:07.000Z</time>
      </trkpt>
      <trkpt lat="50.5032" lon="3.72864">
        <ele>118.96</ele>
        <time>2020-11-08T10:59:08.000Z</time>
      </trkpt>
      <trkpt lat="50.50326" lon="3.72857">
        <ele>118.94</ele>
        <time>2020-11-08T10:59:09.000Z</time>
      </trkpt>
      <trkpt lat="50.50332" lon="3.7285">
        <ele>119.23</ele>
        <time>2020-11-08T10:59:10.000Z</time>
      </trkpt>
      <trkpt lat="50.50338" lon="3.72844">
        <ele>118.54</ele>
        <time>2020-11-08T10:59:11.000Z</time>
      </trkpt>
      <trkpt lat="50.50344" lon="3.72836">
        <ele>117.64</ele>
        <time>2020-11-08T10:59:12.000Z</time>
      </trkpt>
      <trkpt lat="50.50352" lon="3.7283">
        <ele>117.15</ele>
        <time>2020-11-08T10:59:13.000Z</time>
      </trkpt>
      <trkpt lat="50.50358" lon="3.72824">
        <ele>116.78</ele>
        <time>2020-11-08T10:59:14.000Z</time>
      </trkpt>
      <trkpt lat="50.50363" lon="3.72819">
        <ele>114.88</ele>
        <time>2020-11-08T10:59:15.000Z</time>
      </trkpt>
      <trkpt lat="50.50368" lon="3.72813">
        <ele>114.76</ele>
        <time>2020-11-08T10:59:16.000Z</time>
      </trkpt>
      <trkpt lat="50.50373" lon="3.72808">
        <ele>113.83</ele>
        <time>2020-11-08T10:59:17.000Z</time>
      </trkpt>
      <trkpt lat="50.50376" lon="3.728">
        <ele>113.59</ele>
        <time>2020-11-08T10:59:18.000Z</time>
      </trkpt>
      <trkpt lat="50.50376" lon="3.72791">
        <ele>112.71</ele>
        <time>2020-11-08T10:59:19.000Z</time>
      </trkpt>
      <trkpt lat="50.50373" lon="3.72782">
        <ele>112.76</ele>
        <time>2020-11-08T10:59:21.000Z</time>
      </trkpt>
      <trkpt lat="50.50365" lon="3.72779">
        <ele>111.33</ele>
        <time>2020-11-08T10:59:23.000Z</time>
      </trkpt>
      <trkpt lat="50.50362" lon="3.72769">
        <ele>112.11</ele>
        <time>2020-11-08T10:59:25.000Z</time>
      </trkpt>
      <trkpt lat="50.50356" lon="3.72758">
        <ele>111.93</ele>
        <time>2020-11-08T10:59:27.000Z</time>
      </trkpt>
      <trkpt lat="50.50352" lon="3.72752">
        <ele>111.71</ele>
        <time>2020-11-08T10:59:28.000Z</time>
      </trkpt>
      <trkpt lat="50.50347" lon="3.72745">
        <ele>112.68</ele>
        <time>2020-11-08T10:59:29.000Z</time>
      </trkpt>
      <trkpt lat="50.50343" lon="3.72739">
        <ele>112.71</ele>
        <time>2020-11-08T10:59:30.000Z</time>
      </trkpt>
      <trkpt lat="50.50339" lon="3.72732">
        <ele>113.25</ele>
        <time>2020-11-08T10:59:31.000Z</time>
      </trkpt>
      <trkpt lat="50.50334" lon="3.72726">
        <ele>113.15</ele>
        <time>2020-11-08T10:59:32.000Z</time>
      </trkpt>
      <trkpt lat="50.50329" lon="3.72721">
        <ele>113.01</ele>
        <time>2020-11-08T10:59:33.000Z</time>
      </trkpt>
      <trkpt lat="50.50325" lon="3.72714">
        <ele>112.88</ele>
        <time>2020-11-08T10:59:34.000Z</time>
      </trkpt>
      <trkpt lat="50.5032" lon="3.72708">
        <ele>113.19</ele>
        <time>2020-11-08T10:59:35.000Z</time>
      </trkpt>
      <trkpt lat="50.50315" lon="3.72702">
        <ele>112.99</ele>
        <time>2020-11-08T10:59:36.000Z</time>
      </trkpt>
      <trkpt lat="50.50311" lon="3.72696">
        <ele>113.28</ele>
        <time>2020-11-08T10:59:37.000Z</time>
      </trkpt>
      <trkpt lat="50.50306" lon="3.7269">
        <ele>114.96</ele>
        <time>2020-11-08T10:59:38.000Z</time>
      </trkpt>
      <trkpt lat="50.50302" lon="3.72684">
        <ele>114.92</ele>
        <time>2020-11-08T10:59:39.000Z</time>
      </trkpt>
      <trkpt lat="50.50298" lon="3.72677">
        <ele>115.98</ele>
        <time>2020-11-08T10:59:40.000Z</time>
      </trkpt>
      <trkpt lat="50.50295" lon="3.72671">
        <ele>116.53</ele>
        <time>2020-11-08T10:59:41.000Z</time>
      </trkpt>
      <trkpt lat="50.50291" lon="3.72665">
        <ele>116.53</ele>
        <time>2020-11-08T10:59:42.000Z</time>
      </trkpt>
      <trkpt lat="50.50286" lon="3.72659">
        <ele>115.99</ele>
        <time>2020-11-08T10:59:43.000Z</time>
      </trkpt>
      <trkpt lat="50.50281" lon="3.72654">
        <ele>115.95</ele>
        <time>2020-11-08T10:59:44.000Z</time>
      </trkpt>
      <trkpt lat="50.50278" lon="3.72647">
        <ele>115.76</ele>
        <time>2020-11-08T10:59:45.000Z</time>
      </trkpt>
      <trkpt lat="50.50273" lon="3.72641">
        <ele>115.02</ele>
        <time>2020-11-08T10:59:46.000Z</time>
      </trkpt>
      <trkpt lat="50.50268" lon="3.72635">
        <ele>115.39</ele>
        <time>2020-11-08T10:59:47.000Z</time>
      </trkpt>
      <trkpt lat="50.50264" lon="3.7263">
        <ele>114.88</ele>
        <time>2020-11-08T10:59:48.000Z</time>
      </trkpt>
      <trkpt lat="50.50259" lon="3.72624">
        <ele>114.77</ele>
        <time>2020-11-08T10:59:49.000Z</time>
      </trkpt>
      <trkpt lat="50.50255" lon="3.72618">
        <ele>115.06</ele>
        <time>2020-11-08T10:59:50.000Z</time>
      </trkpt>
      <trkpt lat="50.50251" lon="3.72611">
        <ele>114.56</ele>
        <time>2020-11-08T10:59:51.000Z</time>
      </trkpt>
      <trkpt lat="50.50247" lon="3.72606">
        <ele>114.86</ele>
        <time>2020-11-08T10:59:52.000Z</time>
      </trkpt>
      <trkpt lat="50.50243" lon="3.726">
        <ele>115.46</ele>
        <time>2020-11-08T10:59:53.000Z</time>
      </trkpt>
      <trkpt lat="50.50239" lon="3.72596">
        <ele>116.45</ele>
        <time>2020-11-08T10:59:54.000Z</time>
      </trkpt>
      <trkpt lat="50.50235" lon="3.7259">
        <ele>116.87</ele>
        <time>2020-11-08T10:59:55.000Z</time>
      </trkpt>
      <trkpt lat="50.50231" lon="3.72584">
        <ele>116.75</ele>
        <time>2020-11-08T10:59:56.000Z</time>
      </trkpt>
      <trkpt lat="50.5023" lon="3.72577">
        <ele>116.93</ele>
        <time>2020-11-08T10:59:57.000Z</time>
      </trkpt>
      <trkpt lat="50.50226" lon="3.72569">
        <ele>117.01</ele>
        <time>2020-11-08T10:59:58.000Z</time>
      </trkpt>
      <trkpt lat="50.50223" lon="3.72563">
        <ele>117.94</ele>
        <time>2020-11-08T10:59:59.000Z</time>
      </trkpt>
      <trkpt lat="50.5022" lon="3.72556">
        <ele>117.42</ele>
        <time>2020-11-08T11:00:00.000Z</time>
      </trkpt>
      <trkpt lat="50.50216" lon="3.72547">
        <ele>116.99</ele>
        <time>2020-11-08T11:00:01.000Z</time>
      </trkpt>
      <trkpt lat="50.50214" lon="3.72539">
        <ele>117.57</ele>
        <time>2020-11-08T11:00:02.000Z</time>
      </trkpt>
      <trkpt lat="50.50212" lon="3.7253">
        <ele>118.53</ele>
        <time>2020-11-08T11:00:03.000Z</time>
      </trkpt>
      <trkpt lat="50.5021" lon="3.72522">
        <ele>117.82</ele>
        <time>2020-11-08T11:00:04.000Z</time>
      </trkpt>
      <trkpt lat="50.50208" lon="3.72514">
        <ele>117.79</ele>
        <time>2020-11-08T11:00:05.000Z</time>
      </trkpt>
      <trkpt lat="50.50206" lon="3.72504">
        <ele>118.24</ele>
        <time>2020-11-08T11:00:06.000Z</time>
      </trkpt>
      <trkpt lat="50.50203" lon="3.72497">
        <ele>117.9</ele>
        <time>2020-11-08T11:00:07.000Z</time>
      </trkpt>
      <trkpt lat="50.50202" lon="3.72489">
        <ele>117.82</ele>
        <time>2020-11-08T11:00:08.000Z</time>
      </trkpt>
      <trkpt lat="50.502" lon="3.72481">
        <ele>118.21</ele>
        <time>2020-11-08T11:00:09.000Z</time>
      </trkpt>
      <trkpt lat="50.50198" lon="3.72472">
        <ele>118.7</ele>
        <time>2020-11-08T11:00:10.000Z</time>
      </trkpt>
      <trkpt lat="50.50196" lon="3.72466">
        <ele>118.3</ele>
        <time>2020-11-08T11:00:11.000Z</time>
      </trkpt>
      <trkpt lat="50.50191" lon="3.72454">
        <ele>115.54</ele>
        <time>2020-11-08T11:00:13.000Z</time>
      </trkpt>
      <trkpt lat="50.50189" lon="3.72442">
        <ele>114.61</ele>
        <time>2020-11-08T11:00:15.000Z</time>
      </trkpt>
      <trkpt lat="50.50187" lon="3.72434">
        <ele>114.74</ele>
        <time>2020-11-08T11:00:16.000Z</time>
      </trkpt>
      <trkpt lat="50.50184" lon="3.72426">
        <ele>115.43</ele>
        <time>2020-11-08T11:00:17.000Z</time>
      </trkpt>
      <trkpt lat="50.50182" lon="3.72418">
        <ele>115.38</ele>
        <time>2020-11-08T11:00:18.000Z</time>
      </trkpt>
      <trkpt lat="50.50179" lon="3.7241">
        <ele>115.28</ele>
        <time>2020-11-08T11:00:19.000Z</time>
      </trkpt>
      <trkpt lat="50.50178" lon="3.72402">
        <ele>115.37</ele>
        <time>2020-11-08T11:00:20.000Z</time>
      </trkpt>
      <trkpt lat="50.50177" lon="3.72393">
        <ele>116</ele>
        <time>2020-11-08T11:00:21.000Z</time>
      </trkpt>
      <trkpt lat="50.50174" lon="3.72386">
        <ele>116.27</ele>
        <time>2020-11-08T11:00:22.000Z</time>
      </trkpt>
      <trkpt lat="50.50172" lon="3.72378">
        <ele>115.96</ele>
        <time>2020-11-08T11:00:23.000Z</time>
      </trkpt>
      <trkpt lat="50.50169" lon="3.72371">
        <ele>115.27</ele>
        <time>2020-11-08T11:00:24.000Z</time>
      </trkpt>
      <trkpt lat="50.50167" lon="3.72364">
        <ele>115.33</ele>
        <time>2020-11-08T11:00:25.000Z</time>
      </trkpt>
      <trkpt lat="50.50164" lon="3.72357">
        <ele>114.82</ele>
        <time>2020-11-08T11:00:26.000Z</time>
      </trkpt>
      <trkpt lat="50.50161" lon="3.7235">
        <ele>114.88</ele>
        <time>2020-11-08T11:00:27.000Z</time>
      </trkpt>
      <trkpt lat="50.50158" lon="3.72342">
        <ele>113.81</ele>
        <time>2020-11-08T11:00:28.000Z</time>
      </trkpt>
      <trkpt lat="50.50155" lon="3.72335">
        <ele>113.92</ele>
        <time>2020-11-08T11:00:29.000Z</time>
      </trkpt>
      <trkpt lat="50.50153" lon="3.72328">
        <ele>114.07</ele>
        <time>2020-11-08T11:00:30.000Z</time>
      </trkpt>
      <trkpt lat="50.50152" lon="3.72321">
        <ele>113.44</ele>
        <time>2020-11-08T11:00:31.000Z</time>
      </trkpt>
      <trkpt lat="50.50149" lon="3.72314">
        <ele>113.74</ele>
        <time>2020-11-08T11:00:32.000Z</time>
      </trkpt>
      <trkpt lat="50.50147" lon="3.72307">
        <ele>114.19</ele>
        <time>2020-11-08T11:00:33.000Z</time>
      </trkpt>
      <trkpt lat="50.50144" lon="3.723">
        <ele>114.41</ele>
        <time>2020-11-08T11:00:34.000Z</time>
      </trkpt>
      <trkpt lat="50.5014" lon="3.72294">
        <ele>114.23</ele>
        <time>2020-11-08T11:00:35.000Z</time>
      </trkpt>
      <trkpt lat="50.50137" lon="3.72287">
        <ele>114.06</ele>
        <time>2020-11-08T11:00:36.000Z</time>
      </trkpt>
      <trkpt lat="50.50132" lon="3.72282">
        <ele>114.13</ele>
        <time>2020-11-08T11:00:37.000Z</time>
      </trkpt>
      <trkpt lat="50.50128" lon="3.72277">
        <ele>113.82</ele>
        <time>2020-11-08T11:00:38.000Z</time>
      </trkpt>
      <trkpt lat="50.50123" lon="3.72271">
        <ele>114.19</ele>
        <time>2020-11-08T11:00:39.000Z</time>
      </trkpt>
      <trkpt lat="50.50118" lon="3.72264">
        <ele>114.06</ele>
        <time>2020-11-08T11:00:40.000Z</time>
      </trkpt>
      <trkpt lat="50.50113" lon="3.72259">
        <ele>114.49</ele>
        <time>2020-11-08T11:00:41.000Z</time>
      </trkpt>
      <trkpt lat="50.50108" lon="3.72254">
        <ele>114.98</ele>
        <time>2020-11-08T11:00:42.000Z</time>
      </trkpt>
      <trkpt lat="50.50103" lon="3.72248">
        <ele>115.45</ele>
        <time>2020-11-08T11:00:43.000Z</time>
      </trkpt>
      <trkpt lat="50.50098" lon="3.72244">
        <ele>115.53</ele>
        <time>2020-11-08T11:00:44.000Z</time>
      </trkpt>
      <trkpt lat="50.50093" lon="3.72239">
        <ele>116.29</ele>
        <time>2020-11-08T11:00:45.000Z</time>
      </trkpt>
      <trkpt lat="50.50088" lon="3.72234">
        <ele>116.08</ele>
        <time>2020-11-08T11:00:46.000Z</time>
      </trkpt>
      <trkpt lat="50.50084" lon="3.72229">
        <ele>115.86</ele>
        <time>2020-11-08T11:00:47.000Z</time>
      </trkpt>
      <trkpt lat="50.5008" lon="3.72223">
        <ele>115.52</ele>
        <time>2020-11-08T11:00:48.000Z</time>
      </trkpt>
      <trkpt lat="50.50075" lon="3.72218">
        <ele>115.37</ele>
        <time>2020-11-08T11:00:49.000Z</time>
      </trkpt>
      <trkpt lat="50.50069" lon="3.72212">
        <ele>116.01</ele>
        <time>2020-11-08T11:00:50.000Z</time>
      </trkpt>
      <trkpt lat="50.50064" lon="3.72206">
        <ele>116.61</ele>
        <time>2020-11-08T11:00:51.000Z</time>
      </trkpt>
      <trkpt lat="50.50058" lon="3.72201">
        <ele>116.88</ele>
        <time>2020-11-08T11:00:52.000Z</time>
      </trkpt>
      <trkpt lat="50.50053" lon="3.72195">
        <ele>117.09</ele>
        <time>2020-11-08T11:00:53.000Z</time>
      </trkpt>
      <trkpt lat="50.50049" lon="3.72189">
        <ele>117.6</ele>
        <time>2020-11-08T11:00:54.000Z</time>
      </trkpt>
      <trkpt lat="50.50043" lon="3.72185">
        <ele>118.07</ele>
        <time>2020-11-08T11:00:55.000Z</time>
      </trkpt>
      <trkpt lat="50.50038" lon="3.72179">
        <ele>117.42</ele>
        <time>2020-11-08T11:00:56.000Z</time>
      </trkpt>
      <trkpt lat="50.50032" lon="3.72173">
        <ele>117.96</ele>
        <time>2020-11-08T11:00:57.000Z</time>
      </trkpt>
      <trkpt lat="50.50026" lon="3.72167">
        <ele>117.64</ele>
        <time>2020-11-08T11:00:58.000Z</time>
      </trkpt>
      <trkpt lat="50.50021" lon="3.72161">
        <ele>117.03</ele>
        <time>2020-11-08T11:00:59.000Z</time>
      </trkpt>
      <trkpt lat="50.50016" lon="3.72155">
        <ele>116.71</ele>
        <time>2020-11-08T11:01:00.000Z</time>
      </trkpt>
      <trkpt lat="50.50011" lon="3.72149">
        <ele>116.17</ele>
        <time>2020-11-08T11:01:01.000Z</time>
      </trkpt>
      <trkpt lat="50.50005" lon="3.72143">
        <ele>116.23</ele>
        <time>2020-11-08T11:01:02.000Z</time>
      </trkpt>
      <trkpt lat="50.5" lon="3.72137">
        <ele>116.1</ele>
        <time>2020-11-08T11:01:03.000Z</time>
      </trkpt>
      <trkpt lat="50.49995" lon="3.72131">
        <ele>116.47</ele>
        <time>2020-11-08T11:01:04.000Z</time>
      </trkpt>
      <trkpt lat="50.4999" lon="3.72125">
        <ele>116.49</ele>
        <time>2020-11-08T11:01:05.000Z</time>
      </trkpt>
      <trkpt lat="50.49984" lon="3.72118">
        <ele>116.67</ele>
        <time>2020-11-08T11:01:06.000Z</time>
      </trkpt>
      <trkpt lat="50.49978" lon="3.72113">
        <ele>117.09</ele>
        <time>2020-11-08T11:01:07.000Z</time>
      </trkpt>
      <trkpt lat="50.49973" lon="3.72108">
        <ele>117.53</ele>
        <time>2020-11-08T11:01:08.000Z</time>
      </trkpt>
      <trkpt lat="50.49967" lon="3.72103">
        <ele>117.73</ele>
        <time>2020-11-08T11:01:09.000Z</time>
      </trkpt>
      <trkpt lat="50.49962" lon="3.72098">
        <ele>117.66</ele>
        <time>2020-11-08T11:01:10.000Z</time>
      </trkpt>
      <trkpt lat="50.49956" lon="3.72091">
        <ele>117.9</ele>
        <time>2020-11-08T11:01:11.000Z</time>
      </trkpt>
      <trkpt lat="50.49951" lon="3.72085">
        <ele>117.77</ele>
        <time>2020-11-08T11:01:12.000Z</time>
      </trkpt>
      <trkpt lat="50.49946" lon="3.72078">
        <ele>117.03</ele>
        <time>2020-11-08T11:01:13.000Z</time>
      </trkpt>
      <trkpt lat="50.49941" lon="3.72071">
        <ele>116.92</ele>
        <time>2020-11-08T11:01:14.000Z</time>
      </trkpt>
      <trkpt lat="50.49937" lon="3.72065">
        <ele>116.6</ele>
        <time>2020-11-08T11:01:15.000Z</time>
      </trkpt>
      <trkpt lat="50.49932" lon="3.72058">
        <ele>115.99</ele>
        <time>2020-11-08T11:01:16.000Z</time>
      </trkpt>
      <trkpt lat="50.49926" lon="3.72052">
        <ele>116.58</ele>
        <time>2020-11-08T11:01:17.000Z</time>
      </trkpt>
      <trkpt lat="50.4992" lon="3.72047">
        <ele>117.16</ele>
        <time>2020-11-08T11:01:18.000Z</time>
      </trkpt>
      <trkpt lat="50.49915" lon="3.72042">
        <ele>117.09</ele>
        <time>2020-11-08T11:01:19.000Z</time>
      </trkpt>
      <trkpt lat="50.49909" lon="3.72036">
        <ele>116.97</ele>
        <time>2020-11-08T11:01:20.000Z</time>
      </trkpt>
      <trkpt lat="50.49904" lon="3.72031">
        <ele>117.18</ele>
        <time>2020-11-08T11:01:21.000Z</time>
      </trkpt>
      <trkpt lat="50.49898" lon="3.72026">
        <ele>117.34</ele>
        <time>2020-11-08T11:01:22.000Z</time>
      </trkpt>
      <trkpt lat="50.49892" lon="3.72022">
        <ele>117.25</ele>
        <time>2020-11-08T11:01:23.000Z</time>
      </trkpt>
      <trkpt lat="50.49885" lon="3.72018">
        <ele>117.08</ele>
        <time>2020-11-08T11:01:24.000Z</time>
      </trkpt>
      <trkpt lat="50.4988" lon="3.72015">
        <ele>117.08</ele>
        <time>2020-11-08T11:01:25.000Z</time>
      </trkpt>
      <trkpt lat="50.49875" lon="3.72011">
        <ele>117.61</ele>
        <time>2020-11-08T11:01:26.000Z</time>
      </trkpt>
      <trkpt lat="50.49869" lon="3.72008">
        <ele>117.97</ele>
        <time>2020-11-08T11:01:27.000Z</time>
      </trkpt>
      <trkpt lat="50.49863" lon="3.72003">
        <ele>116.94</ele>
        <time>2020-11-08T11:01:28.000Z</time>
      </trkpt>
      <trkpt lat="50.49859" lon="3.71999">
        <ele>116.69</ele>
        <time>2020-11-08T11:01:29.000Z</time>
      </trkpt>
      <trkpt lat="50.49853" lon="3.71996">
        <ele>115.93</ele>
        <time>2020-11-08T11:01:30.000Z</time>
      </trkpt>
      <trkpt lat="50.49846" lon="3.71992">
        <ele>116.45</ele>
        <time>2020-11-08T11:01:31.000Z</time>
      </trkpt>
      <trkpt lat="50.49841" lon="3.71988">
        <ele>117.22</ele>
        <time>2020-11-08T11:01:32.000Z</time>
      </trkpt>
      <trkpt lat="50.49834" lon="3.71984">
        <ele>116.63</ele>
        <time>2020-11-08T11:01:33.000Z</time>
      </trkpt>
      <trkpt lat="50.49829" lon="3.71979">
        <ele>117.7</ele>
        <time>2020-11-08T11:01:34.000Z</time>
      </trkpt>
      <trkpt lat="50.49823" lon="3.71974">
        <ele>117.51</ele>
        <time>2020-11-08T11:01:35.000Z</time>
      </trkpt>
      <trkpt lat="50.49817" lon="3.7197">
        <ele>119.64</ele>
        <time>2020-11-08T11:01:36.000Z</time>
      </trkpt>
      <trkpt lat="50.49812" lon="3.71966">
        <ele>119.21</ele>
        <time>2020-11-08T11:01:37.000Z</time>
      </trkpt>
      <trkpt lat="50.49807" lon="3.71963">
        <ele>119.9</ele>
        <time>2020-11-08T11:01:38.000Z</time>
      </trkpt>
      <trkpt lat="50.49803" lon="3.71959">
        <ele>119.36</ele>
        <time>2020-11-08T11:01:39.000Z</time>
      </trkpt>
      <trkpt lat="50.49796" lon="3.71953">
        <ele>119.74</ele>
        <time>2020-11-08T11:01:41.000Z</time>
      </trkpt>
      <trkpt lat="50.49792" lon="3.7195">
        <ele>119.7</ele>
        <time>2020-11-08T11:01:42.000Z</time>
      </trkpt>
      <trkpt lat="50.49785" lon="3.71945">
        <ele>119.07</ele>
        <time>2020-11-08T11:01:44.000Z</time>
      </trkpt>
      <trkpt lat="50.49781" lon="3.71941">
        <ele>118.56</ele>
        <time>2020-11-08T11:01:46.000Z</time>
      </trkpt>
      <trkpt lat="50.49777" lon="3.71936">
        <ele>116.66</ele>
        <time>2020-11-08T11:01:50.000Z</time>
      </trkpt>
      <trkpt lat="50.49777" lon="3.71936">
        <ele>116.66</ele>
        <time>2020-11-08T11:01:50.001Z</time>
      </trkpt>
      <trkpt lat="50.49773" lon="3.71934">
        <ele>117.9</ele>
        <time>2020-11-08T11:02:37.000Z</time>
      </trkpt>
      <trkpt lat="50.4977" lon="3.71927">
        <ele>117.48</ele>
        <time>2020-11-08T11:02:39.000Z</time>
      </trkpt>
      <trkpt lat="50.49766" lon="3.71921">
        <ele>117.16</ele>
        <time>2020-11-08T11:02:41.000Z</time>
      </trkpt>
      <trkpt lat="50.49762" lon="3.71915">
        <ele>116.25</ele>
        <time>2020-11-08T11:02:44.000Z</time>
      </trkpt>
      <trkpt lat="50.49759" lon="3.71906">
        <ele>116.72</ele>
        <time>2020-11-08T11:02:46.000Z</time>
      </trkpt>
      <trkpt lat="50.49755" lon="3.71898">
        <ele>116.1</ele>
        <time>2020-11-08T11:02:49.000Z</time>
      </trkpt>
      <trkpt lat="50.49753" lon="3.71891">
        <ele>115.23</ele>
        <time>2020-11-08T11:02:51.000Z</time>
      </trkpt>
      <trkpt lat="50.49749" lon="3.71884">
        <ele>115.84</ele>
        <time>2020-11-08T11:02:53.000Z</time>
      </trkpt>
      <trkpt lat="50.49745" lon="3.71876">
        <ele>115.7</ele>
        <time>2020-11-08T11:02:55.000Z</time>
      </trkpt>
      <trkpt lat="50.4974" lon="3.71869">
        <ele>115.08</ele>
        <time>2020-11-08T11:02:57.000Z</time>
      </trkpt>
      <trkpt lat="50.49734" lon="3.71862">
        <ele>116.17</ele>
        <time>2020-11-08T11:02:59.000Z</time>
      </trkpt>
      <trkpt lat="50.49729" lon="3.71853">
        <ele>117.63</ele>
        <time>2020-11-08T11:03:01.000Z</time>
      </trkpt>
      <trkpt lat="50.49724" lon="3.71846">
        <ele>117.39</ele>
        <time>2020-11-08T11:03:03.000Z</time>
      </trkpt>
      <trkpt lat="50.4972" lon="3.71837">
        <ele>117.98</ele>
        <time>2020-11-08T11:03:05.000Z</time>
      </trkpt>
      <trkpt lat="50.49716" lon="3.71829">
        <ele>117.52</ele>
        <time>2020-11-08T11:03:08.000Z</time>
      </trkpt>
      <trkpt lat="50.49714" lon="3.7182">
        <ele>118.7</ele>
        <time>2020-11-08T11:03:10.000Z</time>
      </trkpt>
      <trkpt lat="50.49714" lon="3.7182">
        <ele>118.7</ele>
        <time>2020-11-08T11:03:10.001Z</time>
      </trkpt>
    </trkseg>
  </trk>
</gpx>